<?xml version="1.0" encoding="UTF-8" standalone="no" ?>
<gpx xmlns="http://www.topografix.com/GPX/1/1" xmlns:xsi="http://www.w3.org/2001/XMLSchema-instance" xsi:schemaLocation="http://www.topografix.com/GPX/1/1 http://www.topografix.com/GPX/1/1/gpx.xsd" version="1.1" creator="VisuGPX - https://www.visugpx.com">
  <metadata>
    <name>2018-08-22 Bike ride-Georges de Reneins O v47k</name>
    <desc><![CDATA[2018-08-22 Bike ride-Georges de Reneins O v47k]]></desc>
  </metadata>
  <wpt lat="45.92458" lon="4.73701">
    <ele>174</ele>
    <name><![CDATA[2018-08-22 10:08 (Start)]]></name>
  </wpt>
  <wpt lat="45.92465" lon="4.73705">
    <ele>174</ele>
    <name><![CDATA[2018-08-22 10:08 (End)]]></name>
  </wpt>
  <trk>
    <name><![CDATA[2018-08-22 10:08]]></name>
    <trkseg>
      <trkpt lat="45.92458" lon="4.73701">
        <ele>174</ele>
        <time>2018-08-22T08:08:56.025Z</time>
      </trkpt>
      <trkpt lat="45.92465" lon="4.73693">
        <ele>174</ele>
        <time>2018-08-22T08:09:35Z</time>
      </trkpt>
      <trkpt lat="45.92466" lon="4.73691">
        <ele>174</ele>
        <time>2018-08-22T08:09:36Z</time>
      </trkpt>
      <trkpt lat="45.92468" lon="4.73682">
        <ele>174</ele>
        <time>2018-08-22T08:09:39Z</time>
      </trkpt>
      <trkpt lat="45.92469" lon="4.73679">
        <ele>174</ele>
        <time>2018-08-22T08:09:40Z</time>
      </trkpt>
      <trkpt lat="45.92469" lon="4.73671">
        <ele>174</ele>
        <time>2018-08-22T08:09:42Z</time>
      </trkpt>
      <trkpt lat="45.9247" lon="4.73657">
        <ele>174</ele>
        <time>2018-08-22T08:09:43Z</time>
      </trkpt>
      <trkpt lat="45.92471" lon="4.73645">
        <ele>174</ele>
        <time>2018-08-22T08:09:45Z</time>
      </trkpt>
      <trkpt lat="45.92472" lon="4.73638">
        <ele>174</ele>
        <time>2018-08-22T08:09:46Z</time>
      </trkpt>
      <trkpt lat="45.92471" lon="4.73629">
        <ele>174</ele>
        <time>2018-08-22T08:09:47Z</time>
      </trkpt>
      <trkpt lat="45.92471" lon="4.73624">
        <ele>174</ele>
        <time>2018-08-22T08:09:48Z</time>
      </trkpt>
      <trkpt lat="45.92471" lon="4.73617">
        <ele>174</ele>
        <time>2018-08-22T08:09:49Z</time>
      </trkpt>
      <trkpt lat="45.92471" lon="4.7361">
        <ele>174</ele>
        <time>2018-08-22T08:09:50Z</time>
      </trkpt>
      <trkpt lat="45.92473" lon="4.73604">
        <ele>174</ele>
        <time>2018-08-22T08:09:51Z</time>
      </trkpt>
      <trkpt lat="45.92474" lon="4.73597">
        <ele>174</ele>
        <time>2018-08-22T08:09:52Z</time>
      </trkpt>
      <trkpt lat="45.92471" lon="4.73587">
        <ele>174</ele>
        <time>2018-08-22T08:09:55Z</time>
      </trkpt>
      <trkpt lat="45.9247" lon="4.73583">
        <ele>173</ele>
        <time>2018-08-22T08:09:56Z</time>
      </trkpt>
      <trkpt lat="45.9247" lon="4.73574">
        <ele>173</ele>
        <time>2018-08-22T08:09:58Z</time>
      </trkpt>
      <trkpt lat="45.9247" lon="4.73569">
        <ele>173</ele>
        <time>2018-08-22T08:09:59Z</time>
      </trkpt>
      <trkpt lat="45.92469" lon="4.73556">
        <ele>173</ele>
        <time>2018-08-22T08:10:02Z</time>
      </trkpt>
      <trkpt lat="45.92468" lon="4.73552">
        <ele>173</ele>
        <time>2018-08-22T08:10:03Z</time>
      </trkpt>
      <trkpt lat="45.92468" lon="4.73541">
        <ele>174</ele>
        <time>2018-08-22T08:10:06Z</time>
      </trkpt>
      <trkpt lat="45.92467" lon="4.73525">
        <ele>174</ele>
        <time>2018-08-22T08:10:07Z</time>
      </trkpt>
      <trkpt lat="45.92467" lon="4.73519">
        <ele>174</ele>
        <time>2018-08-22T08:10:08Z</time>
      </trkpt>
      <trkpt lat="45.92466" lon="4.73512">
        <ele>174</ele>
        <time>2018-08-22T08:10:09Z</time>
      </trkpt>
      <trkpt lat="45.92466" lon="4.73504">
        <ele>174</ele>
        <time>2018-08-22T08:10:10Z</time>
      </trkpt>
      <trkpt lat="45.92466" lon="4.73497">
        <ele>173</ele>
        <time>2018-08-22T08:10:11Z</time>
      </trkpt>
      <trkpt lat="45.92466" lon="4.7349">
        <ele>173</ele>
        <time>2018-08-22T08:10:12Z</time>
      </trkpt>
      <trkpt lat="45.92467" lon="4.73483">
        <ele>173</ele>
        <time>2018-08-22T08:10:13Z</time>
      </trkpt>
      <trkpt lat="45.92467" lon="4.73476">
        <ele>173</ele>
        <time>2018-08-22T08:10:14Z</time>
      </trkpt>
      <trkpt lat="45.92467" lon="4.73469">
        <ele>173</ele>
        <time>2018-08-22T08:10:15Z</time>
      </trkpt>
      <trkpt lat="45.92466" lon="4.73461">
        <ele>173</ele>
        <time>2018-08-22T08:10:16Z</time>
      </trkpt>
      <trkpt lat="45.92468" lon="4.73453">
        <ele>173</ele>
        <time>2018-08-22T08:10:17Z</time>
      </trkpt>
      <trkpt lat="45.92466" lon="4.73447">
        <ele>173</ele>
        <time>2018-08-22T08:10:18Z</time>
      </trkpt>
      <trkpt lat="45.92464" lon="4.7344">
        <ele>173</ele>
        <time>2018-08-22T08:10:19Z</time>
      </trkpt>
      <trkpt lat="45.92458" lon="4.73433">
        <ele>173</ele>
        <time>2018-08-22T08:10:20Z</time>
      </trkpt>
      <trkpt lat="45.92458" lon="4.73428">
        <ele>173</ele>
        <time>2018-08-22T08:10:21Z</time>
      </trkpt>
      <trkpt lat="45.92455" lon="4.73423">
        <ele>173</ele>
        <time>2018-08-22T08:10:22Z</time>
      </trkpt>
      <trkpt lat="45.9245" lon="4.73419">
        <ele>173</ele>
        <time>2018-08-22T08:10:23Z</time>
      </trkpt>
      <trkpt lat="45.92442" lon="4.73415">
        <ele>172</ele>
        <time>2018-08-22T08:10:25Z</time>
      </trkpt>
      <trkpt lat="45.92437" lon="4.73413">
        <ele>172</ele>
        <time>2018-08-22T08:10:26Z</time>
      </trkpt>
      <trkpt lat="45.92434" lon="4.73409">
        <ele>172</ele>
        <time>2018-08-22T08:10:27Z</time>
      </trkpt>
      <trkpt lat="45.9243" lon="4.73405">
        <ele>172</ele>
        <time>2018-08-22T08:10:28Z</time>
      </trkpt>
      <trkpt lat="45.92426" lon="4.73398">
        <ele>172</ele>
        <time>2018-08-22T08:10:29Z</time>
      </trkpt>
      <trkpt lat="45.92423" lon="4.73392">
        <ele>172</ele>
        <time>2018-08-22T08:10:30Z</time>
      </trkpt>
      <trkpt lat="45.9242" lon="4.73386">
        <ele>172</ele>
        <time>2018-08-22T08:10:31Z</time>
      </trkpt>
      <trkpt lat="45.92419" lon="4.73378">
        <ele>172</ele>
        <time>2018-08-22T08:10:32Z</time>
      </trkpt>
      <trkpt lat="45.92419" lon="4.73372">
        <ele>172</ele>
        <time>2018-08-22T08:10:33Z</time>
      </trkpt>
      <trkpt lat="45.92418" lon="4.73364">
        <ele>172</ele>
        <time>2018-08-22T08:10:34Z</time>
      </trkpt>
      <trkpt lat="45.92417" lon="4.73357">
        <ele>171</ele>
        <time>2018-08-22T08:10:35Z</time>
      </trkpt>
      <trkpt lat="45.92416" lon="4.73349">
        <ele>171</ele>
        <time>2018-08-22T08:10:36Z</time>
      </trkpt>
      <trkpt lat="45.92415" lon="4.73342">
        <ele>171</ele>
        <time>2018-08-22T08:10:37Z</time>
      </trkpt>
      <trkpt lat="45.92415" lon="4.73335">
        <ele>171</ele>
        <time>2018-08-22T08:10:38Z</time>
      </trkpt>
      <trkpt lat="45.92415" lon="4.73327">
        <ele>171</ele>
        <time>2018-08-22T08:10:39Z</time>
      </trkpt>
      <trkpt lat="45.92414" lon="4.73319">
        <ele>171</ele>
        <time>2018-08-22T08:10:40Z</time>
      </trkpt>
      <trkpt lat="45.92414" lon="4.73312">
        <ele>171</ele>
        <time>2018-08-22T08:10:41Z</time>
      </trkpt>
      <trkpt lat="45.92413" lon="4.73305">
        <ele>171</ele>
        <time>2018-08-22T08:10:42Z</time>
      </trkpt>
      <trkpt lat="45.92414" lon="4.73298">
        <ele>171</ele>
        <time>2018-08-22T08:10:43Z</time>
      </trkpt>
      <trkpt lat="45.92413" lon="4.73291">
        <ele>171</ele>
        <time>2018-08-22T08:10:44Z</time>
      </trkpt>
      <trkpt lat="45.92412" lon="4.73284">
        <ele>171</ele>
        <time>2018-08-22T08:10:45Z</time>
      </trkpt>
      <trkpt lat="45.9241" lon="4.73278">
        <ele>171</ele>
        <time>2018-08-22T08:10:46Z</time>
      </trkpt>
      <trkpt lat="45.9241" lon="4.73271">
        <ele>171</ele>
        <time>2018-08-22T08:10:47Z</time>
      </trkpt>
      <trkpt lat="45.9241" lon="4.73264">
        <ele>171</ele>
        <time>2018-08-22T08:10:48Z</time>
      </trkpt>
      <trkpt lat="45.92409" lon="4.73257">
        <ele>171</ele>
        <time>2018-08-22T08:10:49Z</time>
      </trkpt>
      <trkpt lat="45.92409" lon="4.7325">
        <ele>171</ele>
        <time>2018-08-22T08:10:50Z</time>
      </trkpt>
      <trkpt lat="45.92409" lon="4.73243">
        <ele>171</ele>
        <time>2018-08-22T08:10:51Z</time>
      </trkpt>
      <trkpt lat="45.92409" lon="4.73236">
        <ele>171</ele>
        <time>2018-08-22T08:10:52Z</time>
      </trkpt>
      <trkpt lat="45.92408" lon="4.73227">
        <ele>171</ele>
        <time>2018-08-22T08:10:53Z</time>
      </trkpt>
      <trkpt lat="45.92408" lon="4.73218">
        <ele>171</ele>
        <time>2018-08-22T08:10:54Z</time>
      </trkpt>
      <trkpt lat="45.92406" lon="4.7321">
        <ele>171</ele>
        <time>2018-08-22T08:10:55Z</time>
      </trkpt>
      <trkpt lat="45.92406" lon="4.73203">
        <ele>171</ele>
        <time>2018-08-22T08:10:56Z</time>
      </trkpt>
      <trkpt lat="45.92406" lon="4.73195">
        <ele>171</ele>
        <time>2018-08-22T08:10:57Z</time>
      </trkpt>
      <trkpt lat="45.92406" lon="4.73188">
        <ele>171</ele>
        <time>2018-08-22T08:10:58Z</time>
      </trkpt>
      <trkpt lat="45.92406" lon="4.73179">
        <ele>171</ele>
        <time>2018-08-22T08:10:59Z</time>
      </trkpt>
      <trkpt lat="45.92406" lon="4.73172">
        <ele>170</ele>
        <time>2018-08-22T08:11:00Z</time>
      </trkpt>
      <trkpt lat="45.92406" lon="4.73165">
        <ele>170</ele>
        <time>2018-08-22T08:11:01Z</time>
      </trkpt>
      <trkpt lat="45.92406" lon="4.73157">
        <ele>170</ele>
        <time>2018-08-22T08:11:02Z</time>
      </trkpt>
      <trkpt lat="45.92407" lon="4.7315">
        <ele>171</ele>
        <time>2018-08-22T08:11:03Z</time>
      </trkpt>
      <trkpt lat="45.92406" lon="4.73142">
        <ele>171</ele>
        <time>2018-08-22T08:11:04Z</time>
      </trkpt>
      <trkpt lat="45.92407" lon="4.73135">
        <ele>171</ele>
        <time>2018-08-22T08:11:05Z</time>
      </trkpt>
      <trkpt lat="45.92407" lon="4.73129">
        <ele>171</ele>
        <time>2018-08-22T08:11:06Z</time>
      </trkpt>
      <trkpt lat="45.92411" lon="4.73118">
        <ele>171</ele>
        <time>2018-08-22T08:11:08Z</time>
      </trkpt>
      <trkpt lat="45.92414" lon="4.73112">
        <ele>171</ele>
        <time>2018-08-22T08:11:09Z</time>
      </trkpt>
      <trkpt lat="45.92418" lon="4.73107">
        <ele>171</ele>
        <time>2018-08-22T08:11:10Z</time>
      </trkpt>
      <trkpt lat="45.92422" lon="4.73105">
        <ele>171</ele>
        <time>2018-08-22T08:11:11Z</time>
      </trkpt>
      <trkpt lat="45.92427" lon="4.73101">
        <ele>171</ele>
        <time>2018-08-22T08:11:12Z</time>
      </trkpt>
      <trkpt lat="45.92431" lon="4.73096">
        <ele>171</ele>
        <time>2018-08-22T08:11:13Z</time>
      </trkpt>
      <trkpt lat="45.92436" lon="4.73092">
        <ele>171</ele>
        <time>2018-08-22T08:11:14Z</time>
      </trkpt>
      <trkpt lat="45.92441" lon="4.73087">
        <ele>171</ele>
        <time>2018-08-22T08:11:15Z</time>
      </trkpt>
      <trkpt lat="45.92445" lon="4.73082">
        <ele>170</ele>
        <time>2018-08-22T08:11:16Z</time>
      </trkpt>
      <trkpt lat="45.9245" lon="4.7308">
        <ele>170</ele>
        <time>2018-08-22T08:11:17Z</time>
      </trkpt>
      <trkpt lat="45.92455" lon="4.73075">
        <ele>170</ele>
        <time>2018-08-22T08:11:18Z</time>
      </trkpt>
      <trkpt lat="45.92459" lon="4.7307">
        <ele>170</ele>
        <time>2018-08-22T08:11:19Z</time>
      </trkpt>
      <trkpt lat="45.92463" lon="4.73067">
        <ele>170</ele>
        <time>2018-08-22T08:11:20Z</time>
      </trkpt>
      <trkpt lat="45.92467" lon="4.7306">
        <ele>170</ele>
        <time>2018-08-22T08:11:21Z</time>
      </trkpt>
      <trkpt lat="45.92472" lon="4.73057">
        <ele>170</ele>
        <time>2018-08-22T08:11:22Z</time>
      </trkpt>
      <trkpt lat="45.92476" lon="4.73055">
        <ele>170</ele>
        <time>2018-08-22T08:11:23Z</time>
      </trkpt>
      <trkpt lat="45.92481" lon="4.73052">
        <ele>170</ele>
        <time>2018-08-22T08:11:24Z</time>
      </trkpt>
      <trkpt lat="45.92485" lon="4.7305">
        <ele>170</ele>
        <time>2018-08-22T08:11:25Z</time>
      </trkpt>
      <trkpt lat="45.9249" lon="4.73042">
        <ele>170</ele>
        <time>2018-08-22T08:11:26Z</time>
      </trkpt>
      <trkpt lat="45.92494" lon="4.73038">
        <ele>170</ele>
        <time>2018-08-22T08:11:27Z</time>
      </trkpt>
      <trkpt lat="45.92498" lon="4.73034">
        <ele>170</ele>
        <time>2018-08-22T08:11:28Z</time>
      </trkpt>
      <trkpt lat="45.92503" lon="4.73031">
        <ele>169</ele>
        <time>2018-08-22T08:11:29Z</time>
      </trkpt>
      <trkpt lat="45.92507" lon="4.73026">
        <ele>169</ele>
        <time>2018-08-22T08:11:30Z</time>
      </trkpt>
      <trkpt lat="45.92512" lon="4.73021">
        <ele>169</ele>
        <time>2018-08-22T08:11:31Z</time>
      </trkpt>
      <trkpt lat="45.92517" lon="4.73018">
        <ele>169</ele>
        <time>2018-08-22T08:11:32Z</time>
      </trkpt>
      <trkpt lat="45.92522" lon="4.73015">
        <ele>169</ele>
        <time>2018-08-22T08:11:33Z</time>
      </trkpt>
      <trkpt lat="45.92527" lon="4.73013">
        <ele>169</ele>
        <time>2018-08-22T08:11:34Z</time>
      </trkpt>
      <trkpt lat="45.92532" lon="4.73004">
        <ele>169</ele>
        <time>2018-08-22T08:11:35Z</time>
      </trkpt>
      <trkpt lat="45.92537" lon="4.72994">
        <ele>169</ele>
        <time>2018-08-22T08:11:36Z</time>
      </trkpt>
      <trkpt lat="45.92541" lon="4.72991">
        <ele>169</ele>
        <time>2018-08-22T08:11:37Z</time>
      </trkpt>
      <trkpt lat="45.92547" lon="4.7299">
        <ele>169</ele>
        <time>2018-08-22T08:11:38Z</time>
      </trkpt>
      <trkpt lat="45.9255" lon="4.72985">
        <ele>169</ele>
        <time>2018-08-22T08:11:39Z</time>
      </trkpt>
      <trkpt lat="45.92555" lon="4.72981">
        <ele>169</ele>
        <time>2018-08-22T08:11:40Z</time>
      </trkpt>
      <trkpt lat="45.92558" lon="4.72978">
        <ele>169</ele>
        <time>2018-08-22T08:11:41Z</time>
      </trkpt>
      <trkpt lat="45.92562" lon="4.72972">
        <ele>169</ele>
        <time>2018-08-22T08:11:42Z</time>
      </trkpt>
      <trkpt lat="45.92567" lon="4.72968">
        <ele>169</ele>
        <time>2018-08-22T08:11:43Z</time>
      </trkpt>
      <trkpt lat="45.92571" lon="4.72966">
        <ele>169</ele>
        <time>2018-08-22T08:11:44Z</time>
      </trkpt>
      <trkpt lat="45.92576" lon="4.72963">
        <ele>169</ele>
        <time>2018-08-22T08:11:45Z</time>
      </trkpt>
      <trkpt lat="45.9258" lon="4.72956">
        <ele>169</ele>
        <time>2018-08-22T08:11:46Z</time>
      </trkpt>
      <trkpt lat="45.92585" lon="4.72949">
        <ele>169</ele>
        <time>2018-08-22T08:11:47Z</time>
      </trkpt>
      <trkpt lat="45.92589" lon="4.72945">
        <ele>169</ele>
        <time>2018-08-22T08:11:48Z</time>
      </trkpt>
      <trkpt lat="45.92593" lon="4.72942">
        <ele>169</ele>
        <time>2018-08-22T08:11:49Z</time>
      </trkpt>
      <trkpt lat="45.92597" lon="4.72937">
        <ele>169</ele>
        <time>2018-08-22T08:11:50Z</time>
      </trkpt>
      <trkpt lat="45.92601" lon="4.72931">
        <ele>169</ele>
        <time>2018-08-22T08:11:51Z</time>
      </trkpt>
      <trkpt lat="45.92605" lon="4.72926">
        <ele>169</ele>
        <time>2018-08-22T08:11:52Z</time>
      </trkpt>
      <trkpt lat="45.9261" lon="4.72921">
        <ele>169</ele>
        <time>2018-08-22T08:11:53Z</time>
      </trkpt>
      <trkpt lat="45.92617" lon="4.72918">
        <ele>169</ele>
        <time>2018-08-22T08:11:54Z</time>
      </trkpt>
      <trkpt lat="45.92621" lon="4.72915">
        <ele>169</ele>
        <time>2018-08-22T08:11:55Z</time>
      </trkpt>
      <trkpt lat="45.92625" lon="4.72912">
        <ele>169</ele>
        <time>2018-08-22T08:11:56Z</time>
      </trkpt>
      <trkpt lat="45.9263" lon="4.72908">
        <ele>169</ele>
        <time>2018-08-22T08:11:57Z</time>
      </trkpt>
      <trkpt lat="45.92635" lon="4.72905">
        <ele>169</ele>
        <time>2018-08-22T08:11:58Z</time>
      </trkpt>
      <trkpt lat="45.92639" lon="4.72901">
        <ele>169</ele>
        <time>2018-08-22T08:11:59Z</time>
      </trkpt>
      <trkpt lat="45.92643" lon="4.72897">
        <ele>169</ele>
        <time>2018-08-22T08:12:00Z</time>
      </trkpt>
      <trkpt lat="45.92648" lon="4.72893">
        <ele>169</ele>
        <time>2018-08-22T08:12:01Z</time>
      </trkpt>
      <trkpt lat="45.92652" lon="4.72891">
        <ele>169</ele>
        <time>2018-08-22T08:12:02Z</time>
      </trkpt>
      <trkpt lat="45.92657" lon="4.72886">
        <ele>169</ele>
        <time>2018-08-22T08:12:03Z</time>
      </trkpt>
      <trkpt lat="45.92661" lon="4.72882">
        <ele>169</ele>
        <time>2018-08-22T08:12:04Z</time>
      </trkpt>
      <trkpt lat="45.92666" lon="4.72879">
        <ele>169</ele>
        <time>2018-08-22T08:12:05Z</time>
      </trkpt>
      <trkpt lat="45.92672" lon="4.72874">
        <ele>169</ele>
        <time>2018-08-22T08:12:06Z</time>
      </trkpt>
      <trkpt lat="45.92677" lon="4.72871">
        <ele>169</ele>
        <time>2018-08-22T08:12:07Z</time>
      </trkpt>
      <trkpt lat="45.92682" lon="4.72866">
        <ele>169</ele>
        <time>2018-08-22T08:12:08Z</time>
      </trkpt>
      <trkpt lat="45.92687" lon="4.7286">
        <ele>169</ele>
        <time>2018-08-22T08:12:09Z</time>
      </trkpt>
      <trkpt lat="45.92692" lon="4.72857">
        <ele>169</ele>
        <time>2018-08-22T08:12:10Z</time>
      </trkpt>
      <trkpt lat="45.92697" lon="4.72854">
        <ele>169</ele>
        <time>2018-08-22T08:12:11Z</time>
      </trkpt>
      <trkpt lat="45.92702" lon="4.7285">
        <ele>169</ele>
        <time>2018-08-22T08:12:12Z</time>
      </trkpt>
      <trkpt lat="45.92707" lon="4.72845">
        <ele>169</ele>
        <time>2018-08-22T08:12:13Z</time>
      </trkpt>
      <trkpt lat="45.92712" lon="4.72839">
        <ele>169</ele>
        <time>2018-08-22T08:12:14Z</time>
      </trkpt>
      <trkpt lat="45.92717" lon="4.72837">
        <ele>169</ele>
        <time>2018-08-22T08:12:15Z</time>
      </trkpt>
      <trkpt lat="45.92721" lon="4.72834">
        <ele>169</ele>
        <time>2018-08-22T08:12:16Z</time>
      </trkpt>
      <trkpt lat="45.92726" lon="4.72829">
        <ele>170</ele>
        <time>2018-08-22T08:12:17Z</time>
      </trkpt>
      <trkpt lat="45.9273" lon="4.72826">
        <ele>170</ele>
        <time>2018-08-22T08:12:18Z</time>
      </trkpt>
      <trkpt lat="45.92735" lon="4.7282">
        <ele>170</ele>
        <time>2018-08-22T08:12:19Z</time>
      </trkpt>
      <trkpt lat="45.9274" lon="4.72816">
        <ele>170</ele>
        <time>2018-08-22T08:12:20Z</time>
      </trkpt>
      <trkpt lat="45.92745" lon="4.72813">
        <ele>170</ele>
        <time>2018-08-22T08:12:21Z</time>
      </trkpt>
      <trkpt lat="45.9275" lon="4.72808">
        <ele>170</ele>
        <time>2018-08-22T08:12:22Z</time>
      </trkpt>
      <trkpt lat="45.92756" lon="4.72805">
        <ele>170</ele>
        <time>2018-08-22T08:12:23Z</time>
      </trkpt>
      <trkpt lat="45.92761" lon="4.728">
        <ele>170</ele>
        <time>2018-08-22T08:12:24Z</time>
      </trkpt>
      <trkpt lat="45.92766" lon="4.72797">
        <ele>170</ele>
        <time>2018-08-22T08:12:25Z</time>
      </trkpt>
      <trkpt lat="45.92771" lon="4.72792">
        <ele>170</ele>
        <time>2018-08-22T08:12:26Z</time>
      </trkpt>
      <trkpt lat="45.92776" lon="4.72791">
        <ele>170</ele>
        <time>2018-08-22T08:12:27Z</time>
      </trkpt>
      <trkpt lat="45.92781" lon="4.72787">
        <ele>170</ele>
        <time>2018-08-22T08:12:28Z</time>
      </trkpt>
      <trkpt lat="45.92785" lon="4.72781">
        <ele>171</ele>
        <time>2018-08-22T08:12:29Z</time>
      </trkpt>
      <trkpt lat="45.9279" lon="4.7278">
        <ele>171</ele>
        <time>2018-08-22T08:12:30Z</time>
      </trkpt>
      <trkpt lat="45.92794" lon="4.72776">
        <ele>171</ele>
        <time>2018-08-22T08:12:31Z</time>
      </trkpt>
      <trkpt lat="45.92802" lon="4.72779">
        <ele>171</ele>
        <time>2018-08-22T08:12:34Z</time>
      </trkpt>
      <trkpt lat="45.92802" lon="4.72782">
        <ele>171</ele>
        <time>2018-08-22T08:12:35Z</time>
      </trkpt>
      <trkpt lat="45.92805" lon="4.72796">
        <ele>171</ele>
        <time>2018-08-22T08:12:36Z</time>
      </trkpt>
      <trkpt lat="45.92805" lon="4.72805">
        <ele>171</ele>
        <time>2018-08-22T08:12:37Z</time>
      </trkpt>
      <trkpt lat="45.92806" lon="4.7281">
        <ele>171</ele>
        <time>2018-08-22T08:12:38Z</time>
      </trkpt>
      <trkpt lat="45.92806" lon="4.72818">
        <ele>171</ele>
        <time>2018-08-22T08:12:39Z</time>
      </trkpt>
      <trkpt lat="45.92808" lon="4.72824">
        <ele>171</ele>
        <time>2018-08-22T08:12:40Z</time>
      </trkpt>
      <trkpt lat="45.92805" lon="4.72831">
        <ele>171</ele>
        <time>2018-08-22T08:12:41Z</time>
      </trkpt>
      <trkpt lat="45.92805" lon="4.72839">
        <ele>170</ele>
        <time>2018-08-22T08:12:42Z</time>
      </trkpt>
      <trkpt lat="45.92807" lon="4.72847">
        <ele>170</ele>
        <time>2018-08-22T08:12:43Z</time>
      </trkpt>
      <trkpt lat="45.92808" lon="4.72855">
        <ele>170</ele>
        <time>2018-08-22T08:12:44Z</time>
      </trkpt>
      <trkpt lat="45.92809" lon="4.72862">
        <ele>170</ele>
        <time>2018-08-22T08:12:45Z</time>
      </trkpt>
      <trkpt lat="45.9281" lon="4.72871">
        <ele>170</ele>
        <time>2018-08-22T08:12:46Z</time>
      </trkpt>
      <trkpt lat="45.92813" lon="4.72882">
        <ele>170</ele>
        <time>2018-08-22T08:12:48Z</time>
      </trkpt>
      <trkpt lat="45.92816" lon="4.72891">
        <ele>170</ele>
        <time>2018-08-22T08:12:49Z</time>
      </trkpt>
      <trkpt lat="45.92818" lon="4.72898">
        <ele>170</ele>
        <time>2018-08-22T08:12:50Z</time>
      </trkpt>
      <trkpt lat="45.92819" lon="4.72907">
        <ele>170</ele>
        <time>2018-08-22T08:12:51Z</time>
      </trkpt>
      <trkpt lat="45.92819" lon="4.72915">
        <ele>170</ele>
        <time>2018-08-22T08:12:52Z</time>
      </trkpt>
      <trkpt lat="45.92819" lon="4.72924">
        <ele>170</ele>
        <time>2018-08-22T08:12:53Z</time>
      </trkpt>
      <trkpt lat="45.92819" lon="4.72932">
        <ele>170</ele>
        <time>2018-08-22T08:12:54Z</time>
      </trkpt>
      <trkpt lat="45.92821" lon="4.72939">
        <ele>170</ele>
        <time>2018-08-22T08:12:55Z</time>
      </trkpt>
      <trkpt lat="45.9282" lon="4.72946">
        <ele>170</ele>
        <time>2018-08-22T08:12:56Z</time>
      </trkpt>
      <trkpt lat="45.92823" lon="4.72954">
        <ele>170</ele>
        <time>2018-08-22T08:12:57Z</time>
      </trkpt>
      <trkpt lat="45.92822" lon="4.72961">
        <ele>170</ele>
        <time>2018-08-22T08:12:58Z</time>
      </trkpt>
      <trkpt lat="45.92821" lon="4.72971">
        <ele>170</ele>
        <time>2018-08-22T08:12:59Z</time>
      </trkpt>
      <trkpt lat="45.92826" lon="4.72979">
        <ele>170</ele>
        <time>2018-08-22T08:13:00Z</time>
      </trkpt>
      <trkpt lat="45.92827" lon="4.72987">
        <ele>170</ele>
        <time>2018-08-22T08:13:01Z</time>
      </trkpt>
      <trkpt lat="45.92828" lon="4.72995">
        <ele>170</ele>
        <time>2018-08-22T08:13:02Z</time>
      </trkpt>
      <trkpt lat="45.9283" lon="4.73002">
        <ele>170</ele>
        <time>2018-08-22T08:13:03Z</time>
      </trkpt>
      <trkpt lat="45.9283" lon="4.7301">
        <ele>170</ele>
        <time>2018-08-22T08:13:04Z</time>
      </trkpt>
      <trkpt lat="45.9283" lon="4.7302">
        <ele>170</ele>
        <time>2018-08-22T08:13:05Z</time>
      </trkpt>
      <trkpt lat="45.9283" lon="4.73028">
        <ele>170</ele>
        <time>2018-08-22T08:13:06Z</time>
      </trkpt>
      <trkpt lat="45.92833" lon="4.73035">
        <ele>171</ele>
        <time>2018-08-22T08:13:07Z</time>
      </trkpt>
      <trkpt lat="45.92835" lon="4.73042">
        <ele>171</ele>
        <time>2018-08-22T08:13:08Z</time>
      </trkpt>
      <trkpt lat="45.92837" lon="4.7305">
        <ele>171</ele>
        <time>2018-08-22T08:13:09Z</time>
      </trkpt>
      <trkpt lat="45.92837" lon="4.73059">
        <ele>171</ele>
        <time>2018-08-22T08:13:10Z</time>
      </trkpt>
      <trkpt lat="45.92836" lon="4.73068">
        <ele>171</ele>
        <time>2018-08-22T08:13:11Z</time>
      </trkpt>
      <trkpt lat="45.92839" lon="4.73073">
        <ele>171</ele>
        <time>2018-08-22T08:13:12Z</time>
      </trkpt>
      <trkpt lat="45.92838" lon="4.7308">
        <ele>171</ele>
        <time>2018-08-22T08:13:13Z</time>
      </trkpt>
      <trkpt lat="45.92839" lon="4.73093">
        <ele>171</ele>
        <time>2018-08-22T08:13:15Z</time>
      </trkpt>
      <trkpt lat="45.92839" lon="4.73095">
        <ele>171</ele>
        <time>2018-08-22T08:13:16Z</time>
      </trkpt>
      <trkpt lat="45.92846" lon="4.73102">
        <ele>171</ele>
        <time>2018-08-22T08:13:17Z</time>
      </trkpt>
      <trkpt lat="45.92851" lon="4.73099">
        <ele>171</ele>
        <time>2018-08-22T08:13:18Z</time>
      </trkpt>
      <trkpt lat="45.92859" lon="4.73094">
        <ele>171</ele>
        <time>2018-08-22T08:13:21Z</time>
      </trkpt>
      <trkpt lat="45.92865" lon="4.73087">
        <ele>172</ele>
        <time>2018-08-22T08:13:22Z</time>
      </trkpt>
      <trkpt lat="45.92871" lon="4.7308">
        <ele>172</ele>
        <time>2018-08-22T08:13:26Z</time>
      </trkpt>
      <trkpt lat="45.92879" lon="4.73073">
        <ele>172</ele>
        <time>2018-08-22T08:13:27Z</time>
      </trkpt>
      <trkpt lat="45.92884" lon="4.73071">
        <ele>172</ele>
        <time>2018-08-22T08:13:28Z</time>
      </trkpt>
      <trkpt lat="45.92888" lon="4.73066">
        <ele>172</ele>
        <time>2018-08-22T08:13:29Z</time>
      </trkpt>
      <trkpt lat="45.92892" lon="4.7306">
        <ele>172</ele>
        <time>2018-08-22T08:13:30Z</time>
      </trkpt>
      <trkpt lat="45.92894" lon="4.73053">
        <ele>172</ele>
        <time>2018-08-22T08:13:31Z</time>
      </trkpt>
      <trkpt lat="45.92898" lon="4.73047">
        <ele>172</ele>
        <time>2018-08-22T08:13:32Z</time>
      </trkpt>
      <trkpt lat="45.92903" lon="4.73041">
        <ele>172</ele>
        <time>2018-08-22T08:13:33Z</time>
      </trkpt>
      <trkpt lat="45.92907" lon="4.73035">
        <ele>172</ele>
        <time>2018-08-22T08:13:34Z</time>
      </trkpt>
      <trkpt lat="45.92911" lon="4.7303">
        <ele>172</ele>
        <time>2018-08-22T08:13:35Z</time>
      </trkpt>
      <trkpt lat="45.92915" lon="4.73023">
        <ele>172</ele>
        <time>2018-08-22T08:13:36Z</time>
      </trkpt>
      <trkpt lat="45.9292" lon="4.73017">
        <ele>172</ele>
        <time>2018-08-22T08:13:37Z</time>
      </trkpt>
      <trkpt lat="45.92924" lon="4.73013">
        <ele>172</ele>
        <time>2018-08-22T08:13:38Z</time>
      </trkpt>
      <trkpt lat="45.92929" lon="4.73008">
        <ele>172</ele>
        <time>2018-08-22T08:13:39Z</time>
      </trkpt>
      <trkpt lat="45.92933" lon="4.73002">
        <ele>171</ele>
        <time>2018-08-22T08:13:40Z</time>
      </trkpt>
      <trkpt lat="45.92937" lon="4.72998">
        <ele>171</ele>
        <time>2018-08-22T08:13:41Z</time>
      </trkpt>
      <trkpt lat="45.92941" lon="4.72992">
        <ele>171</ele>
        <time>2018-08-22T08:13:42Z</time>
      </trkpt>
      <trkpt lat="45.92946" lon="4.72987">
        <ele>171</ele>
        <time>2018-08-22T08:13:43Z</time>
      </trkpt>
      <trkpt lat="45.92951" lon="4.72982">
        <ele>171</ele>
        <time>2018-08-22T08:13:44Z</time>
      </trkpt>
      <trkpt lat="45.92955" lon="4.72977">
        <ele>171</ele>
        <time>2018-08-22T08:13:45Z</time>
      </trkpt>
      <trkpt lat="45.92959" lon="4.72971">
        <ele>171</ele>
        <time>2018-08-22T08:13:46Z</time>
      </trkpt>
      <trkpt lat="45.92964" lon="4.72966">
        <ele>171</ele>
        <time>2018-08-22T08:13:47Z</time>
      </trkpt>
      <trkpt lat="45.92969" lon="4.72961">
        <ele>171</ele>
        <time>2018-08-22T08:13:48Z</time>
      </trkpt>
      <trkpt lat="45.92974" lon="4.72955">
        <ele>171</ele>
        <time>2018-08-22T08:13:49Z</time>
      </trkpt>
      <trkpt lat="45.92978" lon="4.72949">
        <ele>171</ele>
        <time>2018-08-22T08:13:50Z</time>
      </trkpt>
      <trkpt lat="45.92984" lon="4.72941">
        <ele>171</ele>
        <time>2018-08-22T08:13:51Z</time>
      </trkpt>
      <trkpt lat="45.92988" lon="4.72938">
        <ele>171</ele>
        <time>2018-08-22T08:13:52Z</time>
      </trkpt>
      <trkpt lat="45.92992" lon="4.72932">
        <ele>171</ele>
        <time>2018-08-22T08:13:53Z</time>
      </trkpt>
      <trkpt lat="45.92996" lon="4.72926">
        <ele>171</ele>
        <time>2018-08-22T08:13:54Z</time>
      </trkpt>
      <trkpt lat="45.93" lon="4.72921">
        <ele>171</ele>
        <time>2018-08-22T08:13:55Z</time>
      </trkpt>
      <trkpt lat="45.93004" lon="4.72915">
        <ele>171</ele>
        <time>2018-08-22T08:13:56Z</time>
      </trkpt>
      <trkpt lat="45.93009" lon="4.7291">
        <ele>171</ele>
        <time>2018-08-22T08:13:57Z</time>
      </trkpt>
      <trkpt lat="45.93013" lon="4.72904">
        <ele>172</ele>
        <time>2018-08-22T08:13:58Z</time>
      </trkpt>
      <trkpt lat="45.93018" lon="4.729">
        <ele>172</ele>
        <time>2018-08-22T08:13:59Z</time>
      </trkpt>
      <trkpt lat="45.93022" lon="4.72895">
        <ele>172</ele>
        <time>2018-08-22T08:14:00Z</time>
      </trkpt>
      <trkpt lat="45.93026" lon="4.72892">
        <ele>172</ele>
        <time>2018-08-22T08:14:01Z</time>
      </trkpt>
      <trkpt lat="45.9303" lon="4.72886">
        <ele>172</ele>
        <time>2018-08-22T08:14:02Z</time>
      </trkpt>
      <trkpt lat="45.93035" lon="4.7288">
        <ele>172</ele>
        <time>2018-08-22T08:14:03Z</time>
      </trkpt>
      <trkpt lat="45.93039" lon="4.72874">
        <ele>172</ele>
        <time>2018-08-22T08:14:04Z</time>
      </trkpt>
      <trkpt lat="45.93044" lon="4.72869">
        <ele>172</ele>
        <time>2018-08-22T08:14:05Z</time>
      </trkpt>
      <trkpt lat="45.93049" lon="4.72862">
        <ele>172</ele>
        <time>2018-08-22T08:14:06Z</time>
      </trkpt>
      <trkpt lat="45.93054" lon="4.72857">
        <ele>172</ele>
        <time>2018-08-22T08:14:07Z</time>
      </trkpt>
      <trkpt lat="45.9306" lon="4.72851">
        <ele>172</ele>
        <time>2018-08-22T08:14:08Z</time>
      </trkpt>
      <trkpt lat="45.93064" lon="4.72845">
        <ele>172</ele>
        <time>2018-08-22T08:14:09Z</time>
      </trkpt>
      <trkpt lat="45.93069" lon="4.72839">
        <ele>173</ele>
        <time>2018-08-22T08:14:10Z</time>
      </trkpt>
      <trkpt lat="45.93073" lon="4.72833">
        <ele>173</ele>
        <time>2018-08-22T08:14:11Z</time>
      </trkpt>
      <trkpt lat="45.93101" lon="4.72806">
        <ele>171</ele>
        <time>2018-08-22T08:14:17Z</time>
      </trkpt>
      <trkpt lat="45.93107" lon="4.72799">
        <ele>171</ele>
        <time>2018-08-22T08:14:19Z</time>
      </trkpt>
      <trkpt lat="45.93115" lon="4.72791">
        <ele>171</ele>
        <time>2018-08-22T08:14:20Z</time>
      </trkpt>
      <trkpt lat="45.9312" lon="4.72787">
        <ele>171</ele>
        <time>2018-08-22T08:14:21Z</time>
      </trkpt>
      <trkpt lat="45.93126" lon="4.72782">
        <ele>171</ele>
        <time>2018-08-22T08:14:22Z</time>
      </trkpt>
      <trkpt lat="45.9313" lon="4.72776">
        <ele>171</ele>
        <time>2018-08-22T08:14:23Z</time>
      </trkpt>
      <trkpt lat="45.93136" lon="4.72773">
        <ele>171</ele>
        <time>2018-08-22T08:14:24Z</time>
      </trkpt>
      <trkpt lat="45.93139" lon="4.7277">
        <ele>171</ele>
        <time>2018-08-22T08:14:25Z</time>
      </trkpt>
      <trkpt lat="45.93145" lon="4.72762">
        <ele>171</ele>
        <time>2018-08-22T08:14:26Z</time>
      </trkpt>
      <trkpt lat="45.9315" lon="4.72756">
        <ele>170</ele>
        <time>2018-08-22T08:14:27Z</time>
      </trkpt>
      <trkpt lat="45.93154" lon="4.72749">
        <ele>170</ele>
        <time>2018-08-22T08:14:28Z</time>
      </trkpt>
      <trkpt lat="45.93157" lon="4.72744">
        <ele>170</ele>
        <time>2018-08-22T08:14:29Z</time>
      </trkpt>
      <trkpt lat="45.93161" lon="4.72737">
        <ele>170</ele>
        <time>2018-08-22T08:14:30Z</time>
      </trkpt>
      <trkpt lat="45.93165" lon="4.72732">
        <ele>170</ele>
        <time>2018-08-22T08:14:31Z</time>
      </trkpt>
      <trkpt lat="45.93169" lon="4.72728">
        <ele>170</ele>
        <time>2018-08-22T08:14:32Z</time>
      </trkpt>
      <trkpt lat="45.93177" lon="4.72724">
        <ele>170</ele>
        <time>2018-08-22T08:14:34Z</time>
      </trkpt>
      <trkpt lat="45.93181" lon="4.72716">
        <ele>169</ele>
        <time>2018-08-22T08:14:35Z</time>
      </trkpt>
      <trkpt lat="45.93185" lon="4.72712">
        <ele>169</ele>
        <time>2018-08-22T08:14:36Z</time>
      </trkpt>
      <trkpt lat="45.93189" lon="4.72707">
        <ele>169</ele>
        <time>2018-08-22T08:14:37Z</time>
      </trkpt>
      <trkpt lat="45.93193" lon="4.72703">
        <ele>169</ele>
        <time>2018-08-22T08:14:38Z</time>
      </trkpt>
      <trkpt lat="45.93198" lon="4.72696">
        <ele>169</ele>
        <time>2018-08-22T08:14:39Z</time>
      </trkpt>
      <trkpt lat="45.93203" lon="4.7269">
        <ele>169</ele>
        <time>2018-08-22T08:14:40Z</time>
      </trkpt>
      <trkpt lat="45.93207" lon="4.72685">
        <ele>169</ele>
        <time>2018-08-22T08:14:41Z</time>
      </trkpt>
      <trkpt lat="45.93212" lon="4.7268">
        <ele>169</ele>
        <time>2018-08-22T08:14:42Z</time>
      </trkpt>
      <trkpt lat="45.93215" lon="4.72676">
        <ele>169</ele>
        <time>2018-08-22T08:14:43Z</time>
      </trkpt>
      <trkpt lat="45.93219" lon="4.72671">
        <ele>169</ele>
        <time>2018-08-22T08:14:44Z</time>
      </trkpt>
      <trkpt lat="45.93224" lon="4.72664">
        <ele>170</ele>
        <time>2018-08-22T08:14:45Z</time>
      </trkpt>
      <trkpt lat="45.9323" lon="4.7266">
        <ele>169</ele>
        <time>2018-08-22T08:14:46Z</time>
      </trkpt>
      <trkpt lat="45.93235" lon="4.72654">
        <ele>169</ele>
        <time>2018-08-22T08:14:47Z</time>
      </trkpt>
      <trkpt lat="45.9324" lon="4.72648">
        <ele>170</ele>
        <time>2018-08-22T08:14:48Z</time>
      </trkpt>
      <trkpt lat="45.93244" lon="4.7264">
        <ele>170</ele>
        <time>2018-08-22T08:14:49Z</time>
      </trkpt>
      <trkpt lat="45.93248" lon="4.72634">
        <ele>170</ele>
        <time>2018-08-22T08:14:50Z</time>
      </trkpt>
      <trkpt lat="45.93253" lon="4.72628">
        <ele>170</ele>
        <time>2018-08-22T08:14:51Z</time>
      </trkpt>
      <trkpt lat="45.93258" lon="4.72624">
        <ele>170</ele>
        <time>2018-08-22T08:14:52Z</time>
      </trkpt>
      <trkpt lat="45.93263" lon="4.72616">
        <ele>170</ele>
        <time>2018-08-22T08:14:53Z</time>
      </trkpt>
      <trkpt lat="45.93267" lon="4.72612">
        <ele>170</ele>
        <time>2018-08-22T08:14:55Z</time>
      </trkpt>
      <trkpt lat="45.93275" lon="4.72606">
        <ele>170</ele>
        <time>2018-08-22T08:14:56Z</time>
      </trkpt>
      <trkpt lat="45.93279" lon="4.72599">
        <ele>170</ele>
        <time>2018-08-22T08:14:57Z</time>
      </trkpt>
      <trkpt lat="45.93283" lon="4.72594">
        <ele>170</ele>
        <time>2018-08-22T08:14:58Z</time>
      </trkpt>
      <trkpt lat="45.93288" lon="4.7259">
        <ele>170</ele>
        <time>2018-08-22T08:14:59Z</time>
      </trkpt>
      <trkpt lat="45.93292" lon="4.72584">
        <ele>170</ele>
        <time>2018-08-22T08:15:00Z</time>
      </trkpt>
      <trkpt lat="45.93296" lon="4.72578">
        <ele>171</ele>
        <time>2018-08-22T08:15:01Z</time>
      </trkpt>
      <trkpt lat="45.93299" lon="4.72574">
        <ele>171</ele>
        <time>2018-08-22T08:15:02Z</time>
      </trkpt>
      <trkpt lat="45.93304" lon="4.7257">
        <ele>171</ele>
        <time>2018-08-22T08:15:03Z</time>
      </trkpt>
      <trkpt lat="45.93309" lon="4.72565">
        <ele>171</ele>
        <time>2018-08-22T08:15:04Z</time>
      </trkpt>
      <trkpt lat="45.93314" lon="4.72559">
        <ele>171</ele>
        <time>2018-08-22T08:15:05Z</time>
      </trkpt>
      <trkpt lat="45.93319" lon="4.72555">
        <ele>172</ele>
        <time>2018-08-22T08:15:06Z</time>
      </trkpt>
      <trkpt lat="45.93324" lon="4.72543">
        <ele>172</ele>
        <time>2018-08-22T08:15:07Z</time>
      </trkpt>
      <trkpt lat="45.93331" lon="4.72537">
        <ele>172</ele>
        <time>2018-08-22T08:15:09Z</time>
      </trkpt>
      <trkpt lat="45.93337" lon="4.72529">
        <ele>172</ele>
        <time>2018-08-22T08:15:10Z</time>
      </trkpt>
      <trkpt lat="45.93344" lon="4.72523">
        <ele>172</ele>
        <time>2018-08-22T08:15:12Z</time>
      </trkpt>
      <trkpt lat="45.93344" lon="4.72519">
        <ele>172</ele>
        <time>2018-08-22T08:15:13Z</time>
      </trkpt>
      <trkpt lat="45.93353" lon="4.72519">
        <ele>172</ele>
        <time>2018-08-22T08:15:14Z</time>
      </trkpt>
      <trkpt lat="45.93354" lon="4.72514">
        <ele>172</ele>
        <time>2018-08-22T08:15:15Z</time>
      </trkpt>
      <trkpt lat="45.9336" lon="4.72506">
        <ele>172</ele>
        <time>2018-08-22T08:15:16Z</time>
      </trkpt>
      <trkpt lat="45.93364" lon="4.72498">
        <ele>173</ele>
        <time>2018-08-22T08:15:17Z</time>
      </trkpt>
      <trkpt lat="45.9337" lon="4.72493">
        <ele>173</ele>
        <time>2018-08-22T08:15:18Z</time>
      </trkpt>
      <trkpt lat="45.93373" lon="4.72489">
        <ele>173</ele>
        <time>2018-08-22T08:15:19Z</time>
      </trkpt>
      <trkpt lat="45.93378" lon="4.72483">
        <ele>173</ele>
        <time>2018-08-22T08:15:20Z</time>
      </trkpt>
      <trkpt lat="45.93386" lon="4.72476">
        <ele>173</ele>
        <time>2018-08-22T08:15:21Z</time>
      </trkpt>
      <trkpt lat="45.9339" lon="4.72469">
        <ele>173</ele>
        <time>2018-08-22T08:15:22Z</time>
      </trkpt>
      <trkpt lat="45.93394" lon="4.72464">
        <ele>173</ele>
        <time>2018-08-22T08:15:23Z</time>
      </trkpt>
      <trkpt lat="45.93401" lon="4.72457">
        <ele>173</ele>
        <time>2018-08-22T08:15:24Z</time>
      </trkpt>
      <trkpt lat="45.93403" lon="4.72453">
        <ele>173</ele>
        <time>2018-08-22T08:15:25Z</time>
      </trkpt>
      <trkpt lat="45.93406" lon="4.72447">
        <ele>173</ele>
        <time>2018-08-22T08:15:27Z</time>
      </trkpt>
      <trkpt lat="45.9341" lon="4.72443">
        <ele>173</ele>
        <time>2018-08-22T08:15:28Z</time>
      </trkpt>
      <trkpt lat="45.93408" lon="4.72435">
        <ele>173</ele>
        <time>2018-08-22T08:15:30Z</time>
      </trkpt>
      <trkpt lat="45.93409" lon="4.72431">
        <ele>173</ele>
        <time>2018-08-22T08:15:31Z</time>
      </trkpt>
      <trkpt lat="45.93411" lon="4.72424">
        <ele>174</ele>
        <time>2018-08-22T08:15:32Z</time>
      </trkpt>
      <trkpt lat="45.93415" lon="4.7242">
        <ele>174</ele>
        <time>2018-08-22T08:15:33Z</time>
      </trkpt>
      <trkpt lat="45.93423" lon="4.72415">
        <ele>174</ele>
        <time>2018-08-22T08:15:35Z</time>
      </trkpt>
      <trkpt lat="45.93428" lon="4.72413">
        <ele>174</ele>
        <time>2018-08-22T08:15:36Z</time>
      </trkpt>
      <trkpt lat="45.93432" lon="4.72411">
        <ele>174</ele>
        <time>2018-08-22T08:15:37Z</time>
      </trkpt>
      <trkpt lat="45.93437" lon="4.72408">
        <ele>174</ele>
        <time>2018-08-22T08:15:38Z</time>
      </trkpt>
      <trkpt lat="45.93442" lon="4.72404">
        <ele>173</ele>
        <time>2018-08-22T08:15:39Z</time>
      </trkpt>
      <trkpt lat="45.93447" lon="4.724">
        <ele>173</ele>
        <time>2018-08-22T08:15:40Z</time>
      </trkpt>
      <trkpt lat="45.93452" lon="4.72396">
        <ele>173</ele>
        <time>2018-08-22T08:15:41Z</time>
      </trkpt>
      <trkpt lat="45.93457" lon="4.72391">
        <ele>173</ele>
        <time>2018-08-22T08:15:42Z</time>
      </trkpt>
      <trkpt lat="45.93461" lon="4.72387">
        <ele>173</ele>
        <time>2018-08-22T08:15:43Z</time>
      </trkpt>
      <trkpt lat="45.93465" lon="4.72381">
        <ele>173</ele>
        <time>2018-08-22T08:15:44Z</time>
      </trkpt>
      <trkpt lat="45.93469" lon="4.72377">
        <ele>173</ele>
        <time>2018-08-22T08:15:45Z</time>
      </trkpt>
      <trkpt lat="45.93472" lon="4.72372">
        <ele>173</ele>
        <time>2018-08-22T08:15:46Z</time>
      </trkpt>
      <trkpt lat="45.93477" lon="4.72365">
        <ele>173</ele>
        <time>2018-08-22T08:15:47Z</time>
      </trkpt>
      <trkpt lat="45.93481" lon="4.72359">
        <ele>173</ele>
        <time>2018-08-22T08:15:48Z</time>
      </trkpt>
      <trkpt lat="45.93484" lon="4.72355">
        <ele>173</ele>
        <time>2018-08-22T08:15:49Z</time>
      </trkpt>
      <trkpt lat="45.93489" lon="4.72349">
        <ele>173</ele>
        <time>2018-08-22T08:15:50Z</time>
      </trkpt>
      <trkpt lat="45.93492" lon="4.72345">
        <ele>173</ele>
        <time>2018-08-22T08:15:51Z</time>
      </trkpt>
      <trkpt lat="45.93494" lon="4.72338">
        <ele>173</ele>
        <time>2018-08-22T08:15:52Z</time>
      </trkpt>
      <trkpt lat="45.93498" lon="4.7233">
        <ele>173</ele>
        <time>2018-08-22T08:15:53Z</time>
      </trkpt>
      <trkpt lat="45.935" lon="4.72326">
        <ele>173</ele>
        <time>2018-08-22T08:15:54Z</time>
      </trkpt>
      <trkpt lat="45.93505" lon="4.72315">
        <ele>173</ele>
        <time>2018-08-22T08:15:56Z</time>
      </trkpt>
      <trkpt lat="45.93509" lon="4.72309">
        <ele>173</ele>
        <time>2018-08-22T08:15:57Z</time>
      </trkpt>
      <trkpt lat="45.93515" lon="4.72304">
        <ele>173</ele>
        <time>2018-08-22T08:15:58Z</time>
      </trkpt>
      <trkpt lat="45.93519" lon="4.72299">
        <ele>172</ele>
        <time>2018-08-22T08:15:59Z</time>
      </trkpt>
      <trkpt lat="45.93521" lon="4.72292">
        <ele>172</ele>
        <time>2018-08-22T08:16:00Z</time>
      </trkpt>
      <trkpt lat="45.93523" lon="4.72286">
        <ele>172</ele>
        <time>2018-08-22T08:16:01Z</time>
      </trkpt>
      <trkpt lat="45.93528" lon="4.72282">
        <ele>172</ele>
        <time>2018-08-22T08:16:02Z</time>
      </trkpt>
      <trkpt lat="45.93531" lon="4.72275">
        <ele>172</ele>
        <time>2018-08-22T08:16:03Z</time>
      </trkpt>
      <trkpt lat="45.93533" lon="4.72265">
        <ele>172</ele>
        <time>2018-08-22T08:16:05Z</time>
      </trkpt>
      <trkpt lat="45.93535" lon="4.7226">
        <ele>172</ele>
        <time>2018-08-22T08:16:06Z</time>
      </trkpt>
      <trkpt lat="45.93539" lon="4.72252">
        <ele>172</ele>
        <time>2018-08-22T08:16:07Z</time>
      </trkpt>
      <trkpt lat="45.9354" lon="4.72247">
        <ele>172</ele>
        <time>2018-08-22T08:16:08Z</time>
      </trkpt>
      <trkpt lat="45.93543" lon="4.7224">
        <ele>172</ele>
        <time>2018-08-22T08:16:09Z</time>
      </trkpt>
      <trkpt lat="45.93545" lon="4.72236">
        <ele>172</ele>
        <time>2018-08-22T08:16:10Z</time>
      </trkpt>
      <trkpt lat="45.93551" lon="4.72226">
        <ele>172</ele>
        <time>2018-08-22T08:16:12Z</time>
      </trkpt>
      <trkpt lat="45.93557" lon="4.72228">
        <ele>173</ele>
        <time>2018-08-22T08:16:13Z</time>
      </trkpt>
      <trkpt lat="45.93562" lon="4.72231">
        <ele>173</ele>
        <time>2018-08-22T08:16:14Z</time>
      </trkpt>
      <trkpt lat="45.93566" lon="4.72234">
        <ele>173</ele>
        <time>2018-08-22T08:16:15Z</time>
      </trkpt>
      <trkpt lat="45.9357" lon="4.72238">
        <ele>173</ele>
        <time>2018-08-22T08:16:16Z</time>
      </trkpt>
      <trkpt lat="45.93574" lon="4.72243">
        <ele>173</ele>
        <time>2018-08-22T08:16:17Z</time>
      </trkpt>
      <trkpt lat="45.93581" lon="4.72249">
        <ele>173</ele>
        <time>2018-08-22T08:16:18Z</time>
      </trkpt>
      <trkpt lat="45.93587" lon="4.72254">
        <ele>173</ele>
        <time>2018-08-22T08:16:19Z</time>
      </trkpt>
      <trkpt lat="45.93593" lon="4.72259">
        <ele>173</ele>
        <time>2018-08-22T08:16:20Z</time>
      </trkpt>
      <trkpt lat="45.936" lon="4.72263">
        <ele>173</ele>
        <time>2018-08-22T08:16:21Z</time>
      </trkpt>
      <trkpt lat="45.93606" lon="4.72265">
        <ele>173</ele>
        <time>2018-08-22T08:16:22Z</time>
      </trkpt>
      <trkpt lat="45.93612" lon="4.72269">
        <ele>172</ele>
        <time>2018-08-22T08:16:23Z</time>
      </trkpt>
      <trkpt lat="45.93618" lon="4.72275">
        <ele>172</ele>
        <time>2018-08-22T08:16:25Z</time>
      </trkpt>
      <trkpt lat="45.93619" lon="4.72278">
        <ele>172</ele>
        <time>2018-08-22T08:16:26Z</time>
      </trkpt>
      <trkpt lat="45.93625" lon="4.72283">
        <ele>172</ele>
        <time>2018-08-22T08:16:27Z</time>
      </trkpt>
      <trkpt lat="45.9363" lon="4.72287">
        <ele>172</ele>
        <time>2018-08-22T08:16:28Z</time>
      </trkpt>
      <trkpt lat="45.93633" lon="4.72292">
        <ele>172</ele>
        <time>2018-08-22T08:16:29Z</time>
      </trkpt>
      <trkpt lat="45.9364" lon="4.723">
        <ele>172</ele>
        <time>2018-08-22T08:16:30Z</time>
      </trkpt>
      <trkpt lat="45.93649" lon="4.72304">
        <ele>172</ele>
        <time>2018-08-22T08:16:31Z</time>
      </trkpt>
      <trkpt lat="45.93651" lon="4.72307">
        <ele>172</ele>
        <time>2018-08-22T08:16:32Z</time>
      </trkpt>
      <trkpt lat="45.93656" lon="4.72312">
        <ele>172</ele>
        <time>2018-08-22T08:16:33Z</time>
      </trkpt>
      <trkpt lat="45.93661" lon="4.7232">
        <ele>172</ele>
        <time>2018-08-22T08:16:34Z</time>
      </trkpt>
      <trkpt lat="45.93665" lon="4.72325">
        <ele>171</ele>
        <time>2018-08-22T08:16:35Z</time>
      </trkpt>
      <trkpt lat="45.93669" lon="4.72329">
        <ele>171</ele>
        <time>2018-08-22T08:16:36Z</time>
      </trkpt>
      <trkpt lat="45.93676" lon="4.72335">
        <ele>171</ele>
        <time>2018-08-22T08:16:37Z</time>
      </trkpt>
      <trkpt lat="45.93681" lon="4.72341">
        <ele>171</ele>
        <time>2018-08-22T08:16:38Z</time>
      </trkpt>
      <trkpt lat="45.93685" lon="4.72345">
        <ele>171</ele>
        <time>2018-08-22T08:16:39Z</time>
      </trkpt>
      <trkpt lat="45.93691" lon="4.72349">
        <ele>171</ele>
        <time>2018-08-22T08:16:40Z</time>
      </trkpt>
      <trkpt lat="45.93697" lon="4.72353">
        <ele>171</ele>
        <time>2018-08-22T08:16:41Z</time>
      </trkpt>
      <trkpt lat="45.93701" lon="4.72357">
        <ele>171</ele>
        <time>2018-08-22T08:16:42Z</time>
      </trkpt>
      <trkpt lat="45.93706" lon="4.72366">
        <ele>171</ele>
        <time>2018-08-22T08:16:43Z</time>
      </trkpt>
      <trkpt lat="45.9371" lon="4.7237">
        <ele>172</ele>
        <time>2018-08-22T08:16:44Z</time>
      </trkpt>
      <trkpt lat="45.93715" lon="4.72374">
        <ele>172</ele>
        <time>2018-08-22T08:16:45Z</time>
      </trkpt>
      <trkpt lat="45.93721" lon="4.7238">
        <ele>171</ele>
        <time>2018-08-22T08:16:46Z</time>
      </trkpt>
      <trkpt lat="45.93724" lon="4.72384">
        <ele>171</ele>
        <time>2018-08-22T08:16:47Z</time>
      </trkpt>
      <trkpt lat="45.9373" lon="4.72391">
        <ele>171</ele>
        <time>2018-08-22T08:16:48Z</time>
      </trkpt>
      <trkpt lat="45.93733" lon="4.72396">
        <ele>171</ele>
        <time>2018-08-22T08:16:49Z</time>
      </trkpt>
      <trkpt lat="45.93737" lon="4.724">
        <ele>171</ele>
        <time>2018-08-22T08:16:50Z</time>
      </trkpt>
      <trkpt lat="45.93742" lon="4.72403">
        <ele>171</ele>
        <time>2018-08-22T08:16:51Z</time>
      </trkpt>
      <trkpt lat="45.93747" lon="4.72408">
        <ele>171</ele>
        <time>2018-08-22T08:16:52Z</time>
      </trkpt>
      <trkpt lat="45.93751" lon="4.72412">
        <ele>171</ele>
        <time>2018-08-22T08:16:53Z</time>
      </trkpt>
      <trkpt lat="45.93756" lon="4.72419">
        <ele>171</ele>
        <time>2018-08-22T08:16:54Z</time>
      </trkpt>
      <trkpt lat="45.93761" lon="4.7242">
        <ele>171</ele>
        <time>2018-08-22T08:16:55Z</time>
      </trkpt>
      <trkpt lat="45.93765" lon="4.72424">
        <ele>171</ele>
        <time>2018-08-22T08:16:56Z</time>
      </trkpt>
      <trkpt lat="45.93772" lon="4.72431">
        <ele>171</ele>
        <time>2018-08-22T08:16:57Z</time>
      </trkpt>
      <trkpt lat="45.93777" lon="4.72439">
        <ele>172</ele>
        <time>2018-08-22T08:16:58Z</time>
      </trkpt>
      <trkpt lat="45.93781" lon="4.72439">
        <ele>172</ele>
        <time>2018-08-22T08:16:59Z</time>
      </trkpt>
      <trkpt lat="45.93787" lon="4.72443">
        <ele>172</ele>
        <time>2018-08-22T08:17:00Z</time>
      </trkpt>
      <trkpt lat="45.93791" lon="4.72449">
        <ele>172</ele>
        <time>2018-08-22T08:17:01Z</time>
      </trkpt>
      <trkpt lat="45.93795" lon="4.72453">
        <ele>172</ele>
        <time>2018-08-22T08:17:02Z</time>
      </trkpt>
      <trkpt lat="45.93799" lon="4.72458">
        <ele>172</ele>
        <time>2018-08-22T08:17:03Z</time>
      </trkpt>
      <trkpt lat="45.93807" lon="4.72467">
        <ele>172</ele>
        <time>2018-08-22T08:17:04Z</time>
      </trkpt>
      <trkpt lat="45.93815" lon="4.7247">
        <ele>172</ele>
        <time>2018-08-22T08:17:05Z</time>
      </trkpt>
      <trkpt lat="45.93822" lon="4.72484">
        <ele>173</ele>
        <time>2018-08-22T08:17:06Z</time>
      </trkpt>
      <trkpt lat="45.9383" lon="4.72488">
        <ele>173</ele>
        <time>2018-08-22T08:17:08Z</time>
      </trkpt>
      <trkpt lat="45.93836" lon="4.72493">
        <ele>174</ele>
        <time>2018-08-22T08:17:09Z</time>
      </trkpt>
      <trkpt lat="45.93842" lon="4.72498">
        <ele>173</ele>
        <time>2018-08-22T08:17:10Z</time>
      </trkpt>
      <trkpt lat="45.93847" lon="4.72503">
        <ele>174</ele>
        <time>2018-08-22T08:17:11Z</time>
      </trkpt>
      <trkpt lat="45.93852" lon="4.72508">
        <ele>173</ele>
        <time>2018-08-22T08:17:12Z</time>
      </trkpt>
      <trkpt lat="45.93856" lon="4.72519">
        <ele>173</ele>
        <time>2018-08-22T08:17:13Z</time>
      </trkpt>
      <trkpt lat="45.93865" lon="4.72523">
        <ele>173</ele>
        <time>2018-08-22T08:17:14Z</time>
      </trkpt>
      <trkpt lat="45.93872" lon="4.7252">
        <ele>173</ele>
        <time>2018-08-22T08:17:16Z</time>
      </trkpt>
      <trkpt lat="45.93875" lon="4.72514">
        <ele>173</ele>
        <time>2018-08-22T08:17:17Z</time>
      </trkpt>
      <trkpt lat="45.93882" lon="4.72509">
        <ele>173</ele>
        <time>2018-08-22T08:17:19Z</time>
      </trkpt>
      <trkpt lat="45.93885" lon="4.72508">
        <ele>173</ele>
        <time>2018-08-22T08:17:20Z</time>
      </trkpt>
      <trkpt lat="45.93891" lon="4.725">
        <ele>172</ele>
        <time>2018-08-22T08:17:22Z</time>
      </trkpt>
      <trkpt lat="45.93895" lon="4.72497">
        <ele>172</ele>
        <time>2018-08-22T08:17:23Z</time>
      </trkpt>
      <trkpt lat="45.93899" lon="4.72493">
        <ele>172</ele>
        <time>2018-08-22T08:17:24Z</time>
      </trkpt>
      <trkpt lat="45.93904" lon="4.72486">
        <ele>172</ele>
        <time>2018-08-22T08:17:25Z</time>
      </trkpt>
      <trkpt lat="45.93909" lon="4.72476">
        <ele>172</ele>
        <time>2018-08-22T08:17:26Z</time>
      </trkpt>
      <trkpt lat="45.93914" lon="4.72468">
        <ele>172</ele>
        <time>2018-08-22T08:17:27Z</time>
      </trkpt>
      <trkpt lat="45.93919" lon="4.72462">
        <ele>171</ele>
        <time>2018-08-22T08:17:28Z</time>
      </trkpt>
      <trkpt lat="45.93923" lon="4.72456">
        <ele>171</ele>
        <time>2018-08-22T08:17:29Z</time>
      </trkpt>
      <trkpt lat="45.93928" lon="4.72449">
        <ele>171</ele>
        <time>2018-08-22T08:17:30Z</time>
      </trkpt>
      <trkpt lat="45.93933" lon="4.72443">
        <ele>171</ele>
        <time>2018-08-22T08:17:31Z</time>
      </trkpt>
      <trkpt lat="45.93937" lon="4.72437">
        <ele>171</ele>
        <time>2018-08-22T08:17:32Z</time>
      </trkpt>
      <trkpt lat="45.93942" lon="4.72431">
        <ele>171</ele>
        <time>2018-08-22T08:17:33Z</time>
      </trkpt>
      <trkpt lat="45.93947" lon="4.72424">
        <ele>171</ele>
        <time>2018-08-22T08:17:34Z</time>
      </trkpt>
      <trkpt lat="45.9395" lon="4.72418">
        <ele>171</ele>
        <time>2018-08-22T08:17:35Z</time>
      </trkpt>
      <trkpt lat="45.93955" lon="4.72413">
        <ele>171</ele>
        <time>2018-08-22T08:17:36Z</time>
      </trkpt>
      <trkpt lat="45.9396" lon="4.72407">
        <ele>171</ele>
        <time>2018-08-22T08:17:37Z</time>
      </trkpt>
      <trkpt lat="45.93964" lon="4.72405">
        <ele>171</ele>
        <time>2018-08-22T08:17:38Z</time>
      </trkpt>
      <trkpt lat="45.9397" lon="4.72401">
        <ele>171</ele>
        <time>2018-08-22T08:17:39Z</time>
      </trkpt>
      <trkpt lat="45.93976" lon="4.7239">
        <ele>171</ele>
        <time>2018-08-22T08:17:40Z</time>
      </trkpt>
      <trkpt lat="45.9398" lon="4.72385">
        <ele>171</ele>
        <time>2018-08-22T08:17:41Z</time>
      </trkpt>
      <trkpt lat="45.93984" lon="4.72377">
        <ele>171</ele>
        <time>2018-08-22T08:17:42Z</time>
      </trkpt>
      <trkpt lat="45.93989" lon="4.72371">
        <ele>171</ele>
        <time>2018-08-22T08:17:43Z</time>
      </trkpt>
      <trkpt lat="45.93992" lon="4.72367">
        <ele>171</ele>
        <time>2018-08-22T08:17:44Z</time>
      </trkpt>
      <trkpt lat="45.93999" lon="4.72363">
        <ele>171</ele>
        <time>2018-08-22T08:17:45Z</time>
      </trkpt>
      <trkpt lat="45.94003" lon="4.7236">
        <ele>171</ele>
        <time>2018-08-22T08:17:46Z</time>
      </trkpt>
      <trkpt lat="45.9401" lon="4.72355">
        <ele>171</ele>
        <time>2018-08-22T08:17:48Z</time>
      </trkpt>
      <trkpt lat="45.94017" lon="4.72343">
        <ele>171</ele>
        <time>2018-08-22T08:17:49Z</time>
      </trkpt>
      <trkpt lat="45.9402" lon="4.72343">
        <ele>171</ele>
        <time>2018-08-22T08:17:50Z</time>
      </trkpt>
      <trkpt lat="45.94026" lon="4.72334">
        <ele>171</ele>
        <time>2018-08-22T08:17:51Z</time>
      </trkpt>
      <trkpt lat="45.94032" lon="4.72331">
        <ele>171</ele>
        <time>2018-08-22T08:17:53Z</time>
      </trkpt>
      <trkpt lat="45.94033" lon="4.72324">
        <ele>171</ele>
        <time>2018-08-22T08:17:54Z</time>
      </trkpt>
      <trkpt lat="45.94037" lon="4.72321">
        <ele>171</ele>
        <time>2018-08-22T08:17:55Z</time>
      </trkpt>
      <trkpt lat="45.9404" lon="4.72315">
        <ele>171</ele>
        <time>2018-08-22T08:17:56Z</time>
      </trkpt>
      <trkpt lat="45.94043" lon="4.72312">
        <ele>171</ele>
        <time>2018-08-22T08:17:57Z</time>
      </trkpt>
      <trkpt lat="45.94047" lon="4.72306">
        <ele>171</ele>
        <time>2018-08-22T08:17:58Z</time>
      </trkpt>
      <trkpt lat="45.94051" lon="4.72299">
        <ele>171</ele>
        <time>2018-08-22T08:17:59Z</time>
      </trkpt>
      <trkpt lat="45.94056" lon="4.72292">
        <ele>171</ele>
        <time>2018-08-22T08:18:00Z</time>
      </trkpt>
      <trkpt lat="45.94063" lon="4.72287">
        <ele>171</ele>
        <time>2018-08-22T08:18:02Z</time>
      </trkpt>
      <trkpt lat="45.94066" lon="4.72282">
        <ele>171</ele>
        <time>2018-08-22T08:18:03Z</time>
      </trkpt>
      <trkpt lat="45.94073" lon="4.72276">
        <ele>171</ele>
        <time>2018-08-22T08:18:05Z</time>
      </trkpt>
      <trkpt lat="45.94077" lon="4.72273">
        <ele>171</ele>
        <time>2018-08-22T08:18:06Z</time>
      </trkpt>
      <trkpt lat="45.94082" lon="4.72272">
        <ele>171</ele>
        <time>2018-08-22T08:18:07Z</time>
      </trkpt>
      <trkpt lat="45.94088" lon="4.72269">
        <ele>171</ele>
        <time>2018-08-22T08:18:08Z</time>
      </trkpt>
      <trkpt lat="45.94095" lon="4.72266">
        <ele>171</ele>
        <time>2018-08-22T08:18:09Z</time>
      </trkpt>
      <trkpt lat="45.94101" lon="4.72265">
        <ele>171</ele>
        <time>2018-08-22T08:18:10Z</time>
      </trkpt>
      <trkpt lat="45.94106" lon="4.72264">
        <ele>171</ele>
        <time>2018-08-22T08:18:11Z</time>
      </trkpt>
      <trkpt lat="45.94115" lon="4.72261">
        <ele>171</ele>
        <time>2018-08-22T08:18:12Z</time>
      </trkpt>
      <trkpt lat="45.94118" lon="4.72264">
        <ele>171</ele>
        <time>2018-08-22T08:18:13Z</time>
      </trkpt>
      <trkpt lat="45.94126" lon="4.72267">
        <ele>171</ele>
        <time>2018-08-22T08:18:14Z</time>
      </trkpt>
      <trkpt lat="45.94132" lon="4.72275">
        <ele>171</ele>
        <time>2018-08-22T08:18:16Z</time>
      </trkpt>
      <trkpt lat="45.94137" lon="4.72277">
        <ele>171</ele>
        <time>2018-08-22T08:18:17Z</time>
      </trkpt>
      <trkpt lat="45.94142" lon="4.7228">
        <ele>171</ele>
        <time>2018-08-22T08:18:18Z</time>
      </trkpt>
      <trkpt lat="45.94146" lon="4.72283">
        <ele>171</ele>
        <time>2018-08-22T08:18:19Z</time>
      </trkpt>
      <trkpt lat="45.94153" lon="4.72286">
        <ele>171</ele>
        <time>2018-08-22T08:18:20Z</time>
      </trkpt>
      <trkpt lat="45.94157" lon="4.72289">
        <ele>171</ele>
        <time>2018-08-22T08:18:21Z</time>
      </trkpt>
      <trkpt lat="45.94164" lon="4.72292">
        <ele>171</ele>
        <time>2018-08-22T08:18:22Z</time>
      </trkpt>
      <trkpt lat="45.9417" lon="4.72293">
        <ele>171</ele>
        <time>2018-08-22T08:18:23Z</time>
      </trkpt>
      <trkpt lat="45.94181" lon="4.72288">
        <ele>171</ele>
        <time>2018-08-22T08:18:24Z</time>
      </trkpt>
      <trkpt lat="45.94188" lon="4.7229">
        <ele>171</ele>
        <time>2018-08-22T08:18:26Z</time>
      </trkpt>
      <trkpt lat="45.94192" lon="4.72289">
        <ele>171</ele>
        <time>2018-08-22T08:18:27Z</time>
      </trkpt>
      <trkpt lat="45.94197" lon="4.72294">
        <ele>171</ele>
        <time>2018-08-22T08:18:28Z</time>
      </trkpt>
      <trkpt lat="45.942" lon="4.72297">
        <ele>171</ele>
        <time>2018-08-22T08:18:29Z</time>
      </trkpt>
      <trkpt lat="45.94206" lon="4.72293">
        <ele>171</ele>
        <time>2018-08-22T08:18:30Z</time>
      </trkpt>
      <trkpt lat="45.94212" lon="4.72293">
        <ele>171</ele>
        <time>2018-08-22T08:18:31Z</time>
      </trkpt>
      <trkpt lat="45.94217" lon="4.72293">
        <ele>171</ele>
        <time>2018-08-22T08:18:32Z</time>
      </trkpt>
      <trkpt lat="45.94225" lon="4.7229">
        <ele>171</ele>
        <time>2018-08-22T08:18:33Z</time>
      </trkpt>
      <trkpt lat="45.94233" lon="4.7229">
        <ele>171</ele>
        <time>2018-08-22T08:18:35Z</time>
      </trkpt>
      <trkpt lat="45.94241" lon="4.72285">
        <ele>171</ele>
        <time>2018-08-22T08:18:36Z</time>
      </trkpt>
      <trkpt lat="45.94249" lon="4.72275">
        <ele>171</ele>
        <time>2018-08-22T08:18:37Z</time>
      </trkpt>
      <trkpt lat="45.94252" lon="4.72279">
        <ele>171</ele>
        <time>2018-08-22T08:18:38Z</time>
      </trkpt>
      <trkpt lat="45.94259" lon="4.72275">
        <ele>171</ele>
        <time>2018-08-22T08:18:39Z</time>
      </trkpt>
      <trkpt lat="45.9427" lon="4.72267">
        <ele>171</ele>
        <time>2018-08-22T08:18:40Z</time>
      </trkpt>
      <trkpt lat="45.94271" lon="4.72276">
        <ele>171</ele>
        <time>2018-08-22T08:18:44Z</time>
      </trkpt>
      <trkpt lat="45.94276" lon="4.72283">
        <ele>171</ele>
        <time>2018-08-22T08:18:45Z</time>
      </trkpt>
      <trkpt lat="45.94284" lon="4.72289">
        <ele>171</ele>
        <time>2018-08-22T08:18:47Z</time>
      </trkpt>
      <trkpt lat="45.94286" lon="4.72295">
        <ele>171</ele>
        <time>2018-08-22T08:18:48Z</time>
      </trkpt>
      <trkpt lat="45.94287" lon="4.72301">
        <ele>171</ele>
        <time>2018-08-22T08:18:49Z</time>
      </trkpt>
      <trkpt lat="45.94289" lon="4.72308">
        <ele>171</ele>
        <time>2018-08-22T08:18:50Z</time>
      </trkpt>
      <trkpt lat="45.94292" lon="4.72314">
        <ele>171</ele>
        <time>2018-08-22T08:18:51Z</time>
      </trkpt>
      <trkpt lat="45.94294" lon="4.7232">
        <ele>171</ele>
        <time>2018-08-22T08:18:52Z</time>
      </trkpt>
      <trkpt lat="45.94297" lon="4.72327">
        <ele>171</ele>
        <time>2018-08-22T08:18:53Z</time>
      </trkpt>
      <trkpt lat="45.943" lon="4.72333">
        <ele>171</ele>
        <time>2018-08-22T08:18:54Z</time>
      </trkpt>
      <trkpt lat="45.94302" lon="4.72341">
        <ele>172</ele>
        <time>2018-08-22T08:18:55Z</time>
      </trkpt>
      <trkpt lat="45.94306" lon="4.72347">
        <ele>172</ele>
        <time>2018-08-22T08:18:56Z</time>
      </trkpt>
      <trkpt lat="45.94309" lon="4.72351">
        <ele>172</ele>
        <time>2018-08-22T08:18:57Z</time>
      </trkpt>
      <trkpt lat="45.94311" lon="4.7236">
        <ele>172</ele>
        <time>2018-08-22T08:18:58Z</time>
      </trkpt>
      <trkpt lat="45.94314" lon="4.72367">
        <ele>172</ele>
        <time>2018-08-22T08:18:59Z</time>
      </trkpt>
      <trkpt lat="45.94316" lon="4.7237">
        <ele>172</ele>
        <time>2018-08-22T08:19:00Z</time>
      </trkpt>
      <trkpt lat="45.94319" lon="4.72378">
        <ele>172</ele>
        <time>2018-08-22T08:19:01Z</time>
      </trkpt>
      <trkpt lat="45.94321" lon="4.72385">
        <ele>172</ele>
        <time>2018-08-22T08:19:02Z</time>
      </trkpt>
      <trkpt lat="45.94324" lon="4.72392">
        <ele>172</ele>
        <time>2018-08-22T08:19:03Z</time>
      </trkpt>
      <trkpt lat="45.94327" lon="4.72399">
        <ele>172</ele>
        <time>2018-08-22T08:19:04Z</time>
      </trkpt>
      <trkpt lat="45.9433" lon="4.72405">
        <ele>173</ele>
        <time>2018-08-22T08:19:05Z</time>
      </trkpt>
      <trkpt lat="45.94333" lon="4.72409">
        <ele>173</ele>
        <time>2018-08-22T08:19:06Z</time>
      </trkpt>
      <trkpt lat="45.94336" lon="4.72416">
        <ele>173</ele>
        <time>2018-08-22T08:19:07Z</time>
      </trkpt>
      <trkpt lat="45.94341" lon="4.72424">
        <ele>173</ele>
        <time>2018-08-22T08:19:08Z</time>
      </trkpt>
      <trkpt lat="45.94347" lon="4.72431">
        <ele>173</ele>
        <time>2018-08-22T08:19:09Z</time>
      </trkpt>
      <trkpt lat="45.94349" lon="4.72436">
        <ele>173</ele>
        <time>2018-08-22T08:19:10Z</time>
      </trkpt>
      <trkpt lat="45.9435" lon="4.72442">
        <ele>173</ele>
        <time>2018-08-22T08:19:11Z</time>
      </trkpt>
      <trkpt lat="45.94357" lon="4.72449">
        <ele>173</ele>
        <time>2018-08-22T08:19:12Z</time>
      </trkpt>
      <trkpt lat="45.94362" lon="4.72455">
        <ele>173</ele>
        <time>2018-08-22T08:19:13Z</time>
      </trkpt>
      <trkpt lat="45.94369" lon="4.72458">
        <ele>173</ele>
        <time>2018-08-22T08:19:14Z</time>
      </trkpt>
      <trkpt lat="45.94373" lon="4.72464">
        <ele>173</ele>
        <time>2018-08-22T08:19:15Z</time>
      </trkpt>
      <trkpt lat="45.94374" lon="4.72469">
        <ele>173</ele>
        <time>2018-08-22T08:19:16Z</time>
      </trkpt>
      <trkpt lat="45.94372" lon="4.72484">
        <ele>173</ele>
        <time>2018-08-22T08:19:17Z</time>
      </trkpt>
      <trkpt lat="45.94379" lon="4.72489">
        <ele>173</ele>
        <time>2018-08-22T08:19:19Z</time>
      </trkpt>
      <trkpt lat="45.94381" lon="4.72497">
        <ele>173</ele>
        <time>2018-08-22T08:19:20Z</time>
      </trkpt>
      <trkpt lat="45.94381" lon="4.72508">
        <ele>174</ele>
        <time>2018-08-22T08:19:21Z</time>
      </trkpt>
      <trkpt lat="45.94383" lon="4.72514">
        <ele>174</ele>
        <time>2018-08-22T08:19:22Z</time>
      </trkpt>
      <trkpt lat="45.94385" lon="4.7252">
        <ele>174</ele>
        <time>2018-08-22T08:19:23Z</time>
      </trkpt>
      <trkpt lat="45.94386" lon="4.72527">
        <ele>174</ele>
        <time>2018-08-22T08:19:24Z</time>
      </trkpt>
      <trkpt lat="45.94388" lon="4.72538">
        <ele>174</ele>
        <time>2018-08-22T08:19:26Z</time>
      </trkpt>
      <trkpt lat="45.94388" lon="4.72544">
        <ele>173</ele>
        <time>2018-08-22T08:19:27Z</time>
      </trkpt>
      <trkpt lat="45.94388" lon="4.72552">
        <ele>173</ele>
        <time>2018-08-22T08:19:28Z</time>
      </trkpt>
      <trkpt lat="45.94391" lon="4.72561">
        <ele>173</ele>
        <time>2018-08-22T08:19:29Z</time>
      </trkpt>
      <trkpt lat="45.94393" lon="4.72571">
        <ele>173</ele>
        <time>2018-08-22T08:19:30Z</time>
      </trkpt>
      <trkpt lat="45.94394" lon="4.72581">
        <ele>173</ele>
        <time>2018-08-22T08:19:31Z</time>
      </trkpt>
      <trkpt lat="45.94395" lon="4.7259">
        <ele>173</ele>
        <time>2018-08-22T08:19:32Z</time>
      </trkpt>
      <trkpt lat="45.94395" lon="4.72597">
        <ele>173</ele>
        <time>2018-08-22T08:19:33Z</time>
      </trkpt>
      <trkpt lat="45.94398" lon="4.72605">
        <ele>173</ele>
        <time>2018-08-22T08:19:34Z</time>
      </trkpt>
      <trkpt lat="45.94398" lon="4.72611">
        <ele>173</ele>
        <time>2018-08-22T08:19:35Z</time>
      </trkpt>
      <trkpt lat="45.94399" lon="4.72618">
        <ele>173</ele>
        <time>2018-08-22T08:19:36Z</time>
      </trkpt>
      <trkpt lat="45.94399" lon="4.72625">
        <ele>173</ele>
        <time>2018-08-22T08:19:37Z</time>
      </trkpt>
      <trkpt lat="45.94401" lon="4.72634">
        <ele>174</ele>
        <time>2018-08-22T08:19:38Z</time>
      </trkpt>
      <trkpt lat="45.94401" lon="4.72642">
        <ele>174</ele>
        <time>2018-08-22T08:19:39Z</time>
      </trkpt>
      <trkpt lat="45.94402" lon="4.7265">
        <ele>174</ele>
        <time>2018-08-22T08:19:40Z</time>
      </trkpt>
      <trkpt lat="45.94403" lon="4.72658">
        <ele>174</ele>
        <time>2018-08-22T08:19:41Z</time>
      </trkpt>
      <trkpt lat="45.94402" lon="4.72666">
        <ele>174</ele>
        <time>2018-08-22T08:19:42Z</time>
      </trkpt>
      <trkpt lat="45.94403" lon="4.72673">
        <ele>173</ele>
        <time>2018-08-22T08:19:43Z</time>
      </trkpt>
      <trkpt lat="45.94405" lon="4.72681">
        <ele>173</ele>
        <time>2018-08-22T08:19:44Z</time>
      </trkpt>
      <trkpt lat="45.94405" lon="4.72689">
        <ele>173</ele>
        <time>2018-08-22T08:19:45Z</time>
      </trkpt>
      <trkpt lat="45.94406" lon="4.72696">
        <ele>173</ele>
        <time>2018-08-22T08:19:46Z</time>
      </trkpt>
      <trkpt lat="45.94408" lon="4.72703">
        <ele>172</ele>
        <time>2018-08-22T08:19:47Z</time>
      </trkpt>
      <trkpt lat="45.94408" lon="4.7271">
        <ele>172</ele>
        <time>2018-08-22T08:19:48Z</time>
      </trkpt>
      <trkpt lat="45.9441" lon="4.72717">
        <ele>172</ele>
        <time>2018-08-22T08:19:49Z</time>
      </trkpt>
      <trkpt lat="45.94412" lon="4.72725">
        <ele>172</ele>
        <time>2018-08-22T08:19:50Z</time>
      </trkpt>
      <trkpt lat="45.94413" lon="4.72733">
        <ele>172</ele>
        <time>2018-08-22T08:19:51Z</time>
      </trkpt>
      <trkpt lat="45.94415" lon="4.72739">
        <ele>171</ele>
        <time>2018-08-22T08:19:52Z</time>
      </trkpt>
      <trkpt lat="45.94415" lon="4.72747">
        <ele>171</ele>
        <time>2018-08-22T08:19:53Z</time>
      </trkpt>
      <trkpt lat="45.94416" lon="4.72753">
        <ele>171</ele>
        <time>2018-08-22T08:19:54Z</time>
      </trkpt>
      <trkpt lat="45.94417" lon="4.72761">
        <ele>170</ele>
        <time>2018-08-22T08:19:55Z</time>
      </trkpt>
      <trkpt lat="45.9442" lon="4.72767">
        <ele>169</ele>
        <time>2018-08-22T08:19:56Z</time>
      </trkpt>
      <trkpt lat="45.94421" lon="4.72773">
        <ele>169</ele>
        <time>2018-08-22T08:19:57Z</time>
      </trkpt>
      <trkpt lat="45.94422" lon="4.72785">
        <ele>168</ele>
        <time>2018-08-22T08:19:59Z</time>
      </trkpt>
      <trkpt lat="45.94423" lon="4.72791">
        <ele>168</ele>
        <time>2018-08-22T08:20:00Z</time>
      </trkpt>
      <trkpt lat="45.94424" lon="4.72803">
        <ele>167</ele>
        <time>2018-08-22T08:20:02Z</time>
      </trkpt>
      <trkpt lat="45.94424" lon="4.7281">
        <ele>167</ele>
        <time>2018-08-22T08:20:03Z</time>
      </trkpt>
      <trkpt lat="45.94426" lon="4.7282">
        <ele>167</ele>
        <time>2018-08-22T08:20:05Z</time>
      </trkpt>
      <trkpt lat="45.94427" lon="4.72826">
        <ele>167</ele>
        <time>2018-08-22T08:20:06Z</time>
      </trkpt>
      <trkpt lat="45.94428" lon="4.72836">
        <ele>166</ele>
        <time>2018-08-22T08:20:08Z</time>
      </trkpt>
      <trkpt lat="45.94429" lon="4.72841">
        <ele>166</ele>
        <time>2018-08-22T08:20:09Z</time>
      </trkpt>
      <trkpt lat="45.94431" lon="4.7285">
        <ele>166</ele>
        <time>2018-08-22T08:20:11Z</time>
      </trkpt>
      <trkpt lat="45.94432" lon="4.72855">
        <ele>166</ele>
        <time>2018-08-22T08:20:12Z</time>
      </trkpt>
      <trkpt lat="45.94433" lon="4.72864">
        <ele>166</ele>
        <time>2018-08-22T08:20:15Z</time>
      </trkpt>
      <trkpt lat="45.94435" lon="4.72875">
        <ele>166</ele>
        <time>2018-08-22T08:20:16Z</time>
      </trkpt>
      <trkpt lat="45.94437" lon="4.72885">
        <ele>166</ele>
        <time>2018-08-22T08:20:18Z</time>
      </trkpt>
      <trkpt lat="45.94438" lon="4.7289">
        <ele>166</ele>
        <time>2018-08-22T08:20:19Z</time>
      </trkpt>
      <trkpt lat="45.94439" lon="4.72902">
        <ele>166</ele>
        <time>2018-08-22T08:20:21Z</time>
      </trkpt>
      <trkpt lat="45.94439" lon="4.72908">
        <ele>166</ele>
        <time>2018-08-22T08:20:22Z</time>
      </trkpt>
      <trkpt lat="45.94438" lon="4.72915">
        <ele>166</ele>
        <time>2018-08-22T08:20:23Z</time>
      </trkpt>
      <trkpt lat="45.94439" lon="4.72922">
        <ele>167</ele>
        <time>2018-08-22T08:20:24Z</time>
      </trkpt>
      <trkpt lat="45.94439" lon="4.7293">
        <ele>167</ele>
        <time>2018-08-22T08:20:25Z</time>
      </trkpt>
      <trkpt lat="45.9444" lon="4.72938">
        <ele>167</ele>
        <time>2018-08-22T08:20:26Z</time>
      </trkpt>
      <trkpt lat="45.94441" lon="4.72946">
        <ele>167</ele>
        <time>2018-08-22T08:20:27Z</time>
      </trkpt>
      <trkpt lat="45.94443" lon="4.72954">
        <ele>167</ele>
        <time>2018-08-22T08:20:28Z</time>
      </trkpt>
      <trkpt lat="45.94443" lon="4.72962">
        <ele>167</ele>
        <time>2018-08-22T08:20:29Z</time>
      </trkpt>
      <trkpt lat="45.94444" lon="4.7297">
        <ele>167</ele>
        <time>2018-08-22T08:20:30Z</time>
      </trkpt>
      <trkpt lat="45.94445" lon="4.72978">
        <ele>167</ele>
        <time>2018-08-22T08:20:31Z</time>
      </trkpt>
      <trkpt lat="45.94446" lon="4.72987">
        <ele>167</ele>
        <time>2018-08-22T08:20:32Z</time>
      </trkpt>
      <trkpt lat="45.94449" lon="4.72996">
        <ele>167</ele>
        <time>2018-08-22T08:20:33Z</time>
      </trkpt>
      <trkpt lat="45.9445" lon="4.73006">
        <ele>169</ele>
        <time>2018-08-22T08:20:34Z</time>
      </trkpt>
      <trkpt lat="45.94452" lon="4.73016">
        <ele>169</ele>
        <time>2018-08-22T08:20:35Z</time>
      </trkpt>
      <trkpt lat="45.94453" lon="4.73027">
        <ele>169</ele>
        <time>2018-08-22T08:20:36Z</time>
      </trkpt>
      <trkpt lat="45.94455" lon="4.73036">
        <ele>169</ele>
        <time>2018-08-22T08:20:37Z</time>
      </trkpt>
      <trkpt lat="45.94457" lon="4.73046">
        <ele>170</ele>
        <time>2018-08-22T08:20:38Z</time>
      </trkpt>
      <trkpt lat="45.94458" lon="4.73055">
        <ele>170</ele>
        <time>2018-08-22T08:20:39Z</time>
      </trkpt>
      <trkpt lat="45.94459" lon="4.73066">
        <ele>170</ele>
        <time>2018-08-22T08:20:40Z</time>
      </trkpt>
      <trkpt lat="45.94462" lon="4.73074">
        <ele>170</ele>
        <time>2018-08-22T08:20:41Z</time>
      </trkpt>
      <trkpt lat="45.94462" lon="4.73086">
        <ele>171</ele>
        <time>2018-08-22T08:20:42Z</time>
      </trkpt>
      <trkpt lat="45.94463" lon="4.73098">
        <ele>171</ele>
        <time>2018-08-22T08:20:43Z</time>
      </trkpt>
      <trkpt lat="45.94464" lon="4.73108">
        <ele>172</ele>
        <time>2018-08-22T08:20:44Z</time>
      </trkpt>
      <trkpt lat="45.94465" lon="4.73118">
        <ele>172</ele>
        <time>2018-08-22T08:20:45Z</time>
      </trkpt>
      <trkpt lat="45.94466" lon="4.73126">
        <ele>172</ele>
        <time>2018-08-22T08:20:46Z</time>
      </trkpt>
      <trkpt lat="45.94469" lon="4.73133">
        <ele>172</ele>
        <time>2018-08-22T08:20:47Z</time>
      </trkpt>
      <trkpt lat="45.94469" lon="4.73141">
        <ele>172</ele>
        <time>2018-08-22T08:20:48Z</time>
      </trkpt>
      <trkpt lat="45.9447" lon="4.73148">
        <ele>172</ele>
        <time>2018-08-22T08:20:49Z</time>
      </trkpt>
      <trkpt lat="45.94472" lon="4.73156">
        <ele>172</ele>
        <time>2018-08-22T08:20:50Z</time>
      </trkpt>
      <trkpt lat="45.94474" lon="4.73165">
        <ele>173</ele>
        <time>2018-08-22T08:20:51Z</time>
      </trkpt>
      <trkpt lat="45.94474" lon="4.73174">
        <ele>174</ele>
        <time>2018-08-22T08:20:52Z</time>
      </trkpt>
      <trkpt lat="45.94475" lon="4.73182">
        <ele>174</ele>
        <time>2018-08-22T08:20:53Z</time>
      </trkpt>
      <trkpt lat="45.94475" lon="4.73191">
        <ele>174</ele>
        <time>2018-08-22T08:20:54Z</time>
      </trkpt>
      <trkpt lat="45.94476" lon="4.73198">
        <ele>174</ele>
        <time>2018-08-22T08:20:55Z</time>
      </trkpt>
      <trkpt lat="45.94478" lon="4.73207">
        <ele>175</ele>
        <time>2018-08-22T08:20:56Z</time>
      </trkpt>
      <trkpt lat="45.94479" lon="4.73216">
        <ele>175</ele>
        <time>2018-08-22T08:20:57Z</time>
      </trkpt>
      <trkpt lat="45.94479" lon="4.73223">
        <ele>175</ele>
        <time>2018-08-22T08:20:58Z</time>
      </trkpt>
      <trkpt lat="45.94483" lon="4.73235">
        <ele>175</ele>
        <time>2018-08-22T08:21:00Z</time>
      </trkpt>
      <trkpt lat="45.94483" lon="4.73244">
        <ele>175</ele>
        <time>2018-08-22T08:21:01Z</time>
      </trkpt>
      <trkpt lat="45.94484" lon="4.73252">
        <ele>176</ele>
        <time>2018-08-22T08:21:02Z</time>
      </trkpt>
      <trkpt lat="45.94485" lon="4.73258">
        <ele>176</ele>
        <time>2018-08-22T08:21:03Z</time>
      </trkpt>
      <trkpt lat="45.94486" lon="4.73269">
        <ele>177</ele>
        <time>2018-08-22T08:21:05Z</time>
      </trkpt>
      <trkpt lat="45.94487" lon="4.73278">
        <ele>177</ele>
        <time>2018-08-22T08:21:06Z</time>
      </trkpt>
      <trkpt lat="45.94488" lon="4.7329">
        <ele>177</ele>
        <time>2018-08-22T08:21:08Z</time>
      </trkpt>
      <trkpt lat="45.94488" lon="4.73296">
        <ele>177</ele>
        <time>2018-08-22T08:21:09Z</time>
      </trkpt>
      <trkpt lat="45.94488" lon="4.73307">
        <ele>177</ele>
        <time>2018-08-22T08:21:11Z</time>
      </trkpt>
      <trkpt lat="45.94489" lon="4.73314">
        <ele>177</ele>
        <time>2018-08-22T08:21:12Z</time>
      </trkpt>
      <trkpt lat="45.9449" lon="4.73322">
        <ele>177</ele>
        <time>2018-08-22T08:21:13Z</time>
      </trkpt>
      <trkpt lat="45.94492" lon="4.73327">
        <ele>177</ele>
        <time>2018-08-22T08:21:14Z</time>
      </trkpt>
      <trkpt lat="45.94494" lon="4.73336">
        <ele>178</ele>
        <time>2018-08-22T08:21:16Z</time>
      </trkpt>
      <trkpt lat="45.94495" lon="4.73342">
        <ele>178</ele>
        <time>2018-08-22T08:21:17Z</time>
      </trkpt>
      <trkpt lat="45.94493" lon="4.73354">
        <ele>178</ele>
        <time>2018-08-22T08:21:19Z</time>
      </trkpt>
      <trkpt lat="45.94496" lon="4.73357">
        <ele>178</ele>
        <time>2018-08-22T08:21:20Z</time>
      </trkpt>
      <trkpt lat="45.94496" lon="4.73369">
        <ele>179</ele>
        <time>2018-08-22T08:21:22Z</time>
      </trkpt>
      <trkpt lat="45.94496" lon="4.73376">
        <ele>179</ele>
        <time>2018-08-22T08:21:23Z</time>
      </trkpt>
      <trkpt lat="45.94497" lon="4.73387">
        <ele>179</ele>
        <time>2018-08-22T08:21:25Z</time>
      </trkpt>
      <trkpt lat="45.94497" lon="4.73393">
        <ele>179</ele>
        <time>2018-08-22T08:21:26Z</time>
      </trkpt>
      <trkpt lat="45.94497" lon="4.73405">
        <ele>180</ele>
        <time>2018-08-22T08:21:28Z</time>
      </trkpt>
      <trkpt lat="45.94497" lon="4.73411">
        <ele>180</ele>
        <time>2018-08-22T08:21:29Z</time>
      </trkpt>
      <trkpt lat="45.94497" lon="4.73422">
        <ele>180</ele>
        <time>2018-08-22T08:21:31Z</time>
      </trkpt>
      <trkpt lat="45.94497" lon="4.73428">
        <ele>181</ele>
        <time>2018-08-22T08:21:32Z</time>
      </trkpt>
      <trkpt lat="45.94498" lon="4.73438">
        <ele>181</ele>
        <time>2018-08-22T08:21:35Z</time>
      </trkpt>
      <trkpt lat="45.94498" lon="4.73442">
        <ele>181</ele>
        <time>2018-08-22T08:21:36Z</time>
      </trkpt>
      <trkpt lat="45.94499" lon="4.73452">
        <ele>182</ele>
        <time>2018-08-22T08:21:37Z</time>
      </trkpt>
      <trkpt lat="45.94499" lon="4.73457">
        <ele>182</ele>
        <time>2018-08-22T08:21:38Z</time>
      </trkpt>
      <trkpt lat="45.945" lon="4.7347">
        <ele>182</ele>
        <time>2018-08-22T08:21:41Z</time>
      </trkpt>
      <trkpt lat="45.945" lon="4.73473">
        <ele>182</ele>
        <time>2018-08-22T08:21:42Z</time>
      </trkpt>
      <trkpt lat="45.945" lon="4.73483">
        <ele>182</ele>
        <time>2018-08-22T08:21:43Z</time>
      </trkpt>
      <trkpt lat="45.945" lon="4.73489">
        <ele>182</ele>
        <time>2018-08-22T08:21:44Z</time>
      </trkpt>
      <trkpt lat="45.945" lon="4.73501">
        <ele>183</ele>
        <time>2018-08-22T08:21:46Z</time>
      </trkpt>
      <trkpt lat="45.945" lon="4.73504">
        <ele>183</ele>
        <time>2018-08-22T08:21:47Z</time>
      </trkpt>
      <trkpt lat="45.945" lon="4.73512">
        <ele>184</ele>
        <time>2018-08-22T08:21:48Z</time>
      </trkpt>
      <trkpt lat="45.945" lon="4.73517">
        <ele>184</ele>
        <time>2018-08-22T08:21:49Z</time>
      </trkpt>
      <trkpt lat="45.945" lon="4.73528">
        <ele>183</ele>
        <time>2018-08-22T08:21:51Z</time>
      </trkpt>
      <trkpt lat="45.945" lon="4.73534">
        <ele>183</ele>
        <time>2018-08-22T08:21:52Z</time>
      </trkpt>
      <trkpt lat="45.94501" lon="4.73544">
        <ele>183</ele>
        <time>2018-08-22T08:21:55Z</time>
      </trkpt>
      <trkpt lat="45.945" lon="4.73553">
        <ele>183</ele>
        <time>2018-08-22T08:21:56Z</time>
      </trkpt>
      <trkpt lat="45.94499" lon="4.73564">
        <ele>185</ele>
        <time>2018-08-22T08:21:58Z</time>
      </trkpt>
      <trkpt lat="45.94498" lon="4.7357">
        <ele>185</ele>
        <time>2018-08-22T08:21:59Z</time>
      </trkpt>
      <trkpt lat="45.94498" lon="4.73581">
        <ele>185</ele>
        <time>2018-08-22T08:22:01Z</time>
      </trkpt>
      <trkpt lat="45.94497" lon="4.73586">
        <ele>185</ele>
        <time>2018-08-22T08:22:02Z</time>
      </trkpt>
      <trkpt lat="45.94496" lon="4.73598">
        <ele>185</ele>
        <time>2018-08-22T08:22:04Z</time>
      </trkpt>
      <trkpt lat="45.94496" lon="4.73604">
        <ele>186</ele>
        <time>2018-08-22T08:22:05Z</time>
      </trkpt>
      <trkpt lat="45.94495" lon="4.73613">
        <ele>186</ele>
        <time>2018-08-22T08:22:06Z</time>
      </trkpt>
      <trkpt lat="45.94494" lon="4.7362">
        <ele>186</ele>
        <time>2018-08-22T08:22:07Z</time>
      </trkpt>
      <trkpt lat="45.94494" lon="4.73631">
        <ele>186</ele>
        <time>2018-08-22T08:22:09Z</time>
      </trkpt>
      <trkpt lat="45.94493" lon="4.73636">
        <ele>186</ele>
        <time>2018-08-22T08:22:10Z</time>
      </trkpt>
      <trkpt lat="45.94491" lon="4.73647">
        <ele>186</ele>
        <time>2018-08-22T08:22:12Z</time>
      </trkpt>
      <trkpt lat="45.9449" lon="4.73653">
        <ele>185</ele>
        <time>2018-08-22T08:22:13Z</time>
      </trkpt>
      <trkpt lat="45.94488" lon="4.7366">
        <ele>185</ele>
        <time>2018-08-22T08:22:14Z</time>
      </trkpt>
      <trkpt lat="45.94487" lon="4.73669">
        <ele>185</ele>
        <time>2018-08-22T08:22:15Z</time>
      </trkpt>
      <trkpt lat="45.94485" lon="4.73681">
        <ele>186</ele>
        <time>2018-08-22T08:22:17Z</time>
      </trkpt>
      <trkpt lat="45.94484" lon="4.73687">
        <ele>186</ele>
        <time>2018-08-22T08:22:18Z</time>
      </trkpt>
      <trkpt lat="45.94485" lon="4.73691">
        <ele>186</ele>
        <time>2018-08-22T08:22:19Z</time>
      </trkpt>
      <trkpt lat="45.94484" lon="4.73701">
        <ele>186</ele>
        <time>2018-08-22T08:22:20Z</time>
      </trkpt>
      <trkpt lat="45.94483" lon="4.73709">
        <ele>186</ele>
        <time>2018-08-22T08:22:21Z</time>
      </trkpt>
      <trkpt lat="45.94482" lon="4.73718">
        <ele>186</ele>
        <time>2018-08-22T08:22:22Z</time>
      </trkpt>
      <trkpt lat="45.94482" lon="4.73726">
        <ele>186</ele>
        <time>2018-08-22T08:22:23Z</time>
      </trkpt>
      <trkpt lat="45.9448" lon="4.73732">
        <ele>186</ele>
        <time>2018-08-22T08:22:24Z</time>
      </trkpt>
      <trkpt lat="45.9448" lon="4.73743">
        <ele>186</ele>
        <time>2018-08-22T08:22:26Z</time>
      </trkpt>
      <trkpt lat="45.94478" lon="4.7375">
        <ele>186</ele>
        <time>2018-08-22T08:22:27Z</time>
      </trkpt>
      <trkpt lat="45.94477" lon="4.73756">
        <ele>186</ele>
        <time>2018-08-22T08:22:28Z</time>
      </trkpt>
      <trkpt lat="45.94476" lon="4.73763">
        <ele>186</ele>
        <time>2018-08-22T08:22:29Z</time>
      </trkpt>
      <trkpt lat="45.94482" lon="4.7377">
        <ele>186</ele>
        <time>2018-08-22T08:22:30Z</time>
      </trkpt>
      <trkpt lat="45.94486" lon="4.73775">
        <ele>186</ele>
        <time>2018-08-22T08:22:31Z</time>
      </trkpt>
      <trkpt lat="45.94491" lon="4.73777">
        <ele>186</ele>
        <time>2018-08-22T08:22:32Z</time>
      </trkpt>
      <trkpt lat="45.94494" lon="4.73782">
        <ele>186</ele>
        <time>2018-08-22T08:22:33Z</time>
      </trkpt>
      <trkpt lat="45.94498" lon="4.73785">
        <ele>186</ele>
        <time>2018-08-22T08:22:34Z</time>
      </trkpt>
      <trkpt lat="45.94503" lon="4.73788">
        <ele>186</ele>
        <time>2018-08-22T08:22:35Z</time>
      </trkpt>
      <trkpt lat="45.94508" lon="4.73792">
        <ele>186</ele>
        <time>2018-08-22T08:22:36Z</time>
      </trkpt>
      <trkpt lat="45.94512" lon="4.73795">
        <ele>186</ele>
        <time>2018-08-22T08:22:37Z</time>
      </trkpt>
      <trkpt lat="45.94516" lon="4.73799">
        <ele>186</ele>
        <time>2018-08-22T08:22:38Z</time>
      </trkpt>
      <trkpt lat="45.94521" lon="4.73802">
        <ele>186</ele>
        <time>2018-08-22T08:22:39Z</time>
      </trkpt>
      <trkpt lat="45.94526" lon="4.73812">
        <ele>186</ele>
        <time>2018-08-22T08:22:41Z</time>
      </trkpt>
      <trkpt lat="45.9453" lon="4.73816">
        <ele>186</ele>
        <time>2018-08-22T08:22:42Z</time>
      </trkpt>
      <trkpt lat="45.94536" lon="4.73824">
        <ele>186</ele>
        <time>2018-08-22T08:22:44Z</time>
      </trkpt>
      <trkpt lat="45.9454" lon="4.73827">
        <ele>186</ele>
        <time>2018-08-22T08:22:45Z</time>
      </trkpt>
      <trkpt lat="45.94546" lon="4.73829">
        <ele>186</ele>
        <time>2018-08-22T08:22:46Z</time>
      </trkpt>
      <trkpt lat="45.9455" lon="4.7383">
        <ele>186</ele>
        <time>2018-08-22T08:22:47Z</time>
      </trkpt>
      <trkpt lat="45.94557" lon="4.73837">
        <ele>186</ele>
        <time>2018-08-22T08:22:49Z</time>
      </trkpt>
      <trkpt lat="45.94562" lon="4.73841">
        <ele>186</ele>
        <time>2018-08-22T08:22:50Z</time>
      </trkpt>
      <trkpt lat="45.94565" lon="4.73846">
        <ele>186</ele>
        <time>2018-08-22T08:22:51Z</time>
      </trkpt>
      <trkpt lat="45.94569" lon="4.7385">
        <ele>186</ele>
        <time>2018-08-22T08:22:52Z</time>
      </trkpt>
      <trkpt lat="45.94572" lon="4.73856">
        <ele>186</ele>
        <time>2018-08-22T08:22:53Z</time>
      </trkpt>
      <trkpt lat="45.94576" lon="4.7386">
        <ele>186</ele>
        <time>2018-08-22T08:22:54Z</time>
      </trkpt>
      <trkpt lat="45.94579" lon="4.73866">
        <ele>186</ele>
        <time>2018-08-22T08:22:55Z</time>
      </trkpt>
      <trkpt lat="45.94583" lon="4.7387">
        <ele>186</ele>
        <time>2018-08-22T08:22:56Z</time>
      </trkpt>
      <trkpt lat="45.94587" lon="4.73874">
        <ele>187</ele>
        <time>2018-08-22T08:22:57Z</time>
      </trkpt>
      <trkpt lat="45.94592" lon="4.73877">
        <ele>187</ele>
        <time>2018-08-22T08:22:58Z</time>
      </trkpt>
      <trkpt lat="45.94596" lon="4.73884">
        <ele>187</ele>
        <time>2018-08-22T08:22:59Z</time>
      </trkpt>
      <trkpt lat="45.94599" lon="4.73889">
        <ele>187</ele>
        <time>2018-08-22T08:23:00Z</time>
      </trkpt>
      <trkpt lat="45.94606" lon="4.73898">
        <ele>187</ele>
        <time>2018-08-22T08:23:02Z</time>
      </trkpt>
      <trkpt lat="45.94609" lon="4.739">
        <ele>187</ele>
        <time>2018-08-22T08:23:03Z</time>
      </trkpt>
      <trkpt lat="45.94612" lon="4.73903">
        <ele>187</ele>
        <time>2018-08-22T08:23:04Z</time>
      </trkpt>
      <trkpt lat="45.94616" lon="4.73908">
        <ele>187</ele>
        <time>2018-08-22T08:23:05Z</time>
      </trkpt>
      <trkpt lat="45.9462" lon="4.73912">
        <ele>187</ele>
        <time>2018-08-22T08:23:06Z</time>
      </trkpt>
      <trkpt lat="45.94623" lon="4.73917">
        <ele>187</ele>
        <time>2018-08-22T08:23:07Z</time>
      </trkpt>
      <trkpt lat="45.94627" lon="4.73921">
        <ele>187</ele>
        <time>2018-08-22T08:23:08Z</time>
      </trkpt>
      <trkpt lat="45.94631" lon="4.73926">
        <ele>187</ele>
        <time>2018-08-22T08:23:09Z</time>
      </trkpt>
      <trkpt lat="45.94635" lon="4.73931">
        <ele>187</ele>
        <time>2018-08-22T08:23:10Z</time>
      </trkpt>
      <trkpt lat="45.94639" lon="4.73937">
        <ele>187</ele>
        <time>2018-08-22T08:23:11Z</time>
      </trkpt>
      <trkpt lat="45.94642" lon="4.73942">
        <ele>187</ele>
        <time>2018-08-22T08:23:12Z</time>
      </trkpt>
      <trkpt lat="45.94647" lon="4.73947">
        <ele>187</ele>
        <time>2018-08-22T08:23:13Z</time>
      </trkpt>
      <trkpt lat="45.94651" lon="4.73952">
        <ele>187</ele>
        <time>2018-08-22T08:23:14Z</time>
      </trkpt>
      <trkpt lat="45.94654" lon="4.73956">
        <ele>187</ele>
        <time>2018-08-22T08:23:15Z</time>
      </trkpt>
      <trkpt lat="45.94658" lon="4.7396">
        <ele>187</ele>
        <time>2018-08-22T08:23:16Z</time>
      </trkpt>
      <trkpt lat="45.94662" lon="4.73965">
        <ele>187</ele>
        <time>2018-08-22T08:23:17Z</time>
      </trkpt>
      <trkpt lat="45.94666" lon="4.7397">
        <ele>187</ele>
        <time>2018-08-22T08:23:18Z</time>
      </trkpt>
      <trkpt lat="45.94669" lon="4.73974">
        <ele>187</ele>
        <time>2018-08-22T08:23:19Z</time>
      </trkpt>
      <trkpt lat="45.94675" lon="4.73984">
        <ele>187</ele>
        <time>2018-08-22T08:23:21Z</time>
      </trkpt>
      <trkpt lat="45.94678" lon="4.73988">
        <ele>187</ele>
        <time>2018-08-22T08:23:22Z</time>
      </trkpt>
      <trkpt lat="45.94682" lon="4.73993">
        <ele>187</ele>
        <time>2018-08-22T08:23:23Z</time>
      </trkpt>
      <trkpt lat="45.94686" lon="4.73997">
        <ele>187</ele>
        <time>2018-08-22T08:23:24Z</time>
      </trkpt>
      <trkpt lat="45.94692" lon="4.74006">
        <ele>187</ele>
        <time>2018-08-22T08:23:26Z</time>
      </trkpt>
      <trkpt lat="45.94695" lon="4.7401">
        <ele>187</ele>
        <time>2018-08-22T08:23:27Z</time>
      </trkpt>
      <trkpt lat="45.94701" lon="4.74019">
        <ele>187</ele>
        <time>2018-08-22T08:23:29Z</time>
      </trkpt>
      <trkpt lat="45.94703" lon="4.74023">
        <ele>187</ele>
        <time>2018-08-22T08:23:30Z</time>
      </trkpt>
      <trkpt lat="45.94709" lon="4.74032">
        <ele>187</ele>
        <time>2018-08-22T08:23:32Z</time>
      </trkpt>
      <trkpt lat="45.94712" lon="4.74037">
        <ele>187</ele>
        <time>2018-08-22T08:23:33Z</time>
      </trkpt>
      <trkpt lat="45.94715" lon="4.74042">
        <ele>187</ele>
        <time>2018-08-22T08:23:34Z</time>
      </trkpt>
      <trkpt lat="45.94719" lon="4.74047">
        <ele>187</ele>
        <time>2018-08-22T08:23:35Z</time>
      </trkpt>
      <trkpt lat="45.94723" lon="4.74052">
        <ele>187</ele>
        <time>2018-08-22T08:23:36Z</time>
      </trkpt>
      <trkpt lat="45.94727" lon="4.74057">
        <ele>188</ele>
        <time>2018-08-22T08:23:37Z</time>
      </trkpt>
      <trkpt lat="45.94731" lon="4.74061">
        <ele>188</ele>
        <time>2018-08-22T08:23:38Z</time>
      </trkpt>
      <trkpt lat="45.94734" lon="4.74067">
        <ele>188</ele>
        <time>2018-08-22T08:23:39Z</time>
      </trkpt>
      <trkpt lat="45.94737" lon="4.74072">
        <ele>188</ele>
        <time>2018-08-22T08:23:40Z</time>
      </trkpt>
      <trkpt lat="45.94741" lon="4.74077">
        <ele>188</ele>
        <time>2018-08-22T08:23:41Z</time>
      </trkpt>
      <trkpt lat="45.94748" lon="4.74086">
        <ele>189</ele>
        <time>2018-08-22T08:23:43Z</time>
      </trkpt>
      <trkpt lat="45.94752" lon="4.7409">
        <ele>189</ele>
        <time>2018-08-22T08:23:44Z</time>
      </trkpt>
      <trkpt lat="45.94758" lon="4.74099">
        <ele>189</ele>
        <time>2018-08-22T08:23:46Z</time>
      </trkpt>
      <trkpt lat="45.94762" lon="4.74104">
        <ele>189</ele>
        <time>2018-08-22T08:23:47Z</time>
      </trkpt>
      <trkpt lat="45.94766" lon="4.7411">
        <ele>189</ele>
        <time>2018-08-22T08:23:48Z</time>
      </trkpt>
      <trkpt lat="45.94769" lon="4.74115">
        <ele>189</ele>
        <time>2018-08-22T08:23:49Z</time>
      </trkpt>
      <trkpt lat="45.94772" lon="4.74121">
        <ele>189</ele>
        <time>2018-08-22T08:23:50Z</time>
      </trkpt>
      <trkpt lat="45.94777" lon="4.74125">
        <ele>189</ele>
        <time>2018-08-22T08:23:51Z</time>
      </trkpt>
      <trkpt lat="45.94782" lon="4.74128">
        <ele>189</ele>
        <time>2018-08-22T08:23:52Z</time>
      </trkpt>
      <trkpt lat="45.94784" lon="4.74133">
        <ele>189</ele>
        <time>2018-08-22T08:23:53Z</time>
      </trkpt>
      <trkpt lat="45.94787" lon="4.74142">
        <ele>189</ele>
        <time>2018-08-22T08:23:55Z</time>
      </trkpt>
      <trkpt lat="45.94791" lon="4.74151">
        <ele>189</ele>
        <time>2018-08-22T08:23:56Z</time>
      </trkpt>
      <trkpt lat="45.94797" lon="4.74161">
        <ele>189</ele>
        <time>2018-08-22T08:23:58Z</time>
      </trkpt>
      <trkpt lat="45.948" lon="4.74167">
        <ele>189</ele>
        <time>2018-08-22T08:23:59Z</time>
      </trkpt>
      <trkpt lat="45.94806" lon="4.74175">
        <ele>189</ele>
        <time>2018-08-22T08:24:01Z</time>
      </trkpt>
      <trkpt lat="45.94811" lon="4.74179">
        <ele>189</ele>
        <time>2018-08-22T08:24:02Z</time>
      </trkpt>
      <trkpt lat="45.94815" lon="4.74184">
        <ele>189</ele>
        <time>2018-08-22T08:24:03Z</time>
      </trkpt>
      <trkpt lat="45.94818" lon="4.74191">
        <ele>189</ele>
        <time>2018-08-22T08:24:04Z</time>
      </trkpt>
      <trkpt lat="45.94822" lon="4.74198">
        <ele>189</ele>
        <time>2018-08-22T08:24:05Z</time>
      </trkpt>
      <trkpt lat="45.94825" lon="4.74204">
        <ele>189</ele>
        <time>2018-08-22T08:24:06Z</time>
      </trkpt>
      <trkpt lat="45.94828" lon="4.7421">
        <ele>189</ele>
        <time>2018-08-22T08:24:07Z</time>
      </trkpt>
      <trkpt lat="45.94831" lon="4.74217">
        <ele>188</ele>
        <time>2018-08-22T08:24:08Z</time>
      </trkpt>
      <trkpt lat="45.94835" lon="4.74223">
        <ele>190</ele>
        <time>2018-08-22T08:24:09Z</time>
      </trkpt>
      <trkpt lat="45.9484" lon="4.7423">
        <ele>190</ele>
        <time>2018-08-22T08:24:10Z</time>
      </trkpt>
      <trkpt lat="45.94844" lon="4.74236">
        <ele>190</ele>
        <time>2018-08-22T08:24:11Z</time>
      </trkpt>
      <trkpt lat="45.94847" lon="4.74243">
        <ele>190</ele>
        <time>2018-08-22T08:24:12Z</time>
      </trkpt>
      <trkpt lat="45.94851" lon="4.74248">
        <ele>190</ele>
        <time>2018-08-22T08:24:13Z</time>
      </trkpt>
      <trkpt lat="45.94855" lon="4.74255">
        <ele>190</ele>
        <time>2018-08-22T08:24:14Z</time>
      </trkpt>
      <trkpt lat="45.94858" lon="4.74261">
        <ele>190</ele>
        <time>2018-08-22T08:24:15Z</time>
      </trkpt>
      <trkpt lat="45.94861" lon="4.74269">
        <ele>190</ele>
        <time>2018-08-22T08:24:16Z</time>
      </trkpt>
      <trkpt lat="45.94864" lon="4.74277">
        <ele>191</ele>
        <time>2018-08-22T08:24:17Z</time>
      </trkpt>
      <trkpt lat="45.94867" lon="4.74285">
        <ele>191</ele>
        <time>2018-08-22T08:24:18Z</time>
      </trkpt>
      <trkpt lat="45.94869" lon="4.74292">
        <ele>191</ele>
        <time>2018-08-22T08:24:19Z</time>
      </trkpt>
      <trkpt lat="45.94874" lon="4.74298">
        <ele>191</ele>
        <time>2018-08-22T08:24:20Z</time>
      </trkpt>
      <trkpt lat="45.94878" lon="4.74305">
        <ele>191</ele>
        <time>2018-08-22T08:24:21Z</time>
      </trkpt>
      <trkpt lat="45.9488" lon="4.74313">
        <ele>191</ele>
        <time>2018-08-22T08:24:22Z</time>
      </trkpt>
      <trkpt lat="45.94883" lon="4.74319">
        <ele>191</ele>
        <time>2018-08-22T08:24:23Z</time>
      </trkpt>
      <trkpt lat="45.94886" lon="4.74324">
        <ele>191</ele>
        <time>2018-08-22T08:24:24Z</time>
      </trkpt>
      <trkpt lat="45.94888" lon="4.7433">
        <ele>191</ele>
        <time>2018-08-22T08:24:25Z</time>
      </trkpt>
      <trkpt lat="45.94891" lon="4.74334">
        <ele>191</ele>
        <time>2018-08-22T08:24:26Z</time>
      </trkpt>
      <trkpt lat="45.94895" lon="4.74341">
        <ele>191</ele>
        <time>2018-08-22T08:24:27Z</time>
      </trkpt>
      <trkpt lat="45.94899" lon="4.74344">
        <ele>191</ele>
        <time>2018-08-22T08:24:28Z</time>
      </trkpt>
      <trkpt lat="45.94902" lon="4.74351">
        <ele>191</ele>
        <time>2018-08-22T08:24:29Z</time>
      </trkpt>
      <trkpt lat="45.94906" lon="4.74356">
        <ele>191</ele>
        <time>2018-08-22T08:24:30Z</time>
      </trkpt>
      <trkpt lat="45.94909" lon="4.74362">
        <ele>191</ele>
        <time>2018-08-22T08:24:31Z</time>
      </trkpt>
      <trkpt lat="45.94912" lon="4.74369">
        <ele>191</ele>
        <time>2018-08-22T08:24:32Z</time>
      </trkpt>
      <trkpt lat="45.94915" lon="4.74374">
        <ele>191</ele>
        <time>2018-08-22T08:24:33Z</time>
      </trkpt>
      <trkpt lat="45.94918" lon="4.7438">
        <ele>192</ele>
        <time>2018-08-22T08:24:34Z</time>
      </trkpt>
      <trkpt lat="45.94921" lon="4.74385">
        <ele>192</ele>
        <time>2018-08-22T08:24:35Z</time>
      </trkpt>
      <trkpt lat="45.94924" lon="4.74391">
        <ele>192</ele>
        <time>2018-08-22T08:24:36Z</time>
      </trkpt>
      <trkpt lat="45.94928" lon="4.74398">
        <ele>192</ele>
        <time>2018-08-22T08:24:37Z</time>
      </trkpt>
      <trkpt lat="45.94931" lon="4.74403">
        <ele>192</ele>
        <time>2018-08-22T08:24:38Z</time>
      </trkpt>
      <trkpt lat="45.94933" lon="4.74409">
        <ele>192</ele>
        <time>2018-08-22T08:24:39Z</time>
      </trkpt>
      <trkpt lat="45.94937" lon="4.74414">
        <ele>192</ele>
        <time>2018-08-22T08:24:40Z</time>
      </trkpt>
      <trkpt lat="45.94941" lon="4.7442">
        <ele>192</ele>
        <time>2018-08-22T08:24:41Z</time>
      </trkpt>
      <trkpt lat="45.94944" lon="4.74426">
        <ele>192</ele>
        <time>2018-08-22T08:24:42Z</time>
      </trkpt>
      <trkpt lat="45.94948" lon="4.74433">
        <ele>192</ele>
        <time>2018-08-22T08:24:43Z</time>
      </trkpt>
      <trkpt lat="45.94952" lon="4.74439">
        <ele>192</ele>
        <time>2018-08-22T08:24:44Z</time>
      </trkpt>
      <trkpt lat="45.94955" lon="4.74444">
        <ele>192</ele>
        <time>2018-08-22T08:24:45Z</time>
      </trkpt>
      <trkpt lat="45.94957" lon="4.74452">
        <ele>192</ele>
        <time>2018-08-22T08:24:46Z</time>
      </trkpt>
      <trkpt lat="45.94961" lon="4.74457">
        <ele>192</ele>
        <time>2018-08-22T08:24:47Z</time>
      </trkpt>
      <trkpt lat="45.94965" lon="4.74462">
        <ele>193</ele>
        <time>2018-08-22T08:24:48Z</time>
      </trkpt>
      <trkpt lat="45.94968" lon="4.74468">
        <ele>193</ele>
        <time>2018-08-22T08:24:49Z</time>
      </trkpt>
      <trkpt lat="45.94972" lon="4.74474">
        <ele>193</ele>
        <time>2018-08-22T08:24:50Z</time>
      </trkpt>
      <trkpt lat="45.94974" lon="4.74481">
        <ele>193</ele>
        <time>2018-08-22T08:24:51Z</time>
      </trkpt>
      <trkpt lat="45.94977" lon="4.74487">
        <ele>193</ele>
        <time>2018-08-22T08:24:52Z</time>
      </trkpt>
      <trkpt lat="45.9498" lon="4.74493">
        <ele>193</ele>
        <time>2018-08-22T08:24:53Z</time>
      </trkpt>
      <trkpt lat="45.94983" lon="4.74498">
        <ele>193</ele>
        <time>2018-08-22T08:24:54Z</time>
      </trkpt>
      <trkpt lat="45.94989" lon="4.74507">
        <ele>193</ele>
        <time>2018-08-22T08:24:56Z</time>
      </trkpt>
      <trkpt lat="45.94991" lon="4.74513">
        <ele>193</ele>
        <time>2018-08-22T08:24:57Z</time>
      </trkpt>
      <trkpt lat="45.94995" lon="4.74515">
        <ele>193</ele>
        <time>2018-08-22T08:24:58Z</time>
      </trkpt>
      <trkpt lat="45.94999" lon="4.74521">
        <ele>193</ele>
        <time>2018-08-22T08:24:59Z</time>
      </trkpt>
      <trkpt lat="45.95002" lon="4.74527">
        <ele>194</ele>
        <time>2018-08-22T08:25:00Z</time>
      </trkpt>
      <trkpt lat="45.95004" lon="4.74535">
        <ele>194</ele>
        <time>2018-08-22T08:25:01Z</time>
      </trkpt>
      <trkpt lat="45.95007" lon="4.74541">
        <ele>194</ele>
        <time>2018-08-22T08:25:02Z</time>
      </trkpt>
      <trkpt lat="45.95009" lon="4.74547">
        <ele>194</ele>
        <time>2018-08-22T08:25:03Z</time>
      </trkpt>
      <trkpt lat="45.95012" lon="4.74554">
        <ele>194</ele>
        <time>2018-08-22T08:25:04Z</time>
      </trkpt>
      <trkpt lat="45.95015" lon="4.74561">
        <ele>194</ele>
        <time>2018-08-22T08:25:05Z</time>
      </trkpt>
      <trkpt lat="45.95018" lon="4.74568">
        <ele>194</ele>
        <time>2018-08-22T08:25:06Z</time>
      </trkpt>
      <trkpt lat="45.9502" lon="4.74574">
        <ele>194</ele>
        <time>2018-08-22T08:25:07Z</time>
      </trkpt>
      <trkpt lat="45.95023" lon="4.74582">
        <ele>194</ele>
        <time>2018-08-22T08:25:08Z</time>
      </trkpt>
      <trkpt lat="45.95026" lon="4.74588">
        <ele>194</ele>
        <time>2018-08-22T08:25:09Z</time>
      </trkpt>
      <trkpt lat="45.95028" lon="4.74593">
        <ele>194</ele>
        <time>2018-08-22T08:25:10Z</time>
      </trkpt>
      <trkpt lat="45.9503" lon="4.746">
        <ele>194</ele>
        <time>2018-08-22T08:25:11Z</time>
      </trkpt>
      <trkpt lat="45.95034" lon="4.74606">
        <ele>194</ele>
        <time>2018-08-22T08:25:12Z</time>
      </trkpt>
      <trkpt lat="45.95038" lon="4.74613">
        <ele>194</ele>
        <time>2018-08-22T08:25:13Z</time>
      </trkpt>
      <trkpt lat="45.95041" lon="4.74619">
        <ele>194</ele>
        <time>2018-08-22T08:25:14Z</time>
      </trkpt>
      <trkpt lat="45.95046" lon="4.74623">
        <ele>194</ele>
        <time>2018-08-22T08:25:15Z</time>
      </trkpt>
      <trkpt lat="45.95047" lon="4.74632">
        <ele>194</ele>
        <time>2018-08-22T08:25:16Z</time>
      </trkpt>
      <trkpt lat="45.95052" lon="4.74639">
        <ele>194</ele>
        <time>2018-08-22T08:25:17Z</time>
      </trkpt>
      <trkpt lat="45.95056" lon="4.74646">
        <ele>194</ele>
        <time>2018-08-22T08:25:18Z</time>
      </trkpt>
      <trkpt lat="45.95059" lon="4.74651">
        <ele>194</ele>
        <time>2018-08-22T08:25:19Z</time>
      </trkpt>
      <trkpt lat="45.95062" lon="4.74659">
        <ele>195</ele>
        <time>2018-08-22T08:25:20Z</time>
      </trkpt>
      <trkpt lat="45.95066" lon="4.74666">
        <ele>195</ele>
        <time>2018-08-22T08:25:21Z</time>
      </trkpt>
      <trkpt lat="45.9507" lon="4.74671">
        <ele>194</ele>
        <time>2018-08-22T08:25:22Z</time>
      </trkpt>
      <trkpt lat="45.95073" lon="4.74678">
        <ele>194</ele>
        <time>2018-08-22T08:25:23Z</time>
      </trkpt>
      <trkpt lat="45.95077" lon="4.74685">
        <ele>194</ele>
        <time>2018-08-22T08:25:24Z</time>
      </trkpt>
      <trkpt lat="45.9508" lon="4.74692">
        <ele>194</ele>
        <time>2018-08-22T08:25:25Z</time>
      </trkpt>
      <trkpt lat="45.95084" lon="4.74699">
        <ele>194</ele>
        <time>2018-08-22T08:25:26Z</time>
      </trkpt>
      <trkpt lat="45.95088" lon="4.74706">
        <ele>194</ele>
        <time>2018-08-22T08:25:27Z</time>
      </trkpt>
      <trkpt lat="45.95091" lon="4.74713">
        <ele>194</ele>
        <time>2018-08-22T08:25:28Z</time>
      </trkpt>
      <trkpt lat="45.95094" lon="4.74719">
        <ele>194</ele>
        <time>2018-08-22T08:25:29Z</time>
      </trkpt>
      <trkpt lat="45.95098" lon="4.74726">
        <ele>194</ele>
        <time>2018-08-22T08:25:30Z</time>
      </trkpt>
      <trkpt lat="45.95102" lon="4.74732">
        <ele>194</ele>
        <time>2018-08-22T08:25:31Z</time>
      </trkpt>
      <trkpt lat="45.95106" lon="4.74739">
        <ele>194</ele>
        <time>2018-08-22T08:25:32Z</time>
      </trkpt>
      <trkpt lat="45.95111" lon="4.74746">
        <ele>194</ele>
        <time>2018-08-22T08:25:33Z</time>
      </trkpt>
      <trkpt lat="45.95114" lon="4.74751">
        <ele>194</ele>
        <time>2018-08-22T08:25:34Z</time>
      </trkpt>
      <trkpt lat="45.95119" lon="4.74757">
        <ele>194</ele>
        <time>2018-08-22T08:25:35Z</time>
      </trkpt>
      <trkpt lat="45.95122" lon="4.74764">
        <ele>194</ele>
        <time>2018-08-22T08:25:36Z</time>
      </trkpt>
      <trkpt lat="45.95127" lon="4.74769">
        <ele>194</ele>
        <time>2018-08-22T08:25:37Z</time>
      </trkpt>
      <trkpt lat="45.95129" lon="4.74775">
        <ele>194</ele>
        <time>2018-08-22T08:25:38Z</time>
      </trkpt>
      <trkpt lat="45.95132" lon="4.7478">
        <ele>194</ele>
        <time>2018-08-22T08:25:39Z</time>
      </trkpt>
      <trkpt lat="45.95136" lon="4.74786">
        <ele>194</ele>
        <time>2018-08-22T08:25:40Z</time>
      </trkpt>
      <trkpt lat="45.95139" lon="4.74791">
        <ele>194</ele>
        <time>2018-08-22T08:25:41Z</time>
      </trkpt>
      <trkpt lat="45.95142" lon="4.74796">
        <ele>194</ele>
        <time>2018-08-22T08:25:42Z</time>
      </trkpt>
      <trkpt lat="45.95146" lon="4.74801">
        <ele>194</ele>
        <time>2018-08-22T08:25:43Z</time>
      </trkpt>
      <trkpt lat="45.95149" lon="4.74805">
        <ele>194</ele>
        <time>2018-08-22T08:25:44Z</time>
      </trkpt>
      <trkpt lat="45.95155" lon="4.74809">
        <ele>194</ele>
        <time>2018-08-22T08:25:45Z</time>
      </trkpt>
      <trkpt lat="45.95156" lon="4.74819">
        <ele>194</ele>
        <time>2018-08-22T08:25:46Z</time>
      </trkpt>
      <trkpt lat="45.95158" lon="4.74822">
        <ele>194</ele>
        <time>2018-08-22T08:25:47Z</time>
      </trkpt>
      <trkpt lat="45.95165" lon="4.74828">
        <ele>194</ele>
        <time>2018-08-22T08:25:48Z</time>
      </trkpt>
      <trkpt lat="45.95167" lon="4.74835">
        <ele>194</ele>
        <time>2018-08-22T08:25:49Z</time>
      </trkpt>
      <trkpt lat="45.95172" lon="4.74839">
        <ele>194</ele>
        <time>2018-08-22T08:25:50Z</time>
      </trkpt>
      <trkpt lat="45.95174" lon="4.74846">
        <ele>194</ele>
        <time>2018-08-22T08:25:51Z</time>
      </trkpt>
      <trkpt lat="45.95179" lon="4.74849">
        <ele>194</ele>
        <time>2018-08-22T08:25:52Z</time>
      </trkpt>
      <trkpt lat="45.95183" lon="4.74855">
        <ele>194</ele>
        <time>2018-08-22T08:25:53Z</time>
      </trkpt>
      <trkpt lat="45.95186" lon="4.74861">
        <ele>194</ele>
        <time>2018-08-22T08:25:54Z</time>
      </trkpt>
      <trkpt lat="45.95189" lon="4.74867">
        <ele>194</ele>
        <time>2018-08-22T08:25:55Z</time>
      </trkpt>
      <trkpt lat="45.95193" lon="4.74872">
        <ele>194</ele>
        <time>2018-08-22T08:25:56Z</time>
      </trkpt>
      <trkpt lat="45.95197" lon="4.74881">
        <ele>194</ele>
        <time>2018-08-22T08:25:57Z</time>
      </trkpt>
      <trkpt lat="45.95197" lon="4.74887">
        <ele>194</ele>
        <time>2018-08-22T08:25:58Z</time>
      </trkpt>
      <trkpt lat="45.95202" lon="4.74892">
        <ele>194</ele>
        <time>2018-08-22T08:25:59Z</time>
      </trkpt>
      <trkpt lat="45.95207" lon="4.74895">
        <ele>194</ele>
        <time>2018-08-22T08:26:00Z</time>
      </trkpt>
      <trkpt lat="45.95208" lon="4.74902">
        <ele>193</ele>
        <time>2018-08-22T08:26:01Z</time>
      </trkpt>
      <trkpt lat="45.95214" lon="4.74905">
        <ele>193</ele>
        <time>2018-08-22T08:26:02Z</time>
      </trkpt>
      <trkpt lat="45.95218" lon="4.7491">
        <ele>193</ele>
        <time>2018-08-22T08:26:03Z</time>
      </trkpt>
      <trkpt lat="45.95221" lon="4.74916">
        <ele>193</ele>
        <time>2018-08-22T08:26:04Z</time>
      </trkpt>
      <trkpt lat="45.95226" lon="4.74922">
        <ele>192</ele>
        <time>2018-08-22T08:26:05Z</time>
      </trkpt>
      <trkpt lat="45.95228" lon="4.74929">
        <ele>192</ele>
        <time>2018-08-22T08:26:06Z</time>
      </trkpt>
      <trkpt lat="45.95233" lon="4.74936">
        <ele>192</ele>
        <time>2018-08-22T08:26:07Z</time>
      </trkpt>
      <trkpt lat="45.95237" lon="4.74941">
        <ele>192</ele>
        <time>2018-08-22T08:26:08Z</time>
      </trkpt>
      <trkpt lat="45.95239" lon="4.74946">
        <ele>192</ele>
        <time>2018-08-22T08:26:09Z</time>
      </trkpt>
      <trkpt lat="45.95242" lon="4.74952">
        <ele>192</ele>
        <time>2018-08-22T08:26:10Z</time>
      </trkpt>
      <trkpt lat="45.95245" lon="4.74958">
        <ele>192</ele>
        <time>2018-08-22T08:26:11Z</time>
      </trkpt>
      <trkpt lat="45.9525" lon="4.74964">
        <ele>191</ele>
        <time>2018-08-22T08:26:12Z</time>
      </trkpt>
      <trkpt lat="45.95254" lon="4.74967">
        <ele>192</ele>
        <time>2018-08-22T08:26:13Z</time>
      </trkpt>
      <trkpt lat="45.95257" lon="4.74974">
        <ele>192</ele>
        <time>2018-08-22T08:26:14Z</time>
      </trkpt>
      <trkpt lat="45.95261" lon="4.74979">
        <ele>192</ele>
        <time>2018-08-22T08:26:15Z</time>
      </trkpt>
      <trkpt lat="45.95266" lon="4.74985">
        <ele>192</ele>
        <time>2018-08-22T08:26:16Z</time>
      </trkpt>
      <trkpt lat="45.9527" lon="4.74992">
        <ele>192</ele>
        <time>2018-08-22T08:26:17Z</time>
      </trkpt>
      <trkpt lat="45.95274" lon="4.74998">
        <ele>192</ele>
        <time>2018-08-22T08:26:18Z</time>
      </trkpt>
      <trkpt lat="45.95277" lon="4.75005">
        <ele>191</ele>
        <time>2018-08-22T08:26:19Z</time>
      </trkpt>
      <trkpt lat="45.95281" lon="4.75012">
        <ele>191</ele>
        <time>2018-08-22T08:26:20Z</time>
      </trkpt>
      <trkpt lat="45.95285" lon="4.75018">
        <ele>191</ele>
        <time>2018-08-22T08:26:21Z</time>
      </trkpt>
      <trkpt lat="45.9529" lon="4.75023">
        <ele>191</ele>
        <time>2018-08-22T08:26:22Z</time>
      </trkpt>
      <trkpt lat="45.95294" lon="4.7503">
        <ele>191</ele>
        <time>2018-08-22T08:26:23Z</time>
      </trkpt>
      <trkpt lat="45.95299" lon="4.75037">
        <ele>191</ele>
        <time>2018-08-22T08:26:24Z</time>
      </trkpt>
      <trkpt lat="45.95303" lon="4.75044">
        <ele>191</ele>
        <time>2018-08-22T08:26:25Z</time>
      </trkpt>
      <trkpt lat="45.95307" lon="4.7505">
        <ele>192</ele>
        <time>2018-08-22T08:26:26Z</time>
      </trkpt>
      <trkpt lat="45.9531" lon="4.75056">
        <ele>192</ele>
        <time>2018-08-22T08:26:27Z</time>
      </trkpt>
      <trkpt lat="45.95314" lon="4.75063">
        <ele>192</ele>
        <time>2018-08-22T08:26:28Z</time>
      </trkpt>
      <trkpt lat="45.95318" lon="4.7507">
        <ele>192</ele>
        <time>2018-08-22T08:26:29Z</time>
      </trkpt>
      <trkpt lat="45.95322" lon="4.75076">
        <ele>192</ele>
        <time>2018-08-22T08:26:30Z</time>
      </trkpt>
      <trkpt lat="45.95326" lon="4.75082">
        <ele>192</ele>
        <time>2018-08-22T08:26:31Z</time>
      </trkpt>
      <trkpt lat="45.9533" lon="4.75087">
        <ele>192</ele>
        <time>2018-08-22T08:26:32Z</time>
      </trkpt>
      <trkpt lat="45.95333" lon="4.75094">
        <ele>191</ele>
        <time>2018-08-22T08:26:33Z</time>
      </trkpt>
      <trkpt lat="45.95337" lon="4.75099">
        <ele>192</ele>
        <time>2018-08-22T08:26:34Z</time>
      </trkpt>
      <trkpt lat="45.95341" lon="4.75105">
        <ele>192</ele>
        <time>2018-08-22T08:26:35Z</time>
      </trkpt>
      <trkpt lat="45.95346" lon="4.7511">
        <ele>192</ele>
        <time>2018-08-22T08:26:36Z</time>
      </trkpt>
      <trkpt lat="45.95349" lon="4.75118">
        <ele>191</ele>
        <time>2018-08-22T08:26:37Z</time>
      </trkpt>
      <trkpt lat="45.95354" lon="4.75125">
        <ele>191</ele>
        <time>2018-08-22T08:26:38Z</time>
      </trkpt>
      <trkpt lat="45.9536" lon="4.75132">
        <ele>191</ele>
        <time>2018-08-22T08:26:39Z</time>
      </trkpt>
      <trkpt lat="45.95365" lon="4.75139">
        <ele>191</ele>
        <time>2018-08-22T08:26:40Z</time>
      </trkpt>
      <trkpt lat="45.9537" lon="4.75144">
        <ele>191</ele>
        <time>2018-08-22T08:26:41Z</time>
      </trkpt>
      <trkpt lat="45.95373" lon="4.75151">
        <ele>191</ele>
        <time>2018-08-22T08:26:42Z</time>
      </trkpt>
      <trkpt lat="45.95377" lon="4.75158">
        <ele>191</ele>
        <time>2018-08-22T08:26:43Z</time>
      </trkpt>
      <trkpt lat="45.95381" lon="4.75165">
        <ele>191</ele>
        <time>2018-08-22T08:26:44Z</time>
      </trkpt>
      <trkpt lat="45.95385" lon="4.75171">
        <ele>189</ele>
        <time>2018-08-22T08:26:45Z</time>
      </trkpt>
      <trkpt lat="45.95389" lon="4.75178">
        <ele>189</ele>
        <time>2018-08-22T08:26:46Z</time>
      </trkpt>
      <trkpt lat="45.95393" lon="4.75186">
        <ele>189</ele>
        <time>2018-08-22T08:26:47Z</time>
      </trkpt>
      <trkpt lat="45.95397" lon="4.75193">
        <ele>189</ele>
        <time>2018-08-22T08:26:48Z</time>
      </trkpt>
      <trkpt lat="45.95401" lon="4.752">
        <ele>189</ele>
        <time>2018-08-22T08:26:49Z</time>
      </trkpt>
      <trkpt lat="45.95405" lon="4.75207">
        <ele>189</ele>
        <time>2018-08-22T08:26:50Z</time>
      </trkpt>
      <trkpt lat="45.95409" lon="4.75214">
        <ele>189</ele>
        <time>2018-08-22T08:26:51Z</time>
      </trkpt>
      <trkpt lat="45.95413" lon="4.75221">
        <ele>189</ele>
        <time>2018-08-22T08:26:52Z</time>
      </trkpt>
      <trkpt lat="45.95418" lon="4.75229">
        <ele>191</ele>
        <time>2018-08-22T08:26:53Z</time>
      </trkpt>
      <trkpt lat="45.95423" lon="4.75237">
        <ele>190</ele>
        <time>2018-08-22T08:26:54Z</time>
      </trkpt>
      <trkpt lat="45.95426" lon="4.75244">
        <ele>190</ele>
        <time>2018-08-22T08:26:55Z</time>
      </trkpt>
      <trkpt lat="45.9543" lon="4.75252">
        <ele>189</ele>
        <time>2018-08-22T08:26:56Z</time>
      </trkpt>
      <trkpt lat="45.95432" lon="4.75258">
        <ele>189</ele>
        <time>2018-08-22T08:26:57Z</time>
      </trkpt>
      <trkpt lat="45.95437" lon="4.75266">
        <ele>189</ele>
        <time>2018-08-22T08:26:58Z</time>
      </trkpt>
      <trkpt lat="45.9544" lon="4.75273">
        <ele>189</ele>
        <time>2018-08-22T08:26:59Z</time>
      </trkpt>
      <trkpt lat="45.95444" lon="4.75279">
        <ele>189</ele>
        <time>2018-08-22T08:27:00Z</time>
      </trkpt>
      <trkpt lat="45.95448" lon="4.75287">
        <ele>188</ele>
        <time>2018-08-22T08:27:01Z</time>
      </trkpt>
      <trkpt lat="45.95451" lon="4.75293">
        <ele>188</ele>
        <time>2018-08-22T08:27:02Z</time>
      </trkpt>
      <trkpt lat="45.95455" lon="4.753">
        <ele>188</ele>
        <time>2018-08-22T08:27:03Z</time>
      </trkpt>
      <trkpt lat="45.95459" lon="4.75305">
        <ele>188</ele>
        <time>2018-08-22T08:27:04Z</time>
      </trkpt>
      <trkpt lat="45.95463" lon="4.75313">
        <ele>188</ele>
        <time>2018-08-22T08:27:05Z</time>
      </trkpt>
      <trkpt lat="45.95466" lon="4.75322">
        <ele>188</ele>
        <time>2018-08-22T08:27:06Z</time>
      </trkpt>
      <trkpt lat="45.95471" lon="4.75331">
        <ele>188</ele>
        <time>2018-08-22T08:27:07Z</time>
      </trkpt>
      <trkpt lat="45.95474" lon="4.75337">
        <ele>186</ele>
        <time>2018-08-22T08:27:08Z</time>
      </trkpt>
      <trkpt lat="45.95477" lon="4.75345">
        <ele>186</ele>
        <time>2018-08-22T08:27:09Z</time>
      </trkpt>
      <trkpt lat="45.95483" lon="4.75354">
        <ele>186</ele>
        <time>2018-08-22T08:27:10Z</time>
      </trkpt>
      <trkpt lat="45.95487" lon="4.75362">
        <ele>186</ele>
        <time>2018-08-22T08:27:11Z</time>
      </trkpt>
      <trkpt lat="45.95491" lon="4.7537">
        <ele>185</ele>
        <time>2018-08-22T08:27:12Z</time>
      </trkpt>
      <trkpt lat="45.95494" lon="4.75379">
        <ele>185</ele>
        <time>2018-08-22T08:27:13Z</time>
      </trkpt>
      <trkpt lat="45.95498" lon="4.75386">
        <ele>185</ele>
        <time>2018-08-22T08:27:14Z</time>
      </trkpt>
      <trkpt lat="45.955" lon="4.75395">
        <ele>188</ele>
        <time>2018-08-22T08:27:15Z</time>
      </trkpt>
      <trkpt lat="45.95503" lon="4.75404">
        <ele>187</ele>
        <time>2018-08-22T08:27:16Z</time>
      </trkpt>
      <trkpt lat="45.95505" lon="4.75414">
        <ele>186</ele>
        <time>2018-08-22T08:27:17Z</time>
      </trkpt>
      <trkpt lat="45.95508" lon="4.75424">
        <ele>186</ele>
        <time>2018-08-22T08:27:18Z</time>
      </trkpt>
      <trkpt lat="45.9551" lon="4.75434">
        <ele>186</ele>
        <time>2018-08-22T08:27:19Z</time>
      </trkpt>
      <trkpt lat="45.9551" lon="4.75444">
        <ele>187</ele>
        <time>2018-08-22T08:27:20Z</time>
      </trkpt>
      <trkpt lat="45.9551" lon="4.75454">
        <ele>187</ele>
        <time>2018-08-22T08:27:21Z</time>
      </trkpt>
      <trkpt lat="45.9551" lon="4.75463">
        <ele>186</ele>
        <time>2018-08-22T08:27:22Z</time>
      </trkpt>
      <trkpt lat="45.9551" lon="4.75472">
        <ele>186</ele>
        <time>2018-08-22T08:27:23Z</time>
      </trkpt>
      <trkpt lat="45.9551" lon="4.75482">
        <ele>186</ele>
        <time>2018-08-22T08:27:24Z</time>
      </trkpt>
      <trkpt lat="45.95515" lon="4.7549">
        <ele>186</ele>
        <time>2018-08-22T08:27:25Z</time>
      </trkpt>
      <trkpt lat="45.9552" lon="4.75496">
        <ele>186</ele>
        <time>2018-08-22T08:27:26Z</time>
      </trkpt>
      <trkpt lat="45.95524" lon="4.75498">
        <ele>186</ele>
        <time>2018-08-22T08:27:27Z</time>
      </trkpt>
      <trkpt lat="45.95529" lon="4.75499">
        <ele>186</ele>
        <time>2018-08-22T08:27:28Z</time>
      </trkpt>
      <trkpt lat="45.95536" lon="4.75499">
        <ele>187</ele>
        <time>2018-08-22T08:27:29Z</time>
      </trkpt>
      <trkpt lat="45.9554" lon="4.755">
        <ele>187</ele>
        <time>2018-08-22T08:27:30Z</time>
      </trkpt>
      <trkpt lat="45.95542" lon="4.75481">
        <ele>187</ele>
        <time>2018-08-22T08:27:31Z</time>
      </trkpt>
      <trkpt lat="45.95544" lon="4.75472">
        <ele>187</ele>
        <time>2018-08-22T08:27:33Z</time>
      </trkpt>
      <trkpt lat="45.95548" lon="4.75464">
        <ele>188</ele>
        <time>2018-08-22T08:27:34Z</time>
      </trkpt>
      <trkpt lat="45.95556" lon="4.75458">
        <ele>188</ele>
        <time>2018-08-22T08:27:36Z</time>
      </trkpt>
      <trkpt lat="45.9556" lon="4.75456">
        <ele>188</ele>
        <time>2018-08-22T08:27:37Z</time>
      </trkpt>
      <trkpt lat="45.95565" lon="4.75453">
        <ele>188</ele>
        <time>2018-08-22T08:27:38Z</time>
      </trkpt>
      <trkpt lat="45.95569" lon="4.75451">
        <ele>189</ele>
        <time>2018-08-22T08:27:39Z</time>
      </trkpt>
      <trkpt lat="45.95573" lon="4.75446">
        <ele>189</ele>
        <time>2018-08-22T08:27:40Z</time>
      </trkpt>
      <trkpt lat="45.95577" lon="4.75443">
        <ele>189</ele>
        <time>2018-08-22T08:27:41Z</time>
      </trkpt>
      <trkpt lat="45.95583" lon="4.75438">
        <ele>190</ele>
        <time>2018-08-22T08:27:43Z</time>
      </trkpt>
      <trkpt lat="45.95587" lon="4.75435">
        <ele>192</ele>
        <time>2018-08-22T08:27:44Z</time>
      </trkpt>
      <trkpt lat="45.95592" lon="4.75432">
        <ele>192</ele>
        <time>2018-08-22T08:27:45Z</time>
      </trkpt>
      <trkpt lat="45.95596" lon="4.75429">
        <ele>192</ele>
        <time>2018-08-22T08:27:46Z</time>
      </trkpt>
      <trkpt lat="45.95601" lon="4.75425">
        <ele>192</ele>
        <time>2018-08-22T08:27:47Z</time>
      </trkpt>
      <trkpt lat="45.95604" lon="4.75423">
        <ele>192</ele>
        <time>2018-08-22T08:27:48Z</time>
      </trkpt>
      <trkpt lat="45.9561" lon="4.7542">
        <ele>192</ele>
        <time>2018-08-22T08:27:50Z</time>
      </trkpt>
      <trkpt lat="45.95614" lon="4.75416">
        <ele>193</ele>
        <time>2018-08-22T08:27:51Z</time>
      </trkpt>
      <trkpt lat="45.95622" lon="4.75413">
        <ele>193</ele>
        <time>2018-08-22T08:27:53Z</time>
      </trkpt>
      <trkpt lat="45.95623" lon="4.75413">
        <ele>193</ele>
        <time>2018-08-22T08:27:54Z</time>
      </trkpt>
      <trkpt lat="45.95626" lon="4.75411">
        <ele>193</ele>
        <time>2018-08-22T08:27:56Z</time>
      </trkpt>
      <trkpt lat="45.95634" lon="4.75403">
        <ele>193</ele>
        <time>2018-08-22T08:27:57Z</time>
      </trkpt>
      <trkpt lat="45.95637" lon="4.75401">
        <ele>193</ele>
        <time>2018-08-22T08:27:58Z</time>
      </trkpt>
      <trkpt lat="45.95642" lon="4.75394">
        <ele>193</ele>
        <time>2018-08-22T08:27:59Z</time>
      </trkpt>
      <trkpt lat="45.95648" lon="4.75387">
        <ele>193</ele>
        <time>2018-08-22T08:28:01Z</time>
      </trkpt>
      <trkpt lat="45.95652" lon="4.75384">
        <ele>193</ele>
        <time>2018-08-22T08:28:02Z</time>
      </trkpt>
      <trkpt lat="45.95659" lon="4.75379">
        <ele>193</ele>
        <time>2018-08-22T08:28:04Z</time>
      </trkpt>
      <trkpt lat="45.95664" lon="4.75375">
        <ele>193</ele>
        <time>2018-08-22T08:28:05Z</time>
      </trkpt>
      <trkpt lat="45.95669" lon="4.75372">
        <ele>193</ele>
        <time>2018-08-22T08:28:07Z</time>
      </trkpt>
      <trkpt lat="45.95674" lon="4.75368">
        <ele>193</ele>
        <time>2018-08-22T08:28:08Z</time>
      </trkpt>
      <trkpt lat="45.95679" lon="4.7536">
        <ele>193</ele>
        <time>2018-08-22T08:28:10Z</time>
      </trkpt>
      <trkpt lat="45.9568" lon="4.75358">
        <ele>193</ele>
        <time>2018-08-22T08:28:11Z</time>
      </trkpt>
      <trkpt lat="45.95685" lon="4.75354">
        <ele>193</ele>
        <time>2018-08-22T08:28:12Z</time>
      </trkpt>
      <trkpt lat="45.9569" lon="4.75348">
        <ele>193</ele>
        <time>2018-08-22T08:28:13Z</time>
      </trkpt>
      <trkpt lat="45.95695" lon="4.75342">
        <ele>193</ele>
        <time>2018-08-22T08:28:15Z</time>
      </trkpt>
      <trkpt lat="45.95701" lon="4.75338">
        <ele>193</ele>
        <time>2018-08-22T08:28:16Z</time>
      </trkpt>
      <trkpt lat="45.95707" lon="4.7533">
        <ele>193</ele>
        <time>2018-08-22T08:28:18Z</time>
      </trkpt>
      <trkpt lat="45.95711" lon="4.75327">
        <ele>193</ele>
        <time>2018-08-22T08:28:19Z</time>
      </trkpt>
      <trkpt lat="45.95718" lon="4.7532">
        <ele>193</ele>
        <time>2018-08-22T08:28:21Z</time>
      </trkpt>
      <trkpt lat="45.95721" lon="4.75317">
        <ele>193</ele>
        <time>2018-08-22T08:28:22Z</time>
      </trkpt>
      <trkpt lat="45.95726" lon="4.75314">
        <ele>193</ele>
        <time>2018-08-22T08:28:23Z</time>
      </trkpt>
      <trkpt lat="45.9573" lon="4.75311">
        <ele>193</ele>
        <time>2018-08-22T08:28:24Z</time>
      </trkpt>
      <trkpt lat="45.95734" lon="4.75308">
        <ele>193</ele>
        <time>2018-08-22T08:28:25Z</time>
      </trkpt>
      <trkpt lat="45.95738" lon="4.75302">
        <ele>193</ele>
        <time>2018-08-22T08:28:26Z</time>
      </trkpt>
      <trkpt lat="45.95742" lon="4.75298">
        <ele>193</ele>
        <time>2018-08-22T08:28:27Z</time>
      </trkpt>
      <trkpt lat="45.95746" lon="4.75293">
        <ele>193</ele>
        <time>2018-08-22T08:28:28Z</time>
      </trkpt>
      <trkpt lat="45.9575" lon="4.75289">
        <ele>193</ele>
        <time>2018-08-22T08:28:29Z</time>
      </trkpt>
      <trkpt lat="45.95754" lon="4.75285">
        <ele>193</ele>
        <time>2018-08-22T08:28:30Z</time>
      </trkpt>
      <trkpt lat="45.95758" lon="4.7528">
        <ele>193</ele>
        <time>2018-08-22T08:28:31Z</time>
      </trkpt>
      <trkpt lat="45.95762" lon="4.75274">
        <ele>193</ele>
        <time>2018-08-22T08:28:32Z</time>
      </trkpt>
      <trkpt lat="45.95767" lon="4.75269">
        <ele>193</ele>
        <time>2018-08-22T08:28:33Z</time>
      </trkpt>
      <trkpt lat="45.95772" lon="4.75265">
        <ele>193</ele>
        <time>2018-08-22T08:28:34Z</time>
      </trkpt>
      <trkpt lat="45.95776" lon="4.75261">
        <ele>193</ele>
        <time>2018-08-22T08:28:35Z</time>
      </trkpt>
      <trkpt lat="45.95781" lon="4.75254">
        <ele>193</ele>
        <time>2018-08-22T08:28:36Z</time>
      </trkpt>
      <trkpt lat="45.95786" lon="4.7525">
        <ele>193</ele>
        <time>2018-08-22T08:28:37Z</time>
      </trkpt>
      <trkpt lat="45.9579" lon="4.75245">
        <ele>193</ele>
        <time>2018-08-22T08:28:38Z</time>
      </trkpt>
      <trkpt lat="45.95794" lon="4.75239">
        <ele>193</ele>
        <time>2018-08-22T08:28:39Z</time>
      </trkpt>
      <trkpt lat="45.95799" lon="4.75234">
        <ele>193</ele>
        <time>2018-08-22T08:28:40Z</time>
      </trkpt>
      <trkpt lat="45.95803" lon="4.75229">
        <ele>193</ele>
        <time>2018-08-22T08:28:41Z</time>
      </trkpt>
      <trkpt lat="45.95807" lon="4.75224">
        <ele>193</ele>
        <time>2018-08-22T08:28:42Z</time>
      </trkpt>
      <trkpt lat="45.95811" lon="4.75219">
        <ele>193</ele>
        <time>2018-08-22T08:28:43Z</time>
      </trkpt>
      <trkpt lat="45.95814" lon="4.75212">
        <ele>193</ele>
        <time>2018-08-22T08:28:44Z</time>
      </trkpt>
      <trkpt lat="45.95818" lon="4.75206">
        <ele>193</ele>
        <time>2018-08-22T08:28:45Z</time>
      </trkpt>
      <trkpt lat="45.9582" lon="4.75201">
        <ele>193</ele>
        <time>2018-08-22T08:28:46Z</time>
      </trkpt>
      <trkpt lat="45.95826" lon="4.75194">
        <ele>193</ele>
        <time>2018-08-22T08:28:47Z</time>
      </trkpt>
      <trkpt lat="45.9583" lon="4.75188">
        <ele>192</ele>
        <time>2018-08-22T08:28:48Z</time>
      </trkpt>
      <trkpt lat="45.95834" lon="4.7518">
        <ele>193</ele>
        <time>2018-08-22T08:28:49Z</time>
      </trkpt>
      <trkpt lat="45.95838" lon="4.75176">
        <ele>193</ele>
        <time>2018-08-22T08:28:50Z</time>
      </trkpt>
      <trkpt lat="45.95842" lon="4.7517">
        <ele>192</ele>
        <time>2018-08-22T08:28:51Z</time>
      </trkpt>
      <trkpt lat="45.95846" lon="4.75164">
        <ele>192</ele>
        <time>2018-08-22T08:28:52Z</time>
      </trkpt>
      <trkpt lat="45.95851" lon="4.75157">
        <ele>191</ele>
        <time>2018-08-22T08:28:53Z</time>
      </trkpt>
      <trkpt lat="45.95854" lon="4.75152">
        <ele>191</ele>
        <time>2018-08-22T08:28:54Z</time>
      </trkpt>
      <trkpt lat="45.95858" lon="4.75146">
        <ele>191</ele>
        <time>2018-08-22T08:28:55Z</time>
      </trkpt>
      <trkpt lat="45.95863" lon="4.75141">
        <ele>191</ele>
        <time>2018-08-22T08:28:56Z</time>
      </trkpt>
      <trkpt lat="45.95866" lon="4.75137">
        <ele>191</ele>
        <time>2018-08-22T08:28:57Z</time>
      </trkpt>
      <trkpt lat="45.95871" lon="4.75133">
        <ele>191</ele>
        <time>2018-08-22T08:28:58Z</time>
      </trkpt>
      <trkpt lat="45.95876" lon="4.75128">
        <ele>191</ele>
        <time>2018-08-22T08:28:59Z</time>
      </trkpt>
      <trkpt lat="45.95882" lon="4.75124">
        <ele>191</ele>
        <time>2018-08-22T08:29:00Z</time>
      </trkpt>
      <trkpt lat="45.95889" lon="4.7512">
        <ele>191</ele>
        <time>2018-08-22T08:29:01Z</time>
      </trkpt>
      <trkpt lat="45.95895" lon="4.75115">
        <ele>191</ele>
        <time>2018-08-22T08:29:02Z</time>
      </trkpt>
      <trkpt lat="45.95902" lon="4.75114">
        <ele>191</ele>
        <time>2018-08-22T08:29:03Z</time>
      </trkpt>
      <trkpt lat="45.95907" lon="4.75111">
        <ele>191</ele>
        <time>2018-08-22T08:29:04Z</time>
      </trkpt>
      <trkpt lat="45.95913" lon="4.75104">
        <ele>191</ele>
        <time>2018-08-22T08:29:05Z</time>
      </trkpt>
      <trkpt lat="45.95919" lon="4.75101">
        <ele>192</ele>
        <time>2018-08-22T08:29:06Z</time>
      </trkpt>
      <trkpt lat="45.95925" lon="4.75096">
        <ele>192</ele>
        <time>2018-08-22T08:29:07Z</time>
      </trkpt>
      <trkpt lat="45.95932" lon="4.75095">
        <ele>192</ele>
        <time>2018-08-22T08:29:08Z</time>
      </trkpt>
      <trkpt lat="45.95942" lon="4.75088">
        <ele>192</ele>
        <time>2018-08-22T08:29:09Z</time>
      </trkpt>
      <trkpt lat="45.9595" lon="4.75088">
        <ele>193</ele>
        <time>2018-08-22T08:29:11Z</time>
      </trkpt>
      <trkpt lat="45.95958" lon="4.75092">
        <ele>193</ele>
        <time>2018-08-22T08:29:12Z</time>
      </trkpt>
      <trkpt lat="45.95966" lon="4.7508">
        <ele>191</ele>
        <time>2018-08-22T08:29:13Z</time>
      </trkpt>
      <trkpt lat="45.95971" lon="4.75079">
        <ele>191</ele>
        <time>2018-08-22T08:29:14Z</time>
      </trkpt>
      <trkpt lat="45.95976" lon="4.75077">
        <ele>192</ele>
        <time>2018-08-22T08:29:15Z</time>
      </trkpt>
      <trkpt lat="45.95986" lon="4.75066">
        <ele>192</ele>
        <time>2018-08-22T08:29:16Z</time>
      </trkpt>
      <trkpt lat="45.95995" lon="4.75061">
        <ele>192</ele>
        <time>2018-08-22T08:29:17Z</time>
      </trkpt>
      <trkpt lat="45.96002" lon="4.75058">
        <ele>191</ele>
        <time>2018-08-22T08:29:18Z</time>
      </trkpt>
      <trkpt lat="45.96007" lon="4.75058">
        <ele>191</ele>
        <time>2018-08-22T08:29:19Z</time>
      </trkpt>
      <trkpt lat="45.96011" lon="4.75057">
        <ele>190</ele>
        <time>2018-08-22T08:29:20Z</time>
      </trkpt>
      <trkpt lat="45.9602" lon="4.75052">
        <ele>190</ele>
        <time>2018-08-22T08:29:21Z</time>
      </trkpt>
      <trkpt lat="45.9603" lon="4.75048">
        <ele>189</ele>
        <time>2018-08-22T08:29:22Z</time>
      </trkpt>
      <trkpt lat="45.96039" lon="4.75043">
        <ele>189</ele>
        <time>2018-08-22T08:29:23Z</time>
      </trkpt>
      <trkpt lat="45.96047" lon="4.75041">
        <ele>188</ele>
        <time>2018-08-22T08:29:24Z</time>
      </trkpt>
      <trkpt lat="45.96054" lon="4.75041">
        <ele>188</ele>
        <time>2018-08-22T08:29:25Z</time>
      </trkpt>
      <trkpt lat="45.96061" lon="4.75043">
        <ele>188</ele>
        <time>2018-08-22T08:29:26Z</time>
      </trkpt>
      <trkpt lat="45.96068" lon="4.75043">
        <ele>188</ele>
        <time>2018-08-22T08:29:27Z</time>
      </trkpt>
      <trkpt lat="45.96073" lon="4.75047">
        <ele>188</ele>
        <time>2018-08-22T08:29:28Z</time>
      </trkpt>
      <trkpt lat="45.9608" lon="4.75053">
        <ele>188</ele>
        <time>2018-08-22T08:29:29Z</time>
      </trkpt>
      <trkpt lat="45.96086" lon="4.75058">
        <ele>184</ele>
        <time>2018-08-22T08:29:30Z</time>
      </trkpt>
      <trkpt lat="45.96094" lon="4.75059">
        <ele>184</ele>
        <time>2018-08-22T08:29:31Z</time>
      </trkpt>
      <trkpt lat="45.96098" lon="4.75066">
        <ele>185</ele>
        <time>2018-08-22T08:29:32Z</time>
      </trkpt>
      <trkpt lat="45.96103" lon="4.7507">
        <ele>184</ele>
        <time>2018-08-22T08:29:33Z</time>
      </trkpt>
      <trkpt lat="45.96109" lon="4.75076">
        <ele>184</ele>
        <time>2018-08-22T08:29:34Z</time>
      </trkpt>
      <trkpt lat="45.96111" lon="4.7508">
        <ele>184</ele>
        <time>2018-08-22T08:29:35Z</time>
      </trkpt>
      <trkpt lat="45.96118" lon="4.75087">
        <ele>189</ele>
        <time>2018-08-22T08:29:36Z</time>
      </trkpt>
      <trkpt lat="45.96121" lon="4.75095">
        <ele>189</ele>
        <time>2018-08-22T08:29:37Z</time>
      </trkpt>
      <trkpt lat="45.96126" lon="4.75105">
        <ele>189</ele>
        <time>2018-08-22T08:29:38Z</time>
      </trkpt>
      <trkpt lat="45.96131" lon="4.7511">
        <ele>189</ele>
        <time>2018-08-22T08:29:39Z</time>
      </trkpt>
      <trkpt lat="45.96136" lon="4.75115">
        <ele>189</ele>
        <time>2018-08-22T08:29:40Z</time>
      </trkpt>
      <trkpt lat="45.96142" lon="4.7512">
        <ele>189</ele>
        <time>2018-08-22T08:29:41Z</time>
      </trkpt>
      <trkpt lat="45.96147" lon="4.75124">
        <ele>190</ele>
        <time>2018-08-22T08:29:42Z</time>
      </trkpt>
      <trkpt lat="45.96152" lon="4.75129">
        <ele>190</ele>
        <time>2018-08-22T08:29:43Z</time>
      </trkpt>
      <trkpt lat="45.96157" lon="4.75135">
        <ele>191</ele>
        <time>2018-08-22T08:29:44Z</time>
      </trkpt>
      <trkpt lat="45.96162" lon="4.75139">
        <ele>191</ele>
        <time>2018-08-22T08:29:45Z</time>
      </trkpt>
      <trkpt lat="45.96167" lon="4.75143">
        <ele>187</ele>
        <time>2018-08-22T08:29:46Z</time>
      </trkpt>
      <trkpt lat="45.96174" lon="4.75146">
        <ele>188</ele>
        <time>2018-08-22T08:29:47Z</time>
      </trkpt>
      <trkpt lat="45.96181" lon="4.75152">
        <ele>188</ele>
        <time>2018-08-22T08:29:48Z</time>
      </trkpt>
      <trkpt lat="45.96188" lon="4.75155">
        <ele>187</ele>
        <time>2018-08-22T08:29:49Z</time>
      </trkpt>
      <trkpt lat="45.96195" lon="4.75159">
        <ele>186</ele>
        <time>2018-08-22T08:29:50Z</time>
      </trkpt>
      <trkpt lat="45.96204" lon="4.75165">
        <ele>185</ele>
        <time>2018-08-22T08:29:51Z</time>
      </trkpt>
      <trkpt lat="45.96211" lon="4.75169">
        <ele>193</ele>
        <time>2018-08-22T08:29:52Z</time>
      </trkpt>
      <trkpt lat="45.9622" lon="4.75173">
        <ele>192</ele>
        <time>2018-08-22T08:29:53Z</time>
      </trkpt>
      <trkpt lat="45.96225" lon="4.75177">
        <ele>191</ele>
        <time>2018-08-22T08:29:54Z</time>
      </trkpt>
      <trkpt lat="45.96232" lon="4.7518">
        <ele>190</ele>
        <time>2018-08-22T08:29:55Z</time>
      </trkpt>
      <trkpt lat="45.96241" lon="4.75186">
        <ele>190</ele>
        <time>2018-08-22T08:29:56Z</time>
      </trkpt>
      <trkpt lat="45.96247" lon="4.75196">
        <ele>191</ele>
        <time>2018-08-22T08:29:57Z</time>
      </trkpt>
      <trkpt lat="45.96254" lon="4.75201">
        <ele>186</ele>
        <time>2018-08-22T08:29:58Z</time>
      </trkpt>
      <trkpt lat="45.96264" lon="4.75204">
        <ele>186</ele>
        <time>2018-08-22T08:29:59Z</time>
      </trkpt>
      <trkpt lat="45.96275" lon="4.75204">
        <ele>185</ele>
        <time>2018-08-22T08:30:00Z</time>
      </trkpt>
      <trkpt lat="45.96283" lon="4.75207">
        <ele>185</ele>
        <time>2018-08-22T08:30:01Z</time>
      </trkpt>
      <trkpt lat="45.96294" lon="4.75207">
        <ele>184</ele>
        <time>2018-08-22T08:30:02Z</time>
      </trkpt>
      <trkpt lat="45.96297" lon="4.75214">
        <ele>185</ele>
        <time>2018-08-22T08:30:03Z</time>
      </trkpt>
      <trkpt lat="45.96308" lon="4.75217">
        <ele>185</ele>
        <time>2018-08-22T08:30:04Z</time>
      </trkpt>
      <trkpt lat="45.96317" lon="4.75222">
        <ele>185</ele>
        <time>2018-08-22T08:30:05Z</time>
      </trkpt>
      <trkpt lat="45.96323" lon="4.75223">
        <ele>185</ele>
        <time>2018-08-22T08:30:06Z</time>
      </trkpt>
      <trkpt lat="45.96331" lon="4.75228">
        <ele>186</ele>
        <time>2018-08-22T08:30:07Z</time>
      </trkpt>
      <trkpt lat="45.9634" lon="4.75227">
        <ele>181</ele>
        <time>2018-08-22T08:30:08Z</time>
      </trkpt>
      <trkpt lat="45.96347" lon="4.75233">
        <ele>182</ele>
        <time>2018-08-22T08:30:09Z</time>
      </trkpt>
      <trkpt lat="45.96355" lon="4.75235">
        <ele>181</ele>
        <time>2018-08-22T08:30:10Z</time>
      </trkpt>
      <trkpt lat="45.96361" lon="4.75239">
        <ele>181</ele>
        <time>2018-08-22T08:30:11Z</time>
      </trkpt>
      <trkpt lat="45.96371" lon="4.75243">
        <ele>180</ele>
        <time>2018-08-22T08:30:12Z</time>
      </trkpt>
      <trkpt lat="45.96378" lon="4.75247">
        <ele>180</ele>
        <time>2018-08-22T08:30:13Z</time>
      </trkpt>
      <trkpt lat="45.96388" lon="4.75247">
        <ele>180</ele>
        <time>2018-08-22T08:30:14Z</time>
      </trkpt>
      <trkpt lat="45.96394" lon="4.75254">
        <ele>190</ele>
        <time>2018-08-22T08:30:15Z</time>
      </trkpt>
      <trkpt lat="45.96408" lon="4.75258">
        <ele>187</ele>
        <time>2018-08-22T08:30:16Z</time>
      </trkpt>
      <trkpt lat="45.96416" lon="4.75261">
        <ele>187</ele>
        <time>2018-08-22T08:30:17Z</time>
      </trkpt>
      <trkpt lat="45.96423" lon="4.75265">
        <ele>184</ele>
        <time>2018-08-22T08:30:18Z</time>
      </trkpt>
      <trkpt lat="45.96431" lon="4.75271">
        <ele>185</ele>
        <time>2018-08-22T08:30:19Z</time>
      </trkpt>
      <trkpt lat="45.96438" lon="4.75275">
        <ele>186</ele>
        <time>2018-08-22T08:30:20Z</time>
      </trkpt>
      <trkpt lat="45.96448" lon="4.75277">
        <ele>185</ele>
        <time>2018-08-22T08:30:21Z</time>
      </trkpt>
      <trkpt lat="45.96454" lon="4.7528">
        <ele>185</ele>
        <time>2018-08-22T08:30:22Z</time>
      </trkpt>
      <trkpt lat="45.96464" lon="4.75283">
        <ele>185</ele>
        <time>2018-08-22T08:30:23Z</time>
      </trkpt>
      <trkpt lat="45.96473" lon="4.75284">
        <ele>184</ele>
        <time>2018-08-22T08:30:24Z</time>
      </trkpt>
      <trkpt lat="45.9648" lon="4.75289">
        <ele>184</ele>
        <time>2018-08-22T08:30:25Z</time>
      </trkpt>
      <trkpt lat="45.96488" lon="4.75293">
        <ele>184</ele>
        <time>2018-08-22T08:30:26Z</time>
      </trkpt>
      <trkpt lat="45.96496" lon="4.75296">
        <ele>184</ele>
        <time>2018-08-22T08:30:27Z</time>
      </trkpt>
      <trkpt lat="45.96502" lon="4.75301">
        <ele>178</ele>
        <time>2018-08-22T08:30:28Z</time>
      </trkpt>
      <trkpt lat="45.96508" lon="4.75307">
        <ele>179</ele>
        <time>2018-08-22T08:30:29Z</time>
      </trkpt>
      <trkpt lat="45.96515" lon="4.75308">
        <ele>178</ele>
        <time>2018-08-22T08:30:30Z</time>
      </trkpt>
      <trkpt lat="45.96524" lon="4.75314">
        <ele>178</ele>
        <time>2018-08-22T08:30:31Z</time>
      </trkpt>
      <trkpt lat="45.96533" lon="4.75323">
        <ele>178</ele>
        <time>2018-08-22T08:30:32Z</time>
      </trkpt>
      <trkpt lat="45.96541" lon="4.75328">
        <ele>177</ele>
        <time>2018-08-22T08:30:33Z</time>
      </trkpt>
      <trkpt lat="45.96547" lon="4.75335">
        <ele>189</ele>
        <time>2018-08-22T08:30:34Z</time>
      </trkpt>
      <trkpt lat="45.96552" lon="4.75343">
        <ele>188</ele>
        <time>2018-08-22T08:30:35Z</time>
      </trkpt>
      <trkpt lat="45.96561" lon="4.75343">
        <ele>187</ele>
        <time>2018-08-22T08:30:36Z</time>
      </trkpt>
      <trkpt lat="45.96569" lon="4.75346">
        <ele>185</ele>
        <time>2018-08-22T08:30:37Z</time>
      </trkpt>
      <trkpt lat="45.96575" lon="4.75352">
        <ele>186</ele>
        <time>2018-08-22T08:30:38Z</time>
      </trkpt>
      <trkpt lat="45.9658" lon="4.75356">
        <ele>187</ele>
        <time>2018-08-22T08:30:39Z</time>
      </trkpt>
      <trkpt lat="45.96585" lon="4.7536">
        <ele>180</ele>
        <time>2018-08-22T08:30:40Z</time>
      </trkpt>
      <trkpt lat="45.96591" lon="4.75365">
        <ele>180</ele>
        <time>2018-08-22T08:30:41Z</time>
      </trkpt>
      <trkpt lat="45.96601" lon="4.75366">
        <ele>180</ele>
        <time>2018-08-22T08:30:42Z</time>
      </trkpt>
      <trkpt lat="45.96606" lon="4.75374">
        <ele>181</ele>
        <time>2018-08-22T08:30:43Z</time>
      </trkpt>
      <trkpt lat="45.96612" lon="4.7538">
        <ele>181</ele>
        <time>2018-08-22T08:30:44Z</time>
      </trkpt>
      <trkpt lat="45.9662" lon="4.75384">
        <ele>181</ele>
        <time>2018-08-22T08:30:45Z</time>
      </trkpt>
      <trkpt lat="45.96628" lon="4.75386">
        <ele>180</ele>
        <time>2018-08-22T08:30:46Z</time>
      </trkpt>
      <trkpt lat="45.96635" lon="4.7539">
        <ele>180</ele>
        <time>2018-08-22T08:30:47Z</time>
      </trkpt>
      <trkpt lat="45.96642" lon="4.75396">
        <ele>179</ele>
        <time>2018-08-22T08:30:48Z</time>
      </trkpt>
      <trkpt lat="45.96649" lon="4.75401">
        <ele>178</ele>
        <time>2018-08-22T08:30:49Z</time>
      </trkpt>
      <trkpt lat="45.96657" lon="4.75404">
        <ele>178</ele>
        <time>2018-08-22T08:30:50Z</time>
      </trkpt>
      <trkpt lat="45.96661" lon="4.7541">
        <ele>177</ele>
        <time>2018-08-22T08:30:51Z</time>
      </trkpt>
      <trkpt lat="45.96669" lon="4.75413">
        <ele>175</ele>
        <time>2018-08-22T08:30:52Z</time>
      </trkpt>
      <trkpt lat="45.96676" lon="4.75418">
        <ele>178</ele>
        <time>2018-08-22T08:30:53Z</time>
      </trkpt>
      <trkpt lat="45.96682" lon="4.75423">
        <ele>179</ele>
        <time>2018-08-22T08:30:54Z</time>
      </trkpt>
      <trkpt lat="45.96689" lon="4.75428">
        <ele>180</ele>
        <time>2018-08-22T08:30:55Z</time>
      </trkpt>
      <trkpt lat="45.96696" lon="4.75432">
        <ele>180</ele>
        <time>2018-08-22T08:30:56Z</time>
      </trkpt>
      <trkpt lat="45.96703" lon="4.75438">
        <ele>180</ele>
        <time>2018-08-22T08:30:57Z</time>
      </trkpt>
      <trkpt lat="45.96709" lon="4.75439">
        <ele>180</ele>
        <time>2018-08-22T08:30:58Z</time>
      </trkpt>
      <trkpt lat="45.9672" lon="4.75438">
        <ele>179</ele>
        <time>2018-08-22T08:30:59Z</time>
      </trkpt>
      <trkpt lat="45.96727" lon="4.75444">
        <ele>179</ele>
        <time>2018-08-22T08:31:00Z</time>
      </trkpt>
      <trkpt lat="45.96735" lon="4.75448">
        <ele>179</ele>
        <time>2018-08-22T08:31:01Z</time>
      </trkpt>
      <trkpt lat="45.9674" lon="4.75455">
        <ele>180</ele>
        <time>2018-08-22T08:31:02Z</time>
      </trkpt>
      <trkpt lat="45.96747" lon="4.75457">
        <ele>180</ele>
        <time>2018-08-22T08:31:03Z</time>
      </trkpt>
      <trkpt lat="45.9675" lon="4.75461">
        <ele>174</ele>
        <time>2018-08-22T08:31:04Z</time>
      </trkpt>
      <trkpt lat="45.96762" lon="4.75463">
        <ele>175</ele>
        <time>2018-08-22T08:31:05Z</time>
      </trkpt>
      <trkpt lat="45.96782" lon="4.7546">
        <ele>174</ele>
        <time>2018-08-22T08:31:06Z</time>
      </trkpt>
      <trkpt lat="45.96784" lon="4.75467">
        <ele>174</ele>
        <time>2018-08-22T08:31:08Z</time>
      </trkpt>
      <trkpt lat="45.96791" lon="4.75474">
        <ele>174</ele>
        <time>2018-08-22T08:31:09Z</time>
      </trkpt>
      <trkpt lat="45.968" lon="4.75474">
        <ele>174</ele>
        <time>2018-08-22T08:31:11Z</time>
      </trkpt>
      <trkpt lat="45.96807" lon="4.75478">
        <ele>174</ele>
        <time>2018-08-22T08:31:12Z</time>
      </trkpt>
      <trkpt lat="45.96814" lon="4.75477">
        <ele>173</ele>
        <time>2018-08-22T08:31:13Z</time>
      </trkpt>
      <trkpt lat="45.96819" lon="4.75484">
        <ele>174</ele>
        <time>2018-08-22T08:31:14Z</time>
      </trkpt>
      <trkpt lat="45.96827" lon="4.75488">
        <ele>174</ele>
        <time>2018-08-22T08:31:15Z</time>
      </trkpt>
      <trkpt lat="45.96832" lon="4.75491">
        <ele>174</ele>
        <time>2018-08-22T08:31:16Z</time>
      </trkpt>
      <trkpt lat="45.96839" lon="4.75494">
        <ele>173</ele>
        <time>2018-08-22T08:31:17Z</time>
      </trkpt>
      <trkpt lat="45.96845" lon="4.75498">
        <ele>172</ele>
        <time>2018-08-22T08:31:18Z</time>
      </trkpt>
      <trkpt lat="45.96852" lon="4.75499">
        <ele>172</ele>
        <time>2018-08-22T08:31:19Z</time>
      </trkpt>
      <trkpt lat="45.96857" lon="4.75502">
        <ele>178</ele>
        <time>2018-08-22T08:31:20Z</time>
      </trkpt>
      <trkpt lat="45.96863" lon="4.75506">
        <ele>178</ele>
        <time>2018-08-22T08:31:21Z</time>
      </trkpt>
      <trkpt lat="45.96869" lon="4.75508">
        <ele>179</ele>
        <time>2018-08-22T08:31:22Z</time>
      </trkpt>
      <trkpt lat="45.96875" lon="4.7551">
        <ele>179</ele>
        <time>2018-08-22T08:31:23Z</time>
      </trkpt>
      <trkpt lat="45.96881" lon="4.75514">
        <ele>179</ele>
        <time>2018-08-22T08:31:24Z</time>
      </trkpt>
      <trkpt lat="45.96887" lon="4.75516">
        <ele>179</ele>
        <time>2018-08-22T08:31:25Z</time>
      </trkpt>
      <trkpt lat="45.96894" lon="4.75519">
        <ele>178</ele>
        <time>2018-08-22T08:31:26Z</time>
      </trkpt>
      <trkpt lat="45.969" lon="4.75521">
        <ele>178</ele>
        <time>2018-08-22T08:31:27Z</time>
      </trkpt>
      <trkpt lat="45.96907" lon="4.75523">
        <ele>178</ele>
        <time>2018-08-22T08:31:28Z</time>
      </trkpt>
      <trkpt lat="45.96914" lon="4.75525">
        <ele>178</ele>
        <time>2018-08-22T08:31:29Z</time>
      </trkpt>
      <trkpt lat="45.9692" lon="4.75528">
        <ele>175</ele>
        <time>2018-08-22T08:31:30Z</time>
      </trkpt>
      <trkpt lat="45.96927" lon="4.75531">
        <ele>175</ele>
        <time>2018-08-22T08:31:31Z</time>
      </trkpt>
      <trkpt lat="45.96932" lon="4.75536">
        <ele>175</ele>
        <time>2018-08-22T08:31:32Z</time>
      </trkpt>
      <trkpt lat="45.96939" lon="4.75538">
        <ele>175</ele>
        <time>2018-08-22T08:31:33Z</time>
      </trkpt>
      <trkpt lat="45.96946" lon="4.75539">
        <ele>175</ele>
        <time>2018-08-22T08:31:34Z</time>
      </trkpt>
      <trkpt lat="45.96952" lon="4.75541">
        <ele>175</ele>
        <time>2018-08-22T08:31:35Z</time>
      </trkpt>
      <trkpt lat="45.96957" lon="4.75543">
        <ele>175</ele>
        <time>2018-08-22T08:31:36Z</time>
      </trkpt>
      <trkpt lat="45.96964" lon="4.75543">
        <ele>175</ele>
        <time>2018-08-22T08:31:37Z</time>
      </trkpt>
      <trkpt lat="45.96971" lon="4.75546">
        <ele>175</ele>
        <time>2018-08-22T08:31:38Z</time>
      </trkpt>
      <trkpt lat="45.96976" lon="4.75549">
        <ele>175</ele>
        <time>2018-08-22T08:31:39Z</time>
      </trkpt>
      <trkpt lat="45.96983" lon="4.75549">
        <ele>175</ele>
        <time>2018-08-22T08:31:40Z</time>
      </trkpt>
      <trkpt lat="45.96989" lon="4.75553">
        <ele>176</ele>
        <time>2018-08-22T08:31:41Z</time>
      </trkpt>
      <trkpt lat="45.96994" lon="4.75556">
        <ele>176</ele>
        <time>2018-08-22T08:31:42Z</time>
      </trkpt>
      <trkpt lat="45.97001" lon="4.75559">
        <ele>174</ele>
        <time>2018-08-22T08:31:43Z</time>
      </trkpt>
      <trkpt lat="45.97005" lon="4.75564">
        <ele>175</ele>
        <time>2018-08-22T08:31:44Z</time>
      </trkpt>
      <trkpt lat="45.97009" lon="4.75568">
        <ele>176</ele>
        <time>2018-08-22T08:31:45Z</time>
      </trkpt>
      <trkpt lat="45.97016" lon="4.7557">
        <ele>175</ele>
        <time>2018-08-22T08:31:46Z</time>
      </trkpt>
      <trkpt lat="45.97023" lon="4.75571">
        <ele>175</ele>
        <time>2018-08-22T08:31:47Z</time>
      </trkpt>
      <trkpt lat="45.97028" lon="4.75573">
        <ele>174</ele>
        <time>2018-08-22T08:31:48Z</time>
      </trkpt>
      <trkpt lat="45.97036" lon="4.75574">
        <ele>174</ele>
        <time>2018-08-22T08:31:49Z</time>
      </trkpt>
      <trkpt lat="45.97039" lon="4.75575">
        <ele>174</ele>
        <time>2018-08-22T08:31:50Z</time>
      </trkpt>
      <trkpt lat="45.97046" lon="4.75572">
        <ele>173</ele>
        <time>2018-08-22T08:31:51Z</time>
      </trkpt>
      <trkpt lat="45.97051" lon="4.7557">
        <ele>173</ele>
        <time>2018-08-22T08:31:52Z</time>
      </trkpt>
      <trkpt lat="45.97057" lon="4.75577">
        <ele>173</ele>
        <time>2018-08-22T08:31:53Z</time>
      </trkpt>
      <trkpt lat="45.97061" lon="4.7558">
        <ele>174</ele>
        <time>2018-08-22T08:31:54Z</time>
      </trkpt>
      <trkpt lat="45.97069" lon="4.7559">
        <ele>179</ele>
        <time>2018-08-22T08:31:55Z</time>
      </trkpt>
      <trkpt lat="45.97073" lon="4.75595">
        <ele>179</ele>
        <time>2018-08-22T08:31:56Z</time>
      </trkpt>
      <trkpt lat="45.97082" lon="4.75598">
        <ele>178</ele>
        <time>2018-08-22T08:31:57Z</time>
      </trkpt>
      <trkpt lat="45.97088" lon="4.75599">
        <ele>176</ele>
        <time>2018-08-22T08:31:58Z</time>
      </trkpt>
      <trkpt lat="45.97096" lon="4.75602">
        <ele>176</ele>
        <time>2018-08-22T08:31:59Z</time>
      </trkpt>
      <trkpt lat="45.97101" lon="4.75605">
        <ele>176</ele>
        <time>2018-08-22T08:32:00Z</time>
      </trkpt>
      <trkpt lat="45.97106" lon="4.75607">
        <ele>176</ele>
        <time>2018-08-22T08:32:01Z</time>
      </trkpt>
      <trkpt lat="45.97111" lon="4.7561">
        <ele>176</ele>
        <time>2018-08-22T08:32:02Z</time>
      </trkpt>
      <trkpt lat="45.97118" lon="4.75609">
        <ele>176</ele>
        <time>2018-08-22T08:32:03Z</time>
      </trkpt>
      <trkpt lat="45.97125" lon="4.75612">
        <ele>176</ele>
        <time>2018-08-22T08:32:04Z</time>
      </trkpt>
      <trkpt lat="45.9713" lon="4.75615">
        <ele>176</ele>
        <time>2018-08-22T08:32:05Z</time>
      </trkpt>
      <trkpt lat="45.97136" lon="4.75619">
        <ele>176</ele>
        <time>2018-08-22T08:32:06Z</time>
      </trkpt>
      <trkpt lat="45.9714" lon="4.75623">
        <ele>176</ele>
        <time>2018-08-22T08:32:07Z</time>
      </trkpt>
      <trkpt lat="45.97145" lon="4.75626">
        <ele>176</ele>
        <time>2018-08-22T08:32:08Z</time>
      </trkpt>
      <trkpt lat="45.97151" lon="4.75628">
        <ele>176</ele>
        <time>2018-08-22T08:32:09Z</time>
      </trkpt>
      <trkpt lat="45.97156" lon="4.75631">
        <ele>176</ele>
        <time>2018-08-22T08:32:10Z</time>
      </trkpt>
      <trkpt lat="45.97161" lon="4.75634">
        <ele>176</ele>
        <time>2018-08-22T08:32:11Z</time>
      </trkpt>
      <trkpt lat="45.97169" lon="4.75635">
        <ele>174</ele>
        <time>2018-08-22T08:32:12Z</time>
      </trkpt>
      <trkpt lat="45.97176" lon="4.75636">
        <ele>174</ele>
        <time>2018-08-22T08:32:13Z</time>
      </trkpt>
      <trkpt lat="45.97181" lon="4.7564">
        <ele>174</ele>
        <time>2018-08-22T08:32:14Z</time>
      </trkpt>
      <trkpt lat="45.97186" lon="4.7564">
        <ele>174</ele>
        <time>2018-08-22T08:32:15Z</time>
      </trkpt>
      <trkpt lat="45.97192" lon="4.75643">
        <ele>174</ele>
        <time>2018-08-22T08:32:16Z</time>
      </trkpt>
      <trkpt lat="45.97198" lon="4.75646">
        <ele>174</ele>
        <time>2018-08-22T08:32:17Z</time>
      </trkpt>
      <trkpt lat="45.97203" lon="4.75648">
        <ele>173</ele>
        <time>2018-08-22T08:32:18Z</time>
      </trkpt>
      <trkpt lat="45.97208" lon="4.7565">
        <ele>173</ele>
        <time>2018-08-22T08:32:19Z</time>
      </trkpt>
      <trkpt lat="45.97213" lon="4.75653">
        <ele>173</ele>
        <time>2018-08-22T08:32:20Z</time>
      </trkpt>
      <trkpt lat="45.97219" lon="4.75655">
        <ele>173</ele>
        <time>2018-08-22T08:32:21Z</time>
      </trkpt>
      <trkpt lat="45.97226" lon="4.75657">
        <ele>173</ele>
        <time>2018-08-22T08:32:22Z</time>
      </trkpt>
      <trkpt lat="45.9723" lon="4.7566">
        <ele>173</ele>
        <time>2018-08-22T08:32:23Z</time>
      </trkpt>
      <trkpt lat="45.97236" lon="4.75663">
        <ele>173</ele>
        <time>2018-08-22T08:32:24Z</time>
      </trkpt>
      <trkpt lat="45.97241" lon="4.75665">
        <ele>174</ele>
        <time>2018-08-22T08:32:25Z</time>
      </trkpt>
      <trkpt lat="45.97246" lon="4.75668">
        <ele>175</ele>
        <time>2018-08-22T08:32:26Z</time>
      </trkpt>
      <trkpt lat="45.97251" lon="4.7567">
        <ele>174</ele>
        <time>2018-08-22T08:32:27Z</time>
      </trkpt>
      <trkpt lat="45.97256" lon="4.75672">
        <ele>175</ele>
        <time>2018-08-22T08:32:28Z</time>
      </trkpt>
      <trkpt lat="45.97262" lon="4.75674">
        <ele>175</ele>
        <time>2018-08-22T08:32:29Z</time>
      </trkpt>
      <trkpt lat="45.97269" lon="4.75674">
        <ele>176</ele>
        <time>2018-08-22T08:32:30Z</time>
      </trkpt>
      <trkpt lat="45.97276" lon="4.75675">
        <ele>176</ele>
        <time>2018-08-22T08:32:31Z</time>
      </trkpt>
      <trkpt lat="45.9728" lon="4.75679">
        <ele>176</ele>
        <time>2018-08-22T08:32:32Z</time>
      </trkpt>
      <trkpt lat="45.97283" lon="4.75683">
        <ele>176</ele>
        <time>2018-08-22T08:32:33Z</time>
      </trkpt>
      <trkpt lat="45.9729" lon="4.75684">
        <ele>176</ele>
        <time>2018-08-22T08:32:34Z</time>
      </trkpt>
      <trkpt lat="45.97297" lon="4.75683">
        <ele>177</ele>
        <time>2018-08-22T08:32:35Z</time>
      </trkpt>
      <trkpt lat="45.973" lon="4.75687">
        <ele>177</ele>
        <time>2018-08-22T08:32:36Z</time>
      </trkpt>
      <trkpt lat="45.97308" lon="4.75685">
        <ele>177</ele>
        <time>2018-08-22T08:32:37Z</time>
      </trkpt>
      <trkpt lat="45.97316" lon="4.75683">
        <ele>177</ele>
        <time>2018-08-22T08:32:38Z</time>
      </trkpt>
      <trkpt lat="45.97323" lon="4.75683">
        <ele>177</ele>
        <time>2018-08-22T08:32:39Z</time>
      </trkpt>
      <trkpt lat="45.97329" lon="4.75683">
        <ele>177</ele>
        <time>2018-08-22T08:32:40Z</time>
      </trkpt>
      <trkpt lat="45.97333" lon="4.75686">
        <ele>177</ele>
        <time>2018-08-22T08:32:41Z</time>
      </trkpt>
      <trkpt lat="45.97338" lon="4.75687">
        <ele>175</ele>
        <time>2018-08-22T08:32:42Z</time>
      </trkpt>
      <trkpt lat="45.97344" lon="4.75689">
        <ele>175</ele>
        <time>2018-08-22T08:32:43Z</time>
      </trkpt>
      <trkpt lat="45.9735" lon="4.75688">
        <ele>175</ele>
        <time>2018-08-22T08:32:44Z</time>
      </trkpt>
      <trkpt lat="45.97357" lon="4.75686">
        <ele>175</ele>
        <time>2018-08-22T08:32:45Z</time>
      </trkpt>
      <trkpt lat="45.97364" lon="4.75684">
        <ele>174</ele>
        <time>2018-08-22T08:32:46Z</time>
      </trkpt>
      <trkpt lat="45.9737" lon="4.75685">
        <ele>174</ele>
        <time>2018-08-22T08:32:47Z</time>
      </trkpt>
      <trkpt lat="45.97376" lon="4.75685">
        <ele>174</ele>
        <time>2018-08-22T08:32:48Z</time>
      </trkpt>
      <trkpt lat="45.97382" lon="4.75684">
        <ele>173</ele>
        <time>2018-08-22T08:32:49Z</time>
      </trkpt>
      <trkpt lat="45.97389" lon="4.75682">
        <ele>173</ele>
        <time>2018-08-22T08:32:50Z</time>
      </trkpt>
      <trkpt lat="45.97394" lon="4.75683">
        <ele>172</ele>
        <time>2018-08-22T08:32:51Z</time>
      </trkpt>
      <trkpt lat="45.97399" lon="4.75684">
        <ele>172</ele>
        <time>2018-08-22T08:32:52Z</time>
      </trkpt>
      <trkpt lat="45.97404" lon="4.75687">
        <ele>172</ele>
        <time>2018-08-22T08:32:53Z</time>
      </trkpt>
      <trkpt lat="45.97411" lon="4.75685">
        <ele>172</ele>
        <time>2018-08-22T08:32:54Z</time>
      </trkpt>
      <trkpt lat="45.97417" lon="4.75685">
        <ele>170</ele>
        <time>2018-08-22T08:32:55Z</time>
      </trkpt>
      <trkpt lat="45.97423" lon="4.75686">
        <ele>170</ele>
        <time>2018-08-22T08:32:56Z</time>
      </trkpt>
      <trkpt lat="45.97428" lon="4.75689">
        <ele>170</ele>
        <time>2018-08-22T08:32:57Z</time>
      </trkpt>
      <trkpt lat="45.97434" lon="4.75689">
        <ele>170</ele>
        <time>2018-08-22T08:32:58Z</time>
      </trkpt>
      <trkpt lat="45.97441" lon="4.75688">
        <ele>170</ele>
        <time>2018-08-22T08:32:59Z</time>
      </trkpt>
      <trkpt lat="45.97447" lon="4.75687">
        <ele>171</ele>
        <time>2018-08-22T08:33:00Z</time>
      </trkpt>
      <trkpt lat="45.97454" lon="4.75687">
        <ele>171</ele>
        <time>2018-08-22T08:33:01Z</time>
      </trkpt>
      <trkpt lat="45.9746" lon="4.75687">
        <ele>171</ele>
        <time>2018-08-22T08:33:02Z</time>
      </trkpt>
      <trkpt lat="45.97466" lon="4.75687">
        <ele>171</ele>
        <time>2018-08-22T08:33:03Z</time>
      </trkpt>
      <trkpt lat="45.97472" lon="4.75686">
        <ele>171</ele>
        <time>2018-08-22T08:33:04Z</time>
      </trkpt>
      <trkpt lat="45.97477" lon="4.75686">
        <ele>171</ele>
        <time>2018-08-22T08:33:05Z</time>
      </trkpt>
      <trkpt lat="45.97483" lon="4.75685">
        <ele>171</ele>
        <time>2018-08-22T08:33:06Z</time>
      </trkpt>
      <trkpt lat="45.9749" lon="4.75685">
        <ele>171</ele>
        <time>2018-08-22T08:33:07Z</time>
      </trkpt>
      <trkpt lat="45.97496" lon="4.75683">
        <ele>171</ele>
        <time>2018-08-22T08:33:08Z</time>
      </trkpt>
      <trkpt lat="45.97502" lon="4.7568">
        <ele>171</ele>
        <time>2018-08-22T08:33:09Z</time>
      </trkpt>
      <trkpt lat="45.97508" lon="4.7568">
        <ele>171</ele>
        <time>2018-08-22T08:33:10Z</time>
      </trkpt>
      <trkpt lat="45.97513" lon="4.75681">
        <ele>171</ele>
        <time>2018-08-22T08:33:11Z</time>
      </trkpt>
      <trkpt lat="45.97517" lon="4.75675">
        <ele>171</ele>
        <time>2018-08-22T08:33:12Z</time>
      </trkpt>
      <trkpt lat="45.97524" lon="4.75671">
        <ele>171</ele>
        <time>2018-08-22T08:33:13Z</time>
      </trkpt>
      <trkpt lat="45.9753" lon="4.75665">
        <ele>169</ele>
        <time>2018-08-22T08:33:14Z</time>
      </trkpt>
      <trkpt lat="45.97533" lon="4.75663">
        <ele>169</ele>
        <time>2018-08-22T08:33:15Z</time>
      </trkpt>
      <trkpt lat="45.97538" lon="4.75666">
        <ele>169</ele>
        <time>2018-08-22T08:33:16Z</time>
      </trkpt>
      <trkpt lat="45.97543" lon="4.75666">
        <ele>169</ele>
        <time>2018-08-22T08:33:17Z</time>
      </trkpt>
      <trkpt lat="45.97548" lon="4.75671">
        <ele>171</ele>
        <time>2018-08-22T08:33:18Z</time>
      </trkpt>
      <trkpt lat="45.97552" lon="4.75675">
        <ele>171</ele>
        <time>2018-08-22T08:33:19Z</time>
      </trkpt>
      <trkpt lat="45.97556" lon="4.75685">
        <ele>171</ele>
        <time>2018-08-22T08:33:20Z</time>
      </trkpt>
      <trkpt lat="45.97558" lon="4.75688">
        <ele>172</ele>
        <time>2018-08-22T08:33:21Z</time>
      </trkpt>
      <trkpt lat="45.97566" lon="4.75694">
        <ele>172</ele>
        <time>2018-08-22T08:33:22Z</time>
      </trkpt>
      <trkpt lat="45.97569" lon="4.75696">
        <ele>172</ele>
        <time>2018-08-22T08:33:23Z</time>
      </trkpt>
      <trkpt lat="45.97573" lon="4.75695">
        <ele>172</ele>
        <time>2018-08-22T08:33:24Z</time>
      </trkpt>
      <trkpt lat="45.9758" lon="4.75689">
        <ele>171</ele>
        <time>2018-08-22T08:33:25Z</time>
      </trkpt>
      <trkpt lat="45.97585" lon="4.75687">
        <ele>171</ele>
        <time>2018-08-22T08:33:26Z</time>
      </trkpt>
      <trkpt lat="45.97591" lon="4.75686">
        <ele>171</ele>
        <time>2018-08-22T08:33:27Z</time>
      </trkpt>
      <trkpt lat="45.97596" lon="4.75684">
        <ele>171</ele>
        <time>2018-08-22T08:33:28Z</time>
      </trkpt>
      <trkpt lat="45.97601" lon="4.75681">
        <ele>171</ele>
        <time>2018-08-22T08:33:29Z</time>
      </trkpt>
      <trkpt lat="45.97606" lon="4.75681">
        <ele>171</ele>
        <time>2018-08-22T08:33:30Z</time>
      </trkpt>
      <trkpt lat="45.97611" lon="4.75678">
        <ele>171</ele>
        <time>2018-08-22T08:33:31Z</time>
      </trkpt>
      <trkpt lat="45.97617" lon="4.75677">
        <ele>171</ele>
        <time>2018-08-22T08:33:32Z</time>
      </trkpt>
      <trkpt lat="45.97622" lon="4.75676">
        <ele>171</ele>
        <time>2018-08-22T08:33:33Z</time>
      </trkpt>
      <trkpt lat="45.97628" lon="4.75675">
        <ele>171</ele>
        <time>2018-08-22T08:33:34Z</time>
      </trkpt>
      <trkpt lat="45.97635" lon="4.75673">
        <ele>170</ele>
        <time>2018-08-22T08:33:35Z</time>
      </trkpt>
      <trkpt lat="45.97641" lon="4.75673">
        <ele>170</ele>
        <time>2018-08-22T08:33:36Z</time>
      </trkpt>
      <trkpt lat="45.97647" lon="4.75673">
        <ele>170</ele>
        <time>2018-08-22T08:33:37Z</time>
      </trkpt>
      <trkpt lat="45.97654" lon="4.75672">
        <ele>170</ele>
        <time>2018-08-22T08:33:38Z</time>
      </trkpt>
      <trkpt lat="45.9766" lon="4.75671">
        <ele>170</ele>
        <time>2018-08-22T08:33:39Z</time>
      </trkpt>
      <trkpt lat="45.97665" lon="4.75673">
        <ele>169</ele>
        <time>2018-08-22T08:33:40Z</time>
      </trkpt>
      <trkpt lat="45.9767" lon="4.75674">
        <ele>170</ele>
        <time>2018-08-22T08:33:41Z</time>
      </trkpt>
      <trkpt lat="45.97675" lon="4.75676">
        <ele>170</ele>
        <time>2018-08-22T08:33:42Z</time>
      </trkpt>
      <trkpt lat="45.97683" lon="4.75673">
        <ele>170</ele>
        <time>2018-08-22T08:33:43Z</time>
      </trkpt>
      <trkpt lat="45.97688" lon="4.75674">
        <ele>171</ele>
        <time>2018-08-22T08:33:44Z</time>
      </trkpt>
      <trkpt lat="45.97692" lon="4.75672">
        <ele>171</ele>
        <time>2018-08-22T08:33:45Z</time>
      </trkpt>
      <trkpt lat="45.97698" lon="4.75673">
        <ele>171</ele>
        <time>2018-08-22T08:33:46Z</time>
      </trkpt>
      <trkpt lat="45.97704" lon="4.75672">
        <ele>171</ele>
        <time>2018-08-22T08:33:47Z</time>
      </trkpt>
      <trkpt lat="45.97709" lon="4.75672">
        <ele>171</ele>
        <time>2018-08-22T08:33:48Z</time>
      </trkpt>
      <trkpt lat="45.97715" lon="4.75672">
        <ele>171</ele>
        <time>2018-08-22T08:33:49Z</time>
      </trkpt>
      <trkpt lat="45.97721" lon="4.75669">
        <ele>171</ele>
        <time>2018-08-22T08:33:50Z</time>
      </trkpt>
      <trkpt lat="45.97724" lon="4.7567">
        <ele>172</ele>
        <time>2018-08-22T08:33:51Z</time>
      </trkpt>
      <trkpt lat="45.97732" lon="4.75669">
        <ele>172</ele>
        <time>2018-08-22T08:33:52Z</time>
      </trkpt>
      <trkpt lat="45.97737" lon="4.7567">
        <ele>172</ele>
        <time>2018-08-22T08:33:53Z</time>
      </trkpt>
      <trkpt lat="45.97742" lon="4.7567">
        <ele>172</ele>
        <time>2018-08-22T08:33:54Z</time>
      </trkpt>
      <trkpt lat="45.97748" lon="4.75671">
        <ele>172</ele>
        <time>2018-08-22T08:33:55Z</time>
      </trkpt>
      <trkpt lat="45.97753" lon="4.75671">
        <ele>173</ele>
        <time>2018-08-22T08:33:56Z</time>
      </trkpt>
      <trkpt lat="45.97759" lon="4.75673">
        <ele>173</ele>
        <time>2018-08-22T08:33:57Z</time>
      </trkpt>
      <trkpt lat="45.97764" lon="4.75674">
        <ele>173</ele>
        <time>2018-08-22T08:33:58Z</time>
      </trkpt>
      <trkpt lat="45.97771" lon="4.75675">
        <ele>174</ele>
        <time>2018-08-22T08:33:59Z</time>
      </trkpt>
      <trkpt lat="45.97776" lon="4.75675">
        <ele>174</ele>
        <time>2018-08-22T08:34:00Z</time>
      </trkpt>
      <trkpt lat="45.97781" lon="4.75676">
        <ele>174</ele>
        <time>2018-08-22T08:34:01Z</time>
      </trkpt>
      <trkpt lat="45.97787" lon="4.75676">
        <ele>174</ele>
        <time>2018-08-22T08:34:02Z</time>
      </trkpt>
      <trkpt lat="45.97791" lon="4.75677">
        <ele>174</ele>
        <time>2018-08-22T08:34:03Z</time>
      </trkpt>
      <trkpt lat="45.97796" lon="4.75677">
        <ele>174</ele>
        <time>2018-08-22T08:34:04Z</time>
      </trkpt>
      <trkpt lat="45.97801" lon="4.75678">
        <ele>175</ele>
        <time>2018-08-22T08:34:05Z</time>
      </trkpt>
      <trkpt lat="45.97807" lon="4.75679">
        <ele>175</ele>
        <time>2018-08-22T08:34:06Z</time>
      </trkpt>
      <trkpt lat="45.97812" lon="4.7568">
        <ele>175</ele>
        <time>2018-08-22T08:34:07Z</time>
      </trkpt>
      <trkpt lat="45.97818" lon="4.7568">
        <ele>175</ele>
        <time>2018-08-22T08:34:08Z</time>
      </trkpt>
      <trkpt lat="45.97825" lon="4.75681">
        <ele>175</ele>
        <time>2018-08-22T08:34:09Z</time>
      </trkpt>
      <trkpt lat="45.9783" lon="4.75683">
        <ele>175</ele>
        <time>2018-08-22T08:34:10Z</time>
      </trkpt>
      <trkpt lat="45.97834" lon="4.75684">
        <ele>175</ele>
        <time>2018-08-22T08:34:11Z</time>
      </trkpt>
      <trkpt lat="45.9784" lon="4.75686">
        <ele>175</ele>
        <time>2018-08-22T08:34:12Z</time>
      </trkpt>
      <trkpt lat="45.97849" lon="4.75682">
        <ele>175</ele>
        <time>2018-08-22T08:34:13Z</time>
      </trkpt>
      <trkpt lat="45.97853" lon="4.75684">
        <ele>175</ele>
        <time>2018-08-22T08:34:14Z</time>
      </trkpt>
      <trkpt lat="45.97859" lon="4.75686">
        <ele>175</ele>
        <time>2018-08-22T08:34:15Z</time>
      </trkpt>
      <trkpt lat="45.97865" lon="4.75688">
        <ele>175</ele>
        <time>2018-08-22T08:34:16Z</time>
      </trkpt>
      <trkpt lat="45.97871" lon="4.75691">
        <ele>175</ele>
        <time>2018-08-22T08:34:17Z</time>
      </trkpt>
      <trkpt lat="45.97878" lon="4.75692">
        <ele>175</ele>
        <time>2018-08-22T08:34:18Z</time>
      </trkpt>
      <trkpt lat="45.97883" lon="4.75694">
        <ele>175</ele>
        <time>2018-08-22T08:34:19Z</time>
      </trkpt>
      <trkpt lat="45.97888" lon="4.75696">
        <ele>175</ele>
        <time>2018-08-22T08:34:20Z</time>
      </trkpt>
      <trkpt lat="45.97894" lon="4.75698">
        <ele>175</ele>
        <time>2018-08-22T08:34:21Z</time>
      </trkpt>
      <trkpt lat="45.97898" lon="4.75701">
        <ele>175</ele>
        <time>2018-08-22T08:34:22Z</time>
      </trkpt>
      <trkpt lat="45.97902" lon="4.75704">
        <ele>175</ele>
        <time>2018-08-22T08:34:23Z</time>
      </trkpt>
      <trkpt lat="45.97907" lon="4.75708">
        <ele>175</ele>
        <time>2018-08-22T08:34:24Z</time>
      </trkpt>
      <trkpt lat="45.97912" lon="4.75711">
        <ele>175</ele>
        <time>2018-08-22T08:34:25Z</time>
      </trkpt>
      <trkpt lat="45.97918" lon="4.75719">
        <ele>174</ele>
        <time>2018-08-22T08:34:27Z</time>
      </trkpt>
      <trkpt lat="45.97923" lon="4.75722">
        <ele>174</ele>
        <time>2018-08-22T08:34:28Z</time>
      </trkpt>
      <trkpt lat="45.97929" lon="4.75724">
        <ele>174</ele>
        <time>2018-08-22T08:34:29Z</time>
      </trkpt>
      <trkpt lat="45.97934" lon="4.75728">
        <ele>174</ele>
        <time>2018-08-22T08:34:30Z</time>
      </trkpt>
      <trkpt lat="45.97939" lon="4.7573">
        <ele>174</ele>
        <time>2018-08-22T08:34:31Z</time>
      </trkpt>
      <trkpt lat="45.97942" lon="4.75735">
        <ele>174</ele>
        <time>2018-08-22T08:34:32Z</time>
      </trkpt>
      <trkpt lat="45.97951" lon="4.75735">
        <ele>174</ele>
        <time>2018-08-22T08:34:34Z</time>
      </trkpt>
      <trkpt lat="45.97955" lon="4.75738">
        <ele>174</ele>
        <time>2018-08-22T08:34:35Z</time>
      </trkpt>
      <trkpt lat="45.97956" lon="4.75747">
        <ele>174</ele>
        <time>2018-08-22T08:34:38Z</time>
      </trkpt>
      <trkpt lat="45.97963" lon="4.75746">
        <ele>174</ele>
        <time>2018-08-22T08:34:39Z</time>
      </trkpt>
      <trkpt lat="45.97969" lon="4.75738">
        <ele>174</ele>
        <time>2018-08-22T08:34:41Z</time>
      </trkpt>
      <trkpt lat="45.97973" lon="4.75735">
        <ele>174</ele>
        <time>2018-08-22T08:34:42Z</time>
      </trkpt>
      <trkpt lat="45.97979" lon="4.75731">
        <ele>174</ele>
        <time>2018-08-22T08:34:43Z</time>
      </trkpt>
      <trkpt lat="45.97984" lon="4.75729">
        <ele>174</ele>
        <time>2018-08-22T08:34:44Z</time>
      </trkpt>
      <trkpt lat="45.9799" lon="4.75727">
        <ele>174</ele>
        <time>2018-08-22T08:34:45Z</time>
      </trkpt>
      <trkpt lat="45.97995" lon="4.75726">
        <ele>174</ele>
        <time>2018-08-22T08:34:46Z</time>
      </trkpt>
      <trkpt lat="45.98001" lon="4.75723">
        <ele>174</ele>
        <time>2018-08-22T08:34:47Z</time>
      </trkpt>
      <trkpt lat="45.98006" lon="4.7572">
        <ele>174</ele>
        <time>2018-08-22T08:34:48Z</time>
      </trkpt>
      <trkpt lat="45.9801" lon="4.75717">
        <ele>174</ele>
        <time>2018-08-22T08:34:49Z</time>
      </trkpt>
      <trkpt lat="45.98016" lon="4.75714">
        <ele>174</ele>
        <time>2018-08-22T08:34:50Z</time>
      </trkpt>
      <trkpt lat="45.98023" lon="4.75711">
        <ele>174</ele>
        <time>2018-08-22T08:34:51Z</time>
      </trkpt>
      <trkpt lat="45.98032" lon="4.75706">
        <ele>174</ele>
        <time>2018-08-22T08:34:52Z</time>
      </trkpt>
      <trkpt lat="45.98038" lon="4.75704">
        <ele>174</ele>
        <time>2018-08-22T08:34:53Z</time>
      </trkpt>
      <trkpt lat="45.98041" lon="4.75704">
        <ele>174</ele>
        <time>2018-08-22T08:34:54Z</time>
      </trkpt>
      <trkpt lat="45.98048" lon="4.75706">
        <ele>174</ele>
        <time>2018-08-22T08:34:56Z</time>
      </trkpt>
      <trkpt lat="45.98054" lon="4.75706">
        <ele>174</ele>
        <time>2018-08-22T08:34:57Z</time>
      </trkpt>
      <trkpt lat="45.98058" lon="4.75706">
        <ele>174</ele>
        <time>2018-08-22T08:34:58Z</time>
      </trkpt>
      <trkpt lat="45.98068" lon="4.75702">
        <ele>174</ele>
        <time>2018-08-22T08:34:59Z</time>
      </trkpt>
      <trkpt lat="45.98075" lon="4.75701">
        <ele>174</ele>
        <time>2018-08-22T08:35:00Z</time>
      </trkpt>
      <trkpt lat="45.98083" lon="4.75699">
        <ele>174</ele>
        <time>2018-08-22T08:35:01Z</time>
      </trkpt>
      <trkpt lat="45.98088" lon="4.75701">
        <ele>174</ele>
        <time>2018-08-22T08:35:02Z</time>
      </trkpt>
      <trkpt lat="45.98094" lon="4.757">
        <ele>174</ele>
        <time>2018-08-22T08:35:03Z</time>
      </trkpt>
      <trkpt lat="45.98098" lon="4.75702">
        <ele>174</ele>
        <time>2018-08-22T08:35:04Z</time>
      </trkpt>
      <trkpt lat="45.98104" lon="4.75701">
        <ele>174</ele>
        <time>2018-08-22T08:35:05Z</time>
      </trkpt>
      <trkpt lat="45.98111" lon="4.757">
        <ele>174</ele>
        <time>2018-08-22T08:35:06Z</time>
      </trkpt>
      <trkpt lat="45.98116" lon="4.75699">
        <ele>174</ele>
        <time>2018-08-22T08:35:07Z</time>
      </trkpt>
      <trkpt lat="45.98121" lon="4.75699">
        <ele>174</ele>
        <time>2018-08-22T08:35:08Z</time>
      </trkpt>
      <trkpt lat="45.98127" lon="4.75699">
        <ele>174</ele>
        <time>2018-08-22T08:35:09Z</time>
      </trkpt>
      <trkpt lat="45.98132" lon="4.75699">
        <ele>174</ele>
        <time>2018-08-22T08:35:10Z</time>
      </trkpt>
      <trkpt lat="45.98137" lon="4.75698">
        <ele>174</ele>
        <time>2018-08-22T08:35:11Z</time>
      </trkpt>
      <trkpt lat="45.98145" lon="4.75696">
        <ele>174</ele>
        <time>2018-08-22T08:35:13Z</time>
      </trkpt>
      <trkpt lat="45.98152" lon="4.757">
        <ele>174</ele>
        <time>2018-08-22T08:35:14Z</time>
      </trkpt>
      <trkpt lat="45.98161" lon="4.75696">
        <ele>174</ele>
        <time>2018-08-22T08:35:15Z</time>
      </trkpt>
      <trkpt lat="45.98164" lon="4.75698">
        <ele>174</ele>
        <time>2018-08-22T08:35:16Z</time>
      </trkpt>
      <trkpt lat="45.98172" lon="4.75695">
        <ele>174</ele>
        <time>2018-08-22T08:35:17Z</time>
      </trkpt>
      <trkpt lat="45.98182" lon="4.75686">
        <ele>174</ele>
        <time>2018-08-22T08:35:18Z</time>
      </trkpt>
      <trkpt lat="45.98188" lon="4.75689">
        <ele>174</ele>
        <time>2018-08-22T08:35:20Z</time>
      </trkpt>
      <trkpt lat="45.98191" lon="4.75689">
        <ele>174</ele>
        <time>2018-08-22T08:35:21Z</time>
      </trkpt>
      <trkpt lat="45.98197" lon="4.75689">
        <ele>174</ele>
        <time>2018-08-22T08:35:22Z</time>
      </trkpt>
      <trkpt lat="45.98201" lon="4.75689">
        <ele>174</ele>
        <time>2018-08-22T08:35:23Z</time>
      </trkpt>
      <trkpt lat="45.98209" lon="4.7569">
        <ele>174</ele>
        <time>2018-08-22T08:35:25Z</time>
      </trkpt>
      <trkpt lat="45.98216" lon="4.75689">
        <ele>174</ele>
        <time>2018-08-22T08:35:26Z</time>
      </trkpt>
      <trkpt lat="45.98223" lon="4.75687">
        <ele>174</ele>
        <time>2018-08-22T08:35:27Z</time>
      </trkpt>
      <trkpt lat="45.98227" lon="4.75687">
        <ele>174</ele>
        <time>2018-08-22T08:35:28Z</time>
      </trkpt>
      <trkpt lat="45.98231" lon="4.75686">
        <ele>174</ele>
        <time>2018-08-22T08:35:29Z</time>
      </trkpt>
      <trkpt lat="45.98236" lon="4.75686">
        <ele>174</ele>
        <time>2018-08-22T08:35:30Z</time>
      </trkpt>
      <trkpt lat="45.98241" lon="4.75685">
        <ele>174</ele>
        <time>2018-08-22T08:35:31Z</time>
      </trkpt>
      <trkpt lat="45.98245" lon="4.75686">
        <ele>174</ele>
        <time>2018-08-22T08:35:32Z</time>
      </trkpt>
      <trkpt lat="45.9825" lon="4.75685">
        <ele>174</ele>
        <time>2018-08-22T08:35:33Z</time>
      </trkpt>
      <trkpt lat="45.98254" lon="4.75684">
        <ele>173</ele>
        <time>2018-08-22T08:35:34Z</time>
      </trkpt>
      <trkpt lat="45.98259" lon="4.75686">
        <ele>173</ele>
        <time>2018-08-22T08:35:35Z</time>
      </trkpt>
      <trkpt lat="45.98264" lon="4.75687">
        <ele>173</ele>
        <time>2018-08-22T08:35:36Z</time>
      </trkpt>
      <trkpt lat="45.9827" lon="4.75687">
        <ele>174</ele>
        <time>2018-08-22T08:35:37Z</time>
      </trkpt>
      <trkpt lat="45.98277" lon="4.75686">
        <ele>174</ele>
        <time>2018-08-22T08:35:38Z</time>
      </trkpt>
      <trkpt lat="45.98282" lon="4.75686">
        <ele>174</ele>
        <time>2018-08-22T08:35:39Z</time>
      </trkpt>
      <trkpt lat="45.9829" lon="4.75686">
        <ele>174</ele>
        <time>2018-08-22T08:35:40Z</time>
      </trkpt>
      <trkpt lat="45.98297" lon="4.75685">
        <ele>174</ele>
        <time>2018-08-22T08:35:41Z</time>
      </trkpt>
      <trkpt lat="45.98303" lon="4.75686">
        <ele>174</ele>
        <time>2018-08-22T08:35:42Z</time>
      </trkpt>
      <trkpt lat="45.9831" lon="4.75687">
        <ele>174</ele>
        <time>2018-08-22T08:35:43Z</time>
      </trkpt>
      <trkpt lat="45.98315" lon="4.75689">
        <ele>174</ele>
        <time>2018-08-22T08:35:44Z</time>
      </trkpt>
      <trkpt lat="45.9832" lon="4.7569">
        <ele>174</ele>
        <time>2018-08-22T08:35:45Z</time>
      </trkpt>
      <trkpt lat="45.98326" lon="4.75691">
        <ele>174</ele>
        <time>2018-08-22T08:35:46Z</time>
      </trkpt>
      <trkpt lat="45.98332" lon="4.75691">
        <ele>174</ele>
        <time>2018-08-22T08:35:47Z</time>
      </trkpt>
      <trkpt lat="45.98337" lon="4.75692">
        <ele>174</ele>
        <time>2018-08-22T08:35:48Z</time>
      </trkpt>
      <trkpt lat="45.98344" lon="4.75692">
        <ele>174</ele>
        <time>2018-08-22T08:35:49Z</time>
      </trkpt>
      <trkpt lat="45.98348" lon="4.75694">
        <ele>174</ele>
        <time>2018-08-22T08:35:50Z</time>
      </trkpt>
      <trkpt lat="45.98353" lon="4.75696">
        <ele>174</ele>
        <time>2018-08-22T08:35:51Z</time>
      </trkpt>
      <trkpt lat="45.98359" lon="4.75695">
        <ele>174</ele>
        <time>2018-08-22T08:35:52Z</time>
      </trkpt>
      <trkpt lat="45.98365" lon="4.75695">
        <ele>174</ele>
        <time>2018-08-22T08:35:53Z</time>
      </trkpt>
      <trkpt lat="45.98369" lon="4.75698">
        <ele>174</ele>
        <time>2018-08-22T08:35:54Z</time>
      </trkpt>
      <trkpt lat="45.98376" lon="4.75702">
        <ele>174</ele>
        <time>2018-08-22T08:35:56Z</time>
      </trkpt>
      <trkpt lat="45.9838" lon="4.75703">
        <ele>174</ele>
        <time>2018-08-22T08:35:57Z</time>
      </trkpt>
      <trkpt lat="45.98384" lon="4.75703">
        <ele>174</ele>
        <time>2018-08-22T08:35:58Z</time>
      </trkpt>
      <trkpt lat="45.98392" lon="4.75701">
        <ele>174</ele>
        <time>2018-08-22T08:35:59Z</time>
      </trkpt>
      <trkpt lat="45.98396" lon="4.75701">
        <ele>174</ele>
        <time>2018-08-22T08:36:00Z</time>
      </trkpt>
      <trkpt lat="45.98402" lon="4.757">
        <ele>174</ele>
        <time>2018-08-22T08:36:01Z</time>
      </trkpt>
      <trkpt lat="45.98407" lon="4.75703">
        <ele>174</ele>
        <time>2018-08-22T08:36:02Z</time>
      </trkpt>
      <trkpt lat="45.98412" lon="4.75702">
        <ele>174</ele>
        <time>2018-08-22T08:36:03Z</time>
      </trkpt>
      <trkpt lat="45.98417" lon="4.75703">
        <ele>175</ele>
        <time>2018-08-22T08:36:04Z</time>
      </trkpt>
      <trkpt lat="45.98422" lon="4.75705">
        <ele>175</ele>
        <time>2018-08-22T08:36:05Z</time>
      </trkpt>
      <trkpt lat="45.98427" lon="4.75706">
        <ele>175</ele>
        <time>2018-08-22T08:36:06Z</time>
      </trkpt>
      <trkpt lat="45.98434" lon="4.75707">
        <ele>175</ele>
        <time>2018-08-22T08:36:07Z</time>
      </trkpt>
      <trkpt lat="45.98439" lon="4.7571">
        <ele>174</ele>
        <time>2018-08-22T08:36:08Z</time>
      </trkpt>
      <trkpt lat="45.98445" lon="4.75713">
        <ele>174</ele>
        <time>2018-08-22T08:36:09Z</time>
      </trkpt>
      <trkpt lat="45.98451" lon="4.75713">
        <ele>174</ele>
        <time>2018-08-22T08:36:10Z</time>
      </trkpt>
      <trkpt lat="45.98456" lon="4.75712">
        <ele>174</ele>
        <time>2018-08-22T08:36:11Z</time>
      </trkpt>
      <trkpt lat="45.98463" lon="4.75712">
        <ele>175</ele>
        <time>2018-08-22T08:36:12Z</time>
      </trkpt>
      <trkpt lat="45.98467" lon="4.75716">
        <ele>175</ele>
        <time>2018-08-22T08:36:13Z</time>
      </trkpt>
      <trkpt lat="45.98478" lon="4.75707">
        <ele>174</ele>
        <time>2018-08-22T08:36:14Z</time>
      </trkpt>
      <trkpt lat="45.98486" lon="4.75711">
        <ele>175</ele>
        <time>2018-08-22T08:36:16Z</time>
      </trkpt>
      <trkpt lat="45.98491" lon="4.75712">
        <ele>175</ele>
        <time>2018-08-22T08:36:17Z</time>
      </trkpt>
      <trkpt lat="45.98496" lon="4.75714">
        <ele>175</ele>
        <time>2018-08-22T08:36:18Z</time>
      </trkpt>
      <trkpt lat="45.98499" lon="4.75716">
        <ele>175</ele>
        <time>2018-08-22T08:36:19Z</time>
      </trkpt>
      <trkpt lat="45.98501" lon="4.75724">
        <ele>174</ele>
        <time>2018-08-22T08:36:21Z</time>
      </trkpt>
      <trkpt lat="45.98497" lon="4.75734">
        <ele>175</ele>
        <time>2018-08-22T08:36:22Z</time>
      </trkpt>
      <trkpt lat="45.98496" lon="4.75746">
        <ele>175</ele>
        <time>2018-08-22T08:36:24Z</time>
      </trkpt>
      <trkpt lat="45.98496" lon="4.75749">
        <ele>175</ele>
        <time>2018-08-22T08:36:25Z</time>
      </trkpt>
      <trkpt lat="45.98497" lon="4.75762">
        <ele>175</ele>
        <time>2018-08-22T08:36:27Z</time>
      </trkpt>
      <trkpt lat="45.98497" lon="4.75767">
        <ele>176</ele>
        <time>2018-08-22T08:36:28Z</time>
      </trkpt>
      <trkpt lat="45.98498" lon="4.75776">
        <ele>176</ele>
        <time>2018-08-22T08:36:30Z</time>
      </trkpt>
      <trkpt lat="45.98498" lon="4.75782">
        <ele>176</ele>
        <time>2018-08-22T08:36:31Z</time>
      </trkpt>
      <trkpt lat="45.98502" lon="4.75788">
        <ele>176</ele>
        <time>2018-08-22T08:36:32Z</time>
      </trkpt>
      <trkpt lat="45.98505" lon="4.75792">
        <ele>176</ele>
        <time>2018-08-22T08:36:33Z</time>
      </trkpt>
      <trkpt lat="45.98509" lon="4.75795">
        <ele>176</ele>
        <time>2018-08-22T08:36:34Z</time>
      </trkpt>
      <trkpt lat="45.98513" lon="4.75798">
        <ele>176</ele>
        <time>2018-08-22T08:36:35Z</time>
      </trkpt>
      <trkpt lat="45.98519" lon="4.75801">
        <ele>176</ele>
        <time>2018-08-22T08:36:37Z</time>
      </trkpt>
      <trkpt lat="45.98527" lon="4.75803">
        <ele>176</ele>
        <time>2018-08-22T08:36:38Z</time>
      </trkpt>
      <trkpt lat="45.98533" lon="4.75802">
        <ele>176</ele>
        <time>2018-08-22T08:36:39Z</time>
      </trkpt>
      <trkpt lat="45.98537" lon="4.75803">
        <ele>176</ele>
        <time>2018-08-22T08:36:40Z</time>
      </trkpt>
      <trkpt lat="45.9854" lon="4.75803">
        <ele>176</ele>
        <time>2018-08-22T08:36:41Z</time>
      </trkpt>
      <trkpt lat="45.98548" lon="4.75803">
        <ele>176</ele>
        <time>2018-08-22T08:36:42Z</time>
      </trkpt>
      <trkpt lat="45.98552" lon="4.75807">
        <ele>176</ele>
        <time>2018-08-22T08:36:43Z</time>
      </trkpt>
      <trkpt lat="45.98556" lon="4.7581">
        <ele>176</ele>
        <time>2018-08-22T08:36:44Z</time>
      </trkpt>
      <trkpt lat="45.98563" lon="4.75814">
        <ele>176</ele>
        <time>2018-08-22T08:36:45Z</time>
      </trkpt>
      <trkpt lat="45.98566" lon="4.75819">
        <ele>176</ele>
        <time>2018-08-22T08:36:46Z</time>
      </trkpt>
      <trkpt lat="45.98571" lon="4.75821">
        <ele>176</ele>
        <time>2018-08-22T08:36:47Z</time>
      </trkpt>
      <trkpt lat="45.98577" lon="4.75825">
        <ele>176</ele>
        <time>2018-08-22T08:36:48Z</time>
      </trkpt>
      <trkpt lat="45.98583" lon="4.75826">
        <ele>176</ele>
        <time>2018-08-22T08:36:49Z</time>
      </trkpt>
      <trkpt lat="45.98588" lon="4.75828">
        <ele>176</ele>
        <time>2018-08-22T08:36:50Z</time>
      </trkpt>
      <trkpt lat="45.98594" lon="4.75836">
        <ele>177</ele>
        <time>2018-08-22T08:36:53Z</time>
      </trkpt>
      <trkpt lat="45.98595" lon="4.75838">
        <ele>177</ele>
        <time>2018-08-22T08:36:54Z</time>
      </trkpt>
      <trkpt lat="45.98606" lon="4.75831">
        <ele>176</ele>
        <time>2018-08-22T08:36:55Z</time>
      </trkpt>
      <trkpt lat="45.9861" lon="4.75821">
        <ele>176</ele>
        <time>2018-08-22T08:36:58Z</time>
      </trkpt>
      <trkpt lat="45.9861" lon="4.75814">
        <ele>176</ele>
        <time>2018-08-22T08:36:59Z</time>
      </trkpt>
      <trkpt lat="45.98607" lon="4.75803">
        <ele>176</ele>
        <time>2018-08-22T08:37:01Z</time>
      </trkpt>
      <trkpt lat="45.98607" lon="4.75798">
        <ele>176</ele>
        <time>2018-08-22T08:37:02Z</time>
      </trkpt>
      <trkpt lat="45.98607" lon="4.75791">
        <ele>176</ele>
        <time>2018-08-22T08:37:03Z</time>
      </trkpt>
      <trkpt lat="45.98607" lon="4.75784">
        <ele>176</ele>
        <time>2018-08-22T08:37:04Z</time>
      </trkpt>
      <trkpt lat="45.98606" lon="4.75776">
        <ele>175</ele>
        <time>2018-08-22T08:37:05Z</time>
      </trkpt>
      <trkpt lat="45.98604" lon="4.75771">
        <ele>175</ele>
        <time>2018-08-22T08:37:06Z</time>
      </trkpt>
      <trkpt lat="45.98603" lon="4.75759">
        <ele>175</ele>
        <time>2018-08-22T08:37:08Z</time>
      </trkpt>
      <trkpt lat="45.98604" lon="4.75757">
        <ele>175</ele>
        <time>2018-08-22T08:37:09Z</time>
      </trkpt>
      <trkpt lat="45.98604" lon="4.75748">
        <ele>174</ele>
        <time>2018-08-22T08:37:12Z</time>
      </trkpt>
      <trkpt lat="45.98604" lon="4.75744">
        <ele>174</ele>
        <time>2018-08-22T08:37:13Z</time>
      </trkpt>
      <trkpt lat="45.98605" lon="4.75738">
        <ele>174</ele>
        <time>2018-08-22T08:37:16Z</time>
      </trkpt>
      <trkpt lat="45.98611" lon="4.75732">
        <ele>175</ele>
        <time>2018-08-22T08:37:17Z</time>
      </trkpt>
      <trkpt lat="45.98619" lon="4.75728">
        <ele>175</ele>
        <time>2018-08-22T08:37:19Z</time>
      </trkpt>
      <trkpt lat="45.98623" lon="4.75726">
        <ele>175</ele>
        <time>2018-08-22T08:37:20Z</time>
      </trkpt>
      <trkpt lat="45.98627" lon="4.75726">
        <ele>175</ele>
        <time>2018-08-22T08:37:21Z</time>
      </trkpt>
      <trkpt lat="45.98634" lon="4.75727">
        <ele>175</ele>
        <time>2018-08-22T08:37:22Z</time>
      </trkpt>
      <trkpt lat="45.9864" lon="4.75727">
        <ele>175</ele>
        <time>2018-08-22T08:37:23Z</time>
      </trkpt>
      <trkpt lat="45.98646" lon="4.75725">
        <ele>175</ele>
        <time>2018-08-22T08:37:24Z</time>
      </trkpt>
      <trkpt lat="45.98653" lon="4.75724">
        <ele>176</ele>
        <time>2018-08-22T08:37:25Z</time>
      </trkpt>
      <trkpt lat="45.9866" lon="4.75724">
        <ele>176</ele>
        <time>2018-08-22T08:37:26Z</time>
      </trkpt>
      <trkpt lat="45.98668" lon="4.75728">
        <ele>177</ele>
        <time>2018-08-22T08:37:28Z</time>
      </trkpt>
      <trkpt lat="45.98672" lon="4.75731">
        <ele>177</ele>
        <time>2018-08-22T08:37:29Z</time>
      </trkpt>
      <trkpt lat="45.98679" lon="4.75729">
        <ele>177</ele>
        <time>2018-08-22T08:37:30Z</time>
      </trkpt>
      <trkpt lat="45.98682" lon="4.7573">
        <ele>177</ele>
        <time>2018-08-22T08:37:31Z</time>
      </trkpt>
      <trkpt lat="45.98691" lon="4.75729">
        <ele>177</ele>
        <time>2018-08-22T08:37:33Z</time>
      </trkpt>
      <trkpt lat="45.98696" lon="4.7573">
        <ele>177</ele>
        <time>2018-08-22T08:37:34Z</time>
      </trkpt>
      <trkpt lat="45.98704" lon="4.75732">
        <ele>177</ele>
        <time>2018-08-22T08:37:36Z</time>
      </trkpt>
      <trkpt lat="45.98708" lon="4.75732">
        <ele>177</ele>
        <time>2018-08-22T08:37:37Z</time>
      </trkpt>
      <trkpt lat="45.98713" lon="4.7573">
        <ele>177</ele>
        <time>2018-08-22T08:37:38Z</time>
      </trkpt>
      <trkpt lat="45.98718" lon="4.75731">
        <ele>177</ele>
        <time>2018-08-22T08:37:39Z</time>
      </trkpt>
      <trkpt lat="45.98723" lon="4.75731">
        <ele>177</ele>
        <time>2018-08-22T08:37:40Z</time>
      </trkpt>
      <trkpt lat="45.98728" lon="4.75731">
        <ele>177</ele>
        <time>2018-08-22T08:37:41Z</time>
      </trkpt>
      <trkpt lat="45.98732" lon="4.75731">
        <ele>177</ele>
        <time>2018-08-22T08:37:42Z</time>
      </trkpt>
      <trkpt lat="45.98737" lon="4.75729">
        <ele>177</ele>
        <time>2018-08-22T08:37:43Z</time>
      </trkpt>
      <trkpt lat="45.98742" lon="4.75729">
        <ele>177</ele>
        <time>2018-08-22T08:37:44Z</time>
      </trkpt>
      <trkpt lat="45.98747" lon="4.75729">
        <ele>177</ele>
        <time>2018-08-22T08:37:45Z</time>
      </trkpt>
      <trkpt lat="45.98752" lon="4.75729">
        <ele>178</ele>
        <time>2018-08-22T08:37:46Z</time>
      </trkpt>
      <trkpt lat="45.98756" lon="4.75729">
        <ele>178</ele>
        <time>2018-08-22T08:37:47Z</time>
      </trkpt>
      <trkpt lat="45.98763" lon="4.75731">
        <ele>178</ele>
        <time>2018-08-22T08:37:49Z</time>
      </trkpt>
      <trkpt lat="45.98768" lon="4.75729">
        <ele>178</ele>
        <time>2018-08-22T08:37:50Z</time>
      </trkpt>
      <trkpt lat="45.98777" lon="4.75728">
        <ele>178</ele>
        <time>2018-08-22T08:37:52Z</time>
      </trkpt>
      <trkpt lat="45.98782" lon="4.75727">
        <ele>178</ele>
        <time>2018-08-22T08:37:53Z</time>
      </trkpt>
      <trkpt lat="45.98786" lon="4.75727">
        <ele>178</ele>
        <time>2018-08-22T08:37:54Z</time>
      </trkpt>
      <trkpt lat="45.98792" lon="4.75727">
        <ele>179</ele>
        <time>2018-08-22T08:37:55Z</time>
      </trkpt>
      <trkpt lat="45.98797" lon="4.75727">
        <ele>179</ele>
        <time>2018-08-22T08:37:56Z</time>
      </trkpt>
      <trkpt lat="45.98803" lon="4.75726">
        <ele>179</ele>
        <time>2018-08-22T08:37:57Z</time>
      </trkpt>
      <trkpt lat="45.9881" lon="4.75722">
        <ele>179</ele>
        <time>2018-08-22T08:37:58Z</time>
      </trkpt>
      <trkpt lat="45.98813" lon="4.75725">
        <ele>179</ele>
        <time>2018-08-22T08:37:59Z</time>
      </trkpt>
      <trkpt lat="45.9882" lon="4.75723">
        <ele>179</ele>
        <time>2018-08-22T08:38:00Z</time>
      </trkpt>
      <trkpt lat="45.98825" lon="4.75724">
        <ele>179</ele>
        <time>2018-08-22T08:38:01Z</time>
      </trkpt>
      <trkpt lat="45.98833" lon="4.75727">
        <ele>180</ele>
        <time>2018-08-22T08:38:03Z</time>
      </trkpt>
      <trkpt lat="45.98841" lon="4.75725">
        <ele>180</ele>
        <time>2018-08-22T08:38:04Z</time>
      </trkpt>
      <trkpt lat="45.98846" lon="4.75722">
        <ele>180</ele>
        <time>2018-08-22T08:38:05Z</time>
      </trkpt>
      <trkpt lat="45.98855" lon="4.75718">
        <ele>180</ele>
        <time>2018-08-22T08:38:06Z</time>
      </trkpt>
      <trkpt lat="45.98861" lon="4.75714">
        <ele>180</ele>
        <time>2018-08-22T08:38:07Z</time>
      </trkpt>
      <trkpt lat="45.98868" lon="4.75712">
        <ele>180</ele>
        <time>2018-08-22T08:38:08Z</time>
      </trkpt>
      <trkpt lat="45.98873" lon="4.75704">
        <ele>180</ele>
        <time>2018-08-22T08:38:09Z</time>
      </trkpt>
      <trkpt lat="45.98878" lon="4.75708">
        <ele>180</ele>
        <time>2018-08-22T08:38:10Z</time>
      </trkpt>
      <trkpt lat="45.98883" lon="4.75707">
        <ele>180</ele>
        <time>2018-08-22T08:38:11Z</time>
      </trkpt>
      <trkpt lat="45.9889" lon="4.75705">
        <ele>180</ele>
        <time>2018-08-22T08:38:12Z</time>
      </trkpt>
      <trkpt lat="45.98896" lon="4.75701">
        <ele>180</ele>
        <time>2018-08-22T08:38:13Z</time>
      </trkpt>
      <trkpt lat="45.98902" lon="4.75699">
        <ele>180</ele>
        <time>2018-08-22T08:38:14Z</time>
      </trkpt>
      <trkpt lat="45.98909" lon="4.75698">
        <ele>180</ele>
        <time>2018-08-22T08:38:15Z</time>
      </trkpt>
      <trkpt lat="45.98914" lon="4.7569">
        <ele>179</ele>
        <time>2018-08-22T08:38:16Z</time>
      </trkpt>
      <trkpt lat="45.98919" lon="4.75693">
        <ele>181</ele>
        <time>2018-08-22T08:38:17Z</time>
      </trkpt>
      <trkpt lat="45.98924" lon="4.7569">
        <ele>181</ele>
        <time>2018-08-22T08:38:18Z</time>
      </trkpt>
      <trkpt lat="45.98928" lon="4.75685">
        <ele>180</ele>
        <time>2018-08-22T08:38:19Z</time>
      </trkpt>
      <trkpt lat="45.98934" lon="4.75683">
        <ele>180</ele>
        <time>2018-08-22T08:38:20Z</time>
      </trkpt>
      <trkpt lat="45.98939" lon="4.75679">
        <ele>180</ele>
        <time>2018-08-22T08:38:21Z</time>
      </trkpt>
      <trkpt lat="45.98947" lon="4.75671">
        <ele>181</ele>
        <time>2018-08-22T08:38:22Z</time>
      </trkpt>
      <trkpt lat="45.98956" lon="4.75668">
        <ele>181</ele>
        <time>2018-08-22T08:38:24Z</time>
      </trkpt>
      <trkpt lat="45.98962" lon="4.75665">
        <ele>177</ele>
        <time>2018-08-22T08:38:25Z</time>
      </trkpt>
      <trkpt lat="45.98969" lon="4.75658">
        <ele>177</ele>
        <time>2018-08-22T08:38:27Z</time>
      </trkpt>
      <trkpt lat="45.98975" lon="4.75662">
        <ele>177</ele>
        <time>2018-08-22T08:38:28Z</time>
      </trkpt>
      <trkpt lat="45.98993" lon="4.75655">
        <ele>178</ele>
        <time>2018-08-22T08:38:29Z</time>
      </trkpt>
      <trkpt lat="45.99001" lon="4.75661">
        <ele>179</ele>
        <time>2018-08-22T08:38:33Z</time>
      </trkpt>
      <trkpt lat="45.99005" lon="4.75658">
        <ele>179</ele>
        <time>2018-08-22T08:38:34Z</time>
      </trkpt>
      <trkpt lat="45.99014" lon="4.75651">
        <ele>178</ele>
        <time>2018-08-22T08:38:35Z</time>
      </trkpt>
      <trkpt lat="45.99018" lon="4.75658">
        <ele>178</ele>
        <time>2018-08-22T08:38:36Z</time>
      </trkpt>
      <trkpt lat="45.99026" lon="4.75657">
        <ele>178</ele>
        <time>2018-08-22T08:38:37Z</time>
      </trkpt>
      <trkpt lat="45.99031" lon="4.75656">
        <ele>178</ele>
        <time>2018-08-22T08:38:38Z</time>
      </trkpt>
      <trkpt lat="45.99037" lon="4.75657">
        <ele>178</ele>
        <time>2018-08-22T08:38:39Z</time>
      </trkpt>
      <trkpt lat="45.99041" lon="4.75656">
        <ele>178</ele>
        <time>2018-08-22T08:38:40Z</time>
      </trkpt>
      <trkpt lat="45.99046" lon="4.75655">
        <ele>178</ele>
        <time>2018-08-22T08:38:41Z</time>
      </trkpt>
      <trkpt lat="45.99051" lon="4.75659">
        <ele>178</ele>
        <time>2018-08-22T08:38:42Z</time>
      </trkpt>
      <trkpt lat="45.99055" lon="4.75662">
        <ele>178</ele>
        <time>2018-08-22T08:38:43Z</time>
      </trkpt>
      <trkpt lat="45.99059" lon="4.75663">
        <ele>178</ele>
        <time>2018-08-22T08:38:44Z</time>
      </trkpt>
      <trkpt lat="45.99064" lon="4.75666">
        <ele>178</ele>
        <time>2018-08-22T08:38:45Z</time>
      </trkpt>
      <trkpt lat="45.9907" lon="4.75671">
        <ele>182</ele>
        <time>2018-08-22T08:38:46Z</time>
      </trkpt>
      <trkpt lat="45.99077" lon="4.75672">
        <ele>181</ele>
        <time>2018-08-22T08:38:47Z</time>
      </trkpt>
      <trkpt lat="45.99082" lon="4.75677">
        <ele>182</ele>
        <time>2018-08-22T08:38:48Z</time>
      </trkpt>
      <trkpt lat="45.99089" lon="4.75678">
        <ele>182</ele>
        <time>2018-08-22T08:38:49Z</time>
      </trkpt>
      <trkpt lat="45.99092" lon="4.75671">
        <ele>182</ele>
        <time>2018-08-22T08:38:50Z</time>
      </trkpt>
      <trkpt lat="45.99101" lon="4.75662">
        <ele>179</ele>
        <time>2018-08-22T08:38:51Z</time>
      </trkpt>
      <trkpt lat="45.99105" lon="4.7566">
        <ele>178</ele>
        <time>2018-08-22T08:38:52Z</time>
      </trkpt>
      <trkpt lat="45.99113" lon="4.75658">
        <ele>178</ele>
        <time>2018-08-22T08:38:53Z</time>
      </trkpt>
      <trkpt lat="45.99119" lon="4.75654">
        <ele>178</ele>
        <time>2018-08-22T08:38:54Z</time>
      </trkpt>
      <trkpt lat="45.99126" lon="4.75646">
        <ele>178</ele>
        <time>2018-08-22T08:38:55Z</time>
      </trkpt>
      <trkpt lat="45.9913" lon="4.75642">
        <ele>178</ele>
        <time>2018-08-22T08:38:57Z</time>
      </trkpt>
      <trkpt lat="45.99136" lon="4.75638">
        <ele>178</ele>
        <time>2018-08-22T08:38:58Z</time>
      </trkpt>
      <trkpt lat="45.99139" lon="4.75638">
        <ele>178</ele>
        <time>2018-08-22T08:38:59Z</time>
      </trkpt>
      <trkpt lat="45.99145" lon="4.75628">
        <ele>177</ele>
        <time>2018-08-22T08:39:00Z</time>
      </trkpt>
      <trkpt lat="45.99149" lon="4.75625">
        <ele>177</ele>
        <time>2018-08-22T08:39:01Z</time>
      </trkpt>
      <trkpt lat="45.99156" lon="4.75619">
        <ele>177</ele>
        <time>2018-08-22T08:39:02Z</time>
      </trkpt>
      <trkpt lat="45.99163" lon="4.75612">
        <ele>177</ele>
        <time>2018-08-22T08:39:04Z</time>
      </trkpt>
      <trkpt lat="45.99169" lon="4.75608">
        <ele>178</ele>
        <time>2018-08-22T08:39:05Z</time>
      </trkpt>
      <trkpt lat="45.99173" lon="4.75607">
        <ele>178</ele>
        <time>2018-08-22T08:39:06Z</time>
      </trkpt>
      <trkpt lat="45.99179" lon="4.75603">
        <ele>178</ele>
        <time>2018-08-22T08:39:07Z</time>
      </trkpt>
      <trkpt lat="45.99183" lon="4.756">
        <ele>178</ele>
        <time>2018-08-22T08:39:08Z</time>
      </trkpt>
      <trkpt lat="45.9919" lon="4.75593">
        <ele>178</ele>
        <time>2018-08-22T08:39:09Z</time>
      </trkpt>
      <trkpt lat="45.99199" lon="4.75587">
        <ele>178</ele>
        <time>2018-08-22T08:39:10Z</time>
      </trkpt>
      <trkpt lat="45.99205" lon="4.75585">
        <ele>178</ele>
        <time>2018-08-22T08:39:11Z</time>
      </trkpt>
      <trkpt lat="45.99212" lon="4.75578">
        <ele>175</ele>
        <time>2018-08-22T08:39:12Z</time>
      </trkpt>
      <trkpt lat="45.99216" lon="4.75576">
        <ele>175</ele>
        <time>2018-08-22T08:39:13Z</time>
      </trkpt>
      <trkpt lat="45.99221" lon="4.75573">
        <ele>175</ele>
        <time>2018-08-22T08:39:14Z</time>
      </trkpt>
      <trkpt lat="45.99228" lon="4.75567">
        <ele>175</ele>
        <time>2018-08-22T08:39:15Z</time>
      </trkpt>
      <trkpt lat="45.99235" lon="4.75565">
        <ele>175</ele>
        <time>2018-08-22T08:39:16Z</time>
      </trkpt>
      <trkpt lat="45.99241" lon="4.75562">
        <ele>175</ele>
        <time>2018-08-22T08:39:17Z</time>
      </trkpt>
      <trkpt lat="45.99246" lon="4.75557">
        <ele>175</ele>
        <time>2018-08-22T08:39:18Z</time>
      </trkpt>
      <trkpt lat="45.99251" lon="4.75554">
        <ele>177</ele>
        <time>2018-08-22T08:39:19Z</time>
      </trkpt>
      <trkpt lat="45.99255" lon="4.75551">
        <ele>177</ele>
        <time>2018-08-22T08:39:20Z</time>
      </trkpt>
      <trkpt lat="45.99261" lon="4.75548">
        <ele>177</ele>
        <time>2018-08-22T08:39:21Z</time>
      </trkpt>
      <trkpt lat="45.99266" lon="4.75544">
        <ele>177</ele>
        <time>2018-08-22T08:39:22Z</time>
      </trkpt>
      <trkpt lat="45.99271" lon="4.7554">
        <ele>176</ele>
        <time>2018-08-22T08:39:23Z</time>
      </trkpt>
      <trkpt lat="45.99275" lon="4.75537">
        <ele>176</ele>
        <time>2018-08-22T08:39:24Z</time>
      </trkpt>
      <trkpt lat="45.99279" lon="4.75534">
        <ele>177</ele>
        <time>2018-08-22T08:39:25Z</time>
      </trkpt>
      <trkpt lat="45.99285" lon="4.7553">
        <ele>177</ele>
        <time>2018-08-22T08:39:26Z</time>
      </trkpt>
      <trkpt lat="45.99289" lon="4.75523">
        <ele>177</ele>
        <time>2018-08-22T08:39:27Z</time>
      </trkpt>
      <trkpt lat="45.99296" lon="4.75517">
        <ele>177</ele>
        <time>2018-08-22T08:39:28Z</time>
      </trkpt>
      <trkpt lat="45.99301" lon="4.75512">
        <ele>177</ele>
        <time>2018-08-22T08:39:29Z</time>
      </trkpt>
      <trkpt lat="45.99306" lon="4.75507">
        <ele>177</ele>
        <time>2018-08-22T08:39:30Z</time>
      </trkpt>
      <trkpt lat="45.99311" lon="4.75501">
        <ele>177</ele>
        <time>2018-08-22T08:39:31Z</time>
      </trkpt>
      <trkpt lat="45.99316" lon="4.75496">
        <ele>175</ele>
        <time>2018-08-22T08:39:32Z</time>
      </trkpt>
      <trkpt lat="45.99322" lon="4.7549">
        <ele>175</ele>
        <time>2018-08-22T08:39:33Z</time>
      </trkpt>
      <trkpt lat="45.99328" lon="4.75481">
        <ele>175</ele>
        <time>2018-08-22T08:39:34Z</time>
      </trkpt>
      <trkpt lat="45.99333" lon="4.75474">
        <ele>177</ele>
        <time>2018-08-22T08:39:36Z</time>
      </trkpt>
      <trkpt lat="45.99338" lon="4.75468">
        <ele>177</ele>
        <time>2018-08-22T08:39:37Z</time>
      </trkpt>
      <trkpt lat="45.99338" lon="4.75462">
        <ele>177</ele>
        <time>2018-08-22T08:39:38Z</time>
      </trkpt>
      <trkpt lat="45.99342" lon="4.75454">
        <ele>177</ele>
        <time>2018-08-22T08:39:39Z</time>
      </trkpt>
      <trkpt lat="45.99346" lon="4.75446">
        <ele>176</ele>
        <time>2018-08-22T08:39:40Z</time>
      </trkpt>
      <trkpt lat="45.99351" lon="4.75441">
        <ele>176</ele>
        <time>2018-08-22T08:39:41Z</time>
      </trkpt>
      <trkpt lat="45.99356" lon="4.75436">
        <ele>176</ele>
        <time>2018-08-22T08:39:42Z</time>
      </trkpt>
      <trkpt lat="45.9936" lon="4.75429">
        <ele>176</ele>
        <time>2018-08-22T08:39:43Z</time>
      </trkpt>
      <trkpt lat="45.99363" lon="4.75421">
        <ele>176</ele>
        <time>2018-08-22T08:39:44Z</time>
      </trkpt>
      <trkpt lat="45.99365" lon="4.75414">
        <ele>173</ele>
        <time>2018-08-22T08:39:45Z</time>
      </trkpt>
      <trkpt lat="45.99365" lon="4.75405">
        <ele>173</ele>
        <time>2018-08-22T08:39:46Z</time>
      </trkpt>
      <trkpt lat="45.99366" lon="4.75396">
        <ele>173</ele>
        <time>2018-08-22T08:39:47Z</time>
      </trkpt>
      <trkpt lat="45.99368" lon="4.75387">
        <ele>172</ele>
        <time>2018-08-22T08:39:48Z</time>
      </trkpt>
      <trkpt lat="45.99371" lon="4.75378">
        <ele>172</ele>
        <time>2018-08-22T08:39:49Z</time>
      </trkpt>
      <trkpt lat="45.99373" lon="4.7537">
        <ele>172</ele>
        <time>2018-08-22T08:39:50Z</time>
      </trkpt>
      <trkpt lat="45.99377" lon="4.75362">
        <ele>172</ele>
        <time>2018-08-22T08:39:51Z</time>
      </trkpt>
      <trkpt lat="45.9938" lon="4.75355">
        <ele>172</ele>
        <time>2018-08-22T08:39:52Z</time>
      </trkpt>
      <trkpt lat="45.99384" lon="4.75348">
        <ele>172</ele>
        <time>2018-08-22T08:39:53Z</time>
      </trkpt>
      <trkpt lat="45.99389" lon="4.7534">
        <ele>171</ele>
        <time>2018-08-22T08:39:54Z</time>
      </trkpt>
      <trkpt lat="45.99393" lon="4.75335">
        <ele>171</ele>
        <time>2018-08-22T08:39:55Z</time>
      </trkpt>
      <trkpt lat="45.99397" lon="4.7533">
        <ele>170</ele>
        <time>2018-08-22T08:39:56Z</time>
      </trkpt>
      <trkpt lat="45.99402" lon="4.75326">
        <ele>170</ele>
        <time>2018-08-22T08:39:57Z</time>
      </trkpt>
      <trkpt lat="45.99406" lon="4.75323">
        <ele>170</ele>
        <time>2018-08-22T08:39:58Z</time>
      </trkpt>
      <trkpt lat="45.99412" lon="4.7532">
        <ele>170</ele>
        <time>2018-08-22T08:39:59Z</time>
      </trkpt>
      <trkpt lat="45.99417" lon="4.75319">
        <ele>170</ele>
        <time>2018-08-22T08:40:00Z</time>
      </trkpt>
      <trkpt lat="45.99422" lon="4.75317">
        <ele>171</ele>
        <time>2018-08-22T08:40:01Z</time>
      </trkpt>
      <trkpt lat="45.99428" lon="4.75315">
        <ele>171</ele>
        <time>2018-08-22T08:40:02Z</time>
      </trkpt>
      <trkpt lat="45.99433" lon="4.75314">
        <ele>171</ele>
        <time>2018-08-22T08:40:03Z</time>
      </trkpt>
      <trkpt lat="45.99438" lon="4.75314">
        <ele>171</ele>
        <time>2018-08-22T08:40:04Z</time>
      </trkpt>
      <trkpt lat="45.99445" lon="4.75313">
        <ele>171</ele>
        <time>2018-08-22T08:40:05Z</time>
      </trkpt>
      <trkpt lat="45.9945" lon="4.75311">
        <ele>171</ele>
        <time>2018-08-22T08:40:06Z</time>
      </trkpt>
      <trkpt lat="45.99455" lon="4.75311">
        <ele>171</ele>
        <time>2018-08-22T08:40:07Z</time>
      </trkpt>
      <trkpt lat="45.99461" lon="4.75308">
        <ele>171</ele>
        <time>2018-08-22T08:40:08Z</time>
      </trkpt>
      <trkpt lat="45.99465" lon="4.75308">
        <ele>171</ele>
        <time>2018-08-22T08:40:09Z</time>
      </trkpt>
      <trkpt lat="45.99471" lon="4.75308">
        <ele>171</ele>
        <time>2018-08-22T08:40:10Z</time>
      </trkpt>
      <trkpt lat="45.99476" lon="4.75307">
        <ele>171</ele>
        <time>2018-08-22T08:40:11Z</time>
      </trkpt>
      <trkpt lat="45.99481" lon="4.75307">
        <ele>171</ele>
        <time>2018-08-22T08:40:12Z</time>
      </trkpt>
      <trkpt lat="45.99487" lon="4.75305">
        <ele>171</ele>
        <time>2018-08-22T08:40:13Z</time>
      </trkpt>
      <trkpt lat="45.99492" lon="4.75306">
        <ele>171</ele>
        <time>2018-08-22T08:40:14Z</time>
      </trkpt>
      <trkpt lat="45.99498" lon="4.75306">
        <ele>171</ele>
        <time>2018-08-22T08:40:15Z</time>
      </trkpt>
      <trkpt lat="45.99505" lon="4.7531">
        <ele>172</ele>
        <time>2018-08-22T08:40:18Z</time>
      </trkpt>
      <trkpt lat="45.9951" lon="4.7531">
        <ele>172</ele>
        <time>2018-08-22T08:40:19Z</time>
      </trkpt>
      <trkpt lat="45.99516" lon="4.75307">
        <ele>172</ele>
        <time>2018-08-22T08:40:20Z</time>
      </trkpt>
      <trkpt lat="45.99521" lon="4.75307">
        <ele>172</ele>
        <time>2018-08-22T08:40:21Z</time>
      </trkpt>
      <trkpt lat="45.99526" lon="4.75304">
        <ele>172</ele>
        <time>2018-08-22T08:40:22Z</time>
      </trkpt>
      <trkpt lat="45.99531" lon="4.75304">
        <ele>172</ele>
        <time>2018-08-22T08:40:23Z</time>
      </trkpt>
      <trkpt lat="45.99539" lon="4.75304">
        <ele>172</ele>
        <time>2018-08-22T08:40:25Z</time>
      </trkpt>
      <trkpt lat="45.99541" lon="4.75305">
        <ele>172</ele>
        <time>2018-08-22T08:40:26Z</time>
      </trkpt>
      <trkpt lat="45.99548" lon="4.75309">
        <ele>172</ele>
        <time>2018-08-22T08:40:29Z</time>
      </trkpt>
      <trkpt lat="45.99555" lon="4.75314">
        <ele>172</ele>
        <time>2018-08-22T08:40:30Z</time>
      </trkpt>
      <trkpt lat="45.99562" lon="4.75321">
        <ele>172</ele>
        <time>2018-08-22T08:40:32Z</time>
      </trkpt>
      <trkpt lat="45.99566" lon="4.75322">
        <ele>172</ele>
        <time>2018-08-22T08:40:33Z</time>
      </trkpt>
      <trkpt lat="45.99571" lon="4.75324">
        <ele>173</ele>
        <time>2018-08-22T08:40:34Z</time>
      </trkpt>
      <trkpt lat="45.99575" lon="4.75324">
        <ele>173</ele>
        <time>2018-08-22T08:40:35Z</time>
      </trkpt>
      <trkpt lat="45.9958" lon="4.75322">
        <ele>173</ele>
        <time>2018-08-22T08:40:36Z</time>
      </trkpt>
      <trkpt lat="45.99584" lon="4.7532">
        <ele>173</ele>
        <time>2018-08-22T08:40:37Z</time>
      </trkpt>
      <trkpt lat="45.99587" lon="4.75314">
        <ele>173</ele>
        <time>2018-08-22T08:40:38Z</time>
      </trkpt>
      <trkpt lat="45.9959" lon="4.75308">
        <ele>174</ele>
        <time>2018-08-22T08:40:39Z</time>
      </trkpt>
      <trkpt lat="45.99593" lon="4.75302">
        <ele>174</ele>
        <time>2018-08-22T08:40:40Z</time>
      </trkpt>
      <trkpt lat="45.99597" lon="4.75297">
        <ele>174</ele>
        <time>2018-08-22T08:40:41Z</time>
      </trkpt>
      <trkpt lat="45.996" lon="4.75292">
        <ele>174</ele>
        <time>2018-08-22T08:40:42Z</time>
      </trkpt>
      <trkpt lat="45.99603" lon="4.75287">
        <ele>174</ele>
        <time>2018-08-22T08:40:43Z</time>
      </trkpt>
      <trkpt lat="45.99609" lon="4.75282">
        <ele>174</ele>
        <time>2018-08-22T08:40:44Z</time>
      </trkpt>
      <trkpt lat="45.99615" lon="4.75277">
        <ele>174</ele>
        <time>2018-08-22T08:40:45Z</time>
      </trkpt>
      <trkpt lat="45.99621" lon="4.75278">
        <ele>174</ele>
        <time>2018-08-22T08:40:46Z</time>
      </trkpt>
      <trkpt lat="45.9963" lon="4.75271">
        <ele>174</ele>
        <time>2018-08-22T08:40:47Z</time>
      </trkpt>
      <trkpt lat="45.99635" lon="4.7527">
        <ele>174</ele>
        <time>2018-08-22T08:40:48Z</time>
      </trkpt>
      <trkpt lat="45.99643" lon="4.75278">
        <ele>174</ele>
        <time>2018-08-22T08:40:49Z</time>
      </trkpt>
      <trkpt lat="45.99649" lon="4.7528">
        <ele>174</ele>
        <time>2018-08-22T08:40:50Z</time>
      </trkpt>
      <trkpt lat="45.99653" lon="4.75285">
        <ele>174</ele>
        <time>2018-08-22T08:40:51Z</time>
      </trkpt>
      <trkpt lat="45.9966" lon="4.7528">
        <ele>174</ele>
        <time>2018-08-22T08:40:52Z</time>
      </trkpt>
      <trkpt lat="45.99668" lon="4.75278">
        <ele>176</ele>
        <time>2018-08-22T08:40:53Z</time>
      </trkpt>
      <trkpt lat="45.99675" lon="4.75274">
        <ele>176</ele>
        <time>2018-08-22T08:40:54Z</time>
      </trkpt>
      <trkpt lat="45.99682" lon="4.7527">
        <ele>176</ele>
        <time>2018-08-22T08:40:55Z</time>
      </trkpt>
      <trkpt lat="45.99686" lon="4.75269">
        <ele>176</ele>
        <time>2018-08-22T08:40:56Z</time>
      </trkpt>
      <trkpt lat="45.99694" lon="4.75264">
        <ele>176</ele>
        <time>2018-08-22T08:40:57Z</time>
      </trkpt>
      <trkpt lat="45.99695" lon="4.75267">
        <ele>176</ele>
        <time>2018-08-22T08:40:58Z</time>
      </trkpt>
      <trkpt lat="45.99704" lon="4.75256">
        <ele>176</ele>
        <time>2018-08-22T08:40:59Z</time>
      </trkpt>
      <trkpt lat="45.99714" lon="4.75252">
        <ele>176</ele>
        <time>2018-08-22T08:41:00Z</time>
      </trkpt>
      <trkpt lat="45.99722" lon="4.75249">
        <ele>175</ele>
        <time>2018-08-22T08:41:01Z</time>
      </trkpt>
      <trkpt lat="45.99729" lon="4.75244">
        <ele>175</ele>
        <time>2018-08-22T08:41:02Z</time>
      </trkpt>
      <trkpt lat="45.99734" lon="4.7524">
        <ele>175</ele>
        <time>2018-08-22T08:41:03Z</time>
      </trkpt>
      <trkpt lat="45.99739" lon="4.75241">
        <ele>175</ele>
        <time>2018-08-22T08:41:04Z</time>
      </trkpt>
      <trkpt lat="45.99743" lon="4.75242">
        <ele>175</ele>
        <time>2018-08-22T08:41:05Z</time>
      </trkpt>
      <trkpt lat="45.99755" lon="4.75229">
        <ele>175</ele>
        <time>2018-08-22T08:41:06Z</time>
      </trkpt>
      <trkpt lat="45.99762" lon="4.75228">
        <ele>175</ele>
        <time>2018-08-22T08:41:07Z</time>
      </trkpt>
      <trkpt lat="45.99768" lon="4.75226">
        <ele>175</ele>
        <time>2018-08-22T08:41:08Z</time>
      </trkpt>
      <trkpt lat="45.99773" lon="4.75224">
        <ele>175</ele>
        <time>2018-08-22T08:41:09Z</time>
      </trkpt>
      <trkpt lat="45.99779" lon="4.75224">
        <ele>175</ele>
        <time>2018-08-22T08:41:10Z</time>
      </trkpt>
      <trkpt lat="45.99787" lon="4.7522">
        <ele>174</ele>
        <time>2018-08-22T08:41:11Z</time>
      </trkpt>
      <trkpt lat="45.99793" lon="4.75216">
        <ele>174</ele>
        <time>2018-08-22T08:41:12Z</time>
      </trkpt>
      <trkpt lat="45.99799" lon="4.75212">
        <ele>174</ele>
        <time>2018-08-22T08:41:13Z</time>
      </trkpt>
      <trkpt lat="45.99805" lon="4.75209">
        <ele>174</ele>
        <time>2018-08-22T08:41:14Z</time>
      </trkpt>
      <trkpt lat="45.99811" lon="4.75207">
        <ele>174</ele>
        <time>2018-08-22T08:41:15Z</time>
      </trkpt>
      <trkpt lat="45.99818" lon="4.75203">
        <ele>174</ele>
        <time>2018-08-22T08:41:16Z</time>
      </trkpt>
      <trkpt lat="45.99823" lon="4.75201">
        <ele>174</ele>
        <time>2018-08-22T08:41:17Z</time>
      </trkpt>
      <trkpt lat="45.99829" lon="4.75199">
        <ele>174</ele>
        <time>2018-08-22T08:41:18Z</time>
      </trkpt>
      <trkpt lat="45.99834" lon="4.75197">
        <ele>174</ele>
        <time>2018-08-22T08:41:19Z</time>
      </trkpt>
      <trkpt lat="45.99838" lon="4.75197">
        <ele>174</ele>
        <time>2018-08-22T08:41:20Z</time>
      </trkpt>
      <trkpt lat="45.99843" lon="4.75193">
        <ele>174</ele>
        <time>2018-08-22T08:41:21Z</time>
      </trkpt>
      <trkpt lat="45.99851" lon="4.75188">
        <ele>174</ele>
        <time>2018-08-22T08:41:22Z</time>
      </trkpt>
      <trkpt lat="45.99859" lon="4.75182">
        <ele>174</ele>
        <time>2018-08-22T08:41:23Z</time>
      </trkpt>
      <trkpt lat="45.99863" lon="4.7518">
        <ele>174</ele>
        <time>2018-08-22T08:41:24Z</time>
      </trkpt>
      <trkpt lat="45.99872" lon="4.75179">
        <ele>174</ele>
        <time>2018-08-22T08:41:26Z</time>
      </trkpt>
      <trkpt lat="45.99877" lon="4.75176">
        <ele>174</ele>
        <time>2018-08-22T08:41:27Z</time>
      </trkpt>
      <trkpt lat="45.99885" lon="4.75174">
        <ele>174</ele>
        <time>2018-08-22T08:41:29Z</time>
      </trkpt>
      <trkpt lat="45.9989" lon="4.7517">
        <ele>174</ele>
        <time>2018-08-22T08:41:30Z</time>
      </trkpt>
      <trkpt lat="45.99894" lon="4.75168">
        <ele>174</ele>
        <time>2018-08-22T08:41:31Z</time>
      </trkpt>
      <trkpt lat="45.99899" lon="4.75165">
        <ele>172</ele>
        <time>2018-08-22T08:41:32Z</time>
      </trkpt>
      <trkpt lat="45.99904" lon="4.75162">
        <ele>173</ele>
        <time>2018-08-22T08:41:33Z</time>
      </trkpt>
      <trkpt lat="45.99909" lon="4.7516">
        <ele>173</ele>
        <time>2018-08-22T08:41:34Z</time>
      </trkpt>
      <trkpt lat="45.99916" lon="4.75156">
        <ele>173</ele>
        <time>2018-08-22T08:41:35Z</time>
      </trkpt>
      <trkpt lat="45.99921" lon="4.75154">
        <ele>173</ele>
        <time>2018-08-22T08:41:36Z</time>
      </trkpt>
      <trkpt lat="45.99926" lon="4.75152">
        <ele>173</ele>
        <time>2018-08-22T08:41:37Z</time>
      </trkpt>
      <trkpt lat="45.99932" lon="4.75149">
        <ele>173</ele>
        <time>2018-08-22T08:41:38Z</time>
      </trkpt>
      <trkpt lat="45.99937" lon="4.75147">
        <ele>173</ele>
        <time>2018-08-22T08:41:39Z</time>
      </trkpt>
      <trkpt lat="45.99942" lon="4.75144">
        <ele>173</ele>
        <time>2018-08-22T08:41:40Z</time>
      </trkpt>
      <trkpt lat="45.99947" lon="4.75143">
        <ele>173</ele>
        <time>2018-08-22T08:41:41Z</time>
      </trkpt>
      <trkpt lat="45.99952" lon="4.7514">
        <ele>173</ele>
        <time>2018-08-22T08:41:42Z</time>
      </trkpt>
      <trkpt lat="45.99959" lon="4.75136">
        <ele>173</ele>
        <time>2018-08-22T08:41:43Z</time>
      </trkpt>
      <trkpt lat="45.99965" lon="4.75133">
        <ele>173</ele>
        <time>2018-08-22T08:41:44Z</time>
      </trkpt>
      <trkpt lat="45.9997" lon="4.75132">
        <ele>173</ele>
        <time>2018-08-22T08:41:45Z</time>
      </trkpt>
      <trkpt lat="45.99976" lon="4.75129">
        <ele>173</ele>
        <time>2018-08-22T08:41:46Z</time>
      </trkpt>
      <trkpt lat="45.99984" lon="4.75126">
        <ele>173</ele>
        <time>2018-08-22T08:41:48Z</time>
      </trkpt>
      <trkpt lat="45.99988" lon="4.75126">
        <ele>173</ele>
        <time>2018-08-22T08:41:49Z</time>
      </trkpt>
      <trkpt lat="45.99993" lon="4.75124">
        <ele>173</ele>
        <time>2018-08-22T08:41:50Z</time>
      </trkpt>
      <trkpt lat="45.99999" lon="4.75124">
        <ele>173</ele>
        <time>2018-08-22T08:41:51Z</time>
      </trkpt>
      <trkpt lat="46.00003" lon="4.75125">
        <ele>174</ele>
        <time>2018-08-22T08:41:52Z</time>
      </trkpt>
      <trkpt lat="46.00009" lon="4.75124">
        <ele>174</ele>
        <time>2018-08-22T08:41:53Z</time>
      </trkpt>
      <trkpt lat="46.00014" lon="4.75122">
        <ele>174</ele>
        <time>2018-08-22T08:41:54Z</time>
      </trkpt>
      <trkpt lat="46.00021" lon="4.75119">
        <ele>174</ele>
        <time>2018-08-22T08:41:55Z</time>
      </trkpt>
      <trkpt lat="46.00027" lon="4.75116">
        <ele>174</ele>
        <time>2018-08-22T08:41:56Z</time>
      </trkpt>
      <trkpt lat="46.00032" lon="4.75115">
        <ele>174</ele>
        <time>2018-08-22T08:41:57Z</time>
      </trkpt>
      <trkpt lat="46.00036" lon="4.75114">
        <ele>174</ele>
        <time>2018-08-22T08:41:58Z</time>
      </trkpt>
      <trkpt lat="46.00042" lon="4.75113">
        <ele>174</ele>
        <time>2018-08-22T08:41:59Z</time>
      </trkpt>
      <trkpt lat="46.00048" lon="4.75113">
        <ele>174</ele>
        <time>2018-08-22T08:42:00Z</time>
      </trkpt>
      <trkpt lat="46.00055" lon="4.75109">
        <ele>174</ele>
        <time>2018-08-22T08:42:01Z</time>
      </trkpt>
      <trkpt lat="46.00062" lon="4.7511">
        <ele>174</ele>
        <time>2018-08-22T08:42:02Z</time>
      </trkpt>
      <trkpt lat="46.00068" lon="4.75109">
        <ele>174</ele>
        <time>2018-08-22T08:42:03Z</time>
      </trkpt>
      <trkpt lat="46.00074" lon="4.75108">
        <ele>174</ele>
        <time>2018-08-22T08:42:04Z</time>
      </trkpt>
      <trkpt lat="46.00078" lon="4.75108">
        <ele>174</ele>
        <time>2018-08-22T08:42:05Z</time>
      </trkpt>
      <trkpt lat="46.00084" lon="4.75109">
        <ele>174</ele>
        <time>2018-08-22T08:42:06Z</time>
      </trkpt>
      <trkpt lat="46.00087" lon="4.75116">
        <ele>175</ele>
        <time>2018-08-22T08:42:07Z</time>
      </trkpt>
      <trkpt lat="46.0009" lon="4.75117">
        <ele>175</ele>
        <time>2018-08-22T08:42:08Z</time>
      </trkpt>
      <trkpt lat="46.00098" lon="4.75112">
        <ele>175</ele>
        <time>2018-08-22T08:42:09Z</time>
      </trkpt>
      <trkpt lat="46.00105" lon="4.75114">
        <ele>175</ele>
        <time>2018-08-22T08:42:10Z</time>
      </trkpt>
      <trkpt lat="46.00112" lon="4.75105">
        <ele>175</ele>
        <time>2018-08-22T08:42:11Z</time>
      </trkpt>
      <trkpt lat="46.00117" lon="4.75103">
        <ele>175</ele>
        <time>2018-08-22T08:42:12Z</time>
      </trkpt>
      <trkpt lat="46.00121" lon="4.75113">
        <ele>175</ele>
        <time>2018-08-22T08:42:13Z</time>
      </trkpt>
      <trkpt lat="46.00124" lon="4.75116">
        <ele>175</ele>
        <time>2018-08-22T08:42:14Z</time>
      </trkpt>
      <trkpt lat="46.00131" lon="4.75115">
        <ele>175</ele>
        <time>2018-08-22T08:42:15Z</time>
      </trkpt>
      <trkpt lat="46.00136" lon="4.75113">
        <ele>175</ele>
        <time>2018-08-22T08:42:16Z</time>
      </trkpt>
      <trkpt lat="46.00141" lon="4.75115">
        <ele>175</ele>
        <time>2018-08-22T08:42:17Z</time>
      </trkpt>
      <trkpt lat="46.00145" lon="4.75114">
        <ele>175</ele>
        <time>2018-08-22T08:42:18Z</time>
      </trkpt>
      <trkpt lat="46.00151" lon="4.75112">
        <ele>175</ele>
        <time>2018-08-22T08:42:19Z</time>
      </trkpt>
      <trkpt lat="46.0016" lon="4.75114">
        <ele>175</ele>
        <time>2018-08-22T08:42:21Z</time>
      </trkpt>
      <trkpt lat="46.00167" lon="4.75112">
        <ele>176</ele>
        <time>2018-08-22T08:42:22Z</time>
      </trkpt>
      <trkpt lat="46.00174" lon="4.75111">
        <ele>176</ele>
        <time>2018-08-22T08:42:23Z</time>
      </trkpt>
      <trkpt lat="46.00179" lon="4.75111">
        <ele>176</ele>
        <time>2018-08-22T08:42:24Z</time>
      </trkpt>
      <trkpt lat="46.00185" lon="4.75112">
        <ele>176</ele>
        <time>2018-08-22T08:42:25Z</time>
      </trkpt>
      <trkpt lat="46.00191" lon="4.75113">
        <ele>176</ele>
        <time>2018-08-22T08:42:26Z</time>
      </trkpt>
      <trkpt lat="46.00196" lon="4.75113">
        <ele>176</ele>
        <time>2018-08-22T08:42:27Z</time>
      </trkpt>
      <trkpt lat="46.00201" lon="4.75112">
        <ele>176</ele>
        <time>2018-08-22T08:42:28Z</time>
      </trkpt>
      <trkpt lat="46.00206" lon="4.75111">
        <ele>176</ele>
        <time>2018-08-22T08:42:30Z</time>
      </trkpt>
      <trkpt lat="46.00211" lon="4.75114">
        <ele>176</ele>
        <time>2018-08-22T08:42:31Z</time>
      </trkpt>
      <trkpt lat="46.00215" lon="4.75121">
        <ele>176</ele>
        <time>2018-08-22T08:42:33Z</time>
      </trkpt>
      <trkpt lat="46.00215" lon="4.75128">
        <ele>176</ele>
        <time>2018-08-22T08:42:34Z</time>
      </trkpt>
      <trkpt lat="46.0021" lon="4.75135">
        <ele>176</ele>
        <time>2018-08-22T08:42:35Z</time>
      </trkpt>
      <trkpt lat="46.00209" lon="4.75141">
        <ele>176</ele>
        <time>2018-08-22T08:42:36Z</time>
      </trkpt>
      <trkpt lat="46.0021" lon="4.75149">
        <ele>177</ele>
        <time>2018-08-22T08:42:37Z</time>
      </trkpt>
      <trkpt lat="46.00211" lon="4.75156">
        <ele>177</ele>
        <time>2018-08-22T08:42:38Z</time>
      </trkpt>
      <trkpt lat="46.00212" lon="4.75169">
        <ele>179</ele>
        <time>2018-08-22T08:42:40Z</time>
      </trkpt>
      <trkpt lat="46.00211" lon="4.75173">
        <ele>179</ele>
        <time>2018-08-22T08:42:41Z</time>
      </trkpt>
      <trkpt lat="46.00211" lon="4.75182">
        <ele>179</ele>
        <time>2018-08-22T08:42:43Z</time>
      </trkpt>
      <trkpt lat="46.00211" lon="4.7519">
        <ele>179</ele>
        <time>2018-08-22T08:42:44Z</time>
      </trkpt>
      <trkpt lat="46.0021" lon="4.75198">
        <ele>179</ele>
        <time>2018-08-22T08:42:46Z</time>
      </trkpt>
      <trkpt lat="46.00211" lon="4.75204">
        <ele>179</ele>
        <time>2018-08-22T08:42:47Z</time>
      </trkpt>
      <trkpt lat="46.00212" lon="4.75216">
        <ele>180</ele>
        <time>2018-08-22T08:42:51Z</time>
      </trkpt>
      <trkpt lat="46.00212" lon="4.75221">
        <ele>180</ele>
        <time>2018-08-22T08:42:52Z</time>
      </trkpt>
      <trkpt lat="46.00213" lon="4.75233">
        <ele>180</ele>
        <time>2018-08-22T08:42:55Z</time>
      </trkpt>
      <trkpt lat="46.00213" lon="4.75237">
        <ele>180</ele>
        <time>2018-08-22T08:42:56Z</time>
      </trkpt>
      <trkpt lat="46.00214" lon="4.75248">
        <ele>180</ele>
        <time>2018-08-22T08:42:59Z</time>
      </trkpt>
      <trkpt lat="46.00213" lon="4.75252">
        <ele>184</ele>
        <time>2018-08-22T08:43:00Z</time>
      </trkpt>
      <trkpt lat="46.00213" lon="4.75262">
        <ele>184</ele>
        <time>2018-08-22T08:43:03Z</time>
      </trkpt>
      <trkpt lat="46.00213" lon="4.75265">
        <ele>184</ele>
        <time>2018-08-22T08:43:04Z</time>
      </trkpt>
      <trkpt lat="46.00213" lon="4.75277">
        <ele>184</ele>
        <time>2018-08-22T08:43:07Z</time>
      </trkpt>
      <trkpt lat="46.00212" lon="4.7528">
        <ele>185</ele>
        <time>2018-08-22T08:43:08Z</time>
      </trkpt>
      <trkpt lat="46.00212" lon="4.75291">
        <ele>185</ele>
        <time>2018-08-22T08:43:11Z</time>
      </trkpt>
      <trkpt lat="46.00212" lon="4.75294">
        <ele>185</ele>
        <time>2018-08-22T08:43:12Z</time>
      </trkpt>
      <trkpt lat="46.00213" lon="4.75305">
        <ele>185</ele>
        <time>2018-08-22T08:43:15Z</time>
      </trkpt>
      <trkpt lat="46.00213" lon="4.75308">
        <ele>186</ele>
        <time>2018-08-22T08:43:16Z</time>
      </trkpt>
      <trkpt lat="46.00214" lon="4.75319">
        <ele>186</ele>
        <time>2018-08-22T08:43:19Z</time>
      </trkpt>
      <trkpt lat="46.00214" lon="4.75322">
        <ele>186</ele>
        <time>2018-08-22T08:43:20Z</time>
      </trkpt>
      <trkpt lat="46.00215" lon="4.75334">
        <ele>190</ele>
        <time>2018-08-22T08:43:23Z</time>
      </trkpt>
      <trkpt lat="46.00215" lon="4.75338">
        <ele>190</ele>
        <time>2018-08-22T08:43:24Z</time>
      </trkpt>
      <trkpt lat="46.00215" lon="4.75348">
        <ele>190</ele>
        <time>2018-08-22T08:43:27Z</time>
      </trkpt>
      <trkpt lat="46.00215" lon="4.75351">
        <ele>191</ele>
        <time>2018-08-22T08:43:28Z</time>
      </trkpt>
      <trkpt lat="46.00215" lon="4.75363">
        <ele>191</ele>
        <time>2018-08-22T08:43:31Z</time>
      </trkpt>
      <trkpt lat="46.00215" lon="4.75367">
        <ele>191</ele>
        <time>2018-08-22T08:43:32Z</time>
      </trkpt>
      <trkpt lat="46.00215" lon="4.75377">
        <ele>191</ele>
        <time>2018-08-22T08:43:35Z</time>
      </trkpt>
      <trkpt lat="46.00215" lon="4.75382">
        <ele>192</ele>
        <time>2018-08-22T08:43:36Z</time>
      </trkpt>
      <trkpt lat="46.00214" lon="4.75393">
        <ele>192</ele>
        <time>2018-08-22T08:43:39Z</time>
      </trkpt>
      <trkpt lat="46.00213" lon="4.75397">
        <ele>192</ele>
        <time>2018-08-22T08:43:40Z</time>
      </trkpt>
      <trkpt lat="46.00213" lon="4.75408">
        <ele>192</ele>
        <time>2018-08-22T08:43:43Z</time>
      </trkpt>
      <trkpt lat="46.00212" lon="4.75411">
        <ele>192</ele>
        <time>2018-08-22T08:43:44Z</time>
      </trkpt>
      <trkpt lat="46.00212" lon="4.75422">
        <ele>196</ele>
        <time>2018-08-22T08:43:47Z</time>
      </trkpt>
      <trkpt lat="46.00212" lon="4.75425">
        <ele>196</ele>
        <time>2018-08-22T08:43:48Z</time>
      </trkpt>
      <trkpt lat="46.00211" lon="4.75436">
        <ele>197</ele>
        <time>2018-08-22T08:43:51Z</time>
      </trkpt>
      <trkpt lat="46.00211" lon="4.7544">
        <ele>197</ele>
        <time>2018-08-22T08:43:52Z</time>
      </trkpt>
      <trkpt lat="46.00208" lon="4.75452">
        <ele>197</ele>
        <time>2018-08-22T08:43:55Z</time>
      </trkpt>
      <trkpt lat="46.00208" lon="4.75456">
        <ele>197</ele>
        <time>2018-08-22T08:43:56Z</time>
      </trkpt>
      <trkpt lat="46.00207" lon="4.75466">
        <ele>198</ele>
        <time>2018-08-22T08:43:59Z</time>
      </trkpt>
      <trkpt lat="46.00207" lon="4.7547">
        <ele>198</ele>
        <time>2018-08-22T08:44:00Z</time>
      </trkpt>
      <trkpt lat="46.00209" lon="4.75482">
        <ele>198</ele>
        <time>2018-08-22T08:44:03Z</time>
      </trkpt>
      <trkpt lat="46.00209" lon="4.75486">
        <ele>198</ele>
        <time>2018-08-22T08:44:04Z</time>
      </trkpt>
      <trkpt lat="46.00211" lon="4.75497">
        <ele>198</ele>
        <time>2018-08-22T08:44:07Z</time>
      </trkpt>
      <trkpt lat="46.00212" lon="4.755">
        <ele>198</ele>
        <time>2018-08-22T08:44:08Z</time>
      </trkpt>
      <trkpt lat="46.00213" lon="4.75512">
        <ele>204</ele>
        <time>2018-08-22T08:44:11Z</time>
      </trkpt>
      <trkpt lat="46.00214" lon="4.75515">
        <ele>204</ele>
        <time>2018-08-22T08:44:12Z</time>
      </trkpt>
      <trkpt lat="46.00215" lon="4.75524">
        <ele>205</ele>
        <time>2018-08-22T08:44:15Z</time>
      </trkpt>
      <trkpt lat="46.00216" lon="4.75528">
        <ele>205</ele>
        <time>2018-08-22T08:44:16Z</time>
      </trkpt>
      <trkpt lat="46.00217" lon="4.75537">
        <ele>205</ele>
        <time>2018-08-22T08:44:19Z</time>
      </trkpt>
      <trkpt lat="46.00217" lon="4.75541">
        <ele>206</ele>
        <time>2018-08-22T08:44:20Z</time>
      </trkpt>
      <trkpt lat="46.00217" lon="4.75551">
        <ele>206</ele>
        <time>2018-08-22T08:44:23Z</time>
      </trkpt>
      <trkpt lat="46.00218" lon="4.75554">
        <ele>206</ele>
        <time>2018-08-22T08:44:24Z</time>
      </trkpt>
      <trkpt lat="46.0022" lon="4.75566">
        <ele>207</ele>
        <time>2018-08-22T08:44:28Z</time>
      </trkpt>
      <trkpt lat="46.00221" lon="4.75569">
        <ele>207</ele>
        <time>2018-08-22T08:44:29Z</time>
      </trkpt>
      <trkpt lat="46.00225" lon="4.7558">
        <ele>206</ele>
        <time>2018-08-22T08:44:33Z</time>
      </trkpt>
      <trkpt lat="46.00226" lon="4.75582">
        <ele>206</ele>
        <time>2018-08-22T08:44:34Z</time>
      </trkpt>
      <trkpt lat="46.00232" lon="4.75591">
        <ele>210</ele>
        <time>2018-08-22T08:44:38Z</time>
      </trkpt>
      <trkpt lat="46.00233" lon="4.75593">
        <ele>210</ele>
        <time>2018-08-22T08:44:39Z</time>
      </trkpt>
      <trkpt lat="46.0024" lon="4.75601">
        <ele>210</ele>
        <time>2018-08-22T08:44:43Z</time>
      </trkpt>
      <trkpt lat="46.00249" lon="4.7561">
        <ele>211</ele>
        <time>2018-08-22T08:44:44Z</time>
      </trkpt>
      <trkpt lat="46.00255" lon="4.75616">
        <ele>206</ele>
        <time>2018-08-22T08:44:48Z</time>
      </trkpt>
      <trkpt lat="46.00256" lon="4.75618">
        <ele>206</ele>
        <time>2018-08-22T08:44:49Z</time>
      </trkpt>
      <trkpt lat="46.00262" lon="4.75626">
        <ele>206</ele>
        <time>2018-08-22T08:44:54Z</time>
      </trkpt>
      <trkpt lat="46.00264" lon="4.75628">
        <ele>206</ele>
        <time>2018-08-22T08:44:55Z</time>
      </trkpt>
      <trkpt lat="46.00268" lon="4.75636">
        <ele>207</ele>
        <time>2018-08-22T08:44:58Z</time>
      </trkpt>
      <trkpt lat="46.0027" lon="4.75638">
        <ele>207</ele>
        <time>2018-08-22T08:44:59Z</time>
      </trkpt>
      <trkpt lat="46.00274" lon="4.75648">
        <ele>207</ele>
        <time>2018-08-22T08:45:03Z</time>
      </trkpt>
      <trkpt lat="46.00275" lon="4.75651">
        <ele>207</ele>
        <time>2018-08-22T08:45:04Z</time>
      </trkpt>
      <trkpt lat="46.00282" lon="4.7566">
        <ele>207</ele>
        <time>2018-08-22T08:45:08Z</time>
      </trkpt>
      <trkpt lat="46.00284" lon="4.75662">
        <ele>207</ele>
        <time>2018-08-22T08:45:09Z</time>
      </trkpt>
      <trkpt lat="46.00292" lon="4.75671">
        <ele>208</ele>
        <time>2018-08-22T08:45:10Z</time>
      </trkpt>
      <trkpt lat="46.00297" lon="4.75679">
        <ele>208</ele>
        <time>2018-08-22T08:45:14Z</time>
      </trkpt>
      <trkpt lat="46.00299" lon="4.75681">
        <ele>208</ele>
        <time>2018-08-22T08:45:15Z</time>
      </trkpt>
      <trkpt lat="46.00303" lon="4.75689">
        <ele>208</ele>
        <time>2018-08-22T08:45:18Z</time>
      </trkpt>
      <trkpt lat="46.00305" lon="4.75691">
        <ele>208</ele>
        <time>2018-08-22T08:45:19Z</time>
      </trkpt>
      <trkpt lat="46.0031" lon="4.75701">
        <ele>208</ele>
        <time>2018-08-22T08:45:23Z</time>
      </trkpt>
      <trkpt lat="46.00312" lon="4.75704">
        <ele>208</ele>
        <time>2018-08-22T08:45:24Z</time>
      </trkpt>
      <trkpt lat="46.00317" lon="4.75712">
        <ele>208</ele>
        <time>2018-08-22T08:45:27Z</time>
      </trkpt>
      <trkpt lat="46.00319" lon="4.75715">
        <ele>208</ele>
        <time>2018-08-22T08:45:28Z</time>
      </trkpt>
      <trkpt lat="46.00324" lon="4.75722">
        <ele>208</ele>
        <time>2018-08-22T08:45:31Z</time>
      </trkpt>
      <trkpt lat="46.00326" lon="4.75725">
        <ele>208</ele>
        <time>2018-08-22T08:45:32Z</time>
      </trkpt>
      <trkpt lat="46.00331" lon="4.75731">
        <ele>208</ele>
        <time>2018-08-22T08:45:34Z</time>
      </trkpt>
      <trkpt lat="46.00333" lon="4.75733">
        <ele>208</ele>
        <time>2018-08-22T08:45:35Z</time>
      </trkpt>
      <trkpt lat="46.00339" lon="4.7574">
        <ele>209</ele>
        <time>2018-08-22T08:45:38Z</time>
      </trkpt>
      <trkpt lat="46.00341" lon="4.75742">
        <ele>209</ele>
        <time>2018-08-22T08:45:39Z</time>
      </trkpt>
      <trkpt lat="46.00347" lon="4.7575">
        <ele>210</ele>
        <time>2018-08-22T08:45:42Z</time>
      </trkpt>
      <trkpt lat="46.00349" lon="4.75753">
        <ele>211</ele>
        <time>2018-08-22T08:45:43Z</time>
      </trkpt>
      <trkpt lat="46.00356" lon="4.75759">
        <ele>211</ele>
        <time>2018-08-22T08:45:46Z</time>
      </trkpt>
      <trkpt lat="46.00359" lon="4.75761">
        <ele>212</ele>
        <time>2018-08-22T08:45:47Z</time>
      </trkpt>
      <trkpt lat="46.00365" lon="4.75769">
        <ele>212</ele>
        <time>2018-08-22T08:45:50Z</time>
      </trkpt>
      <trkpt lat="46.00367" lon="4.75771">
        <ele>212</ele>
        <time>2018-08-22T08:45:51Z</time>
      </trkpt>
      <trkpt lat="46.00373" lon="4.75779">
        <ele>213</ele>
        <time>2018-08-22T08:45:54Z</time>
      </trkpt>
      <trkpt lat="46.00375" lon="4.75781">
        <ele>213</ele>
        <time>2018-08-22T08:45:55Z</time>
      </trkpt>
      <trkpt lat="46.00381" lon="4.75789">
        <ele>213</ele>
        <time>2018-08-22T08:45:58Z</time>
      </trkpt>
      <trkpt lat="46.00383" lon="4.75792">
        <ele>213</ele>
        <time>2018-08-22T08:45:59Z</time>
      </trkpt>
      <trkpt lat="46.00388" lon="4.75801">
        <ele>213</ele>
        <time>2018-08-22T08:46:02Z</time>
      </trkpt>
      <trkpt lat="46.0039" lon="4.75804">
        <ele>213</ele>
        <time>2018-08-22T08:46:03Z</time>
      </trkpt>
      <trkpt lat="46.00395" lon="4.75812">
        <ele>213</ele>
        <time>2018-08-22T08:46:06Z</time>
      </trkpt>
      <trkpt lat="46.00397" lon="4.75814">
        <ele>213</ele>
        <time>2018-08-22T08:46:07Z</time>
      </trkpt>
      <trkpt lat="46.00401" lon="4.75822">
        <ele>213</ele>
        <time>2018-08-22T08:46:10Z</time>
      </trkpt>
      <trkpt lat="46.00402" lon="4.75825">
        <ele>213</ele>
        <time>2018-08-22T08:46:11Z</time>
      </trkpt>
      <trkpt lat="46.00405" lon="4.75836">
        <ele>214</ele>
        <time>2018-08-22T08:46:14Z</time>
      </trkpt>
      <trkpt lat="46.00406" lon="4.75839">
        <ele>214</ele>
        <time>2018-08-22T08:46:15Z</time>
      </trkpt>
      <trkpt lat="46.0041" lon="4.75848">
        <ele>214</ele>
        <time>2018-08-22T08:46:18Z</time>
      </trkpt>
      <trkpt lat="46.00412" lon="4.75851">
        <ele>214</ele>
        <time>2018-08-22T08:46:19Z</time>
      </trkpt>
      <trkpt lat="46.00416" lon="4.7586">
        <ele>215</ele>
        <time>2018-08-22T08:46:22Z</time>
      </trkpt>
      <trkpt lat="46.00418" lon="4.75863">
        <ele>216</ele>
        <time>2018-08-22T08:46:23Z</time>
      </trkpt>
      <trkpt lat="46.00422" lon="4.75872">
        <ele>217</ele>
        <time>2018-08-22T08:46:26Z</time>
      </trkpt>
      <trkpt lat="46.00424" lon="4.75875">
        <ele>217</ele>
        <time>2018-08-22T08:46:27Z</time>
      </trkpt>
      <trkpt lat="46.00429" lon="4.75885">
        <ele>217</ele>
        <time>2018-08-22T08:46:31Z</time>
      </trkpt>
      <trkpt lat="46.0043" lon="4.75888">
        <ele>217</ele>
        <time>2018-08-22T08:46:32Z</time>
      </trkpt>
      <trkpt lat="46.00435" lon="4.75895">
        <ele>217</ele>
        <time>2018-08-22T08:46:35Z</time>
      </trkpt>
      <trkpt lat="46.00437" lon="4.75897">
        <ele>217</ele>
        <time>2018-08-22T08:46:36Z</time>
      </trkpt>
      <trkpt lat="46.00441" lon="4.75907">
        <ele>217</ele>
        <time>2018-08-22T08:46:39Z</time>
      </trkpt>
      <trkpt lat="46.00442" lon="4.7591">
        <ele>217</ele>
        <time>2018-08-22T08:46:40Z</time>
      </trkpt>
      <trkpt lat="46.00445" lon="4.75919">
        <ele>218</ele>
        <time>2018-08-22T08:46:43Z</time>
      </trkpt>
      <trkpt lat="46.00445" lon="4.75922">
        <ele>218</ele>
        <time>2018-08-22T08:46:44Z</time>
      </trkpt>
      <trkpt lat="46.00446" lon="4.75933">
        <ele>218</ele>
        <time>2018-08-22T08:46:47Z</time>
      </trkpt>
      <trkpt lat="46.00446" lon="4.75936">
        <ele>218</ele>
        <time>2018-08-22T08:46:48Z</time>
      </trkpt>
      <trkpt lat="46.00446" lon="4.75949">
        <ele>219</ele>
        <time>2018-08-22T08:46:52Z</time>
      </trkpt>
      <trkpt lat="46.00446" lon="4.75951">
        <ele>219</ele>
        <time>2018-08-22T08:46:53Z</time>
      </trkpt>
      <trkpt lat="46.00442" lon="4.7596">
        <ele>219</ele>
        <time>2018-08-22T08:46:57Z</time>
      </trkpt>
      <trkpt lat="46.0044" lon="4.75962">
        <ele>219</ele>
        <time>2018-08-22T08:46:58Z</time>
      </trkpt>
      <trkpt lat="46.00434" lon="4.75968">
        <ele>219</ele>
        <time>2018-08-22T08:47:01Z</time>
      </trkpt>
      <trkpt lat="46.00432" lon="4.7597">
        <ele>219</ele>
        <time>2018-08-22T08:47:02Z</time>
      </trkpt>
      <trkpt lat="46.00424" lon="4.75976">
        <ele>220</ele>
        <time>2018-08-22T08:47:05Z</time>
      </trkpt>
      <trkpt lat="46.00422" lon="4.75978">
        <ele>220</ele>
        <time>2018-08-22T08:47:06Z</time>
      </trkpt>
      <trkpt lat="46.00415" lon="4.75982">
        <ele>221</ele>
        <time>2018-08-22T08:47:09Z</time>
      </trkpt>
      <trkpt lat="46.00413" lon="4.75983">
        <ele>221</ele>
        <time>2018-08-22T08:47:10Z</time>
      </trkpt>
      <trkpt lat="46.00406" lon="4.75987">
        <ele>221</ele>
        <time>2018-08-22T08:47:14Z</time>
      </trkpt>
      <trkpt lat="46.00404" lon="4.75989">
        <ele>221</ele>
        <time>2018-08-22T08:47:15Z</time>
      </trkpt>
      <trkpt lat="46.00397" lon="4.75997">
        <ele>221</ele>
        <time>2018-08-22T08:47:19Z</time>
      </trkpt>
      <trkpt lat="46.00395" lon="4.75999">
        <ele>221</ele>
        <time>2018-08-22T08:47:20Z</time>
      </trkpt>
      <trkpt lat="46.0039" lon="4.76006">
        <ele>224</ele>
        <time>2018-08-22T08:47:23Z</time>
      </trkpt>
      <trkpt lat="46.00388" lon="4.76008">
        <ele>224</ele>
        <time>2018-08-22T08:47:24Z</time>
      </trkpt>
      <trkpt lat="46.0038" lon="4.76012">
        <ele>224</ele>
        <time>2018-08-22T08:47:28Z</time>
      </trkpt>
      <trkpt lat="46.00378" lon="4.76013">
        <ele>225</ele>
        <time>2018-08-22T08:47:29Z</time>
      </trkpt>
      <trkpt lat="46.00371" lon="4.76019">
        <ele>225</ele>
        <time>2018-08-22T08:47:33Z</time>
      </trkpt>
      <trkpt lat="46.00369" lon="4.76021">
        <ele>225</ele>
        <time>2018-08-22T08:47:34Z</time>
      </trkpt>
      <trkpt lat="46.00366" lon="4.76031">
        <ele>225</ele>
        <time>2018-08-22T08:47:37Z</time>
      </trkpt>
      <trkpt lat="46.00365" lon="4.76034">
        <ele>225</ele>
        <time>2018-08-22T08:47:38Z</time>
      </trkpt>
      <trkpt lat="46.00366" lon="4.76044">
        <ele>225</ele>
        <time>2018-08-22T08:47:41Z</time>
      </trkpt>
      <trkpt lat="46.00367" lon="4.76048">
        <ele>226</ele>
        <time>2018-08-22T08:47:42Z</time>
      </trkpt>
      <trkpt lat="46.00371" lon="4.76055">
        <ele>226</ele>
        <time>2018-08-22T08:47:44Z</time>
      </trkpt>
      <trkpt lat="46.00373" lon="4.76059">
        <ele>226</ele>
        <time>2018-08-22T08:47:45Z</time>
      </trkpt>
      <trkpt lat="46.00379" lon="4.76065">
        <ele>226</ele>
        <time>2018-08-22T08:47:48Z</time>
      </trkpt>
      <trkpt lat="46.00382" lon="4.76066">
        <ele>226</ele>
        <time>2018-08-22T08:47:49Z</time>
      </trkpt>
      <trkpt lat="46.0039" lon="4.76069">
        <ele>226</ele>
        <time>2018-08-22T08:47:52Z</time>
      </trkpt>
      <trkpt lat="46.00393" lon="4.7607">
        <ele>226</ele>
        <time>2018-08-22T08:47:53Z</time>
      </trkpt>
      <trkpt lat="46.00402" lon="4.76072">
        <ele>226</ele>
        <time>2018-08-22T08:47:56Z</time>
      </trkpt>
      <trkpt lat="46.00404" lon="4.76073">
        <ele>226</ele>
        <time>2018-08-22T08:47:57Z</time>
      </trkpt>
      <trkpt lat="46.00413" lon="4.76074">
        <ele>226</ele>
        <time>2018-08-22T08:48:00Z</time>
      </trkpt>
      <trkpt lat="46.00416" lon="4.76074">
        <ele>226</ele>
        <time>2018-08-22T08:48:01Z</time>
      </trkpt>
      <trkpt lat="46.00424" lon="4.76076">
        <ele>225</ele>
        <time>2018-08-22T08:48:04Z</time>
      </trkpt>
      <trkpt lat="46.00427" lon="4.76076">
        <ele>225</ele>
        <time>2018-08-22T08:48:05Z</time>
      </trkpt>
      <trkpt lat="46.00435" lon="4.7608">
        <ele>224</ele>
        <time>2018-08-22T08:48:08Z</time>
      </trkpt>
      <trkpt lat="46.00438" lon="4.76081">
        <ele>224</ele>
        <time>2018-08-22T08:48:09Z</time>
      </trkpt>
      <trkpt lat="46.00447" lon="4.76086">
        <ele>227</ele>
        <time>2018-08-22T08:48:10Z</time>
      </trkpt>
      <trkpt lat="46.00455" lon="4.76093">
        <ele>227</ele>
        <time>2018-08-22T08:48:15Z</time>
      </trkpt>
      <trkpt lat="46.00456" lon="4.76094">
        <ele>227</ele>
        <time>2018-08-22T08:48:16Z</time>
      </trkpt>
      <trkpt lat="46.00462" lon="4.76099">
        <ele>227</ele>
        <time>2018-08-22T08:48:19Z</time>
      </trkpt>
      <trkpt lat="46.00465" lon="4.76101">
        <ele>227</ele>
        <time>2018-08-22T08:48:20Z</time>
      </trkpt>
      <trkpt lat="46.00471" lon="4.76106">
        <ele>227</ele>
        <time>2018-08-22T08:48:23Z</time>
      </trkpt>
      <trkpt lat="46.00473" lon="4.76107">
        <ele>227</ele>
        <time>2018-08-22T08:48:24Z</time>
      </trkpt>
      <trkpt lat="46.00478" lon="4.76115">
        <ele>227</ele>
        <time>2018-08-22T08:48:27Z</time>
      </trkpt>
      <trkpt lat="46.0048" lon="4.76117">
        <ele>227</ele>
        <time>2018-08-22T08:48:28Z</time>
      </trkpt>
      <trkpt lat="46.00485" lon="4.76125">
        <ele>227</ele>
        <time>2018-08-22T08:48:31Z</time>
      </trkpt>
      <trkpt lat="46.00487" lon="4.76127">
        <ele>227</ele>
        <time>2018-08-22T08:48:32Z</time>
      </trkpt>
      <trkpt lat="46.00493" lon="4.76135">
        <ele>228</ele>
        <time>2018-08-22T08:48:36Z</time>
      </trkpt>
      <trkpt lat="46.00495" lon="4.76137">
        <ele>228</ele>
        <time>2018-08-22T08:48:37Z</time>
      </trkpt>
      <trkpt lat="46.00501" lon="4.76145">
        <ele>228</ele>
        <time>2018-08-22T08:48:41Z</time>
      </trkpt>
      <trkpt lat="46.00503" lon="4.76147">
        <ele>228</ele>
        <time>2018-08-22T08:48:42Z</time>
      </trkpt>
      <trkpt lat="46.00509" lon="4.76153">
        <ele>228</ele>
        <time>2018-08-22T08:48:45Z</time>
      </trkpt>
      <trkpt lat="46.00511" lon="4.76155">
        <ele>228</ele>
        <time>2018-08-22T08:48:46Z</time>
      </trkpt>
      <trkpt lat="46.00518" lon="4.76161">
        <ele>228</ele>
        <time>2018-08-22T08:48:49Z</time>
      </trkpt>
      <trkpt lat="46.0052" lon="4.76164">
        <ele>228</ele>
        <time>2018-08-22T08:48:50Z</time>
      </trkpt>
      <trkpt lat="46.00527" lon="4.76169">
        <ele>230</ele>
        <time>2018-08-22T08:48:53Z</time>
      </trkpt>
      <trkpt lat="46.00529" lon="4.7617">
        <ele>230</ele>
        <time>2018-08-22T08:48:54Z</time>
      </trkpt>
      <trkpt lat="46.00536" lon="4.76174">
        <ele>230</ele>
        <time>2018-08-22T08:48:57Z</time>
      </trkpt>
      <trkpt lat="46.00538" lon="4.76175">
        <ele>230</ele>
        <time>2018-08-22T08:48:58Z</time>
      </trkpt>
      <trkpt lat="46.00546" lon="4.76177">
        <ele>230</ele>
        <time>2018-08-22T08:49:01Z</time>
      </trkpt>
      <trkpt lat="46.00549" lon="4.76177">
        <ele>230</ele>
        <time>2018-08-22T08:49:02Z</time>
      </trkpt>
      <trkpt lat="46.00557" lon="4.76179">
        <ele>230</ele>
        <time>2018-08-22T08:49:05Z</time>
      </trkpt>
      <trkpt lat="46.00559" lon="4.7618">
        <ele>230</ele>
        <time>2018-08-22T08:49:06Z</time>
      </trkpt>
      <trkpt lat="46.00566" lon="4.76184">
        <ele>230</ele>
        <time>2018-08-22T08:49:09Z</time>
      </trkpt>
      <trkpt lat="46.00569" lon="4.76185">
        <ele>230</ele>
        <time>2018-08-22T08:49:10Z</time>
      </trkpt>
      <trkpt lat="46.00577" lon="4.76186">
        <ele>230</ele>
        <time>2018-08-22T08:49:13Z</time>
      </trkpt>
      <trkpt lat="46.0058" lon="4.76187">
        <ele>230</ele>
        <time>2018-08-22T08:49:14Z</time>
      </trkpt>
      <trkpt lat="46.00587" lon="4.76189">
        <ele>230</ele>
        <time>2018-08-22T08:49:17Z</time>
      </trkpt>
      <trkpt lat="46.00589" lon="4.7619">
        <ele>230</ele>
        <time>2018-08-22T08:49:18Z</time>
      </trkpt>
      <trkpt lat="46.00596" lon="4.76193">
        <ele>230</ele>
        <time>2018-08-22T08:49:21Z</time>
      </trkpt>
      <trkpt lat="46.00599" lon="4.76194">
        <ele>230</ele>
        <time>2018-08-22T08:49:22Z</time>
      </trkpt>
      <trkpt lat="46.00605" lon="4.76197">
        <ele>230</ele>
        <time>2018-08-22T08:49:25Z</time>
      </trkpt>
      <trkpt lat="46.00607" lon="4.76198">
        <ele>230</ele>
        <time>2018-08-22T08:49:26Z</time>
      </trkpt>
      <trkpt lat="46.00614" lon="4.762">
        <ele>230</ele>
        <time>2018-08-22T08:49:29Z</time>
      </trkpt>
      <trkpt lat="46.00617" lon="4.762">
        <ele>230</ele>
        <time>2018-08-22T08:49:30Z</time>
      </trkpt>
      <trkpt lat="46.00625" lon="4.76201">
        <ele>230</ele>
        <time>2018-08-22T08:49:33Z</time>
      </trkpt>
      <trkpt lat="46.00627" lon="4.76201">
        <ele>230</ele>
        <time>2018-08-22T08:49:34Z</time>
      </trkpt>
      <trkpt lat="46.00633" lon="4.76195">
        <ele>230</ele>
        <time>2018-08-22T08:49:35Z</time>
      </trkpt>
      <trkpt lat="46.00634" lon="4.76189">
        <ele>230</ele>
        <time>2018-08-22T08:49:36Z</time>
      </trkpt>
      <trkpt lat="46.00632" lon="4.7618">
        <ele>230</ele>
        <time>2018-08-22T08:49:38Z</time>
      </trkpt>
      <trkpt lat="46.00631" lon="4.76172">
        <ele>230</ele>
        <time>2018-08-22T08:49:39Z</time>
      </trkpt>
      <trkpt lat="46.00633" lon="4.76163">
        <ele>228</ele>
        <time>2018-08-22T08:49:41Z</time>
      </trkpt>
      <trkpt lat="46.00636" lon="4.76156">
        <ele>228</ele>
        <time>2018-08-22T08:49:42Z</time>
      </trkpt>
      <trkpt lat="46.00639" lon="4.7615">
        <ele>228</ele>
        <time>2018-08-22T08:49:43Z</time>
      </trkpt>
      <trkpt lat="46.00647" lon="4.76144">
        <ele>228</ele>
        <time>2018-08-22T08:49:44Z</time>
      </trkpt>
      <trkpt lat="46.00651" lon="4.76136">
        <ele>228</ele>
        <time>2018-08-22T08:49:45Z</time>
      </trkpt>
      <trkpt lat="46.00658" lon="4.76131">
        <ele>228</ele>
        <time>2018-08-22T08:49:46Z</time>
      </trkpt>
      <trkpt lat="46.00666" lon="4.76125">
        <ele>228</ele>
        <time>2018-08-22T08:49:47Z</time>
      </trkpt>
      <trkpt lat="46.00673" lon="4.76119">
        <ele>226</ele>
        <time>2018-08-22T08:49:48Z</time>
      </trkpt>
      <trkpt lat="46.00682" lon="4.76118">
        <ele>225</ele>
        <time>2018-08-22T08:49:49Z</time>
      </trkpt>
      <trkpt lat="46.00693" lon="4.76117">
        <ele>225</ele>
        <time>2018-08-22T08:49:50Z</time>
      </trkpt>
      <trkpt lat="46.00704" lon="4.76117">
        <ele>225</ele>
        <time>2018-08-22T08:49:51Z</time>
      </trkpt>
      <trkpt lat="46.00713" lon="4.76118">
        <ele>224</ele>
        <time>2018-08-22T08:49:52Z</time>
      </trkpt>
      <trkpt lat="46.00723" lon="4.76117">
        <ele>224</ele>
        <time>2018-08-22T08:49:53Z</time>
      </trkpt>
      <trkpt lat="46.00733" lon="4.76117">
        <ele>223</ele>
        <time>2018-08-22T08:49:54Z</time>
      </trkpt>
      <trkpt lat="46.00744" lon="4.76117">
        <ele>223</ele>
        <time>2018-08-22T08:49:55Z</time>
      </trkpt>
      <trkpt lat="46.00754" lon="4.76116">
        <ele>219</ele>
        <time>2018-08-22T08:49:56Z</time>
      </trkpt>
      <trkpt lat="46.00764" lon="4.76114">
        <ele>219</ele>
        <time>2018-08-22T08:49:57Z</time>
      </trkpt>
      <trkpt lat="46.00777" lon="4.76111">
        <ele>219</ele>
        <time>2018-08-22T08:49:58Z</time>
      </trkpt>
      <trkpt lat="46.00784" lon="4.76115">
        <ele>219</ele>
        <time>2018-08-22T08:49:59Z</time>
      </trkpt>
      <trkpt lat="46.008" lon="4.76108">
        <ele>218</ele>
        <time>2018-08-22T08:50:00Z</time>
      </trkpt>
      <trkpt lat="46.00809" lon="4.76112">
        <ele>218</ele>
        <time>2018-08-22T08:50:01Z</time>
      </trkpt>
      <trkpt lat="46.00825" lon="4.761">
        <ele>217</ele>
        <time>2018-08-22T08:50:02Z</time>
      </trkpt>
      <trkpt lat="46.00837" lon="4.76095">
        <ele>216</ele>
        <time>2018-08-22T08:50:03Z</time>
      </trkpt>
      <trkpt lat="46.00845" lon="4.76096">
        <ele>216</ele>
        <time>2018-08-22T08:50:04Z</time>
      </trkpt>
      <trkpt lat="46.00855" lon="4.76094">
        <ele>215</ele>
        <time>2018-08-22T08:50:05Z</time>
      </trkpt>
      <trkpt lat="46.00865" lon="4.76094">
        <ele>215</ele>
        <time>2018-08-22T08:50:06Z</time>
      </trkpt>
      <trkpt lat="46.00875" lon="4.7609">
        <ele>215</ele>
        <time>2018-08-22T08:50:07Z</time>
      </trkpt>
      <trkpt lat="46.00885" lon="4.76088">
        <ele>215</ele>
        <time>2018-08-22T08:50:08Z</time>
      </trkpt>
      <trkpt lat="46.00894" lon="4.76087">
        <ele>214</ele>
        <time>2018-08-22T08:50:09Z</time>
      </trkpt>
      <trkpt lat="46.00905" lon="4.76084">
        <ele>214</ele>
        <time>2018-08-22T08:50:10Z</time>
      </trkpt>
      <trkpt lat="46.00914" lon="4.76082">
        <ele>213</ele>
        <time>2018-08-22T08:50:11Z</time>
      </trkpt>
      <trkpt lat="46.00924" lon="4.76081">
        <ele>213</ele>
        <time>2018-08-22T08:50:12Z</time>
      </trkpt>
      <trkpt lat="46.00934" lon="4.76081">
        <ele>212</ele>
        <time>2018-08-22T08:50:13Z</time>
      </trkpt>
      <trkpt lat="46.00943" lon="4.76078">
        <ele>212</ele>
        <time>2018-08-22T08:50:14Z</time>
      </trkpt>
      <trkpt lat="46.00954" lon="4.76075">
        <ele>212</ele>
        <time>2018-08-22T08:50:15Z</time>
      </trkpt>
      <trkpt lat="46.00963" lon="4.76073">
        <ele>212</ele>
        <time>2018-08-22T08:50:16Z</time>
      </trkpt>
      <trkpt lat="46.00973" lon="4.76072">
        <ele>212</ele>
        <time>2018-08-22T08:50:17Z</time>
      </trkpt>
      <trkpt lat="46.00984" lon="4.7607">
        <ele>212</ele>
        <time>2018-08-22T08:50:18Z</time>
      </trkpt>
      <trkpt lat="46.00992" lon="4.76069">
        <ele>212</ele>
        <time>2018-08-22T08:50:19Z</time>
      </trkpt>
      <trkpt lat="46.01002" lon="4.76066">
        <ele>211</ele>
        <time>2018-08-22T08:50:20Z</time>
      </trkpt>
      <trkpt lat="46.01009" lon="4.76069">
        <ele>211</ele>
        <time>2018-08-22T08:50:21Z</time>
      </trkpt>
      <trkpt lat="46.01017" lon="4.76069">
        <ele>210</ele>
        <time>2018-08-22T08:50:22Z</time>
      </trkpt>
      <trkpt lat="46.01023" lon="4.76069">
        <ele>210</ele>
        <time>2018-08-22T08:50:23Z</time>
      </trkpt>
      <trkpt lat="46.01035" lon="4.76069">
        <ele>210</ele>
        <time>2018-08-22T08:50:24Z</time>
      </trkpt>
      <trkpt lat="46.01047" lon="4.76069">
        <ele>210</ele>
        <time>2018-08-22T08:50:25Z</time>
      </trkpt>
      <trkpt lat="46.0106" lon="4.76067">
        <ele>209</ele>
        <time>2018-08-22T08:50:26Z</time>
      </trkpt>
      <trkpt lat="46.01065" lon="4.76068">
        <ele>209</ele>
        <time>2018-08-22T08:50:27Z</time>
      </trkpt>
      <trkpt lat="46.01077" lon="4.76067">
        <ele>209</ele>
        <time>2018-08-22T08:50:28Z</time>
      </trkpt>
      <trkpt lat="46.01082" lon="4.76067">
        <ele>209</ele>
        <time>2018-08-22T08:50:29Z</time>
      </trkpt>
      <trkpt lat="46.01093" lon="4.76058">
        <ele>208</ele>
        <time>2018-08-22T08:50:30Z</time>
      </trkpt>
      <trkpt lat="46.01096" lon="4.76063">
        <ele>208</ele>
        <time>2018-08-22T08:50:31Z</time>
      </trkpt>
      <trkpt lat="46.01107" lon="4.76058">
        <ele>208</ele>
        <time>2018-08-22T08:50:32Z</time>
      </trkpt>
      <trkpt lat="46.0112" lon="4.76053">
        <ele>208</ele>
        <time>2018-08-22T08:50:33Z</time>
      </trkpt>
      <trkpt lat="46.01127" lon="4.76051">
        <ele>208</ele>
        <time>2018-08-22T08:50:34Z</time>
      </trkpt>
      <trkpt lat="46.01134" lon="4.7605">
        <ele>208</ele>
        <time>2018-08-22T08:50:35Z</time>
      </trkpt>
      <trkpt lat="46.0114" lon="4.7605">
        <ele>208</ele>
        <time>2018-08-22T08:50:36Z</time>
      </trkpt>
      <trkpt lat="46.01148" lon="4.7605">
        <ele>208</ele>
        <time>2018-08-22T08:50:37Z</time>
      </trkpt>
      <trkpt lat="46.01153" lon="4.76048">
        <ele>208</ele>
        <time>2018-08-22T08:50:38Z</time>
      </trkpt>
      <trkpt lat="46.01158" lon="4.76048">
        <ele>208</ele>
        <time>2018-08-22T08:50:39Z</time>
      </trkpt>
      <trkpt lat="46.01164" lon="4.7605">
        <ele>208</ele>
        <time>2018-08-22T08:50:40Z</time>
      </trkpt>
      <trkpt lat="46.01171" lon="4.76053">
        <ele>207</ele>
        <time>2018-08-22T08:50:41Z</time>
      </trkpt>
      <trkpt lat="46.01176" lon="4.76058">
        <ele>207</ele>
        <time>2018-08-22T08:50:42Z</time>
      </trkpt>
      <trkpt lat="46.01186" lon="4.76059">
        <ele>206</ele>
        <time>2018-08-22T08:50:43Z</time>
      </trkpt>
      <trkpt lat="46.01192" lon="4.76063">
        <ele>206</ele>
        <time>2018-08-22T08:50:44Z</time>
      </trkpt>
      <trkpt lat="46.01199" lon="4.76064">
        <ele>206</ele>
        <time>2018-08-22T08:50:45Z</time>
      </trkpt>
      <trkpt lat="46.01206" lon="4.76065">
        <ele>206</ele>
        <time>2018-08-22T08:50:46Z</time>
      </trkpt>
      <trkpt lat="46.01214" lon="4.76067">
        <ele>206</ele>
        <time>2018-08-22T08:50:47Z</time>
      </trkpt>
      <trkpt lat="46.01222" lon="4.76068">
        <ele>206</ele>
        <time>2018-08-22T08:50:48Z</time>
      </trkpt>
      <trkpt lat="46.01229" lon="4.7607">
        <ele>205</ele>
        <time>2018-08-22T08:50:49Z</time>
      </trkpt>
      <trkpt lat="46.01236" lon="4.7607">
        <ele>205</ele>
        <time>2018-08-22T08:50:50Z</time>
      </trkpt>
      <trkpt lat="46.01243" lon="4.76071">
        <ele>205</ele>
        <time>2018-08-22T08:50:51Z</time>
      </trkpt>
      <trkpt lat="46.01251" lon="4.76073">
        <ele>204</ele>
        <time>2018-08-22T08:50:52Z</time>
      </trkpt>
      <trkpt lat="46.01258" lon="4.76072">
        <ele>204</ele>
        <time>2018-08-22T08:50:53Z</time>
      </trkpt>
      <trkpt lat="46.01264" lon="4.76072">
        <ele>204</ele>
        <time>2018-08-22T08:50:54Z</time>
      </trkpt>
      <trkpt lat="46.01271" lon="4.76071">
        <ele>204</ele>
        <time>2018-08-22T08:50:55Z</time>
      </trkpt>
      <trkpt lat="46.01277" lon="4.76069">
        <ele>204</ele>
        <time>2018-08-22T08:50:56Z</time>
      </trkpt>
      <trkpt lat="46.01284" lon="4.76067">
        <ele>204</ele>
        <time>2018-08-22T08:50:57Z</time>
      </trkpt>
      <trkpt lat="46.0129" lon="4.76065">
        <ele>204</ele>
        <time>2018-08-22T08:50:58Z</time>
      </trkpt>
      <trkpt lat="46.01297" lon="4.76062">
        <ele>203</ele>
        <time>2018-08-22T08:50:59Z</time>
      </trkpt>
      <trkpt lat="46.01302" lon="4.7606">
        <ele>203</ele>
        <time>2018-08-22T08:51:00Z</time>
      </trkpt>
      <trkpt lat="46.01309" lon="4.76058">
        <ele>203</ele>
        <time>2018-08-22T08:51:01Z</time>
      </trkpt>
      <trkpt lat="46.01315" lon="4.76057">
        <ele>203</ele>
        <time>2018-08-22T08:51:02Z</time>
      </trkpt>
      <trkpt lat="46.01321" lon="4.76056">
        <ele>203</ele>
        <time>2018-08-22T08:51:03Z</time>
      </trkpt>
      <trkpt lat="46.01326" lon="4.76055">
        <ele>203</ele>
        <time>2018-08-22T08:51:04Z</time>
      </trkpt>
      <trkpt lat="46.01333" lon="4.76052">
        <ele>203</ele>
        <time>2018-08-22T08:51:05Z</time>
      </trkpt>
      <trkpt lat="46.01339" lon="4.7605">
        <ele>203</ele>
        <time>2018-08-22T08:51:06Z</time>
      </trkpt>
      <trkpt lat="46.01346" lon="4.76049">
        <ele>203</ele>
        <time>2018-08-22T08:51:07Z</time>
      </trkpt>
      <trkpt lat="46.01352" lon="4.76048">
        <ele>203</ele>
        <time>2018-08-22T08:51:08Z</time>
      </trkpt>
      <trkpt lat="46.01359" lon="4.76045">
        <ele>203</ele>
        <time>2018-08-22T08:51:09Z</time>
      </trkpt>
      <trkpt lat="46.01366" lon="4.76043">
        <ele>203</ele>
        <time>2018-08-22T08:51:10Z</time>
      </trkpt>
      <trkpt lat="46.01371" lon="4.7604">
        <ele>203</ele>
        <time>2018-08-22T08:51:11Z</time>
      </trkpt>
      <trkpt lat="46.01376" lon="4.76037">
        <ele>203</ele>
        <time>2018-08-22T08:51:12Z</time>
      </trkpt>
      <trkpt lat="46.01381" lon="4.76038">
        <ele>203</ele>
        <time>2018-08-22T08:51:13Z</time>
      </trkpt>
      <trkpt lat="46.01387" lon="4.76036">
        <ele>203</ele>
        <time>2018-08-22T08:51:14Z</time>
      </trkpt>
      <trkpt lat="46.01392" lon="4.76038">
        <ele>203</ele>
        <time>2018-08-22T08:51:15Z</time>
      </trkpt>
      <trkpt lat="46.01401" lon="4.7604">
        <ele>203</ele>
        <time>2018-08-22T08:51:16Z</time>
      </trkpt>
      <trkpt lat="46.01408" lon="4.76042">
        <ele>203</ele>
        <time>2018-08-22T08:51:17Z</time>
      </trkpt>
      <trkpt lat="46.01413" lon="4.76045">
        <ele>203</ele>
        <time>2018-08-22T08:51:18Z</time>
      </trkpt>
      <trkpt lat="46.01422" lon="4.76043">
        <ele>204</ele>
        <time>2018-08-22T08:51:19Z</time>
      </trkpt>
      <trkpt lat="46.01428" lon="4.76047">
        <ele>204</ele>
        <time>2018-08-22T08:51:20Z</time>
      </trkpt>
      <trkpt lat="46.01434" lon="4.7605">
        <ele>204</ele>
        <time>2018-08-22T08:51:21Z</time>
      </trkpt>
      <trkpt lat="46.01439" lon="4.76056">
        <ele>203</ele>
        <time>2018-08-22T08:51:22Z</time>
      </trkpt>
      <trkpt lat="46.01444" lon="4.76061">
        <ele>203</ele>
        <time>2018-08-22T08:51:23Z</time>
      </trkpt>
      <trkpt lat="46.01451" lon="4.76064">
        <ele>203</ele>
        <time>2018-08-22T08:51:24Z</time>
      </trkpt>
      <trkpt lat="46.01457" lon="4.76066">
        <ele>203</ele>
        <time>2018-08-22T08:51:25Z</time>
      </trkpt>
      <trkpt lat="46.01464" lon="4.76068">
        <ele>203</ele>
        <time>2018-08-22T08:51:26Z</time>
      </trkpt>
      <trkpt lat="46.01469" lon="4.76069">
        <ele>203</ele>
        <time>2018-08-22T08:51:27Z</time>
      </trkpt>
      <trkpt lat="46.01474" lon="4.76071">
        <ele>203</ele>
        <time>2018-08-22T08:51:28Z</time>
      </trkpt>
      <trkpt lat="46.0148" lon="4.76073">
        <ele>203</ele>
        <time>2018-08-22T08:51:29Z</time>
      </trkpt>
      <trkpt lat="46.01484" lon="4.76074">
        <ele>203</ele>
        <time>2018-08-22T08:51:30Z</time>
      </trkpt>
      <trkpt lat="46.01492" lon="4.76075">
        <ele>203</ele>
        <time>2018-08-22T08:51:31Z</time>
      </trkpt>
      <trkpt lat="46.01497" lon="4.76077">
        <ele>203</ele>
        <time>2018-08-22T08:51:32Z</time>
      </trkpt>
      <trkpt lat="46.015" lon="4.76081">
        <ele>203</ele>
        <time>2018-08-22T08:51:33Z</time>
      </trkpt>
      <trkpt lat="46.01505" lon="4.76081">
        <ele>203</ele>
        <time>2018-08-22T08:51:34Z</time>
      </trkpt>
      <trkpt lat="46.01511" lon="4.76081">
        <ele>202</ele>
        <time>2018-08-22T08:51:35Z</time>
      </trkpt>
      <trkpt lat="46.01518" lon="4.76082">
        <ele>202</ele>
        <time>2018-08-22T08:51:36Z</time>
      </trkpt>
      <trkpt lat="46.01523" lon="4.76083">
        <ele>202</ele>
        <time>2018-08-22T08:51:37Z</time>
      </trkpt>
      <trkpt lat="46.01528" lon="4.76084">
        <ele>202</ele>
        <time>2018-08-22T08:51:38Z</time>
      </trkpt>
      <trkpt lat="46.01532" lon="4.76087">
        <ele>202</ele>
        <time>2018-08-22T08:51:39Z</time>
      </trkpt>
      <trkpt lat="46.01536" lon="4.7609">
        <ele>202</ele>
        <time>2018-08-22T08:51:40Z</time>
      </trkpt>
      <trkpt lat="46.0154" lon="4.76092">
        <ele>202</ele>
        <time>2018-08-22T08:51:41Z</time>
      </trkpt>
      <trkpt lat="46.01547" lon="4.76092">
        <ele>202</ele>
        <time>2018-08-22T08:51:42Z</time>
      </trkpt>
      <trkpt lat="46.01553" lon="4.76094">
        <ele>202</ele>
        <time>2018-08-22T08:51:43Z</time>
      </trkpt>
      <trkpt lat="46.01558" lon="4.76097">
        <ele>202</ele>
        <time>2018-08-22T08:51:44Z</time>
      </trkpt>
      <trkpt lat="46.01565" lon="4.76098">
        <ele>202</ele>
        <time>2018-08-22T08:51:45Z</time>
      </trkpt>
      <trkpt lat="46.01571" lon="4.76099">
        <ele>202</ele>
        <time>2018-08-22T08:51:46Z</time>
      </trkpt>
      <trkpt lat="46.01578" lon="4.76102">
        <ele>202</ele>
        <time>2018-08-22T08:51:47Z</time>
      </trkpt>
      <trkpt lat="46.01584" lon="4.76103">
        <ele>200</ele>
        <time>2018-08-22T08:51:48Z</time>
      </trkpt>
      <trkpt lat="46.01592" lon="4.76103">
        <ele>200</ele>
        <time>2018-08-22T08:51:49Z</time>
      </trkpt>
      <trkpt lat="46.01597" lon="4.76105">
        <ele>200</ele>
        <time>2018-08-22T08:51:50Z</time>
      </trkpt>
      <trkpt lat="46.01603" lon="4.76106">
        <ele>200</ele>
        <time>2018-08-22T08:51:51Z</time>
      </trkpt>
      <trkpt lat="46.01609" lon="4.76107">
        <ele>200</ele>
        <time>2018-08-22T08:51:52Z</time>
      </trkpt>
      <trkpt lat="46.01618" lon="4.76107">
        <ele>200</ele>
        <time>2018-08-22T08:51:53Z</time>
      </trkpt>
      <trkpt lat="46.01626" lon="4.76109">
        <ele>199</ele>
        <time>2018-08-22T08:51:54Z</time>
      </trkpt>
      <trkpt lat="46.01633" lon="4.7611">
        <ele>199</ele>
        <time>2018-08-22T08:51:55Z</time>
      </trkpt>
      <trkpt lat="46.01638" lon="4.7611">
        <ele>199</ele>
        <time>2018-08-22T08:51:56Z</time>
      </trkpt>
      <trkpt lat="46.01649" lon="4.76111">
        <ele>199</ele>
        <time>2018-08-22T08:51:57Z</time>
      </trkpt>
      <trkpt lat="46.01655" lon="4.76113">
        <ele>199</ele>
        <time>2018-08-22T08:51:58Z</time>
      </trkpt>
      <trkpt lat="46.01658" lon="4.7612">
        <ele>199</ele>
        <time>2018-08-22T08:51:59Z</time>
      </trkpt>
      <trkpt lat="46.01665" lon="4.76127">
        <ele>199</ele>
        <time>2018-08-22T08:52:01Z</time>
      </trkpt>
      <trkpt lat="46.01674" lon="4.76122">
        <ele>198</ele>
        <time>2018-08-22T08:52:02Z</time>
      </trkpt>
      <trkpt lat="46.01681" lon="4.76122">
        <ele>198</ele>
        <time>2018-08-22T08:52:03Z</time>
      </trkpt>
      <trkpt lat="46.01688" lon="4.76122">
        <ele>198</ele>
        <time>2018-08-22T08:52:04Z</time>
      </trkpt>
      <trkpt lat="46.01693" lon="4.76124">
        <ele>198</ele>
        <time>2018-08-22T08:52:05Z</time>
      </trkpt>
      <trkpt lat="46.01702" lon="4.76121">
        <ele>198</ele>
        <time>2018-08-22T08:52:06Z</time>
      </trkpt>
      <trkpt lat="46.01709" lon="4.7612">
        <ele>198</ele>
        <time>2018-08-22T08:52:07Z</time>
      </trkpt>
      <trkpt lat="46.01714" lon="4.76121">
        <ele>197</ele>
        <time>2018-08-22T08:52:08Z</time>
      </trkpt>
      <trkpt lat="46.0172" lon="4.76119">
        <ele>197</ele>
        <time>2018-08-22T08:52:09Z</time>
      </trkpt>
      <trkpt lat="46.01728" lon="4.76126">
        <ele>197</ele>
        <time>2018-08-22T08:52:10Z</time>
      </trkpt>
      <trkpt lat="46.01735" lon="4.76124">
        <ele>197</ele>
        <time>2018-08-22T08:52:11Z</time>
      </trkpt>
      <trkpt lat="46.0174" lon="4.76129">
        <ele>197</ele>
        <time>2018-08-22T08:52:12Z</time>
      </trkpt>
      <trkpt lat="46.01743" lon="4.76134">
        <ele>197</ele>
        <time>2018-08-22T08:52:13Z</time>
      </trkpt>
      <trkpt lat="46.01753" lon="4.7613">
        <ele>198</ele>
        <time>2018-08-22T08:52:14Z</time>
      </trkpt>
      <trkpt lat="46.01759" lon="4.76133">
        <ele>198</ele>
        <time>2018-08-22T08:52:15Z</time>
      </trkpt>
      <trkpt lat="46.01768" lon="4.76137">
        <ele>198</ele>
        <time>2018-08-22T08:52:16Z</time>
      </trkpt>
      <trkpt lat="46.01776" lon="4.76136">
        <ele>198</ele>
        <time>2018-08-22T08:52:17Z</time>
      </trkpt>
      <trkpt lat="46.01778" lon="4.76137">
        <ele>198</ele>
        <time>2018-08-22T08:52:18Z</time>
      </trkpt>
      <trkpt lat="46.01785" lon="4.76135">
        <ele>198</ele>
        <time>2018-08-22T08:52:19Z</time>
      </trkpt>
      <trkpt lat="46.01791" lon="4.76136">
        <ele>198</ele>
        <time>2018-08-22T08:52:20Z</time>
      </trkpt>
      <trkpt lat="46.01797" lon="4.76135">
        <ele>198</ele>
        <time>2018-08-22T08:52:21Z</time>
      </trkpt>
      <trkpt lat="46.01803" lon="4.76134">
        <ele>198</ele>
        <time>2018-08-22T08:52:22Z</time>
      </trkpt>
      <trkpt lat="46.01812" lon="4.76132">
        <ele>198</ele>
        <time>2018-08-22T08:52:23Z</time>
      </trkpt>
      <trkpt lat="46.01818" lon="4.76132">
        <ele>198</ele>
        <time>2018-08-22T08:52:24Z</time>
      </trkpt>
      <trkpt lat="46.01825" lon="4.76134">
        <ele>198</ele>
        <time>2018-08-22T08:52:25Z</time>
      </trkpt>
      <trkpt lat="46.01832" lon="4.76135">
        <ele>198</ele>
        <time>2018-08-22T08:52:26Z</time>
      </trkpt>
      <trkpt lat="46.0184" lon="4.76134">
        <ele>199</ele>
        <time>2018-08-22T08:52:27Z</time>
      </trkpt>
      <trkpt lat="46.01843" lon="4.76134">
        <ele>199</ele>
        <time>2018-08-22T08:52:28Z</time>
      </trkpt>
      <trkpt lat="46.0185" lon="4.76135">
        <ele>199</ele>
        <time>2018-08-22T08:52:29Z</time>
      </trkpt>
      <trkpt lat="46.01857" lon="4.76133">
        <ele>199</ele>
        <time>2018-08-22T08:52:30Z</time>
      </trkpt>
      <trkpt lat="46.01863" lon="4.76132">
        <ele>199</ele>
        <time>2018-08-22T08:52:31Z</time>
      </trkpt>
      <trkpt lat="46.01868" lon="4.7613">
        <ele>199</ele>
        <time>2018-08-22T08:52:32Z</time>
      </trkpt>
      <trkpt lat="46.01873" lon="4.7613">
        <ele>199</ele>
        <time>2018-08-22T08:52:33Z</time>
      </trkpt>
      <trkpt lat="46.01879" lon="4.76128">
        <ele>199</ele>
        <time>2018-08-22T08:52:34Z</time>
      </trkpt>
      <trkpt lat="46.01884" lon="4.76129">
        <ele>199</ele>
        <time>2018-08-22T08:52:35Z</time>
      </trkpt>
      <trkpt lat="46.01889" lon="4.76129">
        <ele>199</ele>
        <time>2018-08-22T08:52:36Z</time>
      </trkpt>
      <trkpt lat="46.01895" lon="4.76129">
        <ele>199</ele>
        <time>2018-08-22T08:52:37Z</time>
      </trkpt>
      <trkpt lat="46.019" lon="4.76127">
        <ele>199</ele>
        <time>2018-08-22T08:52:38Z</time>
      </trkpt>
      <trkpt lat="46.01907" lon="4.76125">
        <ele>199</ele>
        <time>2018-08-22T08:52:39Z</time>
      </trkpt>
      <trkpt lat="46.01912" lon="4.76126">
        <ele>199</ele>
        <time>2018-08-22T08:52:40Z</time>
      </trkpt>
      <trkpt lat="46.01918" lon="4.76124">
        <ele>198</ele>
        <time>2018-08-22T08:52:41Z</time>
      </trkpt>
      <trkpt lat="46.01926" lon="4.76122">
        <ele>198</ele>
        <time>2018-08-22T08:52:42Z</time>
      </trkpt>
      <trkpt lat="46.01932" lon="4.76119">
        <ele>198</ele>
        <time>2018-08-22T08:52:43Z</time>
      </trkpt>
      <trkpt lat="46.01939" lon="4.76111">
        <ele>198</ele>
        <time>2018-08-22T08:52:44Z</time>
      </trkpt>
      <trkpt lat="46.01943" lon="4.76111">
        <ele>198</ele>
        <time>2018-08-22T08:52:45Z</time>
      </trkpt>
      <trkpt lat="46.01948" lon="4.76113">
        <ele>198</ele>
        <time>2018-08-22T08:52:46Z</time>
      </trkpt>
      <trkpt lat="46.01953" lon="4.76113">
        <ele>198</ele>
        <time>2018-08-22T08:52:47Z</time>
      </trkpt>
      <trkpt lat="46.01959" lon="4.76109">
        <ele>198</ele>
        <time>2018-08-22T08:52:48Z</time>
      </trkpt>
      <trkpt lat="46.01966" lon="4.76107">
        <ele>198</ele>
        <time>2018-08-22T08:52:49Z</time>
      </trkpt>
      <trkpt lat="46.01972" lon="4.76105">
        <ele>198</ele>
        <time>2018-08-22T08:52:50Z</time>
      </trkpt>
      <trkpt lat="46.01975" lon="4.76102">
        <ele>198</ele>
        <time>2018-08-22T08:52:51Z</time>
      </trkpt>
      <trkpt lat="46.0198" lon="4.761">
        <ele>198</ele>
        <time>2018-08-22T08:52:52Z</time>
      </trkpt>
      <trkpt lat="46.01986" lon="4.76098">
        <ele>198</ele>
        <time>2018-08-22T08:52:53Z</time>
      </trkpt>
      <trkpt lat="46.0199" lon="4.76098">
        <ele>198</ele>
        <time>2018-08-22T08:52:54Z</time>
      </trkpt>
      <trkpt lat="46.01999" lon="4.76096">
        <ele>198</ele>
        <time>2018-08-22T08:52:56Z</time>
      </trkpt>
      <trkpt lat="46.02003" lon="4.76097">
        <ele>197</ele>
        <time>2018-08-22T08:52:57Z</time>
      </trkpt>
      <trkpt lat="46.02009" lon="4.76097">
        <ele>197</ele>
        <time>2018-08-22T08:52:58Z</time>
      </trkpt>
      <trkpt lat="46.02015" lon="4.76097">
        <ele>197</ele>
        <time>2018-08-22T08:52:59Z</time>
      </trkpt>
      <trkpt lat="46.02019" lon="4.76095">
        <ele>197</ele>
        <time>2018-08-22T08:53:00Z</time>
      </trkpt>
      <trkpt lat="46.02024" lon="4.76092">
        <ele>197</ele>
        <time>2018-08-22T08:53:01Z</time>
      </trkpt>
      <trkpt lat="46.0203" lon="4.7609">
        <ele>197</ele>
        <time>2018-08-22T08:53:02Z</time>
      </trkpt>
      <trkpt lat="46.02036" lon="4.7609">
        <ele>197</ele>
        <time>2018-08-22T08:53:03Z</time>
      </trkpt>
      <trkpt lat="46.02043" lon="4.76087">
        <ele>197</ele>
        <time>2018-08-22T08:53:04Z</time>
      </trkpt>
      <trkpt lat="46.0205" lon="4.76083">
        <ele>195</ele>
        <time>2018-08-22T08:53:05Z</time>
      </trkpt>
      <trkpt lat="46.02056" lon="4.76083">
        <ele>195</ele>
        <time>2018-08-22T08:53:06Z</time>
      </trkpt>
      <trkpt lat="46.02062" lon="4.76079">
        <ele>195</ele>
        <time>2018-08-22T08:53:07Z</time>
      </trkpt>
      <trkpt lat="46.02068" lon="4.76077">
        <ele>195</ele>
        <time>2018-08-22T08:53:08Z</time>
      </trkpt>
      <trkpt lat="46.02075" lon="4.76075">
        <ele>196</ele>
        <time>2018-08-22T08:53:09Z</time>
      </trkpt>
      <trkpt lat="46.02079" lon="4.76075">
        <ele>196</ele>
        <time>2018-08-22T08:53:10Z</time>
      </trkpt>
      <trkpt lat="46.02086" lon="4.76071">
        <ele>195</ele>
        <time>2018-08-22T08:53:11Z</time>
      </trkpt>
      <trkpt lat="46.02092" lon="4.76068">
        <ele>195</ele>
        <time>2018-08-22T08:53:12Z</time>
      </trkpt>
      <trkpt lat="46.021" lon="4.76064">
        <ele>194</ele>
        <time>2018-08-22T08:53:13Z</time>
      </trkpt>
      <trkpt lat="46.02106" lon="4.7606">
        <ele>194</ele>
        <time>2018-08-22T08:53:14Z</time>
      </trkpt>
      <trkpt lat="46.0211" lon="4.76059">
        <ele>194</ele>
        <time>2018-08-22T08:53:15Z</time>
      </trkpt>
      <trkpt lat="46.02115" lon="4.76055">
        <ele>194</ele>
        <time>2018-08-22T08:53:16Z</time>
      </trkpt>
      <trkpt lat="46.02121" lon="4.76049">
        <ele>194</ele>
        <time>2018-08-22T08:53:17Z</time>
      </trkpt>
      <trkpt lat="46.02126" lon="4.76043">
        <ele>194</ele>
        <time>2018-08-22T08:53:18Z</time>
      </trkpt>
      <trkpt lat="46.02132" lon="4.76038">
        <ele>193</ele>
        <time>2018-08-22T08:53:19Z</time>
      </trkpt>
      <trkpt lat="46.02138" lon="4.76032">
        <ele>193</ele>
        <time>2018-08-22T08:53:20Z</time>
      </trkpt>
      <trkpt lat="46.02143" lon="4.76029">
        <ele>193</ele>
        <time>2018-08-22T08:53:21Z</time>
      </trkpt>
      <trkpt lat="46.0215" lon="4.76024">
        <ele>193</ele>
        <time>2018-08-22T08:53:22Z</time>
      </trkpt>
      <trkpt lat="46.02157" lon="4.76019">
        <ele>193</ele>
        <time>2018-08-22T08:53:23Z</time>
      </trkpt>
      <trkpt lat="46.02162" lon="4.76015">
        <ele>193</ele>
        <time>2018-08-22T08:53:24Z</time>
      </trkpt>
      <trkpt lat="46.02167" lon="4.7601">
        <ele>193</ele>
        <time>2018-08-22T08:53:25Z</time>
      </trkpt>
      <trkpt lat="46.02172" lon="4.76006">
        <ele>192</ele>
        <time>2018-08-22T08:53:26Z</time>
      </trkpt>
      <trkpt lat="46.02177" lon="4.76002">
        <ele>193</ele>
        <time>2018-08-22T08:53:27Z</time>
      </trkpt>
      <trkpt lat="46.02184" lon="4.75997">
        <ele>192</ele>
        <time>2018-08-22T08:53:28Z</time>
      </trkpt>
      <trkpt lat="46.0219" lon="4.7599">
        <ele>192</ele>
        <time>2018-08-22T08:53:29Z</time>
      </trkpt>
      <trkpt lat="46.02196" lon="4.75985">
        <ele>192</ele>
        <time>2018-08-22T08:53:30Z</time>
      </trkpt>
      <trkpt lat="46.02201" lon="4.75981">
        <ele>192</ele>
        <time>2018-08-22T08:53:31Z</time>
      </trkpt>
      <trkpt lat="46.02207" lon="4.75972">
        <ele>192</ele>
        <time>2018-08-22T08:53:32Z</time>
      </trkpt>
      <trkpt lat="46.02212" lon="4.75967">
        <ele>192</ele>
        <time>2018-08-22T08:53:33Z</time>
      </trkpt>
      <trkpt lat="46.02217" lon="4.75963">
        <ele>193</ele>
        <time>2018-08-22T08:53:34Z</time>
      </trkpt>
      <trkpt lat="46.02222" lon="4.75959">
        <ele>193</ele>
        <time>2018-08-22T08:53:35Z</time>
      </trkpt>
      <trkpt lat="46.02226" lon="4.75958">
        <ele>193</ele>
        <time>2018-08-22T08:53:36Z</time>
      </trkpt>
      <trkpt lat="46.02231" lon="4.75953">
        <ele>193</ele>
        <time>2018-08-22T08:53:37Z</time>
      </trkpt>
      <trkpt lat="46.02236" lon="4.7595">
        <ele>193</ele>
        <time>2018-08-22T08:53:38Z</time>
      </trkpt>
      <trkpt lat="46.02241" lon="4.75942">
        <ele>193</ele>
        <time>2018-08-22T08:53:39Z</time>
      </trkpt>
      <trkpt lat="46.02246" lon="4.7594">
        <ele>193</ele>
        <time>2018-08-22T08:53:40Z</time>
      </trkpt>
      <trkpt lat="46.0225" lon="4.75937">
        <ele>194</ele>
        <time>2018-08-22T08:53:41Z</time>
      </trkpt>
      <trkpt lat="46.02259" lon="4.75934">
        <ele>193</ele>
        <time>2018-08-22T08:53:43Z</time>
      </trkpt>
      <trkpt lat="46.02264" lon="4.7593">
        <ele>193</ele>
        <time>2018-08-22T08:53:44Z</time>
      </trkpt>
      <trkpt lat="46.02268" lon="4.75926">
        <ele>193</ele>
        <time>2018-08-22T08:53:45Z</time>
      </trkpt>
      <trkpt lat="46.02273" lon="4.75924">
        <ele>194</ele>
        <time>2018-08-22T08:53:46Z</time>
      </trkpt>
      <trkpt lat="46.02277" lon="4.75919">
        <ele>194</ele>
        <time>2018-08-22T08:53:47Z</time>
      </trkpt>
      <trkpt lat="46.02281" lon="4.75914">
        <ele>193</ele>
        <time>2018-08-22T08:53:48Z</time>
      </trkpt>
      <trkpt lat="46.02285" lon="4.75911">
        <ele>193</ele>
        <time>2018-08-22T08:53:49Z</time>
      </trkpt>
      <trkpt lat="46.02288" lon="4.75906">
        <ele>193</ele>
        <time>2018-08-22T08:53:50Z</time>
      </trkpt>
      <trkpt lat="46.02295" lon="4.75899">
        <ele>193</ele>
        <time>2018-08-22T08:53:52Z</time>
      </trkpt>
      <trkpt lat="46.02298" lon="4.75895">
        <ele>193</ele>
        <time>2018-08-22T08:53:53Z</time>
      </trkpt>
      <trkpt lat="46.02303" lon="4.75891">
        <ele>193</ele>
        <time>2018-08-22T08:53:54Z</time>
      </trkpt>
      <trkpt lat="46.02307" lon="4.75886">
        <ele>193</ele>
        <time>2018-08-22T08:53:55Z</time>
      </trkpt>
      <trkpt lat="46.02312" lon="4.75882">
        <ele>193</ele>
        <time>2018-08-22T08:53:56Z</time>
      </trkpt>
      <trkpt lat="46.02315" lon="4.75878">
        <ele>193</ele>
        <time>2018-08-22T08:53:57Z</time>
      </trkpt>
      <trkpt lat="46.02318" lon="4.75874">
        <ele>193</ele>
        <time>2018-08-22T08:53:58Z</time>
      </trkpt>
      <trkpt lat="46.02322" lon="4.7587">
        <ele>193</ele>
        <time>2018-08-22T08:53:59Z</time>
      </trkpt>
      <trkpt lat="46.02329" lon="4.75862">
        <ele>193</ele>
        <time>2018-08-22T08:54:01Z</time>
      </trkpt>
      <trkpt lat="46.02333" lon="4.75857">
        <ele>193</ele>
        <time>2018-08-22T08:54:02Z</time>
      </trkpt>
      <trkpt lat="46.02337" lon="4.75854">
        <ele>193</ele>
        <time>2018-08-22T08:54:03Z</time>
      </trkpt>
      <trkpt lat="46.02342" lon="4.75851">
        <ele>193</ele>
        <time>2018-08-22T08:54:04Z</time>
      </trkpt>
      <trkpt lat="46.02349" lon="4.75845">
        <ele>193</ele>
        <time>2018-08-22T08:54:06Z</time>
      </trkpt>
      <trkpt lat="46.02355" lon="4.75843">
        <ele>193</ele>
        <time>2018-08-22T08:54:07Z</time>
      </trkpt>
      <trkpt lat="46.02362" lon="4.75838">
        <ele>193</ele>
        <time>2018-08-22T08:54:09Z</time>
      </trkpt>
      <trkpt lat="46.02365" lon="4.75837">
        <ele>193</ele>
        <time>2018-08-22T08:54:10Z</time>
      </trkpt>
      <trkpt lat="46.02371" lon="4.75832">
        <ele>192</ele>
        <time>2018-08-22T08:54:11Z</time>
      </trkpt>
      <trkpt lat="46.02377" lon="4.75826">
        <ele>192</ele>
        <time>2018-08-22T08:54:12Z</time>
      </trkpt>
      <trkpt lat="46.02384" lon="4.75822">
        <ele>192</ele>
        <time>2018-08-22T08:54:14Z</time>
      </trkpt>
      <trkpt lat="46.02389" lon="4.75816">
        <ele>192</ele>
        <time>2018-08-22T08:54:15Z</time>
      </trkpt>
      <trkpt lat="46.02396" lon="4.75811">
        <ele>192</ele>
        <time>2018-08-22T08:54:16Z</time>
      </trkpt>
      <trkpt lat="46.02401" lon="4.75808">
        <ele>192</ele>
        <time>2018-08-22T08:54:17Z</time>
      </trkpt>
      <trkpt lat="46.02407" lon="4.75804">
        <ele>192</ele>
        <time>2018-08-22T08:54:18Z</time>
      </trkpt>
      <trkpt lat="46.02413" lon="4.758">
        <ele>192</ele>
        <time>2018-08-22T08:54:19Z</time>
      </trkpt>
      <trkpt lat="46.02419" lon="4.75797">
        <ele>192</ele>
        <time>2018-08-22T08:54:20Z</time>
      </trkpt>
      <trkpt lat="46.02425" lon="4.75793">
        <ele>192</ele>
        <time>2018-08-22T08:54:21Z</time>
      </trkpt>
      <trkpt lat="46.0243" lon="4.75791">
        <ele>191</ele>
        <time>2018-08-22T08:54:22Z</time>
      </trkpt>
      <trkpt lat="46.02436" lon="4.75789">
        <ele>191</ele>
        <time>2018-08-22T08:54:23Z</time>
      </trkpt>
      <trkpt lat="46.02443" lon="4.75784">
        <ele>191</ele>
        <time>2018-08-22T08:54:24Z</time>
      </trkpt>
      <trkpt lat="46.02449" lon="4.75782">
        <ele>191</ele>
        <time>2018-08-22T08:54:25Z</time>
      </trkpt>
      <trkpt lat="46.02456" lon="4.75779">
        <ele>191</ele>
        <time>2018-08-22T08:54:26Z</time>
      </trkpt>
      <trkpt lat="46.02464" lon="4.75776">
        <ele>191</ele>
        <time>2018-08-22T08:54:27Z</time>
      </trkpt>
      <trkpt lat="46.0247" lon="4.75772">
        <ele>191</ele>
        <time>2018-08-22T08:54:28Z</time>
      </trkpt>
      <trkpt lat="46.02476" lon="4.75766">
        <ele>191</ele>
        <time>2018-08-22T08:54:29Z</time>
      </trkpt>
      <trkpt lat="46.02482" lon="4.75766">
        <ele>191</ele>
        <time>2018-08-22T08:54:30Z</time>
      </trkpt>
      <trkpt lat="46.02489" lon="4.75765">
        <ele>190</ele>
        <time>2018-08-22T08:54:31Z</time>
      </trkpt>
      <trkpt lat="46.02497" lon="4.75759">
        <ele>190</ele>
        <time>2018-08-22T08:54:32Z</time>
      </trkpt>
      <trkpt lat="46.02506" lon="4.75755">
        <ele>189</ele>
        <time>2018-08-22T08:54:33Z</time>
      </trkpt>
      <trkpt lat="46.02514" lon="4.75749">
        <ele>188</ele>
        <time>2018-08-22T08:54:34Z</time>
      </trkpt>
      <trkpt lat="46.02522" lon="4.75747">
        <ele>188</ele>
        <time>2018-08-22T08:54:35Z</time>
      </trkpt>
      <trkpt lat="46.02531" lon="4.75747">
        <ele>187</ele>
        <time>2018-08-22T08:54:36Z</time>
      </trkpt>
      <trkpt lat="46.02541" lon="4.75747">
        <ele>186</ele>
        <time>2018-08-22T08:54:37Z</time>
      </trkpt>
      <trkpt lat="46.02549" lon="4.75745">
        <ele>186</ele>
        <time>2018-08-22T08:54:38Z</time>
      </trkpt>
      <trkpt lat="46.02557" lon="4.75743">
        <ele>185</ele>
        <time>2018-08-22T08:54:39Z</time>
      </trkpt>
      <trkpt lat="46.02567" lon="4.75743">
        <ele>185</ele>
        <time>2018-08-22T08:54:40Z</time>
      </trkpt>
      <trkpt lat="46.02577" lon="4.75743">
        <ele>184</ele>
        <time>2018-08-22T08:54:41Z</time>
      </trkpt>
      <trkpt lat="46.02587" lon="4.75744">
        <ele>183</ele>
        <time>2018-08-22T08:54:42Z</time>
      </trkpt>
      <trkpt lat="46.02597" lon="4.75746">
        <ele>183</ele>
        <time>2018-08-22T08:54:43Z</time>
      </trkpt>
      <trkpt lat="46.02607" lon="4.75746">
        <ele>183</ele>
        <time>2018-08-22T08:54:44Z</time>
      </trkpt>
      <trkpt lat="46.02618" lon="4.75747">
        <ele>182</ele>
        <time>2018-08-22T08:54:45Z</time>
      </trkpt>
      <trkpt lat="46.0263" lon="4.75749">
        <ele>182</ele>
        <time>2018-08-22T08:54:46Z</time>
      </trkpt>
      <trkpt lat="46.0264" lon="4.7575">
        <ele>182</ele>
        <time>2018-08-22T08:54:47Z</time>
      </trkpt>
      <trkpt lat="46.02651" lon="4.7575">
        <ele>182</ele>
        <time>2018-08-22T08:54:48Z</time>
      </trkpt>
      <trkpt lat="46.02661" lon="4.7575">
        <ele>181</ele>
        <time>2018-08-22T08:54:49Z</time>
      </trkpt>
      <trkpt lat="46.02672" lon="4.75747">
        <ele>181</ele>
        <time>2018-08-22T08:54:50Z</time>
      </trkpt>
      <trkpt lat="46.02682" lon="4.75743">
        <ele>181</ele>
        <time>2018-08-22T08:54:51Z</time>
      </trkpt>
      <trkpt lat="46.02695" lon="4.75735">
        <ele>182</ele>
        <time>2018-08-22T08:54:52Z</time>
      </trkpt>
      <trkpt lat="46.02704" lon="4.75734">
        <ele>182</ele>
        <time>2018-08-22T08:54:53Z</time>
      </trkpt>
      <trkpt lat="46.02713" lon="4.75731">
        <ele>182</ele>
        <time>2018-08-22T08:54:54Z</time>
      </trkpt>
      <trkpt lat="46.02723" lon="4.75727">
        <ele>182</ele>
        <time>2018-08-22T08:54:55Z</time>
      </trkpt>
      <trkpt lat="46.02733" lon="4.75719">
        <ele>182</ele>
        <time>2018-08-22T08:54:56Z</time>
      </trkpt>
      <trkpt lat="46.02743" lon="4.75712">
        <ele>182</ele>
        <time>2018-08-22T08:54:57Z</time>
      </trkpt>
      <trkpt lat="46.02753" lon="4.75711">
        <ele>183</ele>
        <time>2018-08-22T08:54:58Z</time>
      </trkpt>
      <trkpt lat="46.02762" lon="4.75709">
        <ele>183</ele>
        <time>2018-08-22T08:54:59Z</time>
      </trkpt>
      <trkpt lat="46.02774" lon="4.75707">
        <ele>183</ele>
        <time>2018-08-22T08:55:00Z</time>
      </trkpt>
      <trkpt lat="46.02786" lon="4.75697">
        <ele>182</ele>
        <time>2018-08-22T08:55:01Z</time>
      </trkpt>
      <trkpt lat="46.02798" lon="4.7568">
        <ele>182</ele>
        <time>2018-08-22T08:55:02Z</time>
      </trkpt>
      <trkpt lat="46.02808" lon="4.75672">
        <ele>181</ele>
        <time>2018-08-22T08:55:03Z</time>
      </trkpt>
      <trkpt lat="46.02817" lon="4.75673">
        <ele>181</ele>
        <time>2018-08-22T08:55:04Z</time>
      </trkpt>
      <trkpt lat="46.02822" lon="4.75686">
        <ele>181</ele>
        <time>2018-08-22T08:55:05Z</time>
      </trkpt>
      <trkpt lat="46.02835" lon="4.75687">
        <ele>181</ele>
        <time>2018-08-22T08:55:06Z</time>
      </trkpt>
      <trkpt lat="46.02842" lon="4.75699">
        <ele>182</ele>
        <time>2018-08-22T08:55:07Z</time>
      </trkpt>
      <trkpt lat="46.02841" lon="4.75705">
        <ele>183</ele>
        <time>2018-08-22T08:55:08Z</time>
      </trkpt>
      <trkpt lat="46.02845" lon="4.75712">
        <ele>183</ele>
        <time>2018-08-22T08:55:09Z</time>
      </trkpt>
      <trkpt lat="46.02847" lon="4.7572">
        <ele>184</ele>
        <time>2018-08-22T08:55:10Z</time>
      </trkpt>
      <trkpt lat="46.02853" lon="4.75722">
        <ele>184</ele>
        <time>2018-08-22T08:55:11Z</time>
      </trkpt>
      <trkpt lat="46.02861" lon="4.75728">
        <ele>184</ele>
        <time>2018-08-22T08:55:13Z</time>
      </trkpt>
      <trkpt lat="46.02863" lon="4.75738">
        <ele>184</ele>
        <time>2018-08-22T08:55:14Z</time>
      </trkpt>
      <trkpt lat="46.02865" lon="4.75735">
        <ele>184</ele>
        <time>2018-08-22T08:55:15Z</time>
      </trkpt>
      <trkpt lat="46.0287" lon="4.75728">
        <ele>183</ele>
        <time>2018-08-22T08:55:16Z</time>
      </trkpt>
      <trkpt lat="46.02877" lon="4.75736">
        <ele>184</ele>
        <time>2018-08-22T08:55:18Z</time>
      </trkpt>
      <trkpt lat="46.02884" lon="4.75737">
        <ele>183</ele>
        <time>2018-08-22T08:55:19Z</time>
      </trkpt>
      <trkpt lat="46.02893" lon="4.75732">
        <ele>183</ele>
        <time>2018-08-22T08:55:20Z</time>
      </trkpt>
      <trkpt lat="46.029" lon="4.75731">
        <ele>183</ele>
        <time>2018-08-22T08:55:21Z</time>
      </trkpt>
      <trkpt lat="46.02902" lon="4.75736">
        <ele>183</ele>
        <time>2018-08-22T08:55:22Z</time>
      </trkpt>
      <trkpt lat="46.02909" lon="4.7573">
        <ele>183</ele>
        <time>2018-08-22T08:55:23Z</time>
      </trkpt>
      <trkpt lat="46.02914" lon="4.75726">
        <ele>183</ele>
        <time>2018-08-22T08:55:24Z</time>
      </trkpt>
      <trkpt lat="46.02917" lon="4.75724">
        <ele>183</ele>
        <time>2018-08-22T08:55:25Z</time>
      </trkpt>
      <trkpt lat="46.02924" lon="4.75725">
        <ele>183</ele>
        <time>2018-08-22T08:55:26Z</time>
      </trkpt>
      <trkpt lat="46.02933" lon="4.75725">
        <ele>183</ele>
        <time>2018-08-22T08:55:28Z</time>
      </trkpt>
      <trkpt lat="46.02941" lon="4.75713">
        <ele>183</ele>
        <time>2018-08-22T08:55:29Z</time>
      </trkpt>
      <trkpt lat="46.02945" lon="4.7572">
        <ele>183</ele>
        <time>2018-08-22T08:55:31Z</time>
      </trkpt>
      <trkpt lat="46.02953" lon="4.75714">
        <ele>183</ele>
        <time>2018-08-22T08:55:32Z</time>
      </trkpt>
      <trkpt lat="46.0296" lon="4.75718">
        <ele>183</ele>
        <time>2018-08-22T08:55:34Z</time>
      </trkpt>
      <trkpt lat="46.02964" lon="4.75717">
        <ele>183</ele>
        <time>2018-08-22T08:55:35Z</time>
      </trkpt>
      <trkpt lat="46.02965" lon="4.75719">
        <ele>183</ele>
        <time>2018-08-22T08:55:36Z</time>
      </trkpt>
      <trkpt lat="46.02973" lon="4.75719">
        <ele>183</ele>
        <time>2018-08-22T08:55:37Z</time>
      </trkpt>
      <trkpt lat="46.02979" lon="4.75715">
        <ele>183</ele>
        <time>2018-08-22T08:55:38Z</time>
      </trkpt>
      <trkpt lat="46.02984" lon="4.75712">
        <ele>183</ele>
        <time>2018-08-22T08:55:39Z</time>
      </trkpt>
      <trkpt lat="46.02989" lon="4.75709">
        <ele>183</ele>
        <time>2018-08-22T08:55:40Z</time>
      </trkpt>
      <trkpt lat="46.02994" lon="4.75707">
        <ele>183</ele>
        <time>2018-08-22T08:55:41Z</time>
      </trkpt>
      <trkpt lat="46.02998" lon="4.75706">
        <ele>183</ele>
        <time>2018-08-22T08:55:42Z</time>
      </trkpt>
      <trkpt lat="46.03003" lon="4.75701">
        <ele>183</ele>
        <time>2018-08-22T08:55:43Z</time>
      </trkpt>
      <trkpt lat="46.03008" lon="4.757">
        <ele>183</ele>
        <time>2018-08-22T08:55:44Z</time>
      </trkpt>
      <trkpt lat="46.03013" lon="4.75699">
        <ele>183</ele>
        <time>2018-08-22T08:55:45Z</time>
      </trkpt>
      <trkpt lat="46.03018" lon="4.75696">
        <ele>183</ele>
        <time>2018-08-22T08:55:46Z</time>
      </trkpt>
      <trkpt lat="46.03021" lon="4.75694">
        <ele>183</ele>
        <time>2018-08-22T08:55:47Z</time>
      </trkpt>
      <trkpt lat="46.03026" lon="4.75692">
        <ele>183</ele>
        <time>2018-08-22T08:55:48Z</time>
      </trkpt>
      <trkpt lat="46.03031" lon="4.75691">
        <ele>183</ele>
        <time>2018-08-22T08:55:49Z</time>
      </trkpt>
      <trkpt lat="46.03037" lon="4.75686">
        <ele>184</ele>
        <time>2018-08-22T08:55:50Z</time>
      </trkpt>
      <trkpt lat="46.03042" lon="4.75683">
        <ele>184</ele>
        <time>2018-08-22T08:55:51Z</time>
      </trkpt>
      <trkpt lat="46.0305" lon="4.75681">
        <ele>184</ele>
        <time>2018-08-22T08:55:53Z</time>
      </trkpt>
      <trkpt lat="46.03054" lon="4.7568">
        <ele>184</ele>
        <time>2018-08-22T08:55:54Z</time>
      </trkpt>
      <trkpt lat="46.03061" lon="4.7568">
        <ele>184</ele>
        <time>2018-08-22T08:55:55Z</time>
      </trkpt>
      <trkpt lat="46.03065" lon="4.75688">
        <ele>184</ele>
        <time>2018-08-22T08:55:56Z</time>
      </trkpt>
      <trkpt lat="46.03072" lon="4.75686">
        <ele>184</ele>
        <time>2018-08-22T08:55:58Z</time>
      </trkpt>
      <trkpt lat="46.03078" lon="4.75683">
        <ele>184</ele>
        <time>2018-08-22T08:55:59Z</time>
      </trkpt>
      <trkpt lat="46.03083" lon="4.75683">
        <ele>184</ele>
        <time>2018-08-22T08:56:00Z</time>
      </trkpt>
      <trkpt lat="46.03089" lon="4.75679">
        <ele>185</ele>
        <time>2018-08-22T08:56:01Z</time>
      </trkpt>
      <trkpt lat="46.03096" lon="4.75674">
        <ele>185</ele>
        <time>2018-08-22T08:56:02Z</time>
      </trkpt>
      <trkpt lat="46.03101" lon="4.75676">
        <ele>185</ele>
        <time>2018-08-22T08:56:03Z</time>
      </trkpt>
      <trkpt lat="46.03107" lon="4.75677">
        <ele>186</ele>
        <time>2018-08-22T08:56:04Z</time>
      </trkpt>
      <trkpt lat="46.03113" lon="4.75674">
        <ele>186</ele>
        <time>2018-08-22T08:56:05Z</time>
      </trkpt>
      <trkpt lat="46.03117" lon="4.75674">
        <ele>186</ele>
        <time>2018-08-22T08:56:06Z</time>
      </trkpt>
      <trkpt lat="46.03122" lon="4.75678">
        <ele>186</ele>
        <time>2018-08-22T08:56:07Z</time>
      </trkpt>
      <trkpt lat="46.03127" lon="4.75678">
        <ele>187</ele>
        <time>2018-08-22T08:56:08Z</time>
      </trkpt>
      <trkpt lat="46.03133" lon="4.75676">
        <ele>187</ele>
        <time>2018-08-22T08:56:09Z</time>
      </trkpt>
      <trkpt lat="46.03142" lon="4.75679">
        <ele>187</ele>
        <time>2018-08-22T08:56:11Z</time>
      </trkpt>
      <trkpt lat="46.03145" lon="4.75676">
        <ele>187</ele>
        <time>2018-08-22T08:56:12Z</time>
      </trkpt>
      <trkpt lat="46.03152" lon="4.75671">
        <ele>187</ele>
        <time>2018-08-22T08:56:13Z</time>
      </trkpt>
      <trkpt lat="46.03156" lon="4.75676">
        <ele>188</ele>
        <time>2018-08-22T08:56:14Z</time>
      </trkpt>
      <trkpt lat="46.03165" lon="4.7566">
        <ele>187</ele>
        <time>2018-08-22T08:56:15Z</time>
      </trkpt>
      <trkpt lat="46.03172" lon="4.75676">
        <ele>190</ele>
        <time>2018-08-22T08:56:16Z</time>
      </trkpt>
      <trkpt lat="46.03179" lon="4.75676">
        <ele>191</ele>
        <time>2018-08-22T08:56:18Z</time>
      </trkpt>
      <trkpt lat="46.03185" lon="4.75678">
        <ele>191</ele>
        <time>2018-08-22T08:56:19Z</time>
      </trkpt>
      <trkpt lat="46.03194" lon="4.75666">
        <ele>189</ele>
        <time>2018-08-22T08:56:20Z</time>
      </trkpt>
      <trkpt lat="46.03198" lon="4.75665">
        <ele>189</ele>
        <time>2018-08-22T08:56:21Z</time>
      </trkpt>
      <trkpt lat="46.03203" lon="4.7566">
        <ele>189</ele>
        <time>2018-08-22T08:56:22Z</time>
      </trkpt>
      <trkpt lat="46.03211" lon="4.75646">
        <ele>190</ele>
        <time>2018-08-22T08:56:23Z</time>
      </trkpt>
      <trkpt lat="46.03215" lon="4.75657">
        <ele>190</ele>
        <time>2018-08-22T08:56:24Z</time>
      </trkpt>
      <trkpt lat="46.03222" lon="4.75648">
        <ele>190</ele>
        <time>2018-08-22T08:56:25Z</time>
      </trkpt>
      <trkpt lat="46.03226" lon="4.75654">
        <ele>191</ele>
        <time>2018-08-22T08:56:26Z</time>
      </trkpt>
      <trkpt lat="46.03229" lon="4.75662">
        <ele>191</ele>
        <time>2018-08-22T08:56:27Z</time>
      </trkpt>
      <trkpt lat="46.03233" lon="4.75667">
        <ele>192</ele>
        <time>2018-08-22T08:56:30Z</time>
      </trkpt>
      <trkpt lat="46.03244" lon="4.75662">
        <ele>193</ele>
        <time>2018-08-22T08:56:31Z</time>
      </trkpt>
      <trkpt lat="46.0325" lon="4.75666">
        <ele>195</ele>
        <time>2018-08-22T08:56:33Z</time>
      </trkpt>
      <trkpt lat="46.03255" lon="4.75668">
        <ele>195</ele>
        <time>2018-08-22T08:56:34Z</time>
      </trkpt>
      <trkpt lat="46.03262" lon="4.75666">
        <ele>193</ele>
        <time>2018-08-22T08:56:36Z</time>
      </trkpt>
      <trkpt lat="46.03268" lon="4.75668">
        <ele>194</ele>
        <time>2018-08-22T08:56:37Z</time>
      </trkpt>
      <trkpt lat="46.03275" lon="4.75662">
        <ele>191</ele>
        <time>2018-08-22T08:56:39Z</time>
      </trkpt>
      <trkpt lat="46.03276" lon="4.75659">
        <ele>191</ele>
        <time>2018-08-22T08:56:40Z</time>
      </trkpt>
      <trkpt lat="46.03283" lon="4.75651">
        <ele>190</ele>
        <time>2018-08-22T08:56:41Z</time>
      </trkpt>
      <trkpt lat="46.03288" lon="4.75645">
        <ele>190</ele>
        <time>2018-08-22T08:56:42Z</time>
      </trkpt>
      <trkpt lat="46.03291" lon="4.75642">
        <ele>190</ele>
        <time>2018-08-22T08:56:43Z</time>
      </trkpt>
      <trkpt lat="46.03298" lon="4.75635">
        <ele>189</ele>
        <time>2018-08-22T08:56:44Z</time>
      </trkpt>
      <trkpt lat="46.03304" lon="4.75633">
        <ele>189</ele>
        <time>2018-08-22T08:56:46Z</time>
      </trkpt>
      <trkpt lat="46.03309" lon="4.75632">
        <ele>189</ele>
        <time>2018-08-22T08:56:47Z</time>
      </trkpt>
      <trkpt lat="46.03315" lon="4.75629">
        <ele>189</ele>
        <time>2018-08-22T08:56:48Z</time>
      </trkpt>
      <trkpt lat="46.0332" lon="4.7563">
        <ele>189</ele>
        <time>2018-08-22T08:56:49Z</time>
      </trkpt>
      <trkpt lat="46.03328" lon="4.75635">
        <ele>189</ele>
        <time>2018-08-22T08:56:51Z</time>
      </trkpt>
      <trkpt lat="46.03333" lon="4.75635">
        <ele>189</ele>
        <time>2018-08-22T08:56:52Z</time>
      </trkpt>
      <trkpt lat="46.03339" lon="4.75636">
        <ele>188</ele>
        <time>2018-08-22T08:56:53Z</time>
      </trkpt>
      <trkpt lat="46.03345" lon="4.75637">
        <ele>188</ele>
        <time>2018-08-22T08:56:54Z</time>
      </trkpt>
      <trkpt lat="46.03349" lon="4.75638">
        <ele>188</ele>
        <time>2018-08-22T08:56:55Z</time>
      </trkpt>
      <trkpt lat="46.03354" lon="4.75638">
        <ele>188</ele>
        <time>2018-08-22T08:56:56Z</time>
      </trkpt>
      <trkpt lat="46.0336" lon="4.75636">
        <ele>188</ele>
        <time>2018-08-22T08:56:57Z</time>
      </trkpt>
      <trkpt lat="46.03366" lon="4.75636">
        <ele>188</ele>
        <time>2018-08-22T08:56:58Z</time>
      </trkpt>
      <trkpt lat="46.0337" lon="4.75638">
        <ele>188</ele>
        <time>2018-08-22T08:56:59Z</time>
      </trkpt>
      <trkpt lat="46.03375" lon="4.75636">
        <ele>188</ele>
        <time>2018-08-22T08:57:00Z</time>
      </trkpt>
      <trkpt lat="46.03382" lon="4.75638">
        <ele>188</ele>
        <time>2018-08-22T08:57:02Z</time>
      </trkpt>
      <trkpt lat="46.03388" lon="4.75635">
        <ele>188</ele>
        <time>2018-08-22T08:57:03Z</time>
      </trkpt>
      <trkpt lat="46.03394" lon="4.75632">
        <ele>188</ele>
        <time>2018-08-22T08:57:04Z</time>
      </trkpt>
      <trkpt lat="46.03399" lon="4.75633">
        <ele>188</ele>
        <time>2018-08-22T08:57:05Z</time>
      </trkpt>
      <trkpt lat="46.03407" lon="4.75627">
        <ele>188</ele>
        <time>2018-08-22T08:57:06Z</time>
      </trkpt>
      <trkpt lat="46.03411" lon="4.75628">
        <ele>188</ele>
        <time>2018-08-22T08:57:07Z</time>
      </trkpt>
      <trkpt lat="46.03416" lon="4.75626">
        <ele>188</ele>
        <time>2018-08-22T08:57:08Z</time>
      </trkpt>
      <trkpt lat="46.03421" lon="4.75625">
        <ele>188</ele>
        <time>2018-08-22T08:57:09Z</time>
      </trkpt>
      <trkpt lat="46.03426" lon="4.75624">
        <ele>188</ele>
        <time>2018-08-22T08:57:10Z</time>
      </trkpt>
      <trkpt lat="46.03431" lon="4.75625">
        <ele>188</ele>
        <time>2018-08-22T08:57:11Z</time>
      </trkpt>
      <trkpt lat="46.03438" lon="4.75623">
        <ele>188</ele>
        <time>2018-08-22T08:57:12Z</time>
      </trkpt>
      <trkpt lat="46.03442" lon="4.75631">
        <ele>188</ele>
        <time>2018-08-22T08:57:13Z</time>
      </trkpt>
      <trkpt lat="46.03445" lon="4.75634">
        <ele>188</ele>
        <time>2018-08-22T08:57:14Z</time>
      </trkpt>
      <trkpt lat="46.03449" lon="4.75639">
        <ele>188</ele>
        <time>2018-08-22T08:57:15Z</time>
      </trkpt>
      <trkpt lat="46.03452" lon="4.75645">
        <ele>188</ele>
        <time>2018-08-22T08:57:16Z</time>
      </trkpt>
      <trkpt lat="46.03454" lon="4.75651">
        <ele>188</ele>
        <time>2018-08-22T08:57:17Z</time>
      </trkpt>
      <trkpt lat="46.03456" lon="4.75658">
        <ele>188</ele>
        <time>2018-08-22T08:57:18Z</time>
      </trkpt>
      <trkpt lat="46.03459" lon="4.75665">
        <ele>188</ele>
        <time>2018-08-22T08:57:19Z</time>
      </trkpt>
      <trkpt lat="46.03462" lon="4.75673">
        <ele>189</ele>
        <time>2018-08-22T08:57:20Z</time>
      </trkpt>
      <trkpt lat="46.03465" lon="4.75679">
        <ele>189</ele>
        <time>2018-08-22T08:57:21Z</time>
      </trkpt>
      <trkpt lat="46.03467" lon="4.75685">
        <ele>189</ele>
        <time>2018-08-22T08:57:22Z</time>
      </trkpt>
      <trkpt lat="46.0347" lon="4.75691">
        <ele>189</ele>
        <time>2018-08-22T08:57:23Z</time>
      </trkpt>
      <trkpt lat="46.03471" lon="4.75697">
        <ele>189</ele>
        <time>2018-08-22T08:57:24Z</time>
      </trkpt>
      <trkpt lat="46.03474" lon="4.75703">
        <ele>189</ele>
        <time>2018-08-22T08:57:25Z</time>
      </trkpt>
      <trkpt lat="46.03477" lon="4.75715">
        <ele>189</ele>
        <time>2018-08-22T08:57:27Z</time>
      </trkpt>
      <trkpt lat="46.03479" lon="4.7572">
        <ele>189</ele>
        <time>2018-08-22T08:57:28Z</time>
      </trkpt>
      <trkpt lat="46.03481" lon="4.75726">
        <ele>189</ele>
        <time>2018-08-22T08:57:29Z</time>
      </trkpt>
      <trkpt lat="46.03484" lon="4.75733">
        <ele>189</ele>
        <time>2018-08-22T08:57:30Z</time>
      </trkpt>
      <trkpt lat="46.03486" lon="4.75737">
        <ele>189</ele>
        <time>2018-08-22T08:57:31Z</time>
      </trkpt>
      <trkpt lat="46.03489" lon="4.75743">
        <ele>189</ele>
        <time>2018-08-22T08:57:32Z</time>
      </trkpt>
      <trkpt lat="46.03492" lon="4.7575">
        <ele>189</ele>
        <time>2018-08-22T08:57:33Z</time>
      </trkpt>
      <trkpt lat="46.03493" lon="4.75756">
        <ele>189</ele>
        <time>2018-08-22T08:57:34Z</time>
      </trkpt>
      <trkpt lat="46.03498" lon="4.75762">
        <ele>189</ele>
        <time>2018-08-22T08:57:35Z</time>
      </trkpt>
      <trkpt lat="46.03502" lon="4.75766">
        <ele>189</ele>
        <time>2018-08-22T08:57:36Z</time>
      </trkpt>
      <trkpt lat="46.03505" lon="4.75772">
        <ele>189</ele>
        <time>2018-08-22T08:57:37Z</time>
      </trkpt>
      <trkpt lat="46.03508" lon="4.75776">
        <ele>189</ele>
        <time>2018-08-22T08:57:38Z</time>
      </trkpt>
      <trkpt lat="46.03511" lon="4.75784">
        <ele>189</ele>
        <time>2018-08-22T08:57:39Z</time>
      </trkpt>
      <trkpt lat="46.03514" lon="4.75791">
        <ele>189</ele>
        <time>2018-08-22T08:57:40Z</time>
      </trkpt>
      <trkpt lat="46.03518" lon="4.75803">
        <ele>189</ele>
        <time>2018-08-22T08:57:42Z</time>
      </trkpt>
      <trkpt lat="46.0352" lon="4.75806">
        <ele>189</ele>
        <time>2018-08-22T08:57:43Z</time>
      </trkpt>
      <trkpt lat="46.03524" lon="4.75811">
        <ele>189</ele>
        <time>2018-08-22T08:57:44Z</time>
      </trkpt>
      <trkpt lat="46.03527" lon="4.75818">
        <ele>189</ele>
        <time>2018-08-22T08:57:45Z</time>
      </trkpt>
      <trkpt lat="46.03529" lon="4.75824">
        <ele>189</ele>
        <time>2018-08-22T08:57:46Z</time>
      </trkpt>
      <trkpt lat="46.03532" lon="4.7583">
        <ele>189</ele>
        <time>2018-08-22T08:57:47Z</time>
      </trkpt>
      <trkpt lat="46.03534" lon="4.75835">
        <ele>190</ele>
        <time>2018-08-22T08:57:48Z</time>
      </trkpt>
      <trkpt lat="46.03537" lon="4.75842">
        <ele>190</ele>
        <time>2018-08-22T08:57:49Z</time>
      </trkpt>
      <trkpt lat="46.0354" lon="4.75853">
        <ele>190</ele>
        <time>2018-08-22T08:57:51Z</time>
      </trkpt>
      <trkpt lat="46.03542" lon="4.75858">
        <ele>189</ele>
        <time>2018-08-22T08:57:52Z</time>
      </trkpt>
      <trkpt lat="46.03544" lon="4.75864">
        <ele>189</ele>
        <time>2018-08-22T08:57:53Z</time>
      </trkpt>
      <trkpt lat="46.03548" lon="4.7587">
        <ele>189</ele>
        <time>2018-08-22T08:57:54Z</time>
      </trkpt>
      <trkpt lat="46.0355" lon="4.75877">
        <ele>189</ele>
        <time>2018-08-22T08:57:55Z</time>
      </trkpt>
      <trkpt lat="46.03552" lon="4.75883">
        <ele>189</ele>
        <time>2018-08-22T08:57:56Z</time>
      </trkpt>
      <trkpt lat="46.03554" lon="4.75894">
        <ele>189</ele>
        <time>2018-08-22T08:57:58Z</time>
      </trkpt>
      <trkpt lat="46.03559" lon="4.75902">
        <ele>189</ele>
        <time>2018-08-22T08:57:59Z</time>
      </trkpt>
      <trkpt lat="46.03563" lon="4.75909">
        <ele>189</ele>
        <time>2018-08-22T08:58:00Z</time>
      </trkpt>
      <trkpt lat="46.03566" lon="4.75914">
        <ele>189</ele>
        <time>2018-08-22T08:58:01Z</time>
      </trkpt>
      <trkpt lat="46.03568" lon="4.7592">
        <ele>189</ele>
        <time>2018-08-22T08:58:02Z</time>
      </trkpt>
      <trkpt lat="46.03571" lon="4.75927">
        <ele>190</ele>
        <time>2018-08-22T08:58:03Z</time>
      </trkpt>
      <trkpt lat="46.03573" lon="4.75933">
        <ele>190</ele>
        <time>2018-08-22T08:58:04Z</time>
      </trkpt>
      <trkpt lat="46.03576" lon="4.75939">
        <ele>190</ele>
        <time>2018-08-22T08:58:05Z</time>
      </trkpt>
      <trkpt lat="46.03582" lon="4.75947">
        <ele>190</ele>
        <time>2018-08-22T08:58:07Z</time>
      </trkpt>
      <trkpt lat="46.03584" lon="4.75952">
        <ele>190</ele>
        <time>2018-08-22T08:58:08Z</time>
      </trkpt>
      <trkpt lat="46.03585" lon="4.75958">
        <ele>190</ele>
        <time>2018-08-22T08:58:09Z</time>
      </trkpt>
      <trkpt lat="46.03587" lon="4.75964">
        <ele>190</ele>
        <time>2018-08-22T08:58:10Z</time>
      </trkpt>
      <trkpt lat="46.0359" lon="4.7597">
        <ele>190</ele>
        <time>2018-08-22T08:58:11Z</time>
      </trkpt>
      <trkpt lat="46.03593" lon="4.75976">
        <ele>190</ele>
        <time>2018-08-22T08:58:12Z</time>
      </trkpt>
      <trkpt lat="46.03595" lon="4.75982">
        <ele>190</ele>
        <time>2018-08-22T08:58:13Z</time>
      </trkpt>
      <trkpt lat="46.03597" lon="4.7599">
        <ele>190</ele>
        <time>2018-08-22T08:58:14Z</time>
      </trkpt>
      <trkpt lat="46.03598" lon="4.75995">
        <ele>190</ele>
        <time>2018-08-22T08:58:15Z</time>
      </trkpt>
      <trkpt lat="46.036" lon="4.76002">
        <ele>191</ele>
        <time>2018-08-22T08:58:16Z</time>
      </trkpt>
      <trkpt lat="46.03603" lon="4.76008">
        <ele>191</ele>
        <time>2018-08-22T08:58:17Z</time>
      </trkpt>
      <trkpt lat="46.03606" lon="4.76013">
        <ele>191</ele>
        <time>2018-08-22T08:58:18Z</time>
      </trkpt>
      <trkpt lat="46.0361" lon="4.76018">
        <ele>191</ele>
        <time>2018-08-22T08:58:19Z</time>
      </trkpt>
      <trkpt lat="46.03612" lon="4.76024">
        <ele>191</ele>
        <time>2018-08-22T08:58:20Z</time>
      </trkpt>
      <trkpt lat="46.03612" lon="4.76031">
        <ele>191</ele>
        <time>2018-08-22T08:58:21Z</time>
      </trkpt>
      <trkpt lat="46.03614" lon="4.76038">
        <ele>191</ele>
        <time>2018-08-22T08:58:22Z</time>
      </trkpt>
      <trkpt lat="46.03616" lon="4.76044">
        <ele>191</ele>
        <time>2018-08-22T08:58:23Z</time>
      </trkpt>
      <trkpt lat="46.03615" lon="4.76051">
        <ele>191</ele>
        <time>2018-08-22T08:58:24Z</time>
      </trkpt>
      <trkpt lat="46.03617" lon="4.76057">
        <ele>191</ele>
        <time>2018-08-22T08:58:25Z</time>
      </trkpt>
      <trkpt lat="46.03621" lon="4.76063">
        <ele>191</ele>
        <time>2018-08-22T08:58:26Z</time>
      </trkpt>
      <trkpt lat="46.0362" lon="4.76071">
        <ele>191</ele>
        <time>2018-08-22T08:58:27Z</time>
      </trkpt>
      <trkpt lat="46.03622" lon="4.76077">
        <ele>191</ele>
        <time>2018-08-22T08:58:28Z</time>
      </trkpt>
      <trkpt lat="46.03623" lon="4.76084">
        <ele>192</ele>
        <time>2018-08-22T08:58:29Z</time>
      </trkpt>
      <trkpt lat="46.03624" lon="4.76091">
        <ele>192</ele>
        <time>2018-08-22T08:58:30Z</time>
      </trkpt>
      <trkpt lat="46.03626" lon="4.76099">
        <ele>192</ele>
        <time>2018-08-22T08:58:31Z</time>
      </trkpt>
      <trkpt lat="46.03625" lon="4.76106">
        <ele>192</ele>
        <time>2018-08-22T08:58:32Z</time>
      </trkpt>
      <trkpt lat="46.03627" lon="4.76114">
        <ele>192</ele>
        <time>2018-08-22T08:58:33Z</time>
      </trkpt>
      <trkpt lat="46.03626" lon="4.76121">
        <ele>192</ele>
        <time>2018-08-22T08:58:34Z</time>
      </trkpt>
      <trkpt lat="46.03627" lon="4.76129">
        <ele>192</ele>
        <time>2018-08-22T08:58:35Z</time>
      </trkpt>
      <trkpt lat="46.03625" lon="4.76135">
        <ele>192</ele>
        <time>2018-08-22T08:58:36Z</time>
      </trkpt>
      <trkpt lat="46.03626" lon="4.76143">
        <ele>192</ele>
        <time>2018-08-22T08:58:37Z</time>
      </trkpt>
      <trkpt lat="46.03627" lon="4.76151">
        <ele>192</ele>
        <time>2018-08-22T08:58:38Z</time>
      </trkpt>
      <trkpt lat="46.03627" lon="4.76158">
        <ele>192</ele>
        <time>2018-08-22T08:58:39Z</time>
      </trkpt>
      <trkpt lat="46.03628" lon="4.76166">
        <ele>192</ele>
        <time>2018-08-22T08:58:40Z</time>
      </trkpt>
      <trkpt lat="46.03627" lon="4.76172">
        <ele>192</ele>
        <time>2018-08-22T08:58:41Z</time>
      </trkpt>
      <trkpt lat="46.03627" lon="4.76179">
        <ele>193</ele>
        <time>2018-08-22T08:58:42Z</time>
      </trkpt>
      <trkpt lat="46.03625" lon="4.76187">
        <ele>193</ele>
        <time>2018-08-22T08:58:43Z</time>
      </trkpt>
      <trkpt lat="46.03621" lon="4.76195">
        <ele>193</ele>
        <time>2018-08-22T08:58:44Z</time>
      </trkpt>
      <trkpt lat="46.03622" lon="4.76202">
        <ele>193</ele>
        <time>2018-08-22T08:58:45Z</time>
      </trkpt>
      <trkpt lat="46.03621" lon="4.76212">
        <ele>193</ele>
        <time>2018-08-22T08:58:46Z</time>
      </trkpt>
      <trkpt lat="46.0362" lon="4.76224">
        <ele>193</ele>
        <time>2018-08-22T08:58:48Z</time>
      </trkpt>
      <trkpt lat="46.0362" lon="4.76234">
        <ele>193</ele>
        <time>2018-08-22T08:58:49Z</time>
      </trkpt>
      <trkpt lat="46.03619" lon="4.76242">
        <ele>193</ele>
        <time>2018-08-22T08:58:50Z</time>
      </trkpt>
      <trkpt lat="46.03618" lon="4.76248">
        <ele>193</ele>
        <time>2018-08-22T08:58:51Z</time>
      </trkpt>
      <trkpt lat="46.03617" lon="4.76256">
        <ele>194</ele>
        <time>2018-08-22T08:58:52Z</time>
      </trkpt>
      <trkpt lat="46.03617" lon="4.76264">
        <ele>194</ele>
        <time>2018-08-22T08:58:53Z</time>
      </trkpt>
      <trkpt lat="46.03615" lon="4.76276">
        <ele>194</ele>
        <time>2018-08-22T08:58:55Z</time>
      </trkpt>
      <trkpt lat="46.03615" lon="4.76284">
        <ele>194</ele>
        <time>2018-08-22T08:58:56Z</time>
      </trkpt>
      <trkpt lat="46.03615" lon="4.76291">
        <ele>194</ele>
        <time>2018-08-22T08:58:57Z</time>
      </trkpt>
      <trkpt lat="46.03615" lon="4.76298">
        <ele>195</ele>
        <time>2018-08-22T08:58:58Z</time>
      </trkpt>
      <trkpt lat="46.03613" lon="4.76309">
        <ele>195</ele>
        <time>2018-08-22T08:59:00Z</time>
      </trkpt>
      <trkpt lat="46.03611" lon="4.76317">
        <ele>195</ele>
        <time>2018-08-22T08:59:01Z</time>
      </trkpt>
      <trkpt lat="46.03608" lon="4.76329">
        <ele>195</ele>
        <time>2018-08-22T08:59:03Z</time>
      </trkpt>
      <trkpt lat="46.03609" lon="4.76338">
        <ele>196</ele>
        <time>2018-08-22T08:59:04Z</time>
      </trkpt>
      <trkpt lat="46.03609" lon="4.76347">
        <ele>196</ele>
        <time>2018-08-22T08:59:05Z</time>
      </trkpt>
      <trkpt lat="46.03607" lon="4.76352">
        <ele>196</ele>
        <time>2018-08-22T08:59:06Z</time>
      </trkpt>
      <trkpt lat="46.03607" lon="4.76358">
        <ele>196</ele>
        <time>2018-08-22T08:59:07Z</time>
      </trkpt>
      <trkpt lat="46.03606" lon="4.76365">
        <ele>197</ele>
        <time>2018-08-22T08:59:08Z</time>
      </trkpt>
      <trkpt lat="46.03605" lon="4.76377">
        <ele>197</ele>
        <time>2018-08-22T08:59:10Z</time>
      </trkpt>
      <trkpt lat="46.03604" lon="4.76383">
        <ele>197</ele>
        <time>2018-08-22T08:59:11Z</time>
      </trkpt>
      <trkpt lat="46.03604" lon="4.76395">
        <ele>197</ele>
        <time>2018-08-22T08:59:13Z</time>
      </trkpt>
      <trkpt lat="46.03603" lon="4.76402">
        <ele>198</ele>
        <time>2018-08-22T08:59:14Z</time>
      </trkpt>
      <trkpt lat="46.03602" lon="4.76408">
        <ele>198</ele>
        <time>2018-08-22T08:59:15Z</time>
      </trkpt>
      <trkpt lat="46.036" lon="4.76415">
        <ele>198</ele>
        <time>2018-08-22T08:59:16Z</time>
      </trkpt>
      <trkpt lat="46.03599" lon="4.76426">
        <ele>199</ele>
        <time>2018-08-22T08:59:18Z</time>
      </trkpt>
      <trkpt lat="46.03598" lon="4.76432">
        <ele>199</ele>
        <time>2018-08-22T08:59:19Z</time>
      </trkpt>
      <trkpt lat="46.03597" lon="4.76443">
        <ele>199</ele>
        <time>2018-08-22T08:59:21Z</time>
      </trkpt>
      <trkpt lat="46.03598" lon="4.76451">
        <ele>199</ele>
        <time>2018-08-22T08:59:22Z</time>
      </trkpt>
      <trkpt lat="46.03601" lon="4.76456">
        <ele>199</ele>
        <time>2018-08-22T08:59:24Z</time>
      </trkpt>
      <trkpt lat="46.036" lon="4.76464">
        <ele>199</ele>
        <time>2018-08-22T08:59:25Z</time>
      </trkpt>
      <trkpt lat="46.03602" lon="4.76475">
        <ele>199</ele>
        <time>2018-08-22T08:59:27Z</time>
      </trkpt>
      <trkpt lat="46.03607" lon="4.76479">
        <ele>199</ele>
        <time>2018-08-22T08:59:28Z</time>
      </trkpt>
      <trkpt lat="46.03609" lon="4.76483">
        <ele>199</ele>
        <time>2018-08-22T08:59:30Z</time>
      </trkpt>
      <trkpt lat="46.03615" lon="4.76492">
        <ele>199</ele>
        <time>2018-08-22T08:59:31Z</time>
      </trkpt>
      <trkpt lat="46.0362" lon="4.76497">
        <ele>199</ele>
        <time>2018-08-22T08:59:32Z</time>
      </trkpt>
      <trkpt lat="46.03622" lon="4.76504">
        <ele>200</ele>
        <time>2018-08-22T08:59:33Z</time>
      </trkpt>
      <trkpt lat="46.03626" lon="4.76514">
        <ele>200</ele>
        <time>2018-08-22T08:59:35Z</time>
      </trkpt>
      <trkpt lat="46.0363" lon="4.7652">
        <ele>200</ele>
        <time>2018-08-22T08:59:36Z</time>
      </trkpt>
      <trkpt lat="46.03635" lon="4.76527">
        <ele>200</ele>
        <time>2018-08-22T08:59:38Z</time>
      </trkpt>
      <trkpt lat="46.03636" lon="4.76533">
        <ele>200</ele>
        <time>2018-08-22T08:59:39Z</time>
      </trkpt>
      <trkpt lat="46.03639" lon="4.76543">
        <ele>200</ele>
        <time>2018-08-22T08:59:42Z</time>
      </trkpt>
      <trkpt lat="46.03644" lon="4.76548">
        <ele>200</ele>
        <time>2018-08-22T08:59:43Z</time>
      </trkpt>
      <trkpt lat="46.03646" lon="4.76554">
        <ele>201</ele>
        <time>2018-08-22T08:59:44Z</time>
      </trkpt>
      <trkpt lat="46.03649" lon="4.7656">
        <ele>201</ele>
        <time>2018-08-22T08:59:45Z</time>
      </trkpt>
      <trkpt lat="46.03653" lon="4.76568">
        <ele>201</ele>
        <time>2018-08-22T08:59:47Z</time>
      </trkpt>
      <trkpt lat="46.03656" lon="4.76572">
        <ele>201</ele>
        <time>2018-08-22T08:59:48Z</time>
      </trkpt>
      <trkpt lat="46.03662" lon="4.76579">
        <ele>202</ele>
        <time>2018-08-22T08:59:51Z</time>
      </trkpt>
      <trkpt lat="46.03667" lon="4.76584">
        <ele>202</ele>
        <time>2018-08-22T08:59:52Z</time>
      </trkpt>
      <trkpt lat="46.0367" lon="4.76586">
        <ele>202</ele>
        <time>2018-08-22T08:59:54Z</time>
      </trkpt>
      <trkpt lat="46.03676" lon="4.7659">
        <ele>203</ele>
        <time>2018-08-22T08:59:55Z</time>
      </trkpt>
      <trkpt lat="46.03682" lon="4.76598">
        <ele>203</ele>
        <time>2018-08-22T08:59:59Z</time>
      </trkpt>
      <trkpt lat="46.03683" lon="4.76601">
        <ele>203</ele>
        <time>2018-08-22T09:00:00Z</time>
      </trkpt>
      <trkpt lat="46.03684" lon="4.76609">
        <ele>203</ele>
        <time>2018-08-22T09:00:02Z</time>
      </trkpt>
      <trkpt lat="46.03685" lon="4.76623">
        <ele>203</ele>
        <time>2018-08-22T09:00:03Z</time>
      </trkpt>
      <trkpt lat="46.03685" lon="4.76635">
        <ele>204</ele>
        <time>2018-08-22T09:00:06Z</time>
      </trkpt>
      <trkpt lat="46.03685" lon="4.76639">
        <ele>204</ele>
        <time>2018-08-22T09:00:07Z</time>
      </trkpt>
      <trkpt lat="46.03686" lon="4.7665">
        <ele>204</ele>
        <time>2018-08-22T09:00:08Z</time>
      </trkpt>
      <trkpt lat="46.03688" lon="4.76655">
        <ele>204</ele>
        <time>2018-08-22T09:00:09Z</time>
      </trkpt>
      <trkpt lat="46.03692" lon="4.76665">
        <ele>204</ele>
        <time>2018-08-22T09:00:12Z</time>
      </trkpt>
      <trkpt lat="46.03697" lon="4.76672">
        <ele>205</ele>
        <time>2018-08-22T09:00:13Z</time>
      </trkpt>
      <trkpt lat="46.03703" lon="4.76679">
        <ele>205</ele>
        <time>2018-08-22T09:00:15Z</time>
      </trkpt>
      <trkpt lat="46.03706" lon="4.76682">
        <ele>205</ele>
        <time>2018-08-22T09:00:16Z</time>
      </trkpt>
      <trkpt lat="46.03713" lon="4.76688">
        <ele>205</ele>
        <time>2018-08-22T09:00:18Z</time>
      </trkpt>
      <trkpt lat="46.03714" lon="4.76689">
        <ele>205</ele>
        <time>2018-08-22T09:00:19Z</time>
      </trkpt>
      <trkpt lat="46.03719" lon="4.76693">
        <ele>205</ele>
        <time>2018-08-22T09:00:20Z</time>
      </trkpt>
      <trkpt lat="46.03722" lon="4.76695">
        <ele>205</ele>
        <time>2018-08-22T09:00:21Z</time>
      </trkpt>
      <trkpt lat="46.03729" lon="4.76697">
        <ele>205</ele>
        <time>2018-08-22T09:00:23Z</time>
      </trkpt>
      <trkpt lat="46.03731" lon="4.76697">
        <ele>205</ele>
        <time>2018-08-22T09:00:24Z</time>
      </trkpt>
      <trkpt lat="46.03739" lon="4.76698">
        <ele>205</ele>
        <time>2018-08-22T09:00:25Z</time>
      </trkpt>
      <trkpt lat="46.03741" lon="4.76698">
        <ele>205</ele>
        <time>2018-08-22T09:00:26Z</time>
      </trkpt>
      <trkpt lat="46.03747" lon="4.76698">
        <ele>205</ele>
        <time>2018-08-22T09:00:27Z</time>
      </trkpt>
      <trkpt lat="46.03752" lon="4.76698">
        <ele>205</ele>
        <time>2018-08-22T09:00:28Z</time>
      </trkpt>
      <trkpt lat="46.03761" lon="4.76703">
        <ele>205</ele>
        <time>2018-08-22T09:00:30Z</time>
      </trkpt>
      <trkpt lat="46.03764" lon="4.76706">
        <ele>205</ele>
        <time>2018-08-22T09:00:31Z</time>
      </trkpt>
      <trkpt lat="46.03772" lon="4.7671">
        <ele>205</ele>
        <time>2018-08-22T09:00:33Z</time>
      </trkpt>
      <trkpt lat="46.03777" lon="4.76711">
        <ele>205</ele>
        <time>2018-08-22T09:00:34Z</time>
      </trkpt>
      <trkpt lat="46.03785" lon="4.76712">
        <ele>205</ele>
        <time>2018-08-22T09:00:36Z</time>
      </trkpt>
      <trkpt lat="46.03789" lon="4.76713">
        <ele>205</ele>
        <time>2018-08-22T09:00:37Z</time>
      </trkpt>
      <trkpt lat="46.03793" lon="4.76712">
        <ele>205</ele>
        <time>2018-08-22T09:00:38Z</time>
      </trkpt>
      <trkpt lat="46.03799" lon="4.76711">
        <ele>205</ele>
        <time>2018-08-22T09:00:39Z</time>
      </trkpt>
      <trkpt lat="46.03804" lon="4.76712">
        <ele>205</ele>
        <time>2018-08-22T09:00:40Z</time>
      </trkpt>
      <trkpt lat="46.03809" lon="4.76708">
        <ele>205</ele>
        <time>2018-08-22T09:00:41Z</time>
      </trkpt>
      <trkpt lat="46.03817" lon="4.76707">
        <ele>205</ele>
        <time>2018-08-22T09:00:43Z</time>
      </trkpt>
      <trkpt lat="46.03823" lon="4.76705">
        <ele>205</ele>
        <time>2018-08-22T09:00:44Z</time>
      </trkpt>
      <trkpt lat="46.03829" lon="4.76704">
        <ele>205</ele>
        <time>2018-08-22T09:00:45Z</time>
      </trkpt>
      <trkpt lat="46.03834" lon="4.76705">
        <ele>205</ele>
        <time>2018-08-22T09:00:46Z</time>
      </trkpt>
      <trkpt lat="46.03839" lon="4.76705">
        <ele>205</ele>
        <time>2018-08-22T09:00:47Z</time>
      </trkpt>
      <trkpt lat="46.03845" lon="4.76704">
        <ele>205</ele>
        <time>2018-08-22T09:00:48Z</time>
      </trkpt>
      <trkpt lat="46.0385" lon="4.76704">
        <ele>205</ele>
        <time>2018-08-22T09:00:49Z</time>
      </trkpt>
      <trkpt lat="46.03856" lon="4.76702">
        <ele>205</ele>
        <time>2018-08-22T09:00:50Z</time>
      </trkpt>
      <trkpt lat="46.03861" lon="4.76701">
        <ele>205</ele>
        <time>2018-08-22T09:00:51Z</time>
      </trkpt>
      <trkpt lat="46.03866" lon="4.76699">
        <ele>205</ele>
        <time>2018-08-22T09:00:52Z</time>
      </trkpt>
      <trkpt lat="46.03874" lon="4.76698">
        <ele>205</ele>
        <time>2018-08-22T09:00:54Z</time>
      </trkpt>
      <trkpt lat="46.03879" lon="4.76698">
        <ele>205</ele>
        <time>2018-08-22T09:00:55Z</time>
      </trkpt>
      <trkpt lat="46.03884" lon="4.76697">
        <ele>205</ele>
        <time>2018-08-22T09:00:56Z</time>
      </trkpt>
      <trkpt lat="46.03888" lon="4.76695">
        <ele>205</ele>
        <time>2018-08-22T09:00:57Z</time>
      </trkpt>
      <trkpt lat="46.03893" lon="4.76695">
        <ele>205</ele>
        <time>2018-08-22T09:00:58Z</time>
      </trkpt>
      <trkpt lat="46.03899" lon="4.76693">
        <ele>205</ele>
        <time>2018-08-22T09:00:59Z</time>
      </trkpt>
      <trkpt lat="46.03904" lon="4.76691">
        <ele>205</ele>
        <time>2018-08-22T09:01:00Z</time>
      </trkpt>
      <trkpt lat="46.03909" lon="4.7669">
        <ele>205</ele>
        <time>2018-08-22T09:01:01Z</time>
      </trkpt>
      <trkpt lat="46.03916" lon="4.76691">
        <ele>205</ele>
        <time>2018-08-22T09:01:03Z</time>
      </trkpt>
      <trkpt lat="46.03922" lon="4.76691">
        <ele>204</ele>
        <time>2018-08-22T09:01:04Z</time>
      </trkpt>
      <trkpt lat="46.03928" lon="4.76687">
        <ele>204</ele>
        <time>2018-08-22T09:01:05Z</time>
      </trkpt>
      <trkpt lat="46.03934" lon="4.76686">
        <ele>204</ele>
        <time>2018-08-22T09:01:06Z</time>
      </trkpt>
      <trkpt lat="46.03939" lon="4.76683">
        <ele>204</ele>
        <time>2018-08-22T09:01:07Z</time>
      </trkpt>
      <trkpt lat="46.03944" lon="4.76681">
        <ele>204</ele>
        <time>2018-08-22T09:01:08Z</time>
      </trkpt>
      <trkpt lat="46.03949" lon="4.7668">
        <ele>204</ele>
        <time>2018-08-22T09:01:09Z</time>
      </trkpt>
      <trkpt lat="46.03955" lon="4.76675">
        <ele>204</ele>
        <time>2018-08-22T09:01:10Z</time>
      </trkpt>
      <trkpt lat="46.0396" lon="4.76676">
        <ele>203</ele>
        <time>2018-08-22T09:01:11Z</time>
      </trkpt>
      <trkpt lat="46.03965" lon="4.76675">
        <ele>203</ele>
        <time>2018-08-22T09:01:12Z</time>
      </trkpt>
      <trkpt lat="46.03969" lon="4.76675">
        <ele>203</ele>
        <time>2018-08-22T09:01:13Z</time>
      </trkpt>
      <trkpt lat="46.03976" lon="4.76672">
        <ele>203</ele>
        <time>2018-08-22T09:01:14Z</time>
      </trkpt>
      <trkpt lat="46.03981" lon="4.76669">
        <ele>203</ele>
        <time>2018-08-22T09:01:15Z</time>
      </trkpt>
      <trkpt lat="46.03987" lon="4.7667">
        <ele>203</ele>
        <time>2018-08-22T09:01:16Z</time>
      </trkpt>
      <trkpt lat="46.03995" lon="4.76669">
        <ele>202</ele>
        <time>2018-08-22T09:01:18Z</time>
      </trkpt>
      <trkpt lat="46.04001" lon="4.76667">
        <ele>202</ele>
        <time>2018-08-22T09:01:19Z</time>
      </trkpt>
      <trkpt lat="46.04007" lon="4.76664">
        <ele>202</ele>
        <time>2018-08-22T09:01:20Z</time>
      </trkpt>
      <trkpt lat="46.04013" lon="4.76663">
        <ele>202</ele>
        <time>2018-08-22T09:01:21Z</time>
      </trkpt>
      <trkpt lat="46.0402" lon="4.76661">
        <ele>201</ele>
        <time>2018-08-22T09:01:23Z</time>
      </trkpt>
      <trkpt lat="46.04026" lon="4.76661">
        <ele>201</ele>
        <time>2018-08-22T09:01:24Z</time>
      </trkpt>
      <trkpt lat="46.04031" lon="4.76659">
        <ele>201</ele>
        <time>2018-08-22T09:01:25Z</time>
      </trkpt>
      <trkpt lat="46.04038" lon="4.76657">
        <ele>201</ele>
        <time>2018-08-22T09:01:26Z</time>
      </trkpt>
      <trkpt lat="46.04043" lon="4.76657">
        <ele>201</ele>
        <time>2018-08-22T09:01:27Z</time>
      </trkpt>
      <trkpt lat="46.0405" lon="4.76653">
        <ele>201</ele>
        <time>2018-08-22T09:01:28Z</time>
      </trkpt>
      <trkpt lat="46.04056" lon="4.76652">
        <ele>201</ele>
        <time>2018-08-22T09:01:29Z</time>
      </trkpt>
      <trkpt lat="46.0406" lon="4.76653">
        <ele>201</ele>
        <time>2018-08-22T09:01:30Z</time>
      </trkpt>
      <trkpt lat="46.04067" lon="4.76652">
        <ele>201</ele>
        <time>2018-08-22T09:01:31Z</time>
      </trkpt>
      <trkpt lat="46.04073" lon="4.76651">
        <ele>201</ele>
        <time>2018-08-22T09:01:32Z</time>
      </trkpt>
      <trkpt lat="46.04077" lon="4.76651">
        <ele>201</ele>
        <time>2018-08-22T09:01:33Z</time>
      </trkpt>
      <trkpt lat="46.04086" lon="4.76649">
        <ele>201</ele>
        <time>2018-08-22T09:01:34Z</time>
      </trkpt>
      <trkpt lat="46.04092" lon="4.7665">
        <ele>201</ele>
        <time>2018-08-22T09:01:35Z</time>
      </trkpt>
      <trkpt lat="46.04099" lon="4.76651">
        <ele>201</ele>
        <time>2018-08-22T09:01:36Z</time>
      </trkpt>
      <trkpt lat="46.04102" lon="4.76648">
        <ele>200</ele>
        <time>2018-08-22T09:01:37Z</time>
      </trkpt>
      <trkpt lat="46.04108" lon="4.76644">
        <ele>200</ele>
        <time>2018-08-22T09:01:38Z</time>
      </trkpt>
      <trkpt lat="46.04111" lon="4.76643">
        <ele>200</ele>
        <time>2018-08-22T09:01:39Z</time>
      </trkpt>
      <trkpt lat="46.04117" lon="4.76642">
        <ele>200</ele>
        <time>2018-08-22T09:01:40Z</time>
      </trkpt>
      <trkpt lat="46.04124" lon="4.76641">
        <ele>200</ele>
        <time>2018-08-22T09:01:41Z</time>
      </trkpt>
      <trkpt lat="46.04132" lon="4.7664">
        <ele>200</ele>
        <time>2018-08-22T09:01:42Z</time>
      </trkpt>
      <trkpt lat="46.04139" lon="4.76638">
        <ele>200</ele>
        <time>2018-08-22T09:01:43Z</time>
      </trkpt>
      <trkpt lat="46.04143" lon="4.76634">
        <ele>200</ele>
        <time>2018-08-22T09:01:44Z</time>
      </trkpt>
      <trkpt lat="46.04149" lon="4.76632">
        <ele>200</ele>
        <time>2018-08-22T09:01:45Z</time>
      </trkpt>
      <trkpt lat="46.04155" lon="4.76627">
        <ele>200</ele>
        <time>2018-08-22T09:01:46Z</time>
      </trkpt>
      <trkpt lat="46.0416" lon="4.76624">
        <ele>199</ele>
        <time>2018-08-22T09:01:47Z</time>
      </trkpt>
      <trkpt lat="46.04165" lon="4.76619">
        <ele>199</ele>
        <time>2018-08-22T09:01:48Z</time>
      </trkpt>
      <trkpt lat="46.0417" lon="4.76614">
        <ele>198</ele>
        <time>2018-08-22T09:01:49Z</time>
      </trkpt>
      <trkpt lat="46.04176" lon="4.76609">
        <ele>198</ele>
        <time>2018-08-22T09:01:50Z</time>
      </trkpt>
      <trkpt lat="46.04181" lon="4.76605">
        <ele>198</ele>
        <time>2018-08-22T09:01:51Z</time>
      </trkpt>
      <trkpt lat="46.04187" lon="4.766">
        <ele>198</ele>
        <time>2018-08-22T09:01:52Z</time>
      </trkpt>
      <trkpt lat="46.04193" lon="4.76597">
        <ele>198</ele>
        <time>2018-08-22T09:01:53Z</time>
      </trkpt>
      <trkpt lat="46.04201" lon="4.76592">
        <ele>198</ele>
        <time>2018-08-22T09:01:54Z</time>
      </trkpt>
      <trkpt lat="46.04208" lon="4.76589">
        <ele>198</ele>
        <time>2018-08-22T09:01:55Z</time>
      </trkpt>
      <trkpt lat="46.04215" lon="4.76587">
        <ele>198</ele>
        <time>2018-08-22T09:01:56Z</time>
      </trkpt>
      <trkpt lat="46.04223" lon="4.76585">
        <ele>198</ele>
        <time>2018-08-22T09:01:57Z</time>
      </trkpt>
      <trkpt lat="46.0423" lon="4.76582">
        <ele>197</ele>
        <time>2018-08-22T09:01:58Z</time>
      </trkpt>
      <trkpt lat="46.04236" lon="4.76583">
        <ele>197</ele>
        <time>2018-08-22T09:01:59Z</time>
      </trkpt>
      <trkpt lat="46.04243" lon="4.76582">
        <ele>197</ele>
        <time>2018-08-22T09:02:00Z</time>
      </trkpt>
      <trkpt lat="46.0425" lon="4.76582">
        <ele>197</ele>
        <time>2018-08-22T09:02:01Z</time>
      </trkpt>
      <trkpt lat="46.04257" lon="4.76581">
        <ele>197</ele>
        <time>2018-08-22T09:02:02Z</time>
      </trkpt>
      <trkpt lat="46.04264" lon="4.7658">
        <ele>197</ele>
        <time>2018-08-22T09:02:03Z</time>
      </trkpt>
      <trkpt lat="46.04271" lon="4.76582">
        <ele>197</ele>
        <time>2018-08-22T09:02:04Z</time>
      </trkpt>
      <trkpt lat="46.04277" lon="4.76581">
        <ele>197</ele>
        <time>2018-08-22T09:02:05Z</time>
      </trkpt>
      <trkpt lat="46.04284" lon="4.76583">
        <ele>197</ele>
        <time>2018-08-22T09:02:06Z</time>
      </trkpt>
      <trkpt lat="46.04291" lon="4.76577">
        <ele>197</ele>
        <time>2018-08-22T09:02:07Z</time>
      </trkpt>
      <trkpt lat="46.043" lon="4.76579">
        <ele>197</ele>
        <time>2018-08-22T09:02:08Z</time>
      </trkpt>
      <trkpt lat="46.04306" lon="4.76581">
        <ele>197</ele>
        <time>2018-08-22T09:02:09Z</time>
      </trkpt>
      <trkpt lat="46.04314" lon="4.76581">
        <ele>197</ele>
        <time>2018-08-22T09:02:10Z</time>
      </trkpt>
      <trkpt lat="46.0432" lon="4.7658">
        <ele>198</ele>
        <time>2018-08-22T09:02:11Z</time>
      </trkpt>
      <trkpt lat="46.04327" lon="4.76581">
        <ele>198</ele>
        <time>2018-08-22T09:02:12Z</time>
      </trkpt>
      <trkpt lat="46.04335" lon="4.7658">
        <ele>199</ele>
        <time>2018-08-22T09:02:13Z</time>
      </trkpt>
      <trkpt lat="46.04343" lon="4.76578">
        <ele>198</ele>
        <time>2018-08-22T09:02:14Z</time>
      </trkpt>
      <trkpt lat="46.04351" lon="4.76578">
        <ele>198</ele>
        <time>2018-08-22T09:02:15Z</time>
      </trkpt>
      <trkpt lat="46.04358" lon="4.76579">
        <ele>198</ele>
        <time>2018-08-22T09:02:16Z</time>
      </trkpt>
      <trkpt lat="46.04364" lon="4.7658">
        <ele>197</ele>
        <time>2018-08-22T09:02:17Z</time>
      </trkpt>
      <trkpt lat="46.04369" lon="4.76578">
        <ele>197</ele>
        <time>2018-08-22T09:02:18Z</time>
      </trkpt>
      <trkpt lat="46.04377" lon="4.76577">
        <ele>197</ele>
        <time>2018-08-22T09:02:19Z</time>
      </trkpt>
      <trkpt lat="46.04384" lon="4.76574">
        <ele>197</ele>
        <time>2018-08-22T09:02:20Z</time>
      </trkpt>
      <trkpt lat="46.04392" lon="4.76575">
        <ele>198</ele>
        <time>2018-08-22T09:02:21Z</time>
      </trkpt>
      <trkpt lat="46.04399" lon="4.76574">
        <ele>198</ele>
        <time>2018-08-22T09:02:22Z</time>
      </trkpt>
      <trkpt lat="46.04407" lon="4.76574">
        <ele>198</ele>
        <time>2018-08-22T09:02:23Z</time>
      </trkpt>
      <trkpt lat="46.04414" lon="4.76573">
        <ele>198</ele>
        <time>2018-08-22T09:02:24Z</time>
      </trkpt>
      <trkpt lat="46.04422" lon="4.76571">
        <ele>197</ele>
        <time>2018-08-22T09:02:25Z</time>
      </trkpt>
      <trkpt lat="46.04428" lon="4.76571">
        <ele>196</ele>
        <time>2018-08-22T09:02:26Z</time>
      </trkpt>
      <trkpt lat="46.04437" lon="4.7657">
        <ele>195</ele>
        <time>2018-08-22T09:02:27Z</time>
      </trkpt>
      <trkpt lat="46.0444" lon="4.76567">
        <ele>195</ele>
        <time>2018-08-22T09:02:28Z</time>
      </trkpt>
      <trkpt lat="46.04457" lon="4.76565">
        <ele>194</ele>
        <time>2018-08-22T09:02:29Z</time>
      </trkpt>
      <trkpt lat="46.04463" lon="4.76571">
        <ele>194</ele>
        <time>2018-08-22T09:02:30Z</time>
      </trkpt>
      <trkpt lat="46.04472" lon="4.76573">
        <ele>193</ele>
        <time>2018-08-22T09:02:31Z</time>
      </trkpt>
      <trkpt lat="46.04481" lon="4.76563">
        <ele>193</ele>
        <time>2018-08-22T09:02:32Z</time>
      </trkpt>
      <trkpt lat="46.04493" lon="4.76565">
        <ele>192</ele>
        <time>2018-08-22T09:02:33Z</time>
      </trkpt>
      <trkpt lat="46.04496" lon="4.7657">
        <ele>192</ele>
        <time>2018-08-22T09:02:35Z</time>
      </trkpt>
      <trkpt lat="46.04504" lon="4.76567">
        <ele>190</ele>
        <time>2018-08-22T09:02:36Z</time>
      </trkpt>
      <trkpt lat="46.04509" lon="4.76561">
        <ele>189</ele>
        <time>2018-08-22T09:02:37Z</time>
      </trkpt>
      <trkpt lat="46.0451" lon="4.76557">
        <ele>189</ele>
        <time>2018-08-22T09:02:38Z</time>
      </trkpt>
      <trkpt lat="46.04519" lon="4.76558">
        <ele>189</ele>
        <time>2018-08-22T09:02:42Z</time>
      </trkpt>
      <trkpt lat="46.04522" lon="4.76559">
        <ele>189</ele>
        <time>2018-08-22T09:02:43Z</time>
      </trkpt>
      <trkpt lat="46.04524" lon="4.76559">
        <ele>189</ele>
        <time>2018-08-22T09:02:44Z</time>
      </trkpt>
      <trkpt lat="46.04534" lon="4.76558">
        <ele>188</ele>
        <time>2018-08-22T09:02:45Z</time>
      </trkpt>
      <trkpt lat="46.04539" lon="4.76554">
        <ele>188</ele>
        <time>2018-08-22T09:02:46Z</time>
      </trkpt>
      <trkpt lat="46.04543" lon="4.76553">
        <ele>188</ele>
        <time>2018-08-22T09:02:47Z</time>
      </trkpt>
      <trkpt lat="46.04548" lon="4.76554">
        <ele>188</ele>
        <time>2018-08-22T09:02:48Z</time>
      </trkpt>
      <trkpt lat="46.04555" lon="4.76552">
        <ele>188</ele>
        <time>2018-08-22T09:02:49Z</time>
      </trkpt>
      <trkpt lat="46.04563" lon="4.76548">
        <ele>187</ele>
        <time>2018-08-22T09:02:50Z</time>
      </trkpt>
      <trkpt lat="46.04568" lon="4.76545">
        <ele>187</ele>
        <time>2018-08-22T09:02:51Z</time>
      </trkpt>
      <trkpt lat="46.04573" lon="4.76543">
        <ele>187</ele>
        <time>2018-08-22T09:02:52Z</time>
      </trkpt>
      <trkpt lat="46.04579" lon="4.7654">
        <ele>187</ele>
        <time>2018-08-22T09:02:53Z</time>
      </trkpt>
      <trkpt lat="46.04584" lon="4.76538">
        <ele>186</ele>
        <time>2018-08-22T09:02:54Z</time>
      </trkpt>
      <trkpt lat="46.0459" lon="4.76535">
        <ele>186</ele>
        <time>2018-08-22T09:02:55Z</time>
      </trkpt>
      <trkpt lat="46.04595" lon="4.76532">
        <ele>186</ele>
        <time>2018-08-22T09:02:56Z</time>
      </trkpt>
      <trkpt lat="46.04604" lon="4.76527">
        <ele>186</ele>
        <time>2018-08-22T09:02:57Z</time>
      </trkpt>
      <trkpt lat="46.04609" lon="4.76525">
        <ele>186</ele>
        <time>2018-08-22T09:02:58Z</time>
      </trkpt>
      <trkpt lat="46.04615" lon="4.76523">
        <ele>186</ele>
        <time>2018-08-22T09:02:59Z</time>
      </trkpt>
      <trkpt lat="46.04621" lon="4.76521">
        <ele>186</ele>
        <time>2018-08-22T09:03:00Z</time>
      </trkpt>
      <trkpt lat="46.04626" lon="4.76519">
        <ele>186</ele>
        <time>2018-08-22T09:03:01Z</time>
      </trkpt>
      <trkpt lat="46.04632" lon="4.76515">
        <ele>186</ele>
        <time>2018-08-22T09:03:02Z</time>
      </trkpt>
      <trkpt lat="46.04638" lon="4.76514">
        <ele>186</ele>
        <time>2018-08-22T09:03:03Z</time>
      </trkpt>
      <trkpt lat="46.04643" lon="4.76513">
        <ele>186</ele>
        <time>2018-08-22T09:03:04Z</time>
      </trkpt>
      <trkpt lat="46.04648" lon="4.76511">
        <ele>186</ele>
        <time>2018-08-22T09:03:05Z</time>
      </trkpt>
      <trkpt lat="46.04655" lon="4.76512">
        <ele>186</ele>
        <time>2018-08-22T09:03:06Z</time>
      </trkpt>
      <trkpt lat="46.04661" lon="4.76511">
        <ele>186</ele>
        <time>2018-08-22T09:03:07Z</time>
      </trkpt>
      <trkpt lat="46.0467" lon="4.76512">
        <ele>187</ele>
        <time>2018-08-22T09:03:09Z</time>
      </trkpt>
      <trkpt lat="46.04673" lon="4.76514">
        <ele>187</ele>
        <time>2018-08-22T09:03:10Z</time>
      </trkpt>
      <trkpt lat="46.0468" lon="4.76514">
        <ele>187</ele>
        <time>2018-08-22T09:03:14Z</time>
      </trkpt>
      <trkpt lat="46.04682" lon="4.76513">
        <ele>187</ele>
        <time>2018-08-22T09:03:15Z</time>
      </trkpt>
      <trkpt lat="46.04689" lon="4.76508">
        <ele>187</ele>
        <time>2018-08-22T09:03:23Z</time>
      </trkpt>
      <trkpt lat="46.04691" lon="4.76507">
        <ele>187</ele>
        <time>2018-08-22T09:03:24Z</time>
      </trkpt>
      <trkpt lat="46.04698" lon="4.765">
        <ele>187</ele>
        <time>2018-08-22T09:03:28Z</time>
      </trkpt>
      <trkpt lat="46.04699" lon="4.76498">
        <ele>188</ele>
        <time>2018-08-22T09:03:29Z</time>
      </trkpt>
      <trkpt lat="46.04706" lon="4.76491">
        <ele>189</ele>
        <time>2018-08-22T09:03:32Z</time>
      </trkpt>
      <trkpt lat="46.04708" lon="4.76489">
        <ele>189</ele>
        <time>2018-08-22T09:03:33Z</time>
      </trkpt>
      <trkpt lat="46.04717" lon="4.76484">
        <ele>189</ele>
        <time>2018-08-22T09:03:34Z</time>
      </trkpt>
      <trkpt lat="46.04724" lon="4.7648">
        <ele>189</ele>
        <time>2018-08-22T09:03:37Z</time>
      </trkpt>
      <trkpt lat="46.04726" lon="4.76479">
        <ele>189</ele>
        <time>2018-08-22T09:03:38Z</time>
      </trkpt>
      <trkpt lat="46.04735" lon="4.76478">
        <ele>190</ele>
        <time>2018-08-22T09:03:41Z</time>
      </trkpt>
      <trkpt lat="46.04737" lon="4.76477">
        <ele>190</ele>
        <time>2018-08-22T09:03:42Z</time>
      </trkpt>
      <trkpt lat="46.04746" lon="4.76475">
        <ele>190</ele>
        <time>2018-08-22T09:03:45Z</time>
      </trkpt>
      <trkpt lat="46.04749" lon="4.76473">
        <ele>190</ele>
        <time>2018-08-22T09:03:46Z</time>
      </trkpt>
      <trkpt lat="46.04754" lon="4.7647">
        <ele>192</ele>
        <time>2018-08-22T09:03:48Z</time>
      </trkpt>
      <trkpt lat="46.04764" lon="4.76464">
        <ele>192</ele>
        <time>2018-08-22T09:03:49Z</time>
      </trkpt>
      <trkpt lat="46.04771" lon="4.76458">
        <ele>192</ele>
        <time>2018-08-22T09:03:51Z</time>
      </trkpt>
      <trkpt lat="46.04775" lon="4.76455">
        <ele>192</ele>
        <time>2018-08-22T09:03:52Z</time>
      </trkpt>
      <trkpt lat="46.04781" lon="4.7645">
        <ele>192</ele>
        <time>2018-08-22T09:03:55Z</time>
      </trkpt>
      <trkpt lat="46.04783" lon="4.76449">
        <ele>192</ele>
        <time>2018-08-22T09:03:56Z</time>
      </trkpt>
      <trkpt lat="46.04792" lon="4.76445">
        <ele>193</ele>
        <time>2018-08-22T09:03:57Z</time>
      </trkpt>
      <trkpt lat="46.04796" lon="4.76444">
        <ele>193</ele>
        <time>2018-08-22T09:03:59Z</time>
      </trkpt>
      <trkpt lat="46.04801" lon="4.7644">
        <ele>193</ele>
        <time>2018-08-22T09:04:00Z</time>
      </trkpt>
      <trkpt lat="46.04812" lon="4.76455">
        <ele>193</ele>
        <time>2018-08-22T09:04:01Z</time>
      </trkpt>
      <trkpt lat="46.0481" lon="4.7645">
        <ele>193</ele>
        <time>2018-08-22T09:04:02Z</time>
      </trkpt>
      <trkpt lat="46.0481" lon="4.76442">
        <ele>193</ele>
        <time>2018-08-22T09:04:03Z</time>
      </trkpt>
      <trkpt lat="46.04813" lon="4.76438">
        <ele>193</ele>
        <time>2018-08-22T09:04:05Z</time>
      </trkpt>
      <trkpt lat="46.04825" lon="4.7644">
        <ele>193</ele>
        <time>2018-08-22T09:04:06Z</time>
      </trkpt>
      <trkpt lat="46.0483" lon="4.76443">
        <ele>193</ele>
        <time>2018-08-22T09:04:09Z</time>
      </trkpt>
      <trkpt lat="46.04834" lon="4.76449">
        <ele>194</ele>
        <time>2018-08-22T09:04:10Z</time>
      </trkpt>
      <trkpt lat="46.04843" lon="4.76451">
        <ele>193</ele>
        <time>2018-08-22T09:04:14Z</time>
      </trkpt>
      <trkpt lat="46.04845" lon="4.76451">
        <ele>193</ele>
        <time>2018-08-22T09:04:15Z</time>
      </trkpt>
      <trkpt lat="46.04852" lon="4.76453">
        <ele>193</ele>
        <time>2018-08-22T09:04:16Z</time>
      </trkpt>
      <trkpt lat="46.04856" lon="4.76453">
        <ele>193</ele>
        <time>2018-08-22T09:04:17Z</time>
      </trkpt>
      <trkpt lat="46.04865" lon="4.76455">
        <ele>193</ele>
        <time>2018-08-22T09:04:19Z</time>
      </trkpt>
      <trkpt lat="46.04869" lon="4.76455">
        <ele>193</ele>
        <time>2018-08-22T09:04:20Z</time>
      </trkpt>
      <trkpt lat="46.04877" lon="4.76455">
        <ele>193</ele>
        <time>2018-08-22T09:04:21Z</time>
      </trkpt>
      <trkpt lat="46.04879" lon="4.76456">
        <ele>193</ele>
        <time>2018-08-22T09:04:22Z</time>
      </trkpt>
      <trkpt lat="46.04882" lon="4.76456">
        <ele>193</ele>
        <time>2018-08-22T09:04:23Z</time>
      </trkpt>
      <trkpt lat="46.0489" lon="4.76456">
        <ele>193</ele>
        <time>2018-08-22T09:04:24Z</time>
      </trkpt>
      <trkpt lat="46.04896" lon="4.76457">
        <ele>193</ele>
        <time>2018-08-22T09:04:26Z</time>
      </trkpt>
      <trkpt lat="46.04901" lon="4.76457">
        <ele>193</ele>
        <time>2018-08-22T09:04:27Z</time>
      </trkpt>
      <trkpt lat="46.04908" lon="4.76457">
        <ele>193</ele>
        <time>2018-08-22T09:04:29Z</time>
      </trkpt>
      <trkpt lat="46.04915" lon="4.76448">
        <ele>193</ele>
        <time>2018-08-22T09:04:30Z</time>
      </trkpt>
      <trkpt lat="46.0492" lon="4.76443">
        <ele>191</ele>
        <time>2018-08-22T09:04:31Z</time>
      </trkpt>
      <trkpt lat="46.04925" lon="4.7644">
        <ele>191</ele>
        <time>2018-08-22T09:04:32Z</time>
      </trkpt>
      <trkpt lat="46.04928" lon="4.76438">
        <ele>191</ele>
        <time>2018-08-22T09:04:33Z</time>
      </trkpt>
      <trkpt lat="46.04934" lon="4.76437">
        <ele>191</ele>
        <time>2018-08-22T09:04:34Z</time>
      </trkpt>
      <trkpt lat="46.04939" lon="4.76435">
        <ele>191</ele>
        <time>2018-08-22T09:04:35Z</time>
      </trkpt>
      <trkpt lat="46.04943" lon="4.76432">
        <ele>191</ele>
        <time>2018-08-22T09:04:36Z</time>
      </trkpt>
      <trkpt lat="46.0495" lon="4.76439">
        <ele>191</ele>
        <time>2018-08-22T09:04:38Z</time>
      </trkpt>
      <trkpt lat="46.04956" lon="4.7644">
        <ele>191</ele>
        <time>2018-08-22T09:04:39Z</time>
      </trkpt>
      <trkpt lat="46.04959" lon="4.76445">
        <ele>191</ele>
        <time>2018-08-22T09:04:40Z</time>
      </trkpt>
      <trkpt lat="46.04963" lon="4.7645">
        <ele>191</ele>
        <time>2018-08-22T09:04:41Z</time>
      </trkpt>
      <trkpt lat="46.0497" lon="4.76453">
        <ele>190</ele>
        <time>2018-08-22T09:04:42Z</time>
      </trkpt>
      <trkpt lat="46.04972" lon="4.76455">
        <ele>190</ele>
        <time>2018-08-22T09:04:43Z</time>
      </trkpt>
      <trkpt lat="46.04975" lon="4.76463">
        <ele>190</ele>
        <time>2018-08-22T09:04:45Z</time>
      </trkpt>
      <trkpt lat="46.04978" lon="4.76471">
        <ele>190</ele>
        <time>2018-08-22T09:04:46Z</time>
      </trkpt>
      <trkpt lat="46.04981" lon="4.76478">
        <ele>190</ele>
        <time>2018-08-22T09:04:47Z</time>
      </trkpt>
      <trkpt lat="46.04983" lon="4.76484">
        <ele>190</ele>
        <time>2018-08-22T09:04:48Z</time>
      </trkpt>
      <trkpt lat="46.04984" lon="4.76495">
        <ele>190</ele>
        <time>2018-08-22T09:04:50Z</time>
      </trkpt>
      <trkpt lat="46.04984" lon="4.76497">
        <ele>190</ele>
        <time>2018-08-22T09:04:51Z</time>
      </trkpt>
      <trkpt lat="46.04988" lon="4.76506">
        <ele>191</ele>
        <time>2018-08-22T09:04:52Z</time>
      </trkpt>
      <trkpt lat="46.0499" lon="4.76511">
        <ele>191</ele>
        <time>2018-08-22T09:04:53Z</time>
      </trkpt>
      <trkpt lat="46.04992" lon="4.7652">
        <ele>191</ele>
        <time>2018-08-22T09:04:55Z</time>
      </trkpt>
      <trkpt lat="46.04994" lon="4.76526">
        <ele>191</ele>
        <time>2018-08-22T09:04:56Z</time>
      </trkpt>
      <trkpt lat="46.04999" lon="4.76537">
        <ele>191</ele>
        <time>2018-08-22T09:04:58Z</time>
      </trkpt>
      <trkpt lat="46.05001" lon="4.76542">
        <ele>190</ele>
        <time>2018-08-22T09:04:59Z</time>
      </trkpt>
      <trkpt lat="46.05005" lon="4.76551">
        <ele>190</ele>
        <time>2018-08-22T09:05:02Z</time>
      </trkpt>
      <trkpt lat="46.05006" lon="4.76553">
        <ele>190</ele>
        <time>2018-08-22T09:05:03Z</time>
      </trkpt>
      <trkpt lat="46.05007" lon="4.76556">
        <ele>190</ele>
        <time>2018-08-22T09:05:04Z</time>
      </trkpt>
      <trkpt lat="46.05011" lon="4.76565">
        <ele>191</ele>
        <time>2018-08-22T09:05:05Z</time>
      </trkpt>
      <trkpt lat="46.05015" lon="4.76569">
        <ele>191</ele>
        <time>2018-08-22T09:05:06Z</time>
      </trkpt>
      <trkpt lat="46.0502" lon="4.7657">
        <ele>190</ele>
        <time>2018-08-22T09:05:07Z</time>
      </trkpt>
      <trkpt lat="46.05025" lon="4.76572">
        <ele>190</ele>
        <time>2018-08-22T09:05:08Z</time>
      </trkpt>
      <trkpt lat="46.05031" lon="4.76574">
        <ele>190</ele>
        <time>2018-08-22T09:05:09Z</time>
      </trkpt>
      <trkpt lat="46.05036" lon="4.76577">
        <ele>190</ele>
        <time>2018-08-22T09:05:10Z</time>
      </trkpt>
      <trkpt lat="46.05041" lon="4.7658">
        <ele>190</ele>
        <time>2018-08-22T09:05:11Z</time>
      </trkpt>
      <trkpt lat="46.05046" lon="4.76583">
        <ele>190</ele>
        <time>2018-08-22T09:05:12Z</time>
      </trkpt>
      <trkpt lat="46.0505" lon="4.76588">
        <ele>191</ele>
        <time>2018-08-22T09:05:13Z</time>
      </trkpt>
      <trkpt lat="46.05056" lon="4.7659">
        <ele>191</ele>
        <time>2018-08-22T09:05:15.043Z</time>
      </trkpt>
      <trkpt lat="46.0506" lon="4.76595">
        <ele>191</ele>
        <time>2018-08-22T09:05:15Z</time>
      </trkpt>
      <trkpt lat="46.05064" lon="4.76599">
        <ele>191</ele>
        <time>2018-08-22T09:05:16Z</time>
      </trkpt>
      <trkpt lat="46.0507" lon="4.76604">
        <ele>191</ele>
        <time>2018-08-22T09:05:17Z</time>
      </trkpt>
      <trkpt lat="46.05075" lon="4.76607">
        <ele>191</ele>
        <time>2018-08-22T09:05:18Z</time>
      </trkpt>
      <trkpt lat="46.0508" lon="4.76613">
        <ele>191</ele>
        <time>2018-08-22T09:05:19Z</time>
      </trkpt>
      <trkpt lat="46.05081" lon="4.76622">
        <ele>192</ele>
        <time>2018-08-22T09:05:20Z</time>
      </trkpt>
      <trkpt lat="46.0508" lon="4.7663">
        <ele>192</ele>
        <time>2018-08-22T09:05:21Z</time>
      </trkpt>
      <trkpt lat="46.05083" lon="4.76638">
        <ele>192</ele>
        <time>2018-08-22T09:05:22Z</time>
      </trkpt>
      <trkpt lat="46.05082" lon="4.76645">
        <ele>192</ele>
        <time>2018-08-22T09:05:23Z</time>
      </trkpt>
      <trkpt lat="46.05083" lon="4.76653">
        <ele>192</ele>
        <time>2018-08-22T09:05:24Z</time>
      </trkpt>
      <trkpt lat="46.05084" lon="4.76659">
        <ele>192</ele>
        <time>2018-08-22T09:05:25Z</time>
      </trkpt>
      <trkpt lat="46.05085" lon="4.76667">
        <ele>193</ele>
        <time>2018-08-22T09:05:26Z</time>
      </trkpt>
      <trkpt lat="46.05085" lon="4.76674">
        <ele>193</ele>
        <time>2018-08-22T09:05:27Z</time>
      </trkpt>
      <trkpt lat="46.05086" lon="4.76681">
        <ele>193</ele>
        <time>2018-08-22T09:05:28Z</time>
      </trkpt>
      <trkpt lat="46.05088" lon="4.76688">
        <ele>193</ele>
        <time>2018-08-22T09:05:29Z</time>
      </trkpt>
      <trkpt lat="46.05089" lon="4.767">
        <ele>193</ele>
        <time>2018-08-22T09:05:31Z</time>
      </trkpt>
      <trkpt lat="46.05091" lon="4.76708">
        <ele>193</ele>
        <time>2018-08-22T09:05:32Z</time>
      </trkpt>
      <trkpt lat="46.05091" lon="4.76716">
        <ele>193</ele>
        <time>2018-08-22T09:05:33Z</time>
      </trkpt>
      <trkpt lat="46.05093" lon="4.76723">
        <ele>193</ele>
        <time>2018-08-22T09:05:34Z</time>
      </trkpt>
      <trkpt lat="46.05094" lon="4.7673">
        <ele>193</ele>
        <time>2018-08-22T09:05:35Z</time>
      </trkpt>
      <trkpt lat="46.05096" lon="4.76737">
        <ele>193</ele>
        <time>2018-08-22T09:05:36Z</time>
      </trkpt>
      <trkpt lat="46.05097" lon="4.76744">
        <ele>193</ele>
        <time>2018-08-22T09:05:37Z</time>
      </trkpt>
      <trkpt lat="46.05098" lon="4.76751">
        <ele>194</ele>
        <time>2018-08-22T09:05:38Z</time>
      </trkpt>
      <trkpt lat="46.051" lon="4.76757">
        <ele>194</ele>
        <time>2018-08-22T09:05:39Z</time>
      </trkpt>
      <trkpt lat="46.05102" lon="4.76763">
        <ele>194</ele>
        <time>2018-08-22T09:05:40Z</time>
      </trkpt>
      <trkpt lat="46.05104" lon="4.76769">
        <ele>194</ele>
        <time>2018-08-22T09:05:41Z</time>
      </trkpt>
      <trkpt lat="46.05105" lon="4.76776">
        <ele>194</ele>
        <time>2018-08-22T09:05:42Z</time>
      </trkpt>
      <trkpt lat="46.05108" lon="4.76787">
        <ele>194</ele>
        <time>2018-08-22T09:05:44Z</time>
      </trkpt>
      <trkpt lat="46.0511" lon="4.76793">
        <ele>194</ele>
        <time>2018-08-22T09:05:45Z</time>
      </trkpt>
      <trkpt lat="46.05112" lon="4.76799">
        <ele>194</ele>
        <time>2018-08-22T09:05:46Z</time>
      </trkpt>
      <trkpt lat="46.05113" lon="4.76806">
        <ele>194</ele>
        <time>2018-08-22T09:05:47Z</time>
      </trkpt>
      <trkpt lat="46.05114" lon="4.76812">
        <ele>194</ele>
        <time>2018-08-22T09:05:48Z</time>
      </trkpt>
      <trkpt lat="46.05117" lon="4.7682">
        <ele>194</ele>
        <time>2018-08-22T09:05:49Z</time>
      </trkpt>
      <trkpt lat="46.05121" lon="4.76831">
        <ele>194</ele>
        <time>2018-08-22T09:05:51Z</time>
      </trkpt>
      <trkpt lat="46.05122" lon="4.76836">
        <ele>195</ele>
        <time>2018-08-22T09:05:52Z</time>
      </trkpt>
      <trkpt lat="46.05124" lon="4.76849">
        <ele>195</ele>
        <time>2018-08-22T09:05:55Z</time>
      </trkpt>
      <trkpt lat="46.05124" lon="4.76851">
        <ele>195</ele>
        <time>2018-08-22T09:05:56Z</time>
      </trkpt>
      <trkpt lat="46.05128" lon="4.76863">
        <ele>195</ele>
        <time>2018-08-22T09:05:58Z</time>
      </trkpt>
      <trkpt lat="46.05128" lon="4.76868">
        <ele>195</ele>
        <time>2018-08-22T09:05:59Z</time>
      </trkpt>
      <trkpt lat="46.05131" lon="4.76875">
        <ele>195</ele>
        <time>2018-08-22T09:06:00Z</time>
      </trkpt>
      <trkpt lat="46.05134" lon="4.7688">
        <ele>195</ele>
        <time>2018-08-22T09:06:01Z</time>
      </trkpt>
      <trkpt lat="46.05137" lon="4.76886">
        <ele>195</ele>
        <time>2018-08-22T09:06:02Z</time>
      </trkpt>
      <trkpt lat="46.0514" lon="4.76892">
        <ele>195</ele>
        <time>2018-08-22T09:06:03Z</time>
      </trkpt>
      <trkpt lat="46.05145" lon="4.769">
        <ele>195</ele>
        <time>2018-08-22T09:06:05Z</time>
      </trkpt>
      <trkpt lat="46.05148" lon="4.76906">
        <ele>195</ele>
        <time>2018-08-22T09:06:06Z</time>
      </trkpt>
      <trkpt lat="46.05152" lon="4.76913">
        <ele>195</ele>
        <time>2018-08-22T09:06:09Z</time>
      </trkpt>
      <trkpt lat="46.05157" lon="4.7692">
        <ele>196</ele>
        <time>2018-08-22T09:06:10Z</time>
      </trkpt>
      <trkpt lat="46.05163" lon="4.7693">
        <ele>196</ele>
        <time>2018-08-22T09:06:13Z</time>
      </trkpt>
      <trkpt lat="46.05167" lon="4.76935">
        <ele>197</ele>
        <time>2018-08-22T09:06:14Z</time>
      </trkpt>
      <trkpt lat="46.05169" lon="4.7694">
        <ele>197</ele>
        <time>2018-08-22T09:06:16Z</time>
      </trkpt>
      <trkpt lat="46.05173" lon="4.76947">
        <ele>197</ele>
        <time>2018-08-22T09:06:17Z</time>
      </trkpt>
      <trkpt lat="46.05177" lon="4.76956">
        <ele>197</ele>
        <time>2018-08-22T09:06:19Z</time>
      </trkpt>
      <trkpt lat="46.0518" lon="4.7696">
        <ele>198</ele>
        <time>2018-08-22T09:06:20Z</time>
      </trkpt>
      <trkpt lat="46.05183" lon="4.76968">
        <ele>198</ele>
        <time>2018-08-22T09:06:23Z</time>
      </trkpt>
      <trkpt lat="46.05185" lon="4.76971">
        <ele>198</ele>
        <time>2018-08-22T09:06:24Z</time>
      </trkpt>
      <trkpt lat="46.05188" lon="4.76978">
        <ele>198</ele>
        <time>2018-08-22T09:06:26Z</time>
      </trkpt>
      <trkpt lat="46.05192" lon="4.76989">
        <ele>198</ele>
        <time>2018-08-22T09:06:27Z</time>
      </trkpt>
      <trkpt lat="46.05195" lon="4.77">
        <ele>200</ele>
        <time>2018-08-22T09:06:31Z</time>
      </trkpt>
      <trkpt lat="46.05195" lon="4.77003">
        <ele>200</ele>
        <time>2018-08-22T09:06:32Z</time>
      </trkpt>
      <trkpt lat="46.05196" lon="4.7701">
        <ele>200</ele>
        <time>2018-08-22T09:06:34Z</time>
      </trkpt>
      <trkpt lat="46.05198" lon="4.77023">
        <ele>200</ele>
        <time>2018-08-22T09:06:35Z</time>
      </trkpt>
      <trkpt lat="46.05201" lon="4.77035">
        <ele>200</ele>
        <time>2018-08-22T09:06:39Z</time>
      </trkpt>
      <trkpt lat="46.05201" lon="4.77037">
        <ele>200</ele>
        <time>2018-08-22T09:06:40Z</time>
      </trkpt>
      <trkpt lat="46.05203" lon="4.77042">
        <ele>200</ele>
        <time>2018-08-22T09:06:42Z</time>
      </trkpt>
      <trkpt lat="46.05207" lon="4.77055">
        <ele>201</ele>
        <time>2018-08-22T09:06:43Z</time>
      </trkpt>
      <trkpt lat="46.0521" lon="4.77062">
        <ele>201</ele>
        <time>2018-08-22T09:06:45Z</time>
      </trkpt>
      <trkpt lat="46.05213" lon="4.77068">
        <ele>201</ele>
        <time>2018-08-22T09:06:46Z</time>
      </trkpt>
      <trkpt lat="46.05219" lon="4.77075">
        <ele>201</ele>
        <time>2018-08-22T09:06:48Z</time>
      </trkpt>
      <trkpt lat="46.0522" lon="4.77078">
        <ele>201</ele>
        <time>2018-08-22T09:06:49Z</time>
      </trkpt>
      <trkpt lat="46.05226" lon="4.77088">
        <ele>203</ele>
        <time>2018-08-22T09:06:52Z</time>
      </trkpt>
      <trkpt lat="46.05227" lon="4.77091">
        <ele>203</ele>
        <time>2018-08-22T09:06:53Z</time>
      </trkpt>
      <trkpt lat="46.05232" lon="4.771">
        <ele>203</ele>
        <time>2018-08-22T09:06:56Z</time>
      </trkpt>
      <trkpt lat="46.05234" lon="4.77103">
        <ele>203</ele>
        <time>2018-08-22T09:06:57Z</time>
      </trkpt>
      <trkpt lat="46.0524" lon="4.77108">
        <ele>203</ele>
        <time>2018-08-22T09:07:00Z</time>
      </trkpt>
      <trkpt lat="46.05242" lon="4.77109">
        <ele>203</ele>
        <time>2018-08-22T09:07:01Z</time>
      </trkpt>
      <trkpt lat="46.05249" lon="4.77113">
        <ele>203</ele>
        <time>2018-08-22T09:07:04Z</time>
      </trkpt>
      <trkpt lat="46.05252" lon="4.77115">
        <ele>203</ele>
        <time>2018-08-22T09:07:05Z</time>
      </trkpt>
      <trkpt lat="46.05258" lon="4.77123">
        <ele>204</ele>
        <time>2018-08-22T09:07:08Z</time>
      </trkpt>
      <trkpt lat="46.0526" lon="4.77125">
        <ele>204</ele>
        <time>2018-08-22T09:07:09Z</time>
      </trkpt>
      <trkpt lat="46.05267" lon="4.77133">
        <ele>204</ele>
        <time>2018-08-22T09:07:12Z</time>
      </trkpt>
      <trkpt lat="46.05269" lon="4.77136">
        <ele>204</ele>
        <time>2018-08-22T09:07:13Z</time>
      </trkpt>
      <trkpt lat="46.05275" lon="4.77143">
        <ele>204</ele>
        <time>2018-08-22T09:07:16Z</time>
      </trkpt>
      <trkpt lat="46.05277" lon="4.77145">
        <ele>204</ele>
        <time>2018-08-22T09:07:17Z</time>
      </trkpt>
      <trkpt lat="46.05279" lon="4.77148">
        <ele>204</ele>
        <time>2018-08-22T09:07:18Z</time>
      </trkpt>
      <trkpt lat="46.05287" lon="4.77159">
        <ele>204</ele>
        <time>2018-08-22T09:07:19Z</time>
      </trkpt>
      <trkpt lat="46.05288" lon="4.7716">
        <ele>204</ele>
        <time>2018-08-22T09:07:20Z</time>
      </trkpt>
      <trkpt lat="46.05293" lon="4.77168">
        <ele>205</ele>
        <time>2018-08-22T09:07:21Z</time>
      </trkpt>
      <trkpt lat="46.05296" lon="4.77171">
        <ele>205</ele>
        <time>2018-08-22T09:07:23Z</time>
      </trkpt>
      <trkpt lat="46.05301" lon="4.77178">
        <ele>205</ele>
        <time>2018-08-22T09:07:24Z</time>
      </trkpt>
      <trkpt lat="46.05307" lon="4.77182">
        <ele>205</ele>
        <time>2018-08-22T09:07:26Z</time>
      </trkpt>
      <trkpt lat="46.0531" lon="4.77187">
        <ele>205</ele>
        <time>2018-08-22T09:07:27Z</time>
      </trkpt>
      <trkpt lat="46.05314" lon="4.77191">
        <ele>205</ele>
        <time>2018-08-22T09:07:28Z</time>
      </trkpt>
      <trkpt lat="46.05318" lon="4.77194">
        <ele>205</ele>
        <time>2018-08-22T09:07:29Z</time>
      </trkpt>
      <trkpt lat="46.05323" lon="4.77197">
        <ele>205</ele>
        <time>2018-08-22T09:07:30Z</time>
      </trkpt>
      <trkpt lat="46.05328" lon="4.772">
        <ele>205</ele>
        <time>2018-08-22T09:07:31Z</time>
      </trkpt>
      <trkpt lat="46.05335" lon="4.77203">
        <ele>203</ele>
        <time>2018-08-22T09:07:33Z</time>
      </trkpt>
      <trkpt lat="46.05338" lon="4.77205">
        <ele>203</ele>
        <time>2018-08-22T09:07:34Z</time>
      </trkpt>
      <trkpt lat="46.05342" lon="4.77209">
        <ele>203</ele>
        <time>2018-08-22T09:07:35Z</time>
      </trkpt>
      <trkpt lat="46.05349" lon="4.77212">
        <ele>203</ele>
        <time>2018-08-22T09:07:36Z</time>
      </trkpt>
      <trkpt lat="46.05353" lon="4.7722">
        <ele>203</ele>
        <time>2018-08-22T09:07:38Z</time>
      </trkpt>
      <trkpt lat="46.05357" lon="4.77225">
        <ele>203</ele>
        <time>2018-08-22T09:07:39Z</time>
      </trkpt>
      <trkpt lat="46.05362" lon="4.77227">
        <ele>203</ele>
        <time>2018-08-22T09:07:40Z</time>
      </trkpt>
      <trkpt lat="46.05366" lon="4.7723">
        <ele>203</ele>
        <time>2018-08-22T09:07:41Z</time>
      </trkpt>
      <trkpt lat="46.05374" lon="4.77234">
        <ele>203</ele>
        <time>2018-08-22T09:07:43Z</time>
      </trkpt>
      <trkpt lat="46.05379" lon="4.77234">
        <ele>203</ele>
        <time>2018-08-22T09:07:44Z</time>
      </trkpt>
      <trkpt lat="46.05384" lon="4.77236">
        <ele>202</ele>
        <time>2018-08-22T09:07:45Z</time>
      </trkpt>
      <trkpt lat="46.05388" lon="4.7724">
        <ele>202</ele>
        <time>2018-08-22T09:07:46Z</time>
      </trkpt>
      <trkpt lat="46.05394" lon="4.77241">
        <ele>202</ele>
        <time>2018-08-22T09:07:47Z</time>
      </trkpt>
      <trkpt lat="46.05399" lon="4.77244">
        <ele>202</ele>
        <time>2018-08-22T09:07:48Z</time>
      </trkpt>
      <trkpt lat="46.05403" lon="4.77248">
        <ele>202</ele>
        <time>2018-08-22T09:07:49Z</time>
      </trkpt>
      <trkpt lat="46.05408" lon="4.77252">
        <ele>202</ele>
        <time>2018-08-22T09:07:50Z</time>
      </trkpt>
      <trkpt lat="46.05413" lon="4.77254">
        <ele>202</ele>
        <time>2018-08-22T09:07:51Z</time>
      </trkpt>
      <trkpt lat="46.0542" lon="4.77256">
        <ele>201</ele>
        <time>2018-08-22T09:07:52Z</time>
      </trkpt>
      <trkpt lat="46.05425" lon="4.77258">
        <ele>201</ele>
        <time>2018-08-22T09:07:53Z</time>
      </trkpt>
      <trkpt lat="46.05431" lon="4.77261">
        <ele>201</ele>
        <time>2018-08-22T09:07:54Z</time>
      </trkpt>
      <trkpt lat="46.05436" lon="4.77263">
        <ele>201</ele>
        <time>2018-08-22T09:07:55Z</time>
      </trkpt>
      <trkpt lat="46.05441" lon="4.77265">
        <ele>201</ele>
        <time>2018-08-22T09:07:56Z</time>
      </trkpt>
      <trkpt lat="46.05446" lon="4.77267">
        <ele>201</ele>
        <time>2018-08-22T09:07:57Z</time>
      </trkpt>
      <trkpt lat="46.05451" lon="4.7727">
        <ele>201</ele>
        <time>2018-08-22T09:07:58Z</time>
      </trkpt>
      <trkpt lat="46.05456" lon="4.77273">
        <ele>201</ele>
        <time>2018-08-22T09:07:59Z</time>
      </trkpt>
      <trkpt lat="46.05462" lon="4.77275">
        <ele>201</ele>
        <time>2018-08-22T09:08:00Z</time>
      </trkpt>
      <trkpt lat="46.05467" lon="4.77277">
        <ele>201</ele>
        <time>2018-08-22T09:08:01Z</time>
      </trkpt>
      <trkpt lat="46.05473" lon="4.77278">
        <ele>201</ele>
        <time>2018-08-22T09:08:02Z</time>
      </trkpt>
      <trkpt lat="46.05479" lon="4.7728">
        <ele>201</ele>
        <time>2018-08-22T09:08:03Z</time>
      </trkpt>
      <trkpt lat="46.05486" lon="4.7728">
        <ele>201</ele>
        <time>2018-08-22T09:08:04Z</time>
      </trkpt>
      <trkpt lat="46.05491" lon="4.77284">
        <ele>201</ele>
        <time>2018-08-22T09:08:05Z</time>
      </trkpt>
      <trkpt lat="46.05495" lon="4.77288">
        <ele>201</ele>
        <time>2018-08-22T09:08:06Z</time>
      </trkpt>
      <trkpt lat="46.055" lon="4.77291">
        <ele>201</ele>
        <time>2018-08-22T09:08:07Z</time>
      </trkpt>
      <trkpt lat="46.05505" lon="4.77296">
        <ele>200</ele>
        <time>2018-08-22T09:08:08Z</time>
      </trkpt>
      <trkpt lat="46.05509" lon="4.77299">
        <ele>200</ele>
        <time>2018-08-22T09:08:09Z</time>
      </trkpt>
      <trkpt lat="46.05513" lon="4.77303">
        <ele>200</ele>
        <time>2018-08-22T09:08:10Z</time>
      </trkpt>
      <trkpt lat="46.05517" lon="4.77307">
        <ele>200</ele>
        <time>2018-08-22T09:08:11Z</time>
      </trkpt>
      <trkpt lat="46.05521" lon="4.7731">
        <ele>200</ele>
        <time>2018-08-22T09:08:12Z</time>
      </trkpt>
      <trkpt lat="46.05524" lon="4.77315">
        <ele>200</ele>
        <time>2018-08-22T09:08:13Z</time>
      </trkpt>
      <trkpt lat="46.05529" lon="4.77315">
        <ele>200</ele>
        <time>2018-08-22T09:08:14Z</time>
      </trkpt>
      <trkpt lat="46.05533" lon="4.77318">
        <ele>200</ele>
        <time>2018-08-22T09:08:15Z</time>
      </trkpt>
      <trkpt lat="46.05537" lon="4.77322">
        <ele>200</ele>
        <time>2018-08-22T09:08:16Z</time>
      </trkpt>
      <trkpt lat="46.05543" lon="4.77323">
        <ele>200</ele>
        <time>2018-08-22T09:08:17Z</time>
      </trkpt>
      <trkpt lat="46.05547" lon="4.77326">
        <ele>200</ele>
        <time>2018-08-22T09:08:18Z</time>
      </trkpt>
      <trkpt lat="46.05553" lon="4.77329">
        <ele>200</ele>
        <time>2018-08-22T09:08:19Z</time>
      </trkpt>
      <trkpt lat="46.05558" lon="4.7733">
        <ele>200</ele>
        <time>2018-08-22T09:08:20Z</time>
      </trkpt>
      <trkpt lat="46.05563" lon="4.77332">
        <ele>200</ele>
        <time>2018-08-22T09:08:21Z</time>
      </trkpt>
      <trkpt lat="46.05569" lon="4.77335">
        <ele>201</ele>
        <time>2018-08-22T09:08:22Z</time>
      </trkpt>
      <trkpt lat="46.05575" lon="4.77333">
        <ele>200</ele>
        <time>2018-08-22T09:08:23Z</time>
      </trkpt>
      <trkpt lat="46.0558" lon="4.77335">
        <ele>200</ele>
        <time>2018-08-22T09:08:24Z</time>
      </trkpt>
      <trkpt lat="46.05584" lon="4.77338">
        <ele>201</ele>
        <time>2018-08-22T09:08:25Z</time>
      </trkpt>
      <trkpt lat="46.05589" lon="4.77342">
        <ele>201</ele>
        <time>2018-08-22T09:08:26Z</time>
      </trkpt>
      <trkpt lat="46.05594" lon="4.77347">
        <ele>201</ele>
        <time>2018-08-22T09:08:27Z</time>
      </trkpt>
      <trkpt lat="46.05598" lon="4.77351">
        <ele>202</ele>
        <time>2018-08-22T09:08:28Z</time>
      </trkpt>
      <trkpt lat="46.05603" lon="4.77352">
        <ele>202</ele>
        <time>2018-08-22T09:08:29Z</time>
      </trkpt>
      <trkpt lat="46.05608" lon="4.77356">
        <ele>202</ele>
        <time>2018-08-22T09:08:30Z</time>
      </trkpt>
      <trkpt lat="46.05613" lon="4.77357">
        <ele>202</ele>
        <time>2018-08-22T09:08:31Z</time>
      </trkpt>
      <trkpt lat="46.05619" lon="4.77361">
        <ele>202</ele>
        <time>2018-08-22T09:08:32Z</time>
      </trkpt>
      <trkpt lat="46.05623" lon="4.77364">
        <ele>203</ele>
        <time>2018-08-22T09:08:33Z</time>
      </trkpt>
      <trkpt lat="46.05627" lon="4.77367">
        <ele>203</ele>
        <time>2018-08-22T09:08:34Z</time>
      </trkpt>
      <trkpt lat="46.05634" lon="4.77375">
        <ele>203</ele>
        <time>2018-08-22T09:08:36Z</time>
      </trkpt>
      <trkpt lat="46.05637" lon="4.77377">
        <ele>203</ele>
        <time>2018-08-22T09:08:37Z</time>
      </trkpt>
      <trkpt lat="46.05645" lon="4.77381">
        <ele>203</ele>
        <time>2018-08-22T09:08:39Z</time>
      </trkpt>
      <trkpt lat="46.05648" lon="4.77385">
        <ele>203</ele>
        <time>2018-08-22T09:08:40Z</time>
      </trkpt>
      <trkpt lat="46.05655" lon="4.77393">
        <ele>204</ele>
        <time>2018-08-22T09:08:42Z</time>
      </trkpt>
      <trkpt lat="46.05659" lon="4.77395">
        <ele>204</ele>
        <time>2018-08-22T09:08:43Z</time>
      </trkpt>
      <trkpt lat="46.05662" lon="4.77399">
        <ele>204</ele>
        <time>2018-08-22T09:08:44Z</time>
      </trkpt>
      <trkpt lat="46.05667" lon="4.77404">
        <ele>204</ele>
        <time>2018-08-22T09:08:45Z</time>
      </trkpt>
      <trkpt lat="46.05675" lon="4.7741">
        <ele>205</ele>
        <time>2018-08-22T09:08:47Z</time>
      </trkpt>
      <trkpt lat="46.05679" lon="4.77412">
        <ele>205</ele>
        <time>2018-08-22T09:08:48Z</time>
      </trkpt>
      <trkpt lat="46.05683" lon="4.77416">
        <ele>205</ele>
        <time>2018-08-22T09:08:49Z</time>
      </trkpt>
      <trkpt lat="46.05686" lon="4.7742">
        <ele>206</ele>
        <time>2018-08-22T09:08:50Z</time>
      </trkpt>
      <trkpt lat="46.0569" lon="4.77424">
        <ele>206</ele>
        <time>2018-08-22T09:08:51Z</time>
      </trkpt>
      <trkpt lat="46.05693" lon="4.77428">
        <ele>206</ele>
        <time>2018-08-22T09:08:52Z</time>
      </trkpt>
      <trkpt lat="46.05701" lon="4.77434">
        <ele>206</ele>
        <time>2018-08-22T09:08:54Z</time>
      </trkpt>
      <trkpt lat="46.05704" lon="4.77436">
        <ele>206</ele>
        <time>2018-08-22T09:08:55Z</time>
      </trkpt>
      <trkpt lat="46.0571" lon="4.77442">
        <ele>207</ele>
        <time>2018-08-22T09:08:57Z</time>
      </trkpt>
      <trkpt lat="46.05714" lon="4.77445">
        <ele>207</ele>
        <time>2018-08-22T09:08:58Z</time>
      </trkpt>
      <trkpt lat="46.05722" lon="4.77449">
        <ele>207</ele>
        <time>2018-08-22T09:09:01Z</time>
      </trkpt>
      <trkpt lat="46.05724" lon="4.77451">
        <ele>207</ele>
        <time>2018-08-22T09:09:02Z</time>
      </trkpt>
      <trkpt lat="46.0573" lon="4.77456">
        <ele>207</ele>
        <time>2018-08-22T09:09:05Z</time>
      </trkpt>
      <trkpt lat="46.05733" lon="4.77458">
        <ele>207</ele>
        <time>2018-08-22T09:09:06Z</time>
      </trkpt>
      <trkpt lat="46.05741" lon="4.77465">
        <ele>207</ele>
        <time>2018-08-22T09:09:07Z</time>
      </trkpt>
      <trkpt lat="46.05747" lon="4.77471">
        <ele>207</ele>
        <time>2018-08-22T09:09:09Z</time>
      </trkpt>
      <trkpt lat="46.0575" lon="4.77474">
        <ele>207</ele>
        <time>2018-08-22T09:09:10Z</time>
      </trkpt>
      <trkpt lat="46.05756" lon="4.77482">
        <ele>207</ele>
        <time>2018-08-22T09:09:12Z</time>
      </trkpt>
      <trkpt lat="46.05759" lon="4.77486">
        <ele>207</ele>
        <time>2018-08-22T09:09:13Z</time>
      </trkpt>
      <trkpt lat="46.05764" lon="4.77496">
        <ele>207</ele>
        <time>2018-08-22T09:09:15Z</time>
      </trkpt>
      <trkpt lat="46.05766" lon="4.77499">
        <ele>207</ele>
        <time>2018-08-22T09:09:16Z</time>
      </trkpt>
      <trkpt lat="46.0577" lon="4.77505">
        <ele>208</ele>
        <time>2018-08-22T09:09:17Z</time>
      </trkpt>
      <trkpt lat="46.05773" lon="4.77509">
        <ele>208</ele>
        <time>2018-08-22T09:09:18Z</time>
      </trkpt>
      <trkpt lat="46.0578" lon="4.77517">
        <ele>208</ele>
        <time>2018-08-22T09:09:20Z</time>
      </trkpt>
      <trkpt lat="46.05782" lon="4.77521">
        <ele>208</ele>
        <time>2018-08-22T09:09:21Z</time>
      </trkpt>
      <trkpt lat="46.05785" lon="4.77526">
        <ele>208</ele>
        <time>2018-08-22T09:09:22Z</time>
      </trkpt>
      <trkpt lat="46.05787" lon="4.77531">
        <ele>208</ele>
        <time>2018-08-22T09:09:23Z</time>
      </trkpt>
      <trkpt lat="46.05792" lon="4.77541">
        <ele>208</ele>
        <time>2018-08-22T09:09:25Z</time>
      </trkpt>
      <trkpt lat="46.05795" lon="4.77546">
        <ele>208</ele>
        <time>2018-08-22T09:09:26Z</time>
      </trkpt>
      <trkpt lat="46.05799" lon="4.77551">
        <ele>208</ele>
        <time>2018-08-22T09:09:27Z</time>
      </trkpt>
      <trkpt lat="46.05803" lon="4.77558">
        <ele>208</ele>
        <time>2018-08-22T09:09:28Z</time>
      </trkpt>
      <trkpt lat="46.05806" lon="4.77563">
        <ele>208</ele>
        <time>2018-08-22T09:09:29Z</time>
      </trkpt>
      <trkpt lat="46.05811" lon="4.77568">
        <ele>208</ele>
        <time>2018-08-22T09:09:30Z</time>
      </trkpt>
      <trkpt lat="46.05815" lon="4.77571">
        <ele>208</ele>
        <time>2018-08-22T09:09:31Z</time>
      </trkpt>
      <trkpt lat="46.05819" lon="4.77577">
        <ele>208</ele>
        <time>2018-08-22T09:09:32Z</time>
      </trkpt>
      <trkpt lat="46.05824" lon="4.77583">
        <ele>208</ele>
        <time>2018-08-22T09:09:33Z</time>
      </trkpt>
      <trkpt lat="46.05828" lon="4.77586">
        <ele>208</ele>
        <time>2018-08-22T09:09:34Z</time>
      </trkpt>
      <trkpt lat="46.05832" lon="4.77591">
        <ele>208</ele>
        <time>2018-08-22T09:09:35Z</time>
      </trkpt>
      <trkpt lat="46.05835" lon="4.77596">
        <ele>208</ele>
        <time>2018-08-22T09:09:36Z</time>
      </trkpt>
      <trkpt lat="46.0584" lon="4.776">
        <ele>208</ele>
        <time>2018-08-22T09:09:37Z</time>
      </trkpt>
      <trkpt lat="46.05842" lon="4.77606">
        <ele>208</ele>
        <time>2018-08-22T09:09:38Z</time>
      </trkpt>
      <trkpt lat="46.05849" lon="4.77613">
        <ele>208</ele>
        <time>2018-08-22T09:09:40Z</time>
      </trkpt>
      <trkpt lat="46.05853" lon="4.77618">
        <ele>208</ele>
        <time>2018-08-22T09:09:41Z</time>
      </trkpt>
      <trkpt lat="46.05857" lon="4.77623">
        <ele>208</ele>
        <time>2018-08-22T09:09:42Z</time>
      </trkpt>
      <trkpt lat="46.0586" lon="4.77627">
        <ele>208</ele>
        <time>2018-08-22T09:09:43Z</time>
      </trkpt>
      <trkpt lat="46.05864" lon="4.77631">
        <ele>208</ele>
        <time>2018-08-22T09:09:44Z</time>
      </trkpt>
      <trkpt lat="46.05868" lon="4.77636">
        <ele>208</ele>
        <time>2018-08-22T09:09:45Z</time>
      </trkpt>
      <trkpt lat="46.05872" lon="4.77642">
        <ele>208</ele>
        <time>2018-08-22T09:09:46Z</time>
      </trkpt>
      <trkpt lat="46.05876" lon="4.77647">
        <ele>208</ele>
        <time>2018-08-22T09:09:47Z</time>
      </trkpt>
      <trkpt lat="46.0588" lon="4.77652">
        <ele>208</ele>
        <time>2018-08-22T09:09:48Z</time>
      </trkpt>
      <trkpt lat="46.05883" lon="4.77658">
        <ele>208</ele>
        <time>2018-08-22T09:09:49Z</time>
      </trkpt>
      <trkpt lat="46.05885" lon="4.77666">
        <ele>208</ele>
        <time>2018-08-22T09:09:50Z</time>
      </trkpt>
      <trkpt lat="46.05888" lon="4.77671">
        <ele>208</ele>
        <time>2018-08-22T09:09:51Z</time>
      </trkpt>
      <trkpt lat="46.0589" lon="4.77678">
        <ele>208</ele>
        <time>2018-08-22T09:09:52Z</time>
      </trkpt>
      <trkpt lat="46.05891" lon="4.77684">
        <ele>208</ele>
        <time>2018-08-22T09:09:53Z</time>
      </trkpt>
      <trkpt lat="46.05892" lon="4.77692">
        <ele>208</ele>
        <time>2018-08-22T09:09:54Z</time>
      </trkpt>
      <trkpt lat="46.05894" lon="4.777">
        <ele>208</ele>
        <time>2018-08-22T09:09:55Z</time>
      </trkpt>
      <trkpt lat="46.05894" lon="4.77708">
        <ele>208</ele>
        <time>2018-08-22T09:09:56Z</time>
      </trkpt>
      <trkpt lat="46.05895" lon="4.77713">
        <ele>208</ele>
        <time>2018-08-22T09:09:57Z</time>
      </trkpt>
      <trkpt lat="46.05896" lon="4.77721">
        <ele>209</ele>
        <time>2018-08-22T09:09:58Z</time>
      </trkpt>
      <trkpt lat="46.05898" lon="4.77727">
        <ele>209</ele>
        <time>2018-08-22T09:09:59Z</time>
      </trkpt>
      <trkpt lat="46.05898" lon="4.77734">
        <ele>209</ele>
        <time>2018-08-22T09:10:00Z</time>
      </trkpt>
      <trkpt lat="46.05899" lon="4.77741">
        <ele>209</ele>
        <time>2018-08-22T09:10:01Z</time>
      </trkpt>
      <trkpt lat="46.05901" lon="4.77748">
        <ele>209</ele>
        <time>2018-08-22T09:10:02Z</time>
      </trkpt>
      <trkpt lat="46.05904" lon="4.77755">
        <ele>209</ele>
        <time>2018-08-22T09:10:03Z</time>
      </trkpt>
      <trkpt lat="46.05907" lon="4.77766">
        <ele>209</ele>
        <time>2018-08-22T09:10:05Z</time>
      </trkpt>
      <trkpt lat="46.05911" lon="4.77771">
        <ele>209</ele>
        <time>2018-08-22T09:10:06Z</time>
      </trkpt>
      <trkpt lat="46.05914" lon="4.77777">
        <ele>210</ele>
        <time>2018-08-22T09:10:07Z</time>
      </trkpt>
      <trkpt lat="46.05916" lon="4.77783">
        <ele>210</ele>
        <time>2018-08-22T09:10:08Z</time>
      </trkpt>
      <trkpt lat="46.0592" lon="4.77789">
        <ele>209</ele>
        <time>2018-08-22T09:10:09Z</time>
      </trkpt>
      <trkpt lat="46.05924" lon="4.77794">
        <ele>210</ele>
        <time>2018-08-22T09:10:10Z</time>
      </trkpt>
      <trkpt lat="46.05929" lon="4.77803">
        <ele>210</ele>
        <time>2018-08-22T09:10:12Z</time>
      </trkpt>
      <trkpt lat="46.05932" lon="4.77808">
        <ele>210</ele>
        <time>2018-08-22T09:10:13Z</time>
      </trkpt>
      <trkpt lat="46.0594" lon="4.77814">
        <ele>210</ele>
        <time>2018-08-22T09:10:15Z</time>
      </trkpt>
      <trkpt lat="46.05944" lon="4.77817">
        <ele>210</ele>
        <time>2018-08-22T09:10:16Z</time>
      </trkpt>
      <trkpt lat="46.05947" lon="4.77821">
        <ele>210</ele>
        <time>2018-08-22T09:10:17Z</time>
      </trkpt>
      <trkpt lat="46.05949" lon="4.77828">
        <ele>210</ele>
        <time>2018-08-22T09:10:18Z</time>
      </trkpt>
      <trkpt lat="46.05952" lon="4.77834">
        <ele>211</ele>
        <time>2018-08-22T09:10:19Z</time>
      </trkpt>
      <trkpt lat="46.05954" lon="4.77841">
        <ele>211</ele>
        <time>2018-08-22T09:10:20Z</time>
      </trkpt>
      <trkpt lat="46.05957" lon="4.77848">
        <ele>211</ele>
        <time>2018-08-22T09:10:21Z</time>
      </trkpt>
      <trkpt lat="46.0596" lon="4.77852">
        <ele>211</ele>
        <time>2018-08-22T09:10:22Z</time>
      </trkpt>
      <trkpt lat="46.05964" lon="4.77858">
        <ele>211</ele>
        <time>2018-08-22T09:10:23Z</time>
      </trkpt>
      <trkpt lat="46.05967" lon="4.77864">
        <ele>211</ele>
        <time>2018-08-22T09:10:24Z</time>
      </trkpt>
      <trkpt lat="46.05971" lon="4.7787">
        <ele>211</ele>
        <time>2018-08-22T09:10:25Z</time>
      </trkpt>
      <trkpt lat="46.05973" lon="4.77876">
        <ele>211</ele>
        <time>2018-08-22T09:10:26Z</time>
      </trkpt>
      <trkpt lat="46.05977" lon="4.77883">
        <ele>211</ele>
        <time>2018-08-22T09:10:28Z</time>
      </trkpt>
      <trkpt lat="46.05979" lon="4.77888">
        <ele>211</ele>
        <time>2018-08-22T09:10:29Z</time>
      </trkpt>
      <trkpt lat="46.05981" lon="4.77893">
        <ele>211</ele>
        <time>2018-08-22T09:10:30Z</time>
      </trkpt>
      <trkpt lat="46.05984" lon="4.77899">
        <ele>211</ele>
        <time>2018-08-22T09:10:31Z</time>
      </trkpt>
      <trkpt lat="46.05986" lon="4.77905">
        <ele>211</ele>
        <time>2018-08-22T09:10:32Z</time>
      </trkpt>
      <trkpt lat="46.05988" lon="4.77911">
        <ele>211</ele>
        <time>2018-08-22T09:10:33Z</time>
      </trkpt>
      <trkpt lat="46.0599" lon="4.77917">
        <ele>211</ele>
        <time>2018-08-22T09:10:34Z</time>
      </trkpt>
      <trkpt lat="46.05991" lon="4.77923">
        <ele>211</ele>
        <time>2018-08-22T09:10:35Z</time>
      </trkpt>
      <trkpt lat="46.05993" lon="4.7793">
        <ele>212</ele>
        <time>2018-08-22T09:10:36Z</time>
      </trkpt>
      <trkpt lat="46.05995" lon="4.77936">
        <ele>212</ele>
        <time>2018-08-22T09:10:37Z</time>
      </trkpt>
      <trkpt lat="46.05998" lon="4.77943">
        <ele>212</ele>
        <time>2018-08-22T09:10:39.048Z</time>
      </trkpt>
      <trkpt lat="46.06001" lon="4.77952">
        <ele>211</ele>
        <time>2018-08-22T09:10:39Z</time>
      </trkpt>
      <trkpt lat="46.06006" lon="4.77958">
        <ele>211</ele>
        <time>2018-08-22T09:10:40Z</time>
      </trkpt>
      <trkpt lat="46.06011" lon="4.77961">
        <ele>211</ele>
        <time>2018-08-22T09:10:41Z</time>
      </trkpt>
      <trkpt lat="46.06016" lon="4.77965">
        <ele>211</ele>
        <time>2018-08-22T09:10:42Z</time>
      </trkpt>
      <trkpt lat="46.0602" lon="4.77969">
        <ele>211</ele>
        <time>2018-08-22T09:10:43Z</time>
      </trkpt>
      <trkpt lat="46.06024" lon="4.77972">
        <ele>211</ele>
        <time>2018-08-22T09:10:44Z</time>
      </trkpt>
      <trkpt lat="46.06029" lon="4.77978">
        <ele>211</ele>
        <time>2018-08-22T09:10:45Z</time>
      </trkpt>
      <trkpt lat="46.06034" lon="4.77984">
        <ele>211</ele>
        <time>2018-08-22T09:10:46Z</time>
      </trkpt>
      <trkpt lat="46.06038" lon="4.7799">
        <ele>211</ele>
        <time>2018-08-22T09:10:47Z</time>
      </trkpt>
      <trkpt lat="46.06041" lon="4.77996">
        <ele>211</ele>
        <time>2018-08-22T09:10:48Z</time>
      </trkpt>
      <trkpt lat="46.06044" lon="4.77999">
        <ele>211</ele>
        <time>2018-08-22T09:10:49Z</time>
      </trkpt>
      <trkpt lat="46.06048" lon="4.78005">
        <ele>211</ele>
        <time>2018-08-22T09:10:50Z</time>
      </trkpt>
      <trkpt lat="46.06052" lon="4.7801">
        <ele>211</ele>
        <time>2018-08-22T09:10:51Z</time>
      </trkpt>
      <trkpt lat="46.06058" lon="4.78014">
        <ele>211</ele>
        <time>2018-08-22T09:10:52Z</time>
      </trkpt>
      <trkpt lat="46.06061" lon="4.7802">
        <ele>211</ele>
        <time>2018-08-22T09:10:53Z</time>
      </trkpt>
      <trkpt lat="46.06066" lon="4.78024">
        <ele>211</ele>
        <time>2018-08-22T09:10:54Z</time>
      </trkpt>
      <trkpt lat="46.06071" lon="4.78028">
        <ele>211</ele>
        <time>2018-08-22T09:10:55Z</time>
      </trkpt>
      <trkpt lat="46.06076" lon="4.78031">
        <ele>211</ele>
        <time>2018-08-22T09:10:56Z</time>
      </trkpt>
      <trkpt lat="46.06079" lon="4.78036">
        <ele>211</ele>
        <time>2018-08-22T09:10:57Z</time>
      </trkpt>
      <trkpt lat="46.06084" lon="4.78039">
        <ele>210</ele>
        <time>2018-08-22T09:10:58Z</time>
      </trkpt>
      <trkpt lat="46.06088" lon="4.78043">
        <ele>210</ele>
        <time>2018-08-22T09:10:59Z</time>
      </trkpt>
      <trkpt lat="46.06093" lon="4.78046">
        <ele>210</ele>
        <time>2018-08-22T09:11:00Z</time>
      </trkpt>
      <trkpt lat="46.06098" lon="4.78052">
        <ele>210</ele>
        <time>2018-08-22T09:11:01Z</time>
      </trkpt>
      <trkpt lat="46.06105" lon="4.78059">
        <ele>210</ele>
        <time>2018-08-22T09:11:03Z</time>
      </trkpt>
      <trkpt lat="46.06108" lon="4.78063">
        <ele>210</ele>
        <time>2018-08-22T09:11:04Z</time>
      </trkpt>
      <trkpt lat="46.06113" lon="4.78072">
        <ele>210</ele>
        <time>2018-08-22T09:11:06Z</time>
      </trkpt>
      <trkpt lat="46.06121" lon="4.78083">
        <ele>209</ele>
        <time>2018-08-22T09:11:07Z</time>
      </trkpt>
      <trkpt lat="46.06126" lon="4.78089">
        <ele>209</ele>
        <time>2018-08-22T09:11:08Z</time>
      </trkpt>
      <trkpt lat="46.06135" lon="4.78096">
        <ele>209</ele>
        <time>2018-08-22T09:11:09Z</time>
      </trkpt>
      <trkpt lat="46.06138" lon="4.78098">
        <ele>208</ele>
        <time>2018-08-22T09:11:10Z</time>
      </trkpt>
      <trkpt lat="46.06143" lon="4.78103">
        <ele>208</ele>
        <time>2018-08-22T09:11:11Z</time>
      </trkpt>
      <trkpt lat="46.06149" lon="4.78109">
        <ele>208</ele>
        <time>2018-08-22T09:11:12Z</time>
      </trkpt>
      <trkpt lat="46.06155" lon="4.78115">
        <ele>208</ele>
        <time>2018-08-22T09:11:13Z</time>
      </trkpt>
      <trkpt lat="46.06161" lon="4.7812">
        <ele>208</ele>
        <time>2018-08-22T09:11:14Z</time>
      </trkpt>
      <trkpt lat="46.06169" lon="4.78128">
        <ele>206</ele>
        <time>2018-08-22T09:11:15Z</time>
      </trkpt>
      <trkpt lat="46.06177" lon="4.78135">
        <ele>206</ele>
        <time>2018-08-22T09:11:16Z</time>
      </trkpt>
      <trkpt lat="46.06184" lon="4.78139">
        <ele>206</ele>
        <time>2018-08-22T09:11:17Z</time>
      </trkpt>
      <trkpt lat="46.06191" lon="4.78146">
        <ele>206</ele>
        <time>2018-08-22T09:11:18Z</time>
      </trkpt>
      <trkpt lat="46.06197" lon="4.78151">
        <ele>205</ele>
        <time>2018-08-22T09:11:19Z</time>
      </trkpt>
      <trkpt lat="46.06203" lon="4.78153">
        <ele>205</ele>
        <time>2018-08-22T09:11:20Z</time>
      </trkpt>
      <trkpt lat="46.0621" lon="4.78158">
        <ele>205</ele>
        <time>2018-08-22T09:11:21Z</time>
      </trkpt>
      <trkpt lat="46.06217" lon="4.78161">
        <ele>205</ele>
        <time>2018-08-22T09:11:22Z</time>
      </trkpt>
      <trkpt lat="46.06224" lon="4.78163">
        <ele>205</ele>
        <time>2018-08-22T09:11:23Z</time>
      </trkpt>
      <trkpt lat="46.06231" lon="4.78167">
        <ele>206</ele>
        <time>2018-08-22T09:11:24Z</time>
      </trkpt>
      <trkpt lat="46.06238" lon="4.78172">
        <ele>206</ele>
        <time>2018-08-22T09:11:25Z</time>
      </trkpt>
      <trkpt lat="46.06245" lon="4.78175">
        <ele>206</ele>
        <time>2018-08-22T09:11:26Z</time>
      </trkpt>
      <trkpt lat="46.06252" lon="4.78177">
        <ele>205</ele>
        <time>2018-08-22T09:11:27Z</time>
      </trkpt>
      <trkpt lat="46.06258" lon="4.78181">
        <ele>205</ele>
        <time>2018-08-22T09:11:28Z</time>
      </trkpt>
      <trkpt lat="46.06266" lon="4.78186">
        <ele>205</ele>
        <time>2018-08-22T09:11:29Z</time>
      </trkpt>
      <trkpt lat="46.06273" lon="4.78191">
        <ele>205</ele>
        <time>2018-08-22T09:11:30Z</time>
      </trkpt>
      <trkpt lat="46.06278" lon="4.78194">
        <ele>205</ele>
        <time>2018-08-22T09:11:31Z</time>
      </trkpt>
      <trkpt lat="46.06283" lon="4.78199">
        <ele>205</ele>
        <time>2018-08-22T09:11:32Z</time>
      </trkpt>
      <trkpt lat="46.06289" lon="4.78201">
        <ele>205</ele>
        <time>2018-08-22T09:11:33Z</time>
      </trkpt>
      <trkpt lat="46.06294" lon="4.78205">
        <ele>205</ele>
        <time>2018-08-22T09:11:34Z</time>
      </trkpt>
      <trkpt lat="46.06299" lon="4.7821">
        <ele>205</ele>
        <time>2018-08-22T09:11:35Z</time>
      </trkpt>
      <trkpt lat="46.06303" lon="4.78217">
        <ele>205</ele>
        <time>2018-08-22T09:11:36Z</time>
      </trkpt>
      <trkpt lat="46.06309" lon="4.78222">
        <ele>205</ele>
        <time>2018-08-22T09:11:37Z</time>
      </trkpt>
      <trkpt lat="46.06314" lon="4.78226">
        <ele>205</ele>
        <time>2018-08-22T09:11:38Z</time>
      </trkpt>
      <trkpt lat="46.06319" lon="4.78229">
        <ele>205</ele>
        <time>2018-08-22T09:11:39Z</time>
      </trkpt>
      <trkpt lat="46.06325" lon="4.78232">
        <ele>205</ele>
        <time>2018-08-22T09:11:40Z</time>
      </trkpt>
      <trkpt lat="46.0633" lon="4.78234">
        <ele>206</ele>
        <time>2018-08-22T09:11:41Z</time>
      </trkpt>
      <trkpt lat="46.06335" lon="4.78236">
        <ele>205</ele>
        <time>2018-08-22T09:11:42Z</time>
      </trkpt>
      <trkpt lat="46.0634" lon="4.78237">
        <ele>205</ele>
        <time>2018-08-22T09:11:43Z</time>
      </trkpt>
      <trkpt lat="46.06345" lon="4.78238">
        <ele>205</ele>
        <time>2018-08-22T09:11:44Z</time>
      </trkpt>
      <trkpt lat="46.06349" lon="4.78237">
        <ele>205</ele>
        <time>2018-08-22T09:11:45Z</time>
      </trkpt>
      <trkpt lat="46.06354" lon="4.78235">
        <ele>205</ele>
        <time>2018-08-22T09:11:46Z</time>
      </trkpt>
      <trkpt lat="46.06358" lon="4.78231">
        <ele>205</ele>
        <time>2018-08-22T09:11:47Z</time>
      </trkpt>
      <trkpt lat="46.06363" lon="4.78225">
        <ele>205</ele>
        <time>2018-08-22T09:11:48Z</time>
      </trkpt>
      <trkpt lat="46.06368" lon="4.7822">
        <ele>204</ele>
        <time>2018-08-22T09:11:49Z</time>
      </trkpt>
      <trkpt lat="46.06372" lon="4.78216">
        <ele>204</ele>
        <time>2018-08-22T09:11:50Z</time>
      </trkpt>
      <trkpt lat="46.06376" lon="4.7821">
        <ele>204</ele>
        <time>2018-08-22T09:11:51Z</time>
      </trkpt>
      <trkpt lat="46.0638" lon="4.78204">
        <ele>204</ele>
        <time>2018-08-22T09:11:52Z</time>
      </trkpt>
      <trkpt lat="46.06384" lon="4.78199">
        <ele>204</ele>
        <time>2018-08-22T09:11:53Z</time>
      </trkpt>
      <trkpt lat="46.06389" lon="4.78193">
        <ele>204</ele>
        <time>2018-08-22T09:11:54Z</time>
      </trkpt>
      <trkpt lat="46.06391" lon="4.78187">
        <ele>204</ele>
        <time>2018-08-22T09:11:55Z</time>
      </trkpt>
      <trkpt lat="46.06392" lon="4.7818">
        <ele>204</ele>
        <time>2018-08-22T09:11:56Z</time>
      </trkpt>
      <trkpt lat="46.06391" lon="4.78171">
        <ele>204</ele>
        <time>2018-08-22T09:11:57Z</time>
      </trkpt>
      <trkpt lat="46.0639" lon="4.78162">
        <ele>201</ele>
        <time>2018-08-22T09:11:58Z</time>
      </trkpt>
      <trkpt lat="46.06389" lon="4.78153">
        <ele>201</ele>
        <time>2018-08-22T09:11:59Z</time>
      </trkpt>
      <trkpt lat="46.06391" lon="4.78144">
        <ele>201</ele>
        <time>2018-08-22T09:12:00Z</time>
      </trkpt>
      <trkpt lat="46.06392" lon="4.78134">
        <ele>201</ele>
        <time>2018-08-22T09:12:01Z</time>
      </trkpt>
      <trkpt lat="46.06394" lon="4.78126">
        <ele>201</ele>
        <time>2018-08-22T09:12:02Z</time>
      </trkpt>
      <trkpt lat="46.06396" lon="4.78115">
        <ele>200</ele>
        <time>2018-08-22T09:12:03Z</time>
      </trkpt>
      <trkpt lat="46.06396" lon="4.78106">
        <ele>200</ele>
        <time>2018-08-22T09:12:04Z</time>
      </trkpt>
      <trkpt lat="46.06397" lon="4.78097">
        <ele>200</ele>
        <time>2018-08-22T09:12:05Z</time>
      </trkpt>
      <trkpt lat="46.06401" lon="4.78089">
        <ele>200</ele>
        <time>2018-08-22T09:12:06Z</time>
      </trkpt>
      <trkpt lat="46.06404" lon="4.78081">
        <ele>198</ele>
        <time>2018-08-22T09:12:07Z</time>
      </trkpt>
      <trkpt lat="46.06406" lon="4.78075">
        <ele>198</ele>
        <time>2018-08-22T09:12:08Z</time>
      </trkpt>
      <trkpt lat="46.06409" lon="4.78065">
        <ele>198</ele>
        <time>2018-08-22T09:12:09Z</time>
      </trkpt>
      <trkpt lat="46.06412" lon="4.78056">
        <ele>198</ele>
        <time>2018-08-22T09:12:10Z</time>
      </trkpt>
      <trkpt lat="46.06416" lon="4.78051">
        <ele>197</ele>
        <time>2018-08-22T09:12:11Z</time>
      </trkpt>
      <trkpt lat="46.06421" lon="4.78044">
        <ele>198</ele>
        <time>2018-08-22T09:12:12Z</time>
      </trkpt>
      <trkpt lat="46.06425" lon="4.7804">
        <ele>198</ele>
        <time>2018-08-22T09:12:13Z</time>
      </trkpt>
      <trkpt lat="46.06429" lon="4.78033">
        <ele>198</ele>
        <time>2018-08-22T09:12:14Z</time>
      </trkpt>
      <trkpt lat="46.06434" lon="4.78027">
        <ele>198</ele>
        <time>2018-08-22T09:12:15Z</time>
      </trkpt>
      <trkpt lat="46.06438" lon="4.78021">
        <ele>198</ele>
        <time>2018-08-22T09:12:16Z</time>
      </trkpt>
      <trkpt lat="46.06441" lon="4.78011">
        <ele>197</ele>
        <time>2018-08-22T09:12:17Z</time>
      </trkpt>
      <trkpt lat="46.06444" lon="4.78002">
        <ele>197</ele>
        <time>2018-08-22T09:12:18Z</time>
      </trkpt>
      <trkpt lat="46.06447" lon="4.77992">
        <ele>195</ele>
        <time>2018-08-22T09:12:19Z</time>
      </trkpt>
      <trkpt lat="46.06449" lon="4.77983">
        <ele>195</ele>
        <time>2018-08-22T09:12:20Z</time>
      </trkpt>
      <trkpt lat="46.06451" lon="4.77973">
        <ele>195</ele>
        <time>2018-08-22T09:12:21Z</time>
      </trkpt>
      <trkpt lat="46.06453" lon="4.77962">
        <ele>195</ele>
        <time>2018-08-22T09:12:22Z</time>
      </trkpt>
      <trkpt lat="46.06456" lon="4.7795">
        <ele>195</ele>
        <time>2018-08-22T09:12:23Z</time>
      </trkpt>
      <trkpt lat="46.06459" lon="4.7794">
        <ele>195</ele>
        <time>2018-08-22T09:12:24Z</time>
      </trkpt>
      <trkpt lat="46.06461" lon="4.7793">
        <ele>195</ele>
        <time>2018-08-22T09:12:25Z</time>
      </trkpt>
      <trkpt lat="46.06463" lon="4.7792">
        <ele>194</ele>
        <time>2018-08-22T09:12:26Z</time>
      </trkpt>
      <trkpt lat="46.06467" lon="4.77908">
        <ele>193</ele>
        <time>2018-08-22T09:12:27Z</time>
      </trkpt>
      <trkpt lat="46.0647" lon="4.77898">
        <ele>193</ele>
        <time>2018-08-22T09:12:28Z</time>
      </trkpt>
      <trkpt lat="46.06474" lon="4.77888">
        <ele>193</ele>
        <time>2018-08-22T09:12:29Z</time>
      </trkpt>
      <trkpt lat="46.06478" lon="4.77878">
        <ele>193</ele>
        <time>2018-08-22T09:12:30Z</time>
      </trkpt>
      <trkpt lat="46.06481" lon="4.77865">
        <ele>192</ele>
        <time>2018-08-22T09:12:31Z</time>
      </trkpt>
      <trkpt lat="46.06485" lon="4.77855">
        <ele>192</ele>
        <time>2018-08-22T09:12:32Z</time>
      </trkpt>
      <trkpt lat="46.0649" lon="4.77844">
        <ele>192</ele>
        <time>2018-08-22T09:12:33Z</time>
      </trkpt>
      <trkpt lat="46.06495" lon="4.77834">
        <ele>192</ele>
        <time>2018-08-22T09:12:34Z</time>
      </trkpt>
      <trkpt lat="46.06499" lon="4.77822">
        <ele>192</ele>
        <time>2018-08-22T09:12:35Z</time>
      </trkpt>
      <trkpt lat="46.06504" lon="4.77811">
        <ele>192</ele>
        <time>2018-08-22T09:12:36Z</time>
      </trkpt>
      <trkpt lat="46.06509" lon="4.77797">
        <ele>192</ele>
        <time>2018-08-22T09:12:37Z</time>
      </trkpt>
      <trkpt lat="46.06515" lon="4.77788">
        <ele>192</ele>
        <time>2018-08-22T09:12:38Z</time>
      </trkpt>
      <trkpt lat="46.0652" lon="4.77778">
        <ele>192</ele>
        <time>2018-08-22T09:12:39Z</time>
      </trkpt>
      <trkpt lat="46.06526" lon="4.77769">
        <ele>192</ele>
        <time>2018-08-22T09:12:40Z</time>
      </trkpt>
      <trkpt lat="46.06532" lon="4.77758">
        <ele>192</ele>
        <time>2018-08-22T09:12:41Z</time>
      </trkpt>
      <trkpt lat="46.06537" lon="4.7775">
        <ele>190</ele>
        <time>2018-08-22T09:12:42Z</time>
      </trkpt>
      <trkpt lat="46.06542" lon="4.77739">
        <ele>190</ele>
        <time>2018-08-22T09:12:43Z</time>
      </trkpt>
      <trkpt lat="46.06547" lon="4.77728">
        <ele>189</ele>
        <time>2018-08-22T09:12:44Z</time>
      </trkpt>
      <trkpt lat="46.06554" lon="4.77719">
        <ele>189</ele>
        <time>2018-08-22T09:12:45Z</time>
      </trkpt>
      <trkpt lat="46.06558" lon="4.7771">
        <ele>189</ele>
        <time>2018-08-22T09:12:46Z</time>
      </trkpt>
      <trkpt lat="46.06567" lon="4.77702">
        <ele>189</ele>
        <time>2018-08-22T09:12:47Z</time>
      </trkpt>
      <trkpt lat="46.06575" lon="4.77696">
        <ele>188</ele>
        <time>2018-08-22T09:12:48Z</time>
      </trkpt>
      <trkpt lat="46.06583" lon="4.77693">
        <ele>188</ele>
        <time>2018-08-22T09:12:49Z</time>
      </trkpt>
      <trkpt lat="46.06591" lon="4.77689">
        <ele>187</ele>
        <time>2018-08-22T09:12:50Z</time>
      </trkpt>
      <trkpt lat="46.06598" lon="4.77684">
        <ele>187</ele>
        <time>2018-08-22T09:12:51Z</time>
      </trkpt>
      <trkpt lat="46.06605" lon="4.7768">
        <ele>187</ele>
        <time>2018-08-22T09:12:52Z</time>
      </trkpt>
      <trkpt lat="46.06612" lon="4.77675">
        <ele>187</ele>
        <time>2018-08-22T09:12:53Z</time>
      </trkpt>
      <trkpt lat="46.06618" lon="4.7767">
        <ele>187</ele>
        <time>2018-08-22T09:12:54Z</time>
      </trkpt>
      <trkpt lat="46.06623" lon="4.77665">
        <ele>185</ele>
        <time>2018-08-22T09:12:55Z</time>
      </trkpt>
      <trkpt lat="46.06625" lon="4.77656">
        <ele>185</ele>
        <time>2018-08-22T09:12:56Z</time>
      </trkpt>
      <trkpt lat="46.06627" lon="4.77642">
        <ele>185</ele>
        <time>2018-08-22T09:12:57Z</time>
      </trkpt>
      <trkpt lat="46.06629" lon="4.77631">
        <ele>185</ele>
        <time>2018-08-22T09:12:58Z</time>
      </trkpt>
      <trkpt lat="46.06631" lon="4.77621">
        <ele>185</ele>
        <time>2018-08-22T09:12:59Z</time>
      </trkpt>
      <trkpt lat="46.06633" lon="4.77609">
        <ele>185</ele>
        <time>2018-08-22T09:13:00Z</time>
      </trkpt>
      <trkpt lat="46.06634" lon="4.77598">
        <ele>185</ele>
        <time>2018-08-22T09:13:01Z</time>
      </trkpt>
      <trkpt lat="46.06634" lon="4.77586">
        <ele>184</ele>
        <time>2018-08-22T09:13:02Z</time>
      </trkpt>
      <trkpt lat="46.06633" lon="4.77572">
        <ele>183</ele>
        <time>2018-08-22T09:13:03Z</time>
      </trkpt>
      <trkpt lat="46.06633" lon="4.77561">
        <ele>183</ele>
        <time>2018-08-22T09:13:04Z</time>
      </trkpt>
      <trkpt lat="46.06631" lon="4.77547">
        <ele>183</ele>
        <time>2018-08-22T09:13:05Z</time>
      </trkpt>
      <trkpt lat="46.06628" lon="4.77535">
        <ele>183</ele>
        <time>2018-08-22T09:13:06Z</time>
      </trkpt>
      <trkpt lat="46.06626" lon="4.77524">
        <ele>182</ele>
        <time>2018-08-22T09:13:07Z</time>
      </trkpt>
      <trkpt lat="46.06622" lon="4.77513">
        <ele>182</ele>
        <time>2018-08-22T09:13:08Z</time>
      </trkpt>
      <trkpt lat="46.06619" lon="4.77503">
        <ele>183</ele>
        <time>2018-08-22T09:13:09Z</time>
      </trkpt>
      <trkpt lat="46.06612" lon="4.77492">
        <ele>181</ele>
        <time>2018-08-22T09:13:10Z</time>
      </trkpt>
      <trkpt lat="46.06606" lon="4.77481">
        <ele>181</ele>
        <time>2018-08-22T09:13:11Z</time>
      </trkpt>
      <trkpt lat="46.066" lon="4.7747">
        <ele>181</ele>
        <time>2018-08-22T09:13:12Z</time>
      </trkpt>
      <trkpt lat="46.06593" lon="4.77458">
        <ele>180</ele>
        <time>2018-08-22T09:13:13Z</time>
      </trkpt>
      <trkpt lat="46.06595" lon="4.77444">
        <ele>180</ele>
        <time>2018-08-22T09:13:14Z</time>
      </trkpt>
      <trkpt lat="46.06595" lon="4.77432">
        <ele>179</ele>
        <time>2018-08-22T09:13:15Z</time>
      </trkpt>
      <trkpt lat="46.06599" lon="4.77425">
        <ele>179</ele>
        <time>2018-08-22T09:13:16Z</time>
      </trkpt>
      <trkpt lat="46.06606" lon="4.77415">
        <ele>177</ele>
        <time>2018-08-22T09:13:17Z</time>
      </trkpt>
      <trkpt lat="46.06612" lon="4.77408">
        <ele>177</ele>
        <time>2018-08-22T09:13:18Z</time>
      </trkpt>
      <trkpt lat="46.06617" lon="4.77398">
        <ele>177</ele>
        <time>2018-08-22T09:13:19Z</time>
      </trkpt>
      <trkpt lat="46.06622" lon="4.77387">
        <ele>176</ele>
        <time>2018-08-22T09:13:20Z</time>
      </trkpt>
      <trkpt lat="46.06626" lon="4.77378">
        <ele>176</ele>
        <time>2018-08-22T09:13:21Z</time>
      </trkpt>
      <trkpt lat="46.0663" lon="4.7737">
        <ele>176</ele>
        <time>2018-08-22T09:13:22Z</time>
      </trkpt>
      <trkpt lat="46.06635" lon="4.7736">
        <ele>176</ele>
        <time>2018-08-22T09:13:23Z</time>
      </trkpt>
      <trkpt lat="46.06639" lon="4.77352">
        <ele>176</ele>
        <time>2018-08-22T09:13:24Z</time>
      </trkpt>
      <trkpt lat="46.06642" lon="4.77343">
        <ele>175</ele>
        <time>2018-08-22T09:13:25Z</time>
      </trkpt>
      <trkpt lat="46.06646" lon="4.77333">
        <ele>174</ele>
        <time>2018-08-22T09:13:26Z</time>
      </trkpt>
      <trkpt lat="46.06649" lon="4.77323">
        <ele>174</ele>
        <time>2018-08-22T09:13:27Z</time>
      </trkpt>
      <trkpt lat="46.06652" lon="4.77314">
        <ele>174</ele>
        <time>2018-08-22T09:13:28Z</time>
      </trkpt>
      <trkpt lat="46.06655" lon="4.77307">
        <ele>174</ele>
        <time>2018-08-22T09:13:29Z</time>
      </trkpt>
      <trkpt lat="46.06658" lon="4.77299">
        <ele>174</ele>
        <time>2018-08-22T09:13:30Z</time>
      </trkpt>
      <trkpt lat="46.06662" lon="4.77291">
        <ele>174</ele>
        <time>2018-08-22T09:13:31Z</time>
      </trkpt>
      <trkpt lat="46.06665" lon="4.77282">
        <ele>174</ele>
        <time>2018-08-22T09:13:32Z</time>
      </trkpt>
      <trkpt lat="46.06669" lon="4.77274">
        <ele>173</ele>
        <time>2018-08-22T09:13:33Z</time>
      </trkpt>
      <trkpt lat="46.06671" lon="4.77264">
        <ele>173</ele>
        <time>2018-08-22T09:13:34Z</time>
      </trkpt>
      <trkpt lat="46.06674" lon="4.77257">
        <ele>173</ele>
        <time>2018-08-22T09:13:35Z</time>
      </trkpt>
      <trkpt lat="46.06677" lon="4.77249">
        <ele>173</ele>
        <time>2018-08-22T09:13:36Z</time>
      </trkpt>
      <trkpt lat="46.06681" lon="4.77241">
        <ele>172</ele>
        <time>2018-08-22T09:13:37Z</time>
      </trkpt>
      <trkpt lat="46.06683" lon="4.77233">
        <ele>172</ele>
        <time>2018-08-22T09:13:38Z</time>
      </trkpt>
      <trkpt lat="46.06685" lon="4.77225">
        <ele>172</ele>
        <time>2018-08-22T09:13:39Z</time>
      </trkpt>
      <trkpt lat="46.06687" lon="4.77218">
        <ele>172</ele>
        <time>2018-08-22T09:13:40Z</time>
      </trkpt>
      <trkpt lat="46.0669" lon="4.77212">
        <ele>172</ele>
        <time>2018-08-22T09:13:41Z</time>
      </trkpt>
      <trkpt lat="46.06693" lon="4.77207">
        <ele>172</ele>
        <time>2018-08-22T09:13:42Z</time>
      </trkpt>
      <trkpt lat="46.06697" lon="4.77203">
        <ele>172</ele>
        <time>2018-08-22T09:13:43Z</time>
      </trkpt>
      <trkpt lat="46.06701" lon="4.77199">
        <ele>172</ele>
        <time>2018-08-22T09:13:44Z</time>
      </trkpt>
      <trkpt lat="46.06706" lon="4.77197">
        <ele>172</ele>
        <time>2018-08-22T09:13:45Z</time>
      </trkpt>
      <trkpt lat="46.06711" lon="4.77197">
        <ele>172</ele>
        <time>2018-08-22T09:13:46Z</time>
      </trkpt>
      <trkpt lat="46.06716" lon="4.77196">
        <ele>172</ele>
        <time>2018-08-22T09:13:47Z</time>
      </trkpt>
      <trkpt lat="46.06721" lon="4.77196">
        <ele>172</ele>
        <time>2018-08-22T09:13:48Z</time>
      </trkpt>
      <trkpt lat="46.06725" lon="4.77195">
        <ele>172</ele>
        <time>2018-08-22T09:13:49Z</time>
      </trkpt>
      <trkpt lat="46.06732" lon="4.7719">
        <ele>172</ele>
        <time>2018-08-22T09:13:50Z</time>
      </trkpt>
      <trkpt lat="46.06737" lon="4.77187">
        <ele>172</ele>
        <time>2018-08-22T09:13:51Z</time>
      </trkpt>
      <trkpt lat="46.06742" lon="4.77184">
        <ele>172</ele>
        <time>2018-08-22T09:13:52Z</time>
      </trkpt>
      <trkpt lat="46.06747" lon="4.7718">
        <ele>172</ele>
        <time>2018-08-22T09:13:53Z</time>
      </trkpt>
      <trkpt lat="46.06752" lon="4.77175">
        <ele>172</ele>
        <time>2018-08-22T09:13:54Z</time>
      </trkpt>
      <trkpt lat="46.06757" lon="4.77168">
        <ele>172</ele>
        <time>2018-08-22T09:13:55Z</time>
      </trkpt>
      <trkpt lat="46.06763" lon="4.77161">
        <ele>172</ele>
        <time>2018-08-22T09:13:56Z</time>
      </trkpt>
      <trkpt lat="46.06766" lon="4.77157">
        <ele>172</ele>
        <time>2018-08-22T09:13:57Z</time>
      </trkpt>
      <trkpt lat="46.0677" lon="4.77152">
        <ele>172</ele>
        <time>2018-08-22T09:13:58Z</time>
      </trkpt>
      <trkpt lat="46.06775" lon="4.77147">
        <ele>172</ele>
        <time>2018-08-22T09:13:59Z</time>
      </trkpt>
      <trkpt lat="46.06779" lon="4.77143">
        <ele>172</ele>
        <time>2018-08-22T09:14:00Z</time>
      </trkpt>
      <trkpt lat="46.06783" lon="4.77138">
        <ele>172</ele>
        <time>2018-08-22T09:14:01Z</time>
      </trkpt>
      <trkpt lat="46.06791" lon="4.77132">
        <ele>172</ele>
        <time>2018-08-22T09:14:03Z</time>
      </trkpt>
      <trkpt lat="46.06795" lon="4.77126">
        <ele>172</ele>
        <time>2018-08-22T09:14:04Z</time>
      </trkpt>
      <trkpt lat="46.068" lon="4.77121">
        <ele>172</ele>
        <time>2018-08-22T09:14:05Z</time>
      </trkpt>
      <trkpt lat="46.06805" lon="4.77119">
        <ele>172</ele>
        <time>2018-08-22T09:14:06Z</time>
      </trkpt>
      <trkpt lat="46.06809" lon="4.77113">
        <ele>172</ele>
        <time>2018-08-22T09:14:07Z</time>
      </trkpt>
      <trkpt lat="46.06814" lon="4.77109">
        <ele>172</ele>
        <time>2018-08-22T09:14:08Z</time>
      </trkpt>
      <trkpt lat="46.06819" lon="4.77106">
        <ele>173</ele>
        <time>2018-08-22T09:14:09Z</time>
      </trkpt>
      <trkpt lat="46.06824" lon="4.77101">
        <ele>173</ele>
        <time>2018-08-22T09:14:10Z</time>
      </trkpt>
      <trkpt lat="46.06828" lon="4.77096">
        <ele>173</ele>
        <time>2018-08-22T09:14:11Z</time>
      </trkpt>
      <trkpt lat="46.06834" lon="4.7709">
        <ele>173</ele>
        <time>2018-08-22T09:14:12Z</time>
      </trkpt>
      <trkpt lat="46.0684" lon="4.77085">
        <ele>173</ele>
        <time>2018-08-22T09:14:13Z</time>
      </trkpt>
      <trkpt lat="46.06845" lon="4.77083">
        <ele>173</ele>
        <time>2018-08-22T09:14:14Z</time>
      </trkpt>
      <trkpt lat="46.06851" lon="4.77081">
        <ele>173</ele>
        <time>2018-08-22T09:14:15Z</time>
      </trkpt>
      <trkpt lat="46.06856" lon="4.77078">
        <ele>173</ele>
        <time>2018-08-22T09:14:16Z</time>
      </trkpt>
      <trkpt lat="46.06862" lon="4.77075">
        <ele>173</ele>
        <time>2018-08-22T09:14:17Z</time>
      </trkpt>
      <trkpt lat="46.06869" lon="4.77074">
        <ele>173</ele>
        <time>2018-08-22T09:14:18Z</time>
      </trkpt>
      <trkpt lat="46.06875" lon="4.77072">
        <ele>173</ele>
        <time>2018-08-22T09:14:19Z</time>
      </trkpt>
      <trkpt lat="46.06881" lon="4.77071">
        <ele>173</ele>
        <time>2018-08-22T09:14:20Z</time>
      </trkpt>
      <trkpt lat="46.06887" lon="4.7707">
        <ele>173</ele>
        <time>2018-08-22T09:14:21Z</time>
      </trkpt>
      <trkpt lat="46.06893" lon="4.77069">
        <ele>173</ele>
        <time>2018-08-22T09:14:22Z</time>
      </trkpt>
      <trkpt lat="46.06899" lon="4.77068">
        <ele>173</ele>
        <time>2018-08-22T09:14:23Z</time>
      </trkpt>
      <trkpt lat="46.06907" lon="4.77067">
        <ele>173</ele>
        <time>2018-08-22T09:14:24Z</time>
      </trkpt>
      <trkpt lat="46.06914" lon="4.77068">
        <ele>173</ele>
        <time>2018-08-22T09:14:25Z</time>
      </trkpt>
      <trkpt lat="46.06918" lon="4.77069">
        <ele>173</ele>
        <time>2018-08-22T09:14:26Z</time>
      </trkpt>
      <trkpt lat="46.06924" lon="4.77069">
        <ele>173</ele>
        <time>2018-08-22T09:14:27Z</time>
      </trkpt>
      <trkpt lat="46.06928" lon="4.77068">
        <ele>173</ele>
        <time>2018-08-22T09:14:28Z</time>
      </trkpt>
      <trkpt lat="46.06936" lon="4.77068">
        <ele>173</ele>
        <time>2018-08-22T09:14:29Z</time>
      </trkpt>
      <trkpt lat="46.06943" lon="4.77068">
        <ele>173</ele>
        <time>2018-08-22T09:14:30Z</time>
      </trkpt>
      <trkpt lat="46.06948" lon="4.77062">
        <ele>173</ele>
        <time>2018-08-22T09:14:31Z</time>
      </trkpt>
      <trkpt lat="46.06953" lon="4.77061">
        <ele>173</ele>
        <time>2018-08-22T09:14:32Z</time>
      </trkpt>
      <trkpt lat="46.06957" lon="4.77063">
        <ele>173</ele>
        <time>2018-08-22T09:14:33Z</time>
      </trkpt>
      <trkpt lat="46.06963" lon="4.77063">
        <ele>173</ele>
        <time>2018-08-22T09:14:34Z</time>
      </trkpt>
      <trkpt lat="46.06967" lon="4.77062">
        <ele>173</ele>
        <time>2018-08-22T09:14:35Z</time>
      </trkpt>
      <trkpt lat="46.06972" lon="4.77063">
        <ele>173</ele>
        <time>2018-08-22T09:14:36Z</time>
      </trkpt>
      <trkpt lat="46.06978" lon="4.77062">
        <ele>173</ele>
        <time>2018-08-22T09:14:37Z</time>
      </trkpt>
      <trkpt lat="46.06983" lon="4.7706">
        <ele>173</ele>
        <time>2018-08-22T09:14:38Z</time>
      </trkpt>
      <trkpt lat="46.06987" lon="4.77057">
        <ele>173</ele>
        <time>2018-08-22T09:14:39Z</time>
      </trkpt>
      <trkpt lat="46.0699" lon="4.77051">
        <ele>173</ele>
        <time>2018-08-22T09:14:40Z</time>
      </trkpt>
      <trkpt lat="46.06992" lon="4.77045">
        <ele>173</ele>
        <time>2018-08-22T09:14:41Z</time>
      </trkpt>
      <trkpt lat="46.06993" lon="4.77038">
        <ele>173</ele>
        <time>2018-08-22T09:14:42Z</time>
      </trkpt>
      <trkpt lat="46.06996" lon="4.77032">
        <ele>173</ele>
        <time>2018-08-22T09:14:43Z</time>
      </trkpt>
      <trkpt lat="46.06999" lon="4.77025">
        <ele>173</ele>
        <time>2018-08-22T09:14:44Z</time>
      </trkpt>
      <trkpt lat="46.07003" lon="4.77019">
        <ele>174</ele>
        <time>2018-08-22T09:14:45Z</time>
      </trkpt>
      <trkpt lat="46.07006" lon="4.77011">
        <ele>174</ele>
        <time>2018-08-22T09:14:46Z</time>
      </trkpt>
      <trkpt lat="46.0701" lon="4.77004">
        <ele>173</ele>
        <time>2018-08-22T09:14:47Z</time>
      </trkpt>
      <trkpt lat="46.07014" lon="4.76996">
        <ele>173</ele>
        <time>2018-08-22T09:14:48Z</time>
      </trkpt>
      <trkpt lat="46.07018" lon="4.76989">
        <ele>173</ele>
        <time>2018-08-22T09:14:49Z</time>
      </trkpt>
      <trkpt lat="46.07021" lon="4.76984">
        <ele>173</ele>
        <time>2018-08-22T09:14:50Z</time>
      </trkpt>
      <trkpt lat="46.07025" lon="4.76977">
        <ele>173</ele>
        <time>2018-08-22T09:14:51Z</time>
      </trkpt>
      <trkpt lat="46.07028" lon="4.7697">
        <ele>173</ele>
        <time>2018-08-22T09:14:52Z</time>
      </trkpt>
      <trkpt lat="46.07032" lon="4.76964">
        <ele>173</ele>
        <time>2018-08-22T09:14:53Z</time>
      </trkpt>
      <trkpt lat="46.07035" lon="4.76958">
        <ele>173</ele>
        <time>2018-08-22T09:14:54Z</time>
      </trkpt>
      <trkpt lat="46.07038" lon="4.76951">
        <ele>173</ele>
        <time>2018-08-22T09:14:55Z</time>
      </trkpt>
      <trkpt lat="46.07041" lon="4.76944">
        <ele>173</ele>
        <time>2018-08-22T09:14:56Z</time>
      </trkpt>
      <trkpt lat="46.07045" lon="4.76938">
        <ele>173</ele>
        <time>2018-08-22T09:14:57Z</time>
      </trkpt>
      <trkpt lat="46.0705" lon="4.76928">
        <ele>173</ele>
        <time>2018-08-22T09:14:58Z</time>
      </trkpt>
      <trkpt lat="46.07054" lon="4.76922">
        <ele>173</ele>
        <time>2018-08-22T09:14:59Z</time>
      </trkpt>
      <trkpt lat="46.07057" lon="4.76915">
        <ele>172</ele>
        <time>2018-08-22T09:15:00Z</time>
      </trkpt>
      <trkpt lat="46.0706" lon="4.76909">
        <ele>172</ele>
        <time>2018-08-22T09:15:01Z</time>
      </trkpt>
      <trkpt lat="46.07063" lon="4.76903">
        <ele>172</ele>
        <time>2018-08-22T09:15:02Z</time>
      </trkpt>
      <trkpt lat="46.07066" lon="4.76896">
        <ele>172</ele>
        <time>2018-08-22T09:15:03Z</time>
      </trkpt>
      <trkpt lat="46.07069" lon="4.7689">
        <ele>172</ele>
        <time>2018-08-22T09:15:04Z</time>
      </trkpt>
      <trkpt lat="46.07072" lon="4.76885">
        <ele>172</ele>
        <time>2018-08-22T09:15:05Z</time>
      </trkpt>
      <trkpt lat="46.07075" lon="4.76879">
        <ele>172</ele>
        <time>2018-08-22T09:15:06Z</time>
      </trkpt>
      <trkpt lat="46.07079" lon="4.76873">
        <ele>172</ele>
        <time>2018-08-22T09:15:07Z</time>
      </trkpt>
      <trkpt lat="46.07082" lon="4.76867">
        <ele>172</ele>
        <time>2018-08-22T09:15:08Z</time>
      </trkpt>
      <trkpt lat="46.07083" lon="4.76861">
        <ele>172</ele>
        <time>2018-08-22T09:15:09Z</time>
      </trkpt>
      <trkpt lat="46.07087" lon="4.76855">
        <ele>173</ele>
        <time>2018-08-22T09:15:10Z</time>
      </trkpt>
      <trkpt lat="46.07089" lon="4.76848">
        <ele>172</ele>
        <time>2018-08-22T09:15:11Z</time>
      </trkpt>
      <trkpt lat="46.07093" lon="4.76841">
        <ele>172</ele>
        <time>2018-08-22T09:15:12Z</time>
      </trkpt>
      <trkpt lat="46.07097" lon="4.76835">
        <ele>172</ele>
        <time>2018-08-22T09:15:13Z</time>
      </trkpt>
      <trkpt lat="46.071" lon="4.76829">
        <ele>172</ele>
        <time>2018-08-22T09:15:14Z</time>
      </trkpt>
      <trkpt lat="46.07102" lon="4.76823">
        <ele>172</ele>
        <time>2018-08-22T09:15:15Z</time>
      </trkpt>
      <trkpt lat="46.07106" lon="4.76816">
        <ele>172</ele>
        <time>2018-08-22T09:15:16Z</time>
      </trkpt>
      <trkpt lat="46.0711" lon="4.76809">
        <ele>172</ele>
        <time>2018-08-22T09:15:17Z</time>
      </trkpt>
      <trkpt lat="46.07114" lon="4.76803">
        <ele>172</ele>
        <time>2018-08-22T09:15:18Z</time>
      </trkpt>
      <trkpt lat="46.07119" lon="4.76793">
        <ele>172</ele>
        <time>2018-08-22T09:15:20Z</time>
      </trkpt>
      <trkpt lat="46.07123" lon="4.76783">
        <ele>171</ele>
        <time>2018-08-22T09:15:21Z</time>
      </trkpt>
      <trkpt lat="46.07126" lon="4.76776">
        <ele>171</ele>
        <time>2018-08-22T09:15:22Z</time>
      </trkpt>
      <trkpt lat="46.07129" lon="4.76767">
        <ele>171</ele>
        <time>2018-08-22T09:15:23Z</time>
      </trkpt>
      <trkpt lat="46.07132" lon="4.76761">
        <ele>171</ele>
        <time>2018-08-22T09:15:24Z</time>
      </trkpt>
      <trkpt lat="46.07135" lon="4.76755">
        <ele>171</ele>
        <time>2018-08-22T09:15:25Z</time>
      </trkpt>
      <trkpt lat="46.07138" lon="4.76749">
        <ele>171</ele>
        <time>2018-08-22T09:15:26Z</time>
      </trkpt>
      <trkpt lat="46.0714" lon="4.76744">
        <ele>171</ele>
        <time>2018-08-22T09:15:27Z</time>
      </trkpt>
      <trkpt lat="46.07143" lon="4.76738">
        <ele>171</ele>
        <time>2018-08-22T09:15:28Z</time>
      </trkpt>
      <trkpt lat="46.07147" lon="4.7673">
        <ele>171</ele>
        <time>2018-08-22T09:15:29Z</time>
      </trkpt>
      <trkpt lat="46.07149" lon="4.76724">
        <ele>170</ele>
        <time>2018-08-22T09:15:30Z</time>
      </trkpt>
      <trkpt lat="46.07152" lon="4.76718">
        <ele>170</ele>
        <time>2018-08-22T09:15:31Z</time>
      </trkpt>
      <trkpt lat="46.07159" lon="4.7671">
        <ele>170</ele>
        <time>2018-08-22T09:15:33Z</time>
      </trkpt>
      <trkpt lat="46.0716" lon="4.76702">
        <ele>170</ele>
        <time>2018-08-22T09:15:34Z</time>
      </trkpt>
      <trkpt lat="46.07164" lon="4.76698">
        <ele>170</ele>
        <time>2018-08-22T09:15:35Z</time>
      </trkpt>
      <trkpt lat="46.07168" lon="4.76691">
        <ele>170</ele>
        <time>2018-08-22T09:15:36Z</time>
      </trkpt>
      <trkpt lat="46.07171" lon="4.76685">
        <ele>170</ele>
        <time>2018-08-22T09:15:37Z</time>
      </trkpt>
      <trkpt lat="46.07174" lon="4.7668">
        <ele>170</ele>
        <time>2018-08-22T09:15:38Z</time>
      </trkpt>
      <trkpt lat="46.07177" lon="4.76674">
        <ele>170</ele>
        <time>2018-08-22T09:15:39Z</time>
      </trkpt>
      <trkpt lat="46.07181" lon="4.76667">
        <ele>170</ele>
        <time>2018-08-22T09:15:40Z</time>
      </trkpt>
      <trkpt lat="46.07184" lon="4.76661">
        <ele>170</ele>
        <time>2018-08-22T09:15:41Z</time>
      </trkpt>
      <trkpt lat="46.07188" lon="4.76655">
        <ele>170</ele>
        <time>2018-08-22T09:15:42Z</time>
      </trkpt>
      <trkpt lat="46.07191" lon="4.7665">
        <ele>170</ele>
        <time>2018-08-22T09:15:43Z</time>
      </trkpt>
      <trkpt lat="46.07195" lon="4.76647">
        <ele>170</ele>
        <time>2018-08-22T09:15:44Z</time>
      </trkpt>
      <trkpt lat="46.07199" lon="4.76641">
        <ele>170</ele>
        <time>2018-08-22T09:15:45Z</time>
      </trkpt>
      <trkpt lat="46.07203" lon="4.76636">
        <ele>170</ele>
        <time>2018-08-22T09:15:46Z</time>
      </trkpt>
      <trkpt lat="46.07206" lon="4.7663">
        <ele>170</ele>
        <time>2018-08-22T09:15:47Z</time>
      </trkpt>
      <trkpt lat="46.0721" lon="4.76625">
        <ele>170</ele>
        <time>2018-08-22T09:15:48Z</time>
      </trkpt>
      <trkpt lat="46.07213" lon="4.76618">
        <ele>170</ele>
        <time>2018-08-22T09:15:49Z</time>
      </trkpt>
      <trkpt lat="46.07217" lon="4.76614">
        <ele>170</ele>
        <time>2018-08-22T09:15:50Z</time>
      </trkpt>
      <trkpt lat="46.07221" lon="4.7661">
        <ele>170</ele>
        <time>2018-08-22T09:15:51Z</time>
      </trkpt>
      <trkpt lat="46.07226" lon="4.76605">
        <ele>170</ele>
        <time>2018-08-22T09:15:52Z</time>
      </trkpt>
      <trkpt lat="46.07229" lon="4.76599">
        <ele>170</ele>
        <time>2018-08-22T09:15:53Z</time>
      </trkpt>
      <trkpt lat="46.07233" lon="4.76593">
        <ele>170</ele>
        <time>2018-08-22T09:15:54Z</time>
      </trkpt>
      <trkpt lat="46.07237" lon="4.76585">
        <ele>170</ele>
        <time>2018-08-22T09:15:55Z</time>
      </trkpt>
      <trkpt lat="46.0724" lon="4.76582">
        <ele>170</ele>
        <time>2018-08-22T09:15:56Z</time>
      </trkpt>
      <trkpt lat="46.07245" lon="4.76578">
        <ele>170</ele>
        <time>2018-08-22T09:15:57Z</time>
      </trkpt>
      <trkpt lat="46.07249" lon="4.76571">
        <ele>170</ele>
        <time>2018-08-22T09:15:58Z</time>
      </trkpt>
      <trkpt lat="46.07253" lon="4.76565">
        <ele>170</ele>
        <time>2018-08-22T09:15:59Z</time>
      </trkpt>
      <trkpt lat="46.07258" lon="4.7656">
        <ele>170</ele>
        <time>2018-08-22T09:16:00Z</time>
      </trkpt>
      <trkpt lat="46.07261" lon="4.76556">
        <ele>170</ele>
        <time>2018-08-22T09:16:01Z</time>
      </trkpt>
      <trkpt lat="46.07266" lon="4.76551">
        <ele>170</ele>
        <time>2018-08-22T09:16:02Z</time>
      </trkpt>
      <trkpt lat="46.0727" lon="4.76547">
        <ele>170</ele>
        <time>2018-08-22T09:16:03Z</time>
      </trkpt>
      <trkpt lat="46.07273" lon="4.76543">
        <ele>170</ele>
        <time>2018-08-22T09:16:04Z</time>
      </trkpt>
      <trkpt lat="46.07277" lon="4.76538">
        <ele>170</ele>
        <time>2018-08-22T09:16:05Z</time>
      </trkpt>
      <trkpt lat="46.07282" lon="4.76533">
        <ele>170</ele>
        <time>2018-08-22T09:16:06Z</time>
      </trkpt>
      <trkpt lat="46.07286" lon="4.76527">
        <ele>170</ele>
        <time>2018-08-22T09:16:07Z</time>
      </trkpt>
      <trkpt lat="46.0729" lon="4.76522">
        <ele>170</ele>
        <time>2018-08-22T09:16:08Z</time>
      </trkpt>
      <trkpt lat="46.07294" lon="4.76516">
        <ele>170</ele>
        <time>2018-08-22T09:16:09Z</time>
      </trkpt>
      <trkpt lat="46.07299" lon="4.76512">
        <ele>170</ele>
        <time>2018-08-22T09:16:10Z</time>
      </trkpt>
      <trkpt lat="46.07304" lon="4.76506">
        <ele>170</ele>
        <time>2018-08-22T09:16:11Z</time>
      </trkpt>
      <trkpt lat="46.07308" lon="4.76501">
        <ele>170</ele>
        <time>2018-08-22T09:16:12Z</time>
      </trkpt>
      <trkpt lat="46.07312" lon="4.76496">
        <ele>170</ele>
        <time>2018-08-22T09:16:13Z</time>
      </trkpt>
      <trkpt lat="46.07317" lon="4.76492">
        <ele>170</ele>
        <time>2018-08-22T09:16:14Z</time>
      </trkpt>
      <trkpt lat="46.07321" lon="4.76487">
        <ele>170</ele>
        <time>2018-08-22T09:16:15Z</time>
      </trkpt>
      <trkpt lat="46.07326" lon="4.76483">
        <ele>170</ele>
        <time>2018-08-22T09:16:16Z</time>
      </trkpt>
      <trkpt lat="46.0733" lon="4.76479">
        <ele>170</ele>
        <time>2018-08-22T09:16:17Z</time>
      </trkpt>
      <trkpt lat="46.07334" lon="4.76477">
        <ele>171</ele>
        <time>2018-08-22T09:16:18Z</time>
      </trkpt>
      <trkpt lat="46.07337" lon="4.76473">
        <ele>171</ele>
        <time>2018-08-22T09:16:19Z</time>
      </trkpt>
      <trkpt lat="46.0734" lon="4.76464">
        <ele>171</ele>
        <time>2018-08-22T09:16:20Z</time>
      </trkpt>
      <trkpt lat="46.07345" lon="4.76461">
        <ele>171</ele>
        <time>2018-08-22T09:16:21Z</time>
      </trkpt>
      <trkpt lat="46.07348" lon="4.76458">
        <ele>171</ele>
        <time>2018-08-22T09:16:22Z</time>
      </trkpt>
      <trkpt lat="46.07355" lon="4.76453">
        <ele>171</ele>
        <time>2018-08-22T09:16:23Z</time>
      </trkpt>
      <trkpt lat="46.07358" lon="4.7645">
        <ele>171</ele>
        <time>2018-08-22T09:16:24Z</time>
      </trkpt>
      <trkpt lat="46.07364" lon="4.76446">
        <ele>171</ele>
        <time>2018-08-22T09:16:25Z</time>
      </trkpt>
      <trkpt lat="46.07369" lon="4.76442">
        <ele>171</ele>
        <time>2018-08-22T09:16:26Z</time>
      </trkpt>
      <trkpt lat="46.07376" lon="4.76435">
        <ele>171</ele>
        <time>2018-08-22T09:16:28Z</time>
      </trkpt>
      <trkpt lat="46.0738" lon="4.7643">
        <ele>171</ele>
        <time>2018-08-22T09:16:29Z</time>
      </trkpt>
      <trkpt lat="46.07384" lon="4.76428">
        <ele>171</ele>
        <time>2018-08-22T09:16:30Z</time>
      </trkpt>
      <trkpt lat="46.07388" lon="4.76423">
        <ele>171</ele>
        <time>2018-08-22T09:16:31Z</time>
      </trkpt>
      <trkpt lat="46.07392" lon="4.7642">
        <ele>171</ele>
        <time>2018-08-22T09:16:32Z</time>
      </trkpt>
      <trkpt lat="46.07395" lon="4.76415">
        <ele>171</ele>
        <time>2018-08-22T09:16:33Z</time>
      </trkpt>
      <trkpt lat="46.074" lon="4.76411">
        <ele>171</ele>
        <time>2018-08-22T09:16:34Z</time>
      </trkpt>
      <trkpt lat="46.07405" lon="4.76407">
        <ele>171</ele>
        <time>2018-08-22T09:16:35Z</time>
      </trkpt>
      <trkpt lat="46.07409" lon="4.76402">
        <ele>171</ele>
        <time>2018-08-22T09:16:36Z</time>
      </trkpt>
      <trkpt lat="46.07415" lon="4.76397">
        <ele>170</ele>
        <time>2018-08-22T09:16:37Z</time>
      </trkpt>
      <trkpt lat="46.07418" lon="4.76393">
        <ele>171</ele>
        <time>2018-08-22T09:16:38Z</time>
      </trkpt>
      <trkpt lat="46.07422" lon="4.76388">
        <ele>171</ele>
        <time>2018-08-22T09:16:39Z</time>
      </trkpt>
      <trkpt lat="46.07427" lon="4.76384">
        <ele>171</ele>
        <time>2018-08-22T09:16:40Z</time>
      </trkpt>
      <trkpt lat="46.07431" lon="4.7638">
        <ele>171</ele>
        <time>2018-08-22T09:16:41Z</time>
      </trkpt>
      <trkpt lat="46.07434" lon="4.76374">
        <ele>171</ele>
        <time>2018-08-22T09:16:42Z</time>
      </trkpt>
      <trkpt lat="46.07438" lon="4.7637">
        <ele>171</ele>
        <time>2018-08-22T09:16:43Z</time>
      </trkpt>
      <trkpt lat="46.07445" lon="4.76362">
        <ele>172</ele>
        <time>2018-08-22T09:16:45Z</time>
      </trkpt>
      <trkpt lat="46.07449" lon="4.76359">
        <ele>172</ele>
        <time>2018-08-22T09:16:46Z</time>
      </trkpt>
      <trkpt lat="46.07453" lon="4.76354">
        <ele>172</ele>
        <time>2018-08-22T09:16:47Z</time>
      </trkpt>
      <trkpt lat="46.07457" lon="4.7635">
        <ele>172</ele>
        <time>2018-08-22T09:16:48Z</time>
      </trkpt>
      <trkpt lat="46.07461" lon="4.76345">
        <ele>172</ele>
        <time>2018-08-22T09:16:49Z</time>
      </trkpt>
      <trkpt lat="46.07465" lon="4.76343">
        <ele>172</ele>
        <time>2018-08-22T09:16:50Z</time>
      </trkpt>
      <trkpt lat="46.0747" lon="4.7634">
        <ele>172</ele>
        <time>2018-08-22T09:16:51Z</time>
      </trkpt>
      <trkpt lat="46.07475" lon="4.76339">
        <ele>172</ele>
        <time>2018-08-22T09:16:52Z</time>
      </trkpt>
      <trkpt lat="46.07484" lon="4.76339">
        <ele>173</ele>
        <time>2018-08-22T09:16:54Z</time>
      </trkpt>
      <trkpt lat="46.07488" lon="4.76335">
        <ele>173</ele>
        <time>2018-08-22T09:16:55Z</time>
      </trkpt>
      <trkpt lat="46.0749" lon="4.76327">
        <ele>173</ele>
        <time>2018-08-22T09:16:56Z</time>
      </trkpt>
      <trkpt lat="46.07492" lon="4.76319">
        <ele>173</ele>
        <time>2018-08-22T09:16:57Z</time>
      </trkpt>
      <trkpt lat="46.07494" lon="4.76313">
        <ele>173</ele>
        <time>2018-08-22T09:16:58Z</time>
      </trkpt>
      <trkpt lat="46.07496" lon="4.76307">
        <ele>173</ele>
        <time>2018-08-22T09:16:59Z</time>
      </trkpt>
      <trkpt lat="46.075" lon="4.76302">
        <ele>173</ele>
        <time>2018-08-22T09:17:00Z</time>
      </trkpt>
      <trkpt lat="46.07504" lon="4.76297">
        <ele>174</ele>
        <time>2018-08-22T09:17:01Z</time>
      </trkpt>
      <trkpt lat="46.07508" lon="4.76292">
        <ele>174</ele>
        <time>2018-08-22T09:17:02Z</time>
      </trkpt>
      <trkpt lat="46.07512" lon="4.76289">
        <ele>174</ele>
        <time>2018-08-22T09:17:03Z</time>
      </trkpt>
      <trkpt lat="46.07517" lon="4.76286">
        <ele>174</ele>
        <time>2018-08-22T09:17:04Z</time>
      </trkpt>
      <trkpt lat="46.07521" lon="4.76283">
        <ele>174</ele>
        <time>2018-08-22T09:17:05Z</time>
      </trkpt>
      <trkpt lat="46.07526" lon="4.76278">
        <ele>174</ele>
        <time>2018-08-22T09:17:06Z</time>
      </trkpt>
      <trkpt lat="46.07532" lon="4.7627">
        <ele>174</ele>
        <time>2018-08-22T09:17:07Z</time>
      </trkpt>
      <trkpt lat="46.07539" lon="4.76262">
        <ele>174</ele>
        <time>2018-08-22T09:17:09Z</time>
      </trkpt>
      <trkpt lat="46.07543" lon="4.76258">
        <ele>174</ele>
        <time>2018-08-22T09:17:10Z</time>
      </trkpt>
      <trkpt lat="46.07548" lon="4.76252">
        <ele>174</ele>
        <time>2018-08-22T09:17:11Z</time>
      </trkpt>
      <trkpt lat="46.07552" lon="4.76246">
        <ele>173</ele>
        <time>2018-08-22T09:17:12Z</time>
      </trkpt>
      <trkpt lat="46.0756" lon="4.7624">
        <ele>173</ele>
        <time>2018-08-22T09:17:14Z</time>
      </trkpt>
      <trkpt lat="46.07566" lon="4.76236">
        <ele>173</ele>
        <time>2018-08-22T09:17:15Z</time>
      </trkpt>
      <trkpt lat="46.07569" lon="4.76232">
        <ele>173</ele>
        <time>2018-08-22T09:17:16Z</time>
      </trkpt>
      <trkpt lat="46.07573" lon="4.76227">
        <ele>173</ele>
        <time>2018-08-22T09:17:17Z</time>
      </trkpt>
      <trkpt lat="46.07577" lon="4.76223">
        <ele>173</ele>
        <time>2018-08-22T09:17:18Z</time>
      </trkpt>
      <trkpt lat="46.07581" lon="4.76218">
        <ele>173</ele>
        <time>2018-08-22T09:17:19Z</time>
      </trkpt>
      <trkpt lat="46.07587" lon="4.76215">
        <ele>173</ele>
        <time>2018-08-22T09:17:20Z</time>
      </trkpt>
      <trkpt lat="46.07592" lon="4.76208">
        <ele>173</ele>
        <time>2018-08-22T09:17:21Z</time>
      </trkpt>
      <trkpt lat="46.07597" lon="4.76204">
        <ele>173</ele>
        <time>2018-08-22T09:17:22Z</time>
      </trkpt>
      <trkpt lat="46.07601" lon="4.76198">
        <ele>173</ele>
        <time>2018-08-22T09:17:23Z</time>
      </trkpt>
      <trkpt lat="46.07605" lon="4.76192">
        <ele>173</ele>
        <time>2018-08-22T09:17:24Z</time>
      </trkpt>
      <trkpt lat="46.0761" lon="4.76189">
        <ele>173</ele>
        <time>2018-08-22T09:17:25Z</time>
      </trkpt>
      <trkpt lat="46.07614" lon="4.76185">
        <ele>173</ele>
        <time>2018-08-22T09:17:26Z</time>
      </trkpt>
      <trkpt lat="46.07619" lon="4.7618">
        <ele>173</ele>
        <time>2018-08-22T09:17:27Z</time>
      </trkpt>
      <trkpt lat="46.07623" lon="4.76175">
        <ele>173</ele>
        <time>2018-08-22T09:17:28Z</time>
      </trkpt>
      <trkpt lat="46.07627" lon="4.76172">
        <ele>173</ele>
        <time>2018-08-22T09:17:29Z</time>
      </trkpt>
      <trkpt lat="46.0763" lon="4.76167">
        <ele>173</ele>
        <time>2018-08-22T09:17:30Z</time>
      </trkpt>
      <trkpt lat="46.07633" lon="4.76163">
        <ele>172</ele>
        <time>2018-08-22T09:17:31Z</time>
      </trkpt>
      <trkpt lat="46.07637" lon="4.76159">
        <ele>172</ele>
        <time>2018-08-22T09:17:32Z</time>
      </trkpt>
      <trkpt lat="46.07642" lon="4.76154">
        <ele>172</ele>
        <time>2018-08-22T09:17:33Z</time>
      </trkpt>
      <trkpt lat="46.07646" lon="4.76149">
        <ele>172</ele>
        <time>2018-08-22T09:17:34Z</time>
      </trkpt>
      <trkpt lat="46.07652" lon="4.76143">
        <ele>172</ele>
        <time>2018-08-22T09:17:35Z</time>
      </trkpt>
      <trkpt lat="46.07656" lon="4.76139">
        <ele>172</ele>
        <time>2018-08-22T09:17:36Z</time>
      </trkpt>
      <trkpt lat="46.0766" lon="4.76134">
        <ele>172</ele>
        <time>2018-08-22T09:17:37Z</time>
      </trkpt>
      <trkpt lat="46.07665" lon="4.7613">
        <ele>172</ele>
        <time>2018-08-22T09:17:38Z</time>
      </trkpt>
      <trkpt lat="46.07669" lon="4.76125">
        <ele>173</ele>
        <time>2018-08-22T09:17:39Z</time>
      </trkpt>
      <trkpt lat="46.07673" lon="4.7612">
        <ele>173</ele>
        <time>2018-08-22T09:17:40Z</time>
      </trkpt>
      <trkpt lat="46.07677" lon="4.76117">
        <ele>173</ele>
        <time>2018-08-22T09:17:41Z</time>
      </trkpt>
      <trkpt lat="46.07683" lon="4.76108">
        <ele>173</ele>
        <time>2018-08-22T09:17:43Z</time>
      </trkpt>
      <trkpt lat="46.07684" lon="4.76105">
        <ele>173</ele>
        <time>2018-08-22T09:17:44Z</time>
      </trkpt>
      <trkpt lat="46.07686" lon="4.76097">
        <ele>173</ele>
        <time>2018-08-22T09:17:45Z</time>
      </trkpt>
      <trkpt lat="46.07685" lon="4.76089">
        <ele>173</ele>
        <time>2018-08-22T09:17:46Z</time>
      </trkpt>
      <trkpt lat="46.07684" lon="4.76083">
        <ele>174</ele>
        <time>2018-08-22T09:17:47Z</time>
      </trkpt>
      <trkpt lat="46.07681" lon="4.76076">
        <ele>174</ele>
        <time>2018-08-22T09:17:48Z</time>
      </trkpt>
      <trkpt lat="46.07681" lon="4.76072">
        <ele>174</ele>
        <time>2018-08-22T09:17:49Z</time>
      </trkpt>
      <trkpt lat="46.07676" lon="4.76065">
        <ele>174</ele>
        <time>2018-08-22T09:17:50Z</time>
      </trkpt>
      <trkpt lat="46.07671" lon="4.7606">
        <ele>174</ele>
        <time>2018-08-22T09:17:51Z</time>
      </trkpt>
      <trkpt lat="46.07667" lon="4.76058">
        <ele>174</ele>
        <time>2018-08-22T09:17:52Z</time>
      </trkpt>
      <trkpt lat="46.07664" lon="4.7605">
        <ele>172</ele>
        <time>2018-08-22T09:17:53Z</time>
      </trkpt>
      <trkpt lat="46.07659" lon="4.76042">
        <ele>172</ele>
        <time>2018-08-22T09:17:54Z</time>
      </trkpt>
      <trkpt lat="46.07656" lon="4.7603">
        <ele>172</ele>
        <time>2018-08-22T09:17:56Z</time>
      </trkpt>
      <trkpt lat="46.07653" lon="4.76025">
        <ele>172</ele>
        <time>2018-08-22T09:17:57Z</time>
      </trkpt>
      <trkpt lat="46.07649" lon="4.76017">
        <ele>172</ele>
        <time>2018-08-22T09:17:58Z</time>
      </trkpt>
      <trkpt lat="46.07646" lon="4.7601">
        <ele>172</ele>
        <time>2018-08-22T09:17:59Z</time>
      </trkpt>
      <trkpt lat="46.07644" lon="4.76001">
        <ele>172</ele>
        <time>2018-08-22T09:18:02Z</time>
      </trkpt>
      <trkpt lat="46.07646" lon="4.75997">
        <ele>170</ele>
        <time>2018-08-22T09:18:03Z</time>
      </trkpt>
      <trkpt lat="46.07646" lon="4.75994">
        <ele>170</ele>
        <time>2018-08-22T09:18:04Z</time>
      </trkpt>
      <trkpt lat="46.0765" lon="4.75983">
        <ele>170</ele>
        <time>2018-08-22T09:18:05Z</time>
      </trkpt>
      <trkpt lat="46.07656" lon="4.75978">
        <ele>170</ele>
        <time>2018-08-22T09:18:07Z</time>
      </trkpt>
      <trkpt lat="46.07663" lon="4.75975">
        <ele>170</ele>
        <time>2018-08-22T09:18:08Z</time>
      </trkpt>
      <trkpt lat="46.07666" lon="4.75973">
        <ele>170</ele>
        <time>2018-08-22T09:18:09Z</time>
      </trkpt>
      <trkpt lat="46.07673" lon="4.75969">
        <ele>172</ele>
        <time>2018-08-22T09:18:10Z</time>
      </trkpt>
      <trkpt lat="46.07677" lon="4.75966">
        <ele>172</ele>
        <time>2018-08-22T09:18:11Z</time>
      </trkpt>
      <trkpt lat="46.07681" lon="4.75963">
        <ele>172</ele>
        <time>2018-08-22T09:18:12Z</time>
      </trkpt>
      <trkpt lat="46.07685" lon="4.75958">
        <ele>172</ele>
        <time>2018-08-22T09:18:13Z</time>
      </trkpt>
      <trkpt lat="46.07689" lon="4.75956">
        <ele>172</ele>
        <time>2018-08-22T09:18:14Z</time>
      </trkpt>
      <trkpt lat="46.07693" lon="4.75952">
        <ele>172</ele>
        <time>2018-08-22T09:18:15Z</time>
      </trkpt>
      <trkpt lat="46.07696" lon="4.75948">
        <ele>172</ele>
        <time>2018-08-22T09:18:16Z</time>
      </trkpt>
      <trkpt lat="46.07704" lon="4.75941">
        <ele>172</ele>
        <time>2018-08-22T09:18:18Z</time>
      </trkpt>
      <trkpt lat="46.07708" lon="4.75939">
        <ele>172</ele>
        <time>2018-08-22T09:18:19Z</time>
      </trkpt>
      <trkpt lat="46.07712" lon="4.75937">
        <ele>172</ele>
        <time>2018-08-22T09:18:20Z</time>
      </trkpt>
      <trkpt lat="46.07717" lon="4.75932">
        <ele>172</ele>
        <time>2018-08-22T09:18:21Z</time>
      </trkpt>
      <trkpt lat="46.07722" lon="4.7593">
        <ele>172</ele>
        <time>2018-08-22T09:18:22Z</time>
      </trkpt>
      <trkpt lat="46.07726" lon="4.75925">
        <ele>173</ele>
        <time>2018-08-22T09:18:23Z</time>
      </trkpt>
      <trkpt lat="46.0773" lon="4.75921">
        <ele>173</ele>
        <time>2018-08-22T09:18:24Z</time>
      </trkpt>
      <trkpt lat="46.07737" lon="4.75916">
        <ele>171</ele>
        <time>2018-08-22T09:18:25Z</time>
      </trkpt>
      <trkpt lat="46.07743" lon="4.75912">
        <ele>172</ele>
        <time>2018-08-22T09:18:26Z</time>
      </trkpt>
      <trkpt lat="46.07748" lon="4.75907">
        <ele>172</ele>
        <time>2018-08-22T09:18:27Z</time>
      </trkpt>
      <trkpt lat="46.07756" lon="4.75901">
        <ele>173</ele>
        <time>2018-08-22T09:18:29Z</time>
      </trkpt>
      <trkpt lat="46.07761" lon="4.75899">
        <ele>173</ele>
        <time>2018-08-22T09:18:30Z</time>
      </trkpt>
      <trkpt lat="46.07768" lon="4.75893">
        <ele>173</ele>
        <time>2018-08-22T09:18:32Z</time>
      </trkpt>
      <trkpt lat="46.07771" lon="4.7589">
        <ele>172</ele>
        <time>2018-08-22T09:18:33Z</time>
      </trkpt>
      <trkpt lat="46.07775" lon="4.75884">
        <ele>172</ele>
        <time>2018-08-22T09:18:34Z</time>
      </trkpt>
      <trkpt lat="46.07778" lon="4.7588">
        <ele>172</ele>
        <time>2018-08-22T09:18:35Z</time>
      </trkpt>
      <trkpt lat="46.07783" lon="4.75876">
        <ele>172</ele>
        <time>2018-08-22T09:18:36Z</time>
      </trkpt>
      <trkpt lat="46.07787" lon="4.75873">
        <ele>172</ele>
        <time>2018-08-22T09:18:37Z</time>
      </trkpt>
      <trkpt lat="46.07792" lon="4.75867">
        <ele>172</ele>
        <time>2018-08-22T09:18:38Z</time>
      </trkpt>
      <trkpt lat="46.07796" lon="4.75862">
        <ele>172</ele>
        <time>2018-08-22T09:18:39Z</time>
      </trkpt>
      <trkpt lat="46.07803" lon="4.75858">
        <ele>172</ele>
        <time>2018-08-22T09:18:41Z</time>
      </trkpt>
      <trkpt lat="46.07807" lon="4.75856">
        <ele>172</ele>
        <time>2018-08-22T09:18:42Z</time>
      </trkpt>
      <trkpt lat="46.07814" lon="4.75849">
        <ele>172</ele>
        <time>2018-08-22T09:18:44Z</time>
      </trkpt>
      <trkpt lat="46.07817" lon="4.75844">
        <ele>172</ele>
        <time>2018-08-22T09:18:45Z</time>
      </trkpt>
      <trkpt lat="46.07824" lon="4.75837">
        <ele>173</ele>
        <time>2018-08-22T09:18:47Z</time>
      </trkpt>
      <trkpt lat="46.07827" lon="4.75833">
        <ele>172</ele>
        <time>2018-08-22T09:18:48Z</time>
      </trkpt>
      <trkpt lat="46.07831" lon="4.75827">
        <ele>172</ele>
        <time>2018-08-22T09:18:49Z</time>
      </trkpt>
      <trkpt lat="46.07835" lon="4.75823">
        <ele>172</ele>
        <time>2018-08-22T09:18:50Z</time>
      </trkpt>
      <trkpt lat="46.0784" lon="4.75819">
        <ele>172</ele>
        <time>2018-08-22T09:18:51Z</time>
      </trkpt>
      <trkpt lat="46.07844" lon="4.75814">
        <ele>172</ele>
        <time>2018-08-22T09:18:52Z</time>
      </trkpt>
      <trkpt lat="46.07849" lon="4.75808">
        <ele>172</ele>
        <time>2018-08-22T09:18:53Z</time>
      </trkpt>
      <trkpt lat="46.07853" lon="4.75805">
        <ele>172</ele>
        <time>2018-08-22T09:18:54Z</time>
      </trkpt>
      <trkpt lat="46.07856" lon="4.758">
        <ele>171</ele>
        <time>2018-08-22T09:18:55Z</time>
      </trkpt>
      <trkpt lat="46.0786" lon="4.75796">
        <ele>171</ele>
        <time>2018-08-22T09:18:56Z</time>
      </trkpt>
      <trkpt lat="46.07865" lon="4.75791">
        <ele>171</ele>
        <time>2018-08-22T09:18:57Z</time>
      </trkpt>
      <trkpt lat="46.07868" lon="4.75788">
        <ele>171</ele>
        <time>2018-08-22T09:18:58Z</time>
      </trkpt>
      <trkpt lat="46.07873" lon="4.75783">
        <ele>171</ele>
        <time>2018-08-22T09:18:59Z</time>
      </trkpt>
      <trkpt lat="46.0788" lon="4.75779">
        <ele>171</ele>
        <time>2018-08-22T09:19:00Z</time>
      </trkpt>
      <trkpt lat="46.07885" lon="4.75776">
        <ele>171</ele>
        <time>2018-08-22T09:19:01Z</time>
      </trkpt>
      <trkpt lat="46.0789" lon="4.75771">
        <ele>172</ele>
        <time>2018-08-22T09:19:02Z</time>
      </trkpt>
      <trkpt lat="46.07894" lon="4.75766">
        <ele>172</ele>
        <time>2018-08-22T09:19:03Z</time>
      </trkpt>
      <trkpt lat="46.07899" lon="4.75761">
        <ele>172</ele>
        <time>2018-08-22T09:19:04Z</time>
      </trkpt>
      <trkpt lat="46.07903" lon="4.75757">
        <ele>172</ele>
        <time>2018-08-22T09:19:05Z</time>
      </trkpt>
      <trkpt lat="46.07909" lon="4.75753">
        <ele>172</ele>
        <time>2018-08-22T09:19:06Z</time>
      </trkpt>
      <trkpt lat="46.07914" lon="4.75751">
        <ele>173</ele>
        <time>2018-08-22T09:19:07Z</time>
      </trkpt>
      <trkpt lat="46.07918" lon="4.75746">
        <ele>173</ele>
        <time>2018-08-22T09:19:08Z</time>
      </trkpt>
      <trkpt lat="46.07925" lon="4.75737">
        <ele>173</ele>
        <time>2018-08-22T09:19:10Z</time>
      </trkpt>
      <trkpt lat="46.07929" lon="4.75735">
        <ele>173</ele>
        <time>2018-08-22T09:19:11Z</time>
      </trkpt>
      <trkpt lat="46.07933" lon="4.7573">
        <ele>173</ele>
        <time>2018-08-22T09:19:12Z</time>
      </trkpt>
      <trkpt lat="46.07937" lon="4.75727">
        <ele>173</ele>
        <time>2018-08-22T09:19:13Z</time>
      </trkpt>
      <trkpt lat="46.07944" lon="4.75721">
        <ele>173</ele>
        <time>2018-08-22T09:19:15Z</time>
      </trkpt>
      <trkpt lat="46.07946" lon="4.75717">
        <ele>173</ele>
        <time>2018-08-22T09:19:16Z</time>
      </trkpt>
      <trkpt lat="46.07953" lon="4.7571">
        <ele>173</ele>
        <time>2018-08-22T09:19:18Z</time>
      </trkpt>
      <trkpt lat="46.07956" lon="4.75705">
        <ele>173</ele>
        <time>2018-08-22T09:19:19Z</time>
      </trkpt>
      <trkpt lat="46.07961" lon="4.75703">
        <ele>173</ele>
        <time>2018-08-22T09:19:20Z</time>
      </trkpt>
      <trkpt lat="46.07965" lon="4.75697">
        <ele>173</ele>
        <time>2018-08-22T09:19:21Z</time>
      </trkpt>
      <trkpt lat="46.07969" lon="4.75694">
        <ele>173</ele>
        <time>2018-08-22T09:19:22Z</time>
      </trkpt>
      <trkpt lat="46.07974" lon="4.7569">
        <ele>173</ele>
        <time>2018-08-22T09:19:23Z</time>
      </trkpt>
      <trkpt lat="46.07981" lon="4.75684">
        <ele>174</ele>
        <time>2018-08-22T09:19:25Z</time>
      </trkpt>
      <trkpt lat="46.07986" lon="4.75681">
        <ele>174</ele>
        <time>2018-08-22T09:19:26Z</time>
      </trkpt>
      <trkpt lat="46.07992" lon="4.75674">
        <ele>175</ele>
        <time>2018-08-22T09:19:28Z</time>
      </trkpt>
      <trkpt lat="46.07996" lon="4.75671">
        <ele>175</ele>
        <time>2018-08-22T09:19:29Z</time>
      </trkpt>
      <trkpt lat="46.08" lon="4.75668">
        <ele>176</ele>
        <time>2018-08-22T09:19:30Z</time>
      </trkpt>
      <trkpt lat="46.08004" lon="4.75664">
        <ele>175</ele>
        <time>2018-08-22T09:19:31Z</time>
      </trkpt>
      <trkpt lat="46.08008" lon="4.75658">
        <ele>175</ele>
        <time>2018-08-22T09:19:32Z</time>
      </trkpt>
      <trkpt lat="46.08014" lon="4.7565">
        <ele>174</ele>
        <time>2018-08-22T09:19:33Z</time>
      </trkpt>
      <trkpt lat="46.08021" lon="4.75655">
        <ele>174</ele>
        <time>2018-08-22T09:19:37Z</time>
      </trkpt>
      <trkpt lat="46.08022" lon="4.75655">
        <ele>174</ele>
        <time>2018-08-22T09:19:38Z</time>
      </trkpt>
      <trkpt lat="46.08029" lon="4.7565">
        <ele>174</ele>
        <time>2018-08-22T09:19:46Z</time>
      </trkpt>
      <trkpt lat="46.08031" lon="4.7565">
        <ele>174</ele>
        <time>2018-08-22T09:19:47Z</time>
      </trkpt>
      <trkpt lat="46.08039" lon="4.75644">
        <ele>174</ele>
        <time>2018-08-22T09:19:52Z</time>
      </trkpt>
      <trkpt lat="46.0804" lon="4.75643">
        <ele>174</ele>
        <time>2018-08-22T09:19:53Z</time>
      </trkpt>
      <trkpt lat="46.08043" lon="4.75641">
        <ele>174</ele>
        <time>2018-08-22T09:19:55Z</time>
      </trkpt>
      <trkpt lat="46.08044" lon="4.7564">
        <ele>174</ele>
        <time>2018-08-22T09:19:56Z</time>
      </trkpt>
      <trkpt lat="46.0805" lon="4.7563">
        <ele>173</ele>
        <time>2018-08-22T09:20:14Z</time>
      </trkpt>
      <trkpt lat="46.0805" lon="4.7563">
        <ele>173</ele>
        <time>2018-08-22T09:20:15Z</time>
      </trkpt>
      <trkpt lat="46.08051" lon="4.75617">
        <ele>173</ele>
        <time>2018-08-22T09:21:05Z</time>
      </trkpt>
      <trkpt lat="46.08051" lon="4.75617">
        <ele>173</ele>
        <time>2018-08-22T09:21:06Z</time>
      </trkpt>
      <trkpt lat="46.08044" lon="4.7561">
        <ele>173</ele>
        <time>2018-08-22T09:26:46Z</time>
      </trkpt>
      <trkpt lat="46.08043" lon="4.7561">
        <ele>173</ele>
        <time>2018-08-22T09:26:47Z</time>
      </trkpt>
      <trkpt lat="46.08045" lon="4.75598">
        <ele>172</ele>
        <time>2018-08-22T09:27:03Z</time>
      </trkpt>
      <trkpt lat="46.08045" lon="4.75597">
        <ele>172</ele>
        <time>2018-08-22T09:27:04Z</time>
      </trkpt>
      <trkpt lat="46.08045" lon="4.75597">
        <ele>172</ele>
        <time>2018-08-22T09:27:25Z</time>
      </trkpt>
      <trkpt lat="46.08045" lon="4.75597">
        <ele>172</ele>
        <time>2018-08-22T09:27:26Z</time>
      </trkpt>
      <trkpt lat="46.08047" lon="4.756">
        <ele>172</ele>
        <time>2018-08-22T09:27:58Z</time>
      </trkpt>
      <trkpt lat="46.08047" lon="4.75599">
        <ele>172</ele>
        <time>2018-08-22T09:27:59Z</time>
      </trkpt>
      <trkpt lat="46.08048" lon="4.75607">
        <ele>173</ele>
        <time>2018-08-22T09:28:37Z</time>
      </trkpt>
      <trkpt lat="46.08048" lon="4.75607">
        <ele>173</ele>
        <time>2018-08-22T09:28:38Z</time>
      </trkpt>
      <trkpt lat="46.08048" lon="4.75607">
        <ele>173</ele>
        <time>2018-08-22T09:28:39Z</time>
      </trkpt>
      <trkpt lat="46.08051" lon="4.75613">
        <ele>173</ele>
        <time>2018-08-22T09:29:02Z</time>
      </trkpt>
      <trkpt lat="46.08051" lon="4.75612">
        <ele>173</ele>
        <time>2018-08-22T09:29:03Z</time>
      </trkpt>
      <trkpt lat="46.08053" lon="4.75611">
        <ele>173</ele>
        <time>2018-08-22T09:29:51Z</time>
      </trkpt>
      <trkpt lat="46.08052" lon="4.75611">
        <ele>173</ele>
        <time>2018-08-22T09:29:52Z</time>
      </trkpt>
      <trkpt lat="46.08052" lon="4.75616">
        <ele>173</ele>
        <time>2018-08-22T09:29:57Z</time>
      </trkpt>
      <trkpt lat="46.08052" lon="4.75616">
        <ele>173</ele>
        <time>2018-08-22T09:29:58Z</time>
      </trkpt>
      <trkpt lat="46.08051" lon="4.7562">
        <ele>173</ele>
        <time>2018-08-22T09:30:35.697Z</time>
      </trkpt>
      <trkpt lat="46.08051" lon="4.7562">
        <ele>173</ele>
        <time>2018-08-22T09:30:35Z</time>
      </trkpt>
      <trkpt lat="46.08059" lon="4.75616">
        <ele>173</ele>
        <time>2018-08-22T09:30:41Z</time>
      </trkpt>
      <trkpt lat="46.08061" lon="4.75615">
        <ele>173</ele>
        <time>2018-08-22T09:30:42Z</time>
      </trkpt>
      <trkpt lat="46.08068" lon="4.7561">
        <ele>173</ele>
        <time>2018-08-22T09:30:46Z</time>
      </trkpt>
      <trkpt lat="46.08071" lon="4.75609">
        <ele>173</ele>
        <time>2018-08-22T09:30:47Z</time>
      </trkpt>
      <trkpt lat="46.08077" lon="4.75603">
        <ele>173</ele>
        <time>2018-08-22T09:30:50Z</time>
      </trkpt>
      <trkpt lat="46.08079" lon="4.75601">
        <ele>173</ele>
        <time>2018-08-22T09:30:51Z</time>
      </trkpt>
      <trkpt lat="46.0808" lon="4.756">
        <ele>173</ele>
        <time>2018-08-22T09:30:52Z</time>
      </trkpt>
      <trkpt lat="46.08082" lon="4.75598">
        <ele>174</ele>
        <time>2018-08-22T09:30:53Z</time>
      </trkpt>
      <trkpt lat="46.08083" lon="4.75597">
        <ele>174</ele>
        <time>2018-08-22T09:30:54Z</time>
      </trkpt>
      <trkpt lat="46.08087" lon="4.75587">
        <ele>174</ele>
        <time>2018-08-22T09:31:01Z</time>
      </trkpt>
      <trkpt lat="46.08088" lon="4.75586">
        <ele>174</ele>
        <time>2018-08-22T09:31:02Z</time>
      </trkpt>
      <trkpt lat="46.08092" lon="4.75575">
        <ele>173</ele>
        <time>2018-08-22T09:31:12Z</time>
      </trkpt>
      <trkpt lat="46.08092" lon="4.75575">
        <ele>173</ele>
        <time>2018-08-22T09:31:13Z</time>
      </trkpt>
      <trkpt lat="46.08092" lon="4.75575">
        <ele>173</ele>
        <time>2018-08-22T09:31:14Z</time>
      </trkpt>
      <trkpt lat="46.08087" lon="4.75566">
        <ele>173</ele>
        <time>2018-08-22T09:31:22Z</time>
      </trkpt>
      <trkpt lat="46.08086" lon="4.75564">
        <ele>173</ele>
        <time>2018-08-22T09:31:23Z</time>
      </trkpt>
      <trkpt lat="46.08083" lon="4.75553">
        <ele>170</ele>
        <time>2018-08-22T09:31:28Z</time>
      </trkpt>
      <trkpt lat="46.08082" lon="4.75551">
        <ele>169</ele>
        <time>2018-08-22T09:31:29Z</time>
      </trkpt>
      <trkpt lat="46.08078" lon="4.75541">
        <ele>169</ele>
        <time>2018-08-22T09:31:32Z</time>
      </trkpt>
      <trkpt lat="46.08076" lon="4.75537">
        <ele>168</ele>
        <time>2018-08-22T09:31:33Z</time>
      </trkpt>
      <trkpt lat="46.08073" lon="4.7553">
        <ele>168</ele>
        <time>2018-08-22T09:31:35Z</time>
      </trkpt>
      <trkpt lat="46.08071" lon="4.75527">
        <ele>168</ele>
        <time>2018-08-22T09:31:36Z</time>
      </trkpt>
      <trkpt lat="46.08067" lon="4.7552">
        <ele>168</ele>
        <time>2018-08-22T09:31:38Z</time>
      </trkpt>
      <trkpt lat="46.08066" lon="4.75516">
        <ele>167</ele>
        <time>2018-08-22T09:31:39Z</time>
      </trkpt>
      <trkpt lat="46.08062" lon="4.75509">
        <ele>167</ele>
        <time>2018-08-22T09:31:41Z</time>
      </trkpt>
      <trkpt lat="46.0806" lon="4.75505">
        <ele>167</ele>
        <time>2018-08-22T09:31:42Z</time>
      </trkpt>
      <trkpt lat="46.08054" lon="4.75492">
        <ele>166</ele>
        <time>2018-08-22T09:31:43Z</time>
      </trkpt>
      <trkpt lat="46.0805" lon="4.75483">
        <ele>166</ele>
        <time>2018-08-22T09:31:46Z</time>
      </trkpt>
      <trkpt lat="46.08045" lon="4.75475">
        <ele>166</ele>
        <time>2018-08-22T09:31:47Z</time>
      </trkpt>
      <trkpt lat="46.0804" lon="4.75465">
        <ele>166</ele>
        <time>2018-08-22T09:31:49Z</time>
      </trkpt>
      <trkpt lat="46.08038" lon="4.7546">
        <ele>166</ele>
        <time>2018-08-22T09:31:50Z</time>
      </trkpt>
      <trkpt lat="46.08034" lon="4.75449">
        <ele>166</ele>
        <time>2018-08-22T09:31:52Z</time>
      </trkpt>
      <trkpt lat="46.08032" lon="4.75444">
        <ele>166</ele>
        <time>2018-08-22T09:31:53Z</time>
      </trkpt>
      <trkpt lat="46.08028" lon="4.75436">
        <ele>166</ele>
        <time>2018-08-22T09:31:54Z</time>
      </trkpt>
      <trkpt lat="46.08025" lon="4.75429">
        <ele>166</ele>
        <time>2018-08-22T09:31:55Z</time>
      </trkpt>
      <trkpt lat="46.08023" lon="4.75423">
        <ele>166</ele>
        <time>2018-08-22T09:31:56Z</time>
      </trkpt>
      <trkpt lat="46.0802" lon="4.75416">
        <ele>166</ele>
        <time>2018-08-22T09:31:57Z</time>
      </trkpt>
      <trkpt lat="46.08016" lon="4.75409">
        <ele>166</ele>
        <time>2018-08-22T09:31:58Z</time>
      </trkpt>
      <trkpt lat="46.08013" lon="4.75402">
        <ele>166</ele>
        <time>2018-08-22T09:31:59Z</time>
      </trkpt>
      <trkpt lat="46.0801" lon="4.75395">
        <ele>167</ele>
        <time>2018-08-22T09:32:00Z</time>
      </trkpt>
      <trkpt lat="46.08006" lon="4.75387">
        <ele>167</ele>
        <time>2018-08-22T09:32:01Z</time>
      </trkpt>
      <trkpt lat="46.08001" lon="4.75379">
        <ele>167</ele>
        <time>2018-08-22T09:32:02Z</time>
      </trkpt>
      <trkpt lat="46.07997" lon="4.75371">
        <ele>168</ele>
        <time>2018-08-22T09:32:03Z</time>
      </trkpt>
      <trkpt lat="46.07993" lon="4.75362">
        <ele>168</ele>
        <time>2018-08-22T09:32:04Z</time>
      </trkpt>
      <trkpt lat="46.07989" lon="4.75353">
        <ele>168</ele>
        <time>2018-08-22T09:32:05Z</time>
      </trkpt>
      <trkpt lat="46.07985" lon="4.75345">
        <ele>168</ele>
        <time>2018-08-22T09:32:06Z</time>
      </trkpt>
      <trkpt lat="46.07982" lon="4.75336">
        <ele>168</ele>
        <time>2018-08-22T09:32:07Z</time>
      </trkpt>
      <trkpt lat="46.07979" lon="4.75327">
        <ele>169</ele>
        <time>2018-08-22T09:32:08Z</time>
      </trkpt>
      <trkpt lat="46.07974" lon="4.75319">
        <ele>169</ele>
        <time>2018-08-22T09:32:09Z</time>
      </trkpt>
      <trkpt lat="46.07969" lon="4.7531">
        <ele>169</ele>
        <time>2018-08-22T09:32:10Z</time>
      </trkpt>
      <trkpt lat="46.07965" lon="4.75302">
        <ele>169</ele>
        <time>2018-08-22T09:32:11Z</time>
      </trkpt>
      <trkpt lat="46.07961" lon="4.75294">
        <ele>169</ele>
        <time>2018-08-22T09:32:12Z</time>
      </trkpt>
      <trkpt lat="46.07956" lon="4.75285">
        <ele>169</ele>
        <time>2018-08-22T09:32:13Z</time>
      </trkpt>
      <trkpt lat="46.07952" lon="4.75277">
        <ele>169</ele>
        <time>2018-08-22T09:32:14Z</time>
      </trkpt>
      <trkpt lat="46.07949" lon="4.7527">
        <ele>169</ele>
        <time>2018-08-22T09:32:15Z</time>
      </trkpt>
      <trkpt lat="46.07946" lon="4.75263">
        <ele>169</ele>
        <time>2018-08-22T09:32:16Z</time>
      </trkpt>
      <trkpt lat="46.07942" lon="4.75257">
        <ele>170</ele>
        <time>2018-08-22T09:32:17Z</time>
      </trkpt>
      <trkpt lat="46.07939" lon="4.75249">
        <ele>170</ele>
        <time>2018-08-22T09:32:18Z</time>
      </trkpt>
      <trkpt lat="46.07936" lon="4.75242">
        <ele>170</ele>
        <time>2018-08-22T09:32:19Z</time>
      </trkpt>
      <trkpt lat="46.07934" lon="4.75236">
        <ele>170</ele>
        <time>2018-08-22T09:32:20Z</time>
      </trkpt>
      <trkpt lat="46.0793" lon="4.7523">
        <ele>171</ele>
        <time>2018-08-22T09:32:21Z</time>
      </trkpt>
      <trkpt lat="46.07926" lon="4.75221">
        <ele>171</ele>
        <time>2018-08-22T09:32:23Z</time>
      </trkpt>
      <trkpt lat="46.07923" lon="4.75213">
        <ele>171</ele>
        <time>2018-08-22T09:32:24Z</time>
      </trkpt>
      <trkpt lat="46.0792" lon="4.75207">
        <ele>171</ele>
        <time>2018-08-22T09:32:25Z</time>
      </trkpt>
      <trkpt lat="46.07916" lon="4.752">
        <ele>171</ele>
        <time>2018-08-22T09:32:26Z</time>
      </trkpt>
      <trkpt lat="46.07914" lon="4.75194">
        <ele>171</ele>
        <time>2018-08-22T09:32:27Z</time>
      </trkpt>
      <trkpt lat="46.07909" lon="4.75189">
        <ele>171</ele>
        <time>2018-08-22T09:32:28Z</time>
      </trkpt>
      <trkpt lat="46.07906" lon="4.75178">
        <ele>172</ele>
        <time>2018-08-22T09:32:30Z</time>
      </trkpt>
      <trkpt lat="46.07905" lon="4.75171">
        <ele>172</ele>
        <time>2018-08-22T09:32:31Z</time>
      </trkpt>
      <trkpt lat="46.07902" lon="4.75165">
        <ele>171</ele>
        <time>2018-08-22T09:32:32Z</time>
      </trkpt>
      <trkpt lat="46.07898" lon="4.75159">
        <ele>171</ele>
        <time>2018-08-22T09:32:33Z</time>
      </trkpt>
      <trkpt lat="46.07895" lon="4.75154">
        <ele>171</ele>
        <time>2018-08-22T09:32:34Z</time>
      </trkpt>
      <trkpt lat="46.0789" lon="4.75148">
        <ele>171</ele>
        <time>2018-08-22T09:32:35Z</time>
      </trkpt>
      <trkpt lat="46.07886" lon="4.75137">
        <ele>171</ele>
        <time>2018-08-22T09:32:37Z</time>
      </trkpt>
      <trkpt lat="46.07884" lon="4.75133">
        <ele>171</ele>
        <time>2018-08-22T09:32:38Z</time>
      </trkpt>
      <trkpt lat="46.07881" lon="4.75121">
        <ele>171</ele>
        <time>2018-08-22T09:32:40Z</time>
      </trkpt>
      <trkpt lat="46.07878" lon="4.75116">
        <ele>171</ele>
        <time>2018-08-22T09:32:41Z</time>
      </trkpt>
      <trkpt lat="46.07873" lon="4.7511">
        <ele>171</ele>
        <time>2018-08-22T09:32:42Z</time>
      </trkpt>
      <trkpt lat="46.07868" lon="4.75104">
        <ele>171</ele>
        <time>2018-08-22T09:32:43Z</time>
      </trkpt>
      <trkpt lat="46.07866" lon="4.75098">
        <ele>171</ele>
        <time>2018-08-22T09:32:44Z</time>
      </trkpt>
      <trkpt lat="46.07861" lon="4.75092">
        <ele>171</ele>
        <time>2018-08-22T09:32:45Z</time>
      </trkpt>
      <trkpt lat="46.07857" lon="4.75086">
        <ele>171</ele>
        <time>2018-08-22T09:32:46Z</time>
      </trkpt>
      <trkpt lat="46.07849" lon="4.75079">
        <ele>171</ele>
        <time>2018-08-22T09:32:47Z</time>
      </trkpt>
      <trkpt lat="46.07844" lon="4.7507">
        <ele>171</ele>
        <time>2018-08-22T09:32:49Z</time>
      </trkpt>
      <trkpt lat="46.0784" lon="4.75066">
        <ele>171</ele>
        <time>2018-08-22T09:32:50Z</time>
      </trkpt>
      <trkpt lat="46.07836" lon="4.75061">
        <ele>171</ele>
        <time>2018-08-22T09:32:51Z</time>
      </trkpt>
      <trkpt lat="46.07832" lon="4.75056">
        <ele>171</ele>
        <time>2018-08-22T09:32:52Z</time>
      </trkpt>
      <trkpt lat="46.07825" lon="4.75048">
        <ele>171</ele>
        <time>2018-08-22T09:32:54Z</time>
      </trkpt>
      <trkpt lat="46.07821" lon="4.75044">
        <ele>171</ele>
        <time>2018-08-22T09:32:55Z</time>
      </trkpt>
      <trkpt lat="46.07816" lon="4.7504">
        <ele>171</ele>
        <time>2018-08-22T09:32:56Z</time>
      </trkpt>
      <trkpt lat="46.07811" lon="4.75036">
        <ele>171</ele>
        <time>2018-08-22T09:32:57Z</time>
      </trkpt>
      <trkpt lat="46.07806" lon="4.75031">
        <ele>171</ele>
        <time>2018-08-22T09:32:58Z</time>
      </trkpt>
      <trkpt lat="46.07801" lon="4.75027">
        <ele>171</ele>
        <time>2018-08-22T09:32:59Z</time>
      </trkpt>
      <trkpt lat="46.07796" lon="4.75022">
        <ele>171</ele>
        <time>2018-08-22T09:33:00Z</time>
      </trkpt>
      <trkpt lat="46.07791" lon="4.75019">
        <ele>172</ele>
        <time>2018-08-22T09:33:01Z</time>
      </trkpt>
      <trkpt lat="46.07786" lon="4.75015">
        <ele>172</ele>
        <time>2018-08-22T09:33:02Z</time>
      </trkpt>
      <trkpt lat="46.07781" lon="4.75011">
        <ele>172</ele>
        <time>2018-08-22T09:33:03Z</time>
      </trkpt>
      <trkpt lat="46.07776" lon="4.75008">
        <ele>172</ele>
        <time>2018-08-22T09:33:04Z</time>
      </trkpt>
      <trkpt lat="46.07771" lon="4.75004">
        <ele>172</ele>
        <time>2018-08-22T09:33:05Z</time>
      </trkpt>
      <trkpt lat="46.07765" lon="4.75">
        <ele>172</ele>
        <time>2018-08-22T09:33:06Z</time>
      </trkpt>
      <trkpt lat="46.0776" lon="4.74996">
        <ele>172</ele>
        <time>2018-08-22T09:33:07Z</time>
      </trkpt>
      <trkpt lat="46.07755" lon="4.74993">
        <ele>172</ele>
        <time>2018-08-22T09:33:08Z</time>
      </trkpt>
      <trkpt lat="46.07751" lon="4.74989">
        <ele>172</ele>
        <time>2018-08-22T09:33:09Z</time>
      </trkpt>
      <trkpt lat="46.07746" lon="4.74985">
        <ele>173</ele>
        <time>2018-08-22T09:33:10Z</time>
      </trkpt>
      <trkpt lat="46.07742" lon="4.74981">
        <ele>173</ele>
        <time>2018-08-22T09:33:11Z</time>
      </trkpt>
      <trkpt lat="46.07737" lon="4.74978">
        <ele>172</ele>
        <time>2018-08-22T09:33:12Z</time>
      </trkpt>
      <trkpt lat="46.07732" lon="4.74974">
        <ele>172</ele>
        <time>2018-08-22T09:33:13Z</time>
      </trkpt>
      <trkpt lat="46.07728" lon="4.74971">
        <ele>172</ele>
        <time>2018-08-22T09:33:14Z</time>
      </trkpt>
      <trkpt lat="46.07723" lon="4.74966">
        <ele>172</ele>
        <time>2018-08-22T09:33:15Z</time>
      </trkpt>
      <trkpt lat="46.07719" lon="4.74962">
        <ele>172</ele>
        <time>2018-08-22T09:33:16Z</time>
      </trkpt>
      <trkpt lat="46.07715" lon="4.74958">
        <ele>172</ele>
        <time>2018-08-22T09:33:17Z</time>
      </trkpt>
      <trkpt lat="46.07712" lon="4.74955">
        <ele>172</ele>
        <time>2018-08-22T09:33:18Z</time>
      </trkpt>
      <trkpt lat="46.07707" lon="4.7495">
        <ele>172</ele>
        <time>2018-08-22T09:33:19Z</time>
      </trkpt>
      <trkpt lat="46.07702" lon="4.74946">
        <ele>172</ele>
        <time>2018-08-22T09:33:20Z</time>
      </trkpt>
      <trkpt lat="46.07697" lon="4.74941">
        <ele>172</ele>
        <time>2018-08-22T09:33:21Z</time>
      </trkpt>
      <trkpt lat="46.07693" lon="4.74938">
        <ele>172</ele>
        <time>2018-08-22T09:33:22Z</time>
      </trkpt>
      <trkpt lat="46.07687" lon="4.74933">
        <ele>172</ele>
        <time>2018-08-22T09:33:23Z</time>
      </trkpt>
      <trkpt lat="46.07682" lon="4.74929">
        <ele>172</ele>
        <time>2018-08-22T09:33:24Z</time>
      </trkpt>
      <trkpt lat="46.07677" lon="4.74925">
        <ele>172</ele>
        <time>2018-08-22T09:33:25Z</time>
      </trkpt>
      <trkpt lat="46.07672" lon="4.74922">
        <ele>172</ele>
        <time>2018-08-22T09:33:26Z</time>
      </trkpt>
      <trkpt lat="46.07667" lon="4.7492">
        <ele>172</ele>
        <time>2018-08-22T09:33:27Z</time>
      </trkpt>
      <trkpt lat="46.07659" lon="4.74913">
        <ele>172</ele>
        <time>2018-08-22T09:33:29Z</time>
      </trkpt>
      <trkpt lat="46.07656" lon="4.74909">
        <ele>172</ele>
        <time>2018-08-22T09:33:30Z</time>
      </trkpt>
      <trkpt lat="46.07651" lon="4.74904">
        <ele>171</ele>
        <time>2018-08-22T09:33:31Z</time>
      </trkpt>
      <trkpt lat="46.07646" lon="4.749">
        <ele>171</ele>
        <time>2018-08-22T09:33:32Z</time>
      </trkpt>
      <trkpt lat="46.07642" lon="4.74899">
        <ele>171</ele>
        <time>2018-08-22T09:33:33Z</time>
      </trkpt>
      <trkpt lat="46.07638" lon="4.74894">
        <ele>171</ele>
        <time>2018-08-22T09:33:34Z</time>
      </trkpt>
      <trkpt lat="46.07633" lon="4.7489">
        <ele>171</ele>
        <time>2018-08-22T09:33:35Z</time>
      </trkpt>
      <trkpt lat="46.07627" lon="4.74885">
        <ele>171</ele>
        <time>2018-08-22T09:33:36Z</time>
      </trkpt>
      <trkpt lat="46.07622" lon="4.74882">
        <ele>171</ele>
        <time>2018-08-22T09:33:37Z</time>
      </trkpt>
      <trkpt lat="46.07618" lon="4.74878">
        <ele>171</ele>
        <time>2018-08-22T09:33:38Z</time>
      </trkpt>
      <trkpt lat="46.07613" lon="4.74874">
        <ele>171</ele>
        <time>2018-08-22T09:33:39Z</time>
      </trkpt>
      <trkpt lat="46.0761" lon="4.7487">
        <ele>171</ele>
        <time>2018-08-22T09:33:40Z</time>
      </trkpt>
      <trkpt lat="46.07603" lon="4.74866">
        <ele>171</ele>
        <time>2018-08-22T09:33:41Z</time>
      </trkpt>
      <trkpt lat="46.07599" lon="4.74863">
        <ele>171</ele>
        <time>2018-08-22T09:33:42Z</time>
      </trkpt>
      <trkpt lat="46.07593" lon="4.74858">
        <ele>171</ele>
        <time>2018-08-22T09:33:43Z</time>
      </trkpt>
      <trkpt lat="46.07589" lon="4.74854">
        <ele>171</ele>
        <time>2018-08-22T09:33:44Z</time>
      </trkpt>
      <trkpt lat="46.07582" lon="4.7485">
        <ele>171</ele>
        <time>2018-08-22T09:33:45Z</time>
      </trkpt>
      <trkpt lat="46.07577" lon="4.74846">
        <ele>171</ele>
        <time>2018-08-22T09:33:46Z</time>
      </trkpt>
      <trkpt lat="46.07572" lon="4.74842">
        <ele>171</ele>
        <time>2018-08-22T09:33:47Z</time>
      </trkpt>
      <trkpt lat="46.07567" lon="4.74838">
        <ele>171</ele>
        <time>2018-08-22T09:33:48Z</time>
      </trkpt>
      <trkpt lat="46.07561" lon="4.74834">
        <ele>171</ele>
        <time>2018-08-22T09:33:49Z</time>
      </trkpt>
      <trkpt lat="46.07556" lon="4.74829">
        <ele>172</ele>
        <time>2018-08-22T09:33:50Z</time>
      </trkpt>
      <trkpt lat="46.0755" lon="4.74825">
        <ele>172</ele>
        <time>2018-08-22T09:33:51Z</time>
      </trkpt>
      <trkpt lat="46.07545" lon="4.74821">
        <ele>172</ele>
        <time>2018-08-22T09:33:52Z</time>
      </trkpt>
      <trkpt lat="46.07539" lon="4.74817">
        <ele>172</ele>
        <time>2018-08-22T09:33:53Z</time>
      </trkpt>
      <trkpt lat="46.07535" lon="4.74813">
        <ele>172</ele>
        <time>2018-08-22T09:33:54Z</time>
      </trkpt>
      <trkpt lat="46.0753" lon="4.74809">
        <ele>172</ele>
        <time>2018-08-22T09:33:55Z</time>
      </trkpt>
      <trkpt lat="46.07524" lon="4.74804">
        <ele>172</ele>
        <time>2018-08-22T09:33:56Z</time>
      </trkpt>
      <trkpt lat="46.07519" lon="4.74801">
        <ele>172</ele>
        <time>2018-08-22T09:33:57Z</time>
      </trkpt>
      <trkpt lat="46.07515" lon="4.74798">
        <ele>172</ele>
        <time>2018-08-22T09:33:58Z</time>
      </trkpt>
      <trkpt lat="46.07507" lon="4.74792">
        <ele>172</ele>
        <time>2018-08-22T09:34:00Z</time>
      </trkpt>
      <trkpt lat="46.07502" lon="4.74788">
        <ele>172</ele>
        <time>2018-08-22T09:34:01Z</time>
      </trkpt>
      <trkpt lat="46.07495" lon="4.74782">
        <ele>173</ele>
        <time>2018-08-22T09:34:03Z</time>
      </trkpt>
      <trkpt lat="46.0749" lon="4.74778">
        <ele>173</ele>
        <time>2018-08-22T09:34:04Z</time>
      </trkpt>
      <trkpt lat="46.07486" lon="4.74773">
        <ele>173</ele>
        <time>2018-08-22T09:34:05Z</time>
      </trkpt>
      <trkpt lat="46.07481" lon="4.74769">
        <ele>173</ele>
        <time>2018-08-22T09:34:06Z</time>
      </trkpt>
      <trkpt lat="46.07476" lon="4.74764">
        <ele>173</ele>
        <time>2018-08-22T09:34:07Z</time>
      </trkpt>
      <trkpt lat="46.07473" lon="4.74759">
        <ele>173</ele>
        <time>2018-08-22T09:34:08Z</time>
      </trkpt>
      <trkpt lat="46.07469" lon="4.74754">
        <ele>173</ele>
        <time>2018-08-22T09:34:09Z</time>
      </trkpt>
      <trkpt lat="46.07464" lon="4.74748">
        <ele>173</ele>
        <time>2018-08-22T09:34:10Z</time>
      </trkpt>
      <trkpt lat="46.0746" lon="4.74744">
        <ele>173</ele>
        <time>2018-08-22T09:34:11Z</time>
      </trkpt>
      <trkpt lat="46.07456" lon="4.74739">
        <ele>173</ele>
        <time>2018-08-22T09:34:12Z</time>
      </trkpt>
      <trkpt lat="46.07452" lon="4.74732">
        <ele>173</ele>
        <time>2018-08-22T09:34:13Z</time>
      </trkpt>
      <trkpt lat="46.07449" lon="4.74727">
        <ele>173</ele>
        <time>2018-08-22T09:34:14Z</time>
      </trkpt>
      <trkpt lat="46.07445" lon="4.74721">
        <ele>173</ele>
        <time>2018-08-22T09:34:15Z</time>
      </trkpt>
      <trkpt lat="46.07444" lon="4.74716">
        <ele>173</ele>
        <time>2018-08-22T09:34:16Z</time>
      </trkpt>
      <trkpt lat="46.07441" lon="4.74709">
        <ele>173</ele>
        <time>2018-08-22T09:34:17Z</time>
      </trkpt>
      <trkpt lat="46.07439" lon="4.74703">
        <ele>173</ele>
        <time>2018-08-22T09:34:18Z</time>
      </trkpt>
      <trkpt lat="46.07437" lon="4.74697">
        <ele>173</ele>
        <time>2018-08-22T09:34:19Z</time>
      </trkpt>
      <trkpt lat="46.07433" lon="4.74689">
        <ele>173</ele>
        <time>2018-08-22T09:34:20Z</time>
      </trkpt>
      <trkpt lat="46.07429" lon="4.74683">
        <ele>172</ele>
        <time>2018-08-22T09:34:21Z</time>
      </trkpt>
      <trkpt lat="46.07427" lon="4.74676">
        <ele>172</ele>
        <time>2018-08-22T09:34:22Z</time>
      </trkpt>
      <trkpt lat="46.07422" lon="4.74669">
        <ele>172</ele>
        <time>2018-08-22T09:34:23Z</time>
      </trkpt>
      <trkpt lat="46.07419" lon="4.74662">
        <ele>172</ele>
        <time>2018-08-22T09:34:24Z</time>
      </trkpt>
      <trkpt lat="46.07414" lon="4.74655">
        <ele>173</ele>
        <time>2018-08-22T09:34:25Z</time>
      </trkpt>
      <trkpt lat="46.07411" lon="4.74649">
        <ele>173</ele>
        <time>2018-08-22T09:34:26Z</time>
      </trkpt>
      <trkpt lat="46.07408" lon="4.74643">
        <ele>173</ele>
        <time>2018-08-22T09:34:27Z</time>
      </trkpt>
      <trkpt lat="46.07404" lon="4.74637">
        <ele>174</ele>
        <time>2018-08-22T09:34:28Z</time>
      </trkpt>
      <trkpt lat="46.07401" lon="4.74631">
        <ele>174</ele>
        <time>2018-08-22T09:34:29Z</time>
      </trkpt>
      <trkpt lat="46.07398" lon="4.74625">
        <ele>174</ele>
        <time>2018-08-22T09:34:30Z</time>
      </trkpt>
      <trkpt lat="46.07394" lon="4.74618">
        <ele>174</ele>
        <time>2018-08-22T09:34:31Z</time>
      </trkpt>
      <trkpt lat="46.07389" lon="4.74612">
        <ele>174</ele>
        <time>2018-08-22T09:34:32Z</time>
      </trkpt>
      <trkpt lat="46.07385" lon="4.74606">
        <ele>174</ele>
        <time>2018-08-22T09:34:33Z</time>
      </trkpt>
      <trkpt lat="46.07382" lon="4.74599">
        <ele>174</ele>
        <time>2018-08-22T09:34:34Z</time>
      </trkpt>
      <trkpt lat="46.07378" lon="4.74593">
        <ele>174</ele>
        <time>2018-08-22T09:34:35Z</time>
      </trkpt>
      <trkpt lat="46.07374" lon="4.74586">
        <ele>175</ele>
        <time>2018-08-22T09:34:36Z</time>
      </trkpt>
      <trkpt lat="46.07371" lon="4.7458">
        <ele>175</ele>
        <time>2018-08-22T09:34:37Z</time>
      </trkpt>
      <trkpt lat="46.07367" lon="4.74573">
        <ele>175</ele>
        <time>2018-08-22T09:34:38Z</time>
      </trkpt>
      <trkpt lat="46.07364" lon="4.74566">
        <ele>175</ele>
        <time>2018-08-22T09:34:39Z</time>
      </trkpt>
      <trkpt lat="46.0736" lon="4.7456">
        <ele>175</ele>
        <time>2018-08-22T09:34:40Z</time>
      </trkpt>
      <trkpt lat="46.07356" lon="4.74554">
        <ele>175</ele>
        <time>2018-08-22T09:34:41Z</time>
      </trkpt>
      <trkpt lat="46.07352" lon="4.74549">
        <ele>175</ele>
        <time>2018-08-22T09:34:42Z</time>
      </trkpt>
      <trkpt lat="46.07349" lon="4.74543">
        <ele>175</ele>
        <time>2018-08-22T09:34:43Z</time>
      </trkpt>
      <trkpt lat="46.07346" lon="4.74538">
        <ele>175</ele>
        <time>2018-08-22T09:34:44Z</time>
      </trkpt>
      <trkpt lat="46.07341" lon="4.74528">
        <ele>175</ele>
        <time>2018-08-22T09:34:46Z</time>
      </trkpt>
      <trkpt lat="46.07338" lon="4.74523">
        <ele>175</ele>
        <time>2018-08-22T09:34:47Z</time>
      </trkpt>
      <trkpt lat="46.07335" lon="4.74516">
        <ele>175</ele>
        <time>2018-08-22T09:34:48Z</time>
      </trkpt>
      <trkpt lat="46.07332" lon="4.74509">
        <ele>176</ele>
        <time>2018-08-22T09:34:49Z</time>
      </trkpt>
      <trkpt lat="46.07329" lon="4.74503">
        <ele>176</ele>
        <time>2018-08-22T09:34:50Z</time>
      </trkpt>
      <trkpt lat="46.07327" lon="4.74497">
        <ele>176</ele>
        <time>2018-08-22T09:34:51Z</time>
      </trkpt>
      <trkpt lat="46.07325" lon="4.7449">
        <ele>175</ele>
        <time>2018-08-22T09:34:52Z</time>
      </trkpt>
      <trkpt lat="46.07321" lon="4.74485">
        <ele>175</ele>
        <time>2018-08-22T09:34:53Z</time>
      </trkpt>
      <trkpt lat="46.07318" lon="4.74479">
        <ele>175</ele>
        <time>2018-08-22T09:34:54Z</time>
      </trkpt>
      <trkpt lat="46.07316" lon="4.74471">
        <ele>175</ele>
        <time>2018-08-22T09:34:55Z</time>
      </trkpt>
      <trkpt lat="46.07315" lon="4.74464">
        <ele>175</ele>
        <time>2018-08-22T09:34:56Z</time>
      </trkpt>
      <trkpt lat="46.07313" lon="4.74457">
        <ele>175</ele>
        <time>2018-08-22T09:34:57Z</time>
      </trkpt>
      <trkpt lat="46.07312" lon="4.74449">
        <ele>175</ele>
        <time>2018-08-22T09:34:58Z</time>
      </trkpt>
      <trkpt lat="46.07309" lon="4.7444">
        <ele>175</ele>
        <time>2018-08-22T09:34:59Z</time>
      </trkpt>
      <trkpt lat="46.07309" lon="4.74433">
        <ele>175</ele>
        <time>2018-08-22T09:35:00Z</time>
      </trkpt>
      <trkpt lat="46.07308" lon="4.74427">
        <ele>175</ele>
        <time>2018-08-22T09:35:01Z</time>
      </trkpt>
      <trkpt lat="46.07305" lon="4.74418">
        <ele>175</ele>
        <time>2018-08-22T09:35:02Z</time>
      </trkpt>
      <trkpt lat="46.07304" lon="4.7441">
        <ele>174</ele>
        <time>2018-08-22T09:35:03Z</time>
      </trkpt>
      <trkpt lat="46.07304" lon="4.74402">
        <ele>174</ele>
        <time>2018-08-22T09:35:04Z</time>
      </trkpt>
      <trkpt lat="46.07305" lon="4.74396">
        <ele>174</ele>
        <time>2018-08-22T09:35:05Z</time>
      </trkpt>
      <trkpt lat="46.07306" lon="4.74389">
        <ele>174</ele>
        <time>2018-08-22T09:35:06Z</time>
      </trkpt>
      <trkpt lat="46.07305" lon="4.74383">
        <ele>174</ele>
        <time>2018-08-22T09:35:07Z</time>
      </trkpt>
      <trkpt lat="46.07304" lon="4.74376">
        <ele>174</ele>
        <time>2018-08-22T09:35:08Z</time>
      </trkpt>
      <trkpt lat="46.07303" lon="4.74369">
        <ele>174</ele>
        <time>2018-08-22T09:35:09Z</time>
      </trkpt>
      <trkpt lat="46.07302" lon="4.74357">
        <ele>174</ele>
        <time>2018-08-22T09:35:11Z</time>
      </trkpt>
      <trkpt lat="46.07303" lon="4.7435">
        <ele>174</ele>
        <time>2018-08-22T09:35:12Z</time>
      </trkpt>
      <trkpt lat="46.07301" lon="4.74342">
        <ele>174</ele>
        <time>2018-08-22T09:35:13Z</time>
      </trkpt>
      <trkpt lat="46.073" lon="4.74335">
        <ele>174</ele>
        <time>2018-08-22T09:35:14Z</time>
      </trkpt>
      <trkpt lat="46.07298" lon="4.74329">
        <ele>174</ele>
        <time>2018-08-22T09:35:15Z</time>
      </trkpt>
      <trkpt lat="46.07298" lon="4.74321">
        <ele>174</ele>
        <time>2018-08-22T09:35:16Z</time>
      </trkpt>
      <trkpt lat="46.07296" lon="4.74314">
        <ele>174</ele>
        <time>2018-08-22T09:35:17Z</time>
      </trkpt>
      <trkpt lat="46.07295" lon="4.74307">
        <ele>174</ele>
        <time>2018-08-22T09:35:18Z</time>
      </trkpt>
      <trkpt lat="46.07294" lon="4.743">
        <ele>174</ele>
        <time>2018-08-22T09:35:19Z</time>
      </trkpt>
      <trkpt lat="46.07292" lon="4.74294">
        <ele>174</ele>
        <time>2018-08-22T09:35:20Z</time>
      </trkpt>
      <trkpt lat="46.0729" lon="4.74288">
        <ele>175</ele>
        <time>2018-08-22T09:35:21Z</time>
      </trkpt>
      <trkpt lat="46.07288" lon="4.74282">
        <ele>175</ele>
        <time>2018-08-22T09:35:22Z</time>
      </trkpt>
      <trkpt lat="46.07287" lon="4.7427">
        <ele>175</ele>
        <time>2018-08-22T09:35:24Z</time>
      </trkpt>
      <trkpt lat="46.07285" lon="4.74265">
        <ele>175</ele>
        <time>2018-08-22T09:35:25Z</time>
      </trkpt>
      <trkpt lat="46.07283" lon="4.74257">
        <ele>175</ele>
        <time>2018-08-22T09:35:27Z</time>
      </trkpt>
      <trkpt lat="46.07282" lon="4.7425">
        <ele>175</ele>
        <time>2018-08-22T09:35:28Z</time>
      </trkpt>
      <trkpt lat="46.07279" lon="4.7424">
        <ele>175</ele>
        <time>2018-08-22T09:35:30Z</time>
      </trkpt>
      <trkpt lat="46.07277" lon="4.74234">
        <ele>176</ele>
        <time>2018-08-22T09:35:31Z</time>
      </trkpt>
      <trkpt lat="46.07272" lon="4.74224">
        <ele>176</ele>
        <time>2018-08-22T09:35:33Z</time>
      </trkpt>
      <trkpt lat="46.07271" lon="4.74221">
        <ele>176</ele>
        <time>2018-08-22T09:35:34Z</time>
      </trkpt>
      <trkpt lat="46.07267" lon="4.7421">
        <ele>176</ele>
        <time>2018-08-22T09:35:37Z</time>
      </trkpt>
      <trkpt lat="46.07266" lon="4.74207">
        <ele>176</ele>
        <time>2018-08-22T09:35:38Z</time>
      </trkpt>
      <trkpt lat="46.07265" lon="4.74204">
        <ele>176</ele>
        <time>2018-08-22T09:35:39Z</time>
      </trkpt>
      <trkpt lat="46.07262" lon="4.74194">
        <ele>176</ele>
        <time>2018-08-22T09:35:40Z</time>
      </trkpt>
      <trkpt lat="46.07259" lon="4.74184">
        <ele>176</ele>
        <time>2018-08-22T09:35:44Z</time>
      </trkpt>
      <trkpt lat="46.07258" lon="4.74181">
        <ele>176</ele>
        <time>2018-08-22T09:35:45Z</time>
      </trkpt>
      <trkpt lat="46.07254" lon="4.74171">
        <ele>177</ele>
        <time>2018-08-22T09:35:48Z</time>
      </trkpt>
      <trkpt lat="46.07253" lon="4.74168">
        <ele>177</ele>
        <time>2018-08-22T09:35:49Z</time>
      </trkpt>
      <trkpt lat="46.0725" lon="4.74162">
        <ele>177</ele>
        <time>2018-08-22T09:35:51Z</time>
      </trkpt>
      <trkpt lat="46.07245" lon="4.7415">
        <ele>177</ele>
        <time>2018-08-22T09:35:52Z</time>
      </trkpt>
      <trkpt lat="46.07241" lon="4.74139">
        <ele>177</ele>
        <time>2018-08-22T09:35:56Z</time>
      </trkpt>
      <trkpt lat="46.0724" lon="4.74136">
        <ele>177</ele>
        <time>2018-08-22T09:35:57Z</time>
      </trkpt>
      <trkpt lat="46.07236" lon="4.74125">
        <ele>177</ele>
        <time>2018-08-22T09:35:58Z</time>
      </trkpt>
      <trkpt lat="46.07235" lon="4.74122">
        <ele>177</ele>
        <time>2018-08-22T09:35:59Z</time>
      </trkpt>
      <trkpt lat="46.07232" lon="4.74111">
        <ele>177</ele>
        <time>2018-08-22T09:36:01Z</time>
      </trkpt>
      <trkpt lat="46.0723" lon="4.74106">
        <ele>177</ele>
        <time>2018-08-22T09:36:02Z</time>
      </trkpt>
      <trkpt lat="46.07227" lon="4.74095">
        <ele>177</ele>
        <time>2018-08-22T09:36:04Z</time>
      </trkpt>
      <trkpt lat="46.07225" lon="4.7409">
        <ele>177</ele>
        <time>2018-08-22T09:36:05Z</time>
      </trkpt>
      <trkpt lat="46.07221" lon="4.7408">
        <ele>177</ele>
        <time>2018-08-22T09:36:07Z</time>
      </trkpt>
      <trkpt lat="46.07219" lon="4.74074">
        <ele>177</ele>
        <time>2018-08-22T09:36:08Z</time>
      </trkpt>
      <trkpt lat="46.07216" lon="4.74064">
        <ele>177</ele>
        <time>2018-08-22T09:36:10Z</time>
      </trkpt>
      <trkpt lat="46.07214" lon="4.74058">
        <ele>177</ele>
        <time>2018-08-22T09:36:11Z</time>
      </trkpt>
      <trkpt lat="46.07211" lon="4.74048">
        <ele>177</ele>
        <time>2018-08-22T09:36:13Z</time>
      </trkpt>
      <trkpt lat="46.0721" lon="4.74041">
        <ele>177</ele>
        <time>2018-08-22T09:36:14Z</time>
      </trkpt>
      <trkpt lat="46.07209" lon="4.74034">
        <ele>177</ele>
        <time>2018-08-22T09:36:15Z</time>
      </trkpt>
      <trkpt lat="46.07207" lon="4.74026">
        <ele>178</ele>
        <time>2018-08-22T09:36:16Z</time>
      </trkpt>
      <trkpt lat="46.07204" lon="4.7402">
        <ele>178</ele>
        <time>2018-08-22T09:36:17Z</time>
      </trkpt>
      <trkpt lat="46.07197" lon="4.74009">
        <ele>178</ele>
        <time>2018-08-22T09:36:18Z</time>
      </trkpt>
      <trkpt lat="46.07192" lon="4.74001">
        <ele>178</ele>
        <time>2018-08-22T09:36:19Z</time>
      </trkpt>
      <trkpt lat="46.07189" lon="4.73991">
        <ele>178</ele>
        <time>2018-08-22T09:36:20Z</time>
      </trkpt>
      <trkpt lat="46.07187" lon="4.73983">
        <ele>178</ele>
        <time>2018-08-22T09:36:21Z</time>
      </trkpt>
      <trkpt lat="46.07184" lon="4.73974">
        <ele>178</ele>
        <time>2018-08-22T09:36:22Z</time>
      </trkpt>
      <trkpt lat="46.07183" lon="4.73967">
        <ele>178</ele>
        <time>2018-08-22T09:36:23Z</time>
      </trkpt>
      <trkpt lat="46.07181" lon="4.73958">
        <ele>177</ele>
        <time>2018-08-22T09:36:24Z</time>
      </trkpt>
      <trkpt lat="46.07177" lon="4.7395">
        <ele>177</ele>
        <time>2018-08-22T09:36:25Z</time>
      </trkpt>
      <trkpt lat="46.07174" lon="4.73942">
        <ele>177</ele>
        <time>2018-08-22T09:36:26Z</time>
      </trkpt>
      <trkpt lat="46.07171" lon="4.73933">
        <ele>177</ele>
        <time>2018-08-22T09:36:27Z</time>
      </trkpt>
      <trkpt lat="46.07166" lon="4.73923">
        <ele>177</ele>
        <time>2018-08-22T09:36:28Z</time>
      </trkpt>
      <trkpt lat="46.07162" lon="4.73916">
        <ele>177</ele>
        <time>2018-08-22T09:36:29Z</time>
      </trkpt>
      <trkpt lat="46.07156" lon="4.73908">
        <ele>177</ele>
        <time>2018-08-22T09:36:30Z</time>
      </trkpt>
      <trkpt lat="46.07153" lon="4.739">
        <ele>177</ele>
        <time>2018-08-22T09:36:31Z</time>
      </trkpt>
      <trkpt lat="46.0715" lon="4.73891">
        <ele>177</ele>
        <time>2018-08-22T09:36:32Z</time>
      </trkpt>
      <trkpt lat="46.07148" lon="4.73885">
        <ele>176</ele>
        <time>2018-08-22T09:36:33Z</time>
      </trkpt>
      <trkpt lat="46.07145" lon="4.73879">
        <ele>176</ele>
        <time>2018-08-22T09:36:34Z</time>
      </trkpt>
      <trkpt lat="46.07141" lon="4.73873">
        <ele>176</ele>
        <time>2018-08-22T09:36:35Z</time>
      </trkpt>
      <trkpt lat="46.0714" lon="4.73861">
        <ele>176</ele>
        <time>2018-08-22T09:36:36Z</time>
      </trkpt>
      <trkpt lat="46.07136" lon="4.73852">
        <ele>176</ele>
        <time>2018-08-22T09:36:37Z</time>
      </trkpt>
      <trkpt lat="46.07131" lon="4.73847">
        <ele>176</ele>
        <time>2018-08-22T09:36:38Z</time>
      </trkpt>
      <trkpt lat="46.07124" lon="4.73843">
        <ele>177</ele>
        <time>2018-08-22T09:36:39Z</time>
      </trkpt>
      <trkpt lat="46.07119" lon="4.73835">
        <ele>177</ele>
        <time>2018-08-22T09:36:40Z</time>
      </trkpt>
      <trkpt lat="46.07113" lon="4.7383">
        <ele>177</ele>
        <time>2018-08-22T09:36:41Z</time>
      </trkpt>
      <trkpt lat="46.07105" lon="4.73822">
        <ele>178</ele>
        <time>2018-08-22T09:36:42Z</time>
      </trkpt>
      <trkpt lat="46.071" lon="4.73816">
        <ele>178</ele>
        <time>2018-08-22T09:36:43Z</time>
      </trkpt>
      <trkpt lat="46.07095" lon="4.73812">
        <ele>178</ele>
        <time>2018-08-22T09:36:44Z</time>
      </trkpt>
      <trkpt lat="46.0709" lon="4.73809">
        <ele>178</ele>
        <time>2018-08-22T09:36:45Z</time>
      </trkpt>
      <trkpt lat="46.07085" lon="4.73805">
        <ele>178</ele>
        <time>2018-08-22T09:36:46Z</time>
      </trkpt>
      <trkpt lat="46.0708" lon="4.73803">
        <ele>178</ele>
        <time>2018-08-22T09:36:47Z</time>
      </trkpt>
      <trkpt lat="46.07075" lon="4.738">
        <ele>178</ele>
        <time>2018-08-22T09:36:48Z</time>
      </trkpt>
      <trkpt lat="46.07067" lon="4.73796">
        <ele>178</ele>
        <time>2018-08-22T09:36:49Z</time>
      </trkpt>
      <trkpt lat="46.07062" lon="4.73794">
        <ele>178</ele>
        <time>2018-08-22T09:36:50Z</time>
      </trkpt>
      <trkpt lat="46.07056" lon="4.73793">
        <ele>178</ele>
        <time>2018-08-22T09:36:51Z</time>
      </trkpt>
      <trkpt lat="46.0705" lon="4.7379">
        <ele>177</ele>
        <time>2018-08-22T09:36:52Z</time>
      </trkpt>
      <trkpt lat="46.07042" lon="4.73789">
        <ele>177</ele>
        <time>2018-08-22T09:36:53Z</time>
      </trkpt>
      <trkpt lat="46.07035" lon="4.73788">
        <ele>177</ele>
        <time>2018-08-22T09:36:54Z</time>
      </trkpt>
      <trkpt lat="46.07027" lon="4.73788">
        <ele>177</ele>
        <time>2018-08-22T09:36:55Z</time>
      </trkpt>
      <trkpt lat="46.07021" lon="4.73788">
        <ele>177</ele>
        <time>2018-08-22T09:36:56Z</time>
      </trkpt>
      <trkpt lat="46.07017" lon="4.7379">
        <ele>177</ele>
        <time>2018-08-22T09:36:57Z</time>
      </trkpt>
      <trkpt lat="46.07011" lon="4.73789">
        <ele>177</ele>
        <time>2018-08-22T09:36:58Z</time>
      </trkpt>
      <trkpt lat="46.07005" lon="4.73789">
        <ele>177</ele>
        <time>2018-08-22T09:36:59Z</time>
      </trkpt>
      <trkpt lat="46.07" lon="4.73789">
        <ele>176</ele>
        <time>2018-08-22T09:37:00Z</time>
      </trkpt>
      <trkpt lat="46.06994" lon="4.73787">
        <ele>176</ele>
        <time>2018-08-22T09:37:01Z</time>
      </trkpt>
      <trkpt lat="46.06988" lon="4.73786">
        <ele>176</ele>
        <time>2018-08-22T09:37:02Z</time>
      </trkpt>
      <trkpt lat="46.06982" lon="4.73784">
        <ele>176</ele>
        <time>2018-08-22T09:37:03Z</time>
      </trkpt>
      <trkpt lat="46.06976" lon="4.73785">
        <ele>176</ele>
        <time>2018-08-22T09:37:04Z</time>
      </trkpt>
      <trkpt lat="46.06971" lon="4.73782">
        <ele>176</ele>
        <time>2018-08-22T09:37:05Z</time>
      </trkpt>
      <trkpt lat="46.06967" lon="4.7378">
        <ele>176</ele>
        <time>2018-08-22T09:37:06Z</time>
      </trkpt>
      <trkpt lat="46.0696" lon="4.73778">
        <ele>176</ele>
        <time>2018-08-22T09:37:07Z</time>
      </trkpt>
      <trkpt lat="46.06952" lon="4.73775">
        <ele>176</ele>
        <time>2018-08-22T09:37:08Z</time>
      </trkpt>
      <trkpt lat="46.06946" lon="4.73772">
        <ele>176</ele>
        <time>2018-08-22T09:37:09Z</time>
      </trkpt>
      <trkpt lat="46.06939" lon="4.73767">
        <ele>176</ele>
        <time>2018-08-22T09:37:10Z</time>
      </trkpt>
      <trkpt lat="46.06935" lon="4.73765">
        <ele>176</ele>
        <time>2018-08-22T09:37:11Z</time>
      </trkpt>
      <trkpt lat="46.0693" lon="4.73761">
        <ele>177</ele>
        <time>2018-08-22T09:37:12Z</time>
      </trkpt>
      <trkpt lat="46.06926" lon="4.73755">
        <ele>177</ele>
        <time>2018-08-22T09:37:13Z</time>
      </trkpt>
      <trkpt lat="46.06922" lon="4.7375">
        <ele>177</ele>
        <time>2018-08-22T09:37:14Z</time>
      </trkpt>
      <trkpt lat="46.06917" lon="4.73746">
        <ele>177</ele>
        <time>2018-08-22T09:37:15Z</time>
      </trkpt>
      <trkpt lat="46.06913" lon="4.7374">
        <ele>177</ele>
        <time>2018-08-22T09:37:16Z</time>
      </trkpt>
      <trkpt lat="46.06909" lon="4.73732">
        <ele>177</ele>
        <time>2018-08-22T09:37:17Z</time>
      </trkpt>
      <trkpt lat="46.06905" lon="4.73726">
        <ele>176</ele>
        <time>2018-08-22T09:37:18Z</time>
      </trkpt>
      <trkpt lat="46.069" lon="4.73719">
        <ele>176</ele>
        <time>2018-08-22T09:37:19Z</time>
      </trkpt>
      <trkpt lat="46.06895" lon="4.73713">
        <ele>176</ele>
        <time>2018-08-22T09:37:20Z</time>
      </trkpt>
      <trkpt lat="46.06891" lon="4.73707">
        <ele>176</ele>
        <time>2018-08-22T09:37:21Z</time>
      </trkpt>
      <trkpt lat="46.06886" lon="4.73702">
        <ele>176</ele>
        <time>2018-08-22T09:37:22Z</time>
      </trkpt>
      <trkpt lat="46.06881" lon="4.73697">
        <ele>176</ele>
        <time>2018-08-22T09:37:23Z</time>
      </trkpt>
      <trkpt lat="46.06875" lon="4.73692">
        <ele>176</ele>
        <time>2018-08-22T09:37:24Z</time>
      </trkpt>
      <trkpt lat="46.0687" lon="4.73686">
        <ele>176</ele>
        <time>2018-08-22T09:37:25Z</time>
      </trkpt>
      <trkpt lat="46.06866" lon="4.73681">
        <ele>176</ele>
        <time>2018-08-22T09:37:26Z</time>
      </trkpt>
      <trkpt lat="46.06861" lon="4.73676">
        <ele>176</ele>
        <time>2018-08-22T09:37:27Z</time>
      </trkpt>
      <trkpt lat="46.06858" lon="4.73672">
        <ele>176</ele>
        <time>2018-08-22T09:37:28Z</time>
      </trkpt>
      <trkpt lat="46.06854" lon="4.73668">
        <ele>176</ele>
        <time>2018-08-22T09:37:29Z</time>
      </trkpt>
      <trkpt lat="46.0685" lon="4.73664">
        <ele>176</ele>
        <time>2018-08-22T09:37:30Z</time>
      </trkpt>
      <trkpt lat="46.06845" lon="4.73658">
        <ele>176</ele>
        <time>2018-08-22T09:37:31Z</time>
      </trkpt>
      <trkpt lat="46.06841" lon="4.73654">
        <ele>176</ele>
        <time>2018-08-22T09:37:32Z</time>
      </trkpt>
      <trkpt lat="46.06837" lon="4.7365">
        <ele>176</ele>
        <time>2018-08-22T09:37:33Z</time>
      </trkpt>
      <trkpt lat="46.06834" lon="4.73646">
        <ele>176</ele>
        <time>2018-08-22T09:37:34Z</time>
      </trkpt>
      <trkpt lat="46.06829" lon="4.73642">
        <ele>177</ele>
        <time>2018-08-22T09:37:35Z</time>
      </trkpt>
      <trkpt lat="46.06823" lon="4.73638">
        <ele>178</ele>
        <time>2018-08-22T09:37:36Z</time>
      </trkpt>
      <trkpt lat="46.06818" lon="4.73632">
        <ele>178</ele>
        <time>2018-08-22T09:37:37Z</time>
      </trkpt>
      <trkpt lat="46.06814" lon="4.73625">
        <ele>178</ele>
        <time>2018-08-22T09:37:38Z</time>
      </trkpt>
      <trkpt lat="46.06811" lon="4.7362">
        <ele>178</ele>
        <time>2018-08-22T09:37:39Z</time>
      </trkpt>
      <trkpt lat="46.06807" lon="4.73614">
        <ele>178</ele>
        <time>2018-08-22T09:37:40Z</time>
      </trkpt>
      <trkpt lat="46.06804" lon="4.73609">
        <ele>178</ele>
        <time>2018-08-22T09:37:41Z</time>
      </trkpt>
      <trkpt lat="46.06801" lon="4.73604">
        <ele>178</ele>
        <time>2018-08-22T09:37:42Z</time>
      </trkpt>
      <trkpt lat="46.06797" lon="4.73599">
        <ele>178</ele>
        <time>2018-08-22T09:37:43Z</time>
      </trkpt>
      <trkpt lat="46.06793" lon="4.73594">
        <ele>179</ele>
        <time>2018-08-22T09:37:44Z</time>
      </trkpt>
      <trkpt lat="46.06789" lon="4.7359">
        <ele>179</ele>
        <time>2018-08-22T09:37:45Z</time>
      </trkpt>
      <trkpt lat="46.06785" lon="4.73584">
        <ele>179</ele>
        <time>2018-08-22T09:37:46Z</time>
      </trkpt>
      <trkpt lat="46.06781" lon="4.73577">
        <ele>179</ele>
        <time>2018-08-22T09:37:47Z</time>
      </trkpt>
      <trkpt lat="46.06777" lon="4.73572">
        <ele>180</ele>
        <time>2018-08-22T09:37:48Z</time>
      </trkpt>
      <trkpt lat="46.06774" lon="4.73566">
        <ele>180</ele>
        <time>2018-08-22T09:37:49Z</time>
      </trkpt>
      <trkpt lat="46.06772" lon="4.73558">
        <ele>179</ele>
        <time>2018-08-22T09:37:50Z</time>
      </trkpt>
      <trkpt lat="46.06769" lon="4.7355">
        <ele>179</ele>
        <time>2018-08-22T09:37:51Z</time>
      </trkpt>
      <trkpt lat="46.06764" lon="4.73543">
        <ele>179</ele>
        <time>2018-08-22T09:37:52Z</time>
      </trkpt>
      <trkpt lat="46.06761" lon="4.73536">
        <ele>179</ele>
        <time>2018-08-22T09:37:53Z</time>
      </trkpt>
      <trkpt lat="46.06759" lon="4.7353">
        <ele>179</ele>
        <time>2018-08-22T09:37:54Z</time>
      </trkpt>
      <trkpt lat="46.06755" lon="4.73523">
        <ele>179</ele>
        <time>2018-08-22T09:37:55Z</time>
      </trkpt>
      <trkpt lat="46.06752" lon="4.73517">
        <ele>179</ele>
        <time>2018-08-22T09:37:56Z</time>
      </trkpt>
      <trkpt lat="46.06749" lon="4.73512">
        <ele>180</ele>
        <time>2018-08-22T09:37:57Z</time>
      </trkpt>
      <trkpt lat="46.06742" lon="4.7351">
        <ele>180</ele>
        <time>2018-08-22T09:37:58Z</time>
      </trkpt>
      <trkpt lat="46.06737" lon="4.73504">
        <ele>180</ele>
        <time>2018-08-22T09:37:59Z</time>
      </trkpt>
      <trkpt lat="46.06732" lon="4.73501">
        <ele>180</ele>
        <time>2018-08-22T09:38:00Z</time>
      </trkpt>
      <trkpt lat="46.06729" lon="4.73494">
        <ele>180</ele>
        <time>2018-08-22T09:38:01Z</time>
      </trkpt>
      <trkpt lat="46.06724" lon="4.73489">
        <ele>180</ele>
        <time>2018-08-22T09:38:02Z</time>
      </trkpt>
      <trkpt lat="46.06719" lon="4.7348">
        <ele>180</ele>
        <time>2018-08-22T09:38:04Z</time>
      </trkpt>
      <trkpt lat="46.06716" lon="4.73475">
        <ele>180</ele>
        <time>2018-08-22T09:38:05Z</time>
      </trkpt>
      <trkpt lat="46.06711" lon="4.73466">
        <ele>180</ele>
        <time>2018-08-22T09:38:07Z</time>
      </trkpt>
      <trkpt lat="46.06708" lon="4.73461">
        <ele>180</ele>
        <time>2018-08-22T09:38:08Z</time>
      </trkpt>
      <trkpt lat="46.06705" lon="4.73456">
        <ele>180</ele>
        <time>2018-08-22T09:38:09Z</time>
      </trkpt>
      <trkpt lat="46.06701" lon="4.73449">
        <ele>180</ele>
        <time>2018-08-22T09:38:10Z</time>
      </trkpt>
      <trkpt lat="46.06698" lon="4.73443">
        <ele>180</ele>
        <time>2018-08-22T09:38:11Z</time>
      </trkpt>
      <trkpt lat="46.06694" lon="4.73438">
        <ele>181</ele>
        <time>2018-08-22T09:38:12Z</time>
      </trkpt>
      <trkpt lat="46.06691" lon="4.73432">
        <ele>181</ele>
        <time>2018-08-22T09:38:13Z</time>
      </trkpt>
      <trkpt lat="46.06688" lon="4.73428">
        <ele>181</ele>
        <time>2018-08-22T09:38:14Z</time>
      </trkpt>
      <trkpt lat="46.06685" lon="4.73423">
        <ele>181</ele>
        <time>2018-08-22T09:38:15Z</time>
      </trkpt>
      <trkpt lat="46.06681" lon="4.73418">
        <ele>181</ele>
        <time>2018-08-22T09:38:16Z</time>
      </trkpt>
      <trkpt lat="46.06675" lon="4.7341">
        <ele>181</ele>
        <time>2018-08-22T09:38:18Z</time>
      </trkpt>
      <trkpt lat="46.06671" lon="4.73405">
        <ele>181</ele>
        <time>2018-08-22T09:38:19Z</time>
      </trkpt>
      <trkpt lat="46.06666" lon="4.73399">
        <ele>182</ele>
        <time>2018-08-22T09:38:20Z</time>
      </trkpt>
      <trkpt lat="46.06663" lon="4.73393">
        <ele>182</ele>
        <time>2018-08-22T09:38:21Z</time>
      </trkpt>
      <trkpt lat="46.06656" lon="4.73388">
        <ele>182</ele>
        <time>2018-08-22T09:38:22Z</time>
      </trkpt>
      <trkpt lat="46.06655" lon="4.73383">
        <ele>182</ele>
        <time>2018-08-22T09:38:23Z</time>
      </trkpt>
      <trkpt lat="46.06651" lon="4.73379">
        <ele>182</ele>
        <time>2018-08-22T09:38:24Z</time>
      </trkpt>
      <trkpt lat="46.06647" lon="4.73374">
        <ele>182</ele>
        <time>2018-08-22T09:38:25Z</time>
      </trkpt>
      <trkpt lat="46.06641" lon="4.73368">
        <ele>182</ele>
        <time>2018-08-22T09:38:26Z</time>
      </trkpt>
      <trkpt lat="46.06637" lon="4.73364">
        <ele>182</ele>
        <time>2018-08-22T09:38:27Z</time>
      </trkpt>
      <trkpt lat="46.06632" lon="4.73359">
        <ele>182</ele>
        <time>2018-08-22T09:38:29Z</time>
      </trkpt>
      <trkpt lat="46.06626" lon="4.73355">
        <ele>182</ele>
        <time>2018-08-22T09:38:30Z</time>
      </trkpt>
      <trkpt lat="46.06618" lon="4.7335">
        <ele>182</ele>
        <time>2018-08-22T09:38:32Z</time>
      </trkpt>
      <trkpt lat="46.06614" lon="4.73349">
        <ele>182</ele>
        <time>2018-08-22T09:38:33Z</time>
      </trkpt>
      <trkpt lat="46.06606" lon="4.73344">
        <ele>182</ele>
        <time>2018-08-22T09:38:35Z</time>
      </trkpt>
      <trkpt lat="46.06603" lon="4.73343">
        <ele>182</ele>
        <time>2018-08-22T09:38:36Z</time>
      </trkpt>
      <trkpt lat="46.06599" lon="4.73334">
        <ele>182</ele>
        <time>2018-08-22T09:38:38Z</time>
      </trkpt>
      <trkpt lat="46.06597" lon="4.7333">
        <ele>182</ele>
        <time>2018-08-22T09:38:39Z</time>
      </trkpt>
      <trkpt lat="46.06592" lon="4.73322">
        <ele>182</ele>
        <time>2018-08-22T09:38:41Z</time>
      </trkpt>
      <trkpt lat="46.06591" lon="4.7332">
        <ele>182</ele>
        <time>2018-08-22T09:38:42Z</time>
      </trkpt>
      <trkpt lat="46.06586" lon="4.73313">
        <ele>182</ele>
        <time>2018-08-22T09:38:43Z</time>
      </trkpt>
      <trkpt lat="46.06583" lon="4.73309">
        <ele>183</ele>
        <time>2018-08-22T09:38:44Z</time>
      </trkpt>
      <trkpt lat="46.06578" lon="4.733">
        <ele>183</ele>
        <time>2018-08-22T09:38:46Z</time>
      </trkpt>
      <trkpt lat="46.06576" lon="4.73295">
        <ele>184</ele>
        <time>2018-08-22T09:38:47Z</time>
      </trkpt>
      <trkpt lat="46.06572" lon="4.73284">
        <ele>184</ele>
        <time>2018-08-22T09:38:49Z</time>
      </trkpt>
      <trkpt lat="46.06571" lon="4.73279">
        <ele>184</ele>
        <time>2018-08-22T09:38:50Z</time>
      </trkpt>
      <trkpt lat="46.06568" lon="4.73269">
        <ele>184</ele>
        <time>2018-08-22T09:38:52Z</time>
      </trkpt>
      <trkpt lat="46.06567" lon="4.73264">
        <ele>184</ele>
        <time>2018-08-22T09:38:53Z</time>
      </trkpt>
      <trkpt lat="46.06564" lon="4.73254">
        <ele>184</ele>
        <time>2018-08-22T09:38:55Z</time>
      </trkpt>
      <trkpt lat="46.06562" lon="4.73249">
        <ele>186</ele>
        <time>2018-08-22T09:38:56Z</time>
      </trkpt>
      <trkpt lat="46.06562" lon="4.73242">
        <ele>186</ele>
        <time>2018-08-22T09:38:58Z</time>
      </trkpt>
      <trkpt lat="46.06559" lon="4.73236">
        <ele>186</ele>
        <time>2018-08-22T09:38:59Z</time>
      </trkpt>
      <trkpt lat="46.06556" lon="4.73226">
        <ele>186</ele>
        <time>2018-08-22T09:39:01Z</time>
      </trkpt>
      <trkpt lat="46.06554" lon="4.7322">
        <ele>186</ele>
        <time>2018-08-22T09:39:02Z</time>
      </trkpt>
      <trkpt lat="46.0655" lon="4.73212">
        <ele>186</ele>
        <time>2018-08-22T09:39:03Z</time>
      </trkpt>
      <trkpt lat="46.06549" lon="4.73206">
        <ele>186</ele>
        <time>2018-08-22T09:39:04Z</time>
      </trkpt>
      <trkpt lat="46.06548" lon="4.73194">
        <ele>187</ele>
        <time>2018-08-22T09:39:06Z</time>
      </trkpt>
      <trkpt lat="46.06546" lon="4.73186">
        <ele>187</ele>
        <time>2018-08-22T09:39:07Z</time>
      </trkpt>
      <trkpt lat="46.06548" lon="4.73174">
        <ele>187</ele>
        <time>2018-08-22T09:39:09Z</time>
      </trkpt>
      <trkpt lat="46.06548" lon="4.73168">
        <ele>187</ele>
        <time>2018-08-22T09:39:10Z</time>
      </trkpt>
      <trkpt lat="46.06548" lon="4.73155">
        <ele>187</ele>
        <time>2018-08-22T09:39:12Z</time>
      </trkpt>
      <trkpt lat="46.06547" lon="4.73149">
        <ele>187</ele>
        <time>2018-08-22T09:39:13Z</time>
      </trkpt>
      <trkpt lat="46.06545" lon="4.73137">
        <ele>187</ele>
        <time>2018-08-22T09:39:15Z</time>
      </trkpt>
      <trkpt lat="46.06542" lon="4.73131">
        <ele>187</ele>
        <time>2018-08-22T09:39:16Z</time>
      </trkpt>
      <trkpt lat="46.06538" lon="4.73124">
        <ele>188</ele>
        <time>2018-08-22T09:39:17Z</time>
      </trkpt>
      <trkpt lat="46.06536" lon="4.73118">
        <ele>188</ele>
        <time>2018-08-22T09:39:18Z</time>
      </trkpt>
      <trkpt lat="46.06533" lon="4.73107">
        <ele>188</ele>
        <time>2018-08-22T09:39:20Z</time>
      </trkpt>
      <trkpt lat="46.06531" lon="4.73101">
        <ele>188</ele>
        <time>2018-08-22T09:39:21Z</time>
      </trkpt>
      <trkpt lat="46.06528" lon="4.73094">
        <ele>188</ele>
        <time>2018-08-22T09:39:22Z</time>
      </trkpt>
      <trkpt lat="46.06526" lon="4.73087">
        <ele>188</ele>
        <time>2018-08-22T09:39:23Z</time>
      </trkpt>
      <trkpt lat="46.06523" lon="4.73076">
        <ele>188</ele>
        <time>2018-08-22T09:39:25Z</time>
      </trkpt>
      <trkpt lat="46.0652" lon="4.7307">
        <ele>188</ele>
        <time>2018-08-22T09:39:26Z</time>
      </trkpt>
      <trkpt lat="46.06518" lon="4.73064">
        <ele>188</ele>
        <time>2018-08-22T09:39:27Z</time>
      </trkpt>
      <trkpt lat="46.06516" lon="4.73058">
        <ele>188</ele>
        <time>2018-08-22T09:39:28Z</time>
      </trkpt>
      <trkpt lat="46.06513" lon="4.73053">
        <ele>188</ele>
        <time>2018-08-22T09:39:29Z</time>
      </trkpt>
      <trkpt lat="46.0651" lon="4.73047">
        <ele>188</ele>
        <time>2018-08-22T09:39:30Z</time>
      </trkpt>
      <trkpt lat="46.06507" lon="4.73037">
        <ele>189</ele>
        <time>2018-08-22T09:39:32Z</time>
      </trkpt>
      <trkpt lat="46.06505" lon="4.73031">
        <ele>189</ele>
        <time>2018-08-22T09:39:33Z</time>
      </trkpt>
      <trkpt lat="46.06502" lon="4.73023">
        <ele>189</ele>
        <time>2018-08-22T09:39:35Z</time>
      </trkpt>
      <trkpt lat="46.06499" lon="4.73015">
        <ele>189</ele>
        <time>2018-08-22T09:39:36Z</time>
      </trkpt>
      <trkpt lat="46.06494" lon="4.73005">
        <ele>189</ele>
        <time>2018-08-22T09:39:38Z</time>
      </trkpt>
      <trkpt lat="46.06491" lon="4.73">
        <ele>189</ele>
        <time>2018-08-22T09:39:39Z</time>
      </trkpt>
      <trkpt lat="46.06488" lon="4.72988">
        <ele>189</ele>
        <time>2018-08-22T09:39:41Z</time>
      </trkpt>
      <trkpt lat="46.06487" lon="4.72983">
        <ele>189</ele>
        <time>2018-08-22T09:39:42Z</time>
      </trkpt>
      <trkpt lat="46.06485" lon="4.72975">
        <ele>189</ele>
        <time>2018-08-22T09:39:43Z</time>
      </trkpt>
      <trkpt lat="46.06484" lon="4.72968">
        <ele>188</ele>
        <time>2018-08-22T09:39:44Z</time>
      </trkpt>
      <trkpt lat="46.06483" lon="4.72957">
        <ele>188</ele>
        <time>2018-08-22T09:39:46Z</time>
      </trkpt>
      <trkpt lat="46.06484" lon="4.72949">
        <ele>188</ele>
        <time>2018-08-22T09:39:47Z</time>
      </trkpt>
      <trkpt lat="46.06483" lon="4.72937">
        <ele>188</ele>
        <time>2018-08-22T09:39:49Z</time>
      </trkpt>
      <trkpt lat="46.06482" lon="4.72932">
        <ele>189</ele>
        <time>2018-08-22T09:39:50Z</time>
      </trkpt>
      <trkpt lat="46.06481" lon="4.72922">
        <ele>189</ele>
        <time>2018-08-22T09:39:52Z</time>
      </trkpt>
      <trkpt lat="46.06481" lon="4.72919">
        <ele>189</ele>
        <time>2018-08-22T09:39:53Z</time>
      </trkpt>
      <trkpt lat="46.06479" lon="4.72911">
        <ele>189</ele>
        <time>2018-08-22T09:39:54Z</time>
      </trkpt>
      <trkpt lat="46.06479" lon="4.72904">
        <ele>188</ele>
        <time>2018-08-22T09:39:55Z</time>
      </trkpt>
      <trkpt lat="46.06477" lon="4.72894">
        <ele>188</ele>
        <time>2018-08-22T09:39:57Z</time>
      </trkpt>
      <trkpt lat="46.06475" lon="4.72887">
        <ele>188</ele>
        <time>2018-08-22T09:39:58Z</time>
      </trkpt>
      <trkpt lat="46.06474" lon="4.72875">
        <ele>188</ele>
        <time>2018-08-22T09:40:00Z</time>
      </trkpt>
      <trkpt lat="46.06472" lon="4.72867">
        <ele>188</ele>
        <time>2018-08-22T09:40:01Z</time>
      </trkpt>
      <trkpt lat="46.0647" lon="4.7286">
        <ele>188</ele>
        <time>2018-08-22T09:40:02Z</time>
      </trkpt>
      <trkpt lat="46.06469" lon="4.72852">
        <ele>188</ele>
        <time>2018-08-22T09:40:03Z</time>
      </trkpt>
      <trkpt lat="46.06468" lon="4.72839">
        <ele>188</ele>
        <time>2018-08-22T09:40:05Z</time>
      </trkpt>
      <trkpt lat="46.06465" lon="4.7283">
        <ele>188</ele>
        <time>2018-08-22T09:40:06Z</time>
      </trkpt>
      <trkpt lat="46.06464" lon="4.72819">
        <ele>188</ele>
        <time>2018-08-22T09:40:08Z</time>
      </trkpt>
      <trkpt lat="46.06463" lon="4.72811">
        <ele>188</ele>
        <time>2018-08-22T09:40:09Z</time>
      </trkpt>
      <trkpt lat="46.06461" lon="4.72802">
        <ele>188</ele>
        <time>2018-08-22T09:40:10Z</time>
      </trkpt>
      <trkpt lat="46.0646" lon="4.72796">
        <ele>188</ele>
        <time>2018-08-22T09:40:11Z</time>
      </trkpt>
      <trkpt lat="46.06459" lon="4.72788">
        <ele>188</ele>
        <time>2018-08-22T09:40:12Z</time>
      </trkpt>
      <trkpt lat="46.06458" lon="4.7278">
        <ele>188</ele>
        <time>2018-08-22T09:40:13Z</time>
      </trkpt>
      <trkpt lat="46.06457" lon="4.72773">
        <ele>188</ele>
        <time>2018-08-22T09:40:14Z</time>
      </trkpt>
      <trkpt lat="46.06454" lon="4.72766">
        <ele>188</ele>
        <time>2018-08-22T09:40:15Z</time>
      </trkpt>
      <trkpt lat="46.06454" lon="4.72755">
        <ele>188</ele>
        <time>2018-08-22T09:40:17Z</time>
      </trkpt>
      <trkpt lat="46.06454" lon="4.72749">
        <ele>189</ele>
        <time>2018-08-22T09:40:18Z</time>
      </trkpt>
      <trkpt lat="46.06451" lon="4.72742">
        <ele>189</ele>
        <time>2018-08-22T09:40:19Z</time>
      </trkpt>
      <trkpt lat="46.06448" lon="4.72735">
        <ele>189</ele>
        <time>2018-08-22T09:40:20Z</time>
      </trkpt>
      <trkpt lat="46.06447" lon="4.72723">
        <ele>190</ele>
        <time>2018-08-22T09:40:22Z</time>
      </trkpt>
      <trkpt lat="46.06446" lon="4.72716">
        <ele>190</ele>
        <time>2018-08-22T09:40:23Z</time>
      </trkpt>
      <trkpt lat="46.06446" lon="4.72704">
        <ele>190</ele>
        <time>2018-08-22T09:40:25Z</time>
      </trkpt>
      <trkpt lat="46.06445" lon="4.72699">
        <ele>190</ele>
        <time>2018-08-22T09:40:26Z</time>
      </trkpt>
      <trkpt lat="46.06442" lon="4.72686">
        <ele>190</ele>
        <time>2018-08-22T09:40:28Z</time>
      </trkpt>
      <trkpt lat="46.06441" lon="4.7268">
        <ele>191</ele>
        <time>2018-08-22T09:40:29Z</time>
      </trkpt>
      <trkpt lat="46.06438" lon="4.72669">
        <ele>191</ele>
        <time>2018-08-22T09:40:31Z</time>
      </trkpt>
      <trkpt lat="46.06436" lon="4.72663">
        <ele>192</ele>
        <time>2018-08-22T09:40:32Z</time>
      </trkpt>
      <trkpt lat="46.06434" lon="4.72652">
        <ele>192</ele>
        <time>2018-08-22T09:40:34Z</time>
      </trkpt>
      <trkpt lat="46.06433" lon="4.72646">
        <ele>192</ele>
        <time>2018-08-22T09:40:35Z</time>
      </trkpt>
      <trkpt lat="46.06432" lon="4.72635">
        <ele>192</ele>
        <time>2018-08-22T09:40:37Z</time>
      </trkpt>
      <trkpt lat="46.06431" lon="4.7263">
        <ele>193</ele>
        <time>2018-08-22T09:40:38Z</time>
      </trkpt>
      <trkpt lat="46.06429" lon="4.7262">
        <ele>193</ele>
        <time>2018-08-22T09:40:40Z</time>
      </trkpt>
      <trkpt lat="46.06428" lon="4.72615">
        <ele>193</ele>
        <time>2018-08-22T09:40:41Z</time>
      </trkpt>
      <trkpt lat="46.06425" lon="4.72603">
        <ele>193</ele>
        <time>2018-08-22T09:40:43Z</time>
      </trkpt>
      <trkpt lat="46.06425" lon="4.72598">
        <ele>194</ele>
        <time>2018-08-22T09:40:44Z</time>
      </trkpt>
      <trkpt lat="46.06423" lon="4.72587">
        <ele>194</ele>
        <time>2018-08-22T09:40:46Z</time>
      </trkpt>
      <trkpt lat="46.06422" lon="4.72582">
        <ele>195</ele>
        <time>2018-08-22T09:40:47Z</time>
      </trkpt>
      <trkpt lat="46.0642" lon="4.72571">
        <ele>195</ele>
        <time>2018-08-22T09:40:50Z</time>
      </trkpt>
      <trkpt lat="46.06419" lon="4.72563">
        <ele>195</ele>
        <time>2018-08-22T09:40:51Z</time>
      </trkpt>
      <trkpt lat="46.06417" lon="4.72552">
        <ele>196</ele>
        <time>2018-08-22T09:40:53Z</time>
      </trkpt>
      <trkpt lat="46.06415" lon="4.72547">
        <ele>196</ele>
        <time>2018-08-22T09:40:54Z</time>
      </trkpt>
      <trkpt lat="46.06414" lon="4.72541">
        <ele>197</ele>
        <time>2018-08-22T09:40:56Z</time>
      </trkpt>
      <trkpt lat="46.06412" lon="4.7253">
        <ele>197</ele>
        <time>2018-08-22T09:40:57Z</time>
      </trkpt>
      <trkpt lat="46.06411" lon="4.72519">
        <ele>198</ele>
        <time>2018-08-22T09:40:59Z</time>
      </trkpt>
      <trkpt lat="46.0641" lon="4.72514">
        <ele>198</ele>
        <time>2018-08-22T09:41:00Z</time>
      </trkpt>
      <trkpt lat="46.06409" lon="4.72507">
        <ele>199</ele>
        <time>2018-08-22T09:41:02Z</time>
      </trkpt>
      <trkpt lat="46.06407" lon="4.725">
        <ele>199</ele>
        <time>2018-08-22T09:41:03Z</time>
      </trkpt>
      <trkpt lat="46.06405" lon="4.72488">
        <ele>198</ele>
        <time>2018-08-22T09:41:07Z</time>
      </trkpt>
      <trkpt lat="46.06402" lon="4.72476">
        <ele>198</ele>
        <time>2018-08-22T09:41:08Z</time>
      </trkpt>
      <trkpt lat="46.06397" lon="4.72467">
        <ele>197</ele>
        <time>2018-08-22T09:41:10Z</time>
      </trkpt>
      <trkpt lat="46.06394" lon="4.72462">
        <ele>197</ele>
        <time>2018-08-22T09:41:11Z</time>
      </trkpt>
      <trkpt lat="46.06392" lon="4.72457">
        <ele>197</ele>
        <time>2018-08-22T09:41:12Z</time>
      </trkpt>
      <trkpt lat="46.06389" lon="4.72452">
        <ele>197</ele>
        <time>2018-08-22T09:41:13Z</time>
      </trkpt>
      <trkpt lat="46.06385" lon="4.72444">
        <ele>197</ele>
        <time>2018-08-22T09:41:14Z</time>
      </trkpt>
      <trkpt lat="46.06381" lon="4.72439">
        <ele>197</ele>
        <time>2018-08-22T09:41:15Z</time>
      </trkpt>
      <trkpt lat="46.06378" lon="4.7243">
        <ele>197</ele>
        <time>2018-08-22T09:41:17Z</time>
      </trkpt>
      <trkpt lat="46.06376" lon="4.72425">
        <ele>197</ele>
        <time>2018-08-22T09:41:18Z</time>
      </trkpt>
      <trkpt lat="46.0637" lon="4.72415">
        <ele>196</ele>
        <time>2018-08-22T09:41:20Z</time>
      </trkpt>
      <trkpt lat="46.06368" lon="4.72411">
        <ele>196</ele>
        <time>2018-08-22T09:41:21Z</time>
      </trkpt>
      <trkpt lat="46.06367" lon="4.72399">
        <ele>196</ele>
        <time>2018-08-22T09:41:23Z</time>
      </trkpt>
      <trkpt lat="46.06366" lon="4.72397">
        <ele>196</ele>
        <time>2018-08-22T09:41:24Z</time>
      </trkpt>
      <trkpt lat="46.06367" lon="4.72384">
        <ele>196</ele>
        <time>2018-08-22T09:41:26Z</time>
      </trkpt>
      <trkpt lat="46.06368" lon="4.7238">
        <ele>196</ele>
        <time>2018-08-22T09:41:27Z</time>
      </trkpt>
      <trkpt lat="46.0637" lon="4.72369">
        <ele>195</ele>
        <time>2018-08-22T09:41:29Z</time>
      </trkpt>
      <trkpt lat="46.06372" lon="4.72363">
        <ele>195</ele>
        <time>2018-08-22T09:41:30Z</time>
      </trkpt>
      <trkpt lat="46.06373" lon="4.72356">
        <ele>195</ele>
        <time>2018-08-22T09:41:32Z</time>
      </trkpt>
      <trkpt lat="46.06375" lon="4.72348">
        <ele>195</ele>
        <time>2018-08-22T09:41:33Z</time>
      </trkpt>
      <trkpt lat="46.06376" lon="4.72336">
        <ele>195</ele>
        <time>2018-08-22T09:41:35Z</time>
      </trkpt>
      <trkpt lat="46.06379" lon="4.72331">
        <ele>193</ele>
        <time>2018-08-22T09:41:36Z</time>
      </trkpt>
      <trkpt lat="46.0638" lon="4.72324">
        <ele>193</ele>
        <time>2018-08-22T09:41:37Z</time>
      </trkpt>
      <trkpt lat="46.06379" lon="4.72315">
        <ele>193</ele>
        <time>2018-08-22T09:41:38Z</time>
      </trkpt>
      <trkpt lat="46.06377" lon="4.72308">
        <ele>193</ele>
        <time>2018-08-22T09:41:39Z</time>
      </trkpt>
      <trkpt lat="46.06376" lon="4.72302">
        <ele>193</ele>
        <time>2018-08-22T09:41:40Z</time>
      </trkpt>
      <trkpt lat="46.06376" lon="4.72289">
        <ele>193</ele>
        <time>2018-08-22T09:41:48Z</time>
      </trkpt>
      <trkpt lat="46.06376" lon="4.72289">
        <ele>193</ele>
        <time>2018-08-22T09:41:49Z</time>
      </trkpt>
      <trkpt lat="46.06376" lon="4.72289">
        <ele>193</ele>
        <time>2018-08-22T09:41:50Z</time>
      </trkpt>
      <trkpt lat="46.06379" lon="4.72289">
        <ele>193</ele>
        <time>2018-08-22T09:42:07Z</time>
      </trkpt>
      <trkpt lat="46.06386" lon="4.72288">
        <ele>193</ele>
        <time>2018-08-22T09:42:08Z</time>
      </trkpt>
      <trkpt lat="46.06394" lon="4.72289">
        <ele>193</ele>
        <time>2018-08-22T09:42:10Z</time>
      </trkpt>
      <trkpt lat="46.06395" lon="4.72289">
        <ele>192</ele>
        <time>2018-08-22T09:42:11Z</time>
      </trkpt>
      <trkpt lat="46.06402" lon="4.72283">
        <ele>192</ele>
        <time>2018-08-22T09:42:12Z</time>
      </trkpt>
      <trkpt lat="46.06407" lon="4.72283">
        <ele>192</ele>
        <time>2018-08-22T09:42:13Z</time>
      </trkpt>
      <trkpt lat="46.06415" lon="4.72285">
        <ele>192</ele>
        <time>2018-08-22T09:42:15Z</time>
      </trkpt>
      <trkpt lat="46.06419" lon="4.72285">
        <ele>190</ele>
        <time>2018-08-22T09:42:16Z</time>
      </trkpt>
      <trkpt lat="46.06427" lon="4.72285">
        <ele>190</ele>
        <time>2018-08-22T09:42:18Z</time>
      </trkpt>
      <trkpt lat="46.0643" lon="4.72284">
        <ele>190</ele>
        <time>2018-08-22T09:42:19Z</time>
      </trkpt>
      <trkpt lat="46.06433" lon="4.72276">
        <ele>190</ele>
        <time>2018-08-22T09:42:20Z</time>
      </trkpt>
      <trkpt lat="46.06427" lon="4.72267">
        <ele>190</ele>
        <time>2018-08-22T09:42:21Z</time>
      </trkpt>
      <trkpt lat="46.06426" lon="4.72263">
        <ele>189</ele>
        <time>2018-08-22T09:42:22Z</time>
      </trkpt>
      <trkpt lat="46.0642" lon="4.72257">
        <ele>189</ele>
        <time>2018-08-22T09:42:23Z</time>
      </trkpt>
      <trkpt lat="46.06416" lon="4.72252">
        <ele>189</ele>
        <time>2018-08-22T09:42:24Z</time>
      </trkpt>
      <trkpt lat="46.06413" lon="4.72246">
        <ele>189</ele>
        <time>2018-08-22T09:42:25Z</time>
      </trkpt>
      <trkpt lat="46.0641" lon="4.72238">
        <ele>190</ele>
        <time>2018-08-22T09:42:26Z</time>
      </trkpt>
      <trkpt lat="46.06407" lon="4.72231">
        <ele>190</ele>
        <time>2018-08-22T09:42:27Z</time>
      </trkpt>
      <trkpt lat="46.06404" lon="4.72223">
        <ele>190</ele>
        <time>2018-08-22T09:42:28Z</time>
      </trkpt>
      <trkpt lat="46.06402" lon="4.72215">
        <ele>190</ele>
        <time>2018-08-22T09:42:29Z</time>
      </trkpt>
      <trkpt lat="46.064" lon="4.72207">
        <ele>190</ele>
        <time>2018-08-22T09:42:30Z</time>
      </trkpt>
      <trkpt lat="46.06397" lon="4.72197">
        <ele>189</ele>
        <time>2018-08-22T09:42:31Z</time>
      </trkpt>
      <trkpt lat="46.06395" lon="4.72187">
        <ele>189</ele>
        <time>2018-08-22T09:42:32Z</time>
      </trkpt>
      <trkpt lat="46.06392" lon="4.72178">
        <ele>189</ele>
        <time>2018-08-22T09:42:33Z</time>
      </trkpt>
      <trkpt lat="46.06389" lon="4.72167">
        <ele>188</ele>
        <time>2018-08-22T09:42:34Z</time>
      </trkpt>
      <trkpt lat="46.06385" lon="4.72156">
        <ele>189</ele>
        <time>2018-08-22T09:42:35Z</time>
      </trkpt>
      <trkpt lat="46.06383" lon="4.72147">
        <ele>189</ele>
        <time>2018-08-22T09:42:36Z</time>
      </trkpt>
      <trkpt lat="46.0638" lon="4.72136">
        <ele>189</ele>
        <time>2018-08-22T09:42:37Z</time>
      </trkpt>
      <trkpt lat="46.06377" lon="4.72126">
        <ele>189</ele>
        <time>2018-08-22T09:42:38Z</time>
      </trkpt>
      <trkpt lat="46.06374" lon="4.72117">
        <ele>189</ele>
        <time>2018-08-22T09:42:39Z</time>
      </trkpt>
      <trkpt lat="46.06371" lon="4.7211">
        <ele>189</ele>
        <time>2018-08-22T09:42:40Z</time>
      </trkpt>
      <trkpt lat="46.06368" lon="4.721">
        <ele>189</ele>
        <time>2018-08-22T09:42:41Z</time>
      </trkpt>
      <trkpt lat="46.06365" lon="4.72091">
        <ele>189</ele>
        <time>2018-08-22T09:42:42Z</time>
      </trkpt>
      <trkpt lat="46.0636" lon="4.72082">
        <ele>189</ele>
        <time>2018-08-22T09:42:43Z</time>
      </trkpt>
      <trkpt lat="46.06359" lon="4.72075">
        <ele>189</ele>
        <time>2018-08-22T09:42:44Z</time>
      </trkpt>
      <trkpt lat="46.06356" lon="4.72065">
        <ele>189</ele>
        <time>2018-08-22T09:42:45Z</time>
      </trkpt>
      <trkpt lat="46.06353" lon="4.72058">
        <ele>189</ele>
        <time>2018-08-22T09:42:46Z</time>
      </trkpt>
      <trkpt lat="46.0635" lon="4.72049">
        <ele>189</ele>
        <time>2018-08-22T09:42:47Z</time>
      </trkpt>
      <trkpt lat="46.06348" lon="4.72041">
        <ele>189</ele>
        <time>2018-08-22T09:42:48Z</time>
      </trkpt>
      <trkpt lat="46.06345" lon="4.72032">
        <ele>189</ele>
        <time>2018-08-22T09:42:49Z</time>
      </trkpt>
      <trkpt lat="46.06343" lon="4.72026">
        <ele>189</ele>
        <time>2018-08-22T09:42:50Z</time>
      </trkpt>
      <trkpt lat="46.0634" lon="4.72021">
        <ele>189</ele>
        <time>2018-08-22T09:42:51Z</time>
      </trkpt>
      <trkpt lat="46.06335" lon="4.72015">
        <ele>189</ele>
        <time>2018-08-22T09:42:52Z</time>
      </trkpt>
      <trkpt lat="46.06334" lon="4.72006">
        <ele>189</ele>
        <time>2018-08-22T09:42:53Z</time>
      </trkpt>
      <trkpt lat="46.06332" lon="4.71999">
        <ele>189</ele>
        <time>2018-08-22T09:42:54Z</time>
      </trkpt>
      <trkpt lat="46.06329" lon="4.71991">
        <ele>189</ele>
        <time>2018-08-22T09:42:55Z</time>
      </trkpt>
      <trkpt lat="46.06327" lon="4.71982">
        <ele>190</ele>
        <time>2018-08-22T09:42:56Z</time>
      </trkpt>
      <trkpt lat="46.06326" lon="4.71977">
        <ele>190</ele>
        <time>2018-08-22T09:42:57Z</time>
      </trkpt>
      <trkpt lat="46.06326" lon="4.7197">
        <ele>190</ele>
        <time>2018-08-22T09:42:58Z</time>
      </trkpt>
      <trkpt lat="46.06324" lon="4.71962">
        <ele>190</ele>
        <time>2018-08-22T09:42:59Z</time>
      </trkpt>
      <trkpt lat="46.06321" lon="4.71955">
        <ele>190</ele>
        <time>2018-08-22T09:43:00Z</time>
      </trkpt>
      <trkpt lat="46.06319" lon="4.71948">
        <ele>190</ele>
        <time>2018-08-22T09:43:01Z</time>
      </trkpt>
      <trkpt lat="46.06317" lon="4.7194">
        <ele>190</ele>
        <time>2018-08-22T09:43:02Z</time>
      </trkpt>
      <trkpt lat="46.06316" lon="4.71933">
        <ele>190</ele>
        <time>2018-08-22T09:43:03Z</time>
      </trkpt>
      <trkpt lat="46.06314" lon="4.71924">
        <ele>190</ele>
        <time>2018-08-22T09:43:04Z</time>
      </trkpt>
      <trkpt lat="46.06312" lon="4.71915">
        <ele>189</ele>
        <time>2018-08-22T09:43:05Z</time>
      </trkpt>
      <trkpt lat="46.06309" lon="4.71906">
        <ele>189</ele>
        <time>2018-08-22T09:43:06Z</time>
      </trkpt>
      <trkpt lat="46.06307" lon="4.71897">
        <ele>189</ele>
        <time>2018-08-22T09:43:07Z</time>
      </trkpt>
      <trkpt lat="46.06304" lon="4.71888">
        <ele>189</ele>
        <time>2018-08-22T09:43:08Z</time>
      </trkpt>
      <trkpt lat="46.06301" lon="4.71877">
        <ele>189</ele>
        <time>2018-08-22T09:43:09Z</time>
      </trkpt>
      <trkpt lat="46.06299" lon="4.71869">
        <ele>189</ele>
        <time>2018-08-22T09:43:10Z</time>
      </trkpt>
      <trkpt lat="46.06299" lon="4.71859">
        <ele>189</ele>
        <time>2018-08-22T09:43:11Z</time>
      </trkpt>
      <trkpt lat="46.06298" lon="4.71851">
        <ele>189</ele>
        <time>2018-08-22T09:43:12Z</time>
      </trkpt>
      <trkpt lat="46.06294" lon="4.71843">
        <ele>189</ele>
        <time>2018-08-22T09:43:13Z</time>
      </trkpt>
      <trkpt lat="46.06293" lon="4.71835">
        <ele>189</ele>
        <time>2018-08-22T09:43:14Z</time>
      </trkpt>
      <trkpt lat="46.06289" lon="4.71827">
        <ele>189</ele>
        <time>2018-08-22T09:43:15Z</time>
      </trkpt>
      <trkpt lat="46.06288" lon="4.71821">
        <ele>189</ele>
        <time>2018-08-22T09:43:16Z</time>
      </trkpt>
      <trkpt lat="46.06286" lon="4.71815">
        <ele>189</ele>
        <time>2018-08-22T09:43:17Z</time>
      </trkpt>
      <trkpt lat="46.06284" lon="4.71803">
        <ele>190</ele>
        <time>2018-08-22T09:43:19Z</time>
      </trkpt>
      <trkpt lat="46.06282" lon="4.71797">
        <ele>190</ele>
        <time>2018-08-22T09:43:20Z</time>
      </trkpt>
      <trkpt lat="46.0628" lon="4.71786">
        <ele>190</ele>
        <time>2018-08-22T09:43:22Z</time>
      </trkpt>
      <trkpt lat="46.0628" lon="4.71782">
        <ele>190</ele>
        <time>2018-08-22T09:43:23Z</time>
      </trkpt>
      <trkpt lat="46.06278" lon="4.71775">
        <ele>190</ele>
        <time>2018-08-22T09:43:24Z</time>
      </trkpt>
      <trkpt lat="46.06277" lon="4.71769">
        <ele>190</ele>
        <time>2018-08-22T09:43:25Z</time>
      </trkpt>
      <trkpt lat="46.06276" lon="4.71763">
        <ele>190</ele>
        <time>2018-08-22T09:43:26Z</time>
      </trkpt>
      <trkpt lat="46.06272" lon="4.71755">
        <ele>190</ele>
        <time>2018-08-22T09:43:27Z</time>
      </trkpt>
      <trkpt lat="46.06271" lon="4.71748">
        <ele>190</ele>
        <time>2018-08-22T09:43:28Z</time>
      </trkpt>
      <trkpt lat="46.06268" lon="4.71741">
        <ele>190</ele>
        <time>2018-08-22T09:43:29Z</time>
      </trkpt>
      <trkpt lat="46.06267" lon="4.71733">
        <ele>190</ele>
        <time>2018-08-22T09:43:30Z</time>
      </trkpt>
      <trkpt lat="46.06264" lon="4.71727">
        <ele>190</ele>
        <time>2018-08-22T09:43:31Z</time>
      </trkpt>
      <trkpt lat="46.06262" lon="4.7172">
        <ele>190</ele>
        <time>2018-08-22T09:43:32Z</time>
      </trkpt>
      <trkpt lat="46.06259" lon="4.71713">
        <ele>190</ele>
        <time>2018-08-22T09:43:33Z</time>
      </trkpt>
      <trkpt lat="46.06256" lon="4.71706">
        <ele>190</ele>
        <time>2018-08-22T09:43:34Z</time>
      </trkpt>
      <trkpt lat="46.06254" lon="4.71699">
        <ele>190</ele>
        <time>2018-08-22T09:43:35Z</time>
      </trkpt>
      <trkpt lat="46.06251" lon="4.71692">
        <ele>190</ele>
        <time>2018-08-22T09:43:36Z</time>
      </trkpt>
      <trkpt lat="46.06248" lon="4.71685">
        <ele>191</ele>
        <time>2018-08-22T09:43:37Z</time>
      </trkpt>
      <trkpt lat="46.06245" lon="4.71678">
        <ele>191</ele>
        <time>2018-08-22T09:43:38Z</time>
      </trkpt>
      <trkpt lat="46.06243" lon="4.71672">
        <ele>191</ele>
        <time>2018-08-22T09:43:39Z</time>
      </trkpt>
      <trkpt lat="46.06241" lon="4.71665">
        <ele>190</ele>
        <time>2018-08-22T09:43:40Z</time>
      </trkpt>
      <trkpt lat="46.06239" lon="4.7166">
        <ele>190</ele>
        <time>2018-08-22T09:43:41Z</time>
      </trkpt>
      <trkpt lat="46.06236" lon="4.71654">
        <ele>191</ele>
        <time>2018-08-22T09:43:42Z</time>
      </trkpt>
      <trkpt lat="46.06233" lon="4.71646">
        <ele>191</ele>
        <time>2018-08-22T09:43:43Z</time>
      </trkpt>
      <trkpt lat="46.0623" lon="4.71642">
        <ele>191</ele>
        <time>2018-08-22T09:43:44Z</time>
      </trkpt>
      <trkpt lat="46.06225" lon="4.71635">
        <ele>191</ele>
        <time>2018-08-22T09:43:45Z</time>
      </trkpt>
      <trkpt lat="46.06222" lon="4.7163">
        <ele>191</ele>
        <time>2018-08-22T09:43:46Z</time>
      </trkpt>
      <trkpt lat="46.06218" lon="4.71624">
        <ele>191</ele>
        <time>2018-08-22T09:43:47Z</time>
      </trkpt>
      <trkpt lat="46.06215" lon="4.71619">
        <ele>191</ele>
        <time>2018-08-22T09:43:48Z</time>
      </trkpt>
      <trkpt lat="46.06209" lon="4.71614">
        <ele>191</ele>
        <time>2018-08-22T09:43:49Z</time>
      </trkpt>
      <trkpt lat="46.06204" lon="4.71607">
        <ele>191</ele>
        <time>2018-08-22T09:43:50Z</time>
      </trkpt>
      <trkpt lat="46.062" lon="4.71602">
        <ele>191</ele>
        <time>2018-08-22T09:43:51Z</time>
      </trkpt>
      <trkpt lat="46.06199" lon="4.71595">
        <ele>191</ele>
        <time>2018-08-22T09:43:52Z</time>
      </trkpt>
      <trkpt lat="46.06195" lon="4.71589">
        <ele>191</ele>
        <time>2018-08-22T09:43:53Z</time>
      </trkpt>
      <trkpt lat="46.06192" lon="4.71584">
        <ele>191</ele>
        <time>2018-08-22T09:43:54Z</time>
      </trkpt>
      <trkpt lat="46.06189" lon="4.71579">
        <ele>191</ele>
        <time>2018-08-22T09:43:55Z</time>
      </trkpt>
      <trkpt lat="46.06186" lon="4.71574">
        <ele>191</ele>
        <time>2018-08-22T09:43:56Z</time>
      </trkpt>
      <trkpt lat="46.06182" lon="4.7157">
        <ele>191</ele>
        <time>2018-08-22T09:43:57Z</time>
      </trkpt>
      <trkpt lat="46.06177" lon="4.71562">
        <ele>191</ele>
        <time>2018-08-22T09:43:59Z</time>
      </trkpt>
      <trkpt lat="46.06173" lon="4.71557">
        <ele>191</ele>
        <time>2018-08-22T09:44:00Z</time>
      </trkpt>
      <trkpt lat="46.06166" lon="4.7155">
        <ele>192</ele>
        <time>2018-08-22T09:44:02Z</time>
      </trkpt>
      <trkpt lat="46.06163" lon="4.71545">
        <ele>192</ele>
        <time>2018-08-22T09:44:03Z</time>
      </trkpt>
      <trkpt lat="46.06157" lon="4.71536">
        <ele>192</ele>
        <time>2018-08-22T09:44:05Z</time>
      </trkpt>
      <trkpt lat="46.06153" lon="4.71531">
        <ele>192</ele>
        <time>2018-08-22T09:44:06Z</time>
      </trkpt>
      <trkpt lat="46.06147" lon="4.71523">
        <ele>192</ele>
        <time>2018-08-22T09:44:08Z</time>
      </trkpt>
      <trkpt lat="46.06144" lon="4.71517">
        <ele>192</ele>
        <time>2018-08-22T09:44:09Z</time>
      </trkpt>
      <trkpt lat="46.06141" lon="4.71512">
        <ele>192</ele>
        <time>2018-08-22T09:44:10Z</time>
      </trkpt>
      <trkpt lat="46.06138" lon="4.71507">
        <ele>192</ele>
        <time>2018-08-22T09:44:11Z</time>
      </trkpt>
      <trkpt lat="46.06135" lon="4.71502">
        <ele>192</ele>
        <time>2018-08-22T09:44:12Z</time>
      </trkpt>
      <trkpt lat="46.06132" lon="4.71496">
        <ele>192</ele>
        <time>2018-08-22T09:44:13Z</time>
      </trkpt>
      <trkpt lat="46.06129" lon="4.71484">
        <ele>192</ele>
        <time>2018-08-22T09:44:15Z</time>
      </trkpt>
      <trkpt lat="46.06127" lon="4.71478">
        <ele>192</ele>
        <time>2018-08-22T09:44:16Z</time>
      </trkpt>
      <trkpt lat="46.06123" lon="4.71467">
        <ele>193</ele>
        <time>2018-08-22T09:44:18Z</time>
      </trkpt>
      <trkpt lat="46.06123" lon="4.71461">
        <ele>193</ele>
        <time>2018-08-22T09:44:19Z</time>
      </trkpt>
      <trkpt lat="46.0612" lon="4.7145">
        <ele>193</ele>
        <time>2018-08-22T09:44:21Z</time>
      </trkpt>
      <trkpt lat="46.06118" lon="4.71444">
        <ele>193</ele>
        <time>2018-08-22T09:44:22Z</time>
      </trkpt>
      <trkpt lat="46.06117" lon="4.71438">
        <ele>193</ele>
        <time>2018-08-22T09:44:23Z</time>
      </trkpt>
      <trkpt lat="46.06116" lon="4.71432">
        <ele>193</ele>
        <time>2018-08-22T09:44:24Z</time>
      </trkpt>
      <trkpt lat="46.06115" lon="4.71426">
        <ele>193</ele>
        <time>2018-08-22T09:44:25Z</time>
      </trkpt>
      <trkpt lat="46.06112" lon="4.71419">
        <ele>193</ele>
        <time>2018-08-22T09:44:26Z</time>
      </trkpt>
      <trkpt lat="46.0611" lon="4.71414">
        <ele>193</ele>
        <time>2018-08-22T09:44:27Z</time>
      </trkpt>
      <trkpt lat="46.06109" lon="4.71406">
        <ele>193</ele>
        <time>2018-08-22T09:44:28Z</time>
      </trkpt>
      <trkpt lat="46.06108" lon="4.714">
        <ele>193</ele>
        <time>2018-08-22T09:44:29Z</time>
      </trkpt>
      <trkpt lat="46.06107" lon="4.71393">
        <ele>193</ele>
        <time>2018-08-22T09:44:30Z</time>
      </trkpt>
      <trkpt lat="46.06104" lon="4.71381">
        <ele>193</ele>
        <time>2018-08-22T09:44:32Z</time>
      </trkpt>
      <trkpt lat="46.06103" lon="4.71375">
        <ele>193</ele>
        <time>2018-08-22T09:44:33Z</time>
      </trkpt>
      <trkpt lat="46.061" lon="4.71363">
        <ele>193</ele>
        <time>2018-08-22T09:44:35Z</time>
      </trkpt>
      <trkpt lat="46.06097" lon="4.71356">
        <ele>193</ele>
        <time>2018-08-22T09:44:36Z</time>
      </trkpt>
      <trkpt lat="46.06095" lon="4.7135">
        <ele>193</ele>
        <time>2018-08-22T09:44:37Z</time>
      </trkpt>
      <trkpt lat="46.06093" lon="4.71344">
        <ele>193</ele>
        <time>2018-08-22T09:44:38Z</time>
      </trkpt>
      <trkpt lat="46.0609" lon="4.71334">
        <ele>193</ele>
        <time>2018-08-22T09:44:40Z</time>
      </trkpt>
      <trkpt lat="46.06089" lon="4.7133">
        <ele>193</ele>
        <time>2018-08-22T09:44:41Z</time>
      </trkpt>
      <trkpt lat="46.06087" lon="4.71324">
        <ele>193</ele>
        <time>2018-08-22T09:44:42Z</time>
      </trkpt>
      <trkpt lat="46.06083" lon="4.7132">
        <ele>193</ele>
        <time>2018-08-22T09:44:43Z</time>
      </trkpt>
      <trkpt lat="46.06084" lon="4.71312">
        <ele>193</ele>
        <time>2018-08-22T09:44:45Z</time>
      </trkpt>
      <trkpt lat="46.06081" lon="4.71306">
        <ele>193</ele>
        <time>2018-08-22T09:44:46Z</time>
      </trkpt>
      <trkpt lat="46.06078" lon="4.71297">
        <ele>193</ele>
        <time>2018-08-22T09:44:48Z</time>
      </trkpt>
      <trkpt lat="46.06076" lon="4.71292">
        <ele>193</ele>
        <time>2018-08-22T09:44:49Z</time>
      </trkpt>
      <trkpt lat="46.06074" lon="4.71286">
        <ele>193</ele>
        <time>2018-08-22T09:44:50Z</time>
      </trkpt>
      <trkpt lat="46.06069" lon="4.71276">
        <ele>193</ele>
        <time>2018-08-22T09:44:51Z</time>
      </trkpt>
      <trkpt lat="46.06066" lon="4.71268">
        <ele>193</ele>
        <time>2018-08-22T09:44:52Z</time>
      </trkpt>
      <trkpt lat="46.06062" lon="4.7126">
        <ele>193</ele>
        <time>2018-08-22T09:44:53Z</time>
      </trkpt>
      <trkpt lat="46.0606" lon="4.71254">
        <ele>193</ele>
        <time>2018-08-22T09:44:54Z</time>
      </trkpt>
      <trkpt lat="46.06057" lon="4.71248">
        <ele>193</ele>
        <time>2018-08-22T09:44:55Z</time>
      </trkpt>
      <trkpt lat="46.06055" lon="4.7124">
        <ele>193</ele>
        <time>2018-08-22T09:44:56Z</time>
      </trkpt>
      <trkpt lat="46.06052" lon="4.71234">
        <ele>193</ele>
        <time>2018-08-22T09:44:57Z</time>
      </trkpt>
      <trkpt lat="46.06049" lon="4.71223">
        <ele>193</ele>
        <time>2018-08-22T09:44:59Z</time>
      </trkpt>
      <trkpt lat="46.06044" lon="4.71216">
        <ele>193</ele>
        <time>2018-08-22T09:45:00Z</time>
      </trkpt>
      <trkpt lat="46.06041" lon="4.71208">
        <ele>193</ele>
        <time>2018-08-22T09:45:01Z</time>
      </trkpt>
      <trkpt lat="46.06039" lon="4.71203">
        <ele>193</ele>
        <time>2018-08-22T09:45:02Z</time>
      </trkpt>
      <trkpt lat="46.06035" lon="4.71192">
        <ele>193</ele>
        <time>2018-08-22T09:45:04Z</time>
      </trkpt>
      <trkpt lat="46.06033" lon="4.71185">
        <ele>193</ele>
        <time>2018-08-22T09:45:05Z</time>
      </trkpt>
      <trkpt lat="46.0603" lon="4.71175">
        <ele>193</ele>
        <time>2018-08-22T09:45:07Z</time>
      </trkpt>
      <trkpt lat="46.06028" lon="4.71169">
        <ele>193</ele>
        <time>2018-08-22T09:45:08Z</time>
      </trkpt>
      <trkpt lat="46.06027" lon="4.71163">
        <ele>193</ele>
        <time>2018-08-22T09:45:09Z</time>
      </trkpt>
      <trkpt lat="46.06025" lon="4.71157">
        <ele>193</ele>
        <time>2018-08-22T09:45:10Z</time>
      </trkpt>
      <trkpt lat="46.06021" lon="4.71145">
        <ele>193</ele>
        <time>2018-08-22T09:45:12Z</time>
      </trkpt>
      <trkpt lat="46.06019" lon="4.71139">
        <ele>193</ele>
        <time>2018-08-22T09:45:13Z</time>
      </trkpt>
      <trkpt lat="46.06015" lon="4.71132">
        <ele>193</ele>
        <time>2018-08-22T09:45:14Z</time>
      </trkpt>
      <trkpt lat="46.06012" lon="4.71124">
        <ele>193</ele>
        <time>2018-08-22T09:45:15Z</time>
      </trkpt>
      <trkpt lat="46.06009" lon="4.71115">
        <ele>193</ele>
        <time>2018-08-22T09:45:16Z</time>
      </trkpt>
      <trkpt lat="46.06006" lon="4.71108">
        <ele>193</ele>
        <time>2018-08-22T09:45:17Z</time>
      </trkpt>
      <trkpt lat="46.05998" lon="4.711">
        <ele>193</ele>
        <time>2018-08-22T09:45:18Z</time>
      </trkpt>
      <trkpt lat="46.05993" lon="4.71093">
        <ele>193</ele>
        <time>2018-08-22T09:45:19Z</time>
      </trkpt>
      <trkpt lat="46.05989" lon="4.71086">
        <ele>193</ele>
        <time>2018-08-22T09:45:20Z</time>
      </trkpt>
      <trkpt lat="46.05984" lon="4.71076">
        <ele>193</ele>
        <time>2018-08-22T09:45:22Z</time>
      </trkpt>
      <trkpt lat="46.0598" lon="4.71068">
        <ele>193</ele>
        <time>2018-08-22T09:45:23Z</time>
      </trkpt>
      <trkpt lat="46.05978" lon="4.71061">
        <ele>193</ele>
        <time>2018-08-22T09:45:24Z</time>
      </trkpt>
      <trkpt lat="46.05978" lon="4.71054">
        <ele>193</ele>
        <time>2018-08-22T09:45:25Z</time>
      </trkpt>
      <trkpt lat="46.05977" lon="4.71043">
        <ele>193</ele>
        <time>2018-08-22T09:45:27Z</time>
      </trkpt>
      <trkpt lat="46.05974" lon="4.71036">
        <ele>192</ele>
        <time>2018-08-22T09:45:28Z</time>
      </trkpt>
      <trkpt lat="46.05972" lon="4.71027">
        <ele>193</ele>
        <time>2018-08-22T09:45:29Z</time>
      </trkpt>
      <trkpt lat="46.05968" lon="4.7102">
        <ele>193</ele>
        <time>2018-08-22T09:45:30Z</time>
      </trkpt>
      <trkpt lat="46.05963" lon="4.71013">
        <ele>193</ele>
        <time>2018-08-22T09:45:31Z</time>
      </trkpt>
      <trkpt lat="46.05959" lon="4.71006">
        <ele>193</ele>
        <time>2018-08-22T09:45:32Z</time>
      </trkpt>
      <trkpt lat="46.05957" lon="4.71">
        <ele>193</ele>
        <time>2018-08-22T09:45:33Z</time>
      </trkpt>
      <trkpt lat="46.05955" lon="4.70993">
        <ele>193</ele>
        <time>2018-08-22T09:45:34Z</time>
      </trkpt>
      <trkpt lat="46.05954" lon="4.70981">
        <ele>193</ele>
        <time>2018-08-22T09:45:36Z</time>
      </trkpt>
      <trkpt lat="46.05952" lon="4.70973">
        <ele>193</ele>
        <time>2018-08-22T09:45:37Z</time>
      </trkpt>
      <trkpt lat="46.05949" lon="4.70966">
        <ele>193</ele>
        <time>2018-08-22T09:45:38Z</time>
      </trkpt>
      <trkpt lat="46.05944" lon="4.70961">
        <ele>193</ele>
        <time>2018-08-22T09:45:39Z</time>
      </trkpt>
      <trkpt lat="46.05941" lon="4.70954">
        <ele>193</ele>
        <time>2018-08-22T09:45:40Z</time>
      </trkpt>
      <trkpt lat="46.0594" lon="4.70947">
        <ele>193</ele>
        <time>2018-08-22T09:45:41Z</time>
      </trkpt>
      <trkpt lat="46.05941" lon="4.7094">
        <ele>193</ele>
        <time>2018-08-22T09:45:42Z</time>
      </trkpt>
      <trkpt lat="46.0594" lon="4.70934">
        <ele>194</ele>
        <time>2018-08-22T09:45:43Z</time>
      </trkpt>
      <trkpt lat="46.05939" lon="4.70926">
        <ele>194</ele>
        <time>2018-08-22T09:45:44Z</time>
      </trkpt>
      <trkpt lat="46.05937" lon="4.70916">
        <ele>194</ele>
        <time>2018-08-22T09:45:45Z</time>
      </trkpt>
      <trkpt lat="46.05935" lon="4.70909">
        <ele>194</ele>
        <time>2018-08-22T09:45:46Z</time>
      </trkpt>
      <trkpt lat="46.05934" lon="4.70901">
        <ele>194</ele>
        <time>2018-08-22T09:45:47Z</time>
      </trkpt>
      <trkpt lat="46.05933" lon="4.70891">
        <ele>194</ele>
        <time>2018-08-22T09:45:48Z</time>
      </trkpt>
      <trkpt lat="46.05934" lon="4.70884">
        <ele>194</ele>
        <time>2018-08-22T09:45:49Z</time>
      </trkpt>
      <trkpt lat="46.05933" lon="4.70877">
        <ele>194</ele>
        <time>2018-08-22T09:45:50Z</time>
      </trkpt>
      <trkpt lat="46.05932" lon="4.7087">
        <ele>194</ele>
        <time>2018-08-22T09:45:51Z</time>
      </trkpt>
      <trkpt lat="46.0593" lon="4.70862">
        <ele>194</ele>
        <time>2018-08-22T09:45:52Z</time>
      </trkpt>
      <trkpt lat="46.0593" lon="4.70856">
        <ele>194</ele>
        <time>2018-08-22T09:45:53Z</time>
      </trkpt>
      <trkpt lat="46.0593" lon="4.70849">
        <ele>194</ele>
        <time>2018-08-22T09:45:54Z</time>
      </trkpt>
      <trkpt lat="46.0593" lon="4.70842">
        <ele>194</ele>
        <time>2018-08-22T09:45:55Z</time>
      </trkpt>
      <trkpt lat="46.05928" lon="4.70834">
        <ele>194</ele>
        <time>2018-08-22T09:45:56Z</time>
      </trkpt>
      <trkpt lat="46.0593" lon="4.70828">
        <ele>195</ele>
        <time>2018-08-22T09:45:57Z</time>
      </trkpt>
      <trkpt lat="46.0593" lon="4.7082">
        <ele>194</ele>
        <time>2018-08-22T09:45:58Z</time>
      </trkpt>
      <trkpt lat="46.05929" lon="4.70812">
        <ele>194</ele>
        <time>2018-08-22T09:45:59Z</time>
      </trkpt>
      <trkpt lat="46.05928" lon="4.70805">
        <ele>194</ele>
        <time>2018-08-22T09:46:00Z</time>
      </trkpt>
      <trkpt lat="46.05926" lon="4.70798">
        <ele>194</ele>
        <time>2018-08-22T09:46:01Z</time>
      </trkpt>
      <trkpt lat="46.05925" lon="4.7079">
        <ele>194</ele>
        <time>2018-08-22T09:46:02Z</time>
      </trkpt>
      <trkpt lat="46.05923" lon="4.70782">
        <ele>194</ele>
        <time>2018-08-22T09:46:03Z</time>
      </trkpt>
      <trkpt lat="46.05921" lon="4.70774">
        <ele>194</ele>
        <time>2018-08-22T09:46:04Z</time>
      </trkpt>
      <trkpt lat="46.05919" lon="4.70767">
        <ele>194</ele>
        <time>2018-08-22T09:46:05Z</time>
      </trkpt>
      <trkpt lat="46.0592" lon="4.7076">
        <ele>194</ele>
        <time>2018-08-22T09:46:06Z</time>
      </trkpt>
      <trkpt lat="46.05917" lon="4.70754">
        <ele>194</ele>
        <time>2018-08-22T09:46:07Z</time>
      </trkpt>
      <trkpt lat="46.05913" lon="4.70743">
        <ele>194</ele>
        <time>2018-08-22T09:46:08Z</time>
      </trkpt>
      <trkpt lat="46.05915" lon="4.70738">
        <ele>194</ele>
        <time>2018-08-22T09:46:09Z</time>
      </trkpt>
      <trkpt lat="46.05913" lon="4.70726">
        <ele>194</ele>
        <time>2018-08-22T09:46:11Z</time>
      </trkpt>
      <trkpt lat="46.05912" lon="4.7072">
        <ele>194</ele>
        <time>2018-08-22T09:46:12Z</time>
      </trkpt>
      <trkpt lat="46.0591" lon="4.70713">
        <ele>194</ele>
        <time>2018-08-22T09:46:13Z</time>
      </trkpt>
      <trkpt lat="46.05908" lon="4.70704">
        <ele>194</ele>
        <time>2018-08-22T09:46:14Z</time>
      </trkpt>
      <trkpt lat="46.05906" lon="4.70697">
        <ele>194</ele>
        <time>2018-08-22T09:46:15Z</time>
      </trkpt>
      <trkpt lat="46.05905" lon="4.70689">
        <ele>194</ele>
        <time>2018-08-22T09:46:16Z</time>
      </trkpt>
      <trkpt lat="46.05905" lon="4.70682">
        <ele>194</ele>
        <time>2018-08-22T09:46:17Z</time>
      </trkpt>
      <trkpt lat="46.05904" lon="4.70673">
        <ele>194</ele>
        <time>2018-08-22T09:46:18Z</time>
      </trkpt>
      <trkpt lat="46.05904" lon="4.70663">
        <ele>194</ele>
        <time>2018-08-22T09:46:19Z</time>
      </trkpt>
      <trkpt lat="46.05904" lon="4.70655">
        <ele>194</ele>
        <time>2018-08-22T09:46:20Z</time>
      </trkpt>
      <trkpt lat="46.05904" lon="4.70647">
        <ele>194</ele>
        <time>2018-08-22T09:46:21Z</time>
      </trkpt>
      <trkpt lat="46.05906" lon="4.70639">
        <ele>194</ele>
        <time>2018-08-22T09:46:22Z</time>
      </trkpt>
      <trkpt lat="46.05907" lon="4.70631">
        <ele>194</ele>
        <time>2018-08-22T09:46:23Z</time>
      </trkpt>
      <trkpt lat="46.05906" lon="4.70623">
        <ele>194</ele>
        <time>2018-08-22T09:46:24Z</time>
      </trkpt>
      <trkpt lat="46.05907" lon="4.70616">
        <ele>194</ele>
        <time>2018-08-22T09:46:25Z</time>
      </trkpt>
      <trkpt lat="46.05908" lon="4.70606">
        <ele>194</ele>
        <time>2018-08-22T09:46:26Z</time>
      </trkpt>
      <trkpt lat="46.05909" lon="4.70596">
        <ele>194</ele>
        <time>2018-08-22T09:46:27Z</time>
      </trkpt>
      <trkpt lat="46.05911" lon="4.70589">
        <ele>195</ele>
        <time>2018-08-22T09:46:28Z</time>
      </trkpt>
      <trkpt lat="46.05912" lon="4.70581">
        <ele>195</ele>
        <time>2018-08-22T09:46:29Z</time>
      </trkpt>
      <trkpt lat="46.05914" lon="4.70574">
        <ele>195</ele>
        <time>2018-08-22T09:46:30Z</time>
      </trkpt>
      <trkpt lat="46.05917" lon="4.70562">
        <ele>195</ele>
        <time>2018-08-22T09:46:32Z</time>
      </trkpt>
      <trkpt lat="46.05919" lon="4.70555">
        <ele>195</ele>
        <time>2018-08-22T09:46:33Z</time>
      </trkpt>
      <trkpt lat="46.05927" lon="4.7055">
        <ele>195</ele>
        <time>2018-08-22T09:46:34Z</time>
      </trkpt>
      <trkpt lat="46.05929" lon="4.70543">
        <ele>195</ele>
        <time>2018-08-22T09:46:35Z</time>
      </trkpt>
      <trkpt lat="46.05933" lon="4.70537">
        <ele>195</ele>
        <time>2018-08-22T09:46:36Z</time>
      </trkpt>
      <trkpt lat="46.05933" lon="4.70528">
        <ele>195</ele>
        <time>2018-08-22T09:46:37Z</time>
      </trkpt>
      <trkpt lat="46.05935" lon="4.70519">
        <ele>195</ele>
        <time>2018-08-22T09:46:38Z</time>
      </trkpt>
      <trkpt lat="46.05937" lon="4.70512">
        <ele>195</ele>
        <time>2018-08-22T09:46:39Z</time>
      </trkpt>
      <trkpt lat="46.05939" lon="4.70503">
        <ele>195</ele>
        <time>2018-08-22T09:46:40Z</time>
      </trkpt>
      <trkpt lat="46.05939" lon="4.70494">
        <ele>195</ele>
        <time>2018-08-22T09:46:41Z</time>
      </trkpt>
      <trkpt lat="46.05938" lon="4.70485">
        <ele>195</ele>
        <time>2018-08-22T09:46:42Z</time>
      </trkpt>
      <trkpt lat="46.05936" lon="4.70477">
        <ele>195</ele>
        <time>2018-08-22T09:46:43Z</time>
      </trkpt>
      <trkpt lat="46.05932" lon="4.70471">
        <ele>195</ele>
        <time>2018-08-22T09:46:44Z</time>
      </trkpt>
      <trkpt lat="46.05928" lon="4.70464">
        <ele>195</ele>
        <time>2018-08-22T09:46:45Z</time>
      </trkpt>
      <trkpt lat="46.05925" lon="4.70458">
        <ele>195</ele>
        <time>2018-08-22T09:46:46Z</time>
      </trkpt>
      <trkpt lat="46.05921" lon="4.70453">
        <ele>195</ele>
        <time>2018-08-22T09:46:47Z</time>
      </trkpt>
      <trkpt lat="46.05917" lon="4.70447">
        <ele>195</ele>
        <time>2018-08-22T09:46:48Z</time>
      </trkpt>
      <trkpt lat="46.05914" lon="4.70441">
        <ele>195</ele>
        <time>2018-08-22T09:46:49Z</time>
      </trkpt>
      <trkpt lat="46.05911" lon="4.70435">
        <ele>195</ele>
        <time>2018-08-22T09:46:50Z</time>
      </trkpt>
      <trkpt lat="46.05906" lon="4.7043">
        <ele>195</ele>
        <time>2018-08-22T09:46:51Z</time>
      </trkpt>
      <trkpt lat="46.05902" lon="4.70423">
        <ele>195</ele>
        <time>2018-08-22T09:46:52Z</time>
      </trkpt>
      <trkpt lat="46.05898" lon="4.70417">
        <ele>196</ele>
        <time>2018-08-22T09:46:53Z</time>
      </trkpt>
      <trkpt lat="46.05894" lon="4.70411">
        <ele>196</ele>
        <time>2018-08-22T09:46:54Z</time>
      </trkpt>
      <trkpt lat="46.05889" lon="4.70405">
        <ele>196</ele>
        <time>2018-08-22T09:46:55Z</time>
      </trkpt>
      <trkpt lat="46.05884" lon="4.70399">
        <ele>196</ele>
        <time>2018-08-22T09:46:56Z</time>
      </trkpt>
      <trkpt lat="46.0588" lon="4.70393">
        <ele>196</ele>
        <time>2018-08-22T09:46:57Z</time>
      </trkpt>
      <trkpt lat="46.05876" lon="4.70387">
        <ele>196</ele>
        <time>2018-08-22T09:46:58Z</time>
      </trkpt>
      <trkpt lat="46.05872" lon="4.70381">
        <ele>196</ele>
        <time>2018-08-22T09:46:59Z</time>
      </trkpt>
      <trkpt lat="46.05865" lon="4.70373">
        <ele>196</ele>
        <time>2018-08-22T09:47:01Z</time>
      </trkpt>
      <trkpt lat="46.05863" lon="4.70369">
        <ele>196</ele>
        <time>2018-08-22T09:47:02Z</time>
      </trkpt>
      <trkpt lat="46.0586" lon="4.70364">
        <ele>196</ele>
        <time>2018-08-22T09:47:03Z</time>
      </trkpt>
      <trkpt lat="46.05858" lon="4.70357">
        <ele>196</ele>
        <time>2018-08-22T09:47:04Z</time>
      </trkpt>
      <trkpt lat="46.05855" lon="4.70352">
        <ele>196</ele>
        <time>2018-08-22T09:47:05Z</time>
      </trkpt>
      <trkpt lat="46.05849" lon="4.70348">
        <ele>196</ele>
        <time>2018-08-22T09:47:06Z</time>
      </trkpt>
      <trkpt lat="46.05845" lon="4.70343">
        <ele>197</ele>
        <time>2018-08-22T09:47:07Z</time>
      </trkpt>
      <trkpt lat="46.05842" lon="4.70336">
        <ele>197</ele>
        <time>2018-08-22T09:47:08Z</time>
      </trkpt>
      <trkpt lat="46.05838" lon="4.70331">
        <ele>197</ele>
        <time>2018-08-22T09:47:09Z</time>
      </trkpt>
      <trkpt lat="46.05833" lon="4.70326">
        <ele>197</ele>
        <time>2018-08-22T09:47:10Z</time>
      </trkpt>
      <trkpt lat="46.05826" lon="4.70318">
        <ele>197</ele>
        <time>2018-08-22T09:47:12Z</time>
      </trkpt>
      <trkpt lat="46.05823" lon="4.70313">
        <ele>197</ele>
        <time>2018-08-22T09:47:13Z</time>
      </trkpt>
      <trkpt lat="46.05816" lon="4.70307">
        <ele>197</ele>
        <time>2018-08-22T09:47:15Z</time>
      </trkpt>
      <trkpt lat="46.05812" lon="4.70302">
        <ele>197</ele>
        <time>2018-08-22T09:47:16Z</time>
      </trkpt>
      <trkpt lat="46.05809" lon="4.70297">
        <ele>197</ele>
        <time>2018-08-22T09:47:17Z</time>
      </trkpt>
      <trkpt lat="46.05806" lon="4.70289">
        <ele>197</ele>
        <time>2018-08-22T09:47:18Z</time>
      </trkpt>
      <trkpt lat="46.05803" lon="4.70283">
        <ele>197</ele>
        <time>2018-08-22T09:47:19Z</time>
      </trkpt>
      <trkpt lat="46.05798" lon="4.70277">
        <ele>197</ele>
        <time>2018-08-22T09:47:20Z</time>
      </trkpt>
      <trkpt lat="46.05796" lon="4.70272">
        <ele>197</ele>
        <time>2018-08-22T09:47:21Z</time>
      </trkpt>
      <trkpt lat="46.05792" lon="4.70267">
        <ele>197</ele>
        <time>2018-08-22T09:47:22Z</time>
      </trkpt>
      <trkpt lat="46.05786" lon="4.7026">
        <ele>198</ele>
        <time>2018-08-22T09:47:23Z</time>
      </trkpt>
      <trkpt lat="46.05782" lon="4.70254">
        <ele>198</ele>
        <time>2018-08-22T09:47:24Z</time>
      </trkpt>
      <trkpt lat="46.05776" lon="4.70252">
        <ele>198</ele>
        <time>2018-08-22T09:47:25Z</time>
      </trkpt>
      <trkpt lat="46.05774" lon="4.70245">
        <ele>198</ele>
        <time>2018-08-22T09:47:26Z</time>
      </trkpt>
      <trkpt lat="46.0577" lon="4.7024">
        <ele>198</ele>
        <time>2018-08-22T09:47:27Z</time>
      </trkpt>
      <trkpt lat="46.05767" lon="4.70235">
        <ele>198</ele>
        <time>2018-08-22T09:47:28Z</time>
      </trkpt>
      <trkpt lat="46.05762" lon="4.70228">
        <ele>198</ele>
        <time>2018-08-22T09:47:29Z</time>
      </trkpt>
      <trkpt lat="46.05757" lon="4.70222">
        <ele>198</ele>
        <time>2018-08-22T09:47:30Z</time>
      </trkpt>
      <trkpt lat="46.05754" lon="4.70217">
        <ele>198</ele>
        <time>2018-08-22T09:47:31Z</time>
      </trkpt>
      <trkpt lat="46.05751" lon="4.70212">
        <ele>198</ele>
        <time>2018-08-22T09:47:32Z</time>
      </trkpt>
      <trkpt lat="46.05748" lon="4.70207">
        <ele>198</ele>
        <time>2018-08-22T09:47:33Z</time>
      </trkpt>
      <trkpt lat="46.05745" lon="4.70201">
        <ele>198</ele>
        <time>2018-08-22T09:47:34Z</time>
      </trkpt>
      <trkpt lat="46.05742" lon="4.70195">
        <ele>198</ele>
        <time>2018-08-22T09:47:35Z</time>
      </trkpt>
      <trkpt lat="46.05739" lon="4.7019">
        <ele>198</ele>
        <time>2018-08-22T09:47:36Z</time>
      </trkpt>
      <trkpt lat="46.05734" lon="4.7018">
        <ele>198</ele>
        <time>2018-08-22T09:47:38Z</time>
      </trkpt>
      <trkpt lat="46.0573" lon="4.70174">
        <ele>198</ele>
        <time>2018-08-22T09:47:39Z</time>
      </trkpt>
      <trkpt lat="46.05725" lon="4.70164">
        <ele>198</ele>
        <time>2018-08-22T09:47:41Z</time>
      </trkpt>
      <trkpt lat="46.05721" lon="4.70157">
        <ele>198</ele>
        <time>2018-08-22T09:47:42Z</time>
      </trkpt>
      <trkpt lat="46.05717" lon="4.70149">
        <ele>198</ele>
        <time>2018-08-22T09:47:43Z</time>
      </trkpt>
      <trkpt lat="46.05715" lon="4.70144">
        <ele>198</ele>
        <time>2018-08-22T09:47:44Z</time>
      </trkpt>
      <trkpt lat="46.05711" lon="4.70139">
        <ele>198</ele>
        <time>2018-08-22T09:47:45Z</time>
      </trkpt>
      <trkpt lat="46.05708" lon="4.70133">
        <ele>198</ele>
        <time>2018-08-22T09:47:46Z</time>
      </trkpt>
      <trkpt lat="46.05705" lon="4.70128">
        <ele>198</ele>
        <time>2018-08-22T09:47:47Z</time>
      </trkpt>
      <trkpt lat="46.05702" lon="4.70122">
        <ele>198</ele>
        <time>2018-08-22T09:47:48Z</time>
      </trkpt>
      <trkpt lat="46.05696" lon="4.70113">
        <ele>198</ele>
        <time>2018-08-22T09:47:50Z</time>
      </trkpt>
      <trkpt lat="46.05692" lon="4.70109">
        <ele>198</ele>
        <time>2018-08-22T09:47:51Z</time>
      </trkpt>
      <trkpt lat="46.05689" lon="4.701">
        <ele>198</ele>
        <time>2018-08-22T09:47:53Z</time>
      </trkpt>
      <trkpt lat="46.05688" lon="4.70096">
        <ele>198</ele>
        <time>2018-08-22T09:47:54Z</time>
      </trkpt>
      <trkpt lat="46.05684" lon="4.70091">
        <ele>199</ele>
        <time>2018-08-22T09:47:55Z</time>
      </trkpt>
      <trkpt lat="46.05678" lon="4.70087">
        <ele>199</ele>
        <time>2018-08-22T09:47:56Z</time>
      </trkpt>
      <trkpt lat="46.05675" lon="4.70082">
        <ele>199</ele>
        <time>2018-08-22T09:47:57Z</time>
      </trkpt>
      <trkpt lat="46.05671" lon="4.70076">
        <ele>199</ele>
        <time>2018-08-22T09:47:58Z</time>
      </trkpt>
      <trkpt lat="46.05668" lon="4.70069">
        <ele>199</ele>
        <time>2018-08-22T09:47:59Z</time>
      </trkpt>
      <trkpt lat="46.05665" lon="4.70063">
        <ele>200</ele>
        <time>2018-08-22T09:48:00Z</time>
      </trkpt>
      <trkpt lat="46.05663" lon="4.70055">
        <ele>200</ele>
        <time>2018-08-22T09:48:01Z</time>
      </trkpt>
      <trkpt lat="46.0566" lon="4.70049">
        <ele>200</ele>
        <time>2018-08-22T09:48:02Z</time>
      </trkpt>
      <trkpt lat="46.05657" lon="4.70043">
        <ele>200</ele>
        <time>2018-08-22T09:48:03Z</time>
      </trkpt>
      <trkpt lat="46.05653" lon="4.70039">
        <ele>200</ele>
        <time>2018-08-22T09:48:04Z</time>
      </trkpt>
      <trkpt lat="46.05651" lon="4.70033">
        <ele>200</ele>
        <time>2018-08-22T09:48:05Z</time>
      </trkpt>
      <trkpt lat="46.05647" lon="4.70027">
        <ele>200</ele>
        <time>2018-08-22T09:48:06Z</time>
      </trkpt>
      <trkpt lat="46.05645" lon="4.70022">
        <ele>200</ele>
        <time>2018-08-22T09:48:07Z</time>
      </trkpt>
      <trkpt lat="46.05642" lon="4.70016">
        <ele>200</ele>
        <time>2018-08-22T09:48:08Z</time>
      </trkpt>
      <trkpt lat="46.05637" lon="4.70008">
        <ele>200</ele>
        <time>2018-08-22T09:48:10Z</time>
      </trkpt>
      <trkpt lat="46.05633" lon="4.70002">
        <ele>200</ele>
        <time>2018-08-22T09:48:11Z</time>
      </trkpt>
      <trkpt lat="46.05631" lon="4.69996">
        <ele>201</ele>
        <time>2018-08-22T09:48:12Z</time>
      </trkpt>
      <trkpt lat="46.05628" lon="4.69989">
        <ele>201</ele>
        <time>2018-08-22T09:48:13Z</time>
      </trkpt>
      <trkpt lat="46.05625" lon="4.69983">
        <ele>201</ele>
        <time>2018-08-22T09:48:14Z</time>
      </trkpt>
      <trkpt lat="46.05622" lon="4.69974">
        <ele>201</ele>
        <time>2018-08-22T09:48:15Z</time>
      </trkpt>
      <trkpt lat="46.05619" lon="4.69968">
        <ele>201</ele>
        <time>2018-08-22T09:48:16Z</time>
      </trkpt>
      <trkpt lat="46.05616" lon="4.69962">
        <ele>201</ele>
        <time>2018-08-22T09:48:17Z</time>
      </trkpt>
      <trkpt lat="46.05614" lon="4.69957">
        <ele>201</ele>
        <time>2018-08-22T09:48:18Z</time>
      </trkpt>
      <trkpt lat="46.05612" lon="4.6995">
        <ele>201</ele>
        <time>2018-08-22T09:48:19Z</time>
      </trkpt>
      <trkpt lat="46.05606" lon="4.69942">
        <ele>201</ele>
        <time>2018-08-22T09:48:21Z</time>
      </trkpt>
      <trkpt lat="46.05607" lon="4.69936">
        <ele>201</ele>
        <time>2018-08-22T09:48:22Z</time>
      </trkpt>
      <trkpt lat="46.05601" lon="4.6993">
        <ele>201</ele>
        <time>2018-08-22T09:48:23Z</time>
      </trkpt>
      <trkpt lat="46.056" lon="4.69926">
        <ele>201</ele>
        <time>2018-08-22T09:48:24Z</time>
      </trkpt>
      <trkpt lat="46.05598" lon="4.6992">
        <ele>201</ele>
        <time>2018-08-22T09:48:25Z</time>
      </trkpt>
      <trkpt lat="46.05594" lon="4.69914">
        <ele>201</ele>
        <time>2018-08-22T09:48:26Z</time>
      </trkpt>
      <trkpt lat="46.0559" lon="4.69909">
        <ele>201</ele>
        <time>2018-08-22T09:48:27Z</time>
      </trkpt>
      <trkpt lat="46.05586" lon="4.69902">
        <ele>201</ele>
        <time>2018-08-22T09:48:28Z</time>
      </trkpt>
      <trkpt lat="46.05583" lon="4.69898">
        <ele>200</ele>
        <time>2018-08-22T09:48:29Z</time>
      </trkpt>
      <trkpt lat="46.05579" lon="4.69892">
        <ele>200</ele>
        <time>2018-08-22T09:48:30Z</time>
      </trkpt>
      <trkpt lat="46.05578" lon="4.69888">
        <ele>200</ele>
        <time>2018-08-22T09:48:31Z</time>
      </trkpt>
      <trkpt lat="46.05573" lon="4.69882">
        <ele>200</ele>
        <time>2018-08-22T09:48:32Z</time>
      </trkpt>
      <trkpt lat="46.0557" lon="4.69875">
        <ele>200</ele>
        <time>2018-08-22T09:48:33Z</time>
      </trkpt>
      <trkpt lat="46.05568" lon="4.6987">
        <ele>200</ele>
        <time>2018-08-22T09:48:34Z</time>
      </trkpt>
      <trkpt lat="46.05563" lon="4.6986">
        <ele>200</ele>
        <time>2018-08-22T09:48:36Z</time>
      </trkpt>
      <trkpt lat="46.0556" lon="4.69858">
        <ele>200</ele>
        <time>2018-08-22T09:48:37Z</time>
      </trkpt>
      <trkpt lat="46.05552" lon="4.6986">
        <ele>200</ele>
        <time>2018-08-22T09:48:39Z</time>
      </trkpt>
      <trkpt lat="46.05548" lon="4.69859">
        <ele>200</ele>
        <time>2018-08-22T09:48:40Z</time>
      </trkpt>
      <trkpt lat="46.05541" lon="4.69865">
        <ele>200</ele>
        <time>2018-08-22T09:48:42Z</time>
      </trkpt>
      <trkpt lat="46.05537" lon="4.69867">
        <ele>200</ele>
        <time>2018-08-22T09:48:43Z</time>
      </trkpt>
      <trkpt lat="46.05532" lon="4.69867">
        <ele>200</ele>
        <time>2018-08-22T09:48:44Z</time>
      </trkpt>
      <trkpt lat="46.05527" lon="4.6987">
        <ele>200</ele>
        <time>2018-08-22T09:48:45Z</time>
      </trkpt>
      <trkpt lat="46.05521" lon="4.69872">
        <ele>199</ele>
        <time>2018-08-22T09:48:46Z</time>
      </trkpt>
      <trkpt lat="46.05518" lon="4.69876">
        <ele>199</ele>
        <time>2018-08-22T09:48:47Z</time>
      </trkpt>
      <trkpt lat="46.05513" lon="4.69879">
        <ele>199</ele>
        <time>2018-08-22T09:48:48Z</time>
      </trkpt>
      <trkpt lat="46.05507" lon="4.69881">
        <ele>199</ele>
        <time>2018-08-22T09:48:49Z</time>
      </trkpt>
      <trkpt lat="46.05503" lon="4.69884">
        <ele>199</ele>
        <time>2018-08-22T09:48:50Z</time>
      </trkpt>
      <trkpt lat="46.05499" lon="4.69886">
        <ele>199</ele>
        <time>2018-08-22T09:48:51Z</time>
      </trkpt>
      <trkpt lat="46.05495" lon="4.69889">
        <ele>199</ele>
        <time>2018-08-22T09:48:52Z</time>
      </trkpt>
      <trkpt lat="46.05489" lon="4.69889">
        <ele>199</ele>
        <time>2018-08-22T09:48:53Z</time>
      </trkpt>
      <trkpt lat="46.05484" lon="4.69889">
        <ele>199</ele>
        <time>2018-08-22T09:48:54Z</time>
      </trkpt>
      <trkpt lat="46.05479" lon="4.69891">
        <ele>199</ele>
        <time>2018-08-22T09:48:55Z</time>
      </trkpt>
      <trkpt lat="46.05474" lon="4.69893">
        <ele>199</ele>
        <time>2018-08-22T09:48:56Z</time>
      </trkpt>
      <trkpt lat="46.05469" lon="4.69898">
        <ele>199</ele>
        <time>2018-08-22T09:48:57Z</time>
      </trkpt>
      <trkpt lat="46.05464" lon="4.69902">
        <ele>199</ele>
        <time>2018-08-22T09:48:58Z</time>
      </trkpt>
      <trkpt lat="46.05459" lon="4.69901">
        <ele>199</ele>
        <time>2018-08-22T09:48:59Z</time>
      </trkpt>
      <trkpt lat="46.05455" lon="4.69906">
        <ele>199</ele>
        <time>2018-08-22T09:49:00Z</time>
      </trkpt>
      <trkpt lat="46.05449" lon="4.69908">
        <ele>199</ele>
        <time>2018-08-22T09:49:01Z</time>
      </trkpt>
      <trkpt lat="46.05443" lon="4.6991">
        <ele>199</ele>
        <time>2018-08-22T09:49:02Z</time>
      </trkpt>
      <trkpt lat="46.05437" lon="4.69912">
        <ele>199</ele>
        <time>2018-08-22T09:49:03Z</time>
      </trkpt>
      <trkpt lat="46.05432" lon="4.69913">
        <ele>199</ele>
        <time>2018-08-22T09:49:04Z</time>
      </trkpt>
      <trkpt lat="46.05426" lon="4.69914">
        <ele>199</ele>
        <time>2018-08-22T09:49:05Z</time>
      </trkpt>
      <trkpt lat="46.05418" lon="4.69914">
        <ele>199</ele>
        <time>2018-08-22T09:49:06Z</time>
      </trkpt>
      <trkpt lat="46.05412" lon="4.69915">
        <ele>199</ele>
        <time>2018-08-22T09:49:07Z</time>
      </trkpt>
      <trkpt lat="46.05406" lon="4.69914">
        <ele>199</ele>
        <time>2018-08-22T09:49:08Z</time>
      </trkpt>
      <trkpt lat="46.05399" lon="4.69913">
        <ele>199</ele>
        <time>2018-08-22T09:49:09Z</time>
      </trkpt>
      <trkpt lat="46.05393" lon="4.69912">
        <ele>199</ele>
        <time>2018-08-22T09:49:10Z</time>
      </trkpt>
      <trkpt lat="46.05388" lon="4.6991">
        <ele>199</ele>
        <time>2018-08-22T09:49:11Z</time>
      </trkpt>
      <trkpt lat="46.05382" lon="4.69908">
        <ele>199</ele>
        <time>2018-08-22T09:49:12Z</time>
      </trkpt>
      <trkpt lat="46.05376" lon="4.69904">
        <ele>199</ele>
        <time>2018-08-22T09:49:13Z</time>
      </trkpt>
      <trkpt lat="46.0537" lon="4.69901">
        <ele>199</ele>
        <time>2018-08-22T09:49:14Z</time>
      </trkpt>
      <trkpt lat="46.05365" lon="4.699">
        <ele>199</ele>
        <time>2018-08-22T09:49:15Z</time>
      </trkpt>
      <trkpt lat="46.05359" lon="4.69898">
        <ele>199</ele>
        <time>2018-08-22T09:49:16Z</time>
      </trkpt>
      <trkpt lat="46.05355" lon="4.69896">
        <ele>199</ele>
        <time>2018-08-22T09:49:17Z</time>
      </trkpt>
      <trkpt lat="46.05349" lon="4.69895">
        <ele>199</ele>
        <time>2018-08-22T09:49:18Z</time>
      </trkpt>
      <trkpt lat="46.05344" lon="4.69894">
        <ele>199</ele>
        <time>2018-08-22T09:49:19Z</time>
      </trkpt>
      <trkpt lat="46.05339" lon="4.69892">
        <ele>199</ele>
        <time>2018-08-22T09:49:20Z</time>
      </trkpt>
      <trkpt lat="46.05334" lon="4.6989">
        <ele>199</ele>
        <time>2018-08-22T09:49:21Z</time>
      </trkpt>
      <trkpt lat="46.05328" lon="4.69893">
        <ele>199</ele>
        <time>2018-08-22T09:49:22Z</time>
      </trkpt>
      <trkpt lat="46.05323" lon="4.69892">
        <ele>199</ele>
        <time>2018-08-22T09:49:23Z</time>
      </trkpt>
      <trkpt lat="46.05318" lon="4.6989">
        <ele>199</ele>
        <time>2018-08-22T09:49:24Z</time>
      </trkpt>
      <trkpt lat="46.05312" lon="4.69889">
        <ele>199</ele>
        <time>2018-08-22T09:49:25Z</time>
      </trkpt>
      <trkpt lat="46.05306" lon="4.69889">
        <ele>199</ele>
        <time>2018-08-22T09:49:26Z</time>
      </trkpt>
      <trkpt lat="46.05303" lon="4.69888">
        <ele>199</ele>
        <time>2018-08-22T09:49:27Z</time>
      </trkpt>
      <trkpt lat="46.05299" lon="4.69885">
        <ele>199</ele>
        <time>2018-08-22T09:49:28Z</time>
      </trkpt>
      <trkpt lat="46.05294" lon="4.69884">
        <ele>199</ele>
        <time>2018-08-22T09:49:29Z</time>
      </trkpt>
      <trkpt lat="46.05286" lon="4.69883">
        <ele>199</ele>
        <time>2018-08-22T09:49:31Z</time>
      </trkpt>
      <trkpt lat="46.05281" lon="4.69883">
        <ele>199</ele>
        <time>2018-08-22T09:49:32Z</time>
      </trkpt>
      <trkpt lat="46.05273" lon="4.6988">
        <ele>199</ele>
        <time>2018-08-22T09:49:34Z</time>
      </trkpt>
      <trkpt lat="46.05268" lon="4.69877">
        <ele>199</ele>
        <time>2018-08-22T09:49:35Z</time>
      </trkpt>
      <trkpt lat="46.0526" lon="4.69876">
        <ele>199</ele>
        <time>2018-08-22T09:49:37Z</time>
      </trkpt>
      <trkpt lat="46.05256" lon="4.69874">
        <ele>199</ele>
        <time>2018-08-22T09:49:38Z</time>
      </trkpt>
      <trkpt lat="46.05252" lon="4.69873">
        <ele>199</ele>
        <time>2018-08-22T09:49:39Z</time>
      </trkpt>
      <trkpt lat="46.05246" lon="4.69871">
        <ele>200</ele>
        <time>2018-08-22T09:49:40Z</time>
      </trkpt>
      <trkpt lat="46.05238" lon="4.6987">
        <ele>201</ele>
        <time>2018-08-22T09:49:42Z</time>
      </trkpt>
      <trkpt lat="46.05232" lon="4.6987">
        <ele>201</ele>
        <time>2018-08-22T09:49:43Z</time>
      </trkpt>
      <trkpt lat="46.05227" lon="4.69868">
        <ele>201</ele>
        <time>2018-08-22T09:49:44Z</time>
      </trkpt>
      <trkpt lat="46.05222" lon="4.69866">
        <ele>201</ele>
        <time>2018-08-22T09:49:45Z</time>
      </trkpt>
      <trkpt lat="46.05217" lon="4.69863">
        <ele>201</ele>
        <time>2018-08-22T09:49:46Z</time>
      </trkpt>
      <trkpt lat="46.05213" lon="4.6986">
        <ele>201</ele>
        <time>2018-08-22T09:49:47Z</time>
      </trkpt>
      <trkpt lat="46.05205" lon="4.69857">
        <ele>201</ele>
        <time>2018-08-22T09:49:49Z</time>
      </trkpt>
      <trkpt lat="46.05202" lon="4.69854">
        <ele>201</ele>
        <time>2018-08-22T09:49:50Z</time>
      </trkpt>
      <trkpt lat="46.05194" lon="4.69851">
        <ele>201</ele>
        <time>2018-08-22T09:49:52Z</time>
      </trkpt>
      <trkpt lat="46.0519" lon="4.6985">
        <ele>202</ele>
        <time>2018-08-22T09:49:53Z</time>
      </trkpt>
      <trkpt lat="46.05181" lon="4.69848">
        <ele>202</ele>
        <time>2018-08-22T09:49:55Z</time>
      </trkpt>
      <trkpt lat="46.05178" lon="4.69847">
        <ele>202</ele>
        <time>2018-08-22T09:49:56Z</time>
      </trkpt>
      <trkpt lat="46.05169" lon="4.69845">
        <ele>202</ele>
        <time>2018-08-22T09:49:58Z</time>
      </trkpt>
      <trkpt lat="46.05162" lon="4.69843">
        <ele>203</ele>
        <time>2018-08-22T09:49:59Z</time>
      </trkpt>
      <trkpt lat="46.05158" lon="4.69841">
        <ele>203</ele>
        <time>2018-08-22T09:50:00Z</time>
      </trkpt>
      <trkpt lat="46.05153" lon="4.6984">
        <ele>203</ele>
        <time>2018-08-22T09:50:01Z</time>
      </trkpt>
      <trkpt lat="46.05149" lon="4.6984">
        <ele>203</ele>
        <time>2018-08-22T09:50:02Z</time>
      </trkpt>
      <trkpt lat="46.05143" lon="4.69838">
        <ele>203</ele>
        <time>2018-08-22T09:50:03Z</time>
      </trkpt>
      <trkpt lat="46.05135" lon="4.69834">
        <ele>204</ele>
        <time>2018-08-22T09:50:05Z</time>
      </trkpt>
      <trkpt lat="46.05134" lon="4.69835">
        <ele>204</ele>
        <time>2018-08-22T09:50:06Z</time>
      </trkpt>
      <trkpt lat="46.05126" lon="4.69839">
        <ele>204</ele>
        <time>2018-08-22T09:50:09Z</time>
      </trkpt>
      <trkpt lat="46.05124" lon="4.69838">
        <ele>204</ele>
        <time>2018-08-22T09:50:10Z</time>
      </trkpt>
      <trkpt lat="46.05123" lon="4.6985">
        <ele>204</ele>
        <time>2018-08-22T09:50:12Z</time>
      </trkpt>
      <trkpt lat="46.05123" lon="4.69853">
        <ele>204</ele>
        <time>2018-08-22T09:50:13Z</time>
      </trkpt>
      <trkpt lat="46.05122" lon="4.6986">
        <ele>204</ele>
        <time>2018-08-22T09:50:14Z</time>
      </trkpt>
      <trkpt lat="46.05121" lon="4.69868">
        <ele>204</ele>
        <time>2018-08-22T09:50:15Z</time>
      </trkpt>
      <trkpt lat="46.0512" lon="4.69874">
        <ele>204</ele>
        <time>2018-08-22T09:50:16Z</time>
      </trkpt>
      <trkpt lat="46.0512" lon="4.69881">
        <ele>204</ele>
        <time>2018-08-22T09:50:17Z</time>
      </trkpt>
      <trkpt lat="46.05118" lon="4.69888">
        <ele>204</ele>
        <time>2018-08-22T09:50:18Z</time>
      </trkpt>
      <trkpt lat="46.05117" lon="4.69898">
        <ele>203</ele>
        <time>2018-08-22T09:50:19Z</time>
      </trkpt>
      <trkpt lat="46.05115" lon="4.69905">
        <ele>204</ele>
        <time>2018-08-22T09:50:20Z</time>
      </trkpt>
      <trkpt lat="46.05114" lon="4.69912">
        <ele>204</ele>
        <time>2018-08-22T09:50:21Z</time>
      </trkpt>
      <trkpt lat="46.05114" lon="4.69919">
        <ele>203</ele>
        <time>2018-08-22T09:50:22Z</time>
      </trkpt>
      <trkpt lat="46.05112" lon="4.69927">
        <ele>203</ele>
        <time>2018-08-22T09:50:23Z</time>
      </trkpt>
      <trkpt lat="46.05111" lon="4.69933">
        <ele>203</ele>
        <time>2018-08-22T09:50:24Z</time>
      </trkpt>
      <trkpt lat="46.0511" lon="4.69941">
        <ele>203</ele>
        <time>2018-08-22T09:50:25Z</time>
      </trkpt>
      <trkpt lat="46.05109" lon="4.69949">
        <ele>203</ele>
        <time>2018-08-22T09:50:26Z</time>
      </trkpt>
      <trkpt lat="46.05107" lon="4.69956">
        <ele>203</ele>
        <time>2018-08-22T09:50:27Z</time>
      </trkpt>
      <trkpt lat="46.05105" lon="4.69961">
        <ele>203</ele>
        <time>2018-08-22T09:50:28Z</time>
      </trkpt>
      <trkpt lat="46.05105" lon="4.69969">
        <ele>203</ele>
        <time>2018-08-22T09:50:29Z</time>
      </trkpt>
      <trkpt lat="46.05102" lon="4.69974">
        <ele>203</ele>
        <time>2018-08-22T09:50:30Z</time>
      </trkpt>
      <trkpt lat="46.05101" lon="4.69982">
        <ele>203</ele>
        <time>2018-08-22T09:50:31Z</time>
      </trkpt>
      <trkpt lat="46.05099" lon="4.6999">
        <ele>204</ele>
        <time>2018-08-22T09:50:32Z</time>
      </trkpt>
      <trkpt lat="46.05098" lon="4.69996">
        <ele>204</ele>
        <time>2018-08-22T09:50:33Z</time>
      </trkpt>
      <trkpt lat="46.05096" lon="4.70008">
        <ele>204</ele>
        <time>2018-08-22T09:50:35Z</time>
      </trkpt>
      <trkpt lat="46.05092" lon="4.70013">
        <ele>204</ele>
        <time>2018-08-22T09:50:36Z</time>
      </trkpt>
      <trkpt lat="46.05089" lon="4.70019">
        <ele>203</ele>
        <time>2018-08-22T09:50:37Z</time>
      </trkpt>
      <trkpt lat="46.05086" lon="4.70025">
        <ele>203</ele>
        <time>2018-08-22T09:50:38Z</time>
      </trkpt>
      <trkpt lat="46.05081" lon="4.70031">
        <ele>204</ele>
        <time>2018-08-22T09:50:39Z</time>
      </trkpt>
      <trkpt lat="46.05076" lon="4.70031">
        <ele>204</ele>
        <time>2018-08-22T09:50:40Z</time>
      </trkpt>
      <trkpt lat="46.05073" lon="4.70037">
        <ele>204</ele>
        <time>2018-08-22T09:50:41Z</time>
      </trkpt>
      <trkpt lat="46.05068" lon="4.70036">
        <ele>204</ele>
        <time>2018-08-22T09:50:42Z</time>
      </trkpt>
      <trkpt lat="46.05059" lon="4.70035">
        <ele>204</ele>
        <time>2018-08-22T09:50:44Z</time>
      </trkpt>
      <trkpt lat="46.05054" lon="4.70031">
        <ele>204</ele>
        <time>2018-08-22T09:50:45Z</time>
      </trkpt>
      <trkpt lat="46.0505" lon="4.70029">
        <ele>204</ele>
        <time>2018-08-22T09:50:46Z</time>
      </trkpt>
      <trkpt lat="46.05044" lon="4.70027">
        <ele>204</ele>
        <time>2018-08-22T09:50:47Z</time>
      </trkpt>
      <trkpt lat="46.05037" lon="4.70021">
        <ele>204</ele>
        <time>2018-08-22T09:50:49Z</time>
      </trkpt>
      <trkpt lat="46.05033" lon="4.70017">
        <ele>204</ele>
        <time>2018-08-22T09:50:50Z</time>
      </trkpt>
      <trkpt lat="46.0503" lon="4.70014">
        <ele>204</ele>
        <time>2018-08-22T09:50:51Z</time>
      </trkpt>
      <trkpt lat="46.05024" lon="4.70009">
        <ele>204</ele>
        <time>2018-08-22T09:50:52Z</time>
      </trkpt>
      <trkpt lat="46.05019" lon="4.69999">
        <ele>205</ele>
        <time>2018-08-22T09:50:54Z</time>
      </trkpt>
      <trkpt lat="46.05015" lon="4.69992">
        <ele>205</ele>
        <time>2018-08-22T09:50:55Z</time>
      </trkpt>
      <trkpt lat="46.05011" lon="4.69986">
        <ele>205</ele>
        <time>2018-08-22T09:50:56Z</time>
      </trkpt>
      <trkpt lat="46.05008" lon="4.69981">
        <ele>205</ele>
        <time>2018-08-22T09:50:57Z</time>
      </trkpt>
      <trkpt lat="46.05005" lon="4.69977">
        <ele>205</ele>
        <time>2018-08-22T09:50:58Z</time>
      </trkpt>
      <trkpt lat="46.05001" lon="4.69973">
        <ele>205</ele>
        <time>2018-08-22T09:50:59Z</time>
      </trkpt>
      <trkpt lat="46.04995" lon="4.69966">
        <ele>205</ele>
        <time>2018-08-22T09:51:01Z</time>
      </trkpt>
      <trkpt lat="46.04992" lon="4.69961">
        <ele>205</ele>
        <time>2018-08-22T09:51:02Z</time>
      </trkpt>
      <trkpt lat="46.04989" lon="4.69955">
        <ele>206</ele>
        <time>2018-08-22T09:51:03Z</time>
      </trkpt>
      <trkpt lat="46.04985" lon="4.6995">
        <ele>206</ele>
        <time>2018-08-22T09:51:04Z</time>
      </trkpt>
      <trkpt lat="46.04982" lon="4.69944">
        <ele>206</ele>
        <time>2018-08-22T09:51:05Z</time>
      </trkpt>
      <trkpt lat="46.04979" lon="4.69941">
        <ele>206</ele>
        <time>2018-08-22T09:51:06Z</time>
      </trkpt>
      <trkpt lat="46.04974" lon="4.69931">
        <ele>206</ele>
        <time>2018-08-22T09:51:08Z</time>
      </trkpt>
      <trkpt lat="46.04971" lon="4.69926">
        <ele>206</ele>
        <time>2018-08-22T09:51:09Z</time>
      </trkpt>
      <trkpt lat="46.04965" lon="4.69918">
        <ele>206</ele>
        <time>2018-08-22T09:51:11Z</time>
      </trkpt>
      <trkpt lat="46.04963" lon="4.69913">
        <ele>206</ele>
        <time>2018-08-22T09:51:12Z</time>
      </trkpt>
      <trkpt lat="46.04956" lon="4.69904">
        <ele>207</ele>
        <time>2018-08-22T09:51:14Z</time>
      </trkpt>
      <trkpt lat="46.04955" lon="4.69899">
        <ele>207</ele>
        <time>2018-08-22T09:51:15Z</time>
      </trkpt>
      <trkpt lat="46.0495" lon="4.69895">
        <ele>207</ele>
        <time>2018-08-22T09:51:16Z</time>
      </trkpt>
      <trkpt lat="46.04946" lon="4.6989">
        <ele>207</ele>
        <time>2018-08-22T09:51:17Z</time>
      </trkpt>
      <trkpt lat="46.04943" lon="4.69886">
        <ele>207</ele>
        <time>2018-08-22T09:51:18Z</time>
      </trkpt>
      <trkpt lat="46.04939" lon="4.69882">
        <ele>207</ele>
        <time>2018-08-22T09:51:19Z</time>
      </trkpt>
      <trkpt lat="46.04934" lon="4.69877">
        <ele>207</ele>
        <time>2018-08-22T09:51:20Z</time>
      </trkpt>
      <trkpt lat="46.04929" lon="4.69873">
        <ele>207</ele>
        <time>2018-08-22T09:51:21Z</time>
      </trkpt>
      <trkpt lat="46.04924" lon="4.69871">
        <ele>207</ele>
        <time>2018-08-22T09:51:22Z</time>
      </trkpt>
      <trkpt lat="46.04921" lon="4.69867">
        <ele>207</ele>
        <time>2018-08-22T09:51:23Z</time>
      </trkpt>
      <trkpt lat="46.04915" lon="4.69864">
        <ele>206</ele>
        <time>2018-08-22T09:51:24Z</time>
      </trkpt>
      <trkpt lat="46.04911" lon="4.69862">
        <ele>206</ele>
        <time>2018-08-22T09:51:25Z</time>
      </trkpt>
      <trkpt lat="46.04906" lon="4.69859">
        <ele>206</ele>
        <time>2018-08-22T09:51:26Z</time>
      </trkpt>
      <trkpt lat="46.04901" lon="4.69856">
        <ele>206</ele>
        <time>2018-08-22T09:51:27Z</time>
      </trkpt>
      <trkpt lat="46.04897" lon="4.69854">
        <ele>206</ele>
        <time>2018-08-22T09:51:28Z</time>
      </trkpt>
      <trkpt lat="46.04893" lon="4.69851">
        <ele>206</ele>
        <time>2018-08-22T09:51:29Z</time>
      </trkpt>
      <trkpt lat="46.04885" lon="4.69845">
        <ele>206</ele>
        <time>2018-08-22T09:51:31Z</time>
      </trkpt>
      <trkpt lat="46.04881" lon="4.69842">
        <ele>206</ele>
        <time>2018-08-22T09:51:32Z</time>
      </trkpt>
      <trkpt lat="46.04876" lon="4.6984">
        <ele>206</ele>
        <time>2018-08-22T09:51:33Z</time>
      </trkpt>
      <trkpt lat="46.04871" lon="4.69839">
        <ele>206</ele>
        <time>2018-08-22T09:51:34Z</time>
      </trkpt>
      <trkpt lat="46.04863" lon="4.69834">
        <ele>206</ele>
        <time>2018-08-22T09:51:36Z</time>
      </trkpt>
      <trkpt lat="46.04859" lon="4.69832">
        <ele>207</ele>
        <time>2018-08-22T09:51:37Z</time>
      </trkpt>
      <trkpt lat="46.04855" lon="4.6983">
        <ele>207</ele>
        <time>2018-08-22T09:51:38Z</time>
      </trkpt>
      <trkpt lat="46.0485" lon="4.69827">
        <ele>207</ele>
        <time>2018-08-22T09:51:39Z</time>
      </trkpt>
      <trkpt lat="46.04842" lon="4.69823">
        <ele>207</ele>
        <time>2018-08-22T09:51:41Z</time>
      </trkpt>
      <trkpt lat="46.04838" lon="4.69821">
        <ele>207</ele>
        <time>2018-08-22T09:51:42Z</time>
      </trkpt>
      <trkpt lat="46.04832" lon="4.69817">
        <ele>207</ele>
        <time>2018-08-22T09:51:43Z</time>
      </trkpt>
      <trkpt lat="46.04828" lon="4.69815">
        <ele>207</ele>
        <time>2018-08-22T09:51:44Z</time>
      </trkpt>
      <trkpt lat="46.04824" lon="4.69813">
        <ele>207</ele>
        <time>2018-08-22T09:51:45Z</time>
      </trkpt>
      <trkpt lat="46.04819" lon="4.69809">
        <ele>207</ele>
        <time>2018-08-22T09:51:46Z</time>
      </trkpt>
      <trkpt lat="46.04811" lon="4.69807">
        <ele>206</ele>
        <time>2018-08-22T09:51:48Z</time>
      </trkpt>
      <trkpt lat="46.04808" lon="4.69806">
        <ele>206</ele>
        <time>2018-08-22T09:51:49Z</time>
      </trkpt>
      <trkpt lat="46.04799" lon="4.69805">
        <ele>206</ele>
        <time>2018-08-22T09:51:51Z</time>
      </trkpt>
      <trkpt lat="46.04796" lon="4.69805">
        <ele>206</ele>
        <time>2018-08-22T09:51:52Z</time>
      </trkpt>
      <trkpt lat="46.04788" lon="4.69808">
        <ele>206</ele>
        <time>2018-08-22T09:51:55Z</time>
      </trkpt>
      <trkpt lat="46.04786" lon="4.6981">
        <ele>206</ele>
        <time>2018-08-22T09:51:56Z</time>
      </trkpt>
      <trkpt lat="46.04779" lon="4.69821">
        <ele>206</ele>
        <time>2018-08-22T09:51:57Z</time>
      </trkpt>
      <trkpt lat="46.04775" lon="4.69825">
        <ele>206</ele>
        <time>2018-08-22T09:51:58Z</time>
      </trkpt>
      <trkpt lat="46.04771" lon="4.69827">
        <ele>206</ele>
        <time>2018-08-22T09:51:59Z</time>
      </trkpt>
      <trkpt lat="46.04763" lon="4.69833">
        <ele>205</ele>
        <time>2018-08-22T09:52:01Z</time>
      </trkpt>
      <trkpt lat="46.04756" lon="4.69834">
        <ele>205</ele>
        <time>2018-08-22T09:52:02Z</time>
      </trkpt>
      <trkpt lat="46.04753" lon="4.69835">
        <ele>205</ele>
        <time>2018-08-22T09:52:03Z</time>
      </trkpt>
      <trkpt lat="46.04747" lon="4.69837">
        <ele>204</ele>
        <time>2018-08-22T09:52:04Z</time>
      </trkpt>
      <trkpt lat="46.04741" lon="4.69837">
        <ele>204</ele>
        <time>2018-08-22T09:52:05Z</time>
      </trkpt>
      <trkpt lat="46.04735" lon="4.69837">
        <ele>204</ele>
        <time>2018-08-22T09:52:06Z</time>
      </trkpt>
      <trkpt lat="46.04729" lon="4.69835">
        <ele>203</ele>
        <time>2018-08-22T09:52:07Z</time>
      </trkpt>
      <trkpt lat="46.04724" lon="4.69837">
        <ele>203</ele>
        <time>2018-08-22T09:52:08Z</time>
      </trkpt>
      <trkpt lat="46.04719" lon="4.69838">
        <ele>203</ele>
        <time>2018-08-22T09:52:09Z</time>
      </trkpt>
      <trkpt lat="46.04715" lon="4.6984">
        <ele>203</ele>
        <time>2018-08-22T09:52:10Z</time>
      </trkpt>
      <trkpt lat="46.04709" lon="4.6984">
        <ele>203</ele>
        <time>2018-08-22T09:52:11Z</time>
      </trkpt>
      <trkpt lat="46.04704" lon="4.6984">
        <ele>202</ele>
        <time>2018-08-22T09:52:12Z</time>
      </trkpt>
      <trkpt lat="46.047" lon="4.6984">
        <ele>202</ele>
        <time>2018-08-22T09:52:13Z</time>
      </trkpt>
      <trkpt lat="46.04695" lon="4.69839">
        <ele>202</ele>
        <time>2018-08-22T09:52:14Z</time>
      </trkpt>
      <trkpt lat="46.0469" lon="4.69838">
        <ele>202</ele>
        <time>2018-08-22T09:52:15Z</time>
      </trkpt>
      <trkpt lat="46.04685" lon="4.69837">
        <ele>202</ele>
        <time>2018-08-22T09:52:16Z</time>
      </trkpt>
      <trkpt lat="46.0468" lon="4.69835">
        <ele>203</ele>
        <time>2018-08-22T09:52:17Z</time>
      </trkpt>
      <trkpt lat="46.04674" lon="4.69833">
        <ele>203</ele>
        <time>2018-08-22T09:52:18Z</time>
      </trkpt>
      <trkpt lat="46.04666" lon="4.69828">
        <ele>203</ele>
        <time>2018-08-22T09:52:20Z</time>
      </trkpt>
      <trkpt lat="46.04662" lon="4.69827">
        <ele>203</ele>
        <time>2018-08-22T09:52:21Z</time>
      </trkpt>
      <trkpt lat="46.04657" lon="4.69825">
        <ele>202</ele>
        <time>2018-08-22T09:52:22Z</time>
      </trkpt>
      <trkpt lat="46.04651" lon="4.69824">
        <ele>202</ele>
        <time>2018-08-22T09:52:23Z</time>
      </trkpt>
      <trkpt lat="46.04646" lon="4.69822">
        <ele>202</ele>
        <time>2018-08-22T09:52:24Z</time>
      </trkpt>
      <trkpt lat="46.04639" lon="4.6982">
        <ele>202</ele>
        <time>2018-08-22T09:52:25Z</time>
      </trkpt>
      <trkpt lat="46.04633" lon="4.69818">
        <ele>202</ele>
        <time>2018-08-22T09:52:26Z</time>
      </trkpt>
      <trkpt lat="46.04627" lon="4.69816">
        <ele>202</ele>
        <time>2018-08-22T09:52:27Z</time>
      </trkpt>
      <trkpt lat="46.04621" lon="4.69814">
        <ele>202</ele>
        <time>2018-08-22T09:52:28Z</time>
      </trkpt>
      <trkpt lat="46.04616" lon="4.69812">
        <ele>201</ele>
        <time>2018-08-22T09:52:29Z</time>
      </trkpt>
      <trkpt lat="46.04611" lon="4.6981">
        <ele>201</ele>
        <time>2018-08-22T09:52:30Z</time>
      </trkpt>
      <trkpt lat="46.04606" lon="4.69809">
        <ele>201</ele>
        <time>2018-08-22T09:52:31Z</time>
      </trkpt>
      <trkpt lat="46.046" lon="4.69806">
        <ele>201</ele>
        <time>2018-08-22T09:52:32Z</time>
      </trkpt>
      <trkpt lat="46.04595" lon="4.69804">
        <ele>201</ele>
        <time>2018-08-22T09:52:33Z</time>
      </trkpt>
      <trkpt lat="46.04589" lon="4.69803">
        <ele>201</ele>
        <time>2018-08-22T09:52:34Z</time>
      </trkpt>
      <trkpt lat="46.04584" lon="4.698">
        <ele>201</ele>
        <time>2018-08-22T09:52:35Z</time>
      </trkpt>
      <trkpt lat="46.04578" lon="4.69798">
        <ele>200</ele>
        <time>2018-08-22T09:52:36Z</time>
      </trkpt>
      <trkpt lat="46.04572" lon="4.69796">
        <ele>200</ele>
        <time>2018-08-22T09:52:37Z</time>
      </trkpt>
      <trkpt lat="46.04567" lon="4.69796">
        <ele>200</ele>
        <time>2018-08-22T09:52:38Z</time>
      </trkpt>
      <trkpt lat="46.04561" lon="4.69796">
        <ele>200</ele>
        <time>2018-08-22T09:52:39Z</time>
      </trkpt>
      <trkpt lat="46.04555" lon="4.69794">
        <ele>199</ele>
        <time>2018-08-22T09:52:40Z</time>
      </trkpt>
      <trkpt lat="46.04548" lon="4.69794">
        <ele>199</ele>
        <time>2018-08-22T09:52:41Z</time>
      </trkpt>
      <trkpt lat="46.04542" lon="4.69792">
        <ele>199</ele>
        <time>2018-08-22T09:52:42Z</time>
      </trkpt>
      <trkpt lat="46.04536" lon="4.6979">
        <ele>199</ele>
        <time>2018-08-22T09:52:43Z</time>
      </trkpt>
      <trkpt lat="46.0453" lon="4.69788">
        <ele>199</ele>
        <time>2018-08-22T09:52:44Z</time>
      </trkpt>
      <trkpt lat="46.04524" lon="4.69787">
        <ele>199</ele>
        <time>2018-08-22T09:52:45Z</time>
      </trkpt>
      <trkpt lat="46.04518" lon="4.69786">
        <ele>199</ele>
        <time>2018-08-22T09:52:46Z</time>
      </trkpt>
      <trkpt lat="46.0451" lon="4.69785">
        <ele>199</ele>
        <time>2018-08-22T09:52:47Z</time>
      </trkpt>
      <trkpt lat="46.04503" lon="4.69784">
        <ele>199</ele>
        <time>2018-08-22T09:52:48Z</time>
      </trkpt>
      <trkpt lat="46.04496" lon="4.69784">
        <ele>197</ele>
        <time>2018-08-22T09:52:49Z</time>
      </trkpt>
      <trkpt lat="46.04489" lon="4.69787">
        <ele>197</ele>
        <time>2018-08-22T09:52:50Z</time>
      </trkpt>
      <trkpt lat="46.04482" lon="4.69792">
        <ele>197</ele>
        <time>2018-08-22T09:52:51Z</time>
      </trkpt>
      <trkpt lat="46.04476" lon="4.69793">
        <ele>197</ele>
        <time>2018-08-22T09:52:52Z</time>
      </trkpt>
      <trkpt lat="46.04471" lon="4.69796">
        <ele>197</ele>
        <time>2018-08-22T09:52:53Z</time>
      </trkpt>
      <trkpt lat="46.04466" lon="4.69798">
        <ele>197</ele>
        <time>2018-08-22T09:52:54Z</time>
      </trkpt>
      <trkpt lat="46.04458" lon="4.69799">
        <ele>196</ele>
        <time>2018-08-22T09:52:55Z</time>
      </trkpt>
      <trkpt lat="46.04451" lon="4.69803">
        <ele>196</ele>
        <time>2018-08-22T09:52:56Z</time>
      </trkpt>
      <trkpt lat="46.04444" lon="4.69805">
        <ele>196</ele>
        <time>2018-08-22T09:52:57Z</time>
      </trkpt>
      <trkpt lat="46.04437" lon="4.69807">
        <ele>196</ele>
        <time>2018-08-22T09:52:58Z</time>
      </trkpt>
      <trkpt lat="46.04428" lon="4.69807">
        <ele>196</ele>
        <time>2018-08-22T09:52:59Z</time>
      </trkpt>
      <trkpt lat="46.04421" lon="4.69809">
        <ele>196</ele>
        <time>2018-08-22T09:53:00Z</time>
      </trkpt>
      <trkpt lat="46.04414" lon="4.69811">
        <ele>194</ele>
        <time>2018-08-22T09:53:01Z</time>
      </trkpt>
      <trkpt lat="46.04407" lon="4.69813">
        <ele>194</ele>
        <time>2018-08-22T09:53:02Z</time>
      </trkpt>
      <trkpt lat="46.04399" lon="4.69815">
        <ele>194</ele>
        <time>2018-08-22T09:53:03Z</time>
      </trkpt>
      <trkpt lat="46.04391" lon="4.69818">
        <ele>194</ele>
        <time>2018-08-22T09:53:04Z</time>
      </trkpt>
      <trkpt lat="46.04382" lon="4.69824">
        <ele>194</ele>
        <time>2018-08-22T09:53:05Z</time>
      </trkpt>
      <trkpt lat="46.04374" lon="4.69826">
        <ele>194</ele>
        <time>2018-08-22T09:53:06Z</time>
      </trkpt>
      <trkpt lat="46.04368" lon="4.69832">
        <ele>193</ele>
        <time>2018-08-22T09:53:07Z</time>
      </trkpt>
      <trkpt lat="46.04361" lon="4.69836">
        <ele>193</ele>
        <time>2018-08-22T09:53:08Z</time>
      </trkpt>
      <trkpt lat="46.04354" lon="4.69841">
        <ele>193</ele>
        <time>2018-08-22T09:53:09Z</time>
      </trkpt>
      <trkpt lat="46.04348" lon="4.69847">
        <ele>193</ele>
        <time>2018-08-22T09:53:10Z</time>
      </trkpt>
      <trkpt lat="46.04342" lon="4.69852">
        <ele>193</ele>
        <time>2018-08-22T09:53:11Z</time>
      </trkpt>
      <trkpt lat="46.04335" lon="4.6986">
        <ele>192</ele>
        <time>2018-08-22T09:53:12Z</time>
      </trkpt>
      <trkpt lat="46.04329" lon="4.6987">
        <ele>191</ele>
        <time>2018-08-22T09:53:13Z</time>
      </trkpt>
      <trkpt lat="46.04325" lon="4.69879">
        <ele>190</ele>
        <time>2018-08-22T09:53:14Z</time>
      </trkpt>
      <trkpt lat="46.04319" lon="4.69889">
        <ele>190</ele>
        <time>2018-08-22T09:53:15Z</time>
      </trkpt>
      <trkpt lat="46.04312" lon="4.69898">
        <ele>190</ele>
        <time>2018-08-22T09:53:16Z</time>
      </trkpt>
      <trkpt lat="46.04306" lon="4.69907">
        <ele>190</ele>
        <time>2018-08-22T09:53:17Z</time>
      </trkpt>
      <trkpt lat="46.04298" lon="4.69911">
        <ele>190</ele>
        <time>2018-08-22T09:53:18Z</time>
      </trkpt>
      <trkpt lat="46.04291" lon="4.69919">
        <ele>189</ele>
        <time>2018-08-22T09:53:19Z</time>
      </trkpt>
      <trkpt lat="46.04286" lon="4.69923">
        <ele>189</ele>
        <time>2018-08-22T09:53:20Z</time>
      </trkpt>
      <trkpt lat="46.04279" lon="4.69929">
        <ele>189</ele>
        <time>2018-08-22T09:53:21Z</time>
      </trkpt>
      <trkpt lat="46.04272" lon="4.69936">
        <ele>189</ele>
        <time>2018-08-22T09:53:22Z</time>
      </trkpt>
      <trkpt lat="46.04266" lon="4.69942">
        <ele>188</ele>
        <time>2018-08-22T09:53:23Z</time>
      </trkpt>
      <trkpt lat="46.04259" lon="4.69948">
        <ele>188</ele>
        <time>2018-08-22T09:53:24Z</time>
      </trkpt>
      <trkpt lat="46.04253" lon="4.69953">
        <ele>188</ele>
        <time>2018-08-22T09:53:25Z</time>
      </trkpt>
      <trkpt lat="46.04247" lon="4.69959">
        <ele>188</ele>
        <time>2018-08-22T09:53:26Z</time>
      </trkpt>
      <trkpt lat="46.0424" lon="4.69963">
        <ele>188</ele>
        <time>2018-08-22T09:53:27Z</time>
      </trkpt>
      <trkpt lat="46.04233" lon="4.69969">
        <ele>188</ele>
        <time>2018-08-22T09:53:28Z</time>
      </trkpt>
      <trkpt lat="46.04228" lon="4.69975">
        <ele>188</ele>
        <time>2018-08-22T09:53:29Z</time>
      </trkpt>
      <trkpt lat="46.04221" lon="4.69979">
        <ele>188</ele>
        <time>2018-08-22T09:53:30Z</time>
      </trkpt>
      <trkpt lat="46.04217" lon="4.69986">
        <ele>188</ele>
        <time>2018-08-22T09:53:31Z</time>
      </trkpt>
      <trkpt lat="46.04211" lon="4.6999">
        <ele>188</ele>
        <time>2018-08-22T09:53:32Z</time>
      </trkpt>
      <trkpt lat="46.04206" lon="4.69997">
        <ele>188</ele>
        <time>2018-08-22T09:53:33Z</time>
      </trkpt>
      <trkpt lat="46.04201" lon="4.70003">
        <ele>188</ele>
        <time>2018-08-22T09:53:34Z</time>
      </trkpt>
      <trkpt lat="46.04197" lon="4.70009">
        <ele>188</ele>
        <time>2018-08-22T09:53:35Z</time>
      </trkpt>
      <trkpt lat="46.04191" lon="4.70011">
        <ele>188</ele>
        <time>2018-08-22T09:53:36Z</time>
      </trkpt>
      <trkpt lat="46.04185" lon="4.70013">
        <ele>189</ele>
        <time>2018-08-22T09:53:37Z</time>
      </trkpt>
      <trkpt lat="46.04177" lon="4.70017">
        <ele>189</ele>
        <time>2018-08-22T09:53:38Z</time>
      </trkpt>
      <trkpt lat="46.04172" lon="4.70024">
        <ele>189</ele>
        <time>2018-08-22T09:53:39Z</time>
      </trkpt>
      <trkpt lat="46.04166" lon="4.70026">
        <ele>191</ele>
        <time>2018-08-22T09:53:40Z</time>
      </trkpt>
      <trkpt lat="46.04159" lon="4.7003">
        <ele>191</ele>
        <time>2018-08-22T09:53:41Z</time>
      </trkpt>
      <trkpt lat="46.04153" lon="4.70033">
        <ele>191</ele>
        <time>2018-08-22T09:53:42Z</time>
      </trkpt>
      <trkpt lat="46.04148" lon="4.70039">
        <ele>191</ele>
        <time>2018-08-22T09:53:43Z</time>
      </trkpt>
      <trkpt lat="46.04144" lon="4.70043">
        <ele>191</ele>
        <time>2018-08-22T09:53:44Z</time>
      </trkpt>
      <trkpt lat="46.04142" lon="4.70044">
        <ele>192</ele>
        <time>2018-08-22T09:53:46Z</time>
      </trkpt>
      <trkpt lat="46.04134" lon="4.7005">
        <ele>192</ele>
        <time>2018-08-22T09:53:47Z</time>
      </trkpt>
      <trkpt lat="46.04131" lon="4.70053">
        <ele>192</ele>
        <time>2018-08-22T09:53:48Z</time>
      </trkpt>
      <trkpt lat="46.04124" lon="4.70053">
        <ele>192</ele>
        <time>2018-08-22T09:53:49Z</time>
      </trkpt>
      <trkpt lat="46.04118" lon="4.70054">
        <ele>192</ele>
        <time>2018-08-22T09:53:50Z</time>
      </trkpt>
      <trkpt lat="46.04111" lon="4.70057">
        <ele>192</ele>
        <time>2018-08-22T09:53:51Z</time>
      </trkpt>
      <trkpt lat="46.04107" lon="4.70061">
        <ele>193</ele>
        <time>2018-08-22T09:53:52Z</time>
      </trkpt>
      <trkpt lat="46.04103" lon="4.70065">
        <ele>193</ele>
        <time>2018-08-22T09:53:53Z</time>
      </trkpt>
      <trkpt lat="46.04094" lon="4.70065">
        <ele>193</ele>
        <time>2018-08-22T09:53:55Z</time>
      </trkpt>
      <trkpt lat="46.0409" lon="4.70066">
        <ele>193</ele>
        <time>2018-08-22T09:53:56Z</time>
      </trkpt>
      <trkpt lat="46.04083" lon="4.70068">
        <ele>194</ele>
        <time>2018-08-22T09:53:57Z</time>
      </trkpt>
      <trkpt lat="46.04077" lon="4.7007">
        <ele>194</ele>
        <time>2018-08-22T09:53:58Z</time>
      </trkpt>
      <trkpt lat="46.04068" lon="4.7007">
        <ele>194</ele>
        <time>2018-08-22T09:54:01Z</time>
      </trkpt>
      <trkpt lat="46.04059" lon="4.70069">
        <ele>194</ele>
        <time>2018-08-22T09:54:02Z</time>
      </trkpt>
      <trkpt lat="46.04052" lon="4.7007">
        <ele>194</ele>
        <time>2018-08-22T09:54:03Z</time>
      </trkpt>
      <trkpt lat="46.04045" lon="4.70073">
        <ele>194</ele>
        <time>2018-08-22T09:54:04Z</time>
      </trkpt>
      <trkpt lat="46.04041" lon="4.70074">
        <ele>195</ele>
        <time>2018-08-22T09:54:05Z</time>
      </trkpt>
      <trkpt lat="46.04033" lon="4.70073">
        <ele>195</ele>
        <time>2018-08-22T09:54:06Z</time>
      </trkpt>
      <trkpt lat="46.04025" lon="4.7007">
        <ele>195</ele>
        <time>2018-08-22T09:54:07Z</time>
      </trkpt>
      <trkpt lat="46.04019" lon="4.70071">
        <ele>195</ele>
        <time>2018-08-22T09:54:08Z</time>
      </trkpt>
      <trkpt lat="46.04014" lon="4.70076">
        <ele>195</ele>
        <time>2018-08-22T09:54:09Z</time>
      </trkpt>
      <trkpt lat="46.04009" lon="4.70075">
        <ele>195</ele>
        <time>2018-08-22T09:54:10Z</time>
      </trkpt>
      <trkpt lat="46.04004" lon="4.70078">
        <ele>196</ele>
        <time>2018-08-22T09:54:11Z</time>
      </trkpt>
      <trkpt lat="46.03997" lon="4.70079">
        <ele>195</ele>
        <time>2018-08-22T09:54:12Z</time>
      </trkpt>
      <trkpt lat="46.03992" lon="4.70079">
        <ele>195</ele>
        <time>2018-08-22T09:54:13Z</time>
      </trkpt>
      <trkpt lat="46.03985" lon="4.70078">
        <ele>195</ele>
        <time>2018-08-22T09:54:14Z</time>
      </trkpt>
      <trkpt lat="46.0398" lon="4.70082">
        <ele>195</ele>
        <time>2018-08-22T09:54:15Z</time>
      </trkpt>
      <trkpt lat="46.03976" lon="4.70085">
        <ele>196</ele>
        <time>2018-08-22T09:54:16Z</time>
      </trkpt>
      <trkpt lat="46.03971" lon="4.70087">
        <ele>196</ele>
        <time>2018-08-22T09:54:17Z</time>
      </trkpt>
      <trkpt lat="46.03966" lon="4.70089">
        <ele>196</ele>
        <time>2018-08-22T09:54:18Z</time>
      </trkpt>
      <trkpt lat="46.03961" lon="4.70089">
        <ele>196</ele>
        <time>2018-08-22T09:54:19Z</time>
      </trkpt>
      <trkpt lat="46.03953" lon="4.70091">
        <ele>196</ele>
        <time>2018-08-22T09:54:20Z</time>
      </trkpt>
      <trkpt lat="46.0395" lon="4.7009">
        <ele>196</ele>
        <time>2018-08-22T09:54:21Z</time>
      </trkpt>
      <trkpt lat="46.03944" lon="4.70092">
        <ele>196</ele>
        <time>2018-08-22T09:54:22Z</time>
      </trkpt>
      <trkpt lat="46.03935" lon="4.70091">
        <ele>195</ele>
        <time>2018-08-22T09:54:23Z</time>
      </trkpt>
      <trkpt lat="46.03928" lon="4.70092">
        <ele>195</ele>
        <time>2018-08-22T09:54:24Z</time>
      </trkpt>
      <trkpt lat="46.03921" lon="4.70097">
        <ele>195</ele>
        <time>2018-08-22T09:54:25Z</time>
      </trkpt>
      <trkpt lat="46.03915" lon="4.70101">
        <ele>194</ele>
        <time>2018-08-22T09:54:26Z</time>
      </trkpt>
      <trkpt lat="46.03907" lon="4.70102">
        <ele>194</ele>
        <time>2018-08-22T09:54:27Z</time>
      </trkpt>
      <trkpt lat="46.03903" lon="4.70107">
        <ele>194</ele>
        <time>2018-08-22T09:54:28Z</time>
      </trkpt>
      <trkpt lat="46.03898" lon="4.70109">
        <ele>194</ele>
        <time>2018-08-22T09:54:29Z</time>
      </trkpt>
      <trkpt lat="46.03894" lon="4.70114">
        <ele>193</ele>
        <time>2018-08-22T09:54:30Z</time>
      </trkpt>
      <trkpt lat="46.03888" lon="4.70115">
        <ele>193</ele>
        <time>2018-08-22T09:54:31Z</time>
      </trkpt>
      <trkpt lat="46.03883" lon="4.70119">
        <ele>193</ele>
        <time>2018-08-22T09:54:32Z</time>
      </trkpt>
      <trkpt lat="46.03876" lon="4.7012">
        <ele>193</ele>
        <time>2018-08-22T09:54:33Z</time>
      </trkpt>
      <trkpt lat="46.03869" lon="4.70118">
        <ele>193</ele>
        <time>2018-08-22T09:54:34Z</time>
      </trkpt>
      <trkpt lat="46.03864" lon="4.7012">
        <ele>193</ele>
        <time>2018-08-22T09:54:35Z</time>
      </trkpt>
      <trkpt lat="46.03857" lon="4.70122">
        <ele>192</ele>
        <time>2018-08-22T09:54:36Z</time>
      </trkpt>
      <trkpt lat="46.03851" lon="4.70123">
        <ele>192</ele>
        <time>2018-08-22T09:54:37Z</time>
      </trkpt>
      <trkpt lat="46.03844" lon="4.70125">
        <ele>192</ele>
        <time>2018-08-22T09:54:38Z</time>
      </trkpt>
      <trkpt lat="46.03838" lon="4.70129">
        <ele>192</ele>
        <time>2018-08-22T09:54:39Z</time>
      </trkpt>
      <trkpt lat="46.0383" lon="4.70131">
        <ele>190</ele>
        <time>2018-08-22T09:54:40Z</time>
      </trkpt>
      <trkpt lat="46.03824" lon="4.70135">
        <ele>190</ele>
        <time>2018-08-22T09:54:41Z</time>
      </trkpt>
      <trkpt lat="46.03819" lon="4.70139">
        <ele>190</ele>
        <time>2018-08-22T09:54:42Z</time>
      </trkpt>
      <trkpt lat="46.03813" lon="4.70142">
        <ele>190</ele>
        <time>2018-08-22T09:54:43Z</time>
      </trkpt>
      <trkpt lat="46.03807" lon="4.70144">
        <ele>190</ele>
        <time>2018-08-22T09:54:44Z</time>
      </trkpt>
      <trkpt lat="46.03801" lon="4.70145">
        <ele>189</ele>
        <time>2018-08-22T09:54:45Z</time>
      </trkpt>
      <trkpt lat="46.03796" lon="4.70146">
        <ele>189</ele>
        <time>2018-08-22T09:54:46Z</time>
      </trkpt>
      <trkpt lat="46.03791" lon="4.70145">
        <ele>189</ele>
        <time>2018-08-22T09:54:47Z</time>
      </trkpt>
      <trkpt lat="46.03787" lon="4.70144">
        <ele>189</ele>
        <time>2018-08-22T09:54:48Z</time>
      </trkpt>
      <trkpt lat="46.03782" lon="4.70147">
        <ele>189</ele>
        <time>2018-08-22T09:54:49Z</time>
      </trkpt>
      <trkpt lat="46.03773" lon="4.70151">
        <ele>189</ele>
        <time>2018-08-22T09:54:51Z</time>
      </trkpt>
      <trkpt lat="46.03771" lon="4.70155">
        <ele>188</ele>
        <time>2018-08-22T09:54:52Z</time>
      </trkpt>
      <trkpt lat="46.03765" lon="4.70158">
        <ele>188</ele>
        <time>2018-08-22T09:54:53Z</time>
      </trkpt>
      <trkpt lat="46.03758" lon="4.7016">
        <ele>188</ele>
        <time>2018-08-22T09:54:54Z</time>
      </trkpt>
      <trkpt lat="46.03754" lon="4.70162">
        <ele>187</ele>
        <time>2018-08-22T09:54:55Z</time>
      </trkpt>
      <trkpt lat="46.03749" lon="4.70163">
        <ele>188</ele>
        <time>2018-08-22T09:54:56Z</time>
      </trkpt>
      <trkpt lat="46.03743" lon="4.70164">
        <ele>188</ele>
        <time>2018-08-22T09:54:57Z</time>
      </trkpt>
      <trkpt lat="46.03738" lon="4.70164">
        <ele>188</ele>
        <time>2018-08-22T09:54:58Z</time>
      </trkpt>
      <trkpt lat="46.03734" lon="4.70168">
        <ele>188</ele>
        <time>2018-08-22T09:54:59Z</time>
      </trkpt>
      <trkpt lat="46.03728" lon="4.7017">
        <ele>188</ele>
        <time>2018-08-22T09:55:00Z</time>
      </trkpt>
      <trkpt lat="46.03723" lon="4.70171">
        <ele>188</ele>
        <time>2018-08-22T09:55:01Z</time>
      </trkpt>
      <trkpt lat="46.0372" lon="4.70177">
        <ele>188</ele>
        <time>2018-08-22T09:55:02Z</time>
      </trkpt>
      <trkpt lat="46.03715" lon="4.70176">
        <ele>188</ele>
        <time>2018-08-22T09:55:03Z</time>
      </trkpt>
      <trkpt lat="46.03711" lon="4.7018">
        <ele>188</ele>
        <time>2018-08-22T09:55:04Z</time>
      </trkpt>
      <trkpt lat="46.03706" lon="4.7018">
        <ele>189</ele>
        <time>2018-08-22T09:55:05Z</time>
      </trkpt>
      <trkpt lat="46.03701" lon="4.70184">
        <ele>189</ele>
        <time>2018-08-22T09:55:06Z</time>
      </trkpt>
      <trkpt lat="46.03692" lon="4.70187">
        <ele>189</ele>
        <time>2018-08-22T09:55:08Z</time>
      </trkpt>
      <trkpt lat="46.03689" lon="4.70189">
        <ele>189</ele>
        <time>2018-08-22T09:55:09Z</time>
      </trkpt>
      <trkpt lat="46.03685" lon="4.70192">
        <ele>189</ele>
        <time>2018-08-22T09:55:10Z</time>
      </trkpt>
      <trkpt lat="46.0368" lon="4.70193">
        <ele>189</ele>
        <time>2018-08-22T09:55:11Z</time>
      </trkpt>
      <trkpt lat="46.03674" lon="4.70194">
        <ele>189</ele>
        <time>2018-08-22T09:55:12Z</time>
      </trkpt>
      <trkpt lat="46.0367" lon="4.70197">
        <ele>189</ele>
        <time>2018-08-22T09:55:13Z</time>
      </trkpt>
      <trkpt lat="46.03663" lon="4.70198">
        <ele>191</ele>
        <time>2018-08-22T09:55:17Z</time>
      </trkpt>
      <trkpt lat="46.03654" lon="4.702">
        <ele>191</ele>
        <time>2018-08-22T09:55:18Z</time>
      </trkpt>
      <trkpt lat="46.03648" lon="4.70204">
        <ele>190</ele>
        <time>2018-08-22T09:55:22Z</time>
      </trkpt>
      <trkpt lat="46.03646" lon="4.70205">
        <ele>190</ele>
        <time>2018-08-22T09:55:23Z</time>
      </trkpt>
      <trkpt lat="46.03638" lon="4.70208">
        <ele>190</ele>
        <time>2018-08-22T09:55:26Z</time>
      </trkpt>
      <trkpt lat="46.03635" lon="4.70209">
        <ele>190</ele>
        <time>2018-08-22T09:55:27Z</time>
      </trkpt>
      <trkpt lat="46.03628" lon="4.70211">
        <ele>190</ele>
        <time>2018-08-22T09:55:29Z</time>
      </trkpt>
      <trkpt lat="46.03617" lon="4.70212">
        <ele>190</ele>
        <time>2018-08-22T09:55:30Z</time>
      </trkpt>
      <trkpt lat="46.0361" lon="4.70213">
        <ele>191</ele>
        <time>2018-08-22T09:55:33Z</time>
      </trkpt>
      <trkpt lat="46.03595" lon="4.70217">
        <ele>191</ele>
        <time>2018-08-22T09:55:34Z</time>
      </trkpt>
      <trkpt lat="46.0359" lon="4.70218">
        <ele>191</ele>
        <time>2018-08-22T09:55:35Z</time>
      </trkpt>
      <trkpt lat="46.03583" lon="4.7022">
        <ele>190</ele>
        <time>2018-08-22T09:55:36Z</time>
      </trkpt>
      <trkpt lat="46.0358" lon="4.70221">
        <ele>190</ele>
        <time>2018-08-22T09:55:37Z</time>
      </trkpt>
      <trkpt lat="46.03572" lon="4.70225">
        <ele>190</ele>
        <time>2018-08-22T09:55:38Z</time>
      </trkpt>
      <trkpt lat="46.03567" lon="4.70226">
        <ele>190</ele>
        <time>2018-08-22T09:55:39Z</time>
      </trkpt>
      <trkpt lat="46.0356" lon="4.70229">
        <ele>190</ele>
        <time>2018-08-22T09:55:40Z</time>
      </trkpt>
      <trkpt lat="46.03557" lon="4.70233">
        <ele>190</ele>
        <time>2018-08-22T09:55:41Z</time>
      </trkpt>
      <trkpt lat="46.03551" lon="4.70234">
        <ele>190</ele>
        <time>2018-08-22T09:55:42Z</time>
      </trkpt>
      <trkpt lat="46.03545" lon="4.70234">
        <ele>189</ele>
        <time>2018-08-22T09:55:43Z</time>
      </trkpt>
      <trkpt lat="46.0354" lon="4.70235">
        <ele>189</ele>
        <time>2018-08-22T09:55:44Z</time>
      </trkpt>
      <trkpt lat="46.03534" lon="4.70236">
        <ele>189</ele>
        <time>2018-08-22T09:55:45Z</time>
      </trkpt>
      <trkpt lat="46.03529" lon="4.70237">
        <ele>189</ele>
        <time>2018-08-22T09:55:46Z</time>
      </trkpt>
      <trkpt lat="46.03524" lon="4.70239">
        <ele>189</ele>
        <time>2018-08-22T09:55:47Z</time>
      </trkpt>
      <trkpt lat="46.0352" lon="4.70242">
        <ele>189</ele>
        <time>2018-08-22T09:55:48Z</time>
      </trkpt>
      <trkpt lat="46.03514" lon="4.70244">
        <ele>188</ele>
        <time>2018-08-22T09:55:49Z</time>
      </trkpt>
      <trkpt lat="46.03509" lon="4.70248">
        <ele>188</ele>
        <time>2018-08-22T09:55:50Z</time>
      </trkpt>
      <trkpt lat="46.03504" lon="4.7025">
        <ele>187</ele>
        <time>2018-08-22T09:55:51Z</time>
      </trkpt>
      <trkpt lat="46.03499" lon="4.70253">
        <ele>187</ele>
        <time>2018-08-22T09:55:52Z</time>
      </trkpt>
      <trkpt lat="46.03494" lon="4.70255">
        <ele>187</ele>
        <time>2018-08-22T09:55:53Z</time>
      </trkpt>
      <trkpt lat="46.03491" lon="4.70261">
        <ele>187</ele>
        <time>2018-08-22T09:55:54Z</time>
      </trkpt>
      <trkpt lat="46.03486" lon="4.70262">
        <ele>188</ele>
        <time>2018-08-22T09:55:55Z</time>
      </trkpt>
      <trkpt lat="46.03482" lon="4.70263">
        <ele>188</ele>
        <time>2018-08-22T09:55:56Z</time>
      </trkpt>
      <trkpt lat="46.03477" lon="4.70265">
        <ele>188</ele>
        <time>2018-08-22T09:55:57Z</time>
      </trkpt>
      <trkpt lat="46.03469" lon="4.70265">
        <ele>188</ele>
        <time>2018-08-22T09:55:58Z</time>
      </trkpt>
      <trkpt lat="46.03462" lon="4.70266">
        <ele>188</ele>
        <time>2018-08-22T09:56:00Z</time>
      </trkpt>
      <trkpt lat="46.03457" lon="4.7027">
        <ele>188</ele>
        <time>2018-08-22T09:56:01Z</time>
      </trkpt>
      <trkpt lat="46.03451" lon="4.70271">
        <ele>188</ele>
        <time>2018-08-22T09:56:02Z</time>
      </trkpt>
      <trkpt lat="46.03447" lon="4.70275">
        <ele>188</ele>
        <time>2018-08-22T09:56:03Z</time>
      </trkpt>
      <trkpt lat="46.03443" lon="4.70279">
        <ele>189</ele>
        <time>2018-08-22T09:56:04Z</time>
      </trkpt>
      <trkpt lat="46.03437" lon="4.70282">
        <ele>189</ele>
        <time>2018-08-22T09:56:05Z</time>
      </trkpt>
      <trkpt lat="46.03431" lon="4.70281">
        <ele>189</ele>
        <time>2018-08-22T09:56:06Z</time>
      </trkpt>
      <trkpt lat="46.03425" lon="4.70283">
        <ele>189</ele>
        <time>2018-08-22T09:56:07Z</time>
      </trkpt>
      <trkpt lat="46.03422" lon="4.70285">
        <ele>189</ele>
        <time>2018-08-22T09:56:08Z</time>
      </trkpt>
      <trkpt lat="46.03414" lon="4.70287">
        <ele>191</ele>
        <time>2018-08-22T09:56:09Z</time>
      </trkpt>
      <trkpt lat="46.0341" lon="4.70289">
        <ele>191</ele>
        <time>2018-08-22T09:56:10Z</time>
      </trkpt>
      <trkpt lat="46.03404" lon="4.7029">
        <ele>191</ele>
        <time>2018-08-22T09:56:11Z</time>
      </trkpt>
      <trkpt lat="46.03401" lon="4.70292">
        <ele>191</ele>
        <time>2018-08-22T09:56:12Z</time>
      </trkpt>
      <trkpt lat="46.03396" lon="4.70295">
        <ele>191</ele>
        <time>2018-08-22T09:56:13Z</time>
      </trkpt>
      <trkpt lat="46.0339" lon="4.70297">
        <ele>191</ele>
        <time>2018-08-22T09:56:14Z</time>
      </trkpt>
      <trkpt lat="46.03387" lon="4.70299">
        <ele>191</ele>
        <time>2018-08-22T09:56:15Z</time>
      </trkpt>
      <trkpt lat="46.0338" lon="4.703">
        <ele>191</ele>
        <time>2018-08-22T09:56:16Z</time>
      </trkpt>
      <trkpt lat="46.03375" lon="4.703">
        <ele>191</ele>
        <time>2018-08-22T09:56:17Z</time>
      </trkpt>
      <trkpt lat="46.03369" lon="4.70302">
        <ele>191</ele>
        <time>2018-08-22T09:56:18Z</time>
      </trkpt>
      <trkpt lat="46.03365" lon="4.70303">
        <ele>191</ele>
        <time>2018-08-22T09:56:19Z</time>
      </trkpt>
      <trkpt lat="46.03359" lon="4.70306">
        <ele>191</ele>
        <time>2018-08-22T09:56:20Z</time>
      </trkpt>
      <trkpt lat="46.03356" lon="4.70309">
        <ele>191</ele>
        <time>2018-08-22T09:56:21Z</time>
      </trkpt>
      <trkpt lat="46.03352" lon="4.70313">
        <ele>191</ele>
        <time>2018-08-22T09:56:22Z</time>
      </trkpt>
      <trkpt lat="46.03347" lon="4.70316">
        <ele>191</ele>
        <time>2018-08-22T09:56:23Z</time>
      </trkpt>
      <trkpt lat="46.03338" lon="4.7032">
        <ele>191</ele>
        <time>2018-08-22T09:56:25Z</time>
      </trkpt>
      <trkpt lat="46.03335" lon="4.70323">
        <ele>191</ele>
        <time>2018-08-22T09:56:26Z</time>
      </trkpt>
      <trkpt lat="46.03327" lon="4.70325">
        <ele>192</ele>
        <time>2018-08-22T09:56:28Z</time>
      </trkpt>
      <trkpt lat="46.03322" lon="4.70328">
        <ele>192</ele>
        <time>2018-08-22T09:56:29Z</time>
      </trkpt>
      <trkpt lat="46.03314" lon="4.70329">
        <ele>192</ele>
        <time>2018-08-22T09:56:31Z</time>
      </trkpt>
      <trkpt lat="46.0331" lon="4.70332">
        <ele>192</ele>
        <time>2018-08-22T09:56:32Z</time>
      </trkpt>
      <trkpt lat="46.03304" lon="4.70338">
        <ele>191</ele>
        <time>2018-08-22T09:56:34Z</time>
      </trkpt>
      <trkpt lat="46.033" lon="4.7034">
        <ele>191</ele>
        <time>2018-08-22T09:56:35Z</time>
      </trkpt>
      <trkpt lat="46.03291" lon="4.7034">
        <ele>191</ele>
        <time>2018-08-22T09:56:37Z</time>
      </trkpt>
      <trkpt lat="46.03285" lon="4.7034">
        <ele>191</ele>
        <time>2018-08-22T09:56:38Z</time>
      </trkpt>
      <trkpt lat="46.0328" lon="4.7034">
        <ele>191</ele>
        <time>2018-08-22T09:56:39Z</time>
      </trkpt>
      <trkpt lat="46.03275" lon="4.70342">
        <ele>191</ele>
        <time>2018-08-22T09:56:40Z</time>
      </trkpt>
      <trkpt lat="46.03267" lon="4.70344">
        <ele>191</ele>
        <time>2018-08-22T09:56:42Z</time>
      </trkpt>
      <trkpt lat="46.03261" lon="4.7035">
        <ele>191</ele>
        <time>2018-08-22T09:56:43Z</time>
      </trkpt>
      <trkpt lat="46.03257" lon="4.70354">
        <ele>191</ele>
        <time>2018-08-22T09:56:44Z</time>
      </trkpt>
      <trkpt lat="46.03253" lon="4.70356">
        <ele>191</ele>
        <time>2018-08-22T09:56:45Z</time>
      </trkpt>
      <trkpt lat="46.03248" lon="4.70358">
        <ele>192</ele>
        <time>2018-08-22T09:56:46Z</time>
      </trkpt>
      <trkpt lat="46.03244" lon="4.70361">
        <ele>192</ele>
        <time>2018-08-22T09:56:47Z</time>
      </trkpt>
      <trkpt lat="46.03237" lon="4.70364">
        <ele>192</ele>
        <time>2018-08-22T09:56:49Z</time>
      </trkpt>
      <trkpt lat="46.03235" lon="4.70365">
        <ele>192</ele>
        <time>2018-08-22T09:56:50Z</time>
      </trkpt>
      <trkpt lat="46.03229" lon="4.70369">
        <ele>192</ele>
        <time>2018-08-22T09:56:51Z</time>
      </trkpt>
      <trkpt lat="46.03225" lon="4.70371">
        <ele>192</ele>
        <time>2018-08-22T09:56:52Z</time>
      </trkpt>
      <trkpt lat="46.03218" lon="4.70375">
        <ele>192</ele>
        <time>2018-08-22T09:56:54Z</time>
      </trkpt>
      <trkpt lat="46.03214" lon="4.70377">
        <ele>192</ele>
        <time>2018-08-22T09:56:55Z</time>
      </trkpt>
      <trkpt lat="46.03206" lon="4.70381">
        <ele>192</ele>
        <time>2018-08-22T09:56:57Z</time>
      </trkpt>
      <trkpt lat="46.03202" lon="4.70382">
        <ele>192</ele>
        <time>2018-08-22T09:56:58Z</time>
      </trkpt>
      <trkpt lat="46.03195" lon="4.70388">
        <ele>192</ele>
        <time>2018-08-22T09:57:00Z</time>
      </trkpt>
      <trkpt lat="46.0319" lon="4.70389">
        <ele>192</ele>
        <time>2018-08-22T09:57:01Z</time>
      </trkpt>
      <trkpt lat="46.03183" lon="4.70393">
        <ele>192</ele>
        <time>2018-08-22T09:57:03Z</time>
      </trkpt>
      <trkpt lat="46.03178" lon="4.70395">
        <ele>192</ele>
        <time>2018-08-22T09:57:04Z</time>
      </trkpt>
      <trkpt lat="46.03174" lon="4.70398">
        <ele>192</ele>
        <time>2018-08-22T09:57:05Z</time>
      </trkpt>
      <trkpt lat="46.03169" lon="4.70402">
        <ele>192</ele>
        <time>2018-08-22T09:57:06Z</time>
      </trkpt>
      <trkpt lat="46.03164" lon="4.70403">
        <ele>192</ele>
        <time>2018-08-22T09:57:07Z</time>
      </trkpt>
      <trkpt lat="46.0316" lon="4.70405">
        <ele>192</ele>
        <time>2018-08-22T09:57:08Z</time>
      </trkpt>
      <trkpt lat="46.03155" lon="4.70407">
        <ele>192</ele>
        <time>2018-08-22T09:57:09Z</time>
      </trkpt>
      <trkpt lat="46.03151" lon="4.70409">
        <ele>192</ele>
        <time>2018-08-22T09:57:10Z</time>
      </trkpt>
      <trkpt lat="46.03142" lon="4.70411">
        <ele>192</ele>
        <time>2018-08-22T09:57:12Z</time>
      </trkpt>
      <trkpt lat="46.0314" lon="4.70417">
        <ele>192</ele>
        <time>2018-08-22T09:57:13Z</time>
      </trkpt>
      <trkpt lat="46.03136" lon="4.70419">
        <ele>192</ele>
        <time>2018-08-22T09:57:14Z</time>
      </trkpt>
      <trkpt lat="46.03131" lon="4.7042">
        <ele>192</ele>
        <time>2018-08-22T09:57:15Z</time>
      </trkpt>
      <trkpt lat="46.03126" lon="4.70422">
        <ele>192</ele>
        <time>2018-08-22T09:57:16Z</time>
      </trkpt>
      <trkpt lat="46.03122" lon="4.70427">
        <ele>192</ele>
        <time>2018-08-22T09:57:17Z</time>
      </trkpt>
      <trkpt lat="46.03117" lon="4.70426">
        <ele>192</ele>
        <time>2018-08-22T09:57:18Z</time>
      </trkpt>
      <trkpt lat="46.03112" lon="4.70429">
        <ele>192</ele>
        <time>2018-08-22T09:57:19Z</time>
      </trkpt>
      <trkpt lat="46.03106" lon="4.70434">
        <ele>192</ele>
        <time>2018-08-22T09:57:20Z</time>
      </trkpt>
      <trkpt lat="46.03101" lon="4.70436">
        <ele>192</ele>
        <time>2018-08-22T09:57:21Z</time>
      </trkpt>
      <trkpt lat="46.03095" lon="4.70439">
        <ele>192</ele>
        <time>2018-08-22T09:57:22Z</time>
      </trkpt>
      <trkpt lat="46.0309" lon="4.70441">
        <ele>192</ele>
        <time>2018-08-22T09:57:23Z</time>
      </trkpt>
      <trkpt lat="46.03086" lon="4.70445">
        <ele>192</ele>
        <time>2018-08-22T09:57:24Z</time>
      </trkpt>
      <trkpt lat="46.03081" lon="4.70448">
        <ele>191</ele>
        <time>2018-08-22T09:57:25Z</time>
      </trkpt>
      <trkpt lat="46.03076" lon="4.70452">
        <ele>191</ele>
        <time>2018-08-22T09:57:26Z</time>
      </trkpt>
      <trkpt lat="46.0307" lon="4.70454">
        <ele>191</ele>
        <time>2018-08-22T09:57:27Z</time>
      </trkpt>
      <trkpt lat="46.03064" lon="4.70458">
        <ele>191</ele>
        <time>2018-08-22T09:57:28Z</time>
      </trkpt>
      <trkpt lat="46.0306" lon="4.70462">
        <ele>191</ele>
        <time>2018-08-22T09:57:29Z</time>
      </trkpt>
      <trkpt lat="46.03055" lon="4.70464">
        <ele>191</ele>
        <time>2018-08-22T09:57:30Z</time>
      </trkpt>
      <trkpt lat="46.03051" lon="4.7047">
        <ele>191</ele>
        <time>2018-08-22T09:57:31Z</time>
      </trkpt>
      <trkpt lat="46.03047" lon="4.70473">
        <ele>191</ele>
        <time>2018-08-22T09:57:32Z</time>
      </trkpt>
      <trkpt lat="46.03042" lon="4.70476">
        <ele>191</ele>
        <time>2018-08-22T09:57:33Z</time>
      </trkpt>
      <trkpt lat="46.03038" lon="4.7048">
        <ele>191</ele>
        <time>2018-08-22T09:57:34Z</time>
      </trkpt>
      <trkpt lat="46.03032" lon="4.70483">
        <ele>191</ele>
        <time>2018-08-22T09:57:35Z</time>
      </trkpt>
      <trkpt lat="46.03027" lon="4.70486">
        <ele>191</ele>
        <time>2018-08-22T09:57:36Z</time>
      </trkpt>
      <trkpt lat="46.03023" lon="4.70492">
        <ele>191</ele>
        <time>2018-08-22T09:57:37Z</time>
      </trkpt>
      <trkpt lat="46.03018" lon="4.70495">
        <ele>191</ele>
        <time>2018-08-22T09:57:38Z</time>
      </trkpt>
      <trkpt lat="46.03013" lon="4.70498">
        <ele>191</ele>
        <time>2018-08-22T09:57:39Z</time>
      </trkpt>
      <trkpt lat="46.03009" lon="4.70503">
        <ele>191</ele>
        <time>2018-08-22T09:57:40Z</time>
      </trkpt>
      <trkpt lat="46.03004" lon="4.70507">
        <ele>191</ele>
        <time>2018-08-22T09:57:41Z</time>
      </trkpt>
      <trkpt lat="46.02999" lon="4.7051">
        <ele>191</ele>
        <time>2018-08-22T09:57:42Z</time>
      </trkpt>
      <trkpt lat="46.02994" lon="4.70516">
        <ele>191</ele>
        <time>2018-08-22T09:57:43Z</time>
      </trkpt>
      <trkpt lat="46.02989" lon="4.70521">
        <ele>191</ele>
        <time>2018-08-22T09:57:44Z</time>
      </trkpt>
      <trkpt lat="46.02985" lon="4.70526">
        <ele>191</ele>
        <time>2018-08-22T09:57:45Z</time>
      </trkpt>
      <trkpt lat="46.0298" lon="4.70531">
        <ele>191</ele>
        <time>2018-08-22T09:57:46Z</time>
      </trkpt>
      <trkpt lat="46.02975" lon="4.70536">
        <ele>191</ele>
        <time>2018-08-22T09:57:47Z</time>
      </trkpt>
      <trkpt lat="46.0297" lon="4.70541">
        <ele>191</ele>
        <time>2018-08-22T09:57:48Z</time>
      </trkpt>
      <trkpt lat="46.02965" lon="4.70544">
        <ele>191</ele>
        <time>2018-08-22T09:57:49Z</time>
      </trkpt>
      <trkpt lat="46.02961" lon="4.70549">
        <ele>191</ele>
        <time>2018-08-22T09:57:50Z</time>
      </trkpt>
      <trkpt lat="46.02956" lon="4.70554">
        <ele>191</ele>
        <time>2018-08-22T09:57:51Z</time>
      </trkpt>
      <trkpt lat="46.02952" lon="4.70559">
        <ele>191</ele>
        <time>2018-08-22T09:57:52Z</time>
      </trkpt>
      <trkpt lat="46.02947" lon="4.70563">
        <ele>191</ele>
        <time>2018-08-22T09:57:53Z</time>
      </trkpt>
      <trkpt lat="46.02944" lon="4.7057">
        <ele>191</ele>
        <time>2018-08-22T09:57:54Z</time>
      </trkpt>
      <trkpt lat="46.02941" lon="4.70576">
        <ele>191</ele>
        <time>2018-08-22T09:57:55Z</time>
      </trkpt>
      <trkpt lat="46.02937" lon="4.70582">
        <ele>191</ele>
        <time>2018-08-22T09:57:56Z</time>
      </trkpt>
      <trkpt lat="46.02936" lon="4.70589">
        <ele>192</ele>
        <time>2018-08-22T09:57:57Z</time>
      </trkpt>
      <trkpt lat="46.02935" lon="4.70595">
        <ele>192</ele>
        <time>2018-08-22T09:57:58Z</time>
      </trkpt>
      <trkpt lat="46.02933" lon="4.70601">
        <ele>192</ele>
        <time>2018-08-22T09:57:59Z</time>
      </trkpt>
      <trkpt lat="46.02929" lon="4.70612">
        <ele>192</ele>
        <time>2018-08-22T09:58:01Z</time>
      </trkpt>
      <trkpt lat="46.02927" lon="4.70617">
        <ele>192</ele>
        <time>2018-08-22T09:58:02Z</time>
      </trkpt>
      <trkpt lat="46.02924" lon="4.70625">
        <ele>192</ele>
        <time>2018-08-22T09:58:03Z</time>
      </trkpt>
      <trkpt lat="46.02923" lon="4.70633">
        <ele>192</ele>
        <time>2018-08-22T09:58:04Z</time>
      </trkpt>
      <trkpt lat="46.02921" lon="4.7064">
        <ele>192</ele>
        <time>2018-08-22T09:58:05Z</time>
      </trkpt>
      <trkpt lat="46.02921" lon="4.70648">
        <ele>191</ele>
        <time>2018-08-22T09:58:06Z</time>
      </trkpt>
      <trkpt lat="46.02917" lon="4.70654">
        <ele>191</ele>
        <time>2018-08-22T09:58:07Z</time>
      </trkpt>
      <trkpt lat="46.02912" lon="4.70658">
        <ele>191</ele>
        <time>2018-08-22T09:58:08Z</time>
      </trkpt>
      <trkpt lat="46.02907" lon="4.70659">
        <ele>191</ele>
        <time>2018-08-22T09:58:09Z</time>
      </trkpt>
      <trkpt lat="46.02901" lon="4.70659">
        <ele>191</ele>
        <time>2018-08-22T09:58:10Z</time>
      </trkpt>
      <trkpt lat="46.02895" lon="4.70658">
        <ele>190</ele>
        <time>2018-08-22T09:58:11Z</time>
      </trkpt>
      <trkpt lat="46.0289" lon="4.70657">
        <ele>190</ele>
        <time>2018-08-22T09:58:12Z</time>
      </trkpt>
      <trkpt lat="46.02884" lon="4.70658">
        <ele>190</ele>
        <time>2018-08-22T09:58:13Z</time>
      </trkpt>
      <trkpt lat="46.02879" lon="4.70659">
        <ele>190</ele>
        <time>2018-08-22T09:58:14Z</time>
      </trkpt>
      <trkpt lat="46.02874" lon="4.70658">
        <ele>190</ele>
        <time>2018-08-22T09:58:15Z</time>
      </trkpt>
      <trkpt lat="46.02868" lon="4.70658">
        <ele>190</ele>
        <time>2018-08-22T09:58:16Z</time>
      </trkpt>
      <trkpt lat="46.02864" lon="4.70661">
        <ele>190</ele>
        <time>2018-08-22T09:58:17Z</time>
      </trkpt>
      <trkpt lat="46.02856" lon="4.70662">
        <ele>190</ele>
        <time>2018-08-22T09:58:18Z</time>
      </trkpt>
      <trkpt lat="46.0285" lon="4.70663">
        <ele>190</ele>
        <time>2018-08-22T09:58:19Z</time>
      </trkpt>
      <trkpt lat="46.02843" lon="4.70666">
        <ele>189</ele>
        <time>2018-08-22T09:58:20Z</time>
      </trkpt>
      <trkpt lat="46.02837" lon="4.70668">
        <ele>189</ele>
        <time>2018-08-22T09:58:21Z</time>
      </trkpt>
      <trkpt lat="46.02831" lon="4.70669">
        <ele>189</ele>
        <time>2018-08-22T09:58:22Z</time>
      </trkpt>
      <trkpt lat="46.02825" lon="4.7067">
        <ele>189</ele>
        <time>2018-08-22T09:58:23Z</time>
      </trkpt>
      <trkpt lat="46.02818" lon="4.7067">
        <ele>189</ele>
        <time>2018-08-22T09:58:24Z</time>
      </trkpt>
      <trkpt lat="46.02812" lon="4.70671">
        <ele>189</ele>
        <time>2018-08-22T09:58:25Z</time>
      </trkpt>
      <trkpt lat="46.02805" lon="4.70671">
        <ele>189</ele>
        <time>2018-08-22T09:58:26Z</time>
      </trkpt>
      <trkpt lat="46.02799" lon="4.70673">
        <ele>189</ele>
        <time>2018-08-22T09:58:27Z</time>
      </trkpt>
      <trkpt lat="46.02793" lon="4.70672">
        <ele>189</ele>
        <time>2018-08-22T09:58:28Z</time>
      </trkpt>
      <trkpt lat="46.02787" lon="4.70671">
        <ele>189</ele>
        <time>2018-08-22T09:58:29Z</time>
      </trkpt>
      <trkpt lat="46.02782" lon="4.70673">
        <ele>189</ele>
        <time>2018-08-22T09:58:30Z</time>
      </trkpt>
      <trkpt lat="46.02776" lon="4.70673">
        <ele>189</ele>
        <time>2018-08-22T09:58:31Z</time>
      </trkpt>
      <trkpt lat="46.0277" lon="4.70673">
        <ele>189</ele>
        <time>2018-08-22T09:58:32Z</time>
      </trkpt>
      <trkpt lat="46.02764" lon="4.70672">
        <ele>189</ele>
        <time>2018-08-22T09:58:33Z</time>
      </trkpt>
      <trkpt lat="46.02759" lon="4.70669">
        <ele>189</ele>
        <time>2018-08-22T09:58:34Z</time>
      </trkpt>
      <trkpt lat="46.02754" lon="4.70668">
        <ele>189</ele>
        <time>2018-08-22T09:58:35Z</time>
      </trkpt>
      <trkpt lat="46.02748" lon="4.70668">
        <ele>189</ele>
        <time>2018-08-22T09:58:36Z</time>
      </trkpt>
      <trkpt lat="46.02741" lon="4.70668">
        <ele>189</ele>
        <time>2018-08-22T09:58:37Z</time>
      </trkpt>
      <trkpt lat="46.02735" lon="4.70669">
        <ele>189</ele>
        <time>2018-08-22T09:58:38Z</time>
      </trkpt>
      <trkpt lat="46.02729" lon="4.70668">
        <ele>189</ele>
        <time>2018-08-22T09:58:39Z</time>
      </trkpt>
      <trkpt lat="46.02723" lon="4.70667">
        <ele>189</ele>
        <time>2018-08-22T09:58:40Z</time>
      </trkpt>
      <trkpt lat="46.02717" lon="4.70667">
        <ele>189</ele>
        <time>2018-08-22T09:58:41Z</time>
      </trkpt>
      <trkpt lat="46.02711" lon="4.70666">
        <ele>189</ele>
        <time>2018-08-22T09:58:42Z</time>
      </trkpt>
      <trkpt lat="46.02705" lon="4.70663">
        <ele>189</ele>
        <time>2018-08-22T09:58:43Z</time>
      </trkpt>
      <trkpt lat="46.02698" lon="4.70662">
        <ele>189</ele>
        <time>2018-08-22T09:58:44Z</time>
      </trkpt>
      <trkpt lat="46.02693" lon="4.70661">
        <ele>189</ele>
        <time>2018-08-22T09:58:45Z</time>
      </trkpt>
      <trkpt lat="46.02688" lon="4.7066">
        <ele>190</ele>
        <time>2018-08-22T09:58:46Z</time>
      </trkpt>
      <trkpt lat="46.02681" lon="4.70658">
        <ele>190</ele>
        <time>2018-08-22T09:58:47Z</time>
      </trkpt>
      <trkpt lat="46.02676" lon="4.70661">
        <ele>190</ele>
        <time>2018-08-22T09:58:48Z</time>
      </trkpt>
      <trkpt lat="46.0267" lon="4.70659">
        <ele>190</ele>
        <time>2018-08-22T09:58:49Z</time>
      </trkpt>
      <trkpt lat="46.02665" lon="4.70658">
        <ele>190</ele>
        <time>2018-08-22T09:58:50Z</time>
      </trkpt>
      <trkpt lat="46.02659" lon="4.70655">
        <ele>190</ele>
        <time>2018-08-22T09:58:51Z</time>
      </trkpt>
      <trkpt lat="46.02654" lon="4.70654">
        <ele>190</ele>
        <time>2018-08-22T09:58:52Z</time>
      </trkpt>
      <trkpt lat="46.02649" lon="4.70651">
        <ele>190</ele>
        <time>2018-08-22T09:58:53Z</time>
      </trkpt>
      <trkpt lat="46.02644" lon="4.70652">
        <ele>190</ele>
        <time>2018-08-22T09:58:54Z</time>
      </trkpt>
      <trkpt lat="46.02639" lon="4.70651">
        <ele>190</ele>
        <time>2018-08-22T09:58:55Z</time>
      </trkpt>
      <trkpt lat="46.02634" lon="4.7065">
        <ele>190</ele>
        <time>2018-08-22T09:58:56Z</time>
      </trkpt>
      <trkpt lat="46.02629" lon="4.70651">
        <ele>190</ele>
        <time>2018-08-22T09:58:57Z</time>
      </trkpt>
      <trkpt lat="46.02623" lon="4.70651">
        <ele>190</ele>
        <time>2018-08-22T09:58:58Z</time>
      </trkpt>
      <trkpt lat="46.02618" lon="4.70651">
        <ele>190</ele>
        <time>2018-08-22T09:58:59Z</time>
      </trkpt>
      <trkpt lat="46.02612" lon="4.70649">
        <ele>190</ele>
        <time>2018-08-22T09:59:00Z</time>
      </trkpt>
      <trkpt lat="46.02606" lon="4.70653">
        <ele>190</ele>
        <time>2018-08-22T09:59:01Z</time>
      </trkpt>
      <trkpt lat="46.026" lon="4.70651">
        <ele>190</ele>
        <time>2018-08-22T09:59:02Z</time>
      </trkpt>
      <trkpt lat="46.02594" lon="4.70649">
        <ele>190</ele>
        <time>2018-08-22T09:59:03Z</time>
      </trkpt>
      <trkpt lat="46.02585" lon="4.7065">
        <ele>190</ele>
        <time>2018-08-22T09:59:04Z</time>
      </trkpt>
      <trkpt lat="46.02579" lon="4.70649">
        <ele>190</ele>
        <time>2018-08-22T09:59:05Z</time>
      </trkpt>
      <trkpt lat="46.02573" lon="4.70646">
        <ele>190</ele>
        <time>2018-08-22T09:59:06Z</time>
      </trkpt>
      <trkpt lat="46.02565" lon="4.70645">
        <ele>190</ele>
        <time>2018-08-22T09:59:07Z</time>
      </trkpt>
      <trkpt lat="46.02559" lon="4.70643">
        <ele>189</ele>
        <time>2018-08-22T09:59:08Z</time>
      </trkpt>
      <trkpt lat="46.02553" lon="4.70642">
        <ele>189</ele>
        <time>2018-08-22T09:59:09Z</time>
      </trkpt>
      <trkpt lat="46.02547" lon="4.70641">
        <ele>189</ele>
        <time>2018-08-22T09:59:10Z</time>
      </trkpt>
      <trkpt lat="46.02541" lon="4.70641">
        <ele>189</ele>
        <time>2018-08-22T09:59:11Z</time>
      </trkpt>
      <trkpt lat="46.02536" lon="4.7064">
        <ele>189</ele>
        <time>2018-08-22T09:59:12Z</time>
      </trkpt>
      <trkpt lat="46.0253" lon="4.70636">
        <ele>189</ele>
        <time>2018-08-22T09:59:13Z</time>
      </trkpt>
      <trkpt lat="46.02525" lon="4.70633">
        <ele>189</ele>
        <time>2018-08-22T09:59:14Z</time>
      </trkpt>
      <trkpt lat="46.0252" lon="4.70632">
        <ele>189</ele>
        <time>2018-08-22T09:59:15Z</time>
      </trkpt>
      <trkpt lat="46.02513" lon="4.7063">
        <ele>189</ele>
        <time>2018-08-22T09:59:16Z</time>
      </trkpt>
      <trkpt lat="46.02507" lon="4.70628">
        <ele>189</ele>
        <time>2018-08-22T09:59:17Z</time>
      </trkpt>
      <trkpt lat="46.02501" lon="4.70626">
        <ele>189</ele>
        <time>2018-08-22T09:59:18Z</time>
      </trkpt>
      <trkpt lat="46.02493" lon="4.70623">
        <ele>188</ele>
        <time>2018-08-22T09:59:20Z</time>
      </trkpt>
      <trkpt lat="46.02489" lon="4.70621">
        <ele>188</ele>
        <time>2018-08-22T09:59:21Z</time>
      </trkpt>
      <trkpt lat="46.0248" lon="4.7062">
        <ele>188</ele>
        <time>2018-08-22T09:59:25Z</time>
      </trkpt>
      <trkpt lat="46.02478" lon="4.7062">
        <ele>188</ele>
        <time>2018-08-22T09:59:26Z</time>
      </trkpt>
      <trkpt lat="46.02471" lon="4.70627">
        <ele>188</ele>
        <time>2018-08-22T09:59:28Z</time>
      </trkpt>
      <trkpt lat="46.02469" lon="4.70633">
        <ele>188</ele>
        <time>2018-08-22T09:59:29Z</time>
      </trkpt>
      <trkpt lat="46.02467" lon="4.70644">
        <ele>188</ele>
        <time>2018-08-22T09:59:31Z</time>
      </trkpt>
      <trkpt lat="46.02465" lon="4.7065">
        <ele>188</ele>
        <time>2018-08-22T09:59:32Z</time>
      </trkpt>
      <trkpt lat="46.02462" lon="4.70662">
        <ele>189</ele>
        <time>2018-08-22T09:59:34Z</time>
      </trkpt>
      <trkpt lat="46.0246" lon="4.70669">
        <ele>190</ele>
        <time>2018-08-22T09:59:35Z</time>
      </trkpt>
      <trkpt lat="46.02458" lon="4.70676">
        <ele>190</ele>
        <time>2018-08-22T09:59:36Z</time>
      </trkpt>
      <trkpt lat="46.02457" lon="4.70681">
        <ele>190</ele>
        <time>2018-08-22T09:59:37Z</time>
      </trkpt>
      <trkpt lat="46.02455" lon="4.70688">
        <ele>190</ele>
        <time>2018-08-22T09:59:38Z</time>
      </trkpt>
      <trkpt lat="46.02453" lon="4.70695">
        <ele>190</ele>
        <time>2018-08-22T09:59:39Z</time>
      </trkpt>
      <trkpt lat="46.02451" lon="4.70702">
        <ele>190</ele>
        <time>2018-08-22T09:59:40Z</time>
      </trkpt>
      <trkpt lat="46.02451" lon="4.7071">
        <ele>190</ele>
        <time>2018-08-22T09:59:41Z</time>
      </trkpt>
      <trkpt lat="46.02449" lon="4.70718">
        <ele>190</ele>
        <time>2018-08-22T09:59:42Z</time>
      </trkpt>
      <trkpt lat="46.02447" lon="4.70725">
        <ele>190</ele>
        <time>2018-08-22T09:59:43Z</time>
      </trkpt>
      <trkpt lat="46.02445" lon="4.70732">
        <ele>190</ele>
        <time>2018-08-22T09:59:44Z</time>
      </trkpt>
      <trkpt lat="46.02442" lon="4.70739">
        <ele>190</ele>
        <time>2018-08-22T09:59:45Z</time>
      </trkpt>
      <trkpt lat="46.0244" lon="4.70745">
        <ele>189</ele>
        <time>2018-08-22T09:59:46Z</time>
      </trkpt>
      <trkpt lat="46.02436" lon="4.70751">
        <ele>189</ele>
        <time>2018-08-22T09:59:47Z</time>
      </trkpt>
      <trkpt lat="46.02432" lon="4.70758">
        <ele>189</ele>
        <time>2018-08-22T09:59:48Z</time>
      </trkpt>
      <trkpt lat="46.02427" lon="4.70763">
        <ele>189</ele>
        <time>2018-08-22T09:59:49Z</time>
      </trkpt>
      <trkpt lat="46.02423" lon="4.70769">
        <ele>189</ele>
        <time>2018-08-22T09:59:50Z</time>
      </trkpt>
      <trkpt lat="46.02419" lon="4.70774">
        <ele>189</ele>
        <time>2018-08-22T09:59:51Z</time>
      </trkpt>
      <trkpt lat="46.02412" lon="4.70776">
        <ele>185</ele>
        <time>2018-08-22T09:59:52Z</time>
      </trkpt>
      <trkpt lat="46.02407" lon="4.7078">
        <ele>185</ele>
        <time>2018-08-22T09:59:53Z</time>
      </trkpt>
      <trkpt lat="46.02401" lon="4.7078">
        <ele>185</ele>
        <time>2018-08-22T09:59:54Z</time>
      </trkpt>
      <trkpt lat="46.02395" lon="4.7078">
        <ele>185</ele>
        <time>2018-08-22T09:59:55Z</time>
      </trkpt>
      <trkpt lat="46.02387" lon="4.7078">
        <ele>184</ele>
        <time>2018-08-22T09:59:56Z</time>
      </trkpt>
      <trkpt lat="46.02381" lon="4.7078">
        <ele>184</ele>
        <time>2018-08-22T09:59:57Z</time>
      </trkpt>
      <trkpt lat="46.02375" lon="4.7078">
        <ele>184</ele>
        <time>2018-08-22T09:59:58Z</time>
      </trkpt>
      <trkpt lat="46.02369" lon="4.70779">
        <ele>184</ele>
        <time>2018-08-22T09:59:59Z</time>
      </trkpt>
      <trkpt lat="46.02361" lon="4.70779">
        <ele>183</ele>
        <time>2018-08-22T10:00:00Z</time>
      </trkpt>
      <trkpt lat="46.02355" lon="4.7078">
        <ele>183</ele>
        <time>2018-08-22T10:00:01Z</time>
      </trkpt>
      <trkpt lat="46.02349" lon="4.70778">
        <ele>183</ele>
        <time>2018-08-22T10:00:02Z</time>
      </trkpt>
      <trkpt lat="46.02342" lon="4.70776">
        <ele>182</ele>
        <time>2018-08-22T10:00:03Z</time>
      </trkpt>
      <trkpt lat="46.02333" lon="4.70774">
        <ele>180</ele>
        <time>2018-08-22T10:00:04Z</time>
      </trkpt>
      <trkpt lat="46.02324" lon="4.70769">
        <ele>180</ele>
        <time>2018-08-22T10:00:05Z</time>
      </trkpt>
      <trkpt lat="46.02316" lon="4.70774">
        <ele>180</ele>
        <time>2018-08-22T10:00:06Z</time>
      </trkpt>
      <trkpt lat="46.0231" lon="4.70773">
        <ele>180</ele>
        <time>2018-08-22T10:00:07Z</time>
      </trkpt>
      <trkpt lat="46.02303" lon="4.70771">
        <ele>180</ele>
        <time>2018-08-22T10:00:08Z</time>
      </trkpt>
      <trkpt lat="46.02295" lon="4.70768">
        <ele>180</ele>
        <time>2018-08-22T10:00:09Z</time>
      </trkpt>
      <trkpt lat="46.02288" lon="4.70767">
        <ele>181</ele>
        <time>2018-08-22T10:00:10Z</time>
      </trkpt>
      <trkpt lat="46.02282" lon="4.70766">
        <ele>181</ele>
        <time>2018-08-22T10:00:11Z</time>
      </trkpt>
      <trkpt lat="46.02275" lon="4.70767">
        <ele>181</ele>
        <time>2018-08-22T10:00:12Z</time>
      </trkpt>
      <trkpt lat="46.02268" lon="4.70766">
        <ele>181</ele>
        <time>2018-08-22T10:00:13Z</time>
      </trkpt>
      <trkpt lat="46.02261" lon="4.70764">
        <ele>181</ele>
        <time>2018-08-22T10:00:14Z</time>
      </trkpt>
      <trkpt lat="46.02255" lon="4.70763">
        <ele>181</ele>
        <time>2018-08-22T10:00:15Z</time>
      </trkpt>
      <trkpt lat="46.02248" lon="4.70761">
        <ele>180</ele>
        <time>2018-08-22T10:00:16Z</time>
      </trkpt>
      <trkpt lat="46.02241" lon="4.70758">
        <ele>180</ele>
        <time>2018-08-22T10:00:17Z</time>
      </trkpt>
      <trkpt lat="46.02235" lon="4.70755">
        <ele>180</ele>
        <time>2018-08-22T10:00:18Z</time>
      </trkpt>
      <trkpt lat="46.02229" lon="4.70752">
        <ele>180</ele>
        <time>2018-08-22T10:00:19Z</time>
      </trkpt>
      <trkpt lat="46.02221" lon="4.70751">
        <ele>180</ele>
        <time>2018-08-22T10:00:20Z</time>
      </trkpt>
      <trkpt lat="46.02215" lon="4.7075">
        <ele>180</ele>
        <time>2018-08-22T10:00:21Z</time>
      </trkpt>
      <trkpt lat="46.02209" lon="4.70748">
        <ele>180</ele>
        <time>2018-08-22T10:00:22Z</time>
      </trkpt>
      <trkpt lat="46.02204" lon="4.70747">
        <ele>180</ele>
        <time>2018-08-22T10:00:23Z</time>
      </trkpt>
      <trkpt lat="46.02198" lon="4.70745">
        <ele>180</ele>
        <time>2018-08-22T10:00:24Z</time>
      </trkpt>
      <trkpt lat="46.02193" lon="4.70744">
        <ele>180</ele>
        <time>2018-08-22T10:00:25Z</time>
      </trkpt>
      <trkpt lat="46.02187" lon="4.70742">
        <ele>180</ele>
        <time>2018-08-22T10:00:26Z</time>
      </trkpt>
      <trkpt lat="46.0218" lon="4.70742">
        <ele>180</ele>
        <time>2018-08-22T10:00:27Z</time>
      </trkpt>
      <trkpt lat="46.02173" lon="4.70739">
        <ele>180</ele>
        <time>2018-08-22T10:00:28Z</time>
      </trkpt>
      <trkpt lat="46.02168" lon="4.70738">
        <ele>180</ele>
        <time>2018-08-22T10:00:29Z</time>
      </trkpt>
      <trkpt lat="46.02162" lon="4.70737">
        <ele>179</ele>
        <time>2018-08-22T10:00:30Z</time>
      </trkpt>
      <trkpt lat="46.02156" lon="4.70734">
        <ele>179</ele>
        <time>2018-08-22T10:00:31Z</time>
      </trkpt>
      <trkpt lat="46.02149" lon="4.70734">
        <ele>179</ele>
        <time>2018-08-22T10:00:32Z</time>
      </trkpt>
      <trkpt lat="46.02145" lon="4.70733">
        <ele>179</ele>
        <time>2018-08-22T10:00:33Z</time>
      </trkpt>
      <trkpt lat="46.02139" lon="4.70732">
        <ele>179</ele>
        <time>2018-08-22T10:00:34Z</time>
      </trkpt>
      <trkpt lat="46.02134" lon="4.7073">
        <ele>179</ele>
        <time>2018-08-22T10:00:35Z</time>
      </trkpt>
      <trkpt lat="46.0213" lon="4.7073">
        <ele>179</ele>
        <time>2018-08-22T10:00:36Z</time>
      </trkpt>
      <trkpt lat="46.02125" lon="4.70729">
        <ele>179</ele>
        <time>2018-08-22T10:00:37Z</time>
      </trkpt>
      <trkpt lat="46.0212" lon="4.70728">
        <ele>179</ele>
        <time>2018-08-22T10:00:38Z</time>
      </trkpt>
      <trkpt lat="46.02115" lon="4.70727">
        <ele>179</ele>
        <time>2018-08-22T10:00:39Z</time>
      </trkpt>
      <trkpt lat="46.0211" lon="4.70725">
        <ele>179</ele>
        <time>2018-08-22T10:00:40Z</time>
      </trkpt>
      <trkpt lat="46.02106" lon="4.70724">
        <ele>179</ele>
        <time>2018-08-22T10:00:41Z</time>
      </trkpt>
      <trkpt lat="46.02101" lon="4.70724">
        <ele>179</ele>
        <time>2018-08-22T10:00:42Z</time>
      </trkpt>
      <trkpt lat="46.02093" lon="4.70723">
        <ele>178</ele>
        <time>2018-08-22T10:00:44Z</time>
      </trkpt>
      <trkpt lat="46.02088" lon="4.70722">
        <ele>178</ele>
        <time>2018-08-22T10:00:45Z</time>
      </trkpt>
      <trkpt lat="46.0208" lon="4.7072">
        <ele>179</ele>
        <time>2018-08-22T10:00:47Z</time>
      </trkpt>
      <trkpt lat="46.02076" lon="4.70718">
        <ele>179</ele>
        <time>2018-08-22T10:00:48Z</time>
      </trkpt>
      <trkpt lat="46.02071" lon="4.70719">
        <ele>179</ele>
        <time>2018-08-22T10:00:49Z</time>
      </trkpt>
      <trkpt lat="46.02066" lon="4.70718">
        <ele>179</ele>
        <time>2018-08-22T10:00:50Z</time>
      </trkpt>
      <trkpt lat="46.02061" lon="4.70717">
        <ele>179</ele>
        <time>2018-08-22T10:00:51Z</time>
      </trkpt>
      <trkpt lat="46.02056" lon="4.70717">
        <ele>179</ele>
        <time>2018-08-22T10:00:52Z</time>
      </trkpt>
      <trkpt lat="46.0205" lon="4.70718">
        <ele>179</ele>
        <time>2018-08-22T10:00:53Z</time>
      </trkpt>
      <trkpt lat="46.02045" lon="4.70716">
        <ele>179</ele>
        <time>2018-08-22T10:00:54Z</time>
      </trkpt>
      <trkpt lat="46.0204" lon="4.70715">
        <ele>179</ele>
        <time>2018-08-22T10:00:55Z</time>
      </trkpt>
      <trkpt lat="46.02036" lon="4.70714">
        <ele>179</ele>
        <time>2018-08-22T10:00:56Z</time>
      </trkpt>
      <trkpt lat="46.02028" lon="4.70714">
        <ele>179</ele>
        <time>2018-08-22T10:00:57Z</time>
      </trkpt>
      <trkpt lat="46.02024" lon="4.70713">
        <ele>179</ele>
        <time>2018-08-22T10:00:58Z</time>
      </trkpt>
      <trkpt lat="46.02019" lon="4.70712">
        <ele>179</ele>
        <time>2018-08-22T10:00:59Z</time>
      </trkpt>
      <trkpt lat="46.02013" lon="4.70711">
        <ele>179</ele>
        <time>2018-08-22T10:01:00Z</time>
      </trkpt>
      <trkpt lat="46.02008" lon="4.70711">
        <ele>179</ele>
        <time>2018-08-22T10:01:01Z</time>
      </trkpt>
      <trkpt lat="46.02002" lon="4.70709">
        <ele>179</ele>
        <time>2018-08-22T10:01:02Z</time>
      </trkpt>
      <trkpt lat="46.01993" lon="4.70707">
        <ele>181</ele>
        <time>2018-08-22T10:01:04Z</time>
      </trkpt>
      <trkpt lat="46.0199" lon="4.70707">
        <ele>181</ele>
        <time>2018-08-22T10:01:05Z</time>
      </trkpt>
      <trkpt lat="46.01985" lon="4.70709">
        <ele>181</ele>
        <time>2018-08-22T10:01:06Z</time>
      </trkpt>
      <trkpt lat="46.0198" lon="4.70708">
        <ele>181</ele>
        <time>2018-08-22T10:01:07Z</time>
      </trkpt>
      <trkpt lat="46.01972" lon="4.70708">
        <ele>181</ele>
        <time>2018-08-22T10:01:09Z</time>
      </trkpt>
      <trkpt lat="46.01968" lon="4.70707">
        <ele>181</ele>
        <time>2018-08-22T10:01:10Z</time>
      </trkpt>
      <trkpt lat="46.01963" lon="4.70706">
        <ele>181</ele>
        <time>2018-08-22T10:01:11Z</time>
      </trkpt>
      <trkpt lat="46.01958" lon="4.70704">
        <ele>181</ele>
        <time>2018-08-22T10:01:12Z</time>
      </trkpt>
      <trkpt lat="46.0195" lon="4.70703">
        <ele>181</ele>
        <time>2018-08-22T10:01:14Z</time>
      </trkpt>
      <trkpt lat="46.01945" lon="4.70702">
        <ele>182</ele>
        <time>2018-08-22T10:01:15Z</time>
      </trkpt>
      <trkpt lat="46.0194" lon="4.70701">
        <ele>182</ele>
        <time>2018-08-22T10:01:16Z</time>
      </trkpt>
      <trkpt lat="46.01935" lon="4.707">
        <ele>182</ele>
        <time>2018-08-22T10:01:17Z</time>
      </trkpt>
      <trkpt lat="46.01932" lon="4.707">
        <ele>182</ele>
        <time>2018-08-22T10:01:18Z</time>
      </trkpt>
      <trkpt lat="46.01926" lon="4.707">
        <ele>182</ele>
        <time>2018-08-22T10:01:19Z</time>
      </trkpt>
      <trkpt lat="46.01921" lon="4.707">
        <ele>182</ele>
        <time>2018-08-22T10:01:20Z</time>
      </trkpt>
      <trkpt lat="46.01915" lon="4.70699">
        <ele>184</ele>
        <time>2018-08-22T10:01:21Z</time>
      </trkpt>
      <trkpt lat="46.0191" lon="4.70699">
        <ele>184</ele>
        <time>2018-08-22T10:01:22Z</time>
      </trkpt>
      <trkpt lat="46.01905" lon="4.70698">
        <ele>184</ele>
        <time>2018-08-22T10:01:23Z</time>
      </trkpt>
      <trkpt lat="46.01901" lon="4.70699">
        <ele>184</ele>
        <time>2018-08-22T10:01:24Z</time>
      </trkpt>
      <trkpt lat="46.01896" lon="4.70697">
        <ele>184</ele>
        <time>2018-08-22T10:01:25Z</time>
      </trkpt>
      <trkpt lat="46.01887" lon="4.70696">
        <ele>184</ele>
        <time>2018-08-22T10:01:27Z</time>
      </trkpt>
      <trkpt lat="46.01883" lon="4.70695">
        <ele>185</ele>
        <time>2018-08-22T10:01:28Z</time>
      </trkpt>
      <trkpt lat="46.01878" lon="4.70695">
        <ele>185</ele>
        <time>2018-08-22T10:01:29Z</time>
      </trkpt>
      <trkpt lat="46.01873" lon="4.70695">
        <ele>185</ele>
        <time>2018-08-22T10:01:30Z</time>
      </trkpt>
      <trkpt lat="46.01866" lon="4.70699">
        <ele>185</ele>
        <time>2018-08-22T10:01:32Z</time>
      </trkpt>
      <trkpt lat="46.01861" lon="4.707">
        <ele>185</ele>
        <time>2018-08-22T10:01:33Z</time>
      </trkpt>
      <trkpt lat="46.01853" lon="4.70699">
        <ele>185</ele>
        <time>2018-08-22T10:01:35Z</time>
      </trkpt>
      <trkpt lat="46.01848" lon="4.70699">
        <ele>185</ele>
        <time>2018-08-22T10:01:36Z</time>
      </trkpt>
      <trkpt lat="46.01843" lon="4.70698">
        <ele>185</ele>
        <time>2018-08-22T10:01:37Z</time>
      </trkpt>
      <trkpt lat="46.01838" lon="4.70697">
        <ele>185</ele>
        <time>2018-08-22T10:01:38Z</time>
      </trkpt>
      <trkpt lat="46.01829" lon="4.70696">
        <ele>187</ele>
        <time>2018-08-22T10:01:40Z</time>
      </trkpt>
      <trkpt lat="46.01824" lon="4.70697">
        <ele>187</ele>
        <time>2018-08-22T10:01:41Z</time>
      </trkpt>
      <trkpt lat="46.01819" lon="4.70695">
        <ele>187</ele>
        <time>2018-08-22T10:01:42Z</time>
      </trkpt>
      <trkpt lat="46.01814" lon="4.70696">
        <ele>187</ele>
        <time>2018-08-22T10:01:43Z</time>
      </trkpt>
      <trkpt lat="46.01806" lon="4.70696">
        <ele>187</ele>
        <time>2018-08-22T10:01:45Z</time>
      </trkpt>
      <trkpt lat="46.01802" lon="4.70694">
        <ele>187</ele>
        <time>2018-08-22T10:01:46Z</time>
      </trkpt>
      <trkpt lat="46.01796" lon="4.70695">
        <ele>187</ele>
        <time>2018-08-22T10:01:47Z</time>
      </trkpt>
      <trkpt lat="46.01791" lon="4.70696">
        <ele>187</ele>
        <time>2018-08-22T10:01:48Z</time>
      </trkpt>
      <trkpt lat="46.01782" lon="4.70695">
        <ele>187</ele>
        <time>2018-08-22T10:01:50Z</time>
      </trkpt>
      <trkpt lat="46.01777" lon="4.70695">
        <ele>187</ele>
        <time>2018-08-22T10:01:51Z</time>
      </trkpt>
      <trkpt lat="46.01773" lon="4.70696">
        <ele>187</ele>
        <time>2018-08-22T10:01:52Z</time>
      </trkpt>
      <trkpt lat="46.01768" lon="4.70698">
        <ele>187</ele>
        <time>2018-08-22T10:01:53Z</time>
      </trkpt>
      <trkpt lat="46.01764" lon="4.70698">
        <ele>187</ele>
        <time>2018-08-22T10:01:54Z</time>
      </trkpt>
      <trkpt lat="46.01759" lon="4.70699">
        <ele>187</ele>
        <time>2018-08-22T10:01:55Z</time>
      </trkpt>
      <trkpt lat="46.01754" lon="4.707">
        <ele>187</ele>
        <time>2018-08-22T10:01:56Z</time>
      </trkpt>
      <trkpt lat="46.01749" lon="4.70701">
        <ele>188</ele>
        <time>2018-08-22T10:01:57Z</time>
      </trkpt>
      <trkpt lat="46.01745" lon="4.70701">
        <ele>188</ele>
        <time>2018-08-22T10:01:58Z</time>
      </trkpt>
      <trkpt lat="46.0174" lon="4.70702">
        <ele>188</ele>
        <time>2018-08-22T10:01:59Z</time>
      </trkpt>
      <trkpt lat="46.01733" lon="4.70706">
        <ele>188</ele>
        <time>2018-08-22T10:02:01Z</time>
      </trkpt>
      <trkpt lat="46.01728" lon="4.70706">
        <ele>188</ele>
        <time>2018-08-22T10:02:02Z</time>
      </trkpt>
      <trkpt lat="46.01723" lon="4.70707">
        <ele>188</ele>
        <time>2018-08-22T10:02:03Z</time>
      </trkpt>
      <trkpt lat="46.01719" lon="4.70709">
        <ele>188</ele>
        <time>2018-08-22T10:02:04Z</time>
      </trkpt>
      <trkpt lat="46.01711" lon="4.70713">
        <ele>188</ele>
        <time>2018-08-22T10:02:06Z</time>
      </trkpt>
      <trkpt lat="46.01708" lon="4.70715">
        <ele>189</ele>
        <time>2018-08-22T10:02:07Z</time>
      </trkpt>
      <trkpt lat="46.01703" lon="4.70715">
        <ele>189</ele>
        <time>2018-08-22T10:02:08Z</time>
      </trkpt>
      <trkpt lat="46.01698" lon="4.70716">
        <ele>189</ele>
        <time>2018-08-22T10:02:09Z</time>
      </trkpt>
      <trkpt lat="46.01693" lon="4.70716">
        <ele>189</ele>
        <time>2018-08-22T10:02:10Z</time>
      </trkpt>
      <trkpt lat="46.01689" lon="4.70716">
        <ele>189</ele>
        <time>2018-08-22T10:02:11Z</time>
      </trkpt>
      <trkpt lat="46.0168" lon="4.70715">
        <ele>189</ele>
        <time>2018-08-22T10:02:13Z</time>
      </trkpt>
      <trkpt lat="46.01675" lon="4.70715">
        <ele>189</ele>
        <time>2018-08-22T10:02:14Z</time>
      </trkpt>
      <trkpt lat="46.01666" lon="4.70715">
        <ele>190</ele>
        <time>2018-08-22T10:02:16Z</time>
      </trkpt>
      <trkpt lat="46.01662" lon="4.70715">
        <ele>190</ele>
        <time>2018-08-22T10:02:17Z</time>
      </trkpt>
      <trkpt lat="46.01653" lon="4.70714">
        <ele>190</ele>
        <time>2018-08-22T10:02:19Z</time>
      </trkpt>
      <trkpt lat="46.0165" lon="4.70718">
        <ele>190</ele>
        <time>2018-08-22T10:02:20Z</time>
      </trkpt>
      <trkpt lat="46.01646" lon="4.70719">
        <ele>190</ele>
        <time>2018-08-22T10:02:21Z</time>
      </trkpt>
      <trkpt lat="46.01641" lon="4.70718">
        <ele>190</ele>
        <time>2018-08-22T10:02:22Z</time>
      </trkpt>
      <trkpt lat="46.01636" lon="4.70718">
        <ele>190</ele>
        <time>2018-08-22T10:02:23Z</time>
      </trkpt>
      <trkpt lat="46.01631" lon="4.70718">
        <ele>190</ele>
        <time>2018-08-22T10:02:24Z</time>
      </trkpt>
      <trkpt lat="46.01626" lon="4.70718">
        <ele>190</ele>
        <time>2018-08-22T10:02:25Z</time>
      </trkpt>
      <trkpt lat="46.01621" lon="4.70718">
        <ele>190</ele>
        <time>2018-08-22T10:02:26Z</time>
      </trkpt>
      <trkpt lat="46.01613" lon="4.70722">
        <ele>190</ele>
        <time>2018-08-22T10:02:28Z</time>
      </trkpt>
      <trkpt lat="46.01608" lon="4.7072">
        <ele>190</ele>
        <time>2018-08-22T10:02:29Z</time>
      </trkpt>
      <trkpt lat="46.01599" lon="4.70723">
        <ele>190</ele>
        <time>2018-08-22T10:02:31Z</time>
      </trkpt>
      <trkpt lat="46.01593" lon="4.70723">
        <ele>190</ele>
        <time>2018-08-22T10:02:32Z</time>
      </trkpt>
      <trkpt lat="46.01588" lon="4.70723">
        <ele>190</ele>
        <time>2018-08-22T10:02:33Z</time>
      </trkpt>
      <trkpt lat="46.01583" lon="4.70723">
        <ele>190</ele>
        <time>2018-08-22T10:02:34Z</time>
      </trkpt>
      <trkpt lat="46.01575" lon="4.70724">
        <ele>190</ele>
        <time>2018-08-22T10:02:36Z</time>
      </trkpt>
      <trkpt lat="46.0157" lon="4.70724">
        <ele>190</ele>
        <time>2018-08-22T10:02:37Z</time>
      </trkpt>
      <trkpt lat="46.01565" lon="4.70725">
        <ele>190</ele>
        <time>2018-08-22T10:02:38Z</time>
      </trkpt>
      <trkpt lat="46.0156" lon="4.70725">
        <ele>190</ele>
        <time>2018-08-22T10:02:39Z</time>
      </trkpt>
      <trkpt lat="46.01555" lon="4.70725">
        <ele>190</ele>
        <time>2018-08-22T10:02:40Z</time>
      </trkpt>
      <trkpt lat="46.0155" lon="4.70724">
        <ele>190</ele>
        <time>2018-08-22T10:02:41Z</time>
      </trkpt>
      <trkpt lat="46.01545" lon="4.70724">
        <ele>190</ele>
        <time>2018-08-22T10:02:42Z</time>
      </trkpt>
      <trkpt lat="46.0154" lon="4.70724">
        <ele>190</ele>
        <time>2018-08-22T10:02:43Z</time>
      </trkpt>
      <trkpt lat="46.01531" lon="4.70724">
        <ele>190</ele>
        <time>2018-08-22T10:02:45Z</time>
      </trkpt>
      <trkpt lat="46.01527" lon="4.70724">
        <ele>190</ele>
        <time>2018-08-22T10:02:46Z</time>
      </trkpt>
      <trkpt lat="46.01523" lon="4.70726">
        <ele>190</ele>
        <time>2018-08-22T10:02:47Z</time>
      </trkpt>
      <trkpt lat="46.01517" lon="4.70724">
        <ele>190</ele>
        <time>2018-08-22T10:02:48Z</time>
      </trkpt>
      <trkpt lat="46.01511" lon="4.70725">
        <ele>190</ele>
        <time>2018-08-22T10:02:49Z</time>
      </trkpt>
      <trkpt lat="46.01506" lon="4.70725">
        <ele>190</ele>
        <time>2018-08-22T10:02:50Z</time>
      </trkpt>
      <trkpt lat="46.01501" lon="4.70725">
        <ele>190</ele>
        <time>2018-08-22T10:02:51Z</time>
      </trkpt>
      <trkpt lat="46.01496" lon="4.70725">
        <ele>190</ele>
        <time>2018-08-22T10:02:52Z</time>
      </trkpt>
      <trkpt lat="46.01491" lon="4.70726">
        <ele>190</ele>
        <time>2018-08-22T10:02:53Z</time>
      </trkpt>
      <trkpt lat="46.01486" lon="4.70727">
        <ele>190</ele>
        <time>2018-08-22T10:02:54Z</time>
      </trkpt>
      <trkpt lat="46.01481" lon="4.70728">
        <ele>190</ele>
        <time>2018-08-22T10:02:55Z</time>
      </trkpt>
      <trkpt lat="46.01476" lon="4.70728">
        <ele>190</ele>
        <time>2018-08-22T10:02:56Z</time>
      </trkpt>
      <trkpt lat="46.0147" lon="4.7073">
        <ele>190</ele>
        <time>2018-08-22T10:02:57Z</time>
      </trkpt>
      <trkpt lat="46.01464" lon="4.7073">
        <ele>189</ele>
        <time>2018-08-22T10:02:58Z</time>
      </trkpt>
      <trkpt lat="46.01459" lon="4.70733">
        <ele>189</ele>
        <time>2018-08-22T10:02:59Z</time>
      </trkpt>
      <trkpt lat="46.01455" lon="4.70733">
        <ele>189</ele>
        <time>2018-08-22T10:03:00Z</time>
      </trkpt>
      <trkpt lat="46.01446" lon="4.70736">
        <ele>189</ele>
        <time>2018-08-22T10:03:02Z</time>
      </trkpt>
      <trkpt lat="46.01443" lon="4.70737">
        <ele>189</ele>
        <time>2018-08-22T10:03:03Z</time>
      </trkpt>
      <trkpt lat="46.01438" lon="4.70737">
        <ele>189</ele>
        <time>2018-08-22T10:03:04Z</time>
      </trkpt>
      <trkpt lat="46.01433" lon="4.70737">
        <ele>189</ele>
        <time>2018-08-22T10:03:05Z</time>
      </trkpt>
      <trkpt lat="46.01428" lon="4.70738">
        <ele>189</ele>
        <time>2018-08-22T10:03:06Z</time>
      </trkpt>
      <trkpt lat="46.01423" lon="4.70739">
        <ele>189</ele>
        <time>2018-08-22T10:03:07Z</time>
      </trkpt>
      <trkpt lat="46.01418" lon="4.7074">
        <ele>189</ele>
        <time>2018-08-22T10:03:08Z</time>
      </trkpt>
      <trkpt lat="46.01414" lon="4.7074">
        <ele>189</ele>
        <time>2018-08-22T10:03:09Z</time>
      </trkpt>
      <trkpt lat="46.01408" lon="4.7074">
        <ele>189</ele>
        <time>2018-08-22T10:03:10Z</time>
      </trkpt>
      <trkpt lat="46.01401" lon="4.70739">
        <ele>189</ele>
        <time>2018-08-22T10:03:11Z</time>
      </trkpt>
      <trkpt lat="46.01397" lon="4.70741">
        <ele>189</ele>
        <time>2018-08-22T10:03:12Z</time>
      </trkpt>
      <trkpt lat="46.01392" lon="4.70743">
        <ele>189</ele>
        <time>2018-08-22T10:03:13Z</time>
      </trkpt>
      <trkpt lat="46.01387" lon="4.70744">
        <ele>189</ele>
        <time>2018-08-22T10:03:14Z</time>
      </trkpt>
      <trkpt lat="46.01382" lon="4.70745">
        <ele>189</ele>
        <time>2018-08-22T10:03:15Z</time>
      </trkpt>
      <trkpt lat="46.01376" lon="4.70745">
        <ele>189</ele>
        <time>2018-08-22T10:03:16Z</time>
      </trkpt>
      <trkpt lat="46.01371" lon="4.70745">
        <ele>189</ele>
        <time>2018-08-22T10:03:17Z</time>
      </trkpt>
      <trkpt lat="46.01366" lon="4.70746">
        <ele>189</ele>
        <time>2018-08-22T10:03:18Z</time>
      </trkpt>
      <trkpt lat="46.01361" lon="4.70746">
        <ele>189</ele>
        <time>2018-08-22T10:03:19Z</time>
      </trkpt>
      <trkpt lat="46.01354" lon="4.70747">
        <ele>189</ele>
        <time>2018-08-22T10:03:20Z</time>
      </trkpt>
      <trkpt lat="46.01349" lon="4.70748">
        <ele>189</ele>
        <time>2018-08-22T10:03:21Z</time>
      </trkpt>
      <trkpt lat="46.01343" lon="4.70748">
        <ele>189</ele>
        <time>2018-08-22T10:03:22Z</time>
      </trkpt>
      <trkpt lat="46.01338" lon="4.70748">
        <ele>189</ele>
        <time>2018-08-22T10:03:23Z</time>
      </trkpt>
      <trkpt lat="46.01333" lon="4.70749">
        <ele>189</ele>
        <time>2018-08-22T10:03:24Z</time>
      </trkpt>
      <trkpt lat="46.01328" lon="4.70748">
        <ele>189</ele>
        <time>2018-08-22T10:03:25Z</time>
      </trkpt>
      <trkpt lat="46.01324" lon="4.70747">
        <ele>190</ele>
        <time>2018-08-22T10:03:26Z</time>
      </trkpt>
      <trkpt lat="46.01319" lon="4.70747">
        <ele>190</ele>
        <time>2018-08-22T10:03:27Z</time>
      </trkpt>
      <trkpt lat="46.01315" lon="4.70745">
        <ele>190</ele>
        <time>2018-08-22T10:03:28Z</time>
      </trkpt>
      <trkpt lat="46.0131" lon="4.70745">
        <ele>190</ele>
        <time>2018-08-22T10:03:29Z</time>
      </trkpt>
      <trkpt lat="46.01305" lon="4.70744">
        <ele>191</ele>
        <time>2018-08-22T10:03:30Z</time>
      </trkpt>
      <trkpt lat="46.01301" lon="4.70743">
        <ele>191</ele>
        <time>2018-08-22T10:03:31Z</time>
      </trkpt>
      <trkpt lat="46.01293" lon="4.70743">
        <ele>191</ele>
        <time>2018-08-22T10:03:33Z</time>
      </trkpt>
      <trkpt lat="46.01287" lon="4.70742">
        <ele>191</ele>
        <time>2018-08-22T10:03:34Z</time>
      </trkpt>
      <trkpt lat="46.0128" lon="4.70743">
        <ele>192</ele>
        <time>2018-08-22T10:03:36Z</time>
      </trkpt>
      <trkpt lat="46.01275" lon="4.7074">
        <ele>192</ele>
        <time>2018-08-22T10:03:37Z</time>
      </trkpt>
      <trkpt lat="46.01268" lon="4.70736">
        <ele>192</ele>
        <time>2018-08-22T10:03:39Z</time>
      </trkpt>
      <trkpt lat="46.01263" lon="4.70734">
        <ele>192</ele>
        <time>2018-08-22T10:03:40Z</time>
      </trkpt>
      <trkpt lat="46.01254" lon="4.70733">
        <ele>192</ele>
        <time>2018-08-22T10:03:42Z</time>
      </trkpt>
      <trkpt lat="46.01251" lon="4.7073">
        <ele>192</ele>
        <time>2018-08-22T10:03:43Z</time>
      </trkpt>
      <trkpt lat="46.01246" lon="4.70728">
        <ele>193</ele>
        <time>2018-08-22T10:03:44Z</time>
      </trkpt>
      <trkpt lat="46.01241" lon="4.70725">
        <ele>193</ele>
        <time>2018-08-22T10:03:45Z</time>
      </trkpt>
      <trkpt lat="46.01235" lon="4.70723">
        <ele>194</ele>
        <time>2018-08-22T10:03:46Z</time>
      </trkpt>
      <trkpt lat="46.0123" lon="4.70722">
        <ele>194</ele>
        <time>2018-08-22T10:03:47Z</time>
      </trkpt>
      <trkpt lat="46.01223" lon="4.7072">
        <ele>194</ele>
        <time>2018-08-22T10:03:49Z</time>
      </trkpt>
      <trkpt lat="46.01219" lon="4.70719">
        <ele>194</ele>
        <time>2018-08-22T10:03:50Z</time>
      </trkpt>
      <trkpt lat="46.01211" lon="4.70717">
        <ele>194</ele>
        <time>2018-08-22T10:03:51Z</time>
      </trkpt>
      <trkpt lat="46.01207" lon="4.70717">
        <ele>194</ele>
        <time>2018-08-22T10:03:52Z</time>
      </trkpt>
      <trkpt lat="46.01199" lon="4.70713">
        <ele>194</ele>
        <time>2018-08-22T10:03:54Z</time>
      </trkpt>
      <trkpt lat="46.01195" lon="4.70712">
        <ele>194</ele>
        <time>2018-08-22T10:03:55Z</time>
      </trkpt>
      <trkpt lat="46.01187" lon="4.70709">
        <ele>194</ele>
        <time>2018-08-22T10:03:57Z</time>
      </trkpt>
      <trkpt lat="46.01183" lon="4.70706">
        <ele>194</ele>
        <time>2018-08-22T10:03:58Z</time>
      </trkpt>
      <trkpt lat="46.01178" lon="4.70703">
        <ele>194</ele>
        <time>2018-08-22T10:03:59Z</time>
      </trkpt>
      <trkpt lat="46.01174" lon="4.70699">
        <ele>194</ele>
        <time>2018-08-22T10:04:00Z</time>
      </trkpt>
      <trkpt lat="46.01166" lon="4.70694">
        <ele>194</ele>
        <time>2018-08-22T10:04:02Z</time>
      </trkpt>
      <trkpt lat="46.01162" lon="4.70692">
        <ele>194</ele>
        <time>2018-08-22T10:04:03Z</time>
      </trkpt>
      <trkpt lat="46.01158" lon="4.7069">
        <ele>194</ele>
        <time>2018-08-22T10:04:04Z</time>
      </trkpt>
      <trkpt lat="46.01153" lon="4.70688">
        <ele>194</ele>
        <time>2018-08-22T10:04:05Z</time>
      </trkpt>
      <trkpt lat="46.01148" lon="4.70685">
        <ele>194</ele>
        <time>2018-08-22T10:04:06Z</time>
      </trkpt>
      <trkpt lat="46.01144" lon="4.70684">
        <ele>194</ele>
        <time>2018-08-22T10:04:07Z</time>
      </trkpt>
      <trkpt lat="46.01141" lon="4.70683">
        <ele>194</ele>
        <time>2018-08-22T10:04:08Z</time>
      </trkpt>
      <trkpt lat="46.01135" lon="4.70681">
        <ele>194</ele>
        <time>2018-08-22T10:04:09Z</time>
      </trkpt>
      <trkpt lat="46.01131" lon="4.70678">
        <ele>194</ele>
        <time>2018-08-22T10:04:10Z</time>
      </trkpt>
      <trkpt lat="46.01125" lon="4.70676">
        <ele>194</ele>
        <time>2018-08-22T10:04:11Z</time>
      </trkpt>
      <trkpt lat="46.01118" lon="4.70674">
        <ele>195</ele>
        <time>2018-08-22T10:04:13Z</time>
      </trkpt>
      <trkpt lat="46.01114" lon="4.70672">
        <ele>195</ele>
        <time>2018-08-22T10:04:14Z</time>
      </trkpt>
      <trkpt lat="46.01109" lon="4.70669">
        <ele>195</ele>
        <time>2018-08-22T10:04:15Z</time>
      </trkpt>
      <trkpt lat="46.01105" lon="4.70669">
        <ele>195</ele>
        <time>2018-08-22T10:04:16Z</time>
      </trkpt>
      <trkpt lat="46.01101" lon="4.70666">
        <ele>195</ele>
        <time>2018-08-22T10:04:17Z</time>
      </trkpt>
      <trkpt lat="46.01095" lon="4.70664">
        <ele>195</ele>
        <time>2018-08-22T10:04:18Z</time>
      </trkpt>
      <trkpt lat="46.01087" lon="4.70661">
        <ele>195</ele>
        <time>2018-08-22T10:04:20Z</time>
      </trkpt>
      <trkpt lat="46.01083" lon="4.70659">
        <ele>195</ele>
        <time>2018-08-22T10:04:21Z</time>
      </trkpt>
      <trkpt lat="46.0108" lon="4.70652">
        <ele>195</ele>
        <time>2018-08-22T10:04:22Z</time>
      </trkpt>
      <trkpt lat="46.01075" lon="4.70651">
        <ele>195</ele>
        <time>2018-08-22T10:04:23Z</time>
      </trkpt>
      <trkpt lat="46.01069" lon="4.70647">
        <ele>195</ele>
        <time>2018-08-22T10:04:24Z</time>
      </trkpt>
      <trkpt lat="46.01065" lon="4.70647">
        <ele>195</ele>
        <time>2018-08-22T10:04:25Z</time>
      </trkpt>
      <trkpt lat="46.01056" lon="4.70644">
        <ele>195</ele>
        <time>2018-08-22T10:04:27Z</time>
      </trkpt>
      <trkpt lat="46.01051" lon="4.7064">
        <ele>195</ele>
        <time>2018-08-22T10:04:28Z</time>
      </trkpt>
      <trkpt lat="46.01044" lon="4.70636">
        <ele>195</ele>
        <time>2018-08-22T10:04:30Z</time>
      </trkpt>
      <trkpt lat="46.01037" lon="4.70636">
        <ele>196</ele>
        <time>2018-08-22T10:04:31Z</time>
      </trkpt>
      <trkpt lat="46.01033" lon="4.70636">
        <ele>196</ele>
        <time>2018-08-22T10:04:32Z</time>
      </trkpt>
      <trkpt lat="46.01026" lon="4.70634">
        <ele>196</ele>
        <time>2018-08-22T10:04:33Z</time>
      </trkpt>
      <trkpt lat="46.01018" lon="4.70632">
        <ele>196</ele>
        <time>2018-08-22T10:04:35Z</time>
      </trkpt>
      <trkpt lat="46.01012" lon="4.7063">
        <ele>196</ele>
        <time>2018-08-22T10:04:36Z</time>
      </trkpt>
      <trkpt lat="46.01007" lon="4.70629">
        <ele>196</ele>
        <time>2018-08-22T10:04:37Z</time>
      </trkpt>
      <trkpt lat="46.01003" lon="4.70627">
        <ele>196</ele>
        <time>2018-08-22T10:04:38Z</time>
      </trkpt>
      <trkpt lat="46.00994" lon="4.70623">
        <ele>197</ele>
        <time>2018-08-22T10:04:40Z</time>
      </trkpt>
      <trkpt lat="46.0099" lon="4.7062">
        <ele>197</ele>
        <time>2018-08-22T10:04:41Z</time>
      </trkpt>
      <trkpt lat="46.00982" lon="4.70617">
        <ele>197</ele>
        <time>2018-08-22T10:04:43Z</time>
      </trkpt>
      <trkpt lat="46.00977" lon="4.70615">
        <ele>197</ele>
        <time>2018-08-22T10:04:44Z</time>
      </trkpt>
      <trkpt lat="46.00974" lon="4.70615">
        <ele>197</ele>
        <time>2018-08-22T10:04:45Z</time>
      </trkpt>
      <trkpt lat="46.00968" lon="4.70612">
        <ele>197</ele>
        <time>2018-08-22T10:04:46Z</time>
      </trkpt>
      <trkpt lat="46.00961" lon="4.70609">
        <ele>197</ele>
        <time>2018-08-22T10:04:48Z</time>
      </trkpt>
      <trkpt lat="46.00957" lon="4.70607">
        <ele>197</ele>
        <time>2018-08-22T10:04:49Z</time>
      </trkpt>
      <trkpt lat="46.00951" lon="4.70602">
        <ele>197</ele>
        <time>2018-08-22T10:04:51Z</time>
      </trkpt>
      <trkpt lat="46.00947" lon="4.706">
        <ele>197</ele>
        <time>2018-08-22T10:04:52Z</time>
      </trkpt>
      <trkpt lat="46.00939" lon="4.70597">
        <ele>198</ele>
        <time>2018-08-22T10:04:54Z</time>
      </trkpt>
      <trkpt lat="46.00935" lon="4.70595">
        <ele>198</ele>
        <time>2018-08-22T10:04:55Z</time>
      </trkpt>
      <trkpt lat="46.00927" lon="4.70591">
        <ele>198</ele>
        <time>2018-08-22T10:04:57Z</time>
      </trkpt>
      <trkpt lat="46.00926" lon="4.7059">
        <ele>198</ele>
        <time>2018-08-22T10:04:58Z</time>
      </trkpt>
      <trkpt lat="46.00921" lon="4.70587">
        <ele>198</ele>
        <time>2018-08-22T10:04:59Z</time>
      </trkpt>
      <trkpt lat="46.00917" lon="4.70584">
        <ele>198</ele>
        <time>2018-08-22T10:05:00Z</time>
      </trkpt>
      <trkpt lat="46.0091" lon="4.7058">
        <ele>199</ele>
        <time>2018-08-22T10:05:02Z</time>
      </trkpt>
      <trkpt lat="46.00907" lon="4.70578">
        <ele>199</ele>
        <time>2018-08-22T10:05:03Z</time>
      </trkpt>
      <trkpt lat="46.009" lon="4.70575">
        <ele>200</ele>
        <time>2018-08-22T10:05:05Z</time>
      </trkpt>
      <trkpt lat="46.00897" lon="4.70573">
        <ele>200</ele>
        <time>2018-08-22T10:05:06Z</time>
      </trkpt>
      <trkpt lat="46.00894" lon="4.70572">
        <ele>200</ele>
        <time>2018-08-22T10:05:08Z</time>
      </trkpt>
      <trkpt lat="46.00888" lon="4.7057">
        <ele>200</ele>
        <time>2018-08-22T10:05:09Z</time>
      </trkpt>
      <trkpt lat="46.00881" lon="4.70567">
        <ele>200</ele>
        <time>2018-08-22T10:05:11Z</time>
      </trkpt>
      <trkpt lat="46.00877" lon="4.70564">
        <ele>200</ele>
        <time>2018-08-22T10:05:12Z</time>
      </trkpt>
      <trkpt lat="46.0087" lon="4.7056">
        <ele>201</ele>
        <time>2018-08-22T10:05:14Z</time>
      </trkpt>
      <trkpt lat="46.00868" lon="4.70559">
        <ele>201</ele>
        <time>2018-08-22T10:05:15Z</time>
      </trkpt>
      <trkpt lat="46.00863" lon="4.70556">
        <ele>201</ele>
        <time>2018-08-22T10:05:16Z</time>
      </trkpt>
      <trkpt lat="46.0086" lon="4.70554">
        <ele>201</ele>
        <time>2018-08-22T10:05:17Z</time>
      </trkpt>
      <trkpt lat="46.00854" lon="4.7055">
        <ele>201</ele>
        <time>2018-08-22T10:05:19Z</time>
      </trkpt>
      <trkpt lat="46.0085" lon="4.70548">
        <ele>201</ele>
        <time>2018-08-22T10:05:20Z</time>
      </trkpt>
      <trkpt lat="46.00843" lon="4.70545">
        <ele>201</ele>
        <time>2018-08-22T10:05:22Z</time>
      </trkpt>
      <trkpt lat="46.00839" lon="4.70543">
        <ele>201</ele>
        <time>2018-08-22T10:05:23Z</time>
      </trkpt>
      <trkpt lat="46.00833" lon="4.70539">
        <ele>203</ele>
        <time>2018-08-22T10:05:25Z</time>
      </trkpt>
      <trkpt lat="46.00828" lon="4.70537">
        <ele>203</ele>
        <time>2018-08-22T10:05:26Z</time>
      </trkpt>
      <trkpt lat="46.00821" lon="4.70534">
        <ele>204</ele>
        <time>2018-08-22T10:05:28Z</time>
      </trkpt>
      <trkpt lat="46.00817" lon="4.70532">
        <ele>204</ele>
        <time>2018-08-22T10:05:29Z</time>
      </trkpt>
      <trkpt lat="46.00809" lon="4.70528">
        <ele>204</ele>
        <time>2018-08-22T10:05:31Z</time>
      </trkpt>
      <trkpt lat="46.00804" lon="4.70528">
        <ele>204</ele>
        <time>2018-08-22T10:05:32Z</time>
      </trkpt>
      <trkpt lat="46.00799" lon="4.70525">
        <ele>204</ele>
        <time>2018-08-22T10:05:33Z</time>
      </trkpt>
      <trkpt lat="46.00795" lon="4.70523">
        <ele>204</ele>
        <time>2018-08-22T10:05:34Z</time>
      </trkpt>
      <trkpt lat="46.0079" lon="4.7052">
        <ele>204</ele>
        <time>2018-08-22T10:05:35Z</time>
      </trkpt>
      <trkpt lat="46.00785" lon="4.70518">
        <ele>204</ele>
        <time>2018-08-22T10:05:36Z</time>
      </trkpt>
      <trkpt lat="46.00781" lon="4.70514">
        <ele>205</ele>
        <time>2018-08-22T10:05:37Z</time>
      </trkpt>
      <trkpt lat="46.00777" lon="4.70512">
        <ele>205</ele>
        <time>2018-08-22T10:05:38Z</time>
      </trkpt>
      <trkpt lat="46.00769" lon="4.70506">
        <ele>206</ele>
        <time>2018-08-22T10:05:40Z</time>
      </trkpt>
      <trkpt lat="46.00764" lon="4.70503">
        <ele>206</ele>
        <time>2018-08-22T10:05:41Z</time>
      </trkpt>
      <trkpt lat="46.00761" lon="4.70502">
        <ele>206</ele>
        <time>2018-08-22T10:05:42Z</time>
      </trkpt>
      <trkpt lat="46.00754" lon="4.70499">
        <ele>208</ele>
        <time>2018-08-22T10:05:43Z</time>
      </trkpt>
      <trkpt lat="46.00746" lon="4.70496">
        <ele>209</ele>
        <time>2018-08-22T10:05:45Z</time>
      </trkpt>
      <trkpt lat="46.00742" lon="4.70495">
        <ele>209</ele>
        <time>2018-08-22T10:05:46Z</time>
      </trkpt>
      <trkpt lat="46.00734" lon="4.70493">
        <ele>209</ele>
        <time>2018-08-22T10:05:48Z</time>
      </trkpt>
      <trkpt lat="46.0073" lon="4.70494">
        <ele>210</ele>
        <time>2018-08-22T10:05:49Z</time>
      </trkpt>
      <trkpt lat="46.00722" lon="4.70493">
        <ele>210</ele>
        <time>2018-08-22T10:05:51Z</time>
      </trkpt>
      <trkpt lat="46.00718" lon="4.70492">
        <ele>210</ele>
        <time>2018-08-22T10:05:52Z</time>
      </trkpt>
      <trkpt lat="46.0071" lon="4.70492">
        <ele>210</ele>
        <time>2018-08-22T10:05:54Z</time>
      </trkpt>
      <trkpt lat="46.00706" lon="4.70492">
        <ele>211</ele>
        <time>2018-08-22T10:05:55Z</time>
      </trkpt>
      <trkpt lat="46.00698" lon="4.70494">
        <ele>211</ele>
        <time>2018-08-22T10:05:57Z</time>
      </trkpt>
      <trkpt lat="46.00694" lon="4.70493">
        <ele>211</ele>
        <time>2018-08-22T10:05:58Z</time>
      </trkpt>
      <trkpt lat="46.0069" lon="4.70494">
        <ele>211</ele>
        <time>2018-08-22T10:06:00Z</time>
      </trkpt>
      <trkpt lat="46.00683" lon="4.70495">
        <ele>211</ele>
        <time>2018-08-22T10:06:01Z</time>
      </trkpt>
      <trkpt lat="46.00674" lon="4.70494">
        <ele>212</ele>
        <time>2018-08-22T10:06:03Z</time>
      </trkpt>
      <trkpt lat="46.0067" lon="4.70494">
        <ele>212</ele>
        <time>2018-08-22T10:06:04Z</time>
      </trkpt>
      <trkpt lat="46.00661" lon="4.70495">
        <ele>212</ele>
        <time>2018-08-22T10:06:06Z</time>
      </trkpt>
      <trkpt lat="46.00657" lon="4.70494">
        <ele>212</ele>
        <time>2018-08-22T10:06:07Z</time>
      </trkpt>
      <trkpt lat="46.00652" lon="4.70494">
        <ele>212</ele>
        <time>2018-08-22T10:06:08Z</time>
      </trkpt>
      <trkpt lat="46.00647" lon="4.70494">
        <ele>211</ele>
        <time>2018-08-22T10:06:09Z</time>
      </trkpt>
      <trkpt lat="46.0064" lon="4.70493">
        <ele>211</ele>
        <time>2018-08-22T10:06:11Z</time>
      </trkpt>
      <trkpt lat="46.00637" lon="4.70492">
        <ele>211</ele>
        <time>2018-08-22T10:06:12Z</time>
      </trkpt>
      <trkpt lat="46.00632" lon="4.70493">
        <ele>211</ele>
        <time>2018-08-22T10:06:14Z</time>
      </trkpt>
      <trkpt lat="46.00626" lon="4.70495">
        <ele>211</ele>
        <time>2018-08-22T10:06:15Z</time>
      </trkpt>
      <trkpt lat="46.00622" lon="4.70493">
        <ele>211</ele>
        <time>2018-08-22T10:06:16Z</time>
      </trkpt>
      <trkpt lat="46.00617" lon="4.70493">
        <ele>210</ele>
        <time>2018-08-22T10:06:17Z</time>
      </trkpt>
      <trkpt lat="46.00609" lon="4.70492">
        <ele>210</ele>
        <time>2018-08-22T10:06:19Z</time>
      </trkpt>
      <trkpt lat="46.00605" lon="4.7049">
        <ele>210</ele>
        <time>2018-08-22T10:06:20Z</time>
      </trkpt>
      <trkpt lat="46.00601" lon="4.70487">
        <ele>210</ele>
        <time>2018-08-22T10:06:21Z</time>
      </trkpt>
      <trkpt lat="46.00595" lon="4.70491">
        <ele>209</ele>
        <time>2018-08-22T10:06:22Z</time>
      </trkpt>
      <trkpt lat="46.00589" lon="4.70492">
        <ele>208</ele>
        <time>2018-08-22T10:06:23Z</time>
      </trkpt>
      <trkpt lat="46.00584" lon="4.7049">
        <ele>208</ele>
        <time>2018-08-22T10:06:24Z</time>
      </trkpt>
      <trkpt lat="46.00578" lon="4.70492">
        <ele>207</ele>
        <time>2018-08-22T10:06:25Z</time>
      </trkpt>
      <trkpt lat="46.0057" lon="4.70496">
        <ele>207</ele>
        <time>2018-08-22T10:06:26Z</time>
      </trkpt>
      <trkpt lat="46.00565" lon="4.70497">
        <ele>207</ele>
        <time>2018-08-22T10:06:27Z</time>
      </trkpt>
      <trkpt lat="46.00558" lon="4.705">
        <ele>205</ele>
        <time>2018-08-22T10:06:28Z</time>
      </trkpt>
      <trkpt lat="46.00551" lon="4.70502">
        <ele>204</ele>
        <time>2018-08-22T10:06:29Z</time>
      </trkpt>
      <trkpt lat="46.00545" lon="4.70504">
        <ele>204</ele>
        <time>2018-08-22T10:06:30Z</time>
      </trkpt>
      <trkpt lat="46.00538" lon="4.70502">
        <ele>204</ele>
        <time>2018-08-22T10:06:31Z</time>
      </trkpt>
      <trkpt lat="46.00531" lon="4.70501">
        <ele>204</ele>
        <time>2018-08-22T10:06:32Z</time>
      </trkpt>
      <trkpt lat="46.00524" lon="4.70504">
        <ele>204</ele>
        <time>2018-08-22T10:06:33Z</time>
      </trkpt>
      <trkpt lat="46.00517" lon="4.70504">
        <ele>204</ele>
        <time>2018-08-22T10:06:34Z</time>
      </trkpt>
      <trkpt lat="46.00511" lon="4.70507">
        <ele>204</ele>
        <time>2018-08-22T10:06:35Z</time>
      </trkpt>
      <trkpt lat="46.00505" lon="4.70507">
        <ele>204</ele>
        <time>2018-08-22T10:06:36Z</time>
      </trkpt>
      <trkpt lat="46.00499" lon="4.70507">
        <ele>203</ele>
        <time>2018-08-22T10:06:37Z</time>
      </trkpt>
      <trkpt lat="46.00494" lon="4.70506">
        <ele>203</ele>
        <time>2018-08-22T10:06:38Z</time>
      </trkpt>
      <trkpt lat="46.00488" lon="4.70505">
        <ele>202</ele>
        <time>2018-08-22T10:06:39Z</time>
      </trkpt>
      <trkpt lat="46.00481" lon="4.70504">
        <ele>202</ele>
        <time>2018-08-22T10:06:40Z</time>
      </trkpt>
      <trkpt lat="46.00475" lon="4.70503">
        <ele>202</ele>
        <time>2018-08-22T10:06:41Z</time>
      </trkpt>
      <trkpt lat="46.00468" lon="4.70502">
        <ele>201</ele>
        <time>2018-08-22T10:06:42Z</time>
      </trkpt>
      <trkpt lat="46.00466" lon="4.705">
        <ele>201</ele>
        <time>2018-08-22T10:06:43Z</time>
      </trkpt>
      <trkpt lat="46.00458" lon="4.70497">
        <ele>203</ele>
        <time>2018-08-22T10:06:44Z</time>
      </trkpt>
      <trkpt lat="46.00451" lon="4.70494">
        <ele>203</ele>
        <time>2018-08-22T10:06:45Z</time>
      </trkpt>
      <trkpt lat="46.00444" lon="4.70492">
        <ele>202</ele>
        <time>2018-08-22T10:06:46Z</time>
      </trkpt>
      <trkpt lat="46.00438" lon="4.70491">
        <ele>202</ele>
        <time>2018-08-22T10:06:47Z</time>
      </trkpt>
      <trkpt lat="46.00433" lon="4.70493">
        <ele>202</ele>
        <time>2018-08-22T10:06:48Z</time>
      </trkpt>
      <trkpt lat="46.00425" lon="4.70492">
        <ele>201</ele>
        <time>2018-08-22T10:06:49Z</time>
      </trkpt>
      <trkpt lat="46.00418" lon="4.7049">
        <ele>201</ele>
        <time>2018-08-22T10:06:50Z</time>
      </trkpt>
      <trkpt lat="46.00413" lon="4.70488">
        <ele>200</ele>
        <time>2018-08-22T10:06:51Z</time>
      </trkpt>
      <trkpt lat="46.00405" lon="4.70487">
        <ele>200</ele>
        <time>2018-08-22T10:06:52Z</time>
      </trkpt>
      <trkpt lat="46.00398" lon="4.70486">
        <ele>200</ele>
        <time>2018-08-22T10:06:53Z</time>
      </trkpt>
      <trkpt lat="46.00392" lon="4.70486">
        <ele>200</ele>
        <time>2018-08-22T10:06:54Z</time>
      </trkpt>
      <trkpt lat="46.00386" lon="4.70486">
        <ele>200</ele>
        <time>2018-08-22T10:06:55Z</time>
      </trkpt>
      <trkpt lat="46.0038" lon="4.70487">
        <ele>200</ele>
        <time>2018-08-22T10:06:56Z</time>
      </trkpt>
      <trkpt lat="46.00375" lon="4.70488">
        <ele>200</ele>
        <time>2018-08-22T10:06:57Z</time>
      </trkpt>
      <trkpt lat="46.00369" lon="4.70489">
        <ele>200</ele>
        <time>2018-08-22T10:06:58Z</time>
      </trkpt>
      <trkpt lat="46.00364" lon="4.7049">
        <ele>200</ele>
        <time>2018-08-22T10:06:59Z</time>
      </trkpt>
      <trkpt lat="46.00358" lon="4.7049">
        <ele>200</ele>
        <time>2018-08-22T10:07:00Z</time>
      </trkpt>
      <trkpt lat="46.00352" lon="4.70492">
        <ele>200</ele>
        <time>2018-08-22T10:07:01Z</time>
      </trkpt>
      <trkpt lat="46.00346" lon="4.70493">
        <ele>199</ele>
        <time>2018-08-22T10:07:02Z</time>
      </trkpt>
      <trkpt lat="46.0034" lon="4.70495">
        <ele>199</ele>
        <time>2018-08-22T10:07:03Z</time>
      </trkpt>
      <trkpt lat="46.00332" lon="4.70492">
        <ele>198</ele>
        <time>2018-08-22T10:07:04Z</time>
      </trkpt>
      <trkpt lat="46.00327" lon="4.70498">
        <ele>198</ele>
        <time>2018-08-22T10:07:05Z</time>
      </trkpt>
      <trkpt lat="46.00321" lon="4.70499">
        <ele>199</ele>
        <time>2018-08-22T10:07:06Z</time>
      </trkpt>
      <trkpt lat="46.00314" lon="4.705">
        <ele>198</ele>
        <time>2018-08-22T10:07:07Z</time>
      </trkpt>
      <trkpt lat="46.00309" lon="4.70505">
        <ele>197</ele>
        <time>2018-08-22T10:07:08Z</time>
      </trkpt>
      <trkpt lat="46.00303" lon="4.70507">
        <ele>197</ele>
        <time>2018-08-22T10:07:09Z</time>
      </trkpt>
      <trkpt lat="46.00298" lon="4.7051">
        <ele>197</ele>
        <time>2018-08-22T10:07:10Z</time>
      </trkpt>
      <trkpt lat="46.00293" lon="4.70511">
        <ele>197</ele>
        <time>2018-08-22T10:07:11Z</time>
      </trkpt>
      <trkpt lat="46.00287" lon="4.70511">
        <ele>197</ele>
        <time>2018-08-22T10:07:12Z</time>
      </trkpt>
      <trkpt lat="46.00281" lon="4.70515">
        <ele>197</ele>
        <time>2018-08-22T10:07:13Z</time>
      </trkpt>
      <trkpt lat="46.00274" lon="4.70515">
        <ele>197</ele>
        <time>2018-08-22T10:07:14Z</time>
      </trkpt>
      <trkpt lat="46.00269" lon="4.70516">
        <ele>197</ele>
        <time>2018-08-22T10:07:15Z</time>
      </trkpt>
      <trkpt lat="46.00262" lon="4.70519">
        <ele>197</ele>
        <time>2018-08-22T10:07:16Z</time>
      </trkpt>
      <trkpt lat="46.00257" lon="4.70517">
        <ele>197</ele>
        <time>2018-08-22T10:07:17Z</time>
      </trkpt>
      <trkpt lat="46.0025" lon="4.70518">
        <ele>198</ele>
        <time>2018-08-22T10:07:18Z</time>
      </trkpt>
      <trkpt lat="46.00244" lon="4.70519">
        <ele>198</ele>
        <time>2018-08-22T10:07:19Z</time>
      </trkpt>
      <trkpt lat="46.0024" lon="4.70518">
        <ele>198</ele>
        <time>2018-08-22T10:07:20Z</time>
      </trkpt>
      <trkpt lat="46.00234" lon="4.70521">
        <ele>198</ele>
        <time>2018-08-22T10:07:21Z</time>
      </trkpt>
      <trkpt lat="46.00228" lon="4.70522">
        <ele>198</ele>
        <time>2018-08-22T10:07:22Z</time>
      </trkpt>
      <trkpt lat="46.00222" lon="4.70525">
        <ele>198</ele>
        <time>2018-08-22T10:07:23Z</time>
      </trkpt>
      <trkpt lat="46.00216" lon="4.70526">
        <ele>198</ele>
        <time>2018-08-22T10:07:24Z</time>
      </trkpt>
      <trkpt lat="46.00211" lon="4.70527">
        <ele>198</ele>
        <time>2018-08-22T10:07:25Z</time>
      </trkpt>
      <trkpt lat="46.00204" lon="4.70527">
        <ele>198</ele>
        <time>2018-08-22T10:07:26Z</time>
      </trkpt>
      <trkpt lat="46.00199" lon="4.70525">
        <ele>198</ele>
        <time>2018-08-22T10:07:27Z</time>
      </trkpt>
      <trkpt lat="46.00193" lon="4.70524">
        <ele>198</ele>
        <time>2018-08-22T10:07:28Z</time>
      </trkpt>
      <trkpt lat="46.00187" lon="4.70526">
        <ele>198</ele>
        <time>2018-08-22T10:07:29Z</time>
      </trkpt>
      <trkpt lat="46.00182" lon="4.70528">
        <ele>198</ele>
        <time>2018-08-22T10:07:30Z</time>
      </trkpt>
      <trkpt lat="46.00176" lon="4.70527">
        <ele>198</ele>
        <time>2018-08-22T10:07:31Z</time>
      </trkpt>
      <trkpt lat="46.0017" lon="4.70525">
        <ele>198</ele>
        <time>2018-08-22T10:07:32Z</time>
      </trkpt>
      <trkpt lat="46.00165" lon="4.70522">
        <ele>198</ele>
        <time>2018-08-22T10:07:33Z</time>
      </trkpt>
      <trkpt lat="46.0016" lon="4.70518">
        <ele>198</ele>
        <time>2018-08-22T10:07:34Z</time>
      </trkpt>
      <trkpt lat="46.00152" lon="4.70514">
        <ele>198</ele>
        <time>2018-08-22T10:07:36Z</time>
      </trkpt>
      <trkpt lat="46.00149" lon="4.70515">
        <ele>198</ele>
        <time>2018-08-22T10:07:37Z</time>
      </trkpt>
      <trkpt lat="46.00143" lon="4.70517">
        <ele>198</ele>
        <time>2018-08-22T10:07:38Z</time>
      </trkpt>
      <trkpt lat="46.0014" lon="4.70523">
        <ele>198</ele>
        <time>2018-08-22T10:07:39Z</time>
      </trkpt>
      <trkpt lat="46.00137" lon="4.70528">
        <ele>198</ele>
        <time>2018-08-22T10:07:40Z</time>
      </trkpt>
      <trkpt lat="46.00136" lon="4.70537">
        <ele>198</ele>
        <time>2018-08-22T10:07:41Z</time>
      </trkpt>
      <trkpt lat="46.00134" lon="4.70545">
        <ele>198</ele>
        <time>2018-08-22T10:07:42Z</time>
      </trkpt>
      <trkpt lat="46.00131" lon="4.70552">
        <ele>198</ele>
        <time>2018-08-22T10:07:43Z</time>
      </trkpt>
      <trkpt lat="46.00128" lon="4.70559">
        <ele>198</ele>
        <time>2018-08-22T10:07:44Z</time>
      </trkpt>
      <trkpt lat="46.00124" lon="4.70563">
        <ele>198</ele>
        <time>2018-08-22T10:07:45Z</time>
      </trkpt>
      <trkpt lat="46.00118" lon="4.70568">
        <ele>198</ele>
        <time>2018-08-22T10:07:46Z</time>
      </trkpt>
      <trkpt lat="46.00114" lon="4.7057">
        <ele>198</ele>
        <time>2018-08-22T10:07:47Z</time>
      </trkpt>
      <trkpt lat="46.00108" lon="4.70574">
        <ele>198</ele>
        <time>2018-08-22T10:07:48Z</time>
      </trkpt>
      <trkpt lat="46.00103" lon="4.70576">
        <ele>198</ele>
        <time>2018-08-22T10:07:49Z</time>
      </trkpt>
      <trkpt lat="46.00099" lon="4.70581">
        <ele>198</ele>
        <time>2018-08-22T10:07:50Z</time>
      </trkpt>
      <trkpt lat="46.00093" lon="4.70585">
        <ele>198</ele>
        <time>2018-08-22T10:07:51Z</time>
      </trkpt>
      <trkpt lat="46.00084" lon="4.70585">
        <ele>198</ele>
        <time>2018-08-22T10:07:52Z</time>
      </trkpt>
      <trkpt lat="46.00078" lon="4.70584">
        <ele>198</ele>
        <time>2018-08-22T10:07:53Z</time>
      </trkpt>
      <trkpt lat="46.00073" lon="4.70587">
        <ele>198</ele>
        <time>2018-08-22T10:07:54Z</time>
      </trkpt>
      <trkpt lat="46.00068" lon="4.70588">
        <ele>198</ele>
        <time>2018-08-22T10:07:55Z</time>
      </trkpt>
      <trkpt lat="46.00064" lon="4.7059">
        <ele>198</ele>
        <time>2018-08-22T10:07:56Z</time>
      </trkpt>
      <trkpt lat="46.00057" lon="4.70589">
        <ele>198</ele>
        <time>2018-08-22T10:07:57Z</time>
      </trkpt>
      <trkpt lat="46.0005" lon="4.70593">
        <ele>198</ele>
        <time>2018-08-22T10:07:59Z</time>
      </trkpt>
      <trkpt lat="46.00047" lon="4.70594">
        <ele>198</ele>
        <time>2018-08-22T10:08:00Z</time>
      </trkpt>
      <trkpt lat="46.0004" lon="4.70597">
        <ele>199</ele>
        <time>2018-08-22T10:08:02Z</time>
      </trkpt>
      <trkpt lat="46.00034" lon="4.70602">
        <ele>199</ele>
        <time>2018-08-22T10:08:03Z</time>
      </trkpt>
      <trkpt lat="46.00026" lon="4.70605">
        <ele>199</ele>
        <time>2018-08-22T10:08:05Z</time>
      </trkpt>
      <trkpt lat="46.0002" lon="4.70607">
        <ele>199</ele>
        <time>2018-08-22T10:08:06Z</time>
      </trkpt>
      <trkpt lat="46.00015" lon="4.70607">
        <ele>199</ele>
        <time>2018-08-22T10:08:07Z</time>
      </trkpt>
      <trkpt lat="46.00008" lon="4.70607">
        <ele>199</ele>
        <time>2018-08-22T10:08:08Z</time>
      </trkpt>
      <trkpt lat="46.00002" lon="4.70608">
        <ele>199</ele>
        <time>2018-08-22T10:08:09Z</time>
      </trkpt>
      <trkpt lat="45.99996" lon="4.70609">
        <ele>199</ele>
        <time>2018-08-22T10:08:10Z</time>
      </trkpt>
      <trkpt lat="45.99989" lon="4.7061">
        <ele>199</ele>
        <time>2018-08-22T10:08:11Z</time>
      </trkpt>
      <trkpt lat="45.99984" lon="4.70611">
        <ele>199</ele>
        <time>2018-08-22T10:08:12Z</time>
      </trkpt>
      <trkpt lat="45.99977" lon="4.70611">
        <ele>199</ele>
        <time>2018-08-22T10:08:13Z</time>
      </trkpt>
      <trkpt lat="45.99971" lon="4.70611">
        <ele>199</ele>
        <time>2018-08-22T10:08:14Z</time>
      </trkpt>
      <trkpt lat="45.99965" lon="4.7061">
        <ele>199</ele>
        <time>2018-08-22T10:08:15Z</time>
      </trkpt>
      <trkpt lat="45.99958" lon="4.70611">
        <ele>199</ele>
        <time>2018-08-22T10:08:16Z</time>
      </trkpt>
      <trkpt lat="45.99952" lon="4.70609">
        <ele>199</ele>
        <time>2018-08-22T10:08:17Z</time>
      </trkpt>
      <trkpt lat="45.99949" lon="4.70615">
        <ele>199</ele>
        <time>2018-08-22T10:08:18Z</time>
      </trkpt>
      <trkpt lat="45.99942" lon="4.70619">
        <ele>199</ele>
        <time>2018-08-22T10:08:20Z</time>
      </trkpt>
      <trkpt lat="45.99939" lon="4.70623">
        <ele>199</ele>
        <time>2018-08-22T10:08:21Z</time>
      </trkpt>
      <trkpt lat="45.99934" lon="4.70621">
        <ele>199</ele>
        <time>2018-08-22T10:08:22Z</time>
      </trkpt>
      <trkpt lat="45.99929" lon="4.7062">
        <ele>199</ele>
        <time>2018-08-22T10:08:23Z</time>
      </trkpt>
      <trkpt lat="45.99925" lon="4.70623">
        <ele>199</ele>
        <time>2018-08-22T10:08:24Z</time>
      </trkpt>
      <trkpt lat="45.99919" lon="4.70623">
        <ele>199</ele>
        <time>2018-08-22T10:08:25Z</time>
      </trkpt>
      <trkpt lat="45.99914" lon="4.70624">
        <ele>200</ele>
        <time>2018-08-22T10:08:26Z</time>
      </trkpt>
      <trkpt lat="45.9991" lon="4.7063">
        <ele>200</ele>
        <time>2018-08-22T10:08:27Z</time>
      </trkpt>
      <trkpt lat="45.99905" lon="4.70631">
        <ele>200</ele>
        <time>2018-08-22T10:08:28Z</time>
      </trkpt>
      <trkpt lat="45.999" lon="4.70632">
        <ele>200</ele>
        <time>2018-08-22T10:08:29Z</time>
      </trkpt>
      <trkpt lat="45.99895" lon="4.70632">
        <ele>200</ele>
        <time>2018-08-22T10:08:30Z</time>
      </trkpt>
      <trkpt lat="45.9989" lon="4.70633">
        <ele>200</ele>
        <time>2018-08-22T10:08:31Z</time>
      </trkpt>
      <trkpt lat="45.99885" lon="4.70633">
        <ele>200</ele>
        <time>2018-08-22T10:08:32Z</time>
      </trkpt>
      <trkpt lat="45.99878" lon="4.70634">
        <ele>201</ele>
        <time>2018-08-22T10:08:33Z</time>
      </trkpt>
      <trkpt lat="45.99873" lon="4.70635">
        <ele>201</ele>
        <time>2018-08-22T10:08:34Z</time>
      </trkpt>
      <trkpt lat="45.99867" lon="4.70636">
        <ele>201</ele>
        <time>2018-08-22T10:08:35Z</time>
      </trkpt>
      <trkpt lat="45.99862" lon="4.70636">
        <ele>201</ele>
        <time>2018-08-22T10:08:36Z</time>
      </trkpt>
      <trkpt lat="45.99856" lon="4.70637">
        <ele>201</ele>
        <time>2018-08-22T10:08:37Z</time>
      </trkpt>
      <trkpt lat="45.99852" lon="4.70638">
        <ele>201</ele>
        <time>2018-08-22T10:08:38Z</time>
      </trkpt>
      <trkpt lat="45.99847" lon="4.70641">
        <ele>201</ele>
        <time>2018-08-22T10:08:39Z</time>
      </trkpt>
      <trkpt lat="45.99839" lon="4.7064">
        <ele>201</ele>
        <time>2018-08-22T10:08:41Z</time>
      </trkpt>
      <trkpt lat="45.99834" lon="4.70641">
        <ele>201</ele>
        <time>2018-08-22T10:08:42Z</time>
      </trkpt>
      <trkpt lat="45.9983" lon="4.70642">
        <ele>202</ele>
        <time>2018-08-22T10:08:43Z</time>
      </trkpt>
      <trkpt lat="45.99823" lon="4.70642">
        <ele>202</ele>
        <time>2018-08-22T10:08:44Z</time>
      </trkpt>
      <trkpt lat="45.99817" lon="4.70644">
        <ele>202</ele>
        <time>2018-08-22T10:08:46Z</time>
      </trkpt>
      <trkpt lat="45.99812" lon="4.70645">
        <ele>202</ele>
        <time>2018-08-22T10:08:47Z</time>
      </trkpt>
      <trkpt lat="45.99807" lon="4.70647">
        <ele>202</ele>
        <time>2018-08-22T10:08:48Z</time>
      </trkpt>
      <trkpt lat="45.99801" lon="4.70649">
        <ele>202</ele>
        <time>2018-08-22T10:08:49Z</time>
      </trkpt>
      <trkpt lat="45.99796" lon="4.7065">
        <ele>202</ele>
        <time>2018-08-22T10:08:50Z</time>
      </trkpt>
      <trkpt lat="45.99792" lon="4.70655">
        <ele>202</ele>
        <time>2018-08-22T10:08:51Z</time>
      </trkpt>
      <trkpt lat="45.99786" lon="4.70657">
        <ele>202</ele>
        <time>2018-08-22T10:08:52Z</time>
      </trkpt>
      <trkpt lat="45.99782" lon="4.70659">
        <ele>202</ele>
        <time>2018-08-22T10:08:53Z</time>
      </trkpt>
      <trkpt lat="45.99777" lon="4.7066">
        <ele>202</ele>
        <time>2018-08-22T10:08:54Z</time>
      </trkpt>
      <trkpt lat="45.99771" lon="4.7066">
        <ele>202</ele>
        <time>2018-08-22T10:08:55Z</time>
      </trkpt>
      <trkpt lat="45.99766" lon="4.70662">
        <ele>202</ele>
        <time>2018-08-22T10:08:56Z</time>
      </trkpt>
      <trkpt lat="45.99761" lon="4.70664">
        <ele>202</ele>
        <time>2018-08-22T10:08:57Z</time>
      </trkpt>
      <trkpt lat="45.99753" lon="4.70664">
        <ele>202</ele>
        <time>2018-08-22T10:08:59Z</time>
      </trkpt>
      <trkpt lat="45.99752" lon="4.70665">
        <ele>202</ele>
        <time>2018-08-22T10:09:00Z</time>
      </trkpt>
      <trkpt lat="45.99745" lon="4.70666">
        <ele>202</ele>
        <time>2018-08-22T10:09:01Z</time>
      </trkpt>
      <trkpt lat="45.99741" lon="4.70667">
        <ele>202</ele>
        <time>2018-08-22T10:09:02Z</time>
      </trkpt>
      <trkpt lat="45.99736" lon="4.70668">
        <ele>202</ele>
        <time>2018-08-22T10:09:03Z</time>
      </trkpt>
      <trkpt lat="45.99731" lon="4.70669">
        <ele>202</ele>
        <time>2018-08-22T10:09:04Z</time>
      </trkpt>
      <trkpt lat="45.99725" lon="4.70669">
        <ele>202</ele>
        <time>2018-08-22T10:09:05Z</time>
      </trkpt>
      <trkpt lat="45.9972" lon="4.70669">
        <ele>201</ele>
        <time>2018-08-22T10:09:06Z</time>
      </trkpt>
      <trkpt lat="45.99714" lon="4.7067">
        <ele>201</ele>
        <time>2018-08-22T10:09:07Z</time>
      </trkpt>
      <trkpt lat="45.99709" lon="4.70671">
        <ele>201</ele>
        <time>2018-08-22T10:09:08Z</time>
      </trkpt>
      <trkpt lat="45.99703" lon="4.70672">
        <ele>201</ele>
        <time>2018-08-22T10:09:09Z</time>
      </trkpt>
      <trkpt lat="45.99699" lon="4.70672">
        <ele>201</ele>
        <time>2018-08-22T10:09:10Z</time>
      </trkpt>
      <trkpt lat="45.99694" lon="4.70674">
        <ele>201</ele>
        <time>2018-08-22T10:09:11Z</time>
      </trkpt>
      <trkpt lat="45.99689" lon="4.70676">
        <ele>201</ele>
        <time>2018-08-22T10:09:12Z</time>
      </trkpt>
      <trkpt lat="45.99683" lon="4.70678">
        <ele>201</ele>
        <time>2018-08-22T10:09:13Z</time>
      </trkpt>
      <trkpt lat="45.99679" lon="4.70681">
        <ele>201</ele>
        <time>2018-08-22T10:09:14Z</time>
      </trkpt>
      <trkpt lat="45.99673" lon="4.70682">
        <ele>201</ele>
        <time>2018-08-22T10:09:15Z</time>
      </trkpt>
      <trkpt lat="45.99667" lon="4.70682">
        <ele>201</ele>
        <time>2018-08-22T10:09:16Z</time>
      </trkpt>
      <trkpt lat="45.9966" lon="4.70683">
        <ele>201</ele>
        <time>2018-08-22T10:09:17Z</time>
      </trkpt>
      <trkpt lat="45.99656" lon="4.70685">
        <ele>201</ele>
        <time>2018-08-22T10:09:18Z</time>
      </trkpt>
      <trkpt lat="45.9965" lon="4.70686">
        <ele>201</ele>
        <time>2018-08-22T10:09:19Z</time>
      </trkpt>
      <trkpt lat="45.99645" lon="4.70688">
        <ele>200</ele>
        <time>2018-08-22T10:09:20Z</time>
      </trkpt>
      <trkpt lat="45.99639" lon="4.70688">
        <ele>200</ele>
        <time>2018-08-22T10:09:21Z</time>
      </trkpt>
      <trkpt lat="45.99633" lon="4.70689">
        <ele>200</ele>
        <time>2018-08-22T10:09:22Z</time>
      </trkpt>
      <trkpt lat="45.99627" lon="4.7069">
        <ele>200</ele>
        <time>2018-08-22T10:09:23Z</time>
      </trkpt>
      <trkpt lat="45.99622" lon="4.70691">
        <ele>200</ele>
        <time>2018-08-22T10:09:24Z</time>
      </trkpt>
      <trkpt lat="45.99618" lon="4.70694">
        <ele>200</ele>
        <time>2018-08-22T10:09:25Z</time>
      </trkpt>
      <trkpt lat="45.99613" lon="4.70701">
        <ele>200</ele>
        <time>2018-08-22T10:09:26Z</time>
      </trkpt>
      <trkpt lat="45.99609" lon="4.70703">
        <ele>200</ele>
        <time>2018-08-22T10:09:27Z</time>
      </trkpt>
      <trkpt lat="45.99603" lon="4.70703">
        <ele>200</ele>
        <time>2018-08-22T10:09:28Z</time>
      </trkpt>
      <trkpt lat="45.99597" lon="4.70703">
        <ele>200</ele>
        <time>2018-08-22T10:09:29Z</time>
      </trkpt>
      <trkpt lat="45.99593" lon="4.70704">
        <ele>200</ele>
        <time>2018-08-22T10:09:30Z</time>
      </trkpt>
      <trkpt lat="45.99584" lon="4.70706">
        <ele>200</ele>
        <time>2018-08-22T10:09:32Z</time>
      </trkpt>
      <trkpt lat="45.99578" lon="4.70706">
        <ele>200</ele>
        <time>2018-08-22T10:09:33Z</time>
      </trkpt>
      <trkpt lat="45.99573" lon="4.70705">
        <ele>200</ele>
        <time>2018-08-22T10:09:34Z</time>
      </trkpt>
      <trkpt lat="45.99568" lon="4.70705">
        <ele>200</ele>
        <time>2018-08-22T10:09:35Z</time>
      </trkpt>
      <trkpt lat="45.99562" lon="4.70706">
        <ele>200</ele>
        <time>2018-08-22T10:09:36Z</time>
      </trkpt>
      <trkpt lat="45.99559" lon="4.70711">
        <ele>200</ele>
        <time>2018-08-22T10:09:37Z</time>
      </trkpt>
      <trkpt lat="45.99553" lon="4.70712">
        <ele>200</ele>
        <time>2018-08-22T10:09:38Z</time>
      </trkpt>
      <trkpt lat="45.99546" lon="4.70713">
        <ele>199</ele>
        <time>2018-08-22T10:09:39Z</time>
      </trkpt>
      <trkpt lat="45.9954" lon="4.70714">
        <ele>199</ele>
        <time>2018-08-22T10:09:40Z</time>
      </trkpt>
      <trkpt lat="45.99534" lon="4.70716">
        <ele>199</ele>
        <time>2018-08-22T10:09:41Z</time>
      </trkpt>
      <trkpt lat="45.99528" lon="4.70718">
        <ele>199</ele>
        <time>2018-08-22T10:09:42Z</time>
      </trkpt>
      <trkpt lat="45.99523" lon="4.7072">
        <ele>199</ele>
        <time>2018-08-22T10:09:43Z</time>
      </trkpt>
      <trkpt lat="45.99517" lon="4.70721">
        <ele>199</ele>
        <time>2018-08-22T10:09:44Z</time>
      </trkpt>
      <trkpt lat="45.99511" lon="4.7072">
        <ele>199</ele>
        <time>2018-08-22T10:09:45Z</time>
      </trkpt>
      <trkpt lat="45.99504" lon="4.70721">
        <ele>199</ele>
        <time>2018-08-22T10:09:46Z</time>
      </trkpt>
      <trkpt lat="45.99499" lon="4.70723">
        <ele>199</ele>
        <time>2018-08-22T10:09:47Z</time>
      </trkpt>
      <trkpt lat="45.99493" lon="4.70724">
        <ele>199</ele>
        <time>2018-08-22T10:09:48Z</time>
      </trkpt>
      <trkpt lat="45.99488" lon="4.70725">
        <ele>199</ele>
        <time>2018-08-22T10:09:49Z</time>
      </trkpt>
      <trkpt lat="45.99482" lon="4.70726">
        <ele>199</ele>
        <time>2018-08-22T10:09:50Z</time>
      </trkpt>
      <trkpt lat="45.99477" lon="4.70725">
        <ele>199</ele>
        <time>2018-08-22T10:09:51Z</time>
      </trkpt>
      <trkpt lat="45.99472" lon="4.70725">
        <ele>199</ele>
        <time>2018-08-22T10:09:52Z</time>
      </trkpt>
      <trkpt lat="45.99466" lon="4.70725">
        <ele>200</ele>
        <time>2018-08-22T10:09:53Z</time>
      </trkpt>
      <trkpt lat="45.99462" lon="4.70732">
        <ele>200</ele>
        <time>2018-08-22T10:09:55Z</time>
      </trkpt>
      <trkpt lat="45.99454" lon="4.70731">
        <ele>200</ele>
        <time>2018-08-22T10:09:56Z</time>
      </trkpt>
      <trkpt lat="45.99448" lon="4.70731">
        <ele>200</ele>
        <time>2018-08-22T10:09:57Z</time>
      </trkpt>
      <trkpt lat="45.99442" lon="4.70731">
        <ele>200</ele>
        <time>2018-08-22T10:09:58Z</time>
      </trkpt>
      <trkpt lat="45.99435" lon="4.70728">
        <ele>200</ele>
        <time>2018-08-22T10:09:59Z</time>
      </trkpt>
      <trkpt lat="45.99429" lon="4.7073">
        <ele>200</ele>
        <time>2018-08-22T10:10:00Z</time>
      </trkpt>
      <trkpt lat="45.99423" lon="4.70729">
        <ele>200</ele>
        <time>2018-08-22T10:10:01Z</time>
      </trkpt>
      <trkpt lat="45.99416" lon="4.70727">
        <ele>199</ele>
        <time>2018-08-22T10:10:02Z</time>
      </trkpt>
      <trkpt lat="45.9941" lon="4.70727">
        <ele>199</ele>
        <time>2018-08-22T10:10:03Z</time>
      </trkpt>
      <trkpt lat="45.99404" lon="4.70726">
        <ele>199</ele>
        <time>2018-08-22T10:10:04Z</time>
      </trkpt>
      <trkpt lat="45.99399" lon="4.70727">
        <ele>199</ele>
        <time>2018-08-22T10:10:05Z</time>
      </trkpt>
      <trkpt lat="45.99393" lon="4.70728">
        <ele>199</ele>
        <time>2018-08-22T10:10:06Z</time>
      </trkpt>
      <trkpt lat="45.99386" lon="4.70724">
        <ele>199</ele>
        <time>2018-08-22T10:10:07Z</time>
      </trkpt>
      <trkpt lat="45.99381" lon="4.70724">
        <ele>198</ele>
        <time>2018-08-22T10:10:08Z</time>
      </trkpt>
      <trkpt lat="45.99376" lon="4.70724">
        <ele>198</ele>
        <time>2018-08-22T10:10:09Z</time>
      </trkpt>
      <trkpt lat="45.99371" lon="4.70719">
        <ele>198</ele>
        <time>2018-08-22T10:10:10Z</time>
      </trkpt>
      <trkpt lat="45.99365" lon="4.7072">
        <ele>198</ele>
        <time>2018-08-22T10:10:11Z</time>
      </trkpt>
      <trkpt lat="45.99358" lon="4.70715">
        <ele>198</ele>
        <time>2018-08-22T10:10:12Z</time>
      </trkpt>
      <trkpt lat="45.99356" lon="4.70724">
        <ele>198</ele>
        <time>2018-08-22T10:10:13Z</time>
      </trkpt>
      <trkpt lat="45.9935" lon="4.70722">
        <ele>197</ele>
        <time>2018-08-22T10:10:14Z</time>
      </trkpt>
      <trkpt lat="45.99342" lon="4.70719">
        <ele>197</ele>
        <time>2018-08-22T10:10:15Z</time>
      </trkpt>
      <trkpt lat="45.99337" lon="4.70719">
        <ele>197</ele>
        <time>2018-08-22T10:10:16Z</time>
      </trkpt>
      <trkpt lat="45.99329" lon="4.70716">
        <ele>196</ele>
        <time>2018-08-22T10:10:17Z</time>
      </trkpt>
      <trkpt lat="45.99324" lon="4.70715">
        <ele>196</ele>
        <time>2018-08-22T10:10:18Z</time>
      </trkpt>
      <trkpt lat="45.99317" lon="4.70712">
        <ele>196</ele>
        <time>2018-08-22T10:10:19Z</time>
      </trkpt>
      <trkpt lat="45.99312" lon="4.70712">
        <ele>196</ele>
        <time>2018-08-22T10:10:20Z</time>
      </trkpt>
      <trkpt lat="45.99308" lon="4.70712">
        <ele>196</ele>
        <time>2018-08-22T10:10:21Z</time>
      </trkpt>
      <trkpt lat="45.99303" lon="4.70712">
        <ele>196</ele>
        <time>2018-08-22T10:10:22Z</time>
      </trkpt>
      <trkpt lat="45.99298" lon="4.70711">
        <ele>196</ele>
        <time>2018-08-22T10:10:23Z</time>
      </trkpt>
      <trkpt lat="45.99292" lon="4.70709">
        <ele>196</ele>
        <time>2018-08-22T10:10:24Z</time>
      </trkpt>
      <trkpt lat="45.99286" lon="4.7071">
        <ele>196</ele>
        <time>2018-08-22T10:10:25Z</time>
      </trkpt>
      <trkpt lat="45.99281" lon="4.7071">
        <ele>196</ele>
        <time>2018-08-22T10:10:26Z</time>
      </trkpt>
      <trkpt lat="45.99275" lon="4.70709">
        <ele>196</ele>
        <time>2018-08-22T10:10:27Z</time>
      </trkpt>
      <trkpt lat="45.99269" lon="4.70709">
        <ele>196</ele>
        <time>2018-08-22T10:10:28Z</time>
      </trkpt>
      <trkpt lat="45.99263" lon="4.70708">
        <ele>196</ele>
        <time>2018-08-22T10:10:29Z</time>
      </trkpt>
      <trkpt lat="45.99257" lon="4.70708">
        <ele>196</ele>
        <time>2018-08-22T10:10:30Z</time>
      </trkpt>
      <trkpt lat="45.99251" lon="4.70708">
        <ele>196</ele>
        <time>2018-08-22T10:10:31Z</time>
      </trkpt>
      <trkpt lat="45.99245" lon="4.70705">
        <ele>196</ele>
        <time>2018-08-22T10:10:32Z</time>
      </trkpt>
      <trkpt lat="45.99237" lon="4.70704">
        <ele>196</ele>
        <time>2018-08-22T10:10:34Z</time>
      </trkpt>
      <trkpt lat="45.99232" lon="4.70704">
        <ele>196</ele>
        <time>2018-08-22T10:10:35Z</time>
      </trkpt>
      <trkpt lat="45.99227" lon="4.70704">
        <ele>196</ele>
        <time>2018-08-22T10:10:36Z</time>
      </trkpt>
      <trkpt lat="45.99221" lon="4.70704">
        <ele>196</ele>
        <time>2018-08-22T10:10:37Z</time>
      </trkpt>
      <trkpt lat="45.99217" lon="4.70704">
        <ele>196</ele>
        <time>2018-08-22T10:10:38Z</time>
      </trkpt>
      <trkpt lat="45.99211" lon="4.70707">
        <ele>196</ele>
        <time>2018-08-22T10:10:39Z</time>
      </trkpt>
      <trkpt lat="45.99205" lon="4.70706">
        <ele>196</ele>
        <time>2018-08-22T10:10:40Z</time>
      </trkpt>
      <trkpt lat="45.99201" lon="4.70707">
        <ele>196</ele>
        <time>2018-08-22T10:10:41Z</time>
      </trkpt>
      <trkpt lat="45.99196" lon="4.70706">
        <ele>196</ele>
        <time>2018-08-22T10:10:42Z</time>
      </trkpt>
      <trkpt lat="45.9919" lon="4.70705">
        <ele>196</ele>
        <time>2018-08-22T10:10:43Z</time>
      </trkpt>
      <trkpt lat="45.99183" lon="4.70711">
        <ele>196</ele>
        <time>2018-08-22T10:10:45Z</time>
      </trkpt>
      <trkpt lat="45.99178" lon="4.70711">
        <ele>196</ele>
        <time>2018-08-22T10:10:46Z</time>
      </trkpt>
      <trkpt lat="45.99173" lon="4.7071">
        <ele>196</ele>
        <time>2018-08-22T10:10:47Z</time>
      </trkpt>
      <trkpt lat="45.99168" lon="4.7071">
        <ele>196</ele>
        <time>2018-08-22T10:10:48Z</time>
      </trkpt>
      <trkpt lat="45.99161" lon="4.7071">
        <ele>195</ele>
        <time>2018-08-22T10:10:49Z</time>
      </trkpt>
      <trkpt lat="45.99157" lon="4.70713">
        <ele>195</ele>
        <time>2018-08-22T10:10:50Z</time>
      </trkpt>
      <trkpt lat="45.9915" lon="4.70712">
        <ele>195</ele>
        <time>2018-08-22T10:10:51Z</time>
      </trkpt>
      <trkpt lat="45.99144" lon="4.7071">
        <ele>195</ele>
        <time>2018-08-22T10:10:52Z</time>
      </trkpt>
      <trkpt lat="45.99138" lon="4.70709">
        <ele>195</ele>
        <time>2018-08-22T10:10:53Z</time>
      </trkpt>
      <trkpt lat="45.99132" lon="4.70709">
        <ele>195</ele>
        <time>2018-08-22T10:10:54Z</time>
      </trkpt>
      <trkpt lat="45.99127" lon="4.70709">
        <ele>195</ele>
        <time>2018-08-22T10:10:55Z</time>
      </trkpt>
      <trkpt lat="45.99121" lon="4.7071">
        <ele>195</ele>
        <time>2018-08-22T10:10:56Z</time>
      </trkpt>
      <trkpt lat="45.99115" lon="4.7071">
        <ele>195</ele>
        <time>2018-08-22T10:10:57Z</time>
      </trkpt>
      <trkpt lat="45.99108" lon="4.7071">
        <ele>195</ele>
        <time>2018-08-22T10:10:58Z</time>
      </trkpt>
      <trkpt lat="45.99102" lon="4.7071">
        <ele>195</ele>
        <time>2018-08-22T10:10:59Z</time>
      </trkpt>
      <trkpt lat="45.99096" lon="4.70707">
        <ele>195</ele>
        <time>2018-08-22T10:11:00Z</time>
      </trkpt>
      <trkpt lat="45.99091" lon="4.70707">
        <ele>195</ele>
        <time>2018-08-22T10:11:01Z</time>
      </trkpt>
      <trkpt lat="45.99085" lon="4.70706">
        <ele>195</ele>
        <time>2018-08-22T10:11:02Z</time>
      </trkpt>
      <trkpt lat="45.9908" lon="4.70705">
        <ele>193</ele>
        <time>2018-08-22T10:11:03Z</time>
      </trkpt>
      <trkpt lat="45.99074" lon="4.70704">
        <ele>193</ele>
        <time>2018-08-22T10:11:04Z</time>
      </trkpt>
      <trkpt lat="45.99069" lon="4.70704">
        <ele>193</ele>
        <time>2018-08-22T10:11:05Z</time>
      </trkpt>
      <trkpt lat="45.99064" lon="4.70704">
        <ele>193</ele>
        <time>2018-08-22T10:11:06Z</time>
      </trkpt>
      <trkpt lat="45.99056" lon="4.70706">
        <ele>193</ele>
        <time>2018-08-22T10:11:10Z</time>
      </trkpt>
      <trkpt lat="45.99054" lon="4.70706">
        <ele>193</ele>
        <time>2018-08-22T10:11:11Z</time>
      </trkpt>
      <trkpt lat="45.99049" lon="4.70704">
        <ele>193</ele>
        <time>2018-08-22T10:11:44Z</time>
      </trkpt>
      <trkpt lat="45.99041" lon="4.70701">
        <ele>193</ele>
        <time>2018-08-22T10:11:45Z</time>
      </trkpt>
      <trkpt lat="45.99032" lon="4.70703">
        <ele>192</ele>
        <time>2018-08-22T10:11:47Z</time>
      </trkpt>
      <trkpt lat="45.99027" lon="4.70704">
        <ele>192</ele>
        <time>2018-08-22T10:11:48Z</time>
      </trkpt>
      <trkpt lat="45.99022" lon="4.70706">
        <ele>192</ele>
        <time>2018-08-22T10:11:49Z</time>
      </trkpt>
      <trkpt lat="45.99015" lon="4.70706">
        <ele>192</ele>
        <time>2018-08-22T10:11:50Z</time>
      </trkpt>
      <trkpt lat="45.99009" lon="4.70708">
        <ele>192</ele>
        <time>2018-08-22T10:11:51Z</time>
      </trkpt>
      <trkpt lat="45.99001" lon="4.70711">
        <ele>192</ele>
        <time>2018-08-22T10:11:52Z</time>
      </trkpt>
      <trkpt lat="45.98994" lon="4.70714">
        <ele>191</ele>
        <time>2018-08-22T10:11:53Z</time>
      </trkpt>
      <trkpt lat="45.98986" lon="4.70717">
        <ele>191</ele>
        <time>2018-08-22T10:11:54Z</time>
      </trkpt>
      <trkpt lat="45.9898" lon="4.70724">
        <ele>191</ele>
        <time>2018-08-22T10:11:55Z</time>
      </trkpt>
      <trkpt lat="45.98973" lon="4.70732">
        <ele>191</ele>
        <time>2018-08-22T10:11:56Z</time>
      </trkpt>
      <trkpt lat="45.98967" lon="4.70739">
        <ele>191</ele>
        <time>2018-08-22T10:11:57Z</time>
      </trkpt>
      <trkpt lat="45.98962" lon="4.70747">
        <ele>190</ele>
        <time>2018-08-22T10:11:58Z</time>
      </trkpt>
      <trkpt lat="45.98958" lon="4.70755">
        <ele>189</ele>
        <time>2018-08-22T10:11:59Z</time>
      </trkpt>
      <trkpt lat="45.98953" lon="4.70763">
        <ele>189</ele>
        <time>2018-08-22T10:12:00Z</time>
      </trkpt>
      <trkpt lat="45.9895" lon="4.7077">
        <ele>189</ele>
        <time>2018-08-22T10:12:01Z</time>
      </trkpt>
      <trkpt lat="45.98946" lon="4.70776">
        <ele>189</ele>
        <time>2018-08-22T10:12:02Z</time>
      </trkpt>
      <trkpt lat="45.98941" lon="4.70786">
        <ele>189</ele>
        <time>2018-08-22T10:12:04Z</time>
      </trkpt>
      <trkpt lat="45.98938" lon="4.7079">
        <ele>189</ele>
        <time>2018-08-22T10:12:05Z</time>
      </trkpt>
      <trkpt lat="45.98931" lon="4.70797">
        <ele>189</ele>
        <time>2018-08-22T10:12:08Z</time>
      </trkpt>
      <trkpt lat="45.98929" lon="4.708">
        <ele>188</ele>
        <time>2018-08-22T10:12:09Z</time>
      </trkpt>
      <trkpt lat="45.98924" lon="4.70808">
        <ele>188</ele>
        <time>2018-08-22T10:12:12Z</time>
      </trkpt>
      <trkpt lat="45.98923" lon="4.70811">
        <ele>188</ele>
        <time>2018-08-22T10:12:13Z</time>
      </trkpt>
      <trkpt lat="45.98921" lon="4.70815">
        <ele>188</ele>
        <time>2018-08-22T10:12:16Z</time>
      </trkpt>
      <trkpt lat="45.9892" lon="4.70816">
        <ele>188</ele>
        <time>2018-08-22T10:12:17Z</time>
      </trkpt>
      <trkpt lat="45.98919" lon="4.70818">
        <ele>188</ele>
        <time>2018-08-22T10:12:36Z</time>
      </trkpt>
      <trkpt lat="45.98918" lon="4.70819">
        <ele>188</ele>
        <time>2018-08-22T10:12:37Z</time>
      </trkpt>
      <trkpt lat="45.98914" lon="4.70825">
        <ele>187</ele>
        <time>2018-08-22T10:12:38Z</time>
      </trkpt>
      <trkpt lat="45.98912" lon="4.7083">
        <ele>187</ele>
        <time>2018-08-22T10:12:39Z</time>
      </trkpt>
      <trkpt lat="45.98909" lon="4.70836">
        <ele>187</ele>
        <time>2018-08-22T10:12:41Z</time>
      </trkpt>
      <trkpt lat="45.98904" lon="4.70843">
        <ele>187</ele>
        <time>2018-08-22T10:12:42Z</time>
      </trkpt>
      <trkpt lat="45.98898" lon="4.70853">
        <ele>186</ele>
        <time>2018-08-22T10:12:44Z</time>
      </trkpt>
      <trkpt lat="45.98897" lon="4.7086">
        <ele>186</ele>
        <time>2018-08-22T10:12:45Z</time>
      </trkpt>
      <trkpt lat="45.98893" lon="4.70867">
        <ele>186</ele>
        <time>2018-08-22T10:12:46Z</time>
      </trkpt>
      <trkpt lat="45.98889" lon="4.70873">
        <ele>186</ele>
        <time>2018-08-22T10:12:47Z</time>
      </trkpt>
      <trkpt lat="45.98886" lon="4.70879">
        <ele>186</ele>
        <time>2018-08-22T10:12:48Z</time>
      </trkpt>
      <trkpt lat="45.98882" lon="4.70886">
        <ele>186</ele>
        <time>2018-08-22T10:12:49Z</time>
      </trkpt>
      <trkpt lat="45.98879" lon="4.70892">
        <ele>186</ele>
        <time>2018-08-22T10:12:50Z</time>
      </trkpt>
      <trkpt lat="45.98876" lon="4.70899">
        <ele>186</ele>
        <time>2018-08-22T10:12:51Z</time>
      </trkpt>
      <trkpt lat="45.98873" lon="4.70905">
        <ele>186</ele>
        <time>2018-08-22T10:12:52Z</time>
      </trkpt>
      <trkpt lat="45.9887" lon="4.70912">
        <ele>186</ele>
        <time>2018-08-22T10:12:53Z</time>
      </trkpt>
      <trkpt lat="45.98868" lon="4.7092">
        <ele>185</ele>
        <time>2018-08-22T10:12:54Z</time>
      </trkpt>
      <trkpt lat="45.98866" lon="4.70926">
        <ele>185</ele>
        <time>2018-08-22T10:12:55Z</time>
      </trkpt>
      <trkpt lat="45.98863" lon="4.70933">
        <ele>185</ele>
        <time>2018-08-22T10:12:56Z</time>
      </trkpt>
      <trkpt lat="45.9886" lon="4.7094">
        <ele>185</ele>
        <time>2018-08-22T10:12:57Z</time>
      </trkpt>
      <trkpt lat="45.98858" lon="4.70945">
        <ele>185</ele>
        <time>2018-08-22T10:12:58Z</time>
      </trkpt>
      <trkpt lat="45.98854" lon="4.70952">
        <ele>185</ele>
        <time>2018-08-22T10:12:59Z</time>
      </trkpt>
      <trkpt lat="45.98852" lon="4.70962">
        <ele>185</ele>
        <time>2018-08-22T10:13:00Z</time>
      </trkpt>
      <trkpt lat="45.98848" lon="4.70968">
        <ele>185</ele>
        <time>2018-08-22T10:13:01Z</time>
      </trkpt>
      <trkpt lat="45.98845" lon="4.70975">
        <ele>185</ele>
        <time>2018-08-22T10:13:02Z</time>
      </trkpt>
      <trkpt lat="45.98841" lon="4.70982">
        <ele>185</ele>
        <time>2018-08-22T10:13:03Z</time>
      </trkpt>
      <trkpt lat="45.98838" lon="4.70989">
        <ele>185</ele>
        <time>2018-08-22T10:13:04Z</time>
      </trkpt>
      <trkpt lat="45.98839" lon="4.70995">
        <ele>185</ele>
        <time>2018-08-22T10:13:05Z</time>
      </trkpt>
      <trkpt lat="45.98836" lon="4.71001">
        <ele>185</ele>
        <time>2018-08-22T10:13:06Z</time>
      </trkpt>
      <trkpt lat="45.98834" lon="4.71008">
        <ele>185</ele>
        <time>2018-08-22T10:13:07Z</time>
      </trkpt>
      <trkpt lat="45.98832" lon="4.71013">
        <ele>186</ele>
        <time>2018-08-22T10:13:08Z</time>
      </trkpt>
      <trkpt lat="45.9883" lon="4.7102">
        <ele>186</ele>
        <time>2018-08-22T10:13:09Z</time>
      </trkpt>
      <trkpt lat="45.98828" lon="4.71026">
        <ele>186</ele>
        <time>2018-08-22T10:13:10Z</time>
      </trkpt>
      <trkpt lat="45.98825" lon="4.71032">
        <ele>186</ele>
        <time>2018-08-22T10:13:11Z</time>
      </trkpt>
      <trkpt lat="45.98823" lon="4.71039">
        <ele>187</ele>
        <time>2018-08-22T10:13:12Z</time>
      </trkpt>
      <trkpt lat="45.9882" lon="4.71045">
        <ele>187</ele>
        <time>2018-08-22T10:13:13Z</time>
      </trkpt>
      <trkpt lat="45.98817" lon="4.71052">
        <ele>187</ele>
        <time>2018-08-22T10:13:14Z</time>
      </trkpt>
      <trkpt lat="45.98815" lon="4.71061">
        <ele>187</ele>
        <time>2018-08-22T10:13:15Z</time>
      </trkpt>
      <trkpt lat="45.98813" lon="4.71068">
        <ele>187</ele>
        <time>2018-08-22T10:13:16Z</time>
      </trkpt>
      <trkpt lat="45.98812" lon="4.71074">
        <ele>187</ele>
        <time>2018-08-22T10:13:17Z</time>
      </trkpt>
      <trkpt lat="45.98809" lon="4.71082">
        <ele>187</ele>
        <time>2018-08-22T10:13:18Z</time>
      </trkpt>
      <trkpt lat="45.98807" lon="4.71088">
        <ele>188</ele>
        <time>2018-08-22T10:13:19Z</time>
      </trkpt>
      <trkpt lat="45.98805" lon="4.71094">
        <ele>188</ele>
        <time>2018-08-22T10:13:20Z</time>
      </trkpt>
      <trkpt lat="45.98805" lon="4.71102">
        <ele>187</ele>
        <time>2018-08-22T10:13:21Z</time>
      </trkpt>
      <trkpt lat="45.98803" lon="4.71109">
        <ele>187</ele>
        <time>2018-08-22T10:13:22Z</time>
      </trkpt>
      <trkpt lat="45.98801" lon="4.71118">
        <ele>187</ele>
        <time>2018-08-22T10:13:23Z</time>
      </trkpt>
      <trkpt lat="45.98798" lon="4.71124">
        <ele>187</ele>
        <time>2018-08-22T10:13:24Z</time>
      </trkpt>
      <trkpt lat="45.98796" lon="4.71132">
        <ele>187</ele>
        <time>2018-08-22T10:13:25Z</time>
      </trkpt>
      <trkpt lat="45.98794" lon="4.71139">
        <ele>187</ele>
        <time>2018-08-22T10:13:26Z</time>
      </trkpt>
      <trkpt lat="45.98792" lon="4.71146">
        <ele>187</ele>
        <time>2018-08-22T10:13:27Z</time>
      </trkpt>
      <trkpt lat="45.9879" lon="4.71153">
        <ele>187</ele>
        <time>2018-08-22T10:13:28Z</time>
      </trkpt>
      <trkpt lat="45.98788" lon="4.7116">
        <ele>187</ele>
        <time>2018-08-22T10:13:29Z</time>
      </trkpt>
      <trkpt lat="45.98786" lon="4.71167">
        <ele>186</ele>
        <time>2018-08-22T10:13:30Z</time>
      </trkpt>
      <trkpt lat="45.98785" lon="4.71174">
        <ele>186</ele>
        <time>2018-08-22T10:13:31Z</time>
      </trkpt>
      <trkpt lat="45.98783" lon="4.71182">
        <ele>186</ele>
        <time>2018-08-22T10:13:32Z</time>
      </trkpt>
      <trkpt lat="45.98781" lon="4.71189">
        <ele>186</ele>
        <time>2018-08-22T10:13:33Z</time>
      </trkpt>
      <trkpt lat="45.98779" lon="4.71197">
        <ele>186</ele>
        <time>2018-08-22T10:13:34Z</time>
      </trkpt>
      <trkpt lat="45.98778" lon="4.71204">
        <ele>186</ele>
        <time>2018-08-22T10:13:35Z</time>
      </trkpt>
      <trkpt lat="45.98776" lon="4.71211">
        <ele>186</ele>
        <time>2018-08-22T10:13:36Z</time>
      </trkpt>
      <trkpt lat="45.98773" lon="4.71216">
        <ele>186</ele>
        <time>2018-08-22T10:13:37Z</time>
      </trkpt>
      <trkpt lat="45.98771" lon="4.71222">
        <ele>186</ele>
        <time>2018-08-22T10:13:38Z</time>
      </trkpt>
      <trkpt lat="45.98769" lon="4.7123">
        <ele>186</ele>
        <time>2018-08-22T10:13:39Z</time>
      </trkpt>
      <trkpt lat="45.98767" lon="4.71236">
        <ele>186</ele>
        <time>2018-08-22T10:13:40Z</time>
      </trkpt>
      <trkpt lat="45.98765" lon="4.71241">
        <ele>186</ele>
        <time>2018-08-22T10:13:41Z</time>
      </trkpt>
      <trkpt lat="45.98763" lon="4.71248">
        <ele>187</ele>
        <time>2018-08-22T10:13:42Z</time>
      </trkpt>
      <trkpt lat="45.98759" lon="4.71253">
        <ele>186</ele>
        <time>2018-08-22T10:13:43Z</time>
      </trkpt>
      <trkpt lat="45.98756" lon="4.71259">
        <ele>186</ele>
        <time>2018-08-22T10:13:44Z</time>
      </trkpt>
      <trkpt lat="45.98755" lon="4.71265">
        <ele>186</ele>
        <time>2018-08-22T10:13:45Z</time>
      </trkpt>
      <trkpt lat="45.98751" lon="4.71272">
        <ele>186</ele>
        <time>2018-08-22T10:13:46Z</time>
      </trkpt>
      <trkpt lat="45.9875" lon="4.71281">
        <ele>188</ele>
        <time>2018-08-22T10:13:47Z</time>
      </trkpt>
      <trkpt lat="45.98746" lon="4.71287">
        <ele>188</ele>
        <time>2018-08-22T10:13:48Z</time>
      </trkpt>
      <trkpt lat="45.98746" lon="4.71294">
        <ele>188</ele>
        <time>2018-08-22T10:13:49Z</time>
      </trkpt>
      <trkpt lat="45.98744" lon="4.71301">
        <ele>188</ele>
        <time>2018-08-22T10:13:50Z</time>
      </trkpt>
      <trkpt lat="45.98741" lon="4.71309">
        <ele>188</ele>
        <time>2018-08-22T10:13:51Z</time>
      </trkpt>
      <trkpt lat="45.9874" lon="4.71317">
        <ele>188</ele>
        <time>2018-08-22T10:13:52Z</time>
      </trkpt>
      <trkpt lat="45.98738" lon="4.71325">
        <ele>187</ele>
        <time>2018-08-22T10:13:53Z</time>
      </trkpt>
      <trkpt lat="45.98736" lon="4.71331">
        <ele>187</ele>
        <time>2018-08-22T10:13:54Z</time>
      </trkpt>
      <trkpt lat="45.98733" lon="4.71338">
        <ele>187</ele>
        <time>2018-08-22T10:13:55Z</time>
      </trkpt>
      <trkpt lat="45.98729" lon="4.71342">
        <ele>187</ele>
        <time>2018-08-22T10:13:56Z</time>
      </trkpt>
      <trkpt lat="45.98726" lon="4.71348">
        <ele>187</ele>
        <time>2018-08-22T10:13:57Z</time>
      </trkpt>
      <trkpt lat="45.98721" lon="4.71358">
        <ele>187</ele>
        <time>2018-08-22T10:13:59Z</time>
      </trkpt>
      <trkpt lat="45.98721" lon="4.71367">
        <ele>187</ele>
        <time>2018-08-22T10:14:00Z</time>
      </trkpt>
      <trkpt lat="45.98722" lon="4.71374">
        <ele>187</ele>
        <time>2018-08-22T10:14:01Z</time>
      </trkpt>
      <trkpt lat="45.98719" lon="4.71381">
        <ele>187</ele>
        <time>2018-08-22T10:14:02Z</time>
      </trkpt>
      <trkpt lat="45.98719" lon="4.71391">
        <ele>187</ele>
        <time>2018-08-22T10:14:04Z</time>
      </trkpt>
      <trkpt lat="45.98715" lon="4.71401">
        <ele>187</ele>
        <time>2018-08-22T10:14:05Z</time>
      </trkpt>
      <trkpt lat="45.98717" lon="4.71409">
        <ele>187</ele>
        <time>2018-08-22T10:14:07Z</time>
      </trkpt>
      <trkpt lat="45.98715" lon="4.71415">
        <ele>187</ele>
        <time>2018-08-22T10:14:08Z</time>
      </trkpt>
      <trkpt lat="45.98711" lon="4.7142">
        <ele>186</ele>
        <time>2018-08-22T10:14:10Z</time>
      </trkpt>
      <trkpt lat="45.98708" lon="4.71427">
        <ele>187</ele>
        <time>2018-08-22T10:14:11Z</time>
      </trkpt>
      <trkpt lat="45.98704" lon="4.71435">
        <ele>187</ele>
        <time>2018-08-22T10:14:14Z</time>
      </trkpt>
      <trkpt lat="45.98699" lon="4.71443">
        <ele>187</ele>
        <time>2018-08-22T10:14:15Z</time>
      </trkpt>
      <trkpt lat="45.98695" lon="4.71452">
        <ele>187</ele>
        <time>2018-08-22T10:14:21Z</time>
      </trkpt>
      <trkpt lat="45.98695" lon="4.71452">
        <ele>187</ele>
        <time>2018-08-22T10:14:22Z</time>
      </trkpt>
      <trkpt lat="45.98695" lon="4.71453">
        <ele>187</ele>
        <time>2018-08-22T10:14:23Z</time>
      </trkpt>
      <trkpt lat="45.98693" lon="4.71465">
        <ele>187</ele>
        <time>2018-08-22T10:14:29Z</time>
      </trkpt>
      <trkpt lat="45.98693" lon="4.71468">
        <ele>187</ele>
        <time>2018-08-22T10:14:30Z</time>
      </trkpt>
      <trkpt lat="45.98691" lon="4.71474">
        <ele>187</ele>
        <time>2018-08-22T10:14:32Z</time>
      </trkpt>
      <trkpt lat="45.98686" lon="4.7148">
        <ele>187</ele>
        <time>2018-08-22T10:14:33Z</time>
      </trkpt>
      <trkpt lat="45.98679" lon="4.71478">
        <ele>187</ele>
        <time>2018-08-22T10:14:37Z</time>
      </trkpt>
      <trkpt lat="45.98677" lon="4.71477">
        <ele>188</ele>
        <time>2018-08-22T10:14:38Z</time>
      </trkpt>
      <trkpt lat="45.98674" lon="4.71477">
        <ele>188</ele>
        <time>2018-08-22T10:14:39Z</time>
      </trkpt>
      <trkpt lat="45.98665" lon="4.71477">
        <ele>190</ele>
        <time>2018-08-22T10:14:40Z</time>
      </trkpt>
      <trkpt lat="45.98658" lon="4.7148">
        <ele>190</ele>
        <time>2018-08-22T10:14:44Z</time>
      </trkpt>
      <trkpt lat="45.9865" lon="4.71483">
        <ele>190</ele>
        <time>2018-08-22T10:14:45Z</time>
      </trkpt>
      <trkpt lat="45.98643" lon="4.71482">
        <ele>190</ele>
        <time>2018-08-22T10:14:47Z</time>
      </trkpt>
      <trkpt lat="45.98639" lon="4.71482">
        <ele>190</ele>
        <time>2018-08-22T10:14:48Z</time>
      </trkpt>
      <trkpt lat="45.98631" lon="4.71484">
        <ele>190</ele>
        <time>2018-08-22T10:14:52Z</time>
      </trkpt>
      <trkpt lat="45.98628" lon="4.71484">
        <ele>190</ele>
        <time>2018-08-22T10:14:53Z</time>
      </trkpt>
      <trkpt lat="45.98625" lon="4.71484">
        <ele>190</ele>
        <time>2018-08-22T10:14:54Z</time>
      </trkpt>
      <trkpt lat="45.98616" lon="4.71488">
        <ele>191</ele>
        <time>2018-08-22T10:14:55Z</time>
      </trkpt>
      <trkpt lat="45.98609" lon="4.71488">
        <ele>191</ele>
        <time>2018-08-22T10:14:57Z</time>
      </trkpt>
      <trkpt lat="45.98605" lon="4.71488">
        <ele>191</ele>
        <time>2018-08-22T10:14:58Z</time>
      </trkpt>
      <trkpt lat="45.98597" lon="4.71488">
        <ele>191</ele>
        <time>2018-08-22T10:15:00Z</time>
      </trkpt>
      <trkpt lat="45.98591" lon="4.71491">
        <ele>191</ele>
        <time>2018-08-22T10:15:01Z</time>
      </trkpt>
      <trkpt lat="45.98584" lon="4.71494">
        <ele>192</ele>
        <time>2018-08-22T10:15:03Z</time>
      </trkpt>
      <trkpt lat="45.98581" lon="4.71495">
        <ele>192</ele>
        <time>2018-08-22T10:15:04Z</time>
      </trkpt>
      <trkpt lat="45.98572" lon="4.71496">
        <ele>192</ele>
        <time>2018-08-22T10:15:06Z</time>
      </trkpt>
      <trkpt lat="45.98567" lon="4.71498">
        <ele>193</ele>
        <time>2018-08-22T10:15:07Z</time>
      </trkpt>
      <trkpt lat="45.98559" lon="4.71499">
        <ele>193</ele>
        <time>2018-08-22T10:15:09Z</time>
      </trkpt>
      <trkpt lat="45.98557" lon="4.71499">
        <ele>193</ele>
        <time>2018-08-22T10:15:10Z</time>
      </trkpt>
      <trkpt lat="45.98554" lon="4.71499">
        <ele>193</ele>
        <time>2018-08-22T10:15:11Z</time>
      </trkpt>
      <trkpt lat="45.98546" lon="4.71497">
        <ele>193</ele>
        <time>2018-08-22T10:15:12Z</time>
      </trkpt>
      <trkpt lat="45.98537" lon="4.71498">
        <ele>193</ele>
        <time>2018-08-22T10:15:14Z</time>
      </trkpt>
      <trkpt lat="45.98533" lon="4.71499">
        <ele>194</ele>
        <time>2018-08-22T10:15:15Z</time>
      </trkpt>
      <trkpt lat="45.98531" lon="4.71499">
        <ele>194</ele>
        <time>2018-08-22T10:15:16Z</time>
      </trkpt>
      <trkpt lat="45.98522" lon="4.71501">
        <ele>194</ele>
        <time>2018-08-22T10:15:17Z</time>
      </trkpt>
      <trkpt lat="45.98515" lon="4.71507">
        <ele>195</ele>
        <time>2018-08-22T10:15:19Z</time>
      </trkpt>
      <trkpt lat="45.98512" lon="4.71506">
        <ele>195</ele>
        <time>2018-08-22T10:15:20Z</time>
      </trkpt>
      <trkpt lat="45.98503" lon="4.71507">
        <ele>195</ele>
        <time>2018-08-22T10:15:22Z</time>
      </trkpt>
      <trkpt lat="45.98499" lon="4.71507">
        <ele>195</ele>
        <time>2018-08-22T10:15:23Z</time>
      </trkpt>
      <trkpt lat="45.98494" lon="4.7151">
        <ele>196</ele>
        <time>2018-08-22T10:15:25Z</time>
      </trkpt>
      <trkpt lat="45.98488" lon="4.71511">
        <ele>196</ele>
        <time>2018-08-22T10:15:26Z</time>
      </trkpt>
      <trkpt lat="45.98481" lon="4.71513">
        <ele>196</ele>
        <time>2018-08-22T10:15:28Z</time>
      </trkpt>
      <trkpt lat="45.98476" lon="4.71516">
        <ele>196</ele>
        <time>2018-08-22T10:15:29Z</time>
      </trkpt>
      <trkpt lat="45.98467" lon="4.71516">
        <ele>197</ele>
        <time>2018-08-22T10:15:32Z</time>
      </trkpt>
      <trkpt lat="45.98461" lon="4.71516">
        <ele>197</ele>
        <time>2018-08-22T10:15:33Z</time>
      </trkpt>
      <trkpt lat="45.98457" lon="4.71516">
        <ele>197</ele>
        <time>2018-08-22T10:15:34Z</time>
      </trkpt>
      <trkpt lat="45.98451" lon="4.71518">
        <ele>197</ele>
        <time>2018-08-22T10:15:35Z</time>
      </trkpt>
      <trkpt lat="45.98443" lon="4.71517">
        <ele>197</ele>
        <time>2018-08-22T10:15:37Z</time>
      </trkpt>
      <trkpt lat="45.98437" lon="4.71517">
        <ele>197</ele>
        <time>2018-08-22T10:15:38Z</time>
      </trkpt>
      <trkpt lat="45.98432" lon="4.71517">
        <ele>198</ele>
        <time>2018-08-22T10:15:39Z</time>
      </trkpt>
      <trkpt lat="45.98426" lon="4.71518">
        <ele>198</ele>
        <time>2018-08-22T10:15:40Z</time>
      </trkpt>
      <trkpt lat="45.98419" lon="4.71526">
        <ele>198</ele>
        <time>2018-08-22T10:15:41Z</time>
      </trkpt>
      <trkpt lat="45.98413" lon="4.71529">
        <ele>199</ele>
        <time>2018-08-22T10:15:42Z</time>
      </trkpt>
      <trkpt lat="45.98406" lon="4.71533">
        <ele>198</ele>
        <time>2018-08-22T10:15:43Z</time>
      </trkpt>
      <trkpt lat="45.98402" lon="4.71539">
        <ele>198</ele>
        <time>2018-08-22T10:15:44Z</time>
      </trkpt>
      <trkpt lat="45.98398" lon="4.71546">
        <ele>198</ele>
        <time>2018-08-22T10:15:45Z</time>
      </trkpt>
      <trkpt lat="45.98394" lon="4.71552">
        <ele>198</ele>
        <time>2018-08-22T10:15:46Z</time>
      </trkpt>
      <trkpt lat="45.9839" lon="4.71559">
        <ele>198</ele>
        <time>2018-08-22T10:15:47Z</time>
      </trkpt>
      <trkpt lat="45.98385" lon="4.71562">
        <ele>198</ele>
        <time>2018-08-22T10:15:48Z</time>
      </trkpt>
      <trkpt lat="45.9838" lon="4.71567">
        <ele>198</ele>
        <time>2018-08-22T10:15:49Z</time>
      </trkpt>
      <trkpt lat="45.98376" lon="4.71574">
        <ele>198</ele>
        <time>2018-08-22T10:15:50Z</time>
      </trkpt>
      <trkpt lat="45.98373" lon="4.7158">
        <ele>198</ele>
        <time>2018-08-22T10:15:51Z</time>
      </trkpt>
      <trkpt lat="45.98367" lon="4.7158">
        <ele>198</ele>
        <time>2018-08-22T10:15:52Z</time>
      </trkpt>
      <trkpt lat="45.98362" lon="4.71581">
        <ele>199</ele>
        <time>2018-08-22T10:15:53Z</time>
      </trkpt>
      <trkpt lat="45.98357" lon="4.7158">
        <ele>199</ele>
        <time>2018-08-22T10:15:54Z</time>
      </trkpt>
      <trkpt lat="45.98352" lon="4.71578">
        <ele>199</ele>
        <time>2018-08-22T10:15:55Z</time>
      </trkpt>
      <trkpt lat="45.98348" lon="4.71575">
        <ele>199</ele>
        <time>2018-08-22T10:15:56Z</time>
      </trkpt>
      <trkpt lat="45.98343" lon="4.71574">
        <ele>199</ele>
        <time>2018-08-22T10:15:57Z</time>
      </trkpt>
      <trkpt lat="45.98338" lon="4.71573">
        <ele>199</ele>
        <time>2018-08-22T10:15:58Z</time>
      </trkpt>
      <trkpt lat="45.98333" lon="4.7157">
        <ele>199</ele>
        <time>2018-08-22T10:15:59Z</time>
      </trkpt>
      <trkpt lat="45.98328" lon="4.71566">
        <ele>198</ele>
        <time>2018-08-22T10:16:00Z</time>
      </trkpt>
      <trkpt lat="45.98324" lon="4.71565">
        <ele>198</ele>
        <time>2018-08-22T10:16:01Z</time>
      </trkpt>
      <trkpt lat="45.98315" lon="4.71563">
        <ele>198</ele>
        <time>2018-08-22T10:16:03Z</time>
      </trkpt>
      <trkpt lat="45.98311" lon="4.71561">
        <ele>198</ele>
        <time>2018-08-22T10:16:04Z</time>
      </trkpt>
      <trkpt lat="45.98307" lon="4.71557">
        <ele>198</ele>
        <time>2018-08-22T10:16:05Z</time>
      </trkpt>
      <trkpt lat="45.98302" lon="4.71554">
        <ele>198</ele>
        <time>2018-08-22T10:16:06Z</time>
      </trkpt>
      <trkpt lat="45.98297" lon="4.7155">
        <ele>198</ele>
        <time>2018-08-22T10:16:08Z</time>
      </trkpt>
      <trkpt lat="45.98293" lon="4.71549">
        <ele>198</ele>
        <time>2018-08-22T10:16:09Z</time>
      </trkpt>
      <trkpt lat="45.98287" lon="4.71542">
        <ele>198</ele>
        <time>2018-08-22T10:16:10Z</time>
      </trkpt>
      <trkpt lat="45.98283" lon="4.7154">
        <ele>198</ele>
        <time>2018-08-22T10:16:11Z</time>
      </trkpt>
      <trkpt lat="45.98276" lon="4.71536">
        <ele>197</ele>
        <time>2018-08-22T10:16:13Z</time>
      </trkpt>
      <trkpt lat="45.98271" lon="4.71533">
        <ele>197</ele>
        <time>2018-08-22T10:16:14Z</time>
      </trkpt>
      <trkpt lat="45.98263" lon="4.71528">
        <ele>197</ele>
        <time>2018-08-22T10:16:16Z</time>
      </trkpt>
      <trkpt lat="45.98259" lon="4.71525">
        <ele>197</ele>
        <time>2018-08-22T10:16:17Z</time>
      </trkpt>
      <trkpt lat="45.98254" lon="4.71521">
        <ele>197</ele>
        <time>2018-08-22T10:16:18Z</time>
      </trkpt>
      <trkpt lat="45.98246" lon="4.71518">
        <ele>196</ele>
        <time>2018-08-22T10:16:19Z</time>
      </trkpt>
      <trkpt lat="45.98239" lon="4.71515">
        <ele>196</ele>
        <time>2018-08-22T10:16:20Z</time>
      </trkpt>
      <trkpt lat="45.98235" lon="4.71512">
        <ele>196</ele>
        <time>2018-08-22T10:16:21Z</time>
      </trkpt>
      <trkpt lat="45.98231" lon="4.71511">
        <ele>196</ele>
        <time>2018-08-22T10:16:22Z</time>
      </trkpt>
      <trkpt lat="45.98226" lon="4.71509">
        <ele>196</ele>
        <time>2018-08-22T10:16:23Z</time>
      </trkpt>
      <trkpt lat="45.98222" lon="4.71505">
        <ele>196</ele>
        <time>2018-08-22T10:16:24Z</time>
      </trkpt>
      <trkpt lat="45.98217" lon="4.71502">
        <ele>196</ele>
        <time>2018-08-22T10:16:25Z</time>
      </trkpt>
      <trkpt lat="45.98213" lon="4.71499">
        <ele>197</ele>
        <time>2018-08-22T10:16:26Z</time>
      </trkpt>
      <trkpt lat="45.98208" lon="4.71495">
        <ele>197</ele>
        <time>2018-08-22T10:16:27Z</time>
      </trkpt>
      <trkpt lat="45.98202" lon="4.71492">
        <ele>197</ele>
        <time>2018-08-22T10:16:28Z</time>
      </trkpt>
      <trkpt lat="45.98196" lon="4.71492">
        <ele>197</ele>
        <time>2018-08-22T10:16:29Z</time>
      </trkpt>
      <trkpt lat="45.98189" lon="4.71492">
        <ele>197</ele>
        <time>2018-08-22T10:16:30Z</time>
      </trkpt>
      <trkpt lat="45.98182" lon="4.71493">
        <ele>197</ele>
        <time>2018-08-22T10:16:31Z</time>
      </trkpt>
      <trkpt lat="45.98176" lon="4.71495">
        <ele>197</ele>
        <time>2018-08-22T10:16:32Z</time>
      </trkpt>
      <trkpt lat="45.98169" lon="4.71496">
        <ele>197</ele>
        <time>2018-08-22T10:16:33Z</time>
      </trkpt>
      <trkpt lat="45.98163" lon="4.71498">
        <ele>197</ele>
        <time>2018-08-22T10:16:34Z</time>
      </trkpt>
      <trkpt lat="45.98157" lon="4.71501">
        <ele>197</ele>
        <time>2018-08-22T10:16:35Z</time>
      </trkpt>
      <trkpt lat="45.9815" lon="4.71504">
        <ele>197</ele>
        <time>2018-08-22T10:16:36Z</time>
      </trkpt>
      <trkpt lat="45.98143" lon="4.71506">
        <ele>197</ele>
        <time>2018-08-22T10:16:37Z</time>
      </trkpt>
      <trkpt lat="45.98137" lon="4.71509">
        <ele>197</ele>
        <time>2018-08-22T10:16:38Z</time>
      </trkpt>
      <trkpt lat="45.98134" lon="4.71513">
        <ele>197</ele>
        <time>2018-08-22T10:16:39Z</time>
      </trkpt>
      <trkpt lat="45.98125" lon="4.71517">
        <ele>197</ele>
        <time>2018-08-22T10:16:41Z</time>
      </trkpt>
      <trkpt lat="45.98122" lon="4.71524">
        <ele>197</ele>
        <time>2018-08-22T10:16:42Z</time>
      </trkpt>
      <trkpt lat="45.98118" lon="4.71526">
        <ele>197</ele>
        <time>2018-08-22T10:16:43Z</time>
      </trkpt>
      <trkpt lat="45.98112" lon="4.71528">
        <ele>197</ele>
        <time>2018-08-22T10:16:44Z</time>
      </trkpt>
      <trkpt lat="45.98108" lon="4.71532">
        <ele>197</ele>
        <time>2018-08-22T10:16:45Z</time>
      </trkpt>
      <trkpt lat="45.98103" lon="4.71533">
        <ele>197</ele>
        <time>2018-08-22T10:16:46Z</time>
      </trkpt>
      <trkpt lat="45.98099" lon="4.71536">
        <ele>197</ele>
        <time>2018-08-22T10:16:47Z</time>
      </trkpt>
      <trkpt lat="45.98094" lon="4.71539">
        <ele>197</ele>
        <time>2018-08-22T10:16:48Z</time>
      </trkpt>
      <trkpt lat="45.98089" lon="4.71542">
        <ele>198</ele>
        <time>2018-08-22T10:16:49Z</time>
      </trkpt>
      <trkpt lat="45.98084" lon="4.71543">
        <ele>198</ele>
        <time>2018-08-22T10:16:50Z</time>
      </trkpt>
      <trkpt lat="45.9808" lon="4.71552">
        <ele>198</ele>
        <time>2018-08-22T10:16:51Z</time>
      </trkpt>
      <trkpt lat="45.98075" lon="4.71558">
        <ele>198</ele>
        <time>2018-08-22T10:16:52Z</time>
      </trkpt>
      <trkpt lat="45.9807" lon="4.71563">
        <ele>198</ele>
        <time>2018-08-22T10:16:53Z</time>
      </trkpt>
      <trkpt lat="45.98063" lon="4.71565">
        <ele>198</ele>
        <time>2018-08-22T10:16:54Z</time>
      </trkpt>
      <trkpt lat="45.98058" lon="4.71571">
        <ele>198</ele>
        <time>2018-08-22T10:16:55Z</time>
      </trkpt>
      <trkpt lat="45.98053" lon="4.71574">
        <ele>198</ele>
        <time>2018-08-22T10:16:56Z</time>
      </trkpt>
      <trkpt lat="45.98049" lon="4.71578">
        <ele>198</ele>
        <time>2018-08-22T10:16:57Z</time>
      </trkpt>
      <trkpt lat="45.98044" lon="4.71581">
        <ele>198</ele>
        <time>2018-08-22T10:16:58Z</time>
      </trkpt>
      <trkpt lat="45.9804" lon="4.71585">
        <ele>198</ele>
        <time>2018-08-22T10:16:59Z</time>
      </trkpt>
      <trkpt lat="45.98035" lon="4.71589">
        <ele>198</ele>
        <time>2018-08-22T10:17:00Z</time>
      </trkpt>
      <trkpt lat="45.9803" lon="4.71592">
        <ele>198</ele>
        <time>2018-08-22T10:17:01Z</time>
      </trkpt>
      <trkpt lat="45.98026" lon="4.71598">
        <ele>198</ele>
        <time>2018-08-22T10:17:02Z</time>
      </trkpt>
      <trkpt lat="45.98021" lon="4.71602">
        <ele>198</ele>
        <time>2018-08-22T10:17:03Z</time>
      </trkpt>
      <trkpt lat="45.98016" lon="4.71605">
        <ele>198</ele>
        <time>2018-08-22T10:17:04Z</time>
      </trkpt>
      <trkpt lat="45.9801" lon="4.71609">
        <ele>198</ele>
        <time>2018-08-22T10:17:05Z</time>
      </trkpt>
      <trkpt lat="45.98005" lon="4.71612">
        <ele>198</ele>
        <time>2018-08-22T10:17:06Z</time>
      </trkpt>
      <trkpt lat="45.98001" lon="4.71618">
        <ele>198</ele>
        <time>2018-08-22T10:17:07Z</time>
      </trkpt>
      <trkpt lat="45.97996" lon="4.71622">
        <ele>198</ele>
        <time>2018-08-22T10:17:08Z</time>
      </trkpt>
      <trkpt lat="45.9799" lon="4.71625">
        <ele>197</ele>
        <time>2018-08-22T10:17:09Z</time>
      </trkpt>
      <trkpt lat="45.97985" lon="4.7163">
        <ele>197</ele>
        <time>2018-08-22T10:17:10Z</time>
      </trkpt>
      <trkpt lat="45.9798" lon="4.71632">
        <ele>197</ele>
        <time>2018-08-22T10:17:11Z</time>
      </trkpt>
      <trkpt lat="45.97976" lon="4.71637">
        <ele>197</ele>
        <time>2018-08-22T10:17:12Z</time>
      </trkpt>
      <trkpt lat="45.97972" lon="4.7164">
        <ele>197</ele>
        <time>2018-08-22T10:17:13Z</time>
      </trkpt>
      <trkpt lat="45.97968" lon="4.71643">
        <ele>197</ele>
        <time>2018-08-22T10:17:14Z</time>
      </trkpt>
      <trkpt lat="45.97964" lon="4.71646">
        <ele>197</ele>
        <time>2018-08-22T10:17:15Z</time>
      </trkpt>
      <trkpt lat="45.9796" lon="4.7165">
        <ele>197</ele>
        <time>2018-08-22T10:17:16Z</time>
      </trkpt>
      <trkpt lat="45.97955" lon="4.71654">
        <ele>197</ele>
        <time>2018-08-22T10:17:17Z</time>
      </trkpt>
      <trkpt lat="45.9795" lon="4.71658">
        <ele>197</ele>
        <time>2018-08-22T10:17:18Z</time>
      </trkpt>
      <trkpt lat="45.97945" lon="4.71662">
        <ele>197</ele>
        <time>2018-08-22T10:17:19Z</time>
      </trkpt>
      <trkpt lat="45.97939" lon="4.71665">
        <ele>197</ele>
        <time>2018-08-22T10:17:20Z</time>
      </trkpt>
      <trkpt lat="45.97933" lon="4.71668">
        <ele>197</ele>
        <time>2018-08-22T10:17:21Z</time>
      </trkpt>
      <trkpt lat="45.97928" lon="4.71672">
        <ele>197</ele>
        <time>2018-08-22T10:17:22Z</time>
      </trkpt>
      <trkpt lat="45.97922" lon="4.71674">
        <ele>197</ele>
        <time>2018-08-22T10:17:23Z</time>
      </trkpt>
      <trkpt lat="45.97917" lon="4.71677">
        <ele>197</ele>
        <time>2018-08-22T10:17:24Z</time>
      </trkpt>
      <trkpt lat="45.97912" lon="4.71681">
        <ele>197</ele>
        <time>2018-08-22T10:17:25Z</time>
      </trkpt>
      <trkpt lat="45.97907" lon="4.71684">
        <ele>196</ele>
        <time>2018-08-22T10:17:26Z</time>
      </trkpt>
      <trkpt lat="45.97901" lon="4.7169">
        <ele>196</ele>
        <time>2018-08-22T10:17:28Z</time>
      </trkpt>
      <trkpt lat="45.979" lon="4.71693">
        <ele>196</ele>
        <time>2018-08-22T10:17:29Z</time>
      </trkpt>
      <trkpt lat="45.97894" lon="4.717">
        <ele>196</ele>
        <time>2018-08-22T10:17:33Z</time>
      </trkpt>
      <trkpt lat="45.97891" lon="4.717">
        <ele>196</ele>
        <time>2018-08-22T10:17:34Z</time>
      </trkpt>
      <trkpt lat="45.97884" lon="4.71701">
        <ele>196</ele>
        <time>2018-08-22T10:17:38Z</time>
      </trkpt>
      <trkpt lat="45.97881" lon="4.71702">
        <ele>196</ele>
        <time>2018-08-22T10:17:39Z</time>
      </trkpt>
      <trkpt lat="45.97874" lon="4.71703">
        <ele>196</ele>
        <time>2018-08-22T10:17:42Z</time>
      </trkpt>
      <trkpt lat="45.97865" lon="4.71707">
        <ele>196</ele>
        <time>2018-08-22T10:17:43Z</time>
      </trkpt>
      <trkpt lat="45.97858" lon="4.71714">
        <ele>196</ele>
        <time>2018-08-22T10:17:45Z</time>
      </trkpt>
      <trkpt lat="45.97855" lon="4.71722">
        <ele>196</ele>
        <time>2018-08-22T10:17:46Z</time>
      </trkpt>
      <trkpt lat="45.97852" lon="4.71727">
        <ele>196</ele>
        <time>2018-08-22T10:17:47Z</time>
      </trkpt>
      <trkpt lat="45.97848" lon="4.71732">
        <ele>196</ele>
        <time>2018-08-22T10:17:48Z</time>
      </trkpt>
      <trkpt lat="45.97841" lon="4.71738">
        <ele>195</ele>
        <time>2018-08-22T10:17:50Z</time>
      </trkpt>
      <trkpt lat="45.97835" lon="4.71736">
        <ele>195</ele>
        <time>2018-08-22T10:17:51Z</time>
      </trkpt>
      <trkpt lat="45.97826" lon="4.71738">
        <ele>196</ele>
        <time>2018-08-22T10:17:53Z</time>
      </trkpt>
      <trkpt lat="45.97821" lon="4.7174">
        <ele>196</ele>
        <time>2018-08-22T10:17:54Z</time>
      </trkpt>
      <trkpt lat="45.97815" lon="4.7174">
        <ele>196</ele>
        <time>2018-08-22T10:17:55Z</time>
      </trkpt>
      <trkpt lat="45.97811" lon="4.71738">
        <ele>196</ele>
        <time>2018-08-22T10:17:56Z</time>
      </trkpt>
      <trkpt lat="45.97805" lon="4.71738">
        <ele>196</ele>
        <time>2018-08-22T10:17:57Z</time>
      </trkpt>
      <trkpt lat="45.97801" lon="4.71738">
        <ele>196</ele>
        <time>2018-08-22T10:17:58Z</time>
      </trkpt>
      <trkpt lat="45.97795" lon="4.71738">
        <ele>196</ele>
        <time>2018-08-22T10:17:59Z</time>
      </trkpt>
      <trkpt lat="45.9779" lon="4.71738">
        <ele>196</ele>
        <time>2018-08-22T10:18:00Z</time>
      </trkpt>
      <trkpt lat="45.97785" lon="4.71736">
        <ele>196</ele>
        <time>2018-08-22T10:18:01Z</time>
      </trkpt>
      <trkpt lat="45.9778" lon="4.71734">
        <ele>196</ele>
        <time>2018-08-22T10:18:02Z</time>
      </trkpt>
      <trkpt lat="45.97776" lon="4.71734">
        <ele>196</ele>
        <time>2018-08-22T10:18:03Z</time>
      </trkpt>
      <trkpt lat="45.97768" lon="4.71732">
        <ele>196</ele>
        <time>2018-08-22T10:18:04Z</time>
      </trkpt>
      <trkpt lat="45.97761" lon="4.71732">
        <ele>196</ele>
        <time>2018-08-22T10:18:05Z</time>
      </trkpt>
      <trkpt lat="45.97755" lon="4.7173">
        <ele>196</ele>
        <time>2018-08-22T10:18:06Z</time>
      </trkpt>
      <trkpt lat="45.97747" lon="4.71732">
        <ele>196</ele>
        <time>2018-08-22T10:18:08Z</time>
      </trkpt>
      <trkpt lat="45.97741" lon="4.7173">
        <ele>196</ele>
        <time>2018-08-22T10:18:09Z</time>
      </trkpt>
      <trkpt lat="45.97736" lon="4.71731">
        <ele>196</ele>
        <time>2018-08-22T10:18:10Z</time>
      </trkpt>
      <trkpt lat="45.97731" lon="4.71731">
        <ele>196</ele>
        <time>2018-08-22T10:18:11Z</time>
      </trkpt>
      <trkpt lat="45.97723" lon="4.71731">
        <ele>196</ele>
        <time>2018-08-22T10:18:12Z</time>
      </trkpt>
      <trkpt lat="45.97717" lon="4.71732">
        <ele>196</ele>
        <time>2018-08-22T10:18:13Z</time>
      </trkpt>
      <trkpt lat="45.97712" lon="4.7173">
        <ele>196</ele>
        <time>2018-08-22T10:18:14Z</time>
      </trkpt>
      <trkpt lat="45.97708" lon="4.7173">
        <ele>196</ele>
        <time>2018-08-22T10:18:15Z</time>
      </trkpt>
      <trkpt lat="45.97701" lon="4.71727">
        <ele>196</ele>
        <time>2018-08-22T10:18:17Z</time>
      </trkpt>
      <trkpt lat="45.97695" lon="4.71726">
        <ele>196</ele>
        <time>2018-08-22T10:18:18Z</time>
      </trkpt>
      <trkpt lat="45.97687" lon="4.71724">
        <ele>196</ele>
        <time>2018-08-22T10:18:20Z</time>
      </trkpt>
      <trkpt lat="45.97683" lon="4.71725">
        <ele>196</ele>
        <time>2018-08-22T10:18:21Z</time>
      </trkpt>
      <trkpt lat="45.97674" lon="4.71723">
        <ele>196</ele>
        <time>2018-08-22T10:18:23Z</time>
      </trkpt>
      <trkpt lat="45.9767" lon="4.71723">
        <ele>196</ele>
        <time>2018-08-22T10:18:24Z</time>
      </trkpt>
      <trkpt lat="45.97666" lon="4.71722">
        <ele>196</ele>
        <time>2018-08-22T10:18:25Z</time>
      </trkpt>
      <trkpt lat="45.9766" lon="4.71722">
        <ele>196</ele>
        <time>2018-08-22T10:18:26Z</time>
      </trkpt>
      <trkpt lat="45.97656" lon="4.71721">
        <ele>196</ele>
        <time>2018-08-22T10:18:27Z</time>
      </trkpt>
      <trkpt lat="45.97651" lon="4.71719">
        <ele>196</ele>
        <time>2018-08-22T10:18:28Z</time>
      </trkpt>
      <trkpt lat="45.97646" lon="4.71718">
        <ele>197</ele>
        <time>2018-08-22T10:18:29Z</time>
      </trkpt>
      <trkpt lat="45.97642" lon="4.71717">
        <ele>197</ele>
        <time>2018-08-22T10:18:30Z</time>
      </trkpt>
      <trkpt lat="45.97634" lon="4.7171">
        <ele>197</ele>
        <time>2018-08-22T10:18:32Z</time>
      </trkpt>
      <trkpt lat="45.97629" lon="4.71706">
        <ele>197</ele>
        <time>2018-08-22T10:18:33Z</time>
      </trkpt>
      <trkpt lat="45.97621" lon="4.71705">
        <ele>197</ele>
        <time>2018-08-22T10:18:35Z</time>
      </trkpt>
      <trkpt lat="45.97616" lon="4.71704">
        <ele>197</ele>
        <time>2018-08-22T10:18:36Z</time>
      </trkpt>
      <trkpt lat="45.9761" lon="4.71704">
        <ele>197</ele>
        <time>2018-08-22T10:18:37Z</time>
      </trkpt>
      <trkpt lat="45.97604" lon="4.71707">
        <ele>197</ele>
        <time>2018-08-22T10:18:38Z</time>
      </trkpt>
      <trkpt lat="45.97601" lon="4.71713">
        <ele>197</ele>
        <time>2018-08-22T10:18:39Z</time>
      </trkpt>
      <trkpt lat="45.97597" lon="4.71718">
        <ele>197</ele>
        <time>2018-08-22T10:18:40Z</time>
      </trkpt>
      <trkpt lat="45.97593" lon="4.71721">
        <ele>197</ele>
        <time>2018-08-22T10:18:41Z</time>
      </trkpt>
      <trkpt lat="45.97588" lon="4.71724">
        <ele>197</ele>
        <time>2018-08-22T10:18:42Z</time>
      </trkpt>
      <trkpt lat="45.97581" lon="4.71718">
        <ele>198</ele>
        <time>2018-08-22T10:18:43Z</time>
      </trkpt>
      <trkpt lat="45.97576" lon="4.71718">
        <ele>198</ele>
        <time>2018-08-22T10:18:44Z</time>
      </trkpt>
      <trkpt lat="45.9757" lon="4.71715">
        <ele>198</ele>
        <time>2018-08-22T10:18:45Z</time>
      </trkpt>
      <trkpt lat="45.97564" lon="4.71713">
        <ele>198</ele>
        <time>2018-08-22T10:18:46Z</time>
      </trkpt>
      <trkpt lat="45.97559" lon="4.71713">
        <ele>198</ele>
        <time>2018-08-22T10:18:47Z</time>
      </trkpt>
      <trkpt lat="45.97554" lon="4.71713">
        <ele>198</ele>
        <time>2018-08-22T10:18:48Z</time>
      </trkpt>
      <trkpt lat="45.97547" lon="4.71712">
        <ele>198</ele>
        <time>2018-08-22T10:18:49Z</time>
      </trkpt>
      <trkpt lat="45.9754" lon="4.71708">
        <ele>199</ele>
        <time>2018-08-22T10:18:50Z</time>
      </trkpt>
      <trkpt lat="45.97534" lon="4.71708">
        <ele>199</ele>
        <time>2018-08-22T10:18:51Z</time>
      </trkpt>
      <trkpt lat="45.9753" lon="4.71709">
        <ele>199</ele>
        <time>2018-08-22T10:18:52Z</time>
      </trkpt>
      <trkpt lat="45.97525" lon="4.71709">
        <ele>199</ele>
        <time>2018-08-22T10:18:53Z</time>
      </trkpt>
      <trkpt lat="45.9752" lon="4.71708">
        <ele>199</ele>
        <time>2018-08-22T10:18:54Z</time>
      </trkpt>
      <trkpt lat="45.97514" lon="4.71708">
        <ele>199</ele>
        <time>2018-08-22T10:18:55Z</time>
      </trkpt>
      <trkpt lat="45.97509" lon="4.71709">
        <ele>199</ele>
        <time>2018-08-22T10:18:56Z</time>
      </trkpt>
      <trkpt lat="45.97503" lon="4.71709">
        <ele>199</ele>
        <time>2018-08-22T10:18:57Z</time>
      </trkpt>
      <trkpt lat="45.97498" lon="4.71709">
        <ele>198</ele>
        <time>2018-08-22T10:18:58Z</time>
      </trkpt>
      <trkpt lat="45.97493" lon="4.71709">
        <ele>198</ele>
        <time>2018-08-22T10:18:59Z</time>
      </trkpt>
      <trkpt lat="45.97486" lon="4.71706">
        <ele>198</ele>
        <time>2018-08-22T10:19:00Z</time>
      </trkpt>
      <trkpt lat="45.9748" lon="4.71705">
        <ele>198</ele>
        <time>2018-08-22T10:19:01Z</time>
      </trkpt>
      <trkpt lat="45.97474" lon="4.71707">
        <ele>198</ele>
        <time>2018-08-22T10:19:02Z</time>
      </trkpt>
      <trkpt lat="45.97467" lon="4.71707">
        <ele>198</ele>
        <time>2018-08-22T10:19:03Z</time>
      </trkpt>
      <trkpt lat="45.97461" lon="4.71707">
        <ele>197</ele>
        <time>2018-08-22T10:19:04Z</time>
      </trkpt>
      <trkpt lat="45.97455" lon="4.71707">
        <ele>197</ele>
        <time>2018-08-22T10:19:05Z</time>
      </trkpt>
      <trkpt lat="45.97449" lon="4.71708">
        <ele>197</ele>
        <time>2018-08-22T10:19:06Z</time>
      </trkpt>
      <trkpt lat="45.97444" lon="4.71708">
        <ele>197</ele>
        <time>2018-08-22T10:19:07Z</time>
      </trkpt>
      <trkpt lat="45.97438" lon="4.71708">
        <ele>197</ele>
        <time>2018-08-22T10:19:08Z</time>
      </trkpt>
      <trkpt lat="45.97433" lon="4.7171">
        <ele>197</ele>
        <time>2018-08-22T10:19:09Z</time>
      </trkpt>
      <trkpt lat="45.97428" lon="4.7171">
        <ele>196</ele>
        <time>2018-08-22T10:19:10Z</time>
      </trkpt>
      <trkpt lat="45.97421" lon="4.71709">
        <ele>196</ele>
        <time>2018-08-22T10:19:11Z</time>
      </trkpt>
      <trkpt lat="45.97415" lon="4.71709">
        <ele>195</ele>
        <time>2018-08-22T10:19:12Z</time>
      </trkpt>
      <trkpt lat="45.97408" lon="4.71711">
        <ele>195</ele>
        <time>2018-08-22T10:19:13Z</time>
      </trkpt>
      <trkpt lat="45.97403" lon="4.7171">
        <ele>195</ele>
        <time>2018-08-22T10:19:14Z</time>
      </trkpt>
      <trkpt lat="45.97398" lon="4.71709">
        <ele>195</ele>
        <time>2018-08-22T10:19:15Z</time>
      </trkpt>
      <trkpt lat="45.97392" lon="4.71707">
        <ele>195</ele>
        <time>2018-08-22T10:19:16Z</time>
      </trkpt>
      <trkpt lat="45.97387" lon="4.71707">
        <ele>195</ele>
        <time>2018-08-22T10:19:17Z</time>
      </trkpt>
      <trkpt lat="45.97382" lon="4.71707">
        <ele>195</ele>
        <time>2018-08-22T10:19:18Z</time>
      </trkpt>
      <trkpt lat="45.97376" lon="4.71705">
        <ele>195</ele>
        <time>2018-08-22T10:19:19Z</time>
      </trkpt>
      <trkpt lat="45.97371" lon="4.71706">
        <ele>195</ele>
        <time>2018-08-22T10:19:20Z</time>
      </trkpt>
      <trkpt lat="45.97365" lon="4.71707">
        <ele>195</ele>
        <time>2018-08-22T10:19:21Z</time>
      </trkpt>
      <trkpt lat="45.97361" lon="4.71708">
        <ele>195</ele>
        <time>2018-08-22T10:19:22Z</time>
      </trkpt>
      <trkpt lat="45.97355" lon="4.71707">
        <ele>195</ele>
        <time>2018-08-22T10:19:23Z</time>
      </trkpt>
      <trkpt lat="45.97348" lon="4.71708">
        <ele>195</ele>
        <time>2018-08-22T10:19:24Z</time>
      </trkpt>
      <trkpt lat="45.97342" lon="4.71707">
        <ele>195</ele>
        <time>2018-08-22T10:19:25Z</time>
      </trkpt>
      <trkpt lat="45.97335" lon="4.71706">
        <ele>195</ele>
        <time>2018-08-22T10:19:26Z</time>
      </trkpt>
      <trkpt lat="45.9733" lon="4.71705">
        <ele>196</ele>
        <time>2018-08-22T10:19:27Z</time>
      </trkpt>
      <trkpt lat="45.97326" lon="4.71707">
        <ele>196</ele>
        <time>2018-08-22T10:19:28Z</time>
      </trkpt>
      <trkpt lat="45.9732" lon="4.71705">
        <ele>196</ele>
        <time>2018-08-22T10:19:29Z</time>
      </trkpt>
      <trkpt lat="45.97314" lon="4.71702">
        <ele>196</ele>
        <time>2018-08-22T10:19:30Z</time>
      </trkpt>
      <trkpt lat="45.97308" lon="4.71699">
        <ele>196</ele>
        <time>2018-08-22T10:19:31Z</time>
      </trkpt>
      <trkpt lat="45.97303" lon="4.717">
        <ele>196</ele>
        <time>2018-08-22T10:19:32Z</time>
      </trkpt>
      <trkpt lat="45.97297" lon="4.71702">
        <ele>196</ele>
        <time>2018-08-22T10:19:33Z</time>
      </trkpt>
      <trkpt lat="45.97291" lon="4.71702">
        <ele>196</ele>
        <time>2018-08-22T10:19:34Z</time>
      </trkpt>
      <trkpt lat="45.97286" lon="4.71704">
        <ele>196</ele>
        <time>2018-08-22T10:19:35Z</time>
      </trkpt>
      <trkpt lat="45.97281" lon="4.71707">
        <ele>196</ele>
        <time>2018-08-22T10:19:36Z</time>
      </trkpt>
      <trkpt lat="45.97275" lon="4.7171">
        <ele>196</ele>
        <time>2018-08-22T10:19:37Z</time>
      </trkpt>
      <trkpt lat="45.97269" lon="4.71705">
        <ele>197</ele>
        <time>2018-08-22T10:19:38Z</time>
      </trkpt>
      <trkpt lat="45.97263" lon="4.71705">
        <ele>197</ele>
        <time>2018-08-22T10:19:39Z</time>
      </trkpt>
      <trkpt lat="45.97257" lon="4.71704">
        <ele>197</ele>
        <time>2018-08-22T10:19:40Z</time>
      </trkpt>
      <trkpt lat="45.97251" lon="4.71701">
        <ele>197</ele>
        <time>2018-08-22T10:19:41Z</time>
      </trkpt>
      <trkpt lat="45.97246" lon="4.717">
        <ele>197</ele>
        <time>2018-08-22T10:19:42Z</time>
      </trkpt>
      <trkpt lat="45.9724" lon="4.71699">
        <ele>197</ele>
        <time>2018-08-22T10:19:43Z</time>
      </trkpt>
      <trkpt lat="45.97234" lon="4.71698">
        <ele>197</ele>
        <time>2018-08-22T10:19:44Z</time>
      </trkpt>
      <trkpt lat="45.97228" lon="4.71697">
        <ele>197</ele>
        <time>2018-08-22T10:19:45Z</time>
      </trkpt>
      <trkpt lat="45.97221" lon="4.71696">
        <ele>197</ele>
        <time>2018-08-22T10:19:46Z</time>
      </trkpt>
      <trkpt lat="45.97215" lon="4.71693">
        <ele>197</ele>
        <time>2018-08-22T10:19:47Z</time>
      </trkpt>
      <trkpt lat="45.97209" lon="4.71693">
        <ele>197</ele>
        <time>2018-08-22T10:19:48Z</time>
      </trkpt>
      <trkpt lat="45.97204" lon="4.71692">
        <ele>197</ele>
        <time>2018-08-22T10:19:49Z</time>
      </trkpt>
      <trkpt lat="45.97199" lon="4.71692">
        <ele>197</ele>
        <time>2018-08-22T10:19:50Z</time>
      </trkpt>
      <trkpt lat="45.97193" lon="4.71692">
        <ele>197</ele>
        <time>2018-08-22T10:19:51Z</time>
      </trkpt>
      <trkpt lat="45.97188" lon="4.7169">
        <ele>197</ele>
        <time>2018-08-22T10:19:52Z</time>
      </trkpt>
      <trkpt lat="45.97179" lon="4.7169">
        <ele>197</ele>
        <time>2018-08-22T10:19:53Z</time>
      </trkpt>
      <trkpt lat="45.97173" lon="4.71689">
        <ele>197</ele>
        <time>2018-08-22T10:19:54Z</time>
      </trkpt>
      <trkpt lat="45.97166" lon="4.71689">
        <ele>196</ele>
        <time>2018-08-22T10:19:55Z</time>
      </trkpt>
      <trkpt lat="45.97161" lon="4.71683">
        <ele>196</ele>
        <time>2018-08-22T10:19:56Z</time>
      </trkpt>
      <trkpt lat="45.97154" lon="4.71684">
        <ele>196</ele>
        <time>2018-08-22T10:19:57Z</time>
      </trkpt>
      <trkpt lat="45.97148" lon="4.71683">
        <ele>195</ele>
        <time>2018-08-22T10:19:58Z</time>
      </trkpt>
      <trkpt lat="45.97141" lon="4.71686">
        <ele>195</ele>
        <time>2018-08-22T10:19:59Z</time>
      </trkpt>
      <trkpt lat="45.97135" lon="4.71685">
        <ele>195</ele>
        <time>2018-08-22T10:20:00Z</time>
      </trkpt>
      <trkpt lat="45.97127" lon="4.71685">
        <ele>195</ele>
        <time>2018-08-22T10:20:01Z</time>
      </trkpt>
      <trkpt lat="45.9712" lon="4.71685">
        <ele>195</ele>
        <time>2018-08-22T10:20:02Z</time>
      </trkpt>
      <trkpt lat="45.97115" lon="4.71683">
        <ele>195</ele>
        <time>2018-08-22T10:20:03Z</time>
      </trkpt>
      <trkpt lat="45.9711" lon="4.71681">
        <ele>194</ele>
        <time>2018-08-22T10:20:04Z</time>
      </trkpt>
      <trkpt lat="45.97101" lon="4.7168">
        <ele>194</ele>
        <time>2018-08-22T10:20:05Z</time>
      </trkpt>
      <trkpt lat="45.97096" lon="4.7168">
        <ele>194</ele>
        <time>2018-08-22T10:20:06Z</time>
      </trkpt>
      <trkpt lat="45.97091" lon="4.71684">
        <ele>194</ele>
        <time>2018-08-22T10:20:07Z</time>
      </trkpt>
      <trkpt lat="45.97084" lon="4.71684">
        <ele>194</ele>
        <time>2018-08-22T10:20:08Z</time>
      </trkpt>
      <trkpt lat="45.97079" lon="4.71685">
        <ele>193</ele>
        <time>2018-08-22T10:20:09Z</time>
      </trkpt>
      <trkpt lat="45.97072" lon="4.71683">
        <ele>193</ele>
        <time>2018-08-22T10:20:10Z</time>
      </trkpt>
      <trkpt lat="45.97066" lon="4.71682">
        <ele>193</ele>
        <time>2018-08-22T10:20:11Z</time>
      </trkpt>
      <trkpt lat="45.97061" lon="4.71681">
        <ele>193</ele>
        <time>2018-08-22T10:20:12Z</time>
      </trkpt>
      <trkpt lat="45.97053" lon="4.71684">
        <ele>193</ele>
        <time>2018-08-22T10:20:14Z</time>
      </trkpt>
      <trkpt lat="45.97046" lon="4.71679">
        <ele>193</ele>
        <time>2018-08-22T10:20:15Z</time>
      </trkpt>
      <trkpt lat="45.9704" lon="4.71677">
        <ele>193</ele>
        <time>2018-08-22T10:20:16Z</time>
      </trkpt>
      <trkpt lat="45.97036" lon="4.71676">
        <ele>193</ele>
        <time>2018-08-22T10:20:17Z</time>
      </trkpt>
      <trkpt lat="45.97031" lon="4.71676">
        <ele>193</ele>
        <time>2018-08-22T10:20:18Z</time>
      </trkpt>
      <trkpt lat="45.97025" lon="4.71674">
        <ele>193</ele>
        <time>2018-08-22T10:20:19Z</time>
      </trkpt>
      <trkpt lat="45.97021" lon="4.71672">
        <ele>193</ele>
        <time>2018-08-22T10:20:20Z</time>
      </trkpt>
      <trkpt lat="45.97015" lon="4.71671">
        <ele>193</ele>
        <time>2018-08-22T10:20:21Z</time>
      </trkpt>
      <trkpt lat="45.97011" lon="4.71675">
        <ele>193</ele>
        <time>2018-08-22T10:20:22Z</time>
      </trkpt>
      <trkpt lat="45.97006" lon="4.71676">
        <ele>193</ele>
        <time>2018-08-22T10:20:23Z</time>
      </trkpt>
      <trkpt lat="45.96998" lon="4.71673">
        <ele>193</ele>
        <time>2018-08-22T10:20:24Z</time>
      </trkpt>
      <trkpt lat="45.9699" lon="4.71673">
        <ele>193</ele>
        <time>2018-08-22T10:20:25Z</time>
      </trkpt>
      <trkpt lat="45.96983" lon="4.71673">
        <ele>192</ele>
        <time>2018-08-22T10:20:26Z</time>
      </trkpt>
      <trkpt lat="45.96976" lon="4.71672">
        <ele>192</ele>
        <time>2018-08-22T10:20:27Z</time>
      </trkpt>
      <trkpt lat="45.9697" lon="4.71671">
        <ele>192</ele>
        <time>2018-08-22T10:20:28Z</time>
      </trkpt>
      <trkpt lat="45.96964" lon="4.71671">
        <ele>192</ele>
        <time>2018-08-22T10:20:29Z</time>
      </trkpt>
      <trkpt lat="45.96958" lon="4.7167">
        <ele>192</ele>
        <time>2018-08-22T10:20:30Z</time>
      </trkpt>
      <trkpt lat="45.96951" lon="4.7167">
        <ele>192</ele>
        <time>2018-08-22T10:20:31Z</time>
      </trkpt>
      <trkpt lat="45.96946" lon="4.7167">
        <ele>192</ele>
        <time>2018-08-22T10:20:32Z</time>
      </trkpt>
      <trkpt lat="45.9694" lon="4.71669">
        <ele>192</ele>
        <time>2018-08-22T10:20:33Z</time>
      </trkpt>
      <trkpt lat="45.96935" lon="4.71668">
        <ele>193</ele>
        <time>2018-08-22T10:20:34Z</time>
      </trkpt>
      <trkpt lat="45.9693" lon="4.71667">
        <ele>193</ele>
        <time>2018-08-22T10:20:35Z</time>
      </trkpt>
      <trkpt lat="45.96924" lon="4.71666">
        <ele>195</ele>
        <time>2018-08-22T10:20:36Z</time>
      </trkpt>
      <trkpt lat="45.96918" lon="4.71664">
        <ele>195</ele>
        <time>2018-08-22T10:20:37Z</time>
      </trkpt>
      <trkpt lat="45.96912" lon="4.71663">
        <ele>195</ele>
        <time>2018-08-22T10:20:38Z</time>
      </trkpt>
      <trkpt lat="45.96907" lon="4.71664">
        <ele>195</ele>
        <time>2018-08-22T10:20:39Z</time>
      </trkpt>
      <trkpt lat="45.96901" lon="4.71664">
        <ele>195</ele>
        <time>2018-08-22T10:20:40Z</time>
      </trkpt>
      <trkpt lat="45.96896" lon="4.71664">
        <ele>195</ele>
        <time>2018-08-22T10:20:41Z</time>
      </trkpt>
      <trkpt lat="45.96889" lon="4.71664">
        <ele>195</ele>
        <time>2018-08-22T10:20:42Z</time>
      </trkpt>
      <trkpt lat="45.96881" lon="4.71665">
        <ele>195</ele>
        <time>2018-08-22T10:20:43Z</time>
      </trkpt>
      <trkpt lat="45.96877" lon="4.71667">
        <ele>191</ele>
        <time>2018-08-22T10:20:44Z</time>
      </trkpt>
      <trkpt lat="45.96871" lon="4.71666">
        <ele>195</ele>
        <time>2018-08-22T10:20:45Z</time>
      </trkpt>
      <trkpt lat="45.96865" lon="4.71665">
        <ele>195</ele>
        <time>2018-08-22T10:20:46Z</time>
      </trkpt>
      <trkpt lat="45.96857" lon="4.71665">
        <ele>194</ele>
        <time>2018-08-22T10:20:47Z</time>
      </trkpt>
      <trkpt lat="45.96849" lon="4.71661">
        <ele>194</ele>
        <time>2018-08-22T10:20:48Z</time>
      </trkpt>
      <trkpt lat="45.96842" lon="4.71659">
        <ele>193</ele>
        <time>2018-08-22T10:20:49Z</time>
      </trkpt>
      <trkpt lat="45.96835" lon="4.71656">
        <ele>193</ele>
        <time>2018-08-22T10:20:50Z</time>
      </trkpt>
      <trkpt lat="45.9683" lon="4.71655">
        <ele>193</ele>
        <time>2018-08-22T10:20:51Z</time>
      </trkpt>
      <trkpt lat="45.96822" lon="4.71654">
        <ele>193</ele>
        <time>2018-08-22T10:20:52Z</time>
      </trkpt>
      <trkpt lat="45.96816" lon="4.71653">
        <ele>193</ele>
        <time>2018-08-22T10:20:53Z</time>
      </trkpt>
      <trkpt lat="45.9681" lon="4.71651">
        <ele>193</ele>
        <time>2018-08-22T10:20:54Z</time>
      </trkpt>
      <trkpt lat="45.96802" lon="4.71649">
        <ele>193</ele>
        <time>2018-08-22T10:20:55Z</time>
      </trkpt>
      <trkpt lat="45.96796" lon="4.71648">
        <ele>193</ele>
        <time>2018-08-22T10:20:56Z</time>
      </trkpt>
      <trkpt lat="45.96789" lon="4.71647">
        <ele>193</ele>
        <time>2018-08-22T10:20:57Z</time>
      </trkpt>
      <trkpt lat="45.96785" lon="4.71644">
        <ele>192</ele>
        <time>2018-08-22T10:20:58Z</time>
      </trkpt>
      <trkpt lat="45.96777" lon="4.71643">
        <ele>192</ele>
        <time>2018-08-22T10:20:59Z</time>
      </trkpt>
      <trkpt lat="45.9677" lon="4.71646">
        <ele>192</ele>
        <time>2018-08-22T10:21:00Z</time>
      </trkpt>
      <trkpt lat="45.96763" lon="4.71645">
        <ele>192</ele>
        <time>2018-08-22T10:21:01Z</time>
      </trkpt>
      <trkpt lat="45.96756" lon="4.71645">
        <ele>191</ele>
        <time>2018-08-22T10:21:02Z</time>
      </trkpt>
      <trkpt lat="45.96749" lon="4.71645">
        <ele>190</ele>
        <time>2018-08-22T10:21:03Z</time>
      </trkpt>
      <trkpt lat="45.96743" lon="4.71644">
        <ele>190</ele>
        <time>2018-08-22T10:21:04Z</time>
      </trkpt>
      <trkpt lat="45.96736" lon="4.71644">
        <ele>190</ele>
        <time>2018-08-22T10:21:05Z</time>
      </trkpt>
      <trkpt lat="45.96728" lon="4.71642">
        <ele>190</ele>
        <time>2018-08-22T10:21:06Z</time>
      </trkpt>
      <trkpt lat="45.96721" lon="4.71641">
        <ele>190</ele>
        <time>2018-08-22T10:21:07Z</time>
      </trkpt>
      <trkpt lat="45.96714" lon="4.7164">
        <ele>190</ele>
        <time>2018-08-22T10:21:08Z</time>
      </trkpt>
      <trkpt lat="45.96707" lon="4.71639">
        <ele>190</ele>
        <time>2018-08-22T10:21:09Z</time>
      </trkpt>
      <trkpt lat="45.967" lon="4.71638">
        <ele>190</ele>
        <time>2018-08-22T10:21:10Z</time>
      </trkpt>
      <trkpt lat="45.96693" lon="4.71637">
        <ele>190</ele>
        <time>2018-08-22T10:21:11Z</time>
      </trkpt>
      <trkpt lat="45.96687" lon="4.71635">
        <ele>190</ele>
        <time>2018-08-22T10:21:12Z</time>
      </trkpt>
      <trkpt lat="45.9668" lon="4.71633">
        <ele>190</ele>
        <time>2018-08-22T10:21:13Z</time>
      </trkpt>
      <trkpt lat="45.96673" lon="4.71631">
        <ele>190</ele>
        <time>2018-08-22T10:21:14Z</time>
      </trkpt>
      <trkpt lat="45.96666" lon="4.71631">
        <ele>188</ele>
        <time>2018-08-22T10:21:15Z</time>
      </trkpt>
      <trkpt lat="45.96659" lon="4.7163">
        <ele>188</ele>
        <time>2018-08-22T10:21:16Z</time>
      </trkpt>
      <trkpt lat="45.96652" lon="4.71629">
        <ele>188</ele>
        <time>2018-08-22T10:21:17Z</time>
      </trkpt>
      <trkpt lat="45.96645" lon="4.71628">
        <ele>188</ele>
        <time>2018-08-22T10:21:18Z</time>
      </trkpt>
      <trkpt lat="45.96637" lon="4.71626">
        <ele>188</ele>
        <time>2018-08-22T10:21:19Z</time>
      </trkpt>
      <trkpt lat="45.96629" lon="4.71626">
        <ele>188</ele>
        <time>2018-08-22T10:21:20Z</time>
      </trkpt>
      <trkpt lat="45.96624" lon="4.71625">
        <ele>188</ele>
        <time>2018-08-22T10:21:21Z</time>
      </trkpt>
      <trkpt lat="45.96617" lon="4.71624">
        <ele>188</ele>
        <time>2018-08-22T10:21:22Z</time>
      </trkpt>
      <trkpt lat="45.96611" lon="4.71623">
        <ele>188</ele>
        <time>2018-08-22T10:21:23Z</time>
      </trkpt>
      <trkpt lat="45.96604" lon="4.71623">
        <ele>187</ele>
        <time>2018-08-22T10:21:24Z</time>
      </trkpt>
      <trkpt lat="45.96597" lon="4.7162">
        <ele>187</ele>
        <time>2018-08-22T10:21:25Z</time>
      </trkpt>
      <trkpt lat="45.96591" lon="4.71619">
        <ele>187</ele>
        <time>2018-08-22T10:21:26Z</time>
      </trkpt>
      <trkpt lat="45.96584" lon="4.71618">
        <ele>187</ele>
        <time>2018-08-22T10:21:27Z</time>
      </trkpt>
      <trkpt lat="45.96578" lon="4.71618">
        <ele>185</ele>
        <time>2018-08-22T10:21:28Z</time>
      </trkpt>
      <trkpt lat="45.9657" lon="4.71615">
        <ele>185</ele>
        <time>2018-08-22T10:21:29Z</time>
      </trkpt>
      <trkpt lat="45.96564" lon="4.71614">
        <ele>185</ele>
        <time>2018-08-22T10:21:30Z</time>
      </trkpt>
      <trkpt lat="45.96559" lon="4.71615">
        <ele>185</ele>
        <time>2018-08-22T10:21:31Z</time>
      </trkpt>
      <trkpt lat="45.96552" lon="4.71612">
        <ele>185</ele>
        <time>2018-08-22T10:21:32Z</time>
      </trkpt>
      <trkpt lat="45.96547" lon="4.7161">
        <ele>185</ele>
        <time>2018-08-22T10:21:33Z</time>
      </trkpt>
      <trkpt lat="45.96543" lon="4.71604">
        <ele>185</ele>
        <time>2018-08-22T10:21:34Z</time>
      </trkpt>
      <trkpt lat="45.96538" lon="4.716">
        <ele>185</ele>
        <time>2018-08-22T10:21:35Z</time>
      </trkpt>
      <trkpt lat="45.96533" lon="4.71598">
        <ele>185</ele>
        <time>2018-08-22T10:21:36Z</time>
      </trkpt>
      <trkpt lat="45.96527" lon="4.71596">
        <ele>185</ele>
        <time>2018-08-22T10:21:37Z</time>
      </trkpt>
      <trkpt lat="45.96519" lon="4.71597">
        <ele>185</ele>
        <time>2018-08-22T10:21:38Z</time>
      </trkpt>
      <trkpt lat="45.96513" lon="4.71599">
        <ele>185</ele>
        <time>2018-08-22T10:21:39Z</time>
      </trkpt>
      <trkpt lat="45.96507" lon="4.71601">
        <ele>184</ele>
        <time>2018-08-22T10:21:40Z</time>
      </trkpt>
      <trkpt lat="45.965" lon="4.716">
        <ele>185</ele>
        <time>2018-08-22T10:21:41Z</time>
      </trkpt>
      <trkpt lat="45.96494" lon="4.716">
        <ele>184</ele>
        <time>2018-08-22T10:21:42Z</time>
      </trkpt>
      <trkpt lat="45.96489" lon="4.71599">
        <ele>184</ele>
        <time>2018-08-22T10:21:43Z</time>
      </trkpt>
      <trkpt lat="45.96482" lon="4.71597">
        <ele>184</ele>
        <time>2018-08-22T10:21:44Z</time>
      </trkpt>
      <trkpt lat="45.96477" lon="4.71595">
        <ele>183</ele>
        <time>2018-08-22T10:21:45Z</time>
      </trkpt>
      <trkpt lat="45.96471" lon="4.716">
        <ele>183</ele>
        <time>2018-08-22T10:21:46Z</time>
      </trkpt>
      <trkpt lat="45.96464" lon="4.716">
        <ele>183</ele>
        <time>2018-08-22T10:21:47Z</time>
      </trkpt>
      <trkpt lat="45.96459" lon="4.71601">
        <ele>183</ele>
        <time>2018-08-22T10:21:48Z</time>
      </trkpt>
      <trkpt lat="45.96453" lon="4.716">
        <ele>183</ele>
        <time>2018-08-22T10:21:49Z</time>
      </trkpt>
      <trkpt lat="45.96445" lon="4.716">
        <ele>183</ele>
        <time>2018-08-22T10:21:50Z</time>
      </trkpt>
      <trkpt lat="45.96439" lon="4.71601">
        <ele>183</ele>
        <time>2018-08-22T10:21:51Z</time>
      </trkpt>
      <trkpt lat="45.96433" lon="4.716">
        <ele>183</ele>
        <time>2018-08-22T10:21:52Z</time>
      </trkpt>
      <trkpt lat="45.96427" lon="4.71599">
        <ele>184</ele>
        <time>2018-08-22T10:21:53Z</time>
      </trkpt>
      <trkpt lat="45.9642" lon="4.71597">
        <ele>184</ele>
        <time>2018-08-22T10:21:54Z</time>
      </trkpt>
      <trkpt lat="45.96414" lon="4.71596">
        <ele>184</ele>
        <time>2018-08-22T10:21:55Z</time>
      </trkpt>
      <trkpt lat="45.96407" lon="4.71596">
        <ele>183</ele>
        <time>2018-08-22T10:21:56Z</time>
      </trkpt>
      <trkpt lat="45.96402" lon="4.71593">
        <ele>183</ele>
        <time>2018-08-22T10:21:57Z</time>
      </trkpt>
      <trkpt lat="45.96394" lon="4.71593">
        <ele>183</ele>
        <time>2018-08-22T10:21:58Z</time>
      </trkpt>
      <trkpt lat="45.96388" lon="4.71591">
        <ele>183</ele>
        <time>2018-08-22T10:21:59Z</time>
      </trkpt>
      <trkpt lat="45.96382" lon="4.71588">
        <ele>183</ele>
        <time>2018-08-22T10:22:00Z</time>
      </trkpt>
      <trkpt lat="45.96377" lon="4.71585">
        <ele>182</ele>
        <time>2018-08-22T10:22:01Z</time>
      </trkpt>
      <trkpt lat="45.9637" lon="4.71584">
        <ele>182</ele>
        <time>2018-08-22T10:22:02Z</time>
      </trkpt>
      <trkpt lat="45.96365" lon="4.71585">
        <ele>182</ele>
        <time>2018-08-22T10:22:03Z</time>
      </trkpt>
      <trkpt lat="45.96359" lon="4.71584">
        <ele>182</ele>
        <time>2018-08-22T10:22:04Z</time>
      </trkpt>
      <trkpt lat="45.96353" lon="4.71583">
        <ele>185</ele>
        <time>2018-08-22T10:22:05Z</time>
      </trkpt>
      <trkpt lat="45.96348" lon="4.71582">
        <ele>185</ele>
        <time>2018-08-22T10:22:06Z</time>
      </trkpt>
      <trkpt lat="45.96342" lon="4.71581">
        <ele>184</ele>
        <time>2018-08-22T10:22:07Z</time>
      </trkpt>
      <trkpt lat="45.96336" lon="4.7158">
        <ele>184</ele>
        <time>2018-08-22T10:22:08Z</time>
      </trkpt>
      <trkpt lat="45.96328" lon="4.71578">
        <ele>184</ele>
        <time>2018-08-22T10:22:09Z</time>
      </trkpt>
      <trkpt lat="45.96322" lon="4.71577">
        <ele>184</ele>
        <time>2018-08-22T10:22:10Z</time>
      </trkpt>
      <trkpt lat="45.96316" lon="4.71579">
        <ele>184</ele>
        <time>2018-08-22T10:22:11Z</time>
      </trkpt>
      <trkpt lat="45.96309" lon="4.71578">
        <ele>184</ele>
        <time>2018-08-22T10:22:12Z</time>
      </trkpt>
      <trkpt lat="45.96303" lon="4.71576">
        <ele>184</ele>
        <time>2018-08-22T10:22:13Z</time>
      </trkpt>
      <trkpt lat="45.96295" lon="4.71574">
        <ele>184</ele>
        <time>2018-08-22T10:22:14Z</time>
      </trkpt>
      <trkpt lat="45.96287" lon="4.71575">
        <ele>184</ele>
        <time>2018-08-22T10:22:15Z</time>
      </trkpt>
      <trkpt lat="45.9628" lon="4.71574">
        <ele>184</ele>
        <time>2018-08-22T10:22:16Z</time>
      </trkpt>
      <trkpt lat="45.96273" lon="4.71573">
        <ele>184</ele>
        <time>2018-08-22T10:22:17Z</time>
      </trkpt>
      <trkpt lat="45.96266" lon="4.71571">
        <ele>183</ele>
        <time>2018-08-22T10:22:18Z</time>
      </trkpt>
      <trkpt lat="45.9626" lon="4.7157">
        <ele>183</ele>
        <time>2018-08-22T10:22:19Z</time>
      </trkpt>
      <trkpt lat="45.96253" lon="4.71569">
        <ele>183</ele>
        <time>2018-08-22T10:22:20Z</time>
      </trkpt>
      <trkpt lat="45.96246" lon="4.71568">
        <ele>183</ele>
        <time>2018-08-22T10:22:21Z</time>
      </trkpt>
      <trkpt lat="45.9624" lon="4.71567">
        <ele>183</ele>
        <time>2018-08-22T10:22:22Z</time>
      </trkpt>
      <trkpt lat="45.96235" lon="4.71574">
        <ele>183</ele>
        <time>2018-08-22T10:22:23Z</time>
      </trkpt>
      <trkpt lat="45.96228" lon="4.71569">
        <ele>183</ele>
        <time>2018-08-22T10:22:24Z</time>
      </trkpt>
      <trkpt lat="45.9622" lon="4.71568">
        <ele>183</ele>
        <time>2018-08-22T10:22:25Z</time>
      </trkpt>
      <trkpt lat="45.96213" lon="4.71566">
        <ele>183</ele>
        <time>2018-08-22T10:22:26Z</time>
      </trkpt>
      <trkpt lat="45.96208" lon="4.71565">
        <ele>183</ele>
        <time>2018-08-22T10:22:27Z</time>
      </trkpt>
      <trkpt lat="45.96202" lon="4.71564">
        <ele>183</ele>
        <time>2018-08-22T10:22:28Z</time>
      </trkpt>
      <trkpt lat="45.96196" lon="4.71563">
        <ele>183</ele>
        <time>2018-08-22T10:22:29Z</time>
      </trkpt>
      <trkpt lat="45.96191" lon="4.71561">
        <ele>183</ele>
        <time>2018-08-22T10:22:30Z</time>
      </trkpt>
      <trkpt lat="45.96184" lon="4.71557">
        <ele>183</ele>
        <time>2018-08-22T10:22:31Z</time>
      </trkpt>
      <trkpt lat="45.9618" lon="4.71557">
        <ele>183</ele>
        <time>2018-08-22T10:22:32Z</time>
      </trkpt>
      <trkpt lat="45.96174" lon="4.7155">
        <ele>184</ele>
        <time>2018-08-22T10:22:33Z</time>
      </trkpt>
      <trkpt lat="45.96165" lon="4.7155">
        <ele>184</ele>
        <time>2018-08-22T10:22:34Z</time>
      </trkpt>
      <trkpt lat="45.96161" lon="4.71551">
        <ele>184</ele>
        <time>2018-08-22T10:22:35Z</time>
      </trkpt>
      <trkpt lat="45.96154" lon="4.71548">
        <ele>184</ele>
        <time>2018-08-22T10:22:36Z</time>
      </trkpt>
      <trkpt lat="45.96148" lon="4.71546">
        <ele>184</ele>
        <time>2018-08-22T10:22:37Z</time>
      </trkpt>
      <trkpt lat="45.96142" lon="4.71544">
        <ele>185</ele>
        <time>2018-08-22T10:22:38Z</time>
      </trkpt>
      <trkpt lat="45.96136" lon="4.71543">
        <ele>185</ele>
        <time>2018-08-22T10:22:39Z</time>
      </trkpt>
      <trkpt lat="45.9613" lon="4.71542">
        <ele>185</ele>
        <time>2018-08-22T10:22:40Z</time>
      </trkpt>
      <trkpt lat="45.96125" lon="4.71541">
        <ele>185</ele>
        <time>2018-08-22T10:22:41Z</time>
      </trkpt>
      <trkpt lat="45.9612" lon="4.71539">
        <ele>185</ele>
        <time>2018-08-22T10:22:42Z</time>
      </trkpt>
      <trkpt lat="45.96113" lon="4.71538">
        <ele>185</ele>
        <time>2018-08-22T10:22:43Z</time>
      </trkpt>
      <trkpt lat="45.96106" lon="4.71538">
        <ele>185</ele>
        <time>2018-08-22T10:22:44Z</time>
      </trkpt>
      <trkpt lat="45.96101" lon="4.71538">
        <ele>185</ele>
        <time>2018-08-22T10:22:45Z</time>
      </trkpt>
      <trkpt lat="45.96095" lon="4.71537">
        <ele>185</ele>
        <time>2018-08-22T10:22:46Z</time>
      </trkpt>
      <trkpt lat="45.96089" lon="4.71536">
        <ele>185</ele>
        <time>2018-08-22T10:22:47Z</time>
      </trkpt>
      <trkpt lat="45.96083" lon="4.71535">
        <ele>186</ele>
        <time>2018-08-22T10:22:48Z</time>
      </trkpt>
      <trkpt lat="45.96077" lon="4.71534">
        <ele>186</ele>
        <time>2018-08-22T10:22:49Z</time>
      </trkpt>
      <trkpt lat="45.96072" lon="4.71533">
        <ele>186</ele>
        <time>2018-08-22T10:22:50Z</time>
      </trkpt>
      <trkpt lat="45.96066" lon="4.71532">
        <ele>186</ele>
        <time>2018-08-22T10:22:51Z</time>
      </trkpt>
      <trkpt lat="45.9606" lon="4.71531">
        <ele>186</ele>
        <time>2018-08-22T10:22:52Z</time>
      </trkpt>
      <trkpt lat="45.96055" lon="4.71529">
        <ele>186</ele>
        <time>2018-08-22T10:22:53Z</time>
      </trkpt>
      <trkpt lat="45.96049" lon="4.71528">
        <ele>186</ele>
        <time>2018-08-22T10:22:54Z</time>
      </trkpt>
      <trkpt lat="45.96044" lon="4.71527">
        <ele>186</ele>
        <time>2018-08-22T10:22:55Z</time>
      </trkpt>
      <trkpt lat="45.96039" lon="4.71526">
        <ele>186</ele>
        <time>2018-08-22T10:22:56Z</time>
      </trkpt>
      <trkpt lat="45.96033" lon="4.71527">
        <ele>186</ele>
        <time>2018-08-22T10:22:57Z</time>
      </trkpt>
      <trkpt lat="45.96029" lon="4.71529">
        <ele>186</ele>
        <time>2018-08-22T10:22:58Z</time>
      </trkpt>
      <trkpt lat="45.96023" lon="4.71526">
        <ele>186</ele>
        <time>2018-08-22T10:22:59Z</time>
      </trkpt>
      <trkpt lat="45.96017" lon="4.71525">
        <ele>186</ele>
        <time>2018-08-22T10:23:00Z</time>
      </trkpt>
      <trkpt lat="45.9601" lon="4.71523">
        <ele>186</ele>
        <time>2018-08-22T10:23:01Z</time>
      </trkpt>
      <trkpt lat="45.96005" lon="4.71521">
        <ele>186</ele>
        <time>2018-08-22T10:23:02Z</time>
      </trkpt>
      <trkpt lat="45.96002" lon="4.71517">
        <ele>187</ele>
        <time>2018-08-22T10:23:03Z</time>
      </trkpt>
      <trkpt lat="45.95996" lon="4.71518">
        <ele>186</ele>
        <time>2018-08-22T10:23:04Z</time>
      </trkpt>
      <trkpt lat="45.95991" lon="4.71515">
        <ele>186</ele>
        <time>2018-08-22T10:23:05Z</time>
      </trkpt>
      <trkpt lat="45.95987" lon="4.71514">
        <ele>186</ele>
        <time>2018-08-22T10:23:06Z</time>
      </trkpt>
      <trkpt lat="45.95981" lon="4.71512">
        <ele>185</ele>
        <time>2018-08-22T10:23:07Z</time>
      </trkpt>
      <trkpt lat="45.95975" lon="4.71512">
        <ele>185</ele>
        <time>2018-08-22T10:23:08Z</time>
      </trkpt>
      <trkpt lat="45.9597" lon="4.71514">
        <ele>185</ele>
        <time>2018-08-22T10:23:09Z</time>
      </trkpt>
      <trkpt lat="45.95964" lon="4.71515">
        <ele>184</ele>
        <time>2018-08-22T10:23:10Z</time>
      </trkpt>
      <trkpt lat="45.95959" lon="4.71517">
        <ele>184</ele>
        <time>2018-08-22T10:23:11Z</time>
      </trkpt>
      <trkpt lat="45.95954" lon="4.71518">
        <ele>184</ele>
        <time>2018-08-22T10:23:12Z</time>
      </trkpt>
      <trkpt lat="45.95951" lon="4.71523">
        <ele>184</ele>
        <time>2018-08-22T10:23:13Z</time>
      </trkpt>
      <trkpt lat="45.95946" lon="4.71524">
        <ele>184</ele>
        <time>2018-08-22T10:23:14Z</time>
      </trkpt>
      <trkpt lat="45.95939" lon="4.71524">
        <ele>184</ele>
        <time>2018-08-22T10:23:15Z</time>
      </trkpt>
      <trkpt lat="45.95933" lon="4.71525">
        <ele>184</ele>
        <time>2018-08-22T10:23:16Z</time>
      </trkpt>
      <trkpt lat="45.95927" lon="4.71523">
        <ele>184</ele>
        <time>2018-08-22T10:23:17Z</time>
      </trkpt>
      <trkpt lat="45.95921" lon="4.71523">
        <ele>184</ele>
        <time>2018-08-22T10:23:18Z</time>
      </trkpt>
      <trkpt lat="45.95914" lon="4.71523">
        <ele>183</ele>
        <time>2018-08-22T10:23:19Z</time>
      </trkpt>
      <trkpt lat="45.95907" lon="4.71523">
        <ele>182</ele>
        <time>2018-08-22T10:23:20Z</time>
      </trkpt>
      <trkpt lat="45.95901" lon="4.71527">
        <ele>182</ele>
        <time>2018-08-22T10:23:21Z</time>
      </trkpt>
      <trkpt lat="45.95895" lon="4.71529">
        <ele>182</ele>
        <time>2018-08-22T10:23:22Z</time>
      </trkpt>
      <trkpt lat="45.95888" lon="4.71528">
        <ele>182</ele>
        <time>2018-08-22T10:23:23Z</time>
      </trkpt>
      <trkpt lat="45.95882" lon="4.7153">
        <ele>182</ele>
        <time>2018-08-22T10:23:24Z</time>
      </trkpt>
      <trkpt lat="45.95876" lon="4.7153">
        <ele>182</ele>
        <time>2018-08-22T10:23:25Z</time>
      </trkpt>
      <trkpt lat="45.95869" lon="4.71527">
        <ele>182</ele>
        <time>2018-08-22T10:23:26Z</time>
      </trkpt>
      <trkpt lat="45.95863" lon="4.71527">
        <ele>182</ele>
        <time>2018-08-22T10:23:27Z</time>
      </trkpt>
      <trkpt lat="45.95856" lon="4.71527">
        <ele>182</ele>
        <time>2018-08-22T10:23:28Z</time>
      </trkpt>
      <trkpt lat="45.95851" lon="4.71528">
        <ele>182</ele>
        <time>2018-08-22T10:23:29Z</time>
      </trkpt>
      <trkpt lat="45.95843" lon="4.71528">
        <ele>182</ele>
        <time>2018-08-22T10:23:30Z</time>
      </trkpt>
      <trkpt lat="45.95836" lon="4.71527">
        <ele>182</ele>
        <time>2018-08-22T10:23:31Z</time>
      </trkpt>
      <trkpt lat="45.9583" lon="4.71527">
        <ele>181</ele>
        <time>2018-08-22T10:23:32Z</time>
      </trkpt>
      <trkpt lat="45.95824" lon="4.71526">
        <ele>181</ele>
        <time>2018-08-22T10:23:33Z</time>
      </trkpt>
      <trkpt lat="45.95818" lon="4.71525">
        <ele>181</ele>
        <time>2018-08-22T10:23:34Z</time>
      </trkpt>
      <trkpt lat="45.95812" lon="4.71524">
        <ele>181</ele>
        <time>2018-08-22T10:23:35Z</time>
      </trkpt>
      <trkpt lat="45.95805" lon="4.71522">
        <ele>181</ele>
        <time>2018-08-22T10:23:36Z</time>
      </trkpt>
      <trkpt lat="45.95799" lon="4.71523">
        <ele>181</ele>
        <time>2018-08-22T10:23:37Z</time>
      </trkpt>
      <trkpt lat="45.95794" lon="4.71522">
        <ele>181</ele>
        <time>2018-08-22T10:23:38Z</time>
      </trkpt>
      <trkpt lat="45.95787" lon="4.71521">
        <ele>181</ele>
        <time>2018-08-22T10:23:39Z</time>
      </trkpt>
      <trkpt lat="45.95781" lon="4.7152">
        <ele>181</ele>
        <time>2018-08-22T10:23:40Z</time>
      </trkpt>
      <trkpt lat="45.95775" lon="4.71518">
        <ele>181</ele>
        <time>2018-08-22T10:23:41Z</time>
      </trkpt>
      <trkpt lat="45.95769" lon="4.71515">
        <ele>181</ele>
        <time>2018-08-22T10:23:42Z</time>
      </trkpt>
      <trkpt lat="45.95763" lon="4.71515">
        <ele>181</ele>
        <time>2018-08-22T10:23:43Z</time>
      </trkpt>
      <trkpt lat="45.95756" lon="4.71514">
        <ele>181</ele>
        <time>2018-08-22T10:23:44Z</time>
      </trkpt>
      <trkpt lat="45.95749" lon="4.71513">
        <ele>181</ele>
        <time>2018-08-22T10:23:45Z</time>
      </trkpt>
      <trkpt lat="45.95739" lon="4.71515">
        <ele>181</ele>
        <time>2018-08-22T10:23:46Z</time>
      </trkpt>
      <trkpt lat="45.95733" lon="4.71515">
        <ele>181</ele>
        <time>2018-08-22T10:23:47Z</time>
      </trkpt>
      <trkpt lat="45.95727" lon="4.71514">
        <ele>180</ele>
        <time>2018-08-22T10:23:48Z</time>
      </trkpt>
      <trkpt lat="45.9572" lon="4.71514">
        <ele>180</ele>
        <time>2018-08-22T10:23:49Z</time>
      </trkpt>
      <trkpt lat="45.95713" lon="4.71511">
        <ele>180</ele>
        <time>2018-08-22T10:23:50Z</time>
      </trkpt>
      <trkpt lat="45.95705" lon="4.71502">
        <ele>180</ele>
        <time>2018-08-22T10:23:51Z</time>
      </trkpt>
      <trkpt lat="45.95696" lon="4.71502">
        <ele>181</ele>
        <time>2018-08-22T10:23:52Z</time>
      </trkpt>
      <trkpt lat="45.95689" lon="4.71502">
        <ele>181</ele>
        <time>2018-08-22T10:23:53Z</time>
      </trkpt>
      <trkpt lat="45.95682" lon="4.715">
        <ele>181</ele>
        <time>2018-08-22T10:23:54Z</time>
      </trkpt>
      <trkpt lat="45.95674" lon="4.71501">
        <ele>181</ele>
        <time>2018-08-22T10:23:55Z</time>
      </trkpt>
      <trkpt lat="45.95667" lon="4.715">
        <ele>182</ele>
        <time>2018-08-22T10:23:56Z</time>
      </trkpt>
      <trkpt lat="45.9566" lon="4.71497">
        <ele>182</ele>
        <time>2018-08-22T10:23:57Z</time>
      </trkpt>
      <trkpt lat="45.95654" lon="4.71496">
        <ele>182</ele>
        <time>2018-08-22T10:23:58Z</time>
      </trkpt>
      <trkpt lat="45.95647" lon="4.71497">
        <ele>182</ele>
        <time>2018-08-22T10:23:59Z</time>
      </trkpt>
      <trkpt lat="45.95639" lon="4.71496">
        <ele>182</ele>
        <time>2018-08-22T10:24:00Z</time>
      </trkpt>
      <trkpt lat="45.95631" lon="4.71495">
        <ele>182</ele>
        <time>2018-08-22T10:24:01Z</time>
      </trkpt>
      <trkpt lat="45.95623" lon="4.71492">
        <ele>181</ele>
        <time>2018-08-22T10:24:02Z</time>
      </trkpt>
      <trkpt lat="45.95617" lon="4.71492">
        <ele>181</ele>
        <time>2018-08-22T10:24:03Z</time>
      </trkpt>
      <trkpt lat="45.9561" lon="4.71492">
        <ele>181</ele>
        <time>2018-08-22T10:24:04Z</time>
      </trkpt>
      <trkpt lat="45.95603" lon="4.71488">
        <ele>181</ele>
        <time>2018-08-22T10:24:05Z</time>
      </trkpt>
      <trkpt lat="45.95597" lon="4.71487">
        <ele>181</ele>
        <time>2018-08-22T10:24:06Z</time>
      </trkpt>
      <trkpt lat="45.95592" lon="4.71485">
        <ele>181</ele>
        <time>2018-08-22T10:24:07Z</time>
      </trkpt>
      <trkpt lat="45.95587" lon="4.71483">
        <ele>181</ele>
        <time>2018-08-22T10:24:08Z</time>
      </trkpt>
      <trkpt lat="45.9558" lon="4.71484">
        <ele>180</ele>
        <time>2018-08-22T10:24:09Z</time>
      </trkpt>
      <trkpt lat="45.95574" lon="4.71484">
        <ele>180</ele>
        <time>2018-08-22T10:24:10Z</time>
      </trkpt>
      <trkpt lat="45.95563" lon="4.71479">
        <ele>179</ele>
        <time>2018-08-22T10:24:11Z</time>
      </trkpt>
      <trkpt lat="45.95554" lon="4.71476">
        <ele>179</ele>
        <time>2018-08-22T10:24:12Z</time>
      </trkpt>
      <trkpt lat="45.95549" lon="4.71475">
        <ele>179</ele>
        <time>2018-08-22T10:24:13Z</time>
      </trkpt>
      <trkpt lat="45.95541" lon="4.71473">
        <ele>179</ele>
        <time>2018-08-22T10:24:14Z</time>
      </trkpt>
      <trkpt lat="45.95535" lon="4.71473">
        <ele>179</ele>
        <time>2018-08-22T10:24:15Z</time>
      </trkpt>
      <trkpt lat="45.95527" lon="4.71472">
        <ele>179</ele>
        <time>2018-08-22T10:24:16Z</time>
      </trkpt>
      <trkpt lat="45.9552" lon="4.71472">
        <ele>178</ele>
        <time>2018-08-22T10:24:17Z</time>
      </trkpt>
      <trkpt lat="45.95512" lon="4.71472">
        <ele>178</ele>
        <time>2018-08-22T10:24:18Z</time>
      </trkpt>
      <trkpt lat="45.95503" lon="4.71471">
        <ele>178</ele>
        <time>2018-08-22T10:24:19Z</time>
      </trkpt>
      <trkpt lat="45.95496" lon="4.71471">
        <ele>177</ele>
        <time>2018-08-22T10:24:20Z</time>
      </trkpt>
      <trkpt lat="45.9549" lon="4.71472">
        <ele>176</ele>
        <time>2018-08-22T10:24:21Z</time>
      </trkpt>
      <trkpt lat="45.95482" lon="4.71472">
        <ele>176</ele>
        <time>2018-08-22T10:24:22Z</time>
      </trkpt>
      <trkpt lat="45.95476" lon="4.71475">
        <ele>176</ele>
        <time>2018-08-22T10:24:23Z</time>
      </trkpt>
      <trkpt lat="45.9547" lon="4.71475">
        <ele>176</ele>
        <time>2018-08-22T10:24:24Z</time>
      </trkpt>
      <trkpt lat="45.95463" lon="4.71475">
        <ele>176</ele>
        <time>2018-08-22T10:24:25Z</time>
      </trkpt>
      <trkpt lat="45.95456" lon="4.71474">
        <ele>176</ele>
        <time>2018-08-22T10:24:26Z</time>
      </trkpt>
      <trkpt lat="45.95449" lon="4.71474">
        <ele>176</ele>
        <time>2018-08-22T10:24:27Z</time>
      </trkpt>
      <trkpt lat="45.95443" lon="4.71474">
        <ele>176</ele>
        <time>2018-08-22T10:24:28Z</time>
      </trkpt>
      <trkpt lat="45.95437" lon="4.71475">
        <ele>176</ele>
        <time>2018-08-22T10:24:29Z</time>
      </trkpt>
      <trkpt lat="45.95431" lon="4.71476">
        <ele>176</ele>
        <time>2018-08-22T10:24:30Z</time>
      </trkpt>
      <trkpt lat="45.95425" lon="4.71479">
        <ele>175</ele>
        <time>2018-08-22T10:24:31Z</time>
      </trkpt>
      <trkpt lat="45.95418" lon="4.71478">
        <ele>175</ele>
        <time>2018-08-22T10:24:32Z</time>
      </trkpt>
      <trkpt lat="45.95412" lon="4.71479">
        <ele>175</ele>
        <time>2018-08-22T10:24:33Z</time>
      </trkpt>
      <trkpt lat="45.95404" lon="4.71479">
        <ele>175</ele>
        <time>2018-08-22T10:24:34Z</time>
      </trkpt>
      <trkpt lat="45.95397" lon="4.71478">
        <ele>175</ele>
        <time>2018-08-22T10:24:35Z</time>
      </trkpt>
      <trkpt lat="45.95391" lon="4.71479">
        <ele>175</ele>
        <time>2018-08-22T10:24:36Z</time>
      </trkpt>
      <trkpt lat="45.95385" lon="4.71476">
        <ele>175</ele>
        <time>2018-08-22T10:24:37Z</time>
      </trkpt>
      <trkpt lat="45.95378" lon="4.7148">
        <ele>175</ele>
        <time>2018-08-22T10:24:38Z</time>
      </trkpt>
      <trkpt lat="45.95372" lon="4.71478">
        <ele>175</ele>
        <time>2018-08-22T10:24:39Z</time>
      </trkpt>
      <trkpt lat="45.95366" lon="4.71477">
        <ele>175</ele>
        <time>2018-08-22T10:24:40Z</time>
      </trkpt>
      <trkpt lat="45.95358" lon="4.71477">
        <ele>175</ele>
        <time>2018-08-22T10:24:41Z</time>
      </trkpt>
      <trkpt lat="45.95352" lon="4.71476">
        <ele>175</ele>
        <time>2018-08-22T10:24:42Z</time>
      </trkpt>
      <trkpt lat="45.95346" lon="4.71476">
        <ele>175</ele>
        <time>2018-08-22T10:24:43Z</time>
      </trkpt>
      <trkpt lat="45.95339" lon="4.71475">
        <ele>175</ele>
        <time>2018-08-22T10:24:44Z</time>
      </trkpt>
      <trkpt lat="45.95331" lon="4.71475">
        <ele>175</ele>
        <time>2018-08-22T10:24:45Z</time>
      </trkpt>
      <trkpt lat="45.95326" lon="4.71479">
        <ele>175</ele>
        <time>2018-08-22T10:24:46Z</time>
      </trkpt>
      <trkpt lat="45.9532" lon="4.71475">
        <ele>175</ele>
        <time>2018-08-22T10:24:47Z</time>
      </trkpt>
      <trkpt lat="45.95315" lon="4.71474">
        <ele>175</ele>
        <time>2018-08-22T10:24:48Z</time>
      </trkpt>
      <trkpt lat="45.95309" lon="4.71473">
        <ele>175</ele>
        <time>2018-08-22T10:24:49Z</time>
      </trkpt>
      <trkpt lat="45.95303" lon="4.71473">
        <ele>176</ele>
        <time>2018-08-22T10:24:50Z</time>
      </trkpt>
      <trkpt lat="45.95298" lon="4.71473">
        <ele>176</ele>
        <time>2018-08-22T10:24:51Z</time>
      </trkpt>
      <trkpt lat="45.95292" lon="4.71475">
        <ele>176</ele>
        <time>2018-08-22T10:24:52Z</time>
      </trkpt>
      <trkpt lat="45.95287" lon="4.71476">
        <ele>176</ele>
        <time>2018-08-22T10:24:53Z</time>
      </trkpt>
      <trkpt lat="45.95279" lon="4.71476">
        <ele>176</ele>
        <time>2018-08-22T10:24:54Z</time>
      </trkpt>
      <trkpt lat="45.95273" lon="4.71475">
        <ele>176</ele>
        <time>2018-08-22T10:24:55Z</time>
      </trkpt>
      <trkpt lat="45.95267" lon="4.71475">
        <ele>176</ele>
        <time>2018-08-22T10:24:56Z</time>
      </trkpt>
      <trkpt lat="45.95261" lon="4.71475">
        <ele>176</ele>
        <time>2018-08-22T10:24:57Z</time>
      </trkpt>
      <trkpt lat="45.95255" lon="4.71477">
        <ele>176</ele>
        <time>2018-08-22T10:24:58Z</time>
      </trkpt>
      <trkpt lat="45.95249" lon="4.71476">
        <ele>177</ele>
        <time>2018-08-22T10:24:59Z</time>
      </trkpt>
      <trkpt lat="45.95241" lon="4.71476">
        <ele>177</ele>
        <time>2018-08-22T10:25:00Z</time>
      </trkpt>
      <trkpt lat="45.95235" lon="4.71476">
        <ele>177</ele>
        <time>2018-08-22T10:25:01Z</time>
      </trkpt>
      <trkpt lat="45.95229" lon="4.71475">
        <ele>177</ele>
        <time>2018-08-22T10:25:02Z</time>
      </trkpt>
      <trkpt lat="45.95223" lon="4.71475">
        <ele>177</ele>
        <time>2018-08-22T10:25:03Z</time>
      </trkpt>
      <trkpt lat="45.95217" lon="4.71475">
        <ele>177</ele>
        <time>2018-08-22T10:25:04Z</time>
      </trkpt>
      <trkpt lat="45.95211" lon="4.71475">
        <ele>177</ele>
        <time>2018-08-22T10:25:05Z</time>
      </trkpt>
      <trkpt lat="45.95206" lon="4.71475">
        <ele>177</ele>
        <time>2018-08-22T10:25:06Z</time>
      </trkpt>
      <trkpt lat="45.95198" lon="4.71474">
        <ele>177</ele>
        <time>2018-08-22T10:25:07Z</time>
      </trkpt>
      <trkpt lat="45.95192" lon="4.71474">
        <ele>177</ele>
        <time>2018-08-22T10:25:08Z</time>
      </trkpt>
      <trkpt lat="45.95186" lon="4.71472">
        <ele>177</ele>
        <time>2018-08-22T10:25:09Z</time>
      </trkpt>
      <trkpt lat="45.9518" lon="4.71469">
        <ele>177</ele>
        <time>2018-08-22T10:25:10Z</time>
      </trkpt>
      <trkpt lat="45.95177" lon="4.71477">
        <ele>177</ele>
        <time>2018-08-22T10:25:11Z</time>
      </trkpt>
      <trkpt lat="45.95171" lon="4.71476">
        <ele>177</ele>
        <time>2018-08-22T10:25:12Z</time>
      </trkpt>
      <trkpt lat="45.95165" lon="4.71476">
        <ele>178</ele>
        <time>2018-08-22T10:25:13Z</time>
      </trkpt>
      <trkpt lat="45.95159" lon="4.71477">
        <ele>178</ele>
        <time>2018-08-22T10:25:14Z</time>
      </trkpt>
      <trkpt lat="45.95153" lon="4.71477">
        <ele>178</ele>
        <time>2018-08-22T10:25:15Z</time>
      </trkpt>
      <trkpt lat="45.95148" lon="4.71478">
        <ele>178</ele>
        <time>2018-08-22T10:25:16Z</time>
      </trkpt>
      <trkpt lat="45.95139" lon="4.71476">
        <ele>178</ele>
        <time>2018-08-22T10:25:17Z</time>
      </trkpt>
      <trkpt lat="45.95134" lon="4.71474">
        <ele>178</ele>
        <time>2018-08-22T10:25:18Z</time>
      </trkpt>
      <trkpt lat="45.9513" lon="4.71478">
        <ele>178</ele>
        <time>2018-08-22T10:25:19Z</time>
      </trkpt>
      <trkpt lat="45.95126" lon="4.71478">
        <ele>178</ele>
        <time>2018-08-22T10:25:20Z</time>
      </trkpt>
      <trkpt lat="45.95119" lon="4.71475">
        <ele>178</ele>
        <time>2018-08-22T10:25:21Z</time>
      </trkpt>
      <trkpt lat="45.95113" lon="4.71473">
        <ele>179</ele>
        <time>2018-08-22T10:25:22Z</time>
      </trkpt>
      <trkpt lat="45.95108" lon="4.71472">
        <ele>179</ele>
        <time>2018-08-22T10:25:23Z</time>
      </trkpt>
      <trkpt lat="45.95102" lon="4.71471">
        <ele>179</ele>
        <time>2018-08-22T10:25:24Z</time>
      </trkpt>
      <trkpt lat="45.95096" lon="4.71469">
        <ele>179</ele>
        <time>2018-08-22T10:25:25Z</time>
      </trkpt>
      <trkpt lat="45.95092" lon="4.71473">
        <ele>179</ele>
        <time>2018-08-22T10:25:26Z</time>
      </trkpt>
      <trkpt lat="45.95087" lon="4.71472">
        <ele>179</ele>
        <time>2018-08-22T10:25:27Z</time>
      </trkpt>
      <trkpt lat="45.9508" lon="4.71471">
        <ele>181</ele>
        <time>2018-08-22T10:25:28Z</time>
      </trkpt>
      <trkpt lat="45.95076" lon="4.7147">
        <ele>181</ele>
        <time>2018-08-22T10:25:29Z</time>
      </trkpt>
      <trkpt lat="45.95071" lon="4.7147">
        <ele>181</ele>
        <time>2018-08-22T10:25:30Z</time>
      </trkpt>
      <trkpt lat="45.95066" lon="4.71468">
        <ele>181</ele>
        <time>2018-08-22T10:25:31Z</time>
      </trkpt>
      <trkpt lat="45.95061" lon="4.71466">
        <ele>181</ele>
        <time>2018-08-22T10:25:32Z</time>
      </trkpt>
      <trkpt lat="45.95056" lon="4.71466">
        <ele>181</ele>
        <time>2018-08-22T10:25:33Z</time>
      </trkpt>
      <trkpt lat="45.95047" lon="4.71464">
        <ele>182</ele>
        <time>2018-08-22T10:25:35Z</time>
      </trkpt>
      <trkpt lat="45.95043" lon="4.71463">
        <ele>182</ele>
        <time>2018-08-22T10:25:36Z</time>
      </trkpt>
      <trkpt lat="45.95035" lon="4.71463">
        <ele>182</ele>
        <time>2018-08-22T10:25:38Z</time>
      </trkpt>
      <trkpt lat="45.9503" lon="4.7146">
        <ele>182</ele>
        <time>2018-08-22T10:25:39Z</time>
      </trkpt>
      <trkpt lat="45.95023" lon="4.71461">
        <ele>182</ele>
        <time>2018-08-22T10:25:42Z</time>
      </trkpt>
      <trkpt lat="45.95016" lon="4.7146">
        <ele>182</ele>
        <time>2018-08-22T10:25:43Z</time>
      </trkpt>
      <trkpt lat="45.9501" lon="4.71459">
        <ele>182</ele>
        <time>2018-08-22T10:25:46Z</time>
      </trkpt>
      <trkpt lat="45.95004" lon="4.71458">
        <ele>182</ele>
        <time>2018-08-22T10:25:47Z</time>
      </trkpt>
      <trkpt lat="45.94997" lon="4.71456">
        <ele>184</ele>
        <time>2018-08-22T10:25:49Z</time>
      </trkpt>
      <trkpt lat="45.94993" lon="4.71455">
        <ele>184</ele>
        <time>2018-08-22T10:25:50Z</time>
      </trkpt>
      <trkpt lat="45.94986" lon="4.71452">
        <ele>184</ele>
        <time>2018-08-22T10:25:52Z</time>
      </trkpt>
      <trkpt lat="45.94983" lon="4.71448">
        <ele>184</ele>
        <time>2018-08-22T10:25:53Z</time>
      </trkpt>
      <trkpt lat="45.94979" lon="4.71439">
        <ele>184</ele>
        <time>2018-08-22T10:25:55Z</time>
      </trkpt>
      <trkpt lat="45.94976" lon="4.71435">
        <ele>185</ele>
        <time>2018-08-22T10:25:56Z</time>
      </trkpt>
      <trkpt lat="45.94971" lon="4.71432">
        <ele>185</ele>
        <time>2018-08-22T10:25:57Z</time>
      </trkpt>
      <trkpt lat="45.94967" lon="4.71431">
        <ele>185</ele>
        <time>2018-08-22T10:25:58Z</time>
      </trkpt>
      <trkpt lat="45.9496" lon="4.71432">
        <ele>184</ele>
        <time>2018-08-22T10:25:59Z</time>
      </trkpt>
      <trkpt lat="45.94955" lon="4.71435">
        <ele>184</ele>
        <time>2018-08-22T10:26:00Z</time>
      </trkpt>
      <trkpt lat="45.9495" lon="4.7144">
        <ele>184</ele>
        <time>2018-08-22T10:26:01Z</time>
      </trkpt>
      <trkpt lat="45.94946" lon="4.71443">
        <ele>184</ele>
        <time>2018-08-22T10:26:02Z</time>
      </trkpt>
      <trkpt lat="45.94942" lon="4.71446">
        <ele>184</ele>
        <time>2018-08-22T10:26:03Z</time>
      </trkpt>
      <trkpt lat="45.94937" lon="4.7145">
        <ele>184</ele>
        <time>2018-08-22T10:26:04Z</time>
      </trkpt>
      <trkpt lat="45.94934" lon="4.71452">
        <ele>184</ele>
        <time>2018-08-22T10:26:05Z</time>
      </trkpt>
      <trkpt lat="45.94928" lon="4.71452">
        <ele>184</ele>
        <time>2018-08-22T10:26:06Z</time>
      </trkpt>
      <trkpt lat="45.94923" lon="4.71453">
        <ele>184</ele>
        <time>2018-08-22T10:26:07Z</time>
      </trkpt>
      <trkpt lat="45.94917" lon="4.71454">
        <ele>184</ele>
        <time>2018-08-22T10:26:08Z</time>
      </trkpt>
      <trkpt lat="45.94912" lon="4.71454">
        <ele>184</ele>
        <time>2018-08-22T10:26:09Z</time>
      </trkpt>
      <trkpt lat="45.94906" lon="4.71455">
        <ele>184</ele>
        <time>2018-08-22T10:26:10Z</time>
      </trkpt>
      <trkpt lat="45.94901" lon="4.71454">
        <ele>184</ele>
        <time>2018-08-22T10:26:11Z</time>
      </trkpt>
      <trkpt lat="45.94895" lon="4.71452">
        <ele>184</ele>
        <time>2018-08-22T10:26:12Z</time>
      </trkpt>
      <trkpt lat="45.9489" lon="4.71452">
        <ele>184</ele>
        <time>2018-08-22T10:26:13Z</time>
      </trkpt>
      <trkpt lat="45.94886" lon="4.71454">
        <ele>184</ele>
        <time>2018-08-22T10:26:14Z</time>
      </trkpt>
      <trkpt lat="45.94879" lon="4.7145">
        <ele>184</ele>
        <time>2018-08-22T10:26:16Z</time>
      </trkpt>
      <trkpt lat="45.94874" lon="4.71449">
        <ele>184</ele>
        <time>2018-08-22T10:26:17Z</time>
      </trkpt>
      <trkpt lat="45.9487" lon="4.71449">
        <ele>184</ele>
        <time>2018-08-22T10:26:18Z</time>
      </trkpt>
      <trkpt lat="45.94863" lon="4.71448">
        <ele>184</ele>
        <time>2018-08-22T10:26:19Z</time>
      </trkpt>
      <trkpt lat="45.94857" lon="4.71452">
        <ele>184</ele>
        <time>2018-08-22T10:26:20Z</time>
      </trkpt>
      <trkpt lat="45.94853" lon="4.71453">
        <ele>184</ele>
        <time>2018-08-22T10:26:21Z</time>
      </trkpt>
      <trkpt lat="45.94848" lon="4.71455">
        <ele>184</ele>
        <time>2018-08-22T10:26:22Z</time>
      </trkpt>
      <trkpt lat="45.94842" lon="4.71457">
        <ele>184</ele>
        <time>2018-08-22T10:26:23Z</time>
      </trkpt>
      <trkpt lat="45.94838" lon="4.71456">
        <ele>184</ele>
        <time>2018-08-22T10:26:24Z</time>
      </trkpt>
      <trkpt lat="45.94831" lon="4.71456">
        <ele>183</ele>
        <time>2018-08-22T10:26:25Z</time>
      </trkpt>
      <trkpt lat="45.94826" lon="4.71455">
        <ele>183</ele>
        <time>2018-08-22T10:26:26Z</time>
      </trkpt>
      <trkpt lat="45.94821" lon="4.71454">
        <ele>183</ele>
        <time>2018-08-22T10:26:27Z</time>
      </trkpt>
      <trkpt lat="45.94816" lon="4.71453">
        <ele>183</ele>
        <time>2018-08-22T10:26:28Z</time>
      </trkpt>
      <trkpt lat="45.9481" lon="4.71452">
        <ele>183</ele>
        <time>2018-08-22T10:26:29Z</time>
      </trkpt>
      <trkpt lat="45.94805" lon="4.71452">
        <ele>183</ele>
        <time>2018-08-22T10:26:30Z</time>
      </trkpt>
      <trkpt lat="45.94799" lon="4.71448">
        <ele>183</ele>
        <time>2018-08-22T10:26:31Z</time>
      </trkpt>
      <trkpt lat="45.94794" lon="4.71447">
        <ele>183</ele>
        <time>2018-08-22T10:26:32Z</time>
      </trkpt>
      <trkpt lat="45.9479" lon="4.71443">
        <ele>184</ele>
        <time>2018-08-22T10:26:33Z</time>
      </trkpt>
      <trkpt lat="45.94784" lon="4.7144">
        <ele>184</ele>
        <time>2018-08-22T10:26:34Z</time>
      </trkpt>
      <trkpt lat="45.9478" lon="4.7144">
        <ele>184</ele>
        <time>2018-08-22T10:26:35Z</time>
      </trkpt>
      <trkpt lat="45.94773" lon="4.71437">
        <ele>184</ele>
        <time>2018-08-22T10:26:36Z</time>
      </trkpt>
      <trkpt lat="45.94768" lon="4.71442">
        <ele>184</ele>
        <time>2018-08-22T10:26:37Z</time>
      </trkpt>
      <trkpt lat="45.94763" lon="4.71443">
        <ele>184</ele>
        <time>2018-08-22T10:26:38Z</time>
      </trkpt>
      <trkpt lat="45.94757" lon="4.71443">
        <ele>184</ele>
        <time>2018-08-22T10:26:39Z</time>
      </trkpt>
      <trkpt lat="45.94753" lon="4.71442">
        <ele>184</ele>
        <time>2018-08-22T10:26:40Z</time>
      </trkpt>
      <trkpt lat="45.94747" lon="4.7144">
        <ele>183</ele>
        <time>2018-08-22T10:26:41Z</time>
      </trkpt>
      <trkpt lat="45.94742" lon="4.7144">
        <ele>183</ele>
        <time>2018-08-22T10:26:42Z</time>
      </trkpt>
      <trkpt lat="45.94737" lon="4.7144">
        <ele>183</ele>
        <time>2018-08-22T10:26:43Z</time>
      </trkpt>
      <trkpt lat="45.94732" lon="4.71439">
        <ele>183</ele>
        <time>2018-08-22T10:26:44Z</time>
      </trkpt>
      <trkpt lat="45.94728" lon="4.71437">
        <ele>183</ele>
        <time>2018-08-22T10:26:45Z</time>
      </trkpt>
      <trkpt lat="45.94722" lon="4.71437">
        <ele>183</ele>
        <time>2018-08-22T10:26:46Z</time>
      </trkpt>
      <trkpt lat="45.94717" lon="4.71437">
        <ele>183</ele>
        <time>2018-08-22T10:26:47Z</time>
      </trkpt>
      <trkpt lat="45.94712" lon="4.71436">
        <ele>182</ele>
        <time>2018-08-22T10:26:48Z</time>
      </trkpt>
      <trkpt lat="45.94708" lon="4.71435">
        <ele>182</ele>
        <time>2018-08-22T10:26:49Z</time>
      </trkpt>
      <trkpt lat="45.94699" lon="4.71434">
        <ele>182</ele>
        <time>2018-08-22T10:26:51Z</time>
      </trkpt>
      <trkpt lat="45.94694" lon="4.71434">
        <ele>182</ele>
        <time>2018-08-22T10:26:52Z</time>
      </trkpt>
      <trkpt lat="45.94689" lon="4.71438">
        <ele>182</ele>
        <time>2018-08-22T10:26:53Z</time>
      </trkpt>
      <trkpt lat="45.94684" lon="4.71438">
        <ele>182</ele>
        <time>2018-08-22T10:26:54Z</time>
      </trkpt>
      <trkpt lat="45.94677" lon="4.71439">
        <ele>182</ele>
        <time>2018-08-22T10:26:55Z</time>
      </trkpt>
      <trkpt lat="45.94672" lon="4.71439">
        <ele>182</ele>
        <time>2018-08-22T10:26:56Z</time>
      </trkpt>
      <trkpt lat="45.94665" lon="4.7144">
        <ele>182</ele>
        <time>2018-08-22T10:26:57Z</time>
      </trkpt>
      <trkpt lat="45.94659" lon="4.71439">
        <ele>182</ele>
        <time>2018-08-22T10:26:58Z</time>
      </trkpt>
      <trkpt lat="45.94654" lon="4.71439">
        <ele>182</ele>
        <time>2018-08-22T10:26:59Z</time>
      </trkpt>
      <trkpt lat="45.94648" lon="4.71439">
        <ele>182</ele>
        <time>2018-08-22T10:27:00Z</time>
      </trkpt>
      <trkpt lat="45.94643" lon="4.71439">
        <ele>181</ele>
        <time>2018-08-22T10:27:01Z</time>
      </trkpt>
      <trkpt lat="45.94636" lon="4.71439">
        <ele>181</ele>
        <time>2018-08-22T10:27:02Z</time>
      </trkpt>
      <trkpt lat="45.9463" lon="4.71439">
        <ele>181</ele>
        <time>2018-08-22T10:27:03Z</time>
      </trkpt>
      <trkpt lat="45.94624" lon="4.71438">
        <ele>181</ele>
        <time>2018-08-22T10:27:04Z</time>
      </trkpt>
      <trkpt lat="45.94618" lon="4.71437">
        <ele>182</ele>
        <time>2018-08-22T10:27:05Z</time>
      </trkpt>
      <trkpt lat="45.94612" lon="4.71436">
        <ele>182</ele>
        <time>2018-08-22T10:27:06Z</time>
      </trkpt>
      <trkpt lat="45.94607" lon="4.71436">
        <ele>182</ele>
        <time>2018-08-22T10:27:07Z</time>
      </trkpt>
      <trkpt lat="45.94601" lon="4.71435">
        <ele>182</ele>
        <time>2018-08-22T10:27:08Z</time>
      </trkpt>
      <trkpt lat="45.94595" lon="4.71436">
        <ele>182</ele>
        <time>2018-08-22T10:27:09Z</time>
      </trkpt>
      <trkpt lat="45.9459" lon="4.71436">
        <ele>182</ele>
        <time>2018-08-22T10:27:10Z</time>
      </trkpt>
      <trkpt lat="45.94581" lon="4.71436">
        <ele>182</ele>
        <time>2018-08-22T10:27:12Z</time>
      </trkpt>
      <trkpt lat="45.94574" lon="4.71436">
        <ele>182</ele>
        <time>2018-08-22T10:27:13Z</time>
      </trkpt>
      <trkpt lat="45.94566" lon="4.71436">
        <ele>182</ele>
        <time>2018-08-22T10:27:14Z</time>
      </trkpt>
      <trkpt lat="45.94559" lon="4.71439">
        <ele>181</ele>
        <time>2018-08-22T10:27:15Z</time>
      </trkpt>
      <trkpt lat="45.94553" lon="4.71439">
        <ele>181</ele>
        <time>2018-08-22T10:27:16Z</time>
      </trkpt>
      <trkpt lat="45.94546" lon="4.71441">
        <ele>181</ele>
        <time>2018-08-22T10:27:17Z</time>
      </trkpt>
      <trkpt lat="45.94539" lon="4.71442">
        <ele>181</ele>
        <time>2018-08-22T10:27:18Z</time>
      </trkpt>
      <trkpt lat="45.94532" lon="4.71444">
        <ele>180</ele>
        <time>2018-08-22T10:27:19Z</time>
      </trkpt>
      <trkpt lat="45.94524" lon="4.71449">
        <ele>180</ele>
        <time>2018-08-22T10:27:20Z</time>
      </trkpt>
      <trkpt lat="45.94518" lon="4.71452">
        <ele>180</ele>
        <time>2018-08-22T10:27:21Z</time>
      </trkpt>
      <trkpt lat="45.94512" lon="4.71455">
        <ele>180</ele>
        <time>2018-08-22T10:27:22Z</time>
      </trkpt>
      <trkpt lat="45.94505" lon="4.71458">
        <ele>180</ele>
        <time>2018-08-22T10:27:23Z</time>
      </trkpt>
      <trkpt lat="45.94499" lon="4.71458">
        <ele>179</ele>
        <time>2018-08-22T10:27:24Z</time>
      </trkpt>
      <trkpt lat="45.94492" lon="4.71461">
        <ele>179</ele>
        <time>2018-08-22T10:27:25Z</time>
      </trkpt>
      <trkpt lat="45.94484" lon="4.71463">
        <ele>179</ele>
        <time>2018-08-22T10:27:26Z</time>
      </trkpt>
      <trkpt lat="45.94476" lon="4.71464">
        <ele>179</ele>
        <time>2018-08-22T10:27:27Z</time>
      </trkpt>
      <trkpt lat="45.94468" lon="4.71466">
        <ele>179</ele>
        <time>2018-08-22T10:27:28Z</time>
      </trkpt>
      <trkpt lat="45.94462" lon="4.71469">
        <ele>179</ele>
        <time>2018-08-22T10:27:29Z</time>
      </trkpt>
      <trkpt lat="45.94455" lon="4.71473">
        <ele>179</ele>
        <time>2018-08-22T10:27:30Z</time>
      </trkpt>
      <trkpt lat="45.94448" lon="4.71472">
        <ele>179</ele>
        <time>2018-08-22T10:27:31Z</time>
      </trkpt>
      <trkpt lat="45.9444" lon="4.71476">
        <ele>179</ele>
        <time>2018-08-22T10:27:32Z</time>
      </trkpt>
      <trkpt lat="45.94433" lon="4.71479">
        <ele>179</ele>
        <time>2018-08-22T10:27:33Z</time>
      </trkpt>
      <trkpt lat="45.94426" lon="4.71483">
        <ele>178</ele>
        <time>2018-08-22T10:27:34Z</time>
      </trkpt>
      <trkpt lat="45.94418" lon="4.71486">
        <ele>178</ele>
        <time>2018-08-22T10:27:35Z</time>
      </trkpt>
      <trkpt lat="45.94409" lon="4.71488">
        <ele>178</ele>
        <time>2018-08-22T10:27:36Z</time>
      </trkpt>
      <trkpt lat="45.94403" lon="4.71489">
        <ele>178</ele>
        <time>2018-08-22T10:27:37Z</time>
      </trkpt>
      <trkpt lat="45.94396" lon="4.71491">
        <ele>178</ele>
        <time>2018-08-22T10:27:38Z</time>
      </trkpt>
      <trkpt lat="45.94389" lon="4.71494">
        <ele>177</ele>
        <time>2018-08-22T10:27:39Z</time>
      </trkpt>
      <trkpt lat="45.94382" lon="4.71497">
        <ele>177</ele>
        <time>2018-08-22T10:27:40Z</time>
      </trkpt>
      <trkpt lat="45.94373" lon="4.715">
        <ele>177</ele>
        <time>2018-08-22T10:27:41Z</time>
      </trkpt>
      <trkpt lat="45.94366" lon="4.71504">
        <ele>176</ele>
        <time>2018-08-22T10:27:42Z</time>
      </trkpt>
      <trkpt lat="45.9436" lon="4.71506">
        <ele>176</ele>
        <time>2018-08-22T10:27:43Z</time>
      </trkpt>
      <trkpt lat="45.94351" lon="4.7151">
        <ele>176</ele>
        <time>2018-08-22T10:27:44Z</time>
      </trkpt>
      <trkpt lat="45.94345" lon="4.71512">
        <ele>176</ele>
        <time>2018-08-22T10:27:45Z</time>
      </trkpt>
      <trkpt lat="45.94338" lon="4.71515">
        <ele>176</ele>
        <time>2018-08-22T10:27:46Z</time>
      </trkpt>
      <trkpt lat="45.94331" lon="4.71518">
        <ele>176</ele>
        <time>2018-08-22T10:27:47Z</time>
      </trkpt>
      <trkpt lat="45.94324" lon="4.7152">
        <ele>176</ele>
        <time>2018-08-22T10:27:48Z</time>
      </trkpt>
      <trkpt lat="45.94316" lon="4.71523">
        <ele>176</ele>
        <time>2018-08-22T10:27:49Z</time>
      </trkpt>
      <trkpt lat="45.9431" lon="4.71528">
        <ele>175</ele>
        <time>2018-08-22T10:27:50Z</time>
      </trkpt>
      <trkpt lat="45.94303" lon="4.7153">
        <ele>175</ele>
        <time>2018-08-22T10:27:51Z</time>
      </trkpt>
      <trkpt lat="45.94299" lon="4.71535">
        <ele>175</ele>
        <time>2018-08-22T10:27:52Z</time>
      </trkpt>
      <trkpt lat="45.94292" lon="4.71537">
        <ele>175</ele>
        <time>2018-08-22T10:27:53Z</time>
      </trkpt>
      <trkpt lat="45.94286" lon="4.71541">
        <ele>175</ele>
        <time>2018-08-22T10:27:54Z</time>
      </trkpt>
      <trkpt lat="45.9428" lon="4.71544">
        <ele>175</ele>
        <time>2018-08-22T10:27:55Z</time>
      </trkpt>
      <trkpt lat="45.94273" lon="4.71544">
        <ele>175</ele>
        <time>2018-08-22T10:27:56Z</time>
      </trkpt>
      <trkpt lat="45.94266" lon="4.71547">
        <ele>175</ele>
        <time>2018-08-22T10:27:57Z</time>
      </trkpt>
      <trkpt lat="45.9426" lon="4.71549">
        <ele>175</ele>
        <time>2018-08-22T10:27:58Z</time>
      </trkpt>
      <trkpt lat="45.94253" lon="4.71551">
        <ele>175</ele>
        <time>2018-08-22T10:27:59Z</time>
      </trkpt>
      <trkpt lat="45.94247" lon="4.71555">
        <ele>174</ele>
        <time>2018-08-22T10:28:00Z</time>
      </trkpt>
      <trkpt lat="45.94241" lon="4.71561">
        <ele>174</ele>
        <time>2018-08-22T10:28:01Z</time>
      </trkpt>
      <trkpt lat="45.94233" lon="4.71563">
        <ele>174</ele>
        <time>2018-08-22T10:28:02Z</time>
      </trkpt>
      <trkpt lat="45.94226" lon="4.71565">
        <ele>174</ele>
        <time>2018-08-22T10:28:03Z</time>
      </trkpt>
      <trkpt lat="45.9422" lon="4.71566">
        <ele>174</ele>
        <time>2018-08-22T10:28:04Z</time>
      </trkpt>
      <trkpt lat="45.94214" lon="4.71571">
        <ele>174</ele>
        <time>2018-08-22T10:28:05Z</time>
      </trkpt>
      <trkpt lat="45.94208" lon="4.71573">
        <ele>174</ele>
        <time>2018-08-22T10:28:06Z</time>
      </trkpt>
      <trkpt lat="45.94201" lon="4.71574">
        <ele>174</ele>
        <time>2018-08-22T10:28:07Z</time>
      </trkpt>
      <trkpt lat="45.94196" lon="4.71577">
        <ele>174</ele>
        <time>2018-08-22T10:28:08Z</time>
      </trkpt>
      <trkpt lat="45.9419" lon="4.71579">
        <ele>174</ele>
        <time>2018-08-22T10:28:09Z</time>
      </trkpt>
      <trkpt lat="45.94186" lon="4.71587">
        <ele>173</ele>
        <time>2018-08-22T10:28:10Z</time>
      </trkpt>
      <trkpt lat="45.94179" lon="4.71588">
        <ele>173</ele>
        <time>2018-08-22T10:28:11Z</time>
      </trkpt>
      <trkpt lat="45.94174" lon="4.71589">
        <ele>174</ele>
        <time>2018-08-22T10:28:12Z</time>
      </trkpt>
      <trkpt lat="45.94167" lon="4.7159">
        <ele>174</ele>
        <time>2018-08-22T10:28:13Z</time>
      </trkpt>
      <trkpt lat="45.94161" lon="4.71591">
        <ele>174</ele>
        <time>2018-08-22T10:28:14Z</time>
      </trkpt>
      <trkpt lat="45.94156" lon="4.71591">
        <ele>173</ele>
        <time>2018-08-22T10:28:15Z</time>
      </trkpt>
      <trkpt lat="45.9415" lon="4.71593">
        <ele>173</ele>
        <time>2018-08-22T10:28:16Z</time>
      </trkpt>
      <trkpt lat="45.94143" lon="4.71595">
        <ele>173</ele>
        <time>2018-08-22T10:28:17Z</time>
      </trkpt>
      <trkpt lat="45.94137" lon="4.71598">
        <ele>173</ele>
        <time>2018-08-22T10:28:18Z</time>
      </trkpt>
      <trkpt lat="45.94132" lon="4.71601">
        <ele>173</ele>
        <time>2018-08-22T10:28:19Z</time>
      </trkpt>
      <trkpt lat="45.94124" lon="4.71604">
        <ele>173</ele>
        <time>2018-08-22T10:28:20Z</time>
      </trkpt>
      <trkpt lat="45.94119" lon="4.71606">
        <ele>173</ele>
        <time>2018-08-22T10:28:21Z</time>
      </trkpt>
      <trkpt lat="45.94114" lon="4.71606">
        <ele>173</ele>
        <time>2018-08-22T10:28:22Z</time>
      </trkpt>
      <trkpt lat="45.94107" lon="4.71608">
        <ele>173</ele>
        <time>2018-08-22T10:28:23Z</time>
      </trkpt>
      <trkpt lat="45.94102" lon="4.7161">
        <ele>173</ele>
        <time>2018-08-22T10:28:24Z</time>
      </trkpt>
      <trkpt lat="45.94096" lon="4.71612">
        <ele>173</ele>
        <time>2018-08-22T10:28:25Z</time>
      </trkpt>
      <trkpt lat="45.9409" lon="4.71615">
        <ele>173</ele>
        <time>2018-08-22T10:28:26Z</time>
      </trkpt>
      <trkpt lat="45.94085" lon="4.71614">
        <ele>173</ele>
        <time>2018-08-22T10:28:27Z</time>
      </trkpt>
      <trkpt lat="45.9408" lon="4.71616">
        <ele>174</ele>
        <time>2018-08-22T10:28:28Z</time>
      </trkpt>
      <trkpt lat="45.94075" lon="4.71621">
        <ele>174</ele>
        <time>2018-08-22T10:28:29Z</time>
      </trkpt>
      <trkpt lat="45.94069" lon="4.71624">
        <ele>174</ele>
        <time>2018-08-22T10:28:30Z</time>
      </trkpt>
      <trkpt lat="45.94064" lon="4.71627">
        <ele>174</ele>
        <time>2018-08-22T10:28:31Z</time>
      </trkpt>
      <trkpt lat="45.94057" lon="4.71629">
        <ele>174</ele>
        <time>2018-08-22T10:28:32Z</time>
      </trkpt>
      <trkpt lat="45.94052" lon="4.71632">
        <ele>175</ele>
        <time>2018-08-22T10:28:33Z</time>
      </trkpt>
      <trkpt lat="45.94046" lon="4.71633">
        <ele>175</ele>
        <time>2018-08-22T10:28:34Z</time>
      </trkpt>
      <trkpt lat="45.9404" lon="4.71636">
        <ele>175</ele>
        <time>2018-08-22T10:28:35Z</time>
      </trkpt>
      <trkpt lat="45.94036" lon="4.71637">
        <ele>175</ele>
        <time>2018-08-22T10:28:36Z</time>
      </trkpt>
      <trkpt lat="45.9403" lon="4.71639">
        <ele>175</ele>
        <time>2018-08-22T10:28:37Z</time>
      </trkpt>
      <trkpt lat="45.94025" lon="4.71645">
        <ele>175</ele>
        <time>2018-08-22T10:28:38Z</time>
      </trkpt>
      <trkpt lat="45.94019" lon="4.71649">
        <ele>176</ele>
        <time>2018-08-22T10:28:39Z</time>
      </trkpt>
      <trkpt lat="45.94013" lon="4.71653">
        <ele>176</ele>
        <time>2018-08-22T10:28:40Z</time>
      </trkpt>
      <trkpt lat="45.94007" lon="4.71655">
        <ele>176</ele>
        <time>2018-08-22T10:28:41Z</time>
      </trkpt>
      <trkpt lat="45.94" lon="4.71656">
        <ele>177</ele>
        <time>2018-08-22T10:28:42Z</time>
      </trkpt>
      <trkpt lat="45.93994" lon="4.71658">
        <ele>177</ele>
        <time>2018-08-22T10:28:43Z</time>
      </trkpt>
      <trkpt lat="45.93988" lon="4.71661">
        <ele>177</ele>
        <time>2018-08-22T10:28:44Z</time>
      </trkpt>
      <trkpt lat="45.93982" lon="4.71662">
        <ele>177</ele>
        <time>2018-08-22T10:28:45Z</time>
      </trkpt>
      <trkpt lat="45.93977" lon="4.71664">
        <ele>177</ele>
        <time>2018-08-22T10:28:46Z</time>
      </trkpt>
      <trkpt lat="45.93973" lon="4.71667">
        <ele>175</ele>
        <time>2018-08-22T10:28:47Z</time>
      </trkpt>
      <trkpt lat="45.93967" lon="4.71669">
        <ele>175</ele>
        <time>2018-08-22T10:28:48Z</time>
      </trkpt>
      <trkpt lat="45.93962" lon="4.71671">
        <ele>175</ele>
        <time>2018-08-22T10:28:49Z</time>
      </trkpt>
      <trkpt lat="45.93956" lon="4.7167">
        <ele>175</ele>
        <time>2018-08-22T10:28:50Z</time>
      </trkpt>
      <trkpt lat="45.9395" lon="4.71673">
        <ele>175</ele>
        <time>2018-08-22T10:28:51Z</time>
      </trkpt>
      <trkpt lat="45.93945" lon="4.71674">
        <ele>175</ele>
        <time>2018-08-22T10:28:52Z</time>
      </trkpt>
      <trkpt lat="45.93938" lon="4.71674">
        <ele>175</ele>
        <time>2018-08-22T10:28:53Z</time>
      </trkpt>
      <trkpt lat="45.93931" lon="4.71675">
        <ele>175</ele>
        <time>2018-08-22T10:28:54Z</time>
      </trkpt>
      <trkpt lat="45.93926" lon="4.71679">
        <ele>175</ele>
        <time>2018-08-22T10:28:55Z</time>
      </trkpt>
      <trkpt lat="45.93921" lon="4.71684">
        <ele>175</ele>
        <time>2018-08-22T10:28:56Z</time>
      </trkpt>
      <trkpt lat="45.93915" lon="4.71685">
        <ele>174</ele>
        <time>2018-08-22T10:28:57Z</time>
      </trkpt>
      <trkpt lat="45.93909" lon="4.71687">
        <ele>174</ele>
        <time>2018-08-22T10:28:58Z</time>
      </trkpt>
      <trkpt lat="45.93904" lon="4.71689">
        <ele>174</ele>
        <time>2018-08-22T10:28:59Z</time>
      </trkpt>
      <trkpt lat="45.93897" lon="4.71691">
        <ele>174</ele>
        <time>2018-08-22T10:29:00Z</time>
      </trkpt>
      <trkpt lat="45.93892" lon="4.71694">
        <ele>174</ele>
        <time>2018-08-22T10:29:01Z</time>
      </trkpt>
      <trkpt lat="45.93887" lon="4.71696">
        <ele>174</ele>
        <time>2018-08-22T10:29:02Z</time>
      </trkpt>
      <trkpt lat="45.93882" lon="4.71697">
        <ele>174</ele>
        <time>2018-08-22T10:29:03Z</time>
      </trkpt>
      <trkpt lat="45.93877" lon="4.717">
        <ele>174</ele>
        <time>2018-08-22T10:29:04Z</time>
      </trkpt>
      <trkpt lat="45.93873" lon="4.71702">
        <ele>174</ele>
        <time>2018-08-22T10:29:05Z</time>
      </trkpt>
      <trkpt lat="45.93868" lon="4.71704">
        <ele>174</ele>
        <time>2018-08-22T10:29:06Z</time>
      </trkpt>
      <trkpt lat="45.93862" lon="4.71707">
        <ele>174</ele>
        <time>2018-08-22T10:29:07Z</time>
      </trkpt>
      <trkpt lat="45.93856" lon="4.7171">
        <ele>174</ele>
        <time>2018-08-22T10:29:08Z</time>
      </trkpt>
      <trkpt lat="45.93853" lon="4.71713">
        <ele>174</ele>
        <time>2018-08-22T10:29:09Z</time>
      </trkpt>
      <trkpt lat="45.93847" lon="4.71714">
        <ele>174</ele>
        <time>2018-08-22T10:29:10Z</time>
      </trkpt>
      <trkpt lat="45.93841" lon="4.71716">
        <ele>174</ele>
        <time>2018-08-22T10:29:11Z</time>
      </trkpt>
      <trkpt lat="45.93836" lon="4.7172">
        <ele>175</ele>
        <time>2018-08-22T10:29:12Z</time>
      </trkpt>
      <trkpt lat="45.93829" lon="4.71723">
        <ele>175</ele>
        <time>2018-08-22T10:29:13Z</time>
      </trkpt>
      <trkpt lat="45.93823" lon="4.71724">
        <ele>175</ele>
        <time>2018-08-22T10:29:14Z</time>
      </trkpt>
      <trkpt lat="45.93816" lon="4.71727">
        <ele>175</ele>
        <time>2018-08-22T10:29:15Z</time>
      </trkpt>
      <trkpt lat="45.9381" lon="4.71728">
        <ele>175</ele>
        <time>2018-08-22T10:29:16Z</time>
      </trkpt>
      <trkpt lat="45.93804" lon="4.7173">
        <ele>175</ele>
        <time>2018-08-22T10:29:17Z</time>
      </trkpt>
      <trkpt lat="45.93798" lon="4.71735">
        <ele>175</ele>
        <time>2018-08-22T10:29:18Z</time>
      </trkpt>
      <trkpt lat="45.93792" lon="4.71737">
        <ele>175</ele>
        <time>2018-08-22T10:29:19Z</time>
      </trkpt>
      <trkpt lat="45.93786" lon="4.7174">
        <ele>175</ele>
        <time>2018-08-22T10:29:20Z</time>
      </trkpt>
      <trkpt lat="45.93779" lon="4.71743">
        <ele>175</ele>
        <time>2018-08-22T10:29:21Z</time>
      </trkpt>
      <trkpt lat="45.93772" lon="4.71746">
        <ele>175</ele>
        <time>2018-08-22T10:29:22Z</time>
      </trkpt>
      <trkpt lat="45.93766" lon="4.71746">
        <ele>175</ele>
        <time>2018-08-22T10:29:23Z</time>
      </trkpt>
      <trkpt lat="45.9376" lon="4.71748">
        <ele>175</ele>
        <time>2018-08-22T10:29:24Z</time>
      </trkpt>
      <trkpt lat="45.93755" lon="4.71749">
        <ele>175</ele>
        <time>2018-08-22T10:29:25Z</time>
      </trkpt>
      <trkpt lat="45.93749" lon="4.71752">
        <ele>175</ele>
        <time>2018-08-22T10:29:26Z</time>
      </trkpt>
      <trkpt lat="45.93743" lon="4.71754">
        <ele>175</ele>
        <time>2018-08-22T10:29:27Z</time>
      </trkpt>
      <trkpt lat="45.93738" lon="4.71756">
        <ele>176</ele>
        <time>2018-08-22T10:29:28Z</time>
      </trkpt>
      <trkpt lat="45.93732" lon="4.71756">
        <ele>176</ele>
        <time>2018-08-22T10:29:29Z</time>
      </trkpt>
      <trkpt lat="45.93725" lon="4.71762">
        <ele>176</ele>
        <time>2018-08-22T10:29:31Z</time>
      </trkpt>
      <trkpt lat="45.93723" lon="4.71765">
        <ele>176</ele>
        <time>2018-08-22T10:29:32Z</time>
      </trkpt>
      <trkpt lat="45.93716" lon="4.71771">
        <ele>176</ele>
        <time>2018-08-22T10:30:06Z</time>
      </trkpt>
      <trkpt lat="45.93715" lon="4.71773">
        <ele>176</ele>
        <time>2018-08-22T10:30:07Z</time>
      </trkpt>
      <trkpt lat="45.93711" lon="4.71781">
        <ele>176</ele>
        <time>2018-08-22T10:30:10Z</time>
      </trkpt>
      <trkpt lat="45.93709" lon="4.71785">
        <ele>176</ele>
        <time>2018-08-22T10:30:11Z</time>
      </trkpt>
      <trkpt lat="45.93708" lon="4.71788">
        <ele>176</ele>
        <time>2018-08-22T10:30:12Z</time>
      </trkpt>
      <trkpt lat="45.93703" lon="4.71799">
        <ele>176</ele>
        <time>2018-08-22T10:30:13Z</time>
      </trkpt>
      <trkpt lat="45.93701" lon="4.71806">
        <ele>176</ele>
        <time>2018-08-22T10:30:15Z</time>
      </trkpt>
      <trkpt lat="45.93699" lon="4.71812">
        <ele>176</ele>
        <time>2018-08-22T10:30:16Z</time>
      </trkpt>
      <trkpt lat="45.93696" lon="4.71817">
        <ele>176</ele>
        <time>2018-08-22T10:30:17Z</time>
      </trkpt>
      <trkpt lat="45.93694" lon="4.71823">
        <ele>176</ele>
        <time>2018-08-22T10:30:18Z</time>
      </trkpt>
      <trkpt lat="45.93692" lon="4.71834">
        <ele>175</ele>
        <time>2018-08-22T10:30:19Z</time>
      </trkpt>
      <trkpt lat="45.9369" lon="4.7184">
        <ele>175</ele>
        <time>2018-08-22T10:30:20Z</time>
      </trkpt>
      <trkpt lat="45.93687" lon="4.71846">
        <ele>175</ele>
        <time>2018-08-22T10:30:21Z</time>
      </trkpt>
      <trkpt lat="45.93684" lon="4.71852">
        <ele>175</ele>
        <time>2018-08-22T10:30:22Z</time>
      </trkpt>
      <trkpt lat="45.93683" lon="4.71858">
        <ele>175</ele>
        <time>2018-08-22T10:30:23Z</time>
      </trkpt>
      <trkpt lat="45.93681" lon="4.71865">
        <ele>175</ele>
        <time>2018-08-22T10:30:24Z</time>
      </trkpt>
      <trkpt lat="45.9368" lon="4.71873">
        <ele>175</ele>
        <time>2018-08-22T10:30:25Z</time>
      </trkpt>
      <trkpt lat="45.93678" lon="4.71879">
        <ele>175</ele>
        <time>2018-08-22T10:30:26Z</time>
      </trkpt>
      <trkpt lat="45.93674" lon="4.71887">
        <ele>175</ele>
        <time>2018-08-22T10:30:28Z</time>
      </trkpt>
      <trkpt lat="45.93673" lon="4.71891">
        <ele>175</ele>
        <time>2018-08-22T10:30:29Z</time>
      </trkpt>
      <trkpt lat="45.93668" lon="4.71901">
        <ele>175</ele>
        <time>2018-08-22T10:30:34Z</time>
      </trkpt>
      <trkpt lat="45.93667" lon="4.71902">
        <ele>175</ele>
        <time>2018-08-22T10:30:35Z</time>
      </trkpt>
      <trkpt lat="45.93664" lon="4.71911">
        <ele>176</ele>
        <time>2018-08-22T10:30:48Z</time>
      </trkpt>
      <trkpt lat="45.93663" lon="4.71914">
        <ele>175</ele>
        <time>2018-08-22T10:30:49Z</time>
      </trkpt>
      <trkpt lat="45.93658" lon="4.71923">
        <ele>175</ele>
        <time>2018-08-22T10:30:50Z</time>
      </trkpt>
      <trkpt lat="45.93656" lon="4.71929">
        <ele>175</ele>
        <time>2018-08-22T10:30:51Z</time>
      </trkpt>
      <trkpt lat="45.93654" lon="4.71934">
        <ele>175</ele>
        <time>2018-08-22T10:30:52Z</time>
      </trkpt>
      <trkpt lat="45.93651" lon="4.71943">
        <ele>175</ele>
        <time>2018-08-22T10:30:53Z</time>
      </trkpt>
      <trkpt lat="45.93648" lon="4.71948">
        <ele>175</ele>
        <time>2018-08-22T10:30:54Z</time>
      </trkpt>
      <trkpt lat="45.93645" lon="4.71952">
        <ele>175</ele>
        <time>2018-08-22T10:30:55Z</time>
      </trkpt>
      <trkpt lat="45.93643" lon="4.71959">
        <ele>175</ele>
        <time>2018-08-22T10:30:56Z</time>
      </trkpt>
      <trkpt lat="45.9364" lon="4.71964">
        <ele>175</ele>
        <time>2018-08-22T10:30:57Z</time>
      </trkpt>
      <trkpt lat="45.93638" lon="4.71972">
        <ele>175</ele>
        <time>2018-08-22T10:30:58Z</time>
      </trkpt>
      <trkpt lat="45.93637" lon="4.7198">
        <ele>175</ele>
        <time>2018-08-22T10:30:59Z</time>
      </trkpt>
      <trkpt lat="45.93635" lon="4.71987">
        <ele>175</ele>
        <time>2018-08-22T10:31:00Z</time>
      </trkpt>
      <trkpt lat="45.93633" lon="4.71996">
        <ele>175</ele>
        <time>2018-08-22T10:31:01Z</time>
      </trkpt>
      <trkpt lat="45.93629" lon="4.72006">
        <ele>175</ele>
        <time>2018-08-22T10:31:03Z</time>
      </trkpt>
      <trkpt lat="45.93627" lon="4.72013">
        <ele>175</ele>
        <time>2018-08-22T10:31:04Z</time>
      </trkpt>
      <trkpt lat="45.93622" lon="4.72016">
        <ele>175</ele>
        <time>2018-08-22T10:31:05Z</time>
      </trkpt>
      <trkpt lat="45.93619" lon="4.72023">
        <ele>175</ele>
        <time>2018-08-22T10:31:06Z</time>
      </trkpt>
      <trkpt lat="45.93617" lon="4.72031">
        <ele>175</ele>
        <time>2018-08-22T10:31:07Z</time>
      </trkpt>
      <trkpt lat="45.93616" lon="4.72038">
        <ele>175</ele>
        <time>2018-08-22T10:31:08Z</time>
      </trkpt>
      <trkpt lat="45.93612" lon="4.72045">
        <ele>175</ele>
        <time>2018-08-22T10:31:09Z</time>
      </trkpt>
      <trkpt lat="45.9361" lon="4.7205">
        <ele>175</ele>
        <time>2018-08-22T10:31:10Z</time>
      </trkpt>
      <trkpt lat="45.93607" lon="4.72056">
        <ele>175</ele>
        <time>2018-08-22T10:31:11Z</time>
      </trkpt>
      <trkpt lat="45.93604" lon="4.72063">
        <ele>175</ele>
        <time>2018-08-22T10:31:12Z</time>
      </trkpt>
      <trkpt lat="45.93603" lon="4.7207">
        <ele>175</ele>
        <time>2018-08-22T10:31:13Z</time>
      </trkpt>
      <trkpt lat="45.936" lon="4.72076">
        <ele>175</ele>
        <time>2018-08-22T10:31:14Z</time>
      </trkpt>
      <trkpt lat="45.93598" lon="4.72083">
        <ele>175</ele>
        <time>2018-08-22T10:31:15Z</time>
      </trkpt>
      <trkpt lat="45.93596" lon="4.7209">
        <ele>175</ele>
        <time>2018-08-22T10:31:16Z</time>
      </trkpt>
      <trkpt lat="45.93594" lon="4.72102">
        <ele>174</ele>
        <time>2018-08-22T10:31:18Z</time>
      </trkpt>
      <trkpt lat="45.9359" lon="4.72108">
        <ele>174</ele>
        <time>2018-08-22T10:31:19Z</time>
      </trkpt>
      <trkpt lat="45.93586" lon="4.72114">
        <ele>174</ele>
        <time>2018-08-22T10:31:20Z</time>
      </trkpt>
      <trkpt lat="45.93582" lon="4.72119">
        <ele>175</ele>
        <time>2018-08-22T10:31:21Z</time>
      </trkpt>
      <trkpt lat="45.93577" lon="4.72126">
        <ele>174</ele>
        <time>2018-08-22T10:31:23Z</time>
      </trkpt>
      <trkpt lat="45.93572" lon="4.72132">
        <ele>174</ele>
        <time>2018-08-22T10:31:24Z</time>
      </trkpt>
      <trkpt lat="45.93572" lon="4.7214">
        <ele>174</ele>
        <time>2018-08-22T10:31:26Z</time>
      </trkpt>
      <trkpt lat="45.93571" lon="4.72149">
        <ele>174</ele>
        <time>2018-08-22T10:31:27Z</time>
      </trkpt>
      <trkpt lat="45.9357" lon="4.72156">
        <ele>174</ele>
        <time>2018-08-22T10:31:28Z</time>
      </trkpt>
      <trkpt lat="45.93567" lon="4.72164">
        <ele>174</ele>
        <time>2018-08-22T10:31:29Z</time>
      </trkpt>
      <trkpt lat="45.93565" lon="4.72171">
        <ele>173</ele>
        <time>2018-08-22T10:31:30Z</time>
      </trkpt>
      <trkpt lat="45.93562" lon="4.72177">
        <ele>173</ele>
        <time>2018-08-22T10:31:31Z</time>
      </trkpt>
      <trkpt lat="45.93561" lon="4.72186">
        <ele>173</ele>
        <time>2018-08-22T10:31:32Z</time>
      </trkpt>
      <trkpt lat="45.93559" lon="4.72192">
        <ele>173</ele>
        <time>2018-08-22T10:31:33Z</time>
      </trkpt>
      <trkpt lat="45.93556" lon="4.72199">
        <ele>173</ele>
        <time>2018-08-22T10:31:34Z</time>
      </trkpt>
      <trkpt lat="45.93555" lon="4.72207">
        <ele>173</ele>
        <time>2018-08-22T10:31:35Z</time>
      </trkpt>
      <trkpt lat="45.93552" lon="4.72213">
        <ele>173</ele>
        <time>2018-08-22T10:31:36Z</time>
      </trkpt>
      <trkpt lat="45.93549" lon="4.72219">
        <ele>172</ele>
        <time>2018-08-22T10:31:37Z</time>
      </trkpt>
      <trkpt lat="45.93547" lon="4.72225">
        <ele>172</ele>
        <time>2018-08-22T10:31:38Z</time>
      </trkpt>
      <trkpt lat="45.93545" lon="4.72234">
        <ele>172</ele>
        <time>2018-08-22T10:31:39Z</time>
      </trkpt>
      <trkpt lat="45.93542" lon="4.7224">
        <ele>172</ele>
        <time>2018-08-22T10:31:40Z</time>
      </trkpt>
      <trkpt lat="45.93539" lon="4.72246">
        <ele>172</ele>
        <time>2018-08-22T10:31:41Z</time>
      </trkpt>
      <trkpt lat="45.93536" lon="4.72252">
        <ele>172</ele>
        <time>2018-08-22T10:31:42Z</time>
      </trkpt>
      <trkpt lat="45.93533" lon="4.72258">
        <ele>172</ele>
        <time>2018-08-22T10:31:43Z</time>
      </trkpt>
      <trkpt lat="45.93531" lon="4.72263">
        <ele>172</ele>
        <time>2018-08-22T10:31:44Z</time>
      </trkpt>
      <trkpt lat="45.93527" lon="4.72268">
        <ele>172</ele>
        <time>2018-08-22T10:31:45Z</time>
      </trkpt>
      <trkpt lat="45.93525" lon="4.72274">
        <ele>172</ele>
        <time>2018-08-22T10:31:46Z</time>
      </trkpt>
      <trkpt lat="45.93523" lon="4.7228">
        <ele>172</ele>
        <time>2018-08-22T10:31:47Z</time>
      </trkpt>
      <trkpt lat="45.9352" lon="4.72285">
        <ele>172</ele>
        <time>2018-08-22T10:31:48Z</time>
      </trkpt>
      <trkpt lat="45.93517" lon="4.72291">
        <ele>172</ele>
        <time>2018-08-22T10:31:49Z</time>
      </trkpt>
      <trkpt lat="45.93515" lon="4.72297">
        <ele>172</ele>
        <time>2018-08-22T10:31:50Z</time>
      </trkpt>
      <trkpt lat="45.93511" lon="4.72303">
        <ele>172</ele>
        <time>2018-08-22T10:31:51Z</time>
      </trkpt>
      <trkpt lat="45.93508" lon="4.72308">
        <ele>173</ele>
        <time>2018-08-22T10:31:52Z</time>
      </trkpt>
      <trkpt lat="45.93505" lon="4.72313">
        <ele>173</ele>
        <time>2018-08-22T10:31:53Z</time>
      </trkpt>
      <trkpt lat="45.935" lon="4.72319">
        <ele>173</ele>
        <time>2018-08-22T10:31:54Z</time>
      </trkpt>
      <trkpt lat="45.93496" lon="4.72325">
        <ele>173</ele>
        <time>2018-08-22T10:31:55Z</time>
      </trkpt>
      <trkpt lat="45.93493" lon="4.72332">
        <ele>173</ele>
        <time>2018-08-22T10:31:56Z</time>
      </trkpt>
      <trkpt lat="45.93488" lon="4.72338">
        <ele>173</ele>
        <time>2018-08-22T10:31:57Z</time>
      </trkpt>
      <trkpt lat="45.93484" lon="4.72343">
        <ele>173</ele>
        <time>2018-08-22T10:31:58Z</time>
      </trkpt>
      <trkpt lat="45.9348" lon="4.72347">
        <ele>173</ele>
        <time>2018-08-22T10:31:59Z</time>
      </trkpt>
      <trkpt lat="45.93476" lon="4.72353">
        <ele>173</ele>
        <time>2018-08-22T10:32:00Z</time>
      </trkpt>
      <trkpt lat="45.93472" lon="4.72359">
        <ele>173</ele>
        <time>2018-08-22T10:32:01Z</time>
      </trkpt>
      <trkpt lat="45.93468" lon="4.72365">
        <ele>173</ele>
        <time>2018-08-22T10:32:02Z</time>
      </trkpt>
      <trkpt lat="45.93463" lon="4.7237">
        <ele>173</ele>
        <time>2018-08-22T10:32:03Z</time>
      </trkpt>
      <trkpt lat="45.93459" lon="4.72373">
        <ele>173</ele>
        <time>2018-08-22T10:32:04Z</time>
      </trkpt>
      <trkpt lat="45.93453" lon="4.72377">
        <ele>173</ele>
        <time>2018-08-22T10:32:05Z</time>
      </trkpt>
      <trkpt lat="45.93449" lon="4.7238">
        <ele>173</ele>
        <time>2018-08-22T10:32:06Z</time>
      </trkpt>
      <trkpt lat="45.93444" lon="4.72385">
        <ele>173</ele>
        <time>2018-08-22T10:32:07Z</time>
      </trkpt>
      <trkpt lat="45.9344" lon="4.72392">
        <ele>173</ele>
        <time>2018-08-22T10:32:08Z</time>
      </trkpt>
      <trkpt lat="45.93436" lon="4.72393">
        <ele>173</ele>
        <time>2018-08-22T10:32:09Z</time>
      </trkpt>
      <trkpt lat="45.93432" lon="4.72396">
        <ele>173</ele>
        <time>2018-08-22T10:32:10Z</time>
      </trkpt>
      <trkpt lat="45.93427" lon="4.72399">
        <ele>174</ele>
        <time>2018-08-22T10:32:11Z</time>
      </trkpt>
      <trkpt lat="45.93419" lon="4.72401">
        <ele>174</ele>
        <time>2018-08-22T10:32:13Z</time>
      </trkpt>
      <trkpt lat="45.93414" lon="4.72402">
        <ele>174</ele>
        <time>2018-08-22T10:32:14Z</time>
      </trkpt>
      <trkpt lat="45.93409" lon="4.72403">
        <ele>174</ele>
        <time>2018-08-22T10:32:15Z</time>
      </trkpt>
      <trkpt lat="45.93405" lon="4.72403">
        <ele>174</ele>
        <time>2018-08-22T10:32:16Z</time>
      </trkpt>
      <trkpt lat="45.93399" lon="4.72403">
        <ele>174</ele>
        <time>2018-08-22T10:32:17Z</time>
      </trkpt>
      <trkpt lat="45.93394" lon="4.72404">
        <ele>174</ele>
        <time>2018-08-22T10:32:18Z</time>
      </trkpt>
      <trkpt lat="45.93387" lon="4.72411">
        <ele>174</ele>
        <time>2018-08-22T10:32:20Z</time>
      </trkpt>
      <trkpt lat="45.93385" lon="4.72419">
        <ele>173</ele>
        <time>2018-08-22T10:32:21Z</time>
      </trkpt>
      <trkpt lat="45.93387" lon="4.72425">
        <ele>173</ele>
        <time>2018-08-22T10:32:22Z</time>
      </trkpt>
      <trkpt lat="45.93389" lon="4.72431">
        <ele>173</ele>
        <time>2018-08-22T10:32:23Z</time>
      </trkpt>
      <trkpt lat="45.93391" lon="4.72437">
        <ele>173</ele>
        <time>2018-08-22T10:32:24Z</time>
      </trkpt>
      <trkpt lat="45.93393" lon="4.72444">
        <ele>173</ele>
        <time>2018-08-22T10:32:25Z</time>
      </trkpt>
      <trkpt lat="45.93394" lon="4.72451">
        <ele>173</ele>
        <time>2018-08-22T10:32:26Z</time>
      </trkpt>
      <trkpt lat="45.93392" lon="4.72457">
        <ele>173</ele>
        <time>2018-08-22T10:32:27Z</time>
      </trkpt>
      <trkpt lat="45.93387" lon="4.72466">
        <ele>173</ele>
        <time>2018-08-22T10:32:29Z</time>
      </trkpt>
      <trkpt lat="45.93383" lon="4.7247">
        <ele>173</ele>
        <time>2018-08-22T10:32:30Z</time>
      </trkpt>
      <trkpt lat="45.93379" lon="4.72474">
        <ele>173</ele>
        <time>2018-08-22T10:32:31Z</time>
      </trkpt>
      <trkpt lat="45.93374" lon="4.72477">
        <ele>173</ele>
        <time>2018-08-22T10:32:32Z</time>
      </trkpt>
      <trkpt lat="45.93369" lon="4.72481">
        <ele>173</ele>
        <time>2018-08-22T10:32:33Z</time>
      </trkpt>
      <trkpt lat="45.93362" lon="4.72484">
        <ele>173</ele>
        <time>2018-08-22T10:32:34Z</time>
      </trkpt>
      <trkpt lat="45.93358" lon="4.72488">
        <ele>173</ele>
        <time>2018-08-22T10:32:35Z</time>
      </trkpt>
      <trkpt lat="45.93355" lon="4.72501">
        <ele>172</ele>
        <time>2018-08-22T10:32:36Z</time>
      </trkpt>
      <trkpt lat="45.93351" lon="4.72507">
        <ele>172</ele>
        <time>2018-08-22T10:32:37Z</time>
      </trkpt>
      <trkpt lat="45.93346" lon="4.72511">
        <ele>172</ele>
        <time>2018-08-22T10:32:38Z</time>
      </trkpt>
      <trkpt lat="45.93341" lon="4.72516">
        <ele>172</ele>
        <time>2018-08-22T10:32:39Z</time>
      </trkpt>
      <trkpt lat="45.93337" lon="4.72522">
        <ele>172</ele>
        <time>2018-08-22T10:32:40Z</time>
      </trkpt>
      <trkpt lat="45.93333" lon="4.72526">
        <ele>172</ele>
        <time>2018-08-22T10:32:41Z</time>
      </trkpt>
      <trkpt lat="45.93328" lon="4.72531">
        <ele>172</ele>
        <time>2018-08-22T10:32:42Z</time>
      </trkpt>
      <trkpt lat="45.93325" lon="4.72535">
        <ele>172</ele>
        <time>2018-08-22T10:32:43Z</time>
      </trkpt>
      <trkpt lat="45.93321" lon="4.72539">
        <ele>172</ele>
        <time>2018-08-22T10:32:44Z</time>
      </trkpt>
      <trkpt lat="45.93314" lon="4.72545">
        <ele>172</ele>
        <time>2018-08-22T10:32:46Z</time>
      </trkpt>
      <trkpt lat="45.93311" lon="4.72549">
        <ele>172</ele>
        <time>2018-08-22T10:32:47Z</time>
      </trkpt>
      <trkpt lat="45.93308" lon="4.72554">
        <ele>172</ele>
        <time>2018-08-22T10:32:48Z</time>
      </trkpt>
      <trkpt lat="45.93304" lon="4.72559">
        <ele>172</ele>
        <time>2018-08-22T10:32:49Z</time>
      </trkpt>
      <trkpt lat="45.933" lon="4.72562">
        <ele>172</ele>
        <time>2018-08-22T10:32:50Z</time>
      </trkpt>
      <trkpt lat="45.93296" lon="4.72567">
        <ele>172</ele>
        <time>2018-08-22T10:32:51Z</time>
      </trkpt>
      <trkpt lat="45.9329" lon="4.72576">
        <ele>172</ele>
        <time>2018-08-22T10:32:53Z</time>
      </trkpt>
      <trkpt lat="45.93287" lon="4.7258">
        <ele>171</ele>
        <time>2018-08-22T10:32:54Z</time>
      </trkpt>
      <trkpt lat="45.93283" lon="4.72584">
        <ele>170</ele>
        <time>2018-08-22T10:32:55Z</time>
      </trkpt>
      <trkpt lat="45.93279" lon="4.72591">
        <ele>170</ele>
        <time>2018-08-22T10:32:56Z</time>
      </trkpt>
      <trkpt lat="45.93276" lon="4.72595">
        <ele>170</ele>
        <time>2018-08-22T10:32:57Z</time>
      </trkpt>
      <trkpt lat="45.93271" lon="4.72602">
        <ele>170</ele>
        <time>2018-08-22T10:32:58Z</time>
      </trkpt>
      <trkpt lat="45.93267" lon="4.72606">
        <ele>170</ele>
        <time>2018-08-22T10:32:59Z</time>
      </trkpt>
      <trkpt lat="45.93264" lon="4.72611">
        <ele>170</ele>
        <time>2018-08-22T10:33:00Z</time>
      </trkpt>
      <trkpt lat="45.9326" lon="4.72616">
        <ele>170</ele>
        <time>2018-08-22T10:33:01Z</time>
      </trkpt>
      <trkpt lat="45.93256" lon="4.72621">
        <ele>170</ele>
        <time>2018-08-22T10:33:02Z</time>
      </trkpt>
      <trkpt lat="45.93252" lon="4.72626">
        <ele>170</ele>
        <time>2018-08-22T10:33:03Z</time>
      </trkpt>
      <trkpt lat="45.93248" lon="4.72631">
        <ele>170</ele>
        <time>2018-08-22T10:33:04Z</time>
      </trkpt>
      <trkpt lat="45.93244" lon="4.72635">
        <ele>170</ele>
        <time>2018-08-22T10:33:05Z</time>
      </trkpt>
      <trkpt lat="45.9324" lon="4.72639">
        <ele>170</ele>
        <time>2018-08-22T10:33:06Z</time>
      </trkpt>
      <trkpt lat="45.93234" lon="4.72647">
        <ele>170</ele>
        <time>2018-08-22T10:33:08Z</time>
      </trkpt>
      <trkpt lat="45.93229" lon="4.72652">
        <ele>170</ele>
        <time>2018-08-22T10:33:09Z</time>
      </trkpt>
      <trkpt lat="45.93225" lon="4.72656">
        <ele>170</ele>
        <time>2018-08-22T10:33:10Z</time>
      </trkpt>
      <trkpt lat="45.93221" lon="4.72661">
        <ele>170</ele>
        <time>2018-08-22T10:33:11Z</time>
      </trkpt>
      <trkpt lat="45.93216" lon="4.72667">
        <ele>169</ele>
        <time>2018-08-22T10:33:12Z</time>
      </trkpt>
      <trkpt lat="45.93211" lon="4.72671">
        <ele>169</ele>
        <time>2018-08-22T10:33:13Z</time>
      </trkpt>
      <trkpt lat="45.93206" lon="4.72675">
        <ele>169</ele>
        <time>2018-08-22T10:33:14Z</time>
      </trkpt>
      <trkpt lat="45.93202" lon="4.7268">
        <ele>169</ele>
        <time>2018-08-22T10:33:15Z</time>
      </trkpt>
      <trkpt lat="45.93197" lon="4.72685">
        <ele>169</ele>
        <time>2018-08-22T10:33:16Z</time>
      </trkpt>
      <trkpt lat="45.93193" lon="4.72691">
        <ele>169</ele>
        <time>2018-08-22T10:33:17Z</time>
      </trkpt>
      <trkpt lat="45.93188" lon="4.72697">
        <ele>169</ele>
        <time>2018-08-22T10:33:18Z</time>
      </trkpt>
      <trkpt lat="45.93183" lon="4.72702">
        <ele>169</ele>
        <time>2018-08-22T10:33:19Z</time>
      </trkpt>
      <trkpt lat="45.93179" lon="4.72708">
        <ele>169</ele>
        <time>2018-08-22T10:33:20Z</time>
      </trkpt>
      <trkpt lat="45.93174" lon="4.72714">
        <ele>170</ele>
        <time>2018-08-22T10:33:21Z</time>
      </trkpt>
      <trkpt lat="45.9317" lon="4.72719">
        <ele>170</ele>
        <time>2018-08-22T10:33:22Z</time>
      </trkpt>
      <trkpt lat="45.93167" lon="4.72724">
        <ele>170</ele>
        <time>2018-08-22T10:33:23Z</time>
      </trkpt>
      <trkpt lat="45.93161" lon="4.72728">
        <ele>170</ele>
        <time>2018-08-22T10:33:24Z</time>
      </trkpt>
      <trkpt lat="45.93157" lon="4.72734">
        <ele>170</ele>
        <time>2018-08-22T10:33:25Z</time>
      </trkpt>
      <trkpt lat="45.9315" lon="4.7274">
        <ele>170</ele>
        <time>2018-08-22T10:33:26Z</time>
      </trkpt>
      <trkpt lat="45.93145" lon="4.72746">
        <ele>170</ele>
        <time>2018-08-22T10:33:27Z</time>
      </trkpt>
      <trkpt lat="45.9314" lon="4.72751">
        <ele>171</ele>
        <time>2018-08-22T10:33:28Z</time>
      </trkpt>
      <trkpt lat="45.93135" lon="4.72758">
        <ele>171</ele>
        <time>2018-08-22T10:33:29Z</time>
      </trkpt>
      <trkpt lat="45.9313" lon="4.72764">
        <ele>171</ele>
        <time>2018-08-22T10:33:30Z</time>
      </trkpt>
      <trkpt lat="45.93126" lon="4.72769">
        <ele>171</ele>
        <time>2018-08-22T10:33:31Z</time>
      </trkpt>
      <trkpt lat="45.93122" lon="4.72774">
        <ele>171</ele>
        <time>2018-08-22T10:33:32Z</time>
      </trkpt>
      <trkpt lat="45.93118" lon="4.72781">
        <ele>171</ele>
        <time>2018-08-22T10:33:33Z</time>
      </trkpt>
      <trkpt lat="45.93113" lon="4.72786">
        <ele>171</ele>
        <time>2018-08-22T10:33:34Z</time>
      </trkpt>
      <trkpt lat="45.93109" lon="4.72791">
        <ele>171</ele>
        <time>2018-08-22T10:33:35Z</time>
      </trkpt>
      <trkpt lat="45.93104" lon="4.72795">
        <ele>171</ele>
        <time>2018-08-22T10:33:36Z</time>
      </trkpt>
      <trkpt lat="45.931" lon="4.72801">
        <ele>171</ele>
        <time>2018-08-22T10:33:37Z</time>
      </trkpt>
      <trkpt lat="45.93096" lon="4.72805">
        <ele>171</ele>
        <time>2018-08-22T10:33:38Z</time>
      </trkpt>
      <trkpt lat="45.93091" lon="4.72809">
        <ele>172</ele>
        <time>2018-08-22T10:33:39Z</time>
      </trkpt>
      <trkpt lat="45.93087" lon="4.72813">
        <ele>172</ele>
        <time>2018-08-22T10:33:40Z</time>
      </trkpt>
      <trkpt lat="45.93082" lon="4.72818">
        <ele>172</ele>
        <time>2018-08-22T10:33:41Z</time>
      </trkpt>
      <trkpt lat="45.93078" lon="4.72822">
        <ele>173</ele>
        <time>2018-08-22T10:33:42Z</time>
      </trkpt>
      <trkpt lat="45.93073" lon="4.72826">
        <ele>173</ele>
        <time>2018-08-22T10:33:43Z</time>
      </trkpt>
      <trkpt lat="45.93044" lon="4.72874">
        <ele>172</ele>
        <time>2018-08-22T10:33:50Z</time>
      </trkpt>
      <trkpt lat="45.93037" lon="4.72878">
        <ele>172</ele>
        <time>2018-08-22T10:33:52Z</time>
      </trkpt>
      <trkpt lat="45.93033" lon="4.72883">
        <ele>172</ele>
        <time>2018-08-22T10:33:53Z</time>
      </trkpt>
      <trkpt lat="45.93028" lon="4.72888">
        <ele>172</ele>
        <time>2018-08-22T10:33:54Z</time>
      </trkpt>
      <trkpt lat="45.93023" lon="4.72893">
        <ele>172</ele>
        <time>2018-08-22T10:33:55Z</time>
      </trkpt>
      <trkpt lat="45.93019" lon="4.72897">
        <ele>172</ele>
        <time>2018-08-22T10:33:56Z</time>
      </trkpt>
      <trkpt lat="45.93015" lon="4.72903">
        <ele>172</ele>
        <time>2018-08-22T10:33:57Z</time>
      </trkpt>
      <trkpt lat="45.93011" lon="4.72908">
        <ele>171</ele>
        <time>2018-08-22T10:33:58Z</time>
      </trkpt>
      <trkpt lat="45.93006" lon="4.72912">
        <ele>171</ele>
        <time>2018-08-22T10:33:59Z</time>
      </trkpt>
      <trkpt lat="45.93002" lon="4.72918">
        <ele>171</ele>
        <time>2018-08-22T10:34:00Z</time>
      </trkpt>
      <trkpt lat="45.92998" lon="4.72923">
        <ele>171</ele>
        <time>2018-08-22T10:34:01Z</time>
      </trkpt>
      <trkpt lat="45.92993" lon="4.72928">
        <ele>171</ele>
        <time>2018-08-22T10:34:02Z</time>
      </trkpt>
      <trkpt lat="45.9299" lon="4.72931">
        <ele>171</ele>
        <time>2018-08-22T10:34:03Z</time>
      </trkpt>
      <trkpt lat="45.92986" lon="4.72935">
        <ele>171</ele>
        <time>2018-08-22T10:34:04Z</time>
      </trkpt>
      <trkpt lat="45.92982" lon="4.7294">
        <ele>171</ele>
        <time>2018-08-22T10:34:05Z</time>
      </trkpt>
      <trkpt lat="45.92979" lon="4.72945">
        <ele>171</ele>
        <time>2018-08-22T10:34:06Z</time>
      </trkpt>
      <trkpt lat="45.92974" lon="4.72949">
        <ele>171</ele>
        <time>2018-08-22T10:34:07Z</time>
      </trkpt>
      <trkpt lat="45.92969" lon="4.72955">
        <ele>171</ele>
        <time>2018-08-22T10:34:08Z</time>
      </trkpt>
      <trkpt lat="45.92964" lon="4.7296">
        <ele>171</ele>
        <time>2018-08-22T10:34:09Z</time>
      </trkpt>
      <trkpt lat="45.9296" lon="4.72963">
        <ele>171</ele>
        <time>2018-08-22T10:34:10Z</time>
      </trkpt>
      <trkpt lat="45.92955" lon="4.72969">
        <ele>171</ele>
        <time>2018-08-22T10:34:11Z</time>
      </trkpt>
      <trkpt lat="45.92948" lon="4.72976">
        <ele>171</ele>
        <time>2018-08-22T10:34:13Z</time>
      </trkpt>
      <trkpt lat="45.92944" lon="4.72981">
        <ele>171</ele>
        <time>2018-08-22T10:34:14Z</time>
      </trkpt>
      <trkpt lat="45.92939" lon="4.72985">
        <ele>171</ele>
        <time>2018-08-22T10:34:15Z</time>
      </trkpt>
      <trkpt lat="45.92936" lon="4.72993">
        <ele>171</ele>
        <time>2018-08-22T10:34:16Z</time>
      </trkpt>
      <trkpt lat="45.92931" lon="4.73">
        <ele>172</ele>
        <time>2018-08-22T10:34:17Z</time>
      </trkpt>
      <trkpt lat="45.92927" lon="4.73005">
        <ele>172</ele>
        <time>2018-08-22T10:34:18Z</time>
      </trkpt>
      <trkpt lat="45.92924" lon="4.73012">
        <ele>172</ele>
        <time>2018-08-22T10:34:19Z</time>
      </trkpt>
      <trkpt lat="45.9292" lon="4.73017">
        <ele>172</ele>
        <time>2018-08-22T10:34:20Z</time>
      </trkpt>
      <trkpt lat="45.92916" lon="4.73021">
        <ele>172</ele>
        <time>2018-08-22T10:34:21Z</time>
      </trkpt>
      <trkpt lat="45.92913" lon="4.73026">
        <ele>172</ele>
        <time>2018-08-22T10:34:22Z</time>
      </trkpt>
      <trkpt lat="45.92908" lon="4.73031">
        <ele>172</ele>
        <time>2018-08-22T10:34:23Z</time>
      </trkpt>
      <trkpt lat="45.92905" lon="4.73035">
        <ele>172</ele>
        <time>2018-08-22T10:34:24Z</time>
      </trkpt>
      <trkpt lat="45.92902" lon="4.73041">
        <ele>172</ele>
        <time>2018-08-22T10:34:25Z</time>
      </trkpt>
      <trkpt lat="45.92899" lon="4.73046">
        <ele>172</ele>
        <time>2018-08-22T10:34:26Z</time>
      </trkpt>
      <trkpt lat="45.92895" lon="4.73052">
        <ele>172</ele>
        <time>2018-08-22T10:34:27Z</time>
      </trkpt>
      <trkpt lat="45.92891" lon="4.73058">
        <ele>172</ele>
        <time>2018-08-22T10:34:28Z</time>
      </trkpt>
      <trkpt lat="45.92888" lon="4.73064">
        <ele>172</ele>
        <time>2018-08-22T10:34:29Z</time>
      </trkpt>
      <trkpt lat="45.92884" lon="4.73068">
        <ele>172</ele>
        <time>2018-08-22T10:34:30Z</time>
      </trkpt>
      <trkpt lat="45.92877" lon="4.73077">
        <ele>172</ele>
        <time>2018-08-22T10:34:32Z</time>
      </trkpt>
      <trkpt lat="45.92875" lon="4.73082">
        <ele>172</ele>
        <time>2018-08-22T10:34:33Z</time>
      </trkpt>
      <trkpt lat="45.92872" lon="4.73087">
        <ele>172</ele>
        <time>2018-08-22T10:34:34Z</time>
      </trkpt>
      <trkpt lat="45.92869" lon="4.73092">
        <ele>172</ele>
        <time>2018-08-22T10:34:35Z</time>
      </trkpt>
      <trkpt lat="45.92863" lon="4.73101">
        <ele>171</ele>
        <time>2018-08-22T10:34:37Z</time>
      </trkpt>
      <trkpt lat="45.9286" lon="4.73105">
        <ele>171</ele>
        <time>2018-08-22T10:34:38Z</time>
      </trkpt>
      <trkpt lat="45.92851" lon="4.73105">
        <ele>171</ele>
        <time>2018-08-22T10:34:40Z</time>
      </trkpt>
      <trkpt lat="45.92847" lon="4.73101">
        <ele>171</ele>
        <time>2018-08-22T10:34:41Z</time>
      </trkpt>
      <trkpt lat="45.92844" lon="4.73091">
        <ele>171</ele>
        <time>2018-08-22T10:34:43Z</time>
      </trkpt>
      <trkpt lat="45.92842" lon="4.73083">
        <ele>171</ele>
        <time>2018-08-22T10:34:44Z</time>
      </trkpt>
      <trkpt lat="45.92841" lon="4.73075">
        <ele>171</ele>
        <time>2018-08-22T10:34:45Z</time>
      </trkpt>
      <trkpt lat="45.92839" lon="4.73069">
        <ele>171</ele>
        <time>2018-08-22T10:34:46Z</time>
      </trkpt>
      <trkpt lat="45.92838" lon="4.73061">
        <ele>171</ele>
        <time>2018-08-22T10:34:47Z</time>
      </trkpt>
      <trkpt lat="45.92837" lon="4.73053">
        <ele>171</ele>
        <time>2018-08-22T10:34:48Z</time>
      </trkpt>
      <trkpt lat="45.92835" lon="4.73047">
        <ele>171</ele>
        <time>2018-08-22T10:34:49Z</time>
      </trkpt>
      <trkpt lat="45.92836" lon="4.73039">
        <ele>171</ele>
        <time>2018-08-22T10:34:50Z</time>
      </trkpt>
      <trkpt lat="45.92834" lon="4.73032">
        <ele>171</ele>
        <time>2018-08-22T10:34:51Z</time>
      </trkpt>
      <trkpt lat="45.92834" lon="4.73026">
        <ele>171</ele>
        <time>2018-08-22T10:34:52Z</time>
      </trkpt>
      <trkpt lat="45.92833" lon="4.73018">
        <ele>170</ele>
        <time>2018-08-22T10:34:53Z</time>
      </trkpt>
      <trkpt lat="45.92832" lon="4.73008">
        <ele>170</ele>
        <time>2018-08-22T10:34:54Z</time>
      </trkpt>
      <trkpt lat="45.92833" lon="4.73001">
        <ele>170</ele>
        <time>2018-08-22T10:34:55Z</time>
      </trkpt>
      <trkpt lat="45.92832" lon="4.72994">
        <ele>170</ele>
        <time>2018-08-22T10:34:56Z</time>
      </trkpt>
      <trkpt lat="45.92831" lon="4.72986">
        <ele>170</ele>
        <time>2018-08-22T10:34:57Z</time>
      </trkpt>
      <trkpt lat="45.92832" lon="4.72979">
        <ele>170</ele>
        <time>2018-08-22T10:34:58Z</time>
      </trkpt>
      <trkpt lat="45.92832" lon="4.72971">
        <ele>170</ele>
        <time>2018-08-22T10:34:59Z</time>
      </trkpt>
      <trkpt lat="45.9283" lon="4.72964">
        <ele>170</ele>
        <time>2018-08-22T10:35:00Z</time>
      </trkpt>
      <trkpt lat="45.9283" lon="4.72958">
        <ele>170</ele>
        <time>2018-08-22T10:35:01Z</time>
      </trkpt>
      <trkpt lat="45.9283" lon="4.7295">
        <ele>170</ele>
        <time>2018-08-22T10:35:02Z</time>
      </trkpt>
      <trkpt lat="45.92829" lon="4.72941">
        <ele>170</ele>
        <time>2018-08-22T10:35:03Z</time>
      </trkpt>
      <trkpt lat="45.92828" lon="4.72932">
        <ele>170</ele>
        <time>2018-08-22T10:35:04Z</time>
      </trkpt>
      <trkpt lat="45.92827" lon="4.72924">
        <ele>170</ele>
        <time>2018-08-22T10:35:05Z</time>
      </trkpt>
      <trkpt lat="45.92825" lon="4.72916">
        <ele>170</ele>
        <time>2018-08-22T10:35:06Z</time>
      </trkpt>
      <trkpt lat="45.92824" lon="4.72908">
        <ele>170</ele>
        <time>2018-08-22T10:35:07Z</time>
      </trkpt>
      <trkpt lat="45.92824" lon="4.72901">
        <ele>170</ele>
        <time>2018-08-22T10:35:08Z</time>
      </trkpt>
      <trkpt lat="45.92823" lon="4.72893">
        <ele>170</ele>
        <time>2018-08-22T10:35:09Z</time>
      </trkpt>
      <trkpt lat="45.92822" lon="4.72887">
        <ele>170</ele>
        <time>2018-08-22T10:35:10Z</time>
      </trkpt>
      <trkpt lat="45.92823" lon="4.72874">
        <ele>170</ele>
        <time>2018-08-22T10:35:12Z</time>
      </trkpt>
      <trkpt lat="45.92821" lon="4.72867">
        <ele>170</ele>
        <time>2018-08-22T10:35:13Z</time>
      </trkpt>
      <trkpt lat="45.9282" lon="4.7286">
        <ele>170</ele>
        <time>2018-08-22T10:35:14Z</time>
      </trkpt>
      <trkpt lat="45.92817" lon="4.72853">
        <ele>170</ele>
        <time>2018-08-22T10:35:15Z</time>
      </trkpt>
      <trkpt lat="45.92816" lon="4.72845">
        <ele>170</ele>
        <time>2018-08-22T10:35:16Z</time>
      </trkpt>
      <trkpt lat="45.92814" lon="4.72837">
        <ele>170</ele>
        <time>2018-08-22T10:35:17Z</time>
      </trkpt>
      <trkpt lat="45.92812" lon="4.72829">
        <ele>171</ele>
        <time>2018-08-22T10:35:18Z</time>
      </trkpt>
      <trkpt lat="45.92811" lon="4.72822">
        <ele>171</ele>
        <time>2018-08-22T10:35:19Z</time>
      </trkpt>
      <trkpt lat="45.92809" lon="4.7281">
        <ele>171</ele>
        <time>2018-08-22T10:35:21Z</time>
      </trkpt>
      <trkpt lat="45.92807" lon="4.72802">
        <ele>171</ele>
        <time>2018-08-22T10:35:22Z</time>
      </trkpt>
      <trkpt lat="45.92804" lon="4.7279">
        <ele>171</ele>
        <time>2018-08-22T10:35:24Z</time>
      </trkpt>
      <trkpt lat="45.92799" lon="4.72786">
        <ele>171</ele>
        <time>2018-08-22T10:35:25Z</time>
      </trkpt>
      <trkpt lat="45.92795" lon="4.72789">
        <ele>171</ele>
        <time>2018-08-22T10:35:27Z</time>
      </trkpt>
      <trkpt lat="45.92791" lon="4.72793">
        <ele>170</ele>
        <time>2018-08-22T10:35:28Z</time>
      </trkpt>
      <trkpt lat="45.92786" lon="4.72795">
        <ele>170</ele>
        <time>2018-08-22T10:35:29Z</time>
      </trkpt>
      <trkpt lat="45.92782" lon="4.728">
        <ele>170</ele>
        <time>2018-08-22T10:35:30Z</time>
      </trkpt>
      <trkpt lat="45.92776" lon="4.72802">
        <ele>170</ele>
        <time>2018-08-22T10:35:31Z</time>
      </trkpt>
      <trkpt lat="45.92771" lon="4.72806">
        <ele>170</ele>
        <time>2018-08-22T10:35:32Z</time>
      </trkpt>
      <trkpt lat="45.92767" lon="4.72809">
        <ele>170</ele>
        <time>2018-08-22T10:35:33Z</time>
      </trkpt>
      <trkpt lat="45.92764" lon="4.72816">
        <ele>170</ele>
        <time>2018-08-22T10:35:34Z</time>
      </trkpt>
      <trkpt lat="45.92758" lon="4.72818">
        <ele>170</ele>
        <time>2018-08-22T10:35:35Z</time>
      </trkpt>
      <trkpt lat="45.92754" lon="4.72822">
        <ele>170</ele>
        <time>2018-08-22T10:35:36Z</time>
      </trkpt>
      <trkpt lat="45.92751" lon="4.72824">
        <ele>169</ele>
        <time>2018-08-22T10:35:37Z</time>
      </trkpt>
      <trkpt lat="45.92744" lon="4.72824">
        <ele>169</ele>
        <time>2018-08-22T10:35:38Z</time>
      </trkpt>
      <trkpt lat="45.9274" lon="4.72826">
        <ele>169</ele>
        <time>2018-08-22T10:35:39Z</time>
      </trkpt>
      <trkpt lat="45.92735" lon="4.72831">
        <ele>169</ele>
        <time>2018-08-22T10:35:40Z</time>
      </trkpt>
      <trkpt lat="45.9273" lon="4.72835">
        <ele>169</ele>
        <time>2018-08-22T10:35:41Z</time>
      </trkpt>
      <trkpt lat="45.92726" lon="4.72842">
        <ele>169</ele>
        <time>2018-08-22T10:35:42Z</time>
      </trkpt>
      <trkpt lat="45.92721" lon="4.72846">
        <ele>169</ele>
        <time>2018-08-22T10:35:43Z</time>
      </trkpt>
      <trkpt lat="45.92716" lon="4.72849">
        <ele>169</ele>
        <time>2018-08-22T10:35:44Z</time>
      </trkpt>
      <trkpt lat="45.92711" lon="4.72852">
        <ele>169</ele>
        <time>2018-08-22T10:35:45Z</time>
      </trkpt>
      <trkpt lat="45.92707" lon="4.72856">
        <ele>169</ele>
        <time>2018-08-22T10:35:46Z</time>
      </trkpt>
      <trkpt lat="45.92702" lon="4.72859">
        <ele>169</ele>
        <time>2018-08-22T10:35:47Z</time>
      </trkpt>
      <trkpt lat="45.92697" lon="4.72861">
        <ele>169</ele>
        <time>2018-08-22T10:35:48Z</time>
      </trkpt>
      <trkpt lat="45.92693" lon="4.72864">
        <ele>169</ele>
        <time>2018-08-22T10:35:49Z</time>
      </trkpt>
      <trkpt lat="45.92689" lon="4.72867">
        <ele>169</ele>
        <time>2018-08-22T10:35:50Z</time>
      </trkpt>
      <trkpt lat="45.92685" lon="4.72871">
        <ele>169</ele>
        <time>2018-08-22T10:35:51Z</time>
      </trkpt>
      <trkpt lat="45.92681" lon="4.72875">
        <ele>170</ele>
        <time>2018-08-22T10:35:52Z</time>
      </trkpt>
      <trkpt lat="45.92676" lon="4.72881">
        <ele>170</ele>
        <time>2018-08-22T10:35:53Z</time>
      </trkpt>
      <trkpt lat="45.92671" lon="4.72884">
        <ele>170</ele>
        <time>2018-08-22T10:35:54Z</time>
      </trkpt>
      <trkpt lat="45.92667" lon="4.72888">
        <ele>169</ele>
        <time>2018-08-22T10:35:55Z</time>
      </trkpt>
      <trkpt lat="45.92663" lon="4.72893">
        <ele>170</ele>
        <time>2018-08-22T10:35:56Z</time>
      </trkpt>
      <trkpt lat="45.92659" lon="4.72896">
        <ele>170</ele>
        <time>2018-08-22T10:35:57Z</time>
      </trkpt>
      <trkpt lat="45.92655" lon="4.72899">
        <ele>170</ele>
        <time>2018-08-22T10:35:58Z</time>
      </trkpt>
      <trkpt lat="45.92651" lon="4.72902">
        <ele>170</ele>
        <time>2018-08-22T10:35:59Z</time>
      </trkpt>
      <trkpt lat="45.92646" lon="4.72903">
        <ele>169</ele>
        <time>2018-08-22T10:36:00Z</time>
      </trkpt>
      <trkpt lat="45.92642" lon="4.72909">
        <ele>169</ele>
        <time>2018-08-22T10:36:01Z</time>
      </trkpt>
      <trkpt lat="45.92638" lon="4.72912">
        <ele>169</ele>
        <time>2018-08-22T10:36:02Z</time>
      </trkpt>
      <trkpt lat="45.92633" lon="4.72916">
        <ele>169</ele>
        <time>2018-08-22T10:36:03Z</time>
      </trkpt>
      <trkpt lat="45.92628" lon="4.72919">
        <ele>170</ele>
        <time>2018-08-22T10:36:04Z</time>
      </trkpt>
      <trkpt lat="45.92624" lon="4.72923">
        <ele>169</ele>
        <time>2018-08-22T10:36:05Z</time>
      </trkpt>
      <trkpt lat="45.92619" lon="4.72926">
        <ele>169</ele>
        <time>2018-08-22T10:36:06Z</time>
      </trkpt>
      <trkpt lat="45.92614" lon="4.72931">
        <ele>169</ele>
        <time>2018-08-22T10:36:07Z</time>
      </trkpt>
      <trkpt lat="45.92609" lon="4.72935">
        <ele>169</ele>
        <time>2018-08-22T10:36:08Z</time>
      </trkpt>
      <trkpt lat="45.92605" lon="4.72941">
        <ele>169</ele>
        <time>2018-08-22T10:36:09Z</time>
      </trkpt>
      <trkpt lat="45.92602" lon="4.72946">
        <ele>169</ele>
        <time>2018-08-22T10:36:10Z</time>
      </trkpt>
      <trkpt lat="45.92597" lon="4.72951">
        <ele>169</ele>
        <time>2018-08-22T10:36:11Z</time>
      </trkpt>
      <trkpt lat="45.92593" lon="4.72956">
        <ele>169</ele>
        <time>2018-08-22T10:36:12Z</time>
      </trkpt>
      <trkpt lat="45.92589" lon="4.72961">
        <ele>169</ele>
        <time>2018-08-22T10:36:13Z</time>
      </trkpt>
      <trkpt lat="45.92585" lon="4.72966">
        <ele>169</ele>
        <time>2018-08-22T10:36:14Z</time>
      </trkpt>
      <trkpt lat="45.92579" lon="4.72972">
        <ele>169</ele>
        <time>2018-08-22T10:36:15Z</time>
      </trkpt>
      <trkpt lat="45.92575" lon="4.72978">
        <ele>169</ele>
        <time>2018-08-22T10:36:16Z</time>
      </trkpt>
      <trkpt lat="45.9257" lon="4.72982">
        <ele>169</ele>
        <time>2018-08-22T10:36:17Z</time>
      </trkpt>
      <trkpt lat="45.92565" lon="4.72987">
        <ele>169</ele>
        <time>2018-08-22T10:36:18Z</time>
      </trkpt>
      <trkpt lat="45.92559" lon="4.72992">
        <ele>169</ele>
        <time>2018-08-22T10:36:19Z</time>
      </trkpt>
      <trkpt lat="45.92555" lon="4.72998">
        <ele>169</ele>
        <time>2018-08-22T10:36:20Z</time>
      </trkpt>
      <trkpt lat="45.9255" lon="4.73003">
        <ele>169</ele>
        <time>2018-08-22T10:36:21Z</time>
      </trkpt>
      <trkpt lat="45.92545" lon="4.73008">
        <ele>169</ele>
        <time>2018-08-22T10:36:22Z</time>
      </trkpt>
      <trkpt lat="45.9254" lon="4.73012">
        <ele>169</ele>
        <time>2018-08-22T10:36:23Z</time>
      </trkpt>
      <trkpt lat="45.92535" lon="4.73017">
        <ele>169</ele>
        <time>2018-08-22T10:36:24Z</time>
      </trkpt>
      <trkpt lat="45.9253" lon="4.73021">
        <ele>169</ele>
        <time>2018-08-22T10:36:25Z</time>
      </trkpt>
      <trkpt lat="45.92525" lon="4.73025">
        <ele>169</ele>
        <time>2018-08-22T10:36:26Z</time>
      </trkpt>
      <trkpt lat="45.9252" lon="4.73029">
        <ele>169</ele>
        <time>2018-08-22T10:36:27Z</time>
      </trkpt>
      <trkpt lat="45.92515" lon="4.7303">
        <ele>169</ele>
        <time>2018-08-22T10:36:28Z</time>
      </trkpt>
      <trkpt lat="45.92511" lon="4.73035">
        <ele>169</ele>
        <time>2018-08-22T10:36:29Z</time>
      </trkpt>
      <trkpt lat="45.92506" lon="4.73039">
        <ele>169</ele>
        <time>2018-08-22T10:36:30Z</time>
      </trkpt>
      <trkpt lat="45.92502" lon="4.73046">
        <ele>170</ele>
        <time>2018-08-22T10:36:31Z</time>
      </trkpt>
      <trkpt lat="45.92497" lon="4.73049">
        <ele>170</ele>
        <time>2018-08-22T10:36:32Z</time>
      </trkpt>
      <trkpt lat="45.92491" lon="4.73056">
        <ele>170</ele>
        <time>2018-08-22T10:36:33Z</time>
      </trkpt>
      <trkpt lat="45.92486" lon="4.73061">
        <ele>170</ele>
        <time>2018-08-22T10:36:34Z</time>
      </trkpt>
      <trkpt lat="45.92482" lon="4.73067">
        <ele>170</ele>
        <time>2018-08-22T10:36:35Z</time>
      </trkpt>
      <trkpt lat="45.92477" lon="4.73069">
        <ele>170</ele>
        <time>2018-08-22T10:36:36Z</time>
      </trkpt>
      <trkpt lat="45.92471" lon="4.73072">
        <ele>170</ele>
        <time>2018-08-22T10:36:37Z</time>
      </trkpt>
      <trkpt lat="45.92467" lon="4.73074">
        <ele>170</ele>
        <time>2018-08-22T10:36:38Z</time>
      </trkpt>
      <trkpt lat="45.92462" lon="4.73078">
        <ele>170</ele>
        <time>2018-08-22T10:36:39Z</time>
      </trkpt>
      <trkpt lat="45.92458" lon="4.73083">
        <ele>170</ele>
        <time>2018-08-22T10:36:40Z</time>
      </trkpt>
      <trkpt lat="45.92454" lon="4.73087">
        <ele>170</ele>
        <time>2018-08-22T10:36:41Z</time>
      </trkpt>
      <trkpt lat="45.92449" lon="4.7309">
        <ele>170</ele>
        <time>2018-08-22T10:36:42Z</time>
      </trkpt>
      <trkpt lat="45.92445" lon="4.73094">
        <ele>170</ele>
        <time>2018-08-22T10:36:43Z</time>
      </trkpt>
      <trkpt lat="45.9244" lon="4.73098">
        <ele>170</ele>
        <time>2018-08-22T10:36:44Z</time>
      </trkpt>
      <trkpt lat="45.92436" lon="4.73102">
        <ele>170</ele>
        <time>2018-08-22T10:36:45Z</time>
      </trkpt>
      <trkpt lat="45.92432" lon="4.73106">
        <ele>170</ele>
        <time>2018-08-22T10:36:46Z</time>
      </trkpt>
      <trkpt lat="45.92427" lon="4.73109">
        <ele>170</ele>
        <time>2018-08-22T10:36:47Z</time>
      </trkpt>
      <trkpt lat="45.92423" lon="4.73112">
        <ele>170</ele>
        <time>2018-08-22T10:36:48Z</time>
      </trkpt>
      <trkpt lat="45.92415" lon="4.73117">
        <ele>171</ele>
        <time>2018-08-22T10:36:50Z</time>
      </trkpt>
      <trkpt lat="45.9241" lon="4.73119">
        <ele>171</ele>
        <time>2018-08-22T10:36:51Z</time>
      </trkpt>
      <trkpt lat="45.92404" lon="4.73127">
        <ele>171</ele>
        <time>2018-08-22T10:36:53Z</time>
      </trkpt>
      <trkpt lat="45.92404" lon="4.73134">
        <ele>171</ele>
        <time>2018-08-22T10:36:54Z</time>
      </trkpt>
      <trkpt lat="45.92404" lon="4.73141">
        <ele>171</ele>
        <time>2018-08-22T10:36:55Z</time>
      </trkpt>
      <trkpt lat="45.92404" lon="4.73148">
        <ele>171</ele>
        <time>2018-08-22T10:36:56Z</time>
      </trkpt>
      <trkpt lat="45.92404" lon="4.73156">
        <ele>171</ele>
        <time>2018-08-22T10:36:57Z</time>
      </trkpt>
      <trkpt lat="45.92404" lon="4.73165">
        <ele>170</ele>
        <time>2018-08-22T10:36:58Z</time>
      </trkpt>
      <trkpt lat="45.92405" lon="4.73172">
        <ele>171</ele>
        <time>2018-08-22T10:36:59Z</time>
      </trkpt>
      <trkpt lat="45.92405" lon="4.73181">
        <ele>171</ele>
        <time>2018-08-22T10:37:00Z</time>
      </trkpt>
      <trkpt lat="45.92406" lon="4.7319">
        <ele>171</ele>
        <time>2018-08-22T10:37:01Z</time>
      </trkpt>
      <trkpt lat="45.92406" lon="4.73199">
        <ele>171</ele>
        <time>2018-08-22T10:37:02Z</time>
      </trkpt>
      <trkpt lat="45.92407" lon="4.73209">
        <ele>171</ele>
        <time>2018-08-22T10:37:03Z</time>
      </trkpt>
      <trkpt lat="45.92408" lon="4.73217">
        <ele>171</ele>
        <time>2018-08-22T10:37:04Z</time>
      </trkpt>
      <trkpt lat="45.92408" lon="4.73226">
        <ele>171</ele>
        <time>2018-08-22T10:37:05Z</time>
      </trkpt>
      <trkpt lat="45.92408" lon="4.73234">
        <ele>171</ele>
        <time>2018-08-22T10:37:06Z</time>
      </trkpt>
      <trkpt lat="45.92408" lon="4.73242">
        <ele>171</ele>
        <time>2018-08-22T10:37:07Z</time>
      </trkpt>
      <trkpt lat="45.9241" lon="4.73253">
        <ele>171</ele>
        <time>2018-08-22T10:37:08Z</time>
      </trkpt>
      <trkpt lat="45.92411" lon="4.7326">
        <ele>171</ele>
        <time>2018-08-22T10:37:09Z</time>
      </trkpt>
      <trkpt lat="45.92413" lon="4.73267">
        <ele>171</ele>
        <time>2018-08-22T10:37:10Z</time>
      </trkpt>
      <trkpt lat="45.92412" lon="4.73275">
        <ele>171</ele>
        <time>2018-08-22T10:37:11Z</time>
      </trkpt>
      <trkpt lat="45.92412" lon="4.73282">
        <ele>171</ele>
        <time>2018-08-22T10:37:12Z</time>
      </trkpt>
      <trkpt lat="45.92412" lon="4.7329">
        <ele>171</ele>
        <time>2018-08-22T10:37:13Z</time>
      </trkpt>
      <trkpt lat="45.92413" lon="4.73297">
        <ele>171</ele>
        <time>2018-08-22T10:37:14Z</time>
      </trkpt>
      <trkpt lat="45.92414" lon="4.73306">
        <ele>171</ele>
        <time>2018-08-22T10:37:15Z</time>
      </trkpt>
      <trkpt lat="45.92414" lon="4.73314">
        <ele>171</ele>
        <time>2018-08-22T10:37:16Z</time>
      </trkpt>
      <trkpt lat="45.92415" lon="4.73323">
        <ele>171</ele>
        <time>2018-08-22T10:37:17Z</time>
      </trkpt>
      <trkpt lat="45.92417" lon="4.73334">
        <ele>171</ele>
        <time>2018-08-22T10:37:18Z</time>
      </trkpt>
      <trkpt lat="45.92419" lon="4.73343">
        <ele>171</ele>
        <time>2018-08-22T10:37:19Z</time>
      </trkpt>
      <trkpt lat="45.9242" lon="4.73351">
        <ele>171</ele>
        <time>2018-08-22T10:37:20Z</time>
      </trkpt>
      <trkpt lat="45.92421" lon="4.73358">
        <ele>171</ele>
        <time>2018-08-22T10:37:21Z</time>
      </trkpt>
      <trkpt lat="45.92422" lon="4.73365">
        <ele>172</ele>
        <time>2018-08-22T10:37:22Z</time>
      </trkpt>
      <trkpt lat="45.92423" lon="4.73373">
        <ele>172</ele>
        <time>2018-08-22T10:37:23Z</time>
      </trkpt>
      <trkpt lat="45.92424" lon="4.73381">
        <ele>172</ele>
        <time>2018-08-22T10:37:24Z</time>
      </trkpt>
      <trkpt lat="45.92425" lon="4.73387">
        <ele>172</ele>
        <time>2018-08-22T10:37:25Z</time>
      </trkpt>
      <trkpt lat="45.92426" lon="4.73393">
        <ele>172</ele>
        <time>2018-08-22T10:37:26Z</time>
      </trkpt>
      <trkpt lat="45.92431" lon="4.73402">
        <ele>172</ele>
        <time>2018-08-22T10:37:27Z</time>
      </trkpt>
      <trkpt lat="45.92433" lon="4.73408">
        <ele>172</ele>
        <time>2018-08-22T10:37:28Z</time>
      </trkpt>
      <trkpt lat="45.92441" lon="4.73414">
        <ele>172</ele>
        <time>2018-08-22T10:37:30Z</time>
      </trkpt>
      <trkpt lat="45.92445" lon="4.73418">
        <ele>173</ele>
        <time>2018-08-22T10:37:31Z</time>
      </trkpt>
      <trkpt lat="45.92449" lon="4.73422">
        <ele>173</ele>
        <time>2018-08-22T10:37:32Z</time>
      </trkpt>
      <trkpt lat="45.92452" lon="4.7343">
        <ele>173</ele>
        <time>2018-08-22T10:37:33Z</time>
      </trkpt>
      <trkpt lat="45.92456" lon="4.73434">
        <ele>173</ele>
        <time>2018-08-22T10:37:34Z</time>
      </trkpt>
      <trkpt lat="45.92459" lon="4.73442">
        <ele>173</ele>
        <time>2018-08-22T10:37:35Z</time>
      </trkpt>
      <trkpt lat="45.92461" lon="4.73449">
        <ele>173</ele>
        <time>2018-08-22T10:37:36Z</time>
      </trkpt>
      <trkpt lat="45.92463" lon="4.73454">
        <ele>173</ele>
        <time>2018-08-22T10:37:37Z</time>
      </trkpt>
      <trkpt lat="45.92465" lon="4.73462">
        <ele>173</ele>
        <time>2018-08-22T10:37:38Z</time>
      </trkpt>
      <trkpt lat="45.92466" lon="4.73469">
        <ele>173</ele>
        <time>2018-08-22T10:37:39Z</time>
      </trkpt>
      <trkpt lat="45.92466" lon="4.73477">
        <ele>173</ele>
        <time>2018-08-22T10:37:40Z</time>
      </trkpt>
      <trkpt lat="45.92466" lon="4.73486">
        <ele>173</ele>
        <time>2018-08-22T10:37:41Z</time>
      </trkpt>
      <trkpt lat="45.92466" lon="4.73496">
        <ele>173</ele>
        <time>2018-08-22T10:37:42Z</time>
      </trkpt>
      <trkpt lat="45.92466" lon="4.73504">
        <ele>174</ele>
        <time>2018-08-22T10:37:43Z</time>
      </trkpt>
      <trkpt lat="45.92465" lon="4.73511">
        <ele>174</ele>
        <time>2018-08-22T10:37:44Z</time>
      </trkpt>
      <trkpt lat="45.92466" lon="4.73519">
        <ele>174</ele>
        <time>2018-08-22T10:37:45Z</time>
      </trkpt>
      <trkpt lat="45.92465" lon="4.73526">
        <ele>174</ele>
        <time>2018-08-22T10:37:46Z</time>
      </trkpt>
      <trkpt lat="45.92465" lon="4.73533">
        <ele>174</ele>
        <time>2018-08-22T10:37:47Z</time>
      </trkpt>
      <trkpt lat="45.92464" lon="4.73539">
        <ele>174</ele>
        <time>2018-08-22T10:37:48Z</time>
      </trkpt>
      <trkpt lat="45.92465" lon="4.73547">
        <ele>173</ele>
        <time>2018-08-22T10:37:49Z</time>
      </trkpt>
      <trkpt lat="45.92466" lon="4.73555">
        <ele>173</ele>
        <time>2018-08-22T10:37:50Z</time>
      </trkpt>
      <trkpt lat="45.92466" lon="4.73562">
        <ele>173</ele>
        <time>2018-08-22T10:37:51Z</time>
      </trkpt>
      <trkpt lat="45.92465" lon="4.73569">
        <ele>173</ele>
        <time>2018-08-22T10:37:52Z</time>
      </trkpt>
      <trkpt lat="45.92467" lon="4.73576">
        <ele>173</ele>
        <time>2018-08-22T10:37:53Z</time>
      </trkpt>
      <trkpt lat="45.92467" lon="4.73584">
        <ele>174</ele>
        <time>2018-08-22T10:37:54Z</time>
      </trkpt>
      <trkpt lat="45.92467" lon="4.73591">
        <ele>174</ele>
        <time>2018-08-22T10:37:55Z</time>
      </trkpt>
      <trkpt lat="45.92468" lon="4.73599">
        <ele>174</ele>
        <time>2018-08-22T10:37:56Z</time>
      </trkpt>
      <trkpt lat="45.92468" lon="4.73607">
        <ele>174</ele>
        <time>2018-08-22T10:37:57Z</time>
      </trkpt>
      <trkpt lat="45.92469" lon="4.73615">
        <ele>174</ele>
        <time>2018-08-22T10:37:58Z</time>
      </trkpt>
      <trkpt lat="45.92469" lon="4.73624">
        <ele>174</ele>
        <time>2018-08-22T10:37:59Z</time>
      </trkpt>
      <trkpt lat="45.9247" lon="4.73631">
        <ele>174</ele>
        <time>2018-08-22T10:38:00Z</time>
      </trkpt>
      <trkpt lat="45.9247" lon="4.73638">
        <ele>174</ele>
        <time>2018-08-22T10:38:01Z</time>
      </trkpt>
      <trkpt lat="45.9247" lon="4.73644">
        <ele>174</ele>
        <time>2018-08-22T10:38:02Z</time>
      </trkpt>
      <trkpt lat="45.92471" lon="4.73653">
        <ele>174</ele>
        <time>2018-08-22T10:38:03Z</time>
      </trkpt>
      <trkpt lat="45.92471" lon="4.73665">
        <ele>174</ele>
        <time>2018-08-22T10:38:05Z</time>
      </trkpt>
      <trkpt lat="45.9247" lon="4.7367">
        <ele>174</ele>
        <time>2018-08-22T10:38:06Z</time>
      </trkpt>
      <trkpt lat="45.92468" lon="4.73681">
        <ele>174</ele>
        <time>2018-08-22T10:38:08Z</time>
      </trkpt>
      <trkpt lat="45.92468" lon="4.73687">
        <ele>174</ele>
        <time>2018-08-22T10:38:09Z</time>
      </trkpt>
      <trkpt lat="45.92467" lon="4.73699">
        <ele>174</ele>
        <time>2018-08-22T10:38:13Z</time>
      </trkpt>
      <trkpt lat="45.92467" lon="4.73701">
        <ele>174</ele>
        <time>2018-08-22T10:38:14Z</time>
      </trkpt>
      <trkpt lat="45.92465" lon="4.73705">
        <ele>174</ele>
        <time>2018-08-22T10:38:46.848Z</time>
      </trkpt>
    </trkseg>
  </trk>
</gpx>